<?xml version="1.0" encoding="UTF-8" standalone="no" ?>
<gpx xmlns="http://www.topografix.com/GPX/1/1" xmlns:xsi="http://www.w3.org/2001/XMLSchema-instance" xsi:schemaLocation="http://www.topografix.com/GPX/1/1 http://www.topografix.com/GPX/1/1/gpx.xsd" version="1.1" creator="VisuGPX - https://www.visugpx.com">
  <metadata>
    <name>Sortie 100km - VTT-Gard</name>
    <desc><![CDATA[Sortie 100km - VTT-Gard]]></desc>
  </metadata>
  <trk>
    <name><![CDATA[--Saint-Marcel-de-Careiret-- OR-5858639:Sortie 100 bornes Fred et Ju]]></name>
    <trkseg>
      <trkpt lat="44.14359" lon="4.49306">
        <ele>189</ele>
        <time>2016-03-23T11:22:29Z</time>
      </trkpt>
      <trkpt lat="44.14352" lon="4.49299">
        <ele>189</ele>
        <time>2016-03-23T11:24:29Z</time>
      </trkpt>
      <trkpt lat="44.1434" lon="4.49286">
        <ele>190</ele>
        <time>2016-03-23T11:26:29Z</time>
      </trkpt>
      <trkpt lat="44.14332" lon="4.49278">
        <ele>190</ele>
        <time>2016-03-23T11:28:29Z</time>
      </trkpt>
      <trkpt lat="44.14322" lon="4.4927">
        <ele>191</ele>
        <time>2016-03-23T11:30:29Z</time>
      </trkpt>
      <trkpt lat="44.1431" lon="4.49261">
        <ele>192</ele>
        <time>2016-03-23T11:32:29Z</time>
      </trkpt>
      <trkpt lat="44.14286" lon="4.49243">
        <ele>193</ele>
        <time>2016-03-23T11:34:29Z</time>
      </trkpt>
      <trkpt lat="44.14268" lon="4.4923">
        <ele>193</ele>
        <time>2016-03-23T11:36:29Z</time>
      </trkpt>
      <trkpt lat="44.14252" lon="4.4922">
        <ele>194</ele>
        <time>2016-03-23T11:38:29Z</time>
      </trkpt>
      <trkpt lat="44.14244" lon="4.49214">
        <ele>194</ele>
        <time>2016-03-23T11:40:29Z</time>
      </trkpt>
      <trkpt lat="44.1424" lon="4.4921">
        <ele>194</ele>
        <time>2016-03-23T11:42:29Z</time>
      </trkpt>
      <trkpt lat="44.14238" lon="4.49207">
        <ele>194</ele>
        <time>2016-03-23T11:44:29Z</time>
      </trkpt>
      <trkpt lat="44.14236" lon="4.49204">
        <ele>194</ele>
        <time>2016-03-23T11:46:29Z</time>
      </trkpt>
      <trkpt lat="44.14234" lon="4.49199">
        <ele>194</ele>
        <time>2016-03-23T11:48:29Z</time>
      </trkpt>
      <trkpt lat="44.14232" lon="4.49193">
        <ele>194</ele>
        <time>2016-03-23T11:50:29Z</time>
      </trkpt>
      <trkpt lat="44.14232" lon="4.49189">
        <ele>194</ele>
        <time>2016-03-23T11:52:29Z</time>
      </trkpt>
      <trkpt lat="44.14231" lon="4.49182">
        <ele>194</ele>
        <time>2016-03-23T11:54:29Z</time>
      </trkpt>
      <trkpt lat="44.14232" lon="4.49178">
        <ele>194</ele>
        <time>2016-03-23T11:56:29Z</time>
      </trkpt>
      <trkpt lat="44.14233" lon="4.49167">
        <ele>194</ele>
        <time>2016-03-23T11:58:29Z</time>
      </trkpt>
      <trkpt lat="44.1424" lon="4.49113">
        <ele>196</ele>
        <time>2016-03-23T12:00:29Z</time>
      </trkpt>
      <trkpt lat="44.14247" lon="4.49055">
        <ele>198</ele>
        <time>2016-03-23T12:02:29Z</time>
      </trkpt>
      <trkpt lat="44.14251" lon="4.49024">
        <ele>199</ele>
        <time>2016-03-23T12:04:29Z</time>
      </trkpt>
      <trkpt lat="44.14253" lon="4.49006">
        <ele>199</ele>
        <time>2016-03-23T12:06:29Z</time>
      </trkpt>
      <trkpt lat="44.14258" lon="4.48961">
        <ele>201</ele>
        <time>2016-03-23T12:08:29Z</time>
      </trkpt>
      <trkpt lat="44.14259" lon="4.48947">
        <ele>201</ele>
        <time>2016-03-23T12:10:29Z</time>
      </trkpt>
      <trkpt lat="44.14262" lon="4.48935">
        <ele>202</ele>
        <time>2016-03-23T12:12:29Z</time>
      </trkpt>
      <trkpt lat="44.14267" lon="4.48914">
        <ele>202</ele>
        <time>2016-03-23T12:14:29Z</time>
      </trkpt>
      <trkpt lat="44.14275" lon="4.48886">
        <ele>203</ele>
        <time>2016-03-23T12:16:29Z</time>
      </trkpt>
      <trkpt lat="44.14279" lon="4.48873">
        <ele>203</ele>
        <time>2016-03-23T12:18:29Z</time>
      </trkpt>
      <trkpt lat="44.14284" lon="4.48858">
        <ele>203</ele>
        <time>2016-03-23T12:20:29Z</time>
      </trkpt>
      <trkpt lat="44.14291" lon="4.48836">
        <ele>204</ele>
        <time>2016-03-23T12:22:29Z</time>
      </trkpt>
      <trkpt lat="44.14296" lon="4.48817">
        <ele>204</ele>
        <time>2016-03-23T12:24:29Z</time>
      </trkpt>
      <trkpt lat="44.143" lon="4.48805">
        <ele>205</ele>
        <time>2016-03-23T12:26:29Z</time>
      </trkpt>
      <trkpt lat="44.14301" lon="4.48801">
        <ele>205</ele>
        <time>2016-03-23T12:28:29Z</time>
      </trkpt>
      <trkpt lat="44.14304" lon="4.48798">
        <ele>205</ele>
        <time>2016-03-23T12:30:29Z</time>
      </trkpt>
      <trkpt lat="44.14307" lon="4.48798">
        <ele>205</ele>
        <time>2016-03-23T12:32:29Z</time>
      </trkpt>
      <trkpt lat="44.14308" lon="4.48783">
        <ele>205</ele>
        <time>2016-03-23T12:34:29Z</time>
      </trkpt>
      <trkpt lat="44.14314" lon="4.48766">
        <ele>206</ele>
        <time>2016-03-23T12:36:29Z</time>
      </trkpt>
      <trkpt lat="44.14321" lon="4.4875">
        <ele>206</ele>
        <time>2016-03-23T12:38:29Z</time>
      </trkpt>
      <trkpt lat="44.14328" lon="4.48736">
        <ele>206</ele>
        <time>2016-03-23T12:40:29Z</time>
      </trkpt>
      <trkpt lat="44.14335" lon="4.48723">
        <ele>207</ele>
        <time>2016-03-23T12:42:29Z</time>
      </trkpt>
      <trkpt lat="44.14336" lon="4.4872">
        <ele>207</ele>
        <time>2016-03-23T12:44:29Z</time>
      </trkpt>
      <trkpt lat="44.14338" lon="4.48712">
        <ele>207</ele>
        <time>2016-03-23T12:46:29Z</time>
      </trkpt>
      <trkpt lat="44.14339" lon="4.48708">
        <ele>207</ele>
        <time>2016-03-23T12:48:29Z</time>
      </trkpt>
      <trkpt lat="44.1434" lon="4.487">
        <ele>207</ele>
        <time>2016-03-23T12:50:29Z</time>
      </trkpt>
      <trkpt lat="44.1434" lon="4.4869">
        <ele>207</ele>
        <time>2016-03-23T12:52:29Z</time>
      </trkpt>
      <trkpt lat="44.14338" lon="4.4868">
        <ele>206</ele>
        <time>2016-03-23T12:54:29Z</time>
      </trkpt>
      <trkpt lat="44.14333" lon="4.48664">
        <ele>206</ele>
        <time>2016-03-23T12:56:29Z</time>
      </trkpt>
      <trkpt lat="44.14324" lon="4.48631">
        <ele>207</ele>
        <time>2016-03-23T12:58:29Z</time>
      </trkpt>
      <trkpt lat="44.14318" lon="4.48613">
        <ele>207</ele>
        <time>2016-03-23T13:00:29Z</time>
      </trkpt>
      <trkpt lat="44.14316" lon="4.48606">
        <ele>207</ele>
        <time>2016-03-23T13:02:29Z</time>
      </trkpt>
      <trkpt lat="44.14311" lon="4.48589">
        <ele>207</ele>
        <time>2016-03-23T13:04:29Z</time>
      </trkpt>
      <trkpt lat="44.14306" lon="4.48566">
        <ele>207</ele>
        <time>2016-03-23T13:06:29Z</time>
      </trkpt>
      <trkpt lat="44.14301" lon="4.48539">
        <ele>207</ele>
        <time>2016-03-23T13:08:29Z</time>
      </trkpt>
      <trkpt lat="44.14295" lon="4.48498">
        <ele>206</ele>
        <time>2016-03-23T13:10:29Z</time>
      </trkpt>
      <trkpt lat="44.14288" lon="4.48458">
        <ele>207</ele>
        <time>2016-03-23T13:12:29Z</time>
      </trkpt>
      <trkpt lat="44.14283" lon="4.4843">
        <ele>208</ele>
        <time>2016-03-23T13:14:29Z</time>
      </trkpt>
      <trkpt lat="44.14282" lon="4.48421">
        <ele>208</ele>
        <time>2016-03-23T13:16:29Z</time>
      </trkpt>
      <trkpt lat="44.14282" lon="4.48408">
        <ele>208</ele>
        <time>2016-03-23T13:18:29Z</time>
      </trkpt>
      <trkpt lat="44.14281" lon="4.48384">
        <ele>208</ele>
        <time>2016-03-23T13:20:29Z</time>
      </trkpt>
      <trkpt lat="44.14279" lon="4.48363">
        <ele>208</ele>
        <time>2016-03-23T13:22:29Z</time>
      </trkpt>
      <trkpt lat="44.14277" lon="4.48345">
        <ele>208</ele>
        <time>2016-03-23T13:24:29Z</time>
      </trkpt>
      <trkpt lat="44.14273" lon="4.48332">
        <ele>208</ele>
        <time>2016-03-23T13:26:29Z</time>
      </trkpt>
      <trkpt lat="44.1427" lon="4.48319">
        <ele>209</ele>
        <time>2016-03-23T13:28:29Z</time>
      </trkpt>
      <trkpt lat="44.14263" lon="4.48296">
        <ele>209</ele>
        <time>2016-03-23T13:30:29Z</time>
      </trkpt>
      <trkpt lat="44.14257" lon="4.48276">
        <ele>209</ele>
        <time>2016-03-23T13:32:29Z</time>
      </trkpt>
      <trkpt lat="44.14253" lon="4.48258">
        <ele>210</ele>
        <time>2016-03-23T13:34:29Z</time>
      </trkpt>
      <trkpt lat="44.14251" lon="4.48246">
        <ele>210</ele>
        <time>2016-03-23T13:36:29Z</time>
      </trkpt>
      <trkpt lat="44.14248" lon="4.48234">
        <ele>211</ele>
        <time>2016-03-23T13:38:29Z</time>
      </trkpt>
      <trkpt lat="44.14246" lon="4.48227">
        <ele>211</ele>
        <time>2016-03-23T13:40:29Z</time>
      </trkpt>
      <trkpt lat="44.14242" lon="4.4822">
        <ele>211</ele>
        <time>2016-03-23T13:42:29Z</time>
      </trkpt>
      <trkpt lat="44.14239" lon="4.48213">
        <ele>211</ele>
        <time>2016-03-23T13:44:29Z</time>
      </trkpt>
      <trkpt lat="44.14233" lon="4.48205">
        <ele>212</ele>
        <time>2016-03-23T13:46:29Z</time>
      </trkpt>
      <trkpt lat="44.14217" lon="4.48178">
        <ele>212</ele>
        <time>2016-03-23T13:48:29Z</time>
      </trkpt>
      <trkpt lat="44.14202" lon="4.48159">
        <ele>212</ele>
        <time>2016-03-23T13:50:29Z</time>
      </trkpt>
      <trkpt lat="44.14195" lon="4.48151">
        <ele>212</ele>
        <time>2016-03-23T13:52:29Z</time>
      </trkpt>
      <trkpt lat="44.14191" lon="4.48147">
        <ele>212</ele>
        <time>2016-03-23T13:54:29Z</time>
      </trkpt>
      <trkpt lat="44.14183" lon="4.48142">
        <ele>212</ele>
        <time>2016-03-23T13:56:29Z</time>
      </trkpt>
      <trkpt lat="44.14177" lon="4.48139">
        <ele>212</ele>
        <time>2016-03-23T13:58:29Z</time>
      </trkpt>
      <trkpt lat="44.14166" lon="4.48134">
        <ele>212</ele>
        <time>2016-03-23T14:00:29Z</time>
      </trkpt>
      <trkpt lat="44.14153" lon="4.48128">
        <ele>213</ele>
        <time>2016-03-23T14:02:29Z</time>
      </trkpt>
      <trkpt lat="44.14143" lon="4.48123">
        <ele>213</ele>
        <time>2016-03-23T14:04:29Z</time>
      </trkpt>
      <trkpt lat="44.14134" lon="4.48118">
        <ele>213</ele>
        <time>2016-03-23T14:06:29Z</time>
      </trkpt>
      <trkpt lat="44.14124" lon="4.48111">
        <ele>213</ele>
        <time>2016-03-23T14:08:29Z</time>
      </trkpt>
      <trkpt lat="44.14118" lon="4.48106">
        <ele>213</ele>
        <time>2016-03-23T14:10:29Z</time>
      </trkpt>
      <trkpt lat="44.1411" lon="4.48096">
        <ele>213</ele>
        <time>2016-03-23T14:12:29Z</time>
      </trkpt>
      <trkpt lat="44.14105" lon="4.48089">
        <ele>213</ele>
        <time>2016-03-23T14:14:29Z</time>
      </trkpt>
      <trkpt lat="44.141" lon="4.4808">
        <ele>213</ele>
        <time>2016-03-23T14:16:29Z</time>
      </trkpt>
      <trkpt lat="44.14097" lon="4.48073">
        <ele>213</ele>
        <time>2016-03-23T14:18:29Z</time>
      </trkpt>
      <trkpt lat="44.14094" lon="4.48062">
        <ele>213</ele>
        <time>2016-03-23T14:20:29Z</time>
      </trkpt>
      <trkpt lat="44.14093" lon="4.48055">
        <ele>213</ele>
        <time>2016-03-23T14:22:29Z</time>
      </trkpt>
      <trkpt lat="44.14092" lon="4.48046">
        <ele>213</ele>
        <time>2016-03-23T14:24:29Z</time>
      </trkpt>
      <trkpt lat="44.14093" lon="4.48039">
        <ele>213</ele>
        <time>2016-03-23T14:26:29Z</time>
      </trkpt>
      <trkpt lat="44.14094" lon="4.4803">
        <ele>214</ele>
        <time>2016-03-23T14:28:29Z</time>
      </trkpt>
      <trkpt lat="44.14097" lon="4.48021">
        <ele>214</ele>
        <time>2016-03-23T14:30:29Z</time>
      </trkpt>
      <trkpt lat="44.14099" lon="4.48013">
        <ele>215</ele>
        <time>2016-03-23T14:32:29Z</time>
      </trkpt>
      <trkpt lat="44.14102" lon="4.48005">
        <ele>215</ele>
        <time>2016-03-23T14:34:29Z</time>
      </trkpt>
      <trkpt lat="44.14107" lon="4.47993">
        <ele>216</ele>
        <time>2016-03-23T14:36:29Z</time>
      </trkpt>
      <trkpt lat="44.14111" lon="4.47982">
        <ele>216</ele>
        <time>2016-03-23T14:38:29Z</time>
      </trkpt>
      <trkpt lat="44.14116" lon="4.47969">
        <ele>217</ele>
        <time>2016-03-23T14:40:29Z</time>
      </trkpt>
      <trkpt lat="44.14121" lon="4.47957">
        <ele>218</ele>
        <time>2016-03-23T14:42:29Z</time>
      </trkpt>
      <trkpt lat="44.14124" lon="4.4795">
        <ele>218</ele>
        <time>2016-03-23T14:44:29Z</time>
      </trkpt>
      <trkpt lat="44.14129" lon="4.4794">
        <ele>219</ele>
        <time>2016-03-23T14:46:29Z</time>
      </trkpt>
      <trkpt lat="44.14129" lon="4.4794">
        <ele>219</ele>
        <time>2016-03-23T14:48:29Z</time>
      </trkpt>
      <trkpt lat="44.14101" lon="4.47864">
        <ele>217</ele>
        <time>2016-03-23T14:50:29Z</time>
      </trkpt>
      <trkpt lat="44.14097" lon="4.47854">
        <ele>217</ele>
        <time>2016-03-23T14:52:29Z</time>
      </trkpt>
      <trkpt lat="44.14087" lon="4.47829">
        <ele>216</ele>
        <time>2016-03-23T14:54:29Z</time>
      </trkpt>
      <trkpt lat="44.14081" lon="4.47815">
        <ele>216</ele>
        <time>2016-03-23T14:56:29Z</time>
      </trkpt>
      <trkpt lat="44.1407" lon="4.47793">
        <ele>217</ele>
        <time>2016-03-23T14:58:29Z</time>
      </trkpt>
      <trkpt lat="44.14063" lon="4.47778">
        <ele>218</ele>
        <time>2016-03-23T15:00:29Z</time>
      </trkpt>
      <trkpt lat="44.14056" lon="4.47766">
        <ele>218</ele>
        <time>2016-03-23T15:02:29Z</time>
      </trkpt>
      <trkpt lat="44.1405" lon="4.47757">
        <ele>219</ele>
        <time>2016-03-23T15:04:29Z</time>
      </trkpt>
      <trkpt lat="44.14045" lon="4.47748">
        <ele>219</ele>
        <time>2016-03-23T15:06:29Z</time>
      </trkpt>
      <trkpt lat="44.14043" lon="4.47746">
        <ele>219</ele>
        <time>2016-03-23T15:08:29Z</time>
      </trkpt>
      <trkpt lat="44.14035" lon="4.47735">
        <ele>220</ele>
        <time>2016-03-23T15:10:29Z</time>
      </trkpt>
      <trkpt lat="44.14025" lon="4.47722">
        <ele>221</ele>
        <time>2016-03-23T15:12:29Z</time>
      </trkpt>
      <trkpt lat="44.14011" lon="4.47707">
        <ele>222</ele>
        <time>2016-03-23T15:14:29Z</time>
      </trkpt>
      <trkpt lat="44.14003" lon="4.47699">
        <ele>222</ele>
        <time>2016-03-23T15:16:29Z</time>
      </trkpt>
      <trkpt lat="44.13987" lon="4.47685">
        <ele>224</ele>
        <time>2016-03-23T15:18:29Z</time>
      </trkpt>
      <trkpt lat="44.13927" lon="4.47637">
        <ele>229</ele>
        <time>2016-03-23T15:20:29Z</time>
      </trkpt>
      <trkpt lat="44.13914" lon="4.47627">
        <ele>230</ele>
        <time>2016-03-23T15:22:29Z</time>
      </trkpt>
      <trkpt lat="44.13903" lon="4.47619">
        <ele>231</ele>
        <time>2016-03-23T15:24:29Z</time>
      </trkpt>
      <trkpt lat="44.13885" lon="4.47605">
        <ele>231</ele>
        <time>2016-03-23T15:26:29Z</time>
      </trkpt>
      <trkpt lat="44.13868" lon="4.47592">
        <ele>232</ele>
        <time>2016-03-23T15:28:29Z</time>
      </trkpt>
      <trkpt lat="44.13802" lon="4.47538">
        <ele>233</ele>
        <time>2016-03-23T15:30:29Z</time>
      </trkpt>
      <trkpt lat="44.13796" lon="4.47533">
        <ele>232</ele>
        <time>2016-03-23T15:32:29Z</time>
      </trkpt>
      <trkpt lat="44.13785" lon="4.47524">
        <ele>232</ele>
        <time>2016-03-23T15:34:29Z</time>
      </trkpt>
      <trkpt lat="44.13754" lon="4.47502">
        <ele>232</ele>
        <time>2016-03-23T15:36:29Z</time>
      </trkpt>
      <trkpt lat="44.13746" lon="4.47498">
        <ele>232</ele>
        <time>2016-03-23T15:38:29Z</time>
      </trkpt>
      <trkpt lat="44.13738" lon="4.47492">
        <ele>232</ele>
        <time>2016-03-23T15:40:29Z</time>
      </trkpt>
      <trkpt lat="44.1373" lon="4.47488">
        <ele>232</ele>
        <time>2016-03-23T15:42:29Z</time>
      </trkpt>
      <trkpt lat="44.13719" lon="4.47483">
        <ele>232</ele>
        <time>2016-03-23T15:44:29Z</time>
      </trkpt>
      <trkpt lat="44.13712" lon="4.47481">
        <ele>232</ele>
        <time>2016-03-23T15:46:29Z</time>
      </trkpt>
      <trkpt lat="44.13707" lon="4.4748">
        <ele>232</ele>
        <time>2016-03-23T15:48:29Z</time>
      </trkpt>
      <trkpt lat="44.13702" lon="4.47478">
        <ele>232</ele>
        <time>2016-03-23T15:50:29Z</time>
      </trkpt>
      <trkpt lat="44.13695" lon="4.47475">
        <ele>232</ele>
        <time>2016-03-23T15:52:29Z</time>
      </trkpt>
      <trkpt lat="44.13682" lon="4.47474">
        <ele>233</ele>
        <time>2016-03-23T15:54:29Z</time>
      </trkpt>
      <trkpt lat="44.13653" lon="4.47471">
        <ele>234</ele>
        <time>2016-03-23T15:56:29Z</time>
      </trkpt>
      <trkpt lat="44.1363" lon="4.4747">
        <ele>234</ele>
        <time>2016-03-23T15:58:29Z</time>
      </trkpt>
      <trkpt lat="44.13574" lon="4.47473">
        <ele>237</ele>
        <time>2016-03-23T16:00:29Z</time>
      </trkpt>
      <trkpt lat="44.13574" lon="4.47473">
        <ele>237</ele>
        <time>2016-03-23T16:02:29Z</time>
      </trkpt>
      <trkpt lat="44.13563" lon="4.47468">
        <ele>237</ele>
        <time>2016-03-23T16:04:29Z</time>
      </trkpt>
      <trkpt lat="44.13557" lon="4.47467">
        <ele>237</ele>
        <time>2016-03-23T16:06:29Z</time>
      </trkpt>
      <trkpt lat="44.13552" lon="4.47465">
        <ele>237</ele>
        <time>2016-03-23T16:08:29Z</time>
      </trkpt>
      <trkpt lat="44.13548" lon="4.47463">
        <ele>237</ele>
        <time>2016-03-23T16:10:29Z</time>
      </trkpt>
      <trkpt lat="44.13546" lon="4.4746">
        <ele>237</ele>
        <time>2016-03-23T16:12:29Z</time>
      </trkpt>
      <trkpt lat="44.13543" lon="4.47455">
        <ele>237</ele>
        <time>2016-03-23T16:14:29Z</time>
      </trkpt>
      <trkpt lat="44.13543" lon="4.47453">
        <ele>237</ele>
        <time>2016-03-23T16:16:29Z</time>
      </trkpt>
      <trkpt lat="44.13543" lon="4.47451">
        <ele>237</ele>
        <time>2016-03-23T16:18:29Z</time>
      </trkpt>
      <trkpt lat="44.13542" lon="4.47442">
        <ele>237</ele>
        <time>2016-03-23T16:20:29Z</time>
      </trkpt>
      <trkpt lat="44.13542" lon="4.47439">
        <ele>237</ele>
        <time>2016-03-23T16:22:29Z</time>
      </trkpt>
      <trkpt lat="44.13542" lon="4.47437">
        <ele>237</ele>
        <time>2016-03-23T16:24:29Z</time>
      </trkpt>
      <trkpt lat="44.13543" lon="4.47435">
        <ele>237</ele>
        <time>2016-03-23T16:26:29Z</time>
      </trkpt>
      <trkpt lat="44.13543" lon="4.47432">
        <ele>237</ele>
        <time>2016-03-23T16:28:29Z</time>
      </trkpt>
      <trkpt lat="44.13546" lon="4.47421">
        <ele>237</ele>
        <time>2016-03-23T16:30:29Z</time>
      </trkpt>
      <trkpt lat="44.13549" lon="4.4741">
        <ele>237</ele>
        <time>2016-03-23T16:32:29Z</time>
      </trkpt>
      <trkpt lat="44.13551" lon="4.47404">
        <ele>237</ele>
        <time>2016-03-23T16:34:29Z</time>
      </trkpt>
      <trkpt lat="44.13554" lon="4.47397">
        <ele>237</ele>
        <time>2016-03-23T16:36:29Z</time>
      </trkpt>
      <trkpt lat="44.13558" lon="4.47388">
        <ele>237</ele>
        <time>2016-03-23T16:38:29Z</time>
      </trkpt>
      <trkpt lat="44.13562" lon="4.4738">
        <ele>237</ele>
        <time>2016-03-23T16:40:29Z</time>
      </trkpt>
      <trkpt lat="44.13566" lon="4.47373">
        <ele>236</ele>
        <time>2016-03-23T16:42:29Z</time>
      </trkpt>
      <trkpt lat="44.1357" lon="4.47366">
        <ele>236</ele>
        <time>2016-03-23T16:44:29Z</time>
      </trkpt>
      <trkpt lat="44.13574" lon="4.4736">
        <ele>236</ele>
        <time>2016-03-23T16:46:29Z</time>
      </trkpt>
      <trkpt lat="44.13579" lon="4.47353">
        <ele>236</ele>
        <time>2016-03-23T16:48:29Z</time>
      </trkpt>
      <trkpt lat="44.13584" lon="4.47345">
        <ele>236</ele>
        <time>2016-03-23T16:50:29Z</time>
      </trkpt>
      <trkpt lat="44.13588" lon="4.47338">
        <ele>236</ele>
        <time>2016-03-23T16:52:29Z</time>
      </trkpt>
      <trkpt lat="44.13592" lon="4.47331">
        <ele>236</ele>
        <time>2016-03-23T16:54:29Z</time>
      </trkpt>
      <trkpt lat="44.13596" lon="4.47324">
        <ele>235</ele>
        <time>2016-03-23T16:56:29Z</time>
      </trkpt>
      <trkpt lat="44.13599" lon="4.47317">
        <ele>235</ele>
        <time>2016-03-23T16:58:29Z</time>
      </trkpt>
      <trkpt lat="44.13601" lon="4.4731">
        <ele>235</ele>
        <time>2016-03-23T17:00:29Z</time>
      </trkpt>
      <trkpt lat="44.13605" lon="4.473">
        <ele>234</ele>
        <time>2016-03-23T17:02:29Z</time>
      </trkpt>
      <trkpt lat="44.13607" lon="4.47294">
        <ele>234</ele>
        <time>2016-03-23T17:04:29Z</time>
      </trkpt>
      <trkpt lat="44.1361" lon="4.47279">
        <ele>234</ele>
        <time>2016-03-23T17:06:29Z</time>
      </trkpt>
      <trkpt lat="44.13617" lon="4.47248">
        <ele>233</ele>
        <time>2016-03-23T17:08:29Z</time>
      </trkpt>
      <trkpt lat="44.13625" lon="4.47208">
        <ele>233</ele>
        <time>2016-03-23T17:10:29Z</time>
      </trkpt>
      <trkpt lat="44.13628" lon="4.47196">
        <ele>233</ele>
        <time>2016-03-23T17:12:29Z</time>
      </trkpt>
      <trkpt lat="44.13637" lon="4.47167">
        <ele>233</ele>
        <time>2016-03-23T17:14:29Z</time>
      </trkpt>
      <trkpt lat="44.1364" lon="4.47154">
        <ele>233</ele>
        <time>2016-03-23T17:16:29Z</time>
      </trkpt>
      <trkpt lat="44.13643" lon="4.47146">
        <ele>232</ele>
        <time>2016-03-23T17:18:29Z</time>
      </trkpt>
      <trkpt lat="44.13647" lon="4.47129">
        <ele>232</ele>
        <time>2016-03-23T17:20:29Z</time>
      </trkpt>
      <trkpt lat="44.1365" lon="4.47119">
        <ele>232</ele>
        <time>2016-03-23T17:22:29Z</time>
      </trkpt>
      <trkpt lat="44.13656" lon="4.47099">
        <ele>232</ele>
        <time>2016-03-23T17:24:29Z</time>
      </trkpt>
      <trkpt lat="44.1366" lon="4.47082">
        <ele>231</ele>
        <time>2016-03-23T17:26:29Z</time>
      </trkpt>
      <trkpt lat="44.13664" lon="4.47066">
        <ele>231</ele>
        <time>2016-03-23T17:28:29Z</time>
      </trkpt>
      <trkpt lat="44.13666" lon="4.47048">
        <ele>230</ele>
        <time>2016-03-23T17:30:29Z</time>
      </trkpt>
      <trkpt lat="44.1367" lon="4.47031">
        <ele>230</ele>
        <time>2016-03-23T17:32:29Z</time>
      </trkpt>
      <trkpt lat="44.13671" lon="4.4702">
        <ele>229</ele>
        <time>2016-03-23T17:34:29Z</time>
      </trkpt>
      <trkpt lat="44.13672" lon="4.47004">
        <ele>228</ele>
        <time>2016-03-23T17:36:29Z</time>
      </trkpt>
      <trkpt lat="44.13674" lon="4.46992">
        <ele>228</ele>
        <time>2016-03-23T17:38:29Z</time>
      </trkpt>
      <trkpt lat="44.13675" lon="4.46979">
        <ele>227</ele>
        <time>2016-03-23T17:40:29Z</time>
      </trkpt>
      <trkpt lat="44.13676" lon="4.46967">
        <ele>227</ele>
        <time>2016-03-23T17:42:29Z</time>
      </trkpt>
      <trkpt lat="44.13677" lon="4.46954">
        <ele>227</ele>
        <time>2016-03-23T17:44:29Z</time>
      </trkpt>
      <trkpt lat="44.13678" lon="4.46928">
        <ele>226</ele>
        <time>2016-03-23T17:46:29Z</time>
      </trkpt>
      <trkpt lat="44.13678" lon="4.46915">
        <ele>225</ele>
        <time>2016-03-23T17:48:29Z</time>
      </trkpt>
      <trkpt lat="44.13679" lon="4.46897">
        <ele>225</ele>
        <time>2016-03-23T17:50:29Z</time>
      </trkpt>
      <trkpt lat="44.13681" lon="4.46855">
        <ele>223</ele>
        <time>2016-03-23T17:52:29Z</time>
      </trkpt>
      <trkpt lat="44.13682" lon="4.46827">
        <ele>222</ele>
        <time>2016-03-23T17:54:29Z</time>
      </trkpt>
      <trkpt lat="44.13685" lon="4.46765">
        <ele>220</ele>
        <time>2016-03-23T17:56:29Z</time>
      </trkpt>
      <trkpt lat="44.13685" lon="4.4676">
        <ele>220</ele>
        <time>2016-03-23T17:58:29Z</time>
      </trkpt>
      <trkpt lat="44.13688" lon="4.46698">
        <ele>218</ele>
        <time>2016-03-23T18:00:29Z</time>
      </trkpt>
      <trkpt lat="44.13689" lon="4.46653">
        <ele>217</ele>
        <time>2016-03-23T18:02:29Z</time>
      </trkpt>
      <trkpt lat="44.13691" lon="4.46633">
        <ele>216</ele>
        <time>2016-03-23T18:04:29Z</time>
      </trkpt>
      <trkpt lat="44.13693" lon="4.46618">
        <ele>216</ele>
        <time>2016-03-23T18:06:29Z</time>
      </trkpt>
      <trkpt lat="44.13695" lon="4.46598">
        <ele>215</ele>
        <time>2016-03-23T18:08:29Z</time>
      </trkpt>
      <trkpt lat="44.13697" lon="4.46587">
        <ele>215</ele>
        <time>2016-03-23T18:10:29Z</time>
      </trkpt>
      <trkpt lat="44.13699" lon="4.46577">
        <ele>214</ele>
        <time>2016-03-23T18:12:29Z</time>
      </trkpt>
      <trkpt lat="44.13702" lon="4.46567">
        <ele>214</ele>
        <time>2016-03-23T18:14:29Z</time>
      </trkpt>
      <trkpt lat="44.13704" lon="4.46558">
        <ele>214</ele>
        <time>2016-03-23T18:16:29Z</time>
      </trkpt>
      <trkpt lat="44.13709" lon="4.46546">
        <ele>213</ele>
        <time>2016-03-23T18:18:29Z</time>
      </trkpt>
      <trkpt lat="44.13712" lon="4.46535">
        <ele>213</ele>
        <time>2016-03-23T18:20:29Z</time>
      </trkpt>
      <trkpt lat="44.1372" lon="4.46511">
        <ele>212</ele>
        <time>2016-03-23T18:22:29Z</time>
      </trkpt>
      <trkpt lat="44.1373" lon="4.46483">
        <ele>211</ele>
        <time>2016-03-23T18:24:29Z</time>
      </trkpt>
      <trkpt lat="44.13743" lon="4.46447">
        <ele>209</ele>
        <time>2016-03-23T18:26:29Z</time>
      </trkpt>
      <trkpt lat="44.13764" lon="4.46386">
        <ele>207</ele>
        <time>2016-03-23T18:28:29Z</time>
      </trkpt>
      <trkpt lat="44.13769" lon="4.4637">
        <ele>206</ele>
        <time>2016-03-23T18:30:29Z</time>
      </trkpt>
      <trkpt lat="44.13778" lon="4.46346">
        <ele>206</ele>
        <time>2016-03-23T18:32:29Z</time>
      </trkpt>
      <trkpt lat="44.13785" lon="4.46326">
        <ele>206</ele>
        <time>2016-03-23T18:34:29Z</time>
      </trkpt>
      <trkpt lat="44.13798" lon="4.46289">
        <ele>206</ele>
        <time>2016-03-23T18:36:29Z</time>
      </trkpt>
      <trkpt lat="44.13811" lon="4.46252">
        <ele>205</ele>
        <time>2016-03-23T18:38:29Z</time>
      </trkpt>
      <trkpt lat="44.13813" lon="4.46243">
        <ele>205</ele>
        <time>2016-03-23T18:40:29Z</time>
      </trkpt>
      <trkpt lat="44.13816" lon="4.46232">
        <ele>205</ele>
        <time>2016-03-23T18:42:29Z</time>
      </trkpt>
      <trkpt lat="44.13818" lon="4.46222">
        <ele>205</ele>
        <time>2016-03-23T18:44:29Z</time>
      </trkpt>
      <trkpt lat="44.1382" lon="4.46212">
        <ele>204</ele>
        <time>2016-03-23T18:46:29Z</time>
      </trkpt>
      <trkpt lat="44.13821" lon="4.46205">
        <ele>204</ele>
        <time>2016-03-23T18:48:29Z</time>
      </trkpt>
      <trkpt lat="44.13822" lon="4.46194">
        <ele>204</ele>
        <time>2016-03-23T18:50:29Z</time>
      </trkpt>
      <trkpt lat="44.13822" lon="4.46186">
        <ele>204</ele>
        <time>2016-03-23T18:52:29Z</time>
      </trkpt>
      <trkpt lat="44.13823" lon="4.46177">
        <ele>204</ele>
        <time>2016-03-23T18:54:29Z</time>
      </trkpt>
      <trkpt lat="44.13823" lon="4.46169">
        <ele>203</ele>
        <time>2016-03-23T18:56:29Z</time>
      </trkpt>
      <trkpt lat="44.13823" lon="4.4616">
        <ele>203</ele>
        <time>2016-03-23T18:58:29Z</time>
      </trkpt>
      <trkpt lat="44.13823" lon="4.46151">
        <ele>203</ele>
        <time>2016-03-23T19:00:29Z</time>
      </trkpt>
      <trkpt lat="44.13821" lon="4.4614">
        <ele>202</ele>
        <time>2016-03-23T19:02:29Z</time>
      </trkpt>
      <trkpt lat="44.1382" lon="4.46128">
        <ele>202</ele>
        <time>2016-03-23T19:04:29Z</time>
      </trkpt>
      <trkpt lat="44.13818" lon="4.46113">
        <ele>201</ele>
        <time>2016-03-23T19:06:29Z</time>
      </trkpt>
      <trkpt lat="44.13812" lon="4.46082">
        <ele>199</ele>
        <time>2016-03-23T19:08:29Z</time>
      </trkpt>
      <trkpt lat="44.13808" lon="4.4606">
        <ele>197</ele>
        <time>2016-03-23T19:10:29Z</time>
      </trkpt>
      <trkpt lat="44.13807" lon="4.46049">
        <ele>196</ele>
        <time>2016-03-23T19:12:29Z</time>
      </trkpt>
      <trkpt lat="44.13806" lon="4.46039">
        <ele>195</ele>
        <time>2016-03-23T19:14:29Z</time>
      </trkpt>
      <trkpt lat="44.13806" lon="4.46027">
        <ele>194</ele>
        <time>2016-03-23T19:16:29Z</time>
      </trkpt>
      <trkpt lat="44.13806" lon="4.46018">
        <ele>194</ele>
        <time>2016-03-23T19:18:29Z</time>
      </trkpt>
      <trkpt lat="44.13806" lon="4.46009">
        <ele>193</ele>
        <time>2016-03-23T19:20:29Z</time>
      </trkpt>
      <trkpt lat="44.13808" lon="4.45997">
        <ele>193</ele>
        <time>2016-03-23T19:22:29Z</time>
      </trkpt>
      <trkpt lat="44.13809" lon="4.4599">
        <ele>193</ele>
        <time>2016-03-23T19:24:29Z</time>
      </trkpt>
      <trkpt lat="44.13815" lon="4.45967">
        <ele>192</ele>
        <time>2016-03-23T19:26:29Z</time>
      </trkpt>
      <trkpt lat="44.13825" lon="4.4594">
        <ele>191</ele>
        <time>2016-03-23T19:28:29Z</time>
      </trkpt>
      <trkpt lat="44.13835" lon="4.45913">
        <ele>190</ele>
        <time>2016-03-23T19:30:29Z</time>
      </trkpt>
      <trkpt lat="44.13842" lon="4.45895">
        <ele>190</ele>
        <time>2016-03-23T19:32:29Z</time>
      </trkpt>
      <trkpt lat="44.13853" lon="4.45867">
        <ele>189</ele>
        <time>2016-03-23T19:34:29Z</time>
      </trkpt>
      <trkpt lat="44.13861" lon="4.45846">
        <ele>188</ele>
        <time>2016-03-23T19:36:29Z</time>
      </trkpt>
      <trkpt lat="44.13864" lon="4.45835">
        <ele>188</ele>
        <time>2016-03-23T19:38:29Z</time>
      </trkpt>
      <trkpt lat="44.13868" lon="4.45829">
        <ele>188</ele>
        <time>2016-03-23T19:40:29Z</time>
      </trkpt>
      <trkpt lat="44.13872" lon="4.45819">
        <ele>188</ele>
        <time>2016-03-23T19:42:29Z</time>
      </trkpt>
      <trkpt lat="44.1388" lon="4.45803">
        <ele>188</ele>
        <time>2016-03-23T19:44:29Z</time>
      </trkpt>
      <trkpt lat="44.13888" lon="4.45783">
        <ele>187</ele>
        <time>2016-03-23T19:46:29Z</time>
      </trkpt>
      <trkpt lat="44.13897" lon="4.4576">
        <ele>186</ele>
        <time>2016-03-23T19:48:29Z</time>
      </trkpt>
      <trkpt lat="44.139" lon="4.45752">
        <ele>185</ele>
        <time>2016-03-23T19:50:29Z</time>
      </trkpt>
      <trkpt lat="44.13903" lon="4.45743">
        <ele>185</ele>
        <time>2016-03-23T19:52:29Z</time>
      </trkpt>
      <trkpt lat="44.13906" lon="4.45732">
        <ele>184</ele>
        <time>2016-03-23T19:54:29Z</time>
      </trkpt>
      <trkpt lat="44.13909" lon="4.45722">
        <ele>183</ele>
        <time>2016-03-23T19:56:29Z</time>
      </trkpt>
      <trkpt lat="44.13912" lon="4.4571">
        <ele>182</ele>
        <time>2016-03-23T19:58:29Z</time>
      </trkpt>
      <trkpt lat="44.13916" lon="4.45689">
        <ele>180</ele>
        <time>2016-03-23T20:00:29Z</time>
      </trkpt>
      <trkpt lat="44.13921" lon="4.45662">
        <ele>178</ele>
        <time>2016-03-23T20:02:29Z</time>
      </trkpt>
      <trkpt lat="44.13923" lon="4.45653">
        <ele>178</ele>
        <time>2016-03-23T20:04:29Z</time>
      </trkpt>
      <trkpt lat="44.13925" lon="4.45645">
        <ele>177</ele>
        <time>2016-03-23T20:06:29Z</time>
      </trkpt>
      <trkpt lat="44.13927" lon="4.45637">
        <ele>177</ele>
        <time>2016-03-23T20:08:29Z</time>
      </trkpt>
      <trkpt lat="44.1393" lon="4.45629">
        <ele>177</ele>
        <time>2016-03-23T20:10:29Z</time>
      </trkpt>
      <trkpt lat="44.13932" lon="4.45622">
        <ele>177</ele>
        <time>2016-03-23T20:12:29Z</time>
      </trkpt>
      <trkpt lat="44.13935" lon="4.45611">
        <ele>177</ele>
        <time>2016-03-23T20:14:29Z</time>
      </trkpt>
      <trkpt lat="44.13945" lon="4.45584">
        <ele>176</ele>
        <time>2016-03-23T20:16:29Z</time>
      </trkpt>
      <trkpt lat="44.13964" lon="4.4553">
        <ele>176</ele>
        <time>2016-03-23T20:18:29Z</time>
      </trkpt>
      <trkpt lat="44.13981" lon="4.45483">
        <ele>175</ele>
        <time>2016-03-23T20:20:29Z</time>
      </trkpt>
      <trkpt lat="44.13985" lon="4.45468">
        <ele>174</ele>
        <time>2016-03-23T20:22:29Z</time>
      </trkpt>
      <trkpt lat="44.13992" lon="4.45448">
        <ele>173</ele>
        <time>2016-03-23T20:24:29Z</time>
      </trkpt>
      <trkpt lat="44.13996" lon="4.45438">
        <ele>172</ele>
        <time>2016-03-23T20:26:29Z</time>
      </trkpt>
      <trkpt lat="44.14002" lon="4.45424">
        <ele>171</ele>
        <time>2016-03-23T20:28:29Z</time>
      </trkpt>
      <trkpt lat="44.14014" lon="4.45392">
        <ele>171</ele>
        <time>2016-03-23T20:30:29Z</time>
      </trkpt>
      <trkpt lat="44.14023" lon="4.45369">
        <ele>171</ele>
        <time>2016-03-23T20:32:29Z</time>
      </trkpt>
      <trkpt lat="44.1404" lon="4.45329">
        <ele>170</ele>
        <time>2016-03-23T20:34:29Z</time>
      </trkpt>
      <trkpt lat="44.14051" lon="4.45299">
        <ele>170</ele>
        <time>2016-03-23T20:36:29Z</time>
      </trkpt>
      <trkpt lat="44.14059" lon="4.45278">
        <ele>170</ele>
        <time>2016-03-23T20:38:29Z</time>
      </trkpt>
      <trkpt lat="44.14066" lon="4.45259">
        <ele>170</ele>
        <time>2016-03-23T20:40:29Z</time>
      </trkpt>
      <trkpt lat="44.1407" lon="4.45245">
        <ele>170</ele>
        <time>2016-03-23T20:42:29Z</time>
      </trkpt>
      <trkpt lat="44.14075" lon="4.45232">
        <ele>170</ele>
        <time>2016-03-23T20:44:29Z</time>
      </trkpt>
      <trkpt lat="44.1408" lon="4.45216">
        <ele>170</ele>
        <time>2016-03-23T20:46:29Z</time>
      </trkpt>
      <trkpt lat="44.14084" lon="4.45202">
        <ele>169</ele>
        <time>2016-03-23T20:48:29Z</time>
      </trkpt>
      <trkpt lat="44.14091" lon="4.45183">
        <ele>169</ele>
        <time>2016-03-23T20:50:29Z</time>
      </trkpt>
      <trkpt lat="44.14094" lon="4.45172">
        <ele>169</ele>
        <time>2016-03-23T20:52:29Z</time>
      </trkpt>
      <trkpt lat="44.14098" lon="4.45158">
        <ele>169</ele>
        <time>2016-03-23T20:54:29Z</time>
      </trkpt>
      <trkpt lat="44.14103" lon="4.45146">
        <ele>168</ele>
        <time>2016-03-23T20:56:29Z</time>
      </trkpt>
      <trkpt lat="44.14108" lon="4.45129">
        <ele>168</ele>
        <time>2016-03-23T20:58:29Z</time>
      </trkpt>
      <trkpt lat="44.14113" lon="4.45116">
        <ele>167</ele>
        <time>2016-03-23T21:00:29Z</time>
      </trkpt>
      <trkpt lat="44.14118" lon="4.45105">
        <ele>167</ele>
        <time>2016-03-23T21:02:29Z</time>
      </trkpt>
      <trkpt lat="44.14122" lon="4.45097">
        <ele>167</ele>
        <time>2016-03-23T21:04:29Z</time>
      </trkpt>
      <trkpt lat="44.14128" lon="4.45087">
        <ele>166</ele>
        <time>2016-03-23T21:06:29Z</time>
      </trkpt>
      <trkpt lat="44.14137" lon="4.4507">
        <ele>165</ele>
        <time>2016-03-23T21:08:29Z</time>
      </trkpt>
      <trkpt lat="44.14141" lon="4.45066">
        <ele>165</ele>
        <time>2016-03-23T21:10:29Z</time>
      </trkpt>
      <trkpt lat="44.14149" lon="4.45057">
        <ele>165</ele>
        <time>2016-03-23T21:12:29Z</time>
      </trkpt>
      <trkpt lat="44.1416" lon="4.45046">
        <ele>165</ele>
        <time>2016-03-23T21:14:29Z</time>
      </trkpt>
      <trkpt lat="44.1417" lon="4.45036">
        <ele>165</ele>
        <time>2016-03-23T21:16:29Z</time>
      </trkpt>
      <trkpt lat="44.14188" lon="4.45023">
        <ele>165</ele>
        <time>2016-03-23T21:18:29Z</time>
      </trkpt>
      <trkpt lat="44.14216" lon="4.45003">
        <ele>166</ele>
        <time>2016-03-23T21:20:29Z</time>
      </trkpt>
      <trkpt lat="44.14228" lon="4.44993">
        <ele>166</ele>
        <time>2016-03-23T21:22:29Z</time>
      </trkpt>
      <trkpt lat="44.14254" lon="4.44974">
        <ele>166</ele>
        <time>2016-03-23T21:24:29Z</time>
      </trkpt>
      <trkpt lat="44.14287" lon="4.44948">
        <ele>165</ele>
        <time>2016-03-23T21:26:29Z</time>
      </trkpt>
      <trkpt lat="44.14317" lon="4.44927">
        <ele>163</ele>
        <time>2016-03-23T21:28:29Z</time>
      </trkpt>
      <trkpt lat="44.14334" lon="4.44913">
        <ele>162</ele>
        <time>2016-03-23T21:30:29Z</time>
      </trkpt>
      <trkpt lat="44.1437" lon="4.44888">
        <ele>160</ele>
        <time>2016-03-23T21:32:29Z</time>
      </trkpt>
      <trkpt lat="44.14384" lon="4.4488">
        <ele>159</ele>
        <time>2016-03-23T21:34:29Z</time>
      </trkpt>
      <trkpt lat="44.14398" lon="4.44874">
        <ele>158</ele>
        <time>2016-03-23T21:36:29Z</time>
      </trkpt>
      <trkpt lat="44.14416" lon="4.44866">
        <ele>157</ele>
        <time>2016-03-23T21:38:29Z</time>
      </trkpt>
      <trkpt lat="44.14436" lon="4.44857">
        <ele>156</ele>
        <time>2016-03-23T21:40:29Z</time>
      </trkpt>
      <trkpt lat="44.1446" lon="4.44848">
        <ele>154</ele>
        <time>2016-03-23T21:42:29Z</time>
      </trkpt>
      <trkpt lat="44.14464" lon="4.44846">
        <ele>154</ele>
        <time>2016-03-23T21:44:29Z</time>
      </trkpt>
      <trkpt lat="44.14479" lon="4.44842">
        <ele>153</ele>
        <time>2016-03-23T21:46:29Z</time>
      </trkpt>
      <trkpt lat="44.14502" lon="4.44837">
        <ele>151</ele>
        <time>2016-03-23T21:48:29Z</time>
      </trkpt>
      <trkpt lat="44.14521" lon="4.44834">
        <ele>149</ele>
        <time>2016-03-23T21:50:29Z</time>
      </trkpt>
      <trkpt lat="44.14539" lon="4.44832">
        <ele>147</ele>
        <time>2016-03-23T21:52:29Z</time>
      </trkpt>
      <trkpt lat="44.14553" lon="4.44831">
        <ele>146</ele>
        <time>2016-03-23T21:54:29Z</time>
      </trkpt>
      <trkpt lat="44.14563" lon="4.4483">
        <ele>145</ele>
        <time>2016-03-23T21:56:29Z</time>
      </trkpt>
      <trkpt lat="44.14571" lon="4.4483">
        <ele>144</ele>
        <time>2016-03-23T21:58:29Z</time>
      </trkpt>
      <trkpt lat="44.14581" lon="4.44831">
        <ele>143</ele>
        <time>2016-03-23T22:00:29Z</time>
      </trkpt>
      <trkpt lat="44.14599" lon="4.44837">
        <ele>143</ele>
        <time>2016-03-23T22:02:29Z</time>
      </trkpt>
      <trkpt lat="44.14641" lon="4.44859">
        <ele>143</ele>
        <time>2016-03-23T22:04:29Z</time>
      </trkpt>
      <trkpt lat="44.14689" lon="4.44882">
        <ele>142</ele>
        <time>2016-03-23T22:06:29Z</time>
      </trkpt>
      <trkpt lat="44.14707" lon="4.44891">
        <ele>141</ele>
        <time>2016-03-23T22:08:29Z</time>
      </trkpt>
      <trkpt lat="44.14751" lon="4.44915">
        <ele>139</ele>
        <time>2016-03-23T22:10:29Z</time>
      </trkpt>
      <trkpt lat="44.14767" lon="4.44924">
        <ele>138</ele>
        <time>2016-03-23T22:12:29Z</time>
      </trkpt>
      <trkpt lat="44.14786" lon="4.44934">
        <ele>137</ele>
        <time>2016-03-23T22:14:29Z</time>
      </trkpt>
      <trkpt lat="44.148" lon="4.44945">
        <ele>137</ele>
        <time>2016-03-23T22:16:29Z</time>
      </trkpt>
      <trkpt lat="44.14817" lon="4.44955">
        <ele>135</ele>
        <time>2016-03-23T22:18:29Z</time>
      </trkpt>
      <trkpt lat="44.14831" lon="4.44966">
        <ele>135</ele>
        <time>2016-03-23T22:20:29Z</time>
      </trkpt>
      <trkpt lat="44.14845" lon="4.44977">
        <ele>134</ele>
        <time>2016-03-23T22:22:29Z</time>
      </trkpt>
      <trkpt lat="44.14858" lon="4.4499">
        <ele>134</ele>
        <time>2016-03-23T22:24:29Z</time>
      </trkpt>
      <trkpt lat="44.14868" lon="4.45">
        <ele>133</ele>
        <time>2016-03-23T22:26:29Z</time>
      </trkpt>
      <trkpt lat="44.14877" lon="4.45011">
        <ele>133</ele>
        <time>2016-03-23T22:28:29Z</time>
      </trkpt>
      <trkpt lat="44.14883" lon="4.45022">
        <ele>133</ele>
        <time>2016-03-23T22:30:29Z</time>
      </trkpt>
      <trkpt lat="44.1489" lon="4.45032">
        <ele>133</ele>
        <time>2016-03-23T22:32:29Z</time>
      </trkpt>
      <trkpt lat="44.14902" lon="4.45053">
        <ele>133</ele>
        <time>2016-03-23T22:34:29Z</time>
      </trkpt>
      <trkpt lat="44.14915" lon="4.45083">
        <ele>133</ele>
        <time>2016-03-23T22:36:29Z</time>
      </trkpt>
      <trkpt lat="44.14934" lon="4.45127">
        <ele>132</ele>
        <time>2016-03-23T22:38:29Z</time>
      </trkpt>
      <trkpt lat="44.1495" lon="4.45165">
        <ele>132</ele>
        <time>2016-03-23T22:40:29Z</time>
      </trkpt>
      <trkpt lat="44.14956" lon="4.45176">
        <ele>132</ele>
        <time>2016-03-23T22:42:29Z</time>
      </trkpt>
      <trkpt lat="44.14961" lon="4.45187">
        <ele>132</ele>
        <time>2016-03-23T22:44:29Z</time>
      </trkpt>
      <trkpt lat="44.14967" lon="4.45196">
        <ele>132</ele>
        <time>2016-03-23T22:46:29Z</time>
      </trkpt>
      <trkpt lat="44.14973" lon="4.45204">
        <ele>132</ele>
        <time>2016-03-23T22:48:29Z</time>
      </trkpt>
      <trkpt lat="44.14979" lon="4.45211">
        <ele>132</ele>
        <time>2016-03-23T22:50:29Z</time>
      </trkpt>
      <trkpt lat="44.14987" lon="4.45218">
        <ele>131</ele>
        <time>2016-03-23T22:52:29Z</time>
      </trkpt>
      <trkpt lat="44.15002" lon="4.45228">
        <ele>131</ele>
        <time>2016-03-23T22:54:29Z</time>
      </trkpt>
      <trkpt lat="44.15032" lon="4.4525">
        <ele>130</ele>
        <time>2016-03-23T22:56:29Z</time>
      </trkpt>
      <trkpt lat="44.15046" lon="4.4526">
        <ele>129</ele>
        <time>2016-03-23T22:58:29Z</time>
      </trkpt>
      <trkpt lat="44.15067" lon="4.45275">
        <ele>128</ele>
        <time>2016-03-23T23:00:29Z</time>
      </trkpt>
      <trkpt lat="44.15104" lon="4.45303">
        <ele>126</ele>
        <time>2016-03-23T23:02:29Z</time>
      </trkpt>
      <trkpt lat="44.15137" lon="4.4533">
        <ele>124</ele>
        <time>2016-03-23T23:04:29Z</time>
      </trkpt>
      <trkpt lat="44.15174" lon="4.45367">
        <ele>122</ele>
        <time>2016-03-23T23:06:29Z</time>
      </trkpt>
      <trkpt lat="44.15197" lon="4.4539">
        <ele>120</ele>
        <time>2016-03-23T23:08:29Z</time>
      </trkpt>
      <trkpt lat="44.15214" lon="4.45406">
        <ele>119</ele>
        <time>2016-03-23T23:10:29Z</time>
      </trkpt>
      <trkpt lat="44.15223" lon="4.45415">
        <ele>118</ele>
        <time>2016-03-23T23:12:29Z</time>
      </trkpt>
      <trkpt lat="44.15238" lon="4.45424">
        <ele>117</ele>
        <time>2016-03-23T23:14:29Z</time>
      </trkpt>
      <trkpt lat="44.15254" lon="4.45437">
        <ele>116</ele>
        <time>2016-03-23T23:16:29Z</time>
      </trkpt>
      <trkpt lat="44.15271" lon="4.4545">
        <ele>116</ele>
        <time>2016-03-23T23:18:29Z</time>
      </trkpt>
      <trkpt lat="44.15277" lon="4.45455">
        <ele>116</ele>
        <time>2016-03-23T23:20:29Z</time>
      </trkpt>
      <trkpt lat="44.15299" lon="4.45473">
        <ele>116</ele>
        <time>2016-03-23T23:22:29Z</time>
      </trkpt>
      <trkpt lat="44.15329" lon="4.455">
        <ele>117</ele>
        <time>2016-03-23T23:24:29Z</time>
      </trkpt>
      <trkpt lat="44.15349" lon="4.45522">
        <ele>118</ele>
        <time>2016-03-23T23:26:29Z</time>
      </trkpt>
      <trkpt lat="44.15362" lon="4.45539">
        <ele>119</ele>
        <time>2016-03-23T23:28:29Z</time>
      </trkpt>
      <trkpt lat="44.15369" lon="4.45549">
        <ele>119</ele>
        <time>2016-03-23T23:30:29Z</time>
      </trkpt>
      <trkpt lat="44.15372" lon="4.45554">
        <ele>119</ele>
        <time>2016-03-23T23:32:29Z</time>
      </trkpt>
      <trkpt lat="44.15378" lon="4.45567">
        <ele>119</ele>
        <time>2016-03-23T23:34:29Z</time>
      </trkpt>
      <trkpt lat="44.15383" lon="4.45578">
        <ele>119</ele>
        <time>2016-03-23T23:36:29Z</time>
      </trkpt>
      <trkpt lat="44.15386" lon="4.45593">
        <ele>119</ele>
        <time>2016-03-23T23:38:29Z</time>
      </trkpt>
      <trkpt lat="44.15392" lon="4.45611">
        <ele>119</ele>
        <time>2016-03-23T23:40:29Z</time>
      </trkpt>
      <trkpt lat="44.15398" lon="4.45633">
        <ele>118</ele>
        <time>2016-03-23T23:42:29Z</time>
      </trkpt>
      <trkpt lat="44.15405" lon="4.45656">
        <ele>117</ele>
        <time>2016-03-23T23:44:29Z</time>
      </trkpt>
      <trkpt lat="44.15409" lon="4.45674">
        <ele>116</ele>
        <time>2016-03-23T23:46:29Z</time>
      </trkpt>
      <trkpt lat="44.15416" lon="4.45698">
        <ele>115</ele>
        <time>2016-03-23T23:48:29Z</time>
      </trkpt>
      <trkpt lat="44.15423" lon="4.45717">
        <ele>114</ele>
        <time>2016-03-23T23:50:29Z</time>
      </trkpt>
      <trkpt lat="44.15429" lon="4.45729">
        <ele>114</ele>
        <time>2016-03-23T23:52:29Z</time>
      </trkpt>
      <trkpt lat="44.15436" lon="4.45738">
        <ele>114</ele>
        <time>2016-03-23T23:54:29Z</time>
      </trkpt>
      <trkpt lat="44.15443" lon="4.45745">
        <ele>113</ele>
        <time>2016-03-23T23:56:29Z</time>
      </trkpt>
      <trkpt lat="44.15456" lon="4.45753">
        <ele>113</ele>
        <time>2016-03-23T23:58:29Z</time>
      </trkpt>
      <trkpt lat="44.15473" lon="4.45762">
        <ele>114</ele>
        <time>2016-03-24T00:00:29Z</time>
      </trkpt>
      <trkpt lat="44.15486" lon="4.45767">
        <ele>114</ele>
        <time>2016-03-24T00:02:29Z</time>
      </trkpt>
      <trkpt lat="44.15492" lon="4.4577">
        <ele>114</ele>
        <time>2016-03-24T00:04:29Z</time>
      </trkpt>
      <trkpt lat="44.15521" lon="4.45781">
        <ele>115</ele>
        <time>2016-03-24T00:06:29Z</time>
      </trkpt>
      <trkpt lat="44.15562" lon="4.45798">
        <ele>115</ele>
        <time>2016-03-24T00:08:29Z</time>
      </trkpt>
      <trkpt lat="44.15595" lon="4.45815">
        <ele>115</ele>
        <time>2016-03-24T00:10:29Z</time>
      </trkpt>
      <trkpt lat="44.15632" lon="4.4583">
        <ele>115</ele>
        <time>2016-03-24T00:12:29Z</time>
      </trkpt>
      <trkpt lat="44.15671" lon="4.45847">
        <ele>114</ele>
        <time>2016-03-24T00:14:29Z</time>
      </trkpt>
      <trkpt lat="44.15714" lon="4.45868">
        <ele>112</ele>
        <time>2016-03-24T00:16:29Z</time>
      </trkpt>
      <trkpt lat="44.15738" lon="4.45877">
        <ele>112</ele>
        <time>2016-03-24T00:18:29Z</time>
      </trkpt>
      <trkpt lat="44.15746" lon="4.45881">
        <ele>112</ele>
        <time>2016-03-24T00:20:29Z</time>
      </trkpt>
      <trkpt lat="44.15758" lon="4.45882">
        <ele>112</ele>
        <time>2016-03-24T00:22:29Z</time>
      </trkpt>
      <trkpt lat="44.15775" lon="4.45882">
        <ele>111</ele>
        <time>2016-03-24T00:24:29Z</time>
      </trkpt>
      <trkpt lat="44.15793" lon="4.4588">
        <ele>111</ele>
        <time>2016-03-24T00:26:29Z</time>
      </trkpt>
      <trkpt lat="44.15811" lon="4.45877">
        <ele>111</ele>
        <time>2016-03-24T00:28:29Z</time>
      </trkpt>
      <trkpt lat="44.1583" lon="4.45873">
        <ele>111</ele>
        <time>2016-03-24T00:30:29Z</time>
      </trkpt>
      <trkpt lat="44.15848" lon="4.45871">
        <ele>111</ele>
        <time>2016-03-24T00:32:29Z</time>
      </trkpt>
      <trkpt lat="44.1587" lon="4.45871">
        <ele>111</ele>
        <time>2016-03-24T00:34:29Z</time>
      </trkpt>
      <trkpt lat="44.15895" lon="4.4587">
        <ele>111</ele>
        <time>2016-03-24T00:36:29Z</time>
      </trkpt>
      <trkpt lat="44.15918" lon="4.45869">
        <ele>111</ele>
        <time>2016-03-24T00:38:29Z</time>
      </trkpt>
      <trkpt lat="44.15941" lon="4.45866">
        <ele>111</ele>
        <time>2016-03-24T00:40:29Z</time>
      </trkpt>
      <trkpt lat="44.15973" lon="4.4586">
        <ele>110</ele>
        <time>2016-03-24T00:42:29Z</time>
      </trkpt>
      <trkpt lat="44.15999" lon="4.45855">
        <ele>110</ele>
        <time>2016-03-24T00:44:29Z</time>
      </trkpt>
      <trkpt lat="44.16018" lon="4.4585">
        <ele>109</ele>
        <time>2016-03-24T00:46:29Z</time>
      </trkpt>
      <trkpt lat="44.16033" lon="4.45845">
        <ele>109</ele>
        <time>2016-03-24T00:48:29Z</time>
      </trkpt>
      <trkpt lat="44.16051" lon="4.45838">
        <ele>108</ele>
        <time>2016-03-24T00:50:29Z</time>
      </trkpt>
      <trkpt lat="44.16083" lon="4.45823">
        <ele>108</ele>
        <time>2016-03-24T00:52:29Z</time>
      </trkpt>
      <trkpt lat="44.16104" lon="4.45813">
        <ele>108</ele>
        <time>2016-03-24T00:54:29Z</time>
      </trkpt>
      <trkpt lat="44.16123" lon="4.45803">
        <ele>108</ele>
        <time>2016-03-24T00:56:29Z</time>
      </trkpt>
      <trkpt lat="44.16142" lon="4.45791">
        <ele>109</ele>
        <time>2016-03-24T00:58:29Z</time>
      </trkpt>
      <trkpt lat="44.16159" lon="4.45778">
        <ele>109</ele>
        <time>2016-03-24T01:00:29Z</time>
      </trkpt>
      <trkpt lat="44.1617" lon="4.45768">
        <ele>110</ele>
        <time>2016-03-24T01:02:29Z</time>
      </trkpt>
      <trkpt lat="44.16184" lon="4.45752">
        <ele>111</ele>
        <time>2016-03-24T01:04:29Z</time>
      </trkpt>
      <trkpt lat="44.16199" lon="4.45737">
        <ele>111</ele>
        <time>2016-03-24T01:06:29Z</time>
      </trkpt>
      <trkpt lat="44.16214" lon="4.45722">
        <ele>112</ele>
        <time>2016-03-24T01:08:29Z</time>
      </trkpt>
      <trkpt lat="44.16225" lon="4.45712">
        <ele>112</ele>
        <time>2016-03-24T01:10:29Z</time>
      </trkpt>
      <trkpt lat="44.16228" lon="4.4571">
        <ele>112</ele>
        <time>2016-03-24T01:12:29Z</time>
      </trkpt>
      <trkpt lat="44.16252" lon="4.45695">
        <ele>113</ele>
        <time>2016-03-24T01:14:29Z</time>
      </trkpt>
      <trkpt lat="44.16263" lon="4.45691">
        <ele>113</ele>
        <time>2016-03-24T01:16:29Z</time>
      </trkpt>
      <trkpt lat="44.1627" lon="4.45687">
        <ele>113</ele>
        <time>2016-03-24T01:18:29Z</time>
      </trkpt>
      <trkpt lat="44.16273" lon="4.45685">
        <ele>113</ele>
        <time>2016-03-24T01:20:29Z</time>
      </trkpt>
      <trkpt lat="44.16289" lon="4.45673">
        <ele>113</ele>
        <time>2016-03-24T01:22:29Z</time>
      </trkpt>
      <trkpt lat="44.16308" lon="4.45657">
        <ele>112</ele>
        <time>2016-03-24T01:24:29Z</time>
      </trkpt>
      <trkpt lat="44.16328" lon="4.45638">
        <ele>112</ele>
        <time>2016-03-24T01:26:29Z</time>
      </trkpt>
      <trkpt lat="44.16337" lon="4.45629">
        <ele>112</ele>
        <time>2016-03-24T01:28:29Z</time>
      </trkpt>
      <trkpt lat="44.16344" lon="4.4562">
        <ele>112</ele>
        <time>2016-03-24T01:30:29Z</time>
      </trkpt>
      <trkpt lat="44.16358" lon="4.45604">
        <ele>113</ele>
        <time>2016-03-24T01:32:29Z</time>
      </trkpt>
      <trkpt lat="44.16374" lon="4.45579">
        <ele>113</ele>
        <time>2016-03-24T01:34:29Z</time>
      </trkpt>
      <trkpt lat="44.16389" lon="4.45556">
        <ele>112</ele>
        <time>2016-03-24T01:36:29Z</time>
      </trkpt>
      <trkpt lat="44.16396" lon="4.45545">
        <ele>111</ele>
        <time>2016-03-24T01:38:29Z</time>
      </trkpt>
      <trkpt lat="44.16403" lon="4.45535">
        <ele>111</ele>
        <time>2016-03-24T01:40:29Z</time>
      </trkpt>
      <trkpt lat="44.16411" lon="4.45527">
        <ele>110</ele>
        <time>2016-03-24T01:42:29Z</time>
      </trkpt>
      <trkpt lat="44.16419" lon="4.45518">
        <ele>110</ele>
        <time>2016-03-24T01:44:29Z</time>
      </trkpt>
      <trkpt lat="44.16429" lon="4.45508">
        <ele>110</ele>
        <time>2016-03-24T01:46:29Z</time>
      </trkpt>
      <trkpt lat="44.16444" lon="4.45497">
        <ele>109</ele>
        <time>2016-03-24T01:48:29Z</time>
      </trkpt>
      <trkpt lat="44.16456" lon="4.45489">
        <ele>109</ele>
        <time>2016-03-24T01:50:29Z</time>
      </trkpt>
      <trkpt lat="44.16484" lon="4.45468">
        <ele>109</ele>
        <time>2016-03-24T01:52:29Z</time>
      </trkpt>
      <trkpt lat="44.16507" lon="4.45453">
        <ele>109</ele>
        <time>2016-03-24T01:54:29Z</time>
      </trkpt>
      <trkpt lat="44.1652" lon="4.45446">
        <ele>109</ele>
        <time>2016-03-24T01:56:29Z</time>
      </trkpt>
      <trkpt lat="44.16541" lon="4.45436">
        <ele>108</ele>
        <time>2016-03-24T01:58:29Z</time>
      </trkpt>
      <trkpt lat="44.1657" lon="4.45425">
        <ele>107</ele>
        <time>2016-03-24T02:00:29Z</time>
      </trkpt>
      <trkpt lat="44.16602" lon="4.45414">
        <ele>106</ele>
        <time>2016-03-24T02:02:29Z</time>
      </trkpt>
      <trkpt lat="44.16637" lon="4.45402">
        <ele>106</ele>
        <time>2016-03-24T02:04:29Z</time>
      </trkpt>
      <trkpt lat="44.1666" lon="4.45392">
        <ele>106</ele>
        <time>2016-03-24T02:06:29Z</time>
      </trkpt>
      <trkpt lat="44.16669" lon="4.45386">
        <ele>106</ele>
        <time>2016-03-24T02:08:29Z</time>
      </trkpt>
      <trkpt lat="44.16678" lon="4.45379">
        <ele>106</ele>
        <time>2016-03-24T02:10:29Z</time>
      </trkpt>
      <trkpt lat="44.16693" lon="4.45366">
        <ele>106</ele>
        <time>2016-03-24T02:12:29Z</time>
      </trkpt>
      <trkpt lat="44.16701" lon="4.45355">
        <ele>106</ele>
        <time>2016-03-24T02:14:29Z</time>
      </trkpt>
      <trkpt lat="44.16711" lon="4.45343">
        <ele>106</ele>
        <time>2016-03-24T02:16:29Z</time>
      </trkpt>
      <trkpt lat="44.16722" lon="4.45329">
        <ele>106</ele>
        <time>2016-03-24T02:18:29Z</time>
      </trkpt>
      <trkpt lat="44.16731" lon="4.45314">
        <ele>106</ele>
        <time>2016-03-24T02:20:29Z</time>
      </trkpt>
      <trkpt lat="44.16747" lon="4.4529">
        <ele>107</ele>
        <time>2016-03-24T02:22:29Z</time>
      </trkpt>
      <trkpt lat="44.16751" lon="4.45283">
        <ele>107</ele>
        <time>2016-03-24T02:24:29Z</time>
      </trkpt>
      <trkpt lat="44.16767" lon="4.45252">
        <ele>108</ele>
        <time>2016-03-24T02:26:29Z</time>
      </trkpt>
      <trkpt lat="44.16771" lon="4.45238">
        <ele>108</ele>
        <time>2016-03-24T02:28:29Z</time>
      </trkpt>
      <trkpt lat="44.16775" lon="4.45221">
        <ele>109</ele>
        <time>2016-03-24T02:30:29Z</time>
      </trkpt>
      <trkpt lat="44.16779" lon="4.45196">
        <ele>110</ele>
        <time>2016-03-24T02:32:29Z</time>
      </trkpt>
      <trkpt lat="44.1678" lon="4.45168">
        <ele>112</ele>
        <time>2016-03-24T02:34:29Z</time>
      </trkpt>
      <trkpt lat="44.1678" lon="4.45128">
        <ele>113</ele>
        <time>2016-03-24T02:36:29Z</time>
      </trkpt>
      <trkpt lat="44.1678" lon="4.45099">
        <ele>114</ele>
        <time>2016-03-24T02:38:29Z</time>
      </trkpt>
      <trkpt lat="44.16781" lon="4.45075">
        <ele>115</ele>
        <time>2016-03-24T02:40:29Z</time>
      </trkpt>
      <trkpt lat="44.16783" lon="4.45059">
        <ele>116</ele>
        <time>2016-03-24T02:42:29Z</time>
      </trkpt>
      <trkpt lat="44.16788" lon="4.45031">
        <ele>117</ele>
        <time>2016-03-24T02:44:29Z</time>
      </trkpt>
      <trkpt lat="44.16813" lon="4.44921">
        <ele>117</ele>
        <time>2016-03-24T02:46:29Z</time>
      </trkpt>
      <trkpt lat="44.16822" lon="4.44882">
        <ele>117</ele>
        <time>2016-03-24T02:48:29Z</time>
      </trkpt>
      <trkpt lat="44.16825" lon="4.44858">
        <ele>117</ele>
        <time>2016-03-24T02:50:29Z</time>
      </trkpt>
      <trkpt lat="44.16825" lon="4.44839">
        <ele>118</ele>
        <time>2016-03-24T02:52:29Z</time>
      </trkpt>
      <trkpt lat="44.16824" lon="4.4482">
        <ele>118</ele>
        <time>2016-03-24T02:54:29Z</time>
      </trkpt>
      <trkpt lat="44.16821" lon="4.448">
        <ele>120</ele>
        <time>2016-03-24T02:56:29Z</time>
      </trkpt>
      <trkpt lat="44.16812" lon="4.44777">
        <ele>122</ele>
        <time>2016-03-24T02:58:29Z</time>
      </trkpt>
      <trkpt lat="44.16786" lon="4.44729">
        <ele>126</ele>
        <time>2016-03-24T03:00:29Z</time>
      </trkpt>
      <trkpt lat="44.16786" lon="4.44729">
        <ele>126</ele>
        <time>2016-03-24T03:02:29Z</time>
      </trkpt>
      <trkpt lat="44.16775" lon="4.4471">
        <ele>127</ele>
        <time>2016-03-24T03:04:29Z</time>
      </trkpt>
      <trkpt lat="44.16766" lon="4.44694">
        <ele>128</ele>
        <time>2016-03-24T03:06:29Z</time>
      </trkpt>
      <trkpt lat="44.16762" lon="4.44688">
        <ele>128</ele>
        <time>2016-03-24T03:08:29Z</time>
      </trkpt>
      <trkpt lat="44.16756" lon="4.44672">
        <ele>129</ele>
        <time>2016-03-24T03:10:29Z</time>
      </trkpt>
      <trkpt lat="44.16752" lon="4.44657">
        <ele>130</ele>
        <time>2016-03-24T03:12:29Z</time>
      </trkpt>
      <trkpt lat="44.16751" lon="4.44648">
        <ele>130</ele>
        <time>2016-03-24T03:14:29Z</time>
      </trkpt>
      <trkpt lat="44.1675" lon="4.44638">
        <ele>131</ele>
        <time>2016-03-24T03:16:29Z</time>
      </trkpt>
      <trkpt lat="44.1675" lon="4.4463">
        <ele>132</ele>
        <time>2016-03-24T03:18:29Z</time>
      </trkpt>
      <trkpt lat="44.16752" lon="4.44622">
        <ele>132</ele>
        <time>2016-03-24T03:20:29Z</time>
      </trkpt>
      <trkpt lat="44.16753" lon="4.44617">
        <ele>132</ele>
        <time>2016-03-24T03:22:29Z</time>
      </trkpt>
      <trkpt lat="44.16756" lon="4.4461">
        <ele>133</ele>
        <time>2016-03-24T03:24:29Z</time>
      </trkpt>
      <trkpt lat="44.16759" lon="4.44603">
        <ele>133</ele>
        <time>2016-03-24T03:26:29Z</time>
      </trkpt>
      <trkpt lat="44.16765" lon="4.44593">
        <ele>134</ele>
        <time>2016-03-24T03:28:29Z</time>
      </trkpt>
      <trkpt lat="44.16791" lon="4.4456">
        <ele>135</ele>
        <time>2016-03-24T03:30:29Z</time>
      </trkpt>
      <trkpt lat="44.168" lon="4.44547">
        <ele>135</ele>
        <time>2016-03-24T03:32:29Z</time>
      </trkpt>
      <trkpt lat="44.16804" lon="4.44541">
        <ele>135</ele>
        <time>2016-03-24T03:34:29Z</time>
      </trkpt>
      <trkpt lat="44.16811" lon="4.44527">
        <ele>136</ele>
        <time>2016-03-24T03:36:29Z</time>
      </trkpt>
      <trkpt lat="44.16814" lon="4.44519">
        <ele>136</ele>
        <time>2016-03-24T03:38:29Z</time>
      </trkpt>
      <trkpt lat="44.16816" lon="4.44514">
        <ele>136</ele>
        <time>2016-03-24T03:40:29Z</time>
      </trkpt>
      <trkpt lat="44.16816" lon="4.44509">
        <ele>136</ele>
        <time>2016-03-24T03:42:29Z</time>
      </trkpt>
      <trkpt lat="44.16817" lon="4.44503">
        <ele>136</ele>
        <time>2016-03-24T03:44:29Z</time>
      </trkpt>
      <trkpt lat="44.16818" lon="4.44495">
        <ele>137</ele>
        <time>2016-03-24T03:46:29Z</time>
      </trkpt>
      <trkpt lat="44.16818" lon="4.44487">
        <ele>137</ele>
        <time>2016-03-24T03:48:29Z</time>
      </trkpt>
      <trkpt lat="44.16817" lon="4.4448">
        <ele>138</ele>
        <time>2016-03-24T03:50:29Z</time>
      </trkpt>
      <trkpt lat="44.16815" lon="4.44471">
        <ele>139</ele>
        <time>2016-03-24T03:52:29Z</time>
      </trkpt>
      <trkpt lat="44.16812" lon="4.4446">
        <ele>139</ele>
        <time>2016-03-24T03:54:29Z</time>
      </trkpt>
      <trkpt lat="44.16811" lon="4.44458">
        <ele>140</ele>
        <time>2016-03-24T03:56:29Z</time>
      </trkpt>
      <trkpt lat="44.16798" lon="4.44436">
        <ele>141</ele>
        <time>2016-03-24T03:58:29Z</time>
      </trkpt>
      <trkpt lat="44.16794" lon="4.4443">
        <ele>141</ele>
        <time>2016-03-24T04:00:29Z</time>
      </trkpt>
      <trkpt lat="44.16784" lon="4.4442">
        <ele>141</ele>
        <time>2016-03-24T04:02:29Z</time>
      </trkpt>
      <trkpt lat="44.16775" lon="4.44412">
        <ele>141</ele>
        <time>2016-03-24T04:04:29Z</time>
      </trkpt>
      <trkpt lat="44.16765" lon="4.44405">
        <ele>142</ele>
        <time>2016-03-24T04:06:29Z</time>
      </trkpt>
      <trkpt lat="44.16754" lon="4.44397">
        <ele>142</ele>
        <time>2016-03-24T04:08:29Z</time>
      </trkpt>
      <trkpt lat="44.16744" lon="4.44385">
        <ele>144</ele>
        <time>2016-03-24T04:10:29Z</time>
      </trkpt>
      <trkpt lat="44.16736" lon="4.44373">
        <ele>147</ele>
        <time>2016-03-24T04:12:29Z</time>
      </trkpt>
      <trkpt lat="44.16729" lon="4.44357">
        <ele>149</ele>
        <time>2016-03-24T04:14:29Z</time>
      </trkpt>
      <trkpt lat="44.16724" lon="4.44331">
        <ele>152</ele>
        <time>2016-03-24T04:16:29Z</time>
      </trkpt>
      <trkpt lat="44.16723" lon="4.44315">
        <ele>153</ele>
        <time>2016-03-24T04:18:29Z</time>
      </trkpt>
      <trkpt lat="44.16724" lon="4.44307">
        <ele>153</ele>
        <time>2016-03-24T04:20:29Z</time>
      </trkpt>
      <trkpt lat="44.16726" lon="4.44286">
        <ele>154</ele>
        <time>2016-03-24T04:22:29Z</time>
      </trkpt>
      <trkpt lat="44.16727" lon="4.44273">
        <ele>155</ele>
        <time>2016-03-24T04:24:29Z</time>
      </trkpt>
      <trkpt lat="44.16727" lon="4.4426">
        <ele>156</ele>
        <time>2016-03-24T04:26:29Z</time>
      </trkpt>
      <trkpt lat="44.16725" lon="4.44236">
        <ele>158</ele>
        <time>2016-03-24T04:28:29Z</time>
      </trkpt>
      <trkpt lat="44.1672" lon="4.44219">
        <ele>159</ele>
        <time>2016-03-24T04:30:29Z</time>
      </trkpt>
      <trkpt lat="44.16716" lon="4.4421">
        <ele>160</ele>
        <time>2016-03-24T04:32:29Z</time>
      </trkpt>
      <trkpt lat="44.16708" lon="4.44198">
        <ele>160</ele>
        <time>2016-03-24T04:34:29Z</time>
      </trkpt>
      <trkpt lat="44.16697" lon="4.44188">
        <ele>160</ele>
        <time>2016-03-24T04:36:29Z</time>
      </trkpt>
      <trkpt lat="44.16675" lon="4.44172">
        <ele>157</ele>
        <time>2016-03-24T04:38:29Z</time>
      </trkpt>
      <trkpt lat="44.16667" lon="4.44165">
        <ele>156</ele>
        <time>2016-03-24T04:40:29Z</time>
      </trkpt>
      <trkpt lat="44.16652" lon="4.44151">
        <ele>162</ele>
        <time>2016-03-24T04:42:29Z</time>
      </trkpt>
      <trkpt lat="44.16642" lon="4.44137">
        <ele>166</ele>
        <time>2016-03-24T04:44:29Z</time>
      </trkpt>
      <trkpt lat="44.16614" lon="4.44089">
        <ele>170</ele>
        <time>2016-03-24T04:46:29Z</time>
      </trkpt>
      <trkpt lat="44.1659" lon="4.4405">
        <ele>167</ele>
        <time>2016-03-24T04:48:29Z</time>
      </trkpt>
      <trkpt lat="44.16577" lon="4.44029">
        <ele>167</ele>
        <time>2016-03-24T04:50:29Z</time>
      </trkpt>
      <trkpt lat="44.16571" lon="4.44016">
        <ele>167</ele>
        <time>2016-03-24T04:52:29Z</time>
      </trkpt>
      <trkpt lat="44.16569" lon="4.44005">
        <ele>167</ele>
        <time>2016-03-24T04:54:29Z</time>
      </trkpt>
      <trkpt lat="44.16567" lon="4.43992">
        <ele>167</ele>
        <time>2016-03-24T04:56:29Z</time>
      </trkpt>
      <trkpt lat="44.16567" lon="4.4398">
        <ele>168</ele>
        <time>2016-03-24T04:58:29Z</time>
      </trkpt>
      <trkpt lat="44.16574" lon="4.43961">
        <ele>167</ele>
        <time>2016-03-24T05:00:29Z</time>
      </trkpt>
      <trkpt lat="44.16587" lon="4.43933">
        <ele>168</ele>
        <time>2016-03-24T05:02:29Z</time>
      </trkpt>
      <trkpt lat="44.16597" lon="4.43913">
        <ele>173</ele>
        <time>2016-03-24T05:04:29Z</time>
      </trkpt>
      <trkpt lat="44.16605" lon="4.43891">
        <ele>175</ele>
        <time>2016-03-24T05:06:29Z</time>
      </trkpt>
      <trkpt lat="44.16606" lon="4.43883">
        <ele>176</ele>
        <time>2016-03-24T05:08:29Z</time>
      </trkpt>
      <trkpt lat="44.16607" lon="4.4387">
        <ele>176</ele>
        <time>2016-03-24T05:10:29Z</time>
      </trkpt>
      <trkpt lat="44.16605" lon="4.43857">
        <ele>175</ele>
        <time>2016-03-24T05:12:29Z</time>
      </trkpt>
      <trkpt lat="44.16603" lon="4.43846">
        <ele>174</ele>
        <time>2016-03-24T05:14:29Z</time>
      </trkpt>
      <trkpt lat="44.16602" lon="4.43843">
        <ele>174</ele>
        <time>2016-03-24T05:16:29Z</time>
      </trkpt>
      <trkpt lat="44.166" lon="4.43836">
        <ele>173</ele>
        <time>2016-03-24T05:18:29Z</time>
      </trkpt>
      <trkpt lat="44.16598" lon="4.43832">
        <ele>173</ele>
        <time>2016-03-24T05:20:29Z</time>
      </trkpt>
      <trkpt lat="44.16597" lon="4.43829">
        <ele>173</ele>
        <time>2016-03-24T05:22:29Z</time>
      </trkpt>
      <trkpt lat="44.16593" lon="4.43822">
        <ele>172</ele>
        <time>2016-03-24T05:24:29Z</time>
      </trkpt>
      <trkpt lat="44.16587" lon="4.43815">
        <ele>170</ele>
        <time>2016-03-24T05:26:29Z</time>
      </trkpt>
      <trkpt lat="44.16514" lon="4.43736">
        <ele>174</ele>
        <time>2016-03-24T05:28:29Z</time>
      </trkpt>
      <trkpt lat="44.16509" lon="4.43729">
        <ele>174</ele>
        <time>2016-03-24T05:30:29Z</time>
      </trkpt>
      <trkpt lat="44.16505" lon="4.43723">
        <ele>174</ele>
        <time>2016-03-24T05:32:29Z</time>
      </trkpt>
      <trkpt lat="44.16501" lon="4.43716">
        <ele>174</ele>
        <time>2016-03-24T05:34:29Z</time>
      </trkpt>
      <trkpt lat="44.16498" lon="4.43708">
        <ele>174</ele>
        <time>2016-03-24T05:36:29Z</time>
      </trkpt>
      <trkpt lat="44.16496" lon="4.437">
        <ele>175</ele>
        <time>2016-03-24T05:38:29Z</time>
      </trkpt>
      <trkpt lat="44.16494" lon="4.43692">
        <ele>175</ele>
        <time>2016-03-24T05:40:29Z</time>
      </trkpt>
      <trkpt lat="44.16494" lon="4.43688">
        <ele>175</ele>
        <time>2016-03-24T05:42:29Z</time>
      </trkpt>
      <trkpt lat="44.16494" lon="4.43686">
        <ele>175</ele>
        <time>2016-03-24T05:44:29Z</time>
      </trkpt>
      <trkpt lat="44.16495" lon="4.43676">
        <ele>174</ele>
        <time>2016-03-24T05:46:29Z</time>
      </trkpt>
      <trkpt lat="44.16496" lon="4.43669">
        <ele>174</ele>
        <time>2016-03-24T05:48:29Z</time>
      </trkpt>
      <trkpt lat="44.16498" lon="4.43665">
        <ele>174</ele>
        <time>2016-03-24T05:50:29Z</time>
      </trkpt>
      <trkpt lat="44.16499" lon="4.43662">
        <ele>174</ele>
        <time>2016-03-24T05:52:29Z</time>
      </trkpt>
      <trkpt lat="44.16503" lon="4.43655">
        <ele>174</ele>
        <time>2016-03-24T05:54:29Z</time>
      </trkpt>
      <trkpt lat="44.16508" lon="4.4365">
        <ele>174</ele>
        <time>2016-03-24T05:56:29Z</time>
      </trkpt>
      <trkpt lat="44.16517" lon="4.43638">
        <ele>175</ele>
        <time>2016-03-24T05:58:29Z</time>
      </trkpt>
      <trkpt lat="44.16533" lon="4.4362">
        <ele>177</ele>
        <time>2016-03-24T06:00:29Z</time>
      </trkpt>
      <trkpt lat="44.16542" lon="4.43606">
        <ele>177</ele>
        <time>2016-03-24T06:02:29Z</time>
      </trkpt>
      <trkpt lat="44.16548" lon="4.4359">
        <ele>178</ele>
        <time>2016-03-24T06:04:29Z</time>
      </trkpt>
      <trkpt lat="44.16552" lon="4.43576">
        <ele>179</ele>
        <time>2016-03-24T06:06:29Z</time>
      </trkpt>
      <trkpt lat="44.16554" lon="4.43565">
        <ele>180</ele>
        <time>2016-03-24T06:08:29Z</time>
      </trkpt>
      <trkpt lat="44.16555" lon="4.43552">
        <ele>182</ele>
        <time>2016-03-24T06:10:29Z</time>
      </trkpt>
      <trkpt lat="44.16556" lon="4.43544">
        <ele>183</ele>
        <time>2016-03-24T06:12:29Z</time>
      </trkpt>
      <trkpt lat="44.16556" lon="4.43536">
        <ele>184</ele>
        <time>2016-03-24T06:14:29Z</time>
      </trkpt>
      <trkpt lat="44.16556" lon="4.43531">
        <ele>184</ele>
        <time>2016-03-24T06:16:29Z</time>
      </trkpt>
      <trkpt lat="44.16555" lon="4.43527">
        <ele>185</ele>
        <time>2016-03-24T06:18:29Z</time>
      </trkpt>
      <trkpt lat="44.16553" lon="4.43519">
        <ele>185</ele>
        <time>2016-03-24T06:20:29Z</time>
      </trkpt>
      <trkpt lat="44.16549" lon="4.43507">
        <ele>186</ele>
        <time>2016-03-24T06:22:29Z</time>
      </trkpt>
      <trkpt lat="44.1654" lon="4.43488">
        <ele>188</ele>
        <time>2016-03-24T06:24:29Z</time>
      </trkpt>
      <trkpt lat="44.16516" lon="4.43435">
        <ele>188</ele>
        <time>2016-03-24T06:26:29Z</time>
      </trkpt>
      <trkpt lat="44.16513" lon="4.43427">
        <ele>188</ele>
        <time>2016-03-24T06:28:29Z</time>
      </trkpt>
      <trkpt lat="44.16511" lon="4.43425">
        <ele>188</ele>
        <time>2016-03-24T06:30:29Z</time>
      </trkpt>
      <trkpt lat="44.16507" lon="4.43419">
        <ele>187</ele>
        <time>2016-03-24T06:32:29Z</time>
      </trkpt>
      <trkpt lat="44.16503" lon="4.43413">
        <ele>187</ele>
        <time>2016-03-24T06:34:29Z</time>
      </trkpt>
      <trkpt lat="44.16498" lon="4.43408">
        <ele>187</ele>
        <time>2016-03-24T06:36:29Z</time>
      </trkpt>
      <trkpt lat="44.16491" lon="4.43404">
        <ele>188</ele>
        <time>2016-03-24T06:38:29Z</time>
      </trkpt>
      <trkpt lat="44.16483" lon="4.434">
        <ele>189</ele>
        <time>2016-03-24T06:40:29Z</time>
      </trkpt>
      <trkpt lat="44.16469" lon="4.43396">
        <ele>190</ele>
        <time>2016-03-24T06:42:29Z</time>
      </trkpt>
      <trkpt lat="44.16446" lon="4.43388">
        <ele>191</ele>
        <time>2016-03-24T06:44:29Z</time>
      </trkpt>
      <trkpt lat="44.16439" lon="4.43383">
        <ele>192</ele>
        <time>2016-03-24T06:46:29Z</time>
      </trkpt>
      <trkpt lat="44.16433" lon="4.43378">
        <ele>192</ele>
        <time>2016-03-24T06:48:29Z</time>
      </trkpt>
      <trkpt lat="44.16427" lon="4.43371">
        <ele>191</ele>
        <time>2016-03-24T06:50:29Z</time>
      </trkpt>
      <trkpt lat="44.16422" lon="4.43363">
        <ele>191</ele>
        <time>2016-03-24T06:52:29Z</time>
      </trkpt>
      <trkpt lat="44.16418" lon="4.43357">
        <ele>190</ele>
        <time>2016-03-24T06:54:29Z</time>
      </trkpt>
      <trkpt lat="44.16416" lon="4.43351">
        <ele>190</ele>
        <time>2016-03-24T06:56:29Z</time>
      </trkpt>
      <trkpt lat="44.16414" lon="4.43342">
        <ele>190</ele>
        <time>2016-03-24T06:58:29Z</time>
      </trkpt>
      <trkpt lat="44.16409" lon="4.43308">
        <ele>192</ele>
        <time>2016-03-24T07:00:29Z</time>
      </trkpt>
      <trkpt lat="44.16407" lon="4.43298">
        <ele>193</ele>
        <time>2016-03-24T07:02:29Z</time>
      </trkpt>
      <trkpt lat="44.16406" lon="4.4329">
        <ele>194</ele>
        <time>2016-03-24T07:04:29Z</time>
      </trkpt>
      <trkpt lat="44.16403" lon="4.43283">
        <ele>194</ele>
        <time>2016-03-24T07:06:29Z</time>
      </trkpt>
      <trkpt lat="44.164" lon="4.43278">
        <ele>195</ele>
        <time>2016-03-24T07:08:29Z</time>
      </trkpt>
      <trkpt lat="44.16399" lon="4.43275">
        <ele>195</ele>
        <time>2016-03-24T07:10:29Z</time>
      </trkpt>
      <trkpt lat="44.16396" lon="4.43272">
        <ele>195</ele>
        <time>2016-03-24T07:12:29Z</time>
      </trkpt>
      <trkpt lat="44.16394" lon="4.4327">
        <ele>195</ele>
        <time>2016-03-24T07:14:29Z</time>
      </trkpt>
      <trkpt lat="44.16392" lon="4.43269">
        <ele>195</ele>
        <time>2016-03-24T07:16:29Z</time>
      </trkpt>
      <trkpt lat="44.16386" lon="4.43267">
        <ele>196</ele>
        <time>2016-03-24T07:18:29Z</time>
      </trkpt>
      <trkpt lat="44.16381" lon="4.43266">
        <ele>196</ele>
        <time>2016-03-24T07:20:29Z</time>
      </trkpt>
      <trkpt lat="44.16375" lon="4.43266">
        <ele>196</ele>
        <time>2016-03-24T07:22:29Z</time>
      </trkpt>
      <trkpt lat="44.16352" lon="4.43271">
        <ele>196</ele>
        <time>2016-03-24T07:24:29Z</time>
      </trkpt>
      <trkpt lat="44.16345" lon="4.43272">
        <ele>196</ele>
        <time>2016-03-24T07:26:29Z</time>
      </trkpt>
      <trkpt lat="44.1633" lon="4.43276">
        <ele>197</ele>
        <time>2016-03-24T07:28:29Z</time>
      </trkpt>
      <trkpt lat="44.16291" lon="4.43289">
        <ele>199</ele>
        <time>2016-03-24T07:30:29Z</time>
      </trkpt>
      <trkpt lat="44.16285" lon="4.4329">
        <ele>200</ele>
        <time>2016-03-24T07:32:29Z</time>
      </trkpt>
      <trkpt lat="44.16262" lon="4.43295">
        <ele>201</ele>
        <time>2016-03-24T07:34:29Z</time>
      </trkpt>
      <trkpt lat="44.16248" lon="4.43297">
        <ele>202</ele>
        <time>2016-03-24T07:36:29Z</time>
      </trkpt>
      <trkpt lat="44.1624" lon="4.43297">
        <ele>203</ele>
        <time>2016-03-24T07:38:29Z</time>
      </trkpt>
      <trkpt lat="44.16233" lon="4.43296">
        <ele>204</ele>
        <time>2016-03-24T07:40:29Z</time>
      </trkpt>
      <trkpt lat="44.16228" lon="4.43295">
        <ele>204</ele>
        <time>2016-03-24T07:42:29Z</time>
      </trkpt>
      <trkpt lat="44.16225" lon="4.43291">
        <ele>204</ele>
        <time>2016-03-24T07:44:29Z</time>
      </trkpt>
      <trkpt lat="44.1622" lon="4.43287">
        <ele>205</ele>
        <time>2016-03-24T07:46:29Z</time>
      </trkpt>
      <trkpt lat="44.16216" lon="4.43281">
        <ele>204</ele>
        <time>2016-03-24T07:48:29Z</time>
      </trkpt>
      <trkpt lat="44.16212" lon="4.43276">
        <ele>204</ele>
        <time>2016-03-24T07:50:29Z</time>
      </trkpt>
      <trkpt lat="44.16204" lon="4.43264">
        <ele>204</ele>
        <time>2016-03-24T07:52:29Z</time>
      </trkpt>
      <trkpt lat="44.16199" lon="4.43259">
        <ele>204</ele>
        <time>2016-03-24T07:54:29Z</time>
      </trkpt>
      <trkpt lat="44.16194" lon="4.43256">
        <ele>204</ele>
        <time>2016-03-24T07:56:29Z</time>
      </trkpt>
      <trkpt lat="44.16188" lon="4.43254">
        <ele>204</ele>
        <time>2016-03-24T07:58:29Z</time>
      </trkpt>
      <trkpt lat="44.16176" lon="4.43255">
        <ele>205</ele>
        <time>2016-03-24T08:00:29Z</time>
      </trkpt>
      <trkpt lat="44.16158" lon="4.43262">
        <ele>207</ele>
        <time>2016-03-24T08:02:29Z</time>
      </trkpt>
      <trkpt lat="44.16139" lon="4.43271">
        <ele>210</ele>
        <time>2016-03-24T08:04:29Z</time>
      </trkpt>
      <trkpt lat="44.16121" lon="4.43278">
        <ele>213</ele>
        <time>2016-03-24T08:06:29Z</time>
      </trkpt>
      <trkpt lat="44.16116" lon="4.4328">
        <ele>214</ele>
        <time>2016-03-24T08:08:29Z</time>
      </trkpt>
      <trkpt lat="44.1611" lon="4.4328">
        <ele>215</ele>
        <time>2016-03-24T08:10:29Z</time>
      </trkpt>
      <trkpt lat="44.16105" lon="4.43279">
        <ele>215</ele>
        <time>2016-03-24T08:12:29Z</time>
      </trkpt>
      <trkpt lat="44.161" lon="4.43276">
        <ele>215</ele>
        <time>2016-03-24T08:14:29Z</time>
      </trkpt>
      <trkpt lat="44.16096" lon="4.43272">
        <ele>215</ele>
        <time>2016-03-24T08:16:29Z</time>
      </trkpt>
      <trkpt lat="44.16092" lon="4.43267">
        <ele>215</ele>
        <time>2016-03-24T08:18:29Z</time>
      </trkpt>
      <trkpt lat="44.16089" lon="4.43261">
        <ele>214</ele>
        <time>2016-03-24T08:20:29Z</time>
      </trkpt>
      <trkpt lat="44.16087" lon="4.43254">
        <ele>213</ele>
        <time>2016-03-24T08:22:29Z</time>
      </trkpt>
      <trkpt lat="44.16087" lon="4.43246">
        <ele>213</ele>
        <time>2016-03-24T08:24:29Z</time>
      </trkpt>
      <trkpt lat="44.16087" lon="4.43239">
        <ele>213</ele>
        <time>2016-03-24T08:26:29Z</time>
      </trkpt>
      <trkpt lat="44.16089" lon="4.43231">
        <ele>214</ele>
        <time>2016-03-24T08:28:29Z</time>
      </trkpt>
      <trkpt lat="44.16092" lon="4.4322">
        <ele>214</ele>
        <time>2016-03-24T08:30:29Z</time>
      </trkpt>
      <trkpt lat="44.16093" lon="4.43216">
        <ele>215</ele>
        <time>2016-03-24T08:32:29Z</time>
      </trkpt>
      <trkpt lat="44.16094" lon="4.43212">
        <ele>215</ele>
        <time>2016-03-24T08:34:29Z</time>
      </trkpt>
      <trkpt lat="44.16095" lon="4.43203">
        <ele>216</ele>
        <time>2016-03-24T08:36:29Z</time>
      </trkpt>
      <trkpt lat="44.16096" lon="4.43195">
        <ele>216</ele>
        <time>2016-03-24T08:38:29Z</time>
      </trkpt>
      <trkpt lat="44.16096" lon="4.4319">
        <ele>217</ele>
        <time>2016-03-24T08:40:29Z</time>
      </trkpt>
      <trkpt lat="44.16093" lon="4.43176">
        <ele>218</ele>
        <time>2016-03-24T08:42:29Z</time>
      </trkpt>
      <trkpt lat="44.16084" lon="4.43154">
        <ele>219</ele>
        <time>2016-03-24T08:44:29Z</time>
      </trkpt>
      <trkpt lat="44.1607" lon="4.43121">
        <ele>220</ele>
        <time>2016-03-24T08:46:29Z</time>
      </trkpt>
      <trkpt lat="44.16063" lon="4.43105">
        <ele>220</ele>
        <time>2016-03-24T08:48:29Z</time>
      </trkpt>
      <trkpt lat="44.16054" lon="4.4308">
        <ele>221</ele>
        <time>2016-03-24T08:50:29Z</time>
      </trkpt>
      <trkpt lat="44.16052" lon="4.43071">
        <ele>222</ele>
        <time>2016-03-24T08:52:29Z</time>
      </trkpt>
      <trkpt lat="44.1605" lon="4.43064">
        <ele>222</ele>
        <time>2016-03-24T08:54:29Z</time>
      </trkpt>
      <trkpt lat="44.16044" lon="4.43052">
        <ele>223</ele>
        <time>2016-03-24T08:56:29Z</time>
      </trkpt>
      <trkpt lat="44.1604" lon="4.43045">
        <ele>224</ele>
        <time>2016-03-24T08:58:29Z</time>
      </trkpt>
      <trkpt lat="44.16037" lon="4.43042">
        <ele>224</ele>
        <time>2016-03-24T09:00:29Z</time>
      </trkpt>
      <trkpt lat="44.16031" lon="4.43038">
        <ele>224</ele>
        <time>2016-03-24T09:02:29Z</time>
      </trkpt>
      <trkpt lat="44.16026" lon="4.43037">
        <ele>224</ele>
        <time>2016-03-24T09:04:29Z</time>
      </trkpt>
      <trkpt lat="44.1602" lon="4.43036">
        <ele>223</ele>
        <time>2016-03-24T09:06:29Z</time>
      </trkpt>
      <trkpt lat="44.16014" lon="4.43037">
        <ele>223</ele>
        <time>2016-03-24T09:08:29Z</time>
      </trkpt>
      <trkpt lat="44.16002" lon="4.43042">
        <ele>222</ele>
        <time>2016-03-24T09:10:29Z</time>
      </trkpt>
      <trkpt lat="44.1599" lon="4.43049">
        <ele>222</ele>
        <time>2016-03-24T09:12:29Z</time>
      </trkpt>
      <trkpt lat="44.15983" lon="4.43051">
        <ele>222</ele>
        <time>2016-03-24T09:14:29Z</time>
      </trkpt>
      <trkpt lat="44.15977" lon="4.43053">
        <ele>222</ele>
        <time>2016-03-24T09:16:29Z</time>
      </trkpt>
      <trkpt lat="44.1597" lon="4.43055">
        <ele>223</ele>
        <time>2016-03-24T09:18:29Z</time>
      </trkpt>
      <trkpt lat="44.15964" lon="4.43056">
        <ele>223</ele>
        <time>2016-03-24T09:20:29Z</time>
      </trkpt>
      <trkpt lat="44.15958" lon="4.43056">
        <ele>224</ele>
        <time>2016-03-24T09:22:29Z</time>
      </trkpt>
      <trkpt lat="44.15951" lon="4.43054">
        <ele>224</ele>
        <time>2016-03-24T09:24:29Z</time>
      </trkpt>
      <trkpt lat="44.15946" lon="4.43051">
        <ele>225</ele>
        <time>2016-03-24T09:26:29Z</time>
      </trkpt>
      <trkpt lat="44.15941" lon="4.43047">
        <ele>225</ele>
        <time>2016-03-24T09:28:29Z</time>
      </trkpt>
      <trkpt lat="44.15937" lon="4.43041">
        <ele>224</ele>
        <time>2016-03-24T09:30:29Z</time>
      </trkpt>
      <trkpt lat="44.15934" lon="4.43035">
        <ele>224</ele>
        <time>2016-03-24T09:32:29Z</time>
      </trkpt>
      <trkpt lat="44.15931" lon="4.43028">
        <ele>224</ele>
        <time>2016-03-24T09:34:29Z</time>
      </trkpt>
      <trkpt lat="44.15929" lon="4.4302">
        <ele>223</ele>
        <time>2016-03-24T09:36:29Z</time>
      </trkpt>
      <trkpt lat="44.15926" lon="4.43012">
        <ele>222</ele>
        <time>2016-03-24T09:38:29Z</time>
      </trkpt>
      <trkpt lat="44.15923" lon="4.43004">
        <ele>222</ele>
        <time>2016-03-24T09:40:29Z</time>
      </trkpt>
      <trkpt lat="44.1592" lon="4.42996">
        <ele>222</ele>
        <time>2016-03-24T09:42:29Z</time>
      </trkpt>
      <trkpt lat="44.15917" lon="4.42989">
        <ele>222</ele>
        <time>2016-03-24T09:44:29Z</time>
      </trkpt>
      <trkpt lat="44.15912" lon="4.42983">
        <ele>223</ele>
        <time>2016-03-24T09:46:29Z</time>
      </trkpt>
      <trkpt lat="44.15907" lon="4.42978">
        <ele>224</ele>
        <time>2016-03-24T09:48:29Z</time>
      </trkpt>
      <trkpt lat="44.15902" lon="4.42973">
        <ele>225</ele>
        <time>2016-03-24T09:50:29Z</time>
      </trkpt>
      <trkpt lat="44.15895" lon="4.4297">
        <ele>226</ele>
        <time>2016-03-24T09:52:29Z</time>
      </trkpt>
      <trkpt lat="44.15882" lon="4.42965">
        <ele>227</ele>
        <time>2016-03-24T09:54:29Z</time>
      </trkpt>
      <trkpt lat="44.15875" lon="4.42961">
        <ele>227</ele>
        <time>2016-03-24T09:56:29Z</time>
      </trkpt>
      <trkpt lat="44.15868" lon="4.42957">
        <ele>227</ele>
        <time>2016-03-24T09:58:29Z</time>
      </trkpt>
      <trkpt lat="44.15862" lon="4.42952">
        <ele>227</ele>
        <time>2016-03-24T10:00:29Z</time>
      </trkpt>
      <trkpt lat="44.15857" lon="4.42946">
        <ele>227</ele>
        <time>2016-03-24T10:02:29Z</time>
      </trkpt>
      <trkpt lat="44.15847" lon="4.4293">
        <ele>227</ele>
        <time>2016-03-24T10:04:29Z</time>
      </trkpt>
      <trkpt lat="44.15845" lon="4.42925">
        <ele>226</ele>
        <time>2016-03-24T10:06:29Z</time>
      </trkpt>
      <trkpt lat="44.15843" lon="4.42916">
        <ele>225</ele>
        <time>2016-03-24T10:08:29Z</time>
      </trkpt>
      <trkpt lat="44.15841" lon="4.42897">
        <ele>226</ele>
        <time>2016-03-24T10:10:29Z</time>
      </trkpt>
      <trkpt lat="44.1584" lon="4.42878">
        <ele>227</ele>
        <time>2016-03-24T10:12:29Z</time>
      </trkpt>
      <trkpt lat="44.15838" lon="4.42864">
        <ele>227</ele>
        <time>2016-03-24T10:14:29Z</time>
      </trkpt>
      <trkpt lat="44.15837" lon="4.42854">
        <ele>228</ele>
        <time>2016-03-24T10:16:29Z</time>
      </trkpt>
      <trkpt lat="44.15834" lon="4.42844">
        <ele>228</ele>
        <time>2016-03-24T10:18:29Z</time>
      </trkpt>
      <trkpt lat="44.15831" lon="4.42835">
        <ele>228</ele>
        <time>2016-03-24T10:20:29Z</time>
      </trkpt>
      <trkpt lat="44.15827" lon="4.42826">
        <ele>229</ele>
        <time>2016-03-24T10:22:29Z</time>
      </trkpt>
      <trkpt lat="44.15822" lon="4.42817">
        <ele>231</ele>
        <time>2016-03-24T10:24:29Z</time>
      </trkpt>
      <trkpt lat="44.15816" lon="4.42809">
        <ele>232</ele>
        <time>2016-03-24T10:26:29Z</time>
      </trkpt>
      <trkpt lat="44.15808" lon="4.42801">
        <ele>232</ele>
        <time>2016-03-24T10:28:29Z</time>
      </trkpt>
      <trkpt lat="44.15785" lon="4.42778">
        <ele>233</ele>
        <time>2016-03-24T10:30:29Z</time>
      </trkpt>
      <trkpt lat="44.15768" lon="4.42759">
        <ele>232</ele>
        <time>2016-03-24T10:32:29Z</time>
      </trkpt>
      <trkpt lat="44.1575" lon="4.42738">
        <ele>231</ele>
        <time>2016-03-24T10:34:29Z</time>
      </trkpt>
      <trkpt lat="44.15741" lon="4.42725">
        <ele>234</ele>
        <time>2016-03-24T10:36:29Z</time>
      </trkpt>
      <trkpt lat="44.15735" lon="4.42711">
        <ele>235</ele>
        <time>2016-03-24T10:38:29Z</time>
      </trkpt>
      <trkpt lat="44.1573" lon="4.42702">
        <ele>237</ele>
        <time>2016-03-24T10:40:29Z</time>
      </trkpt>
      <trkpt lat="44.15727" lon="4.42691">
        <ele>238</ele>
        <time>2016-03-24T10:42:29Z</time>
      </trkpt>
      <trkpt lat="44.15723" lon="4.42681">
        <ele>238</ele>
        <time>2016-03-24T10:44:29Z</time>
      </trkpt>
      <trkpt lat="44.15719" lon="4.42665">
        <ele>239</ele>
        <time>2016-03-24T10:46:29Z</time>
      </trkpt>
      <trkpt lat="44.15718" lon="4.42652">
        <ele>240</ele>
        <time>2016-03-24T10:48:29Z</time>
      </trkpt>
      <trkpt lat="44.15718" lon="4.42644">
        <ele>241</ele>
        <time>2016-03-24T10:50:29Z</time>
      </trkpt>
      <trkpt lat="44.15719" lon="4.42634">
        <ele>241</ele>
        <time>2016-03-24T10:52:29Z</time>
      </trkpt>
      <trkpt lat="44.15722" lon="4.42627">
        <ele>241</ele>
        <time>2016-03-24T10:54:29Z</time>
      </trkpt>
      <trkpt lat="44.15725" lon="4.42619">
        <ele>240</ele>
        <time>2016-03-24T10:56:29Z</time>
      </trkpt>
      <trkpt lat="44.15729" lon="4.42615">
        <ele>240</ele>
        <time>2016-03-24T10:58:29Z</time>
      </trkpt>
      <trkpt lat="44.15734" lon="4.42611">
        <ele>238</ele>
        <time>2016-03-24T11:00:29Z</time>
      </trkpt>
      <trkpt lat="44.15738" lon="4.4261">
        <ele>237</ele>
        <time>2016-03-24T11:02:29Z</time>
      </trkpt>
      <trkpt lat="44.15748" lon="4.42607">
        <ele>235</ele>
        <time>2016-03-24T11:04:29Z</time>
      </trkpt>
      <trkpt lat="44.15756" lon="4.42603">
        <ele>236</ele>
        <time>2016-03-24T11:06:29Z</time>
      </trkpt>
      <trkpt lat="44.15761" lon="4.42599">
        <ele>237</ele>
        <time>2016-03-24T11:08:29Z</time>
      </trkpt>
      <trkpt lat="44.15764" lon="4.42594">
        <ele>237</ele>
        <time>2016-03-24T11:10:29Z</time>
      </trkpt>
      <trkpt lat="44.15767" lon="4.42588">
        <ele>238</ele>
        <time>2016-03-24T11:12:29Z</time>
      </trkpt>
      <trkpt lat="44.15769" lon="4.42576">
        <ele>239</ele>
        <time>2016-03-24T11:14:29Z</time>
      </trkpt>
      <trkpt lat="44.15769" lon="4.42563">
        <ele>240</ele>
        <time>2016-03-24T11:16:29Z</time>
      </trkpt>
      <trkpt lat="44.1577" lon="4.42553">
        <ele>241</ele>
        <time>2016-03-24T11:18:29Z</time>
      </trkpt>
      <trkpt lat="44.15772" lon="4.42545">
        <ele>242</ele>
        <time>2016-03-24T11:20:29Z</time>
      </trkpt>
      <trkpt lat="44.15774" lon="4.42536">
        <ele>243</ele>
        <time>2016-03-24T11:22:29Z</time>
      </trkpt>
      <trkpt lat="44.15777" lon="4.42528">
        <ele>243</ele>
        <time>2016-03-24T11:24:29Z</time>
      </trkpt>
      <trkpt lat="44.15781" lon="4.42521">
        <ele>244</ele>
        <time>2016-03-24T11:26:29Z</time>
      </trkpt>
      <trkpt lat="44.1579" lon="4.42507">
        <ele>245</ele>
        <time>2016-03-24T11:28:29Z</time>
      </trkpt>
      <trkpt lat="44.15801" lon="4.42495">
        <ele>246</ele>
        <time>2016-03-24T11:30:29Z</time>
      </trkpt>
      <trkpt lat="44.15809" lon="4.42482">
        <ele>246</ele>
        <time>2016-03-24T11:32:29Z</time>
      </trkpt>
      <trkpt lat="44.15815" lon="4.42472">
        <ele>246</ele>
        <time>2016-03-24T11:34:29Z</time>
      </trkpt>
      <trkpt lat="44.15818" lon="4.42464">
        <ele>246</ele>
        <time>2016-03-24T11:36:29Z</time>
      </trkpt>
      <trkpt lat="44.1582" lon="4.42457">
        <ele>246</ele>
        <time>2016-03-24T11:38:29Z</time>
      </trkpt>
      <trkpt lat="44.15821" lon="4.42448">
        <ele>246</ele>
        <time>2016-03-24T11:40:29Z</time>
      </trkpt>
      <trkpt lat="44.1582" lon="4.4244">
        <ele>246</ele>
        <time>2016-03-24T11:42:29Z</time>
      </trkpt>
      <trkpt lat="44.15819" lon="4.42432">
        <ele>246</ele>
        <time>2016-03-24T11:44:29Z</time>
      </trkpt>
      <trkpt lat="44.15815" lon="4.42423">
        <ele>246</ele>
        <time>2016-03-24T11:46:29Z</time>
      </trkpt>
      <trkpt lat="44.15807" lon="4.4241">
        <ele>246</ele>
        <time>2016-03-24T11:48:29Z</time>
      </trkpt>
      <trkpt lat="44.15793" lon="4.42392">
        <ele>247</ele>
        <time>2016-03-24T11:50:29Z</time>
      </trkpt>
      <trkpt lat="44.15783" lon="4.42377">
        <ele>247</ele>
        <time>2016-03-24T11:52:29Z</time>
      </trkpt>
      <trkpt lat="44.15779" lon="4.42371">
        <ele>248</ele>
        <time>2016-03-24T11:54:29Z</time>
      </trkpt>
      <trkpt lat="44.15777" lon="4.42364">
        <ele>248</ele>
        <time>2016-03-24T11:56:29Z</time>
      </trkpt>
      <trkpt lat="44.15776" lon="4.42357">
        <ele>248</ele>
        <time>2016-03-24T11:58:29Z</time>
      </trkpt>
      <trkpt lat="44.15776" lon="4.4235">
        <ele>248</ele>
        <time>2016-03-24T12:00:29Z</time>
      </trkpt>
      <trkpt lat="44.15777" lon="4.42342">
        <ele>248</ele>
        <time>2016-03-24T12:02:29Z</time>
      </trkpt>
      <trkpt lat="44.15781" lon="4.42329">
        <ele>248</ele>
        <time>2016-03-24T12:04:29Z</time>
      </trkpt>
      <trkpt lat="44.15785" lon="4.42316">
        <ele>248</ele>
        <time>2016-03-24T12:06:29Z</time>
      </trkpt>
      <trkpt lat="44.15787" lon="4.42307">
        <ele>248</ele>
        <time>2016-03-24T12:08:29Z</time>
      </trkpt>
      <trkpt lat="44.15787" lon="4.42298">
        <ele>249</ele>
        <time>2016-03-24T12:10:29Z</time>
      </trkpt>
      <trkpt lat="44.15787" lon="4.42297">
        <ele>249</ele>
        <time>2016-03-24T12:12:29Z</time>
      </trkpt>
      <trkpt lat="44.15786" lon="4.42289">
        <ele>249</ele>
        <time>2016-03-24T12:14:29Z</time>
      </trkpt>
      <trkpt lat="44.15784" lon="4.42281">
        <ele>249</ele>
        <time>2016-03-24T12:16:29Z</time>
      </trkpt>
      <trkpt lat="44.15782" lon="4.42272">
        <ele>250</ele>
        <time>2016-03-24T12:18:29Z</time>
      </trkpt>
      <trkpt lat="44.15778" lon="4.42263">
        <ele>250</ele>
        <time>2016-03-24T12:20:29Z</time>
      </trkpt>
      <trkpt lat="44.15775" lon="4.42255">
        <ele>250</ele>
        <time>2016-03-24T12:22:29Z</time>
      </trkpt>
      <trkpt lat="44.15768" lon="4.42243">
        <ele>250</ele>
        <time>2016-03-24T12:24:29Z</time>
      </trkpt>
      <trkpt lat="44.15762" lon="4.42232">
        <ele>249</ele>
        <time>2016-03-24T12:26:29Z</time>
      </trkpt>
      <trkpt lat="44.1576" lon="4.42224">
        <ele>249</ele>
        <time>2016-03-24T12:28:29Z</time>
      </trkpt>
      <trkpt lat="44.15758" lon="4.42217">
        <ele>249</ele>
        <time>2016-03-24T12:30:29Z</time>
      </trkpt>
      <trkpt lat="44.15757" lon="4.4221">
        <ele>248</ele>
        <time>2016-03-24T12:32:29Z</time>
      </trkpt>
      <trkpt lat="44.15758" lon="4.42202">
        <ele>248</ele>
        <time>2016-03-24T12:34:29Z</time>
      </trkpt>
      <trkpt lat="44.15759" lon="4.42186">
        <ele>248</ele>
        <time>2016-03-24T12:36:29Z</time>
      </trkpt>
      <trkpt lat="44.1576" lon="4.42171">
        <ele>248</ele>
        <time>2016-03-24T12:38:29Z</time>
      </trkpt>
      <trkpt lat="44.1576" lon="4.4216">
        <ele>249</ele>
        <time>2016-03-24T12:40:29Z</time>
      </trkpt>
      <trkpt lat="44.15758" lon="4.42148">
        <ele>250</ele>
        <time>2016-03-24T12:42:29Z</time>
      </trkpt>
      <trkpt lat="44.15756" lon="4.42138">
        <ele>250</ele>
        <time>2016-03-24T12:44:29Z</time>
      </trkpt>
      <trkpt lat="44.1575" lon="4.42127">
        <ele>250</ele>
        <time>2016-03-24T12:46:29Z</time>
      </trkpt>
      <trkpt lat="44.15745" lon="4.42121">
        <ele>251</ele>
        <time>2016-03-24T12:48:29Z</time>
      </trkpt>
      <trkpt lat="44.15738" lon="4.42113">
        <ele>252</ele>
        <time>2016-03-24T12:50:29Z</time>
      </trkpt>
      <trkpt lat="44.15726" lon="4.42104">
        <ele>252</ele>
        <time>2016-03-24T12:52:29Z</time>
      </trkpt>
      <trkpt lat="44.15714" lon="4.42099">
        <ele>252</ele>
        <time>2016-03-24T12:54:29Z</time>
      </trkpt>
      <trkpt lat="44.15706" lon="4.42096">
        <ele>252</ele>
        <time>2016-03-24T12:56:29Z</time>
      </trkpt>
      <trkpt lat="44.15698" lon="4.42094">
        <ele>251</ele>
        <time>2016-03-24T12:58:29Z</time>
      </trkpt>
      <trkpt lat="44.15684" lon="4.42094">
        <ele>251</ele>
        <time>2016-03-24T13:00:29Z</time>
      </trkpt>
      <trkpt lat="44.1567" lon="4.42095">
        <ele>250</ele>
        <time>2016-03-24T13:02:29Z</time>
      </trkpt>
      <trkpt lat="44.15659" lon="4.42096">
        <ele>250</ele>
        <time>2016-03-24T13:04:29Z</time>
      </trkpt>
      <trkpt lat="44.15649" lon="4.421">
        <ele>250</ele>
        <time>2016-03-24T13:06:29Z</time>
      </trkpt>
      <trkpt lat="44.15643" lon="4.42103">
        <ele>250</ele>
        <time>2016-03-24T13:08:29Z</time>
      </trkpt>
      <trkpt lat="44.15636" lon="4.42108">
        <ele>250</ele>
        <time>2016-03-24T13:10:29Z</time>
      </trkpt>
      <trkpt lat="44.15631" lon="4.42114">
        <ele>250</ele>
        <time>2016-03-24T13:12:29Z</time>
      </trkpt>
      <trkpt lat="44.15624" lon="4.42122">
        <ele>250</ele>
        <time>2016-03-24T13:14:29Z</time>
      </trkpt>
      <trkpt lat="44.15618" lon="4.42135">
        <ele>250</ele>
        <time>2016-03-24T13:16:29Z</time>
      </trkpt>
      <trkpt lat="44.15611" lon="4.42149">
        <ele>250</ele>
        <time>2016-03-24T13:18:29Z</time>
      </trkpt>
      <trkpt lat="44.15606" lon="4.42156">
        <ele>251</ele>
        <time>2016-03-24T13:20:29Z</time>
      </trkpt>
      <trkpt lat="44.156" lon="4.42161">
        <ele>251</ele>
        <time>2016-03-24T13:22:29Z</time>
      </trkpt>
      <trkpt lat="44.15596" lon="4.42163">
        <ele>251</ele>
        <time>2016-03-24T13:24:29Z</time>
      </trkpt>
      <trkpt lat="44.15591" lon="4.42163">
        <ele>251</ele>
        <time>2016-03-24T13:26:29Z</time>
      </trkpt>
      <trkpt lat="44.15585" lon="4.42162">
        <ele>251</ele>
        <time>2016-03-24T13:28:29Z</time>
      </trkpt>
      <trkpt lat="44.1558" lon="4.42158">
        <ele>251</ele>
        <time>2016-03-24T13:30:29Z</time>
      </trkpt>
      <trkpt lat="44.15574" lon="4.42152">
        <ele>252</ele>
        <time>2016-03-24T13:32:29Z</time>
      </trkpt>
      <trkpt lat="44.15566" lon="4.42142">
        <ele>252</ele>
        <time>2016-03-24T13:34:29Z</time>
      </trkpt>
      <trkpt lat="44.15562" lon="4.42131">
        <ele>252</ele>
        <time>2016-03-24T13:36:29Z</time>
      </trkpt>
      <trkpt lat="44.15559" lon="4.42122">
        <ele>252</ele>
        <time>2016-03-24T13:38:29Z</time>
      </trkpt>
      <trkpt lat="44.15556" lon="4.42113">
        <ele>252</ele>
        <time>2016-03-24T13:40:29Z</time>
      </trkpt>
      <trkpt lat="44.15554" lon="4.42101">
        <ele>251</ele>
        <time>2016-03-24T13:42:29Z</time>
      </trkpt>
      <trkpt lat="44.15551" lon="4.42078">
        <ele>251</ele>
        <time>2016-03-24T13:44:29Z</time>
      </trkpt>
      <trkpt lat="44.15548" lon="4.42048">
        <ele>253</ele>
        <time>2016-03-24T13:46:29Z</time>
      </trkpt>
      <trkpt lat="44.15544" lon="4.42011">
        <ele>254</ele>
        <time>2016-03-24T13:48:29Z</time>
      </trkpt>
      <trkpt lat="44.15541" lon="4.41987">
        <ele>255</ele>
        <time>2016-03-24T13:50:29Z</time>
      </trkpt>
      <trkpt lat="44.15539" lon="4.41968">
        <ele>255</ele>
        <time>2016-03-24T13:52:29Z</time>
      </trkpt>
      <trkpt lat="44.15538" lon="4.41947">
        <ele>256</ele>
        <time>2016-03-24T13:54:29Z</time>
      </trkpt>
      <trkpt lat="44.15539" lon="4.41932">
        <ele>256</ele>
        <time>2016-03-24T13:56:29Z</time>
      </trkpt>
      <trkpt lat="44.15542" lon="4.41913">
        <ele>257</ele>
        <time>2016-03-24T13:58:29Z</time>
      </trkpt>
      <trkpt lat="44.15546" lon="4.41892">
        <ele>258</ele>
        <time>2016-03-24T14:00:29Z</time>
      </trkpt>
      <trkpt lat="44.15549" lon="4.41872">
        <ele>258</ele>
        <time>2016-03-24T14:02:29Z</time>
      </trkpt>
      <trkpt lat="44.15551" lon="4.41856">
        <ele>259</ele>
        <time>2016-03-24T14:04:29Z</time>
      </trkpt>
      <trkpt lat="44.15551" lon="4.41844">
        <ele>259</ele>
        <time>2016-03-24T14:06:29Z</time>
      </trkpt>
      <trkpt lat="44.15551" lon="4.41833">
        <ele>259</ele>
        <time>2016-03-24T14:08:29Z</time>
      </trkpt>
      <trkpt lat="44.1555" lon="4.4182">
        <ele>259</ele>
        <time>2016-03-24T14:10:29Z</time>
      </trkpt>
      <trkpt lat="44.15548" lon="4.41804">
        <ele>259</ele>
        <time>2016-03-24T14:12:29Z</time>
      </trkpt>
      <trkpt lat="44.15546" lon="4.41789">
        <ele>259</ele>
        <time>2016-03-24T14:14:29Z</time>
      </trkpt>
      <trkpt lat="44.15544" lon="4.41777">
        <ele>259</ele>
        <time>2016-03-24T14:16:29Z</time>
      </trkpt>
      <trkpt lat="44.15544" lon="4.41769">
        <ele>259</ele>
        <time>2016-03-24T14:18:29Z</time>
      </trkpt>
      <trkpt lat="44.15546" lon="4.4176">
        <ele>259</ele>
        <time>2016-03-24T14:20:29Z</time>
      </trkpt>
      <trkpt lat="44.15547" lon="4.41754">
        <ele>258</ele>
        <time>2016-03-24T14:22:29Z</time>
      </trkpt>
      <trkpt lat="44.15551" lon="4.41747">
        <ele>259</ele>
        <time>2016-03-24T14:24:29Z</time>
      </trkpt>
      <trkpt lat="44.15555" lon="4.41742">
        <ele>259</ele>
        <time>2016-03-24T14:26:29Z</time>
      </trkpt>
      <trkpt lat="44.15563" lon="4.41736">
        <ele>259</ele>
        <time>2016-03-24T14:28:29Z</time>
      </trkpt>
      <trkpt lat="44.1557" lon="4.41734">
        <ele>259</ele>
        <time>2016-03-24T14:30:29Z</time>
      </trkpt>
      <trkpt lat="44.15583" lon="4.41731">
        <ele>258</ele>
        <time>2016-03-24T14:32:29Z</time>
      </trkpt>
      <trkpt lat="44.15594" lon="4.41728">
        <ele>259</ele>
        <time>2016-03-24T14:34:29Z</time>
      </trkpt>
      <trkpt lat="44.15602" lon="4.41725">
        <ele>259</ele>
        <time>2016-03-24T14:36:29Z</time>
      </trkpt>
      <trkpt lat="44.15611" lon="4.4172">
        <ele>260</ele>
        <time>2016-03-24T14:38:29Z</time>
      </trkpt>
      <trkpt lat="44.15623" lon="4.41711">
        <ele>260</ele>
        <time>2016-03-24T14:40:29Z</time>
      </trkpt>
      <trkpt lat="44.15635" lon="4.41703">
        <ele>260</ele>
        <time>2016-03-24T14:42:29Z</time>
      </trkpt>
      <trkpt lat="44.15655" lon="4.41686">
        <ele>260</ele>
        <time>2016-03-24T14:44:29Z</time>
      </trkpt>
      <trkpt lat="44.15678" lon="4.41664">
        <ele>260</ele>
        <time>2016-03-24T14:46:29Z</time>
      </trkpt>
      <trkpt lat="44.15691" lon="4.41647">
        <ele>261</ele>
        <time>2016-03-24T14:48:29Z</time>
      </trkpt>
      <trkpt lat="44.15705" lon="4.41626">
        <ele>262</ele>
        <time>2016-03-24T14:50:29Z</time>
      </trkpt>
      <trkpt lat="44.15719" lon="4.41604">
        <ele>262</ele>
        <time>2016-03-24T14:52:29Z</time>
      </trkpt>
      <trkpt lat="44.15737" lon="4.41574">
        <ele>262</ele>
        <time>2016-03-24T14:54:29Z</time>
      </trkpt>
      <trkpt lat="44.15753" lon="4.41547">
        <ele>263</ele>
        <time>2016-03-24T14:56:29Z</time>
      </trkpt>
      <trkpt lat="44.15758" lon="4.41537">
        <ele>264</ele>
        <time>2016-03-24T14:58:29Z</time>
      </trkpt>
      <trkpt lat="44.15761" lon="4.41525">
        <ele>264</ele>
        <time>2016-03-24T15:00:29Z</time>
      </trkpt>
      <trkpt lat="44.15762" lon="4.41515">
        <ele>265</ele>
        <time>2016-03-24T15:02:29Z</time>
      </trkpt>
      <trkpt lat="44.15762" lon="4.41508">
        <ele>265</ele>
        <time>2016-03-24T15:04:29Z</time>
      </trkpt>
      <trkpt lat="44.15762" lon="4.41501">
        <ele>266</ele>
        <time>2016-03-24T15:06:29Z</time>
      </trkpt>
      <trkpt lat="44.15761" lon="4.41493">
        <ele>266</ele>
        <time>2016-03-24T15:08:29Z</time>
      </trkpt>
      <trkpt lat="44.15756" lon="4.41461">
        <ele>266</ele>
        <time>2016-03-24T15:10:29Z</time>
      </trkpt>
      <trkpt lat="44.15753" lon="4.41442">
        <ele>267</ele>
        <time>2016-03-24T15:12:29Z</time>
      </trkpt>
      <trkpt lat="44.15749" lon="4.41411">
        <ele>267</ele>
        <time>2016-03-24T15:14:29Z</time>
      </trkpt>
      <trkpt lat="44.15748" lon="4.41401">
        <ele>267</ele>
        <time>2016-03-24T15:16:29Z</time>
      </trkpt>
      <trkpt lat="44.15747" lon="4.41393">
        <ele>267</ele>
        <time>2016-03-24T15:18:29Z</time>
      </trkpt>
      <trkpt lat="44.15748" lon="4.41384">
        <ele>267</ele>
        <time>2016-03-24T15:20:29Z</time>
      </trkpt>
      <trkpt lat="44.1575" lon="4.41376">
        <ele>267</ele>
        <time>2016-03-24T15:22:29Z</time>
      </trkpt>
      <trkpt lat="44.15752" lon="4.41369">
        <ele>267</ele>
        <time>2016-03-24T15:24:29Z</time>
      </trkpt>
      <trkpt lat="44.15756" lon="4.41363">
        <ele>267</ele>
        <time>2016-03-24T15:26:29Z</time>
      </trkpt>
      <trkpt lat="44.15761" lon="4.41356">
        <ele>267</ele>
        <time>2016-03-24T15:28:29Z</time>
      </trkpt>
      <trkpt lat="44.15774" lon="4.41344">
        <ele>268</ele>
        <time>2016-03-24T15:30:29Z</time>
      </trkpt>
      <trkpt lat="44.15793" lon="4.41327">
        <ele>268</ele>
        <time>2016-03-24T15:32:29Z</time>
      </trkpt>
      <trkpt lat="44.15807" lon="4.41313">
        <ele>269</ele>
        <time>2016-03-24T15:34:29Z</time>
      </trkpt>
      <trkpt lat="44.15813" lon="4.41305">
        <ele>269</ele>
        <time>2016-03-24T15:36:29Z</time>
      </trkpt>
      <trkpt lat="44.15819" lon="4.41294">
        <ele>269</ele>
        <time>2016-03-24T15:38:29Z</time>
      </trkpt>
      <trkpt lat="44.15823" lon="4.41285">
        <ele>269</ele>
        <time>2016-03-24T15:40:29Z</time>
      </trkpt>
      <trkpt lat="44.15825" lon="4.41275">
        <ele>269</ele>
        <time>2016-03-24T15:42:29Z</time>
      </trkpt>
      <trkpt lat="44.15825" lon="4.41267">
        <ele>269</ele>
        <time>2016-03-24T15:44:29Z</time>
      </trkpt>
      <trkpt lat="44.15824" lon="4.41254">
        <ele>269</ele>
        <time>2016-03-24T15:46:29Z</time>
      </trkpt>
      <trkpt lat="44.15822" lon="4.41239">
        <ele>269</ele>
        <time>2016-03-24T15:48:29Z</time>
      </trkpt>
      <trkpt lat="44.1582" lon="4.41221">
        <ele>270</ele>
        <time>2016-03-24T15:50:29Z</time>
      </trkpt>
      <trkpt lat="44.15817" lon="4.41202">
        <ele>270</ele>
        <time>2016-03-24T15:52:29Z</time>
      </trkpt>
      <trkpt lat="44.15814" lon="4.41181">
        <ele>271</ele>
        <time>2016-03-24T15:54:29Z</time>
      </trkpt>
      <trkpt lat="44.15809" lon="4.41141">
        <ele>272</ele>
        <time>2016-03-24T15:56:29Z</time>
      </trkpt>
      <trkpt lat="44.15808" lon="4.41127">
        <ele>273</ele>
        <time>2016-03-24T15:58:29Z</time>
      </trkpt>
      <trkpt lat="44.15804" lon="4.41112">
        <ele>273</ele>
        <time>2016-03-24T16:00:29Z</time>
      </trkpt>
      <trkpt lat="44.158" lon="4.41092">
        <ele>274</ele>
        <time>2016-03-24T16:02:29Z</time>
      </trkpt>
      <trkpt lat="44.15794" lon="4.41068">
        <ele>275</ele>
        <time>2016-03-24T16:04:29Z</time>
      </trkpt>
      <trkpt lat="44.15788" lon="4.41046">
        <ele>275</ele>
        <time>2016-03-24T16:06:29Z</time>
      </trkpt>
      <trkpt lat="44.15783" lon="4.41027">
        <ele>275</ele>
        <time>2016-03-24T16:08:29Z</time>
      </trkpt>
      <trkpt lat="44.1578" lon="4.41014">
        <ele>275</ele>
        <time>2016-03-24T16:10:29Z</time>
      </trkpt>
      <trkpt lat="44.15778" lon="4.41006">
        <ele>275</ele>
        <time>2016-03-24T16:12:29Z</time>
      </trkpt>
      <trkpt lat="44.15776" lon="4.40995">
        <ele>275</ele>
        <time>2016-03-24T16:14:29Z</time>
      </trkpt>
      <trkpt lat="44.15777" lon="4.40987">
        <ele>275</ele>
        <time>2016-03-24T16:16:29Z</time>
      </trkpt>
      <trkpt lat="44.15778" lon="4.40979">
        <ele>275</ele>
        <time>2016-03-24T16:18:29Z</time>
      </trkpt>
      <trkpt lat="44.1578" lon="4.40972">
        <ele>275</ele>
        <time>2016-03-24T16:20:29Z</time>
      </trkpt>
      <trkpt lat="44.15784" lon="4.40965">
        <ele>275</ele>
        <time>2016-03-24T16:22:29Z</time>
      </trkpt>
      <trkpt lat="44.15788" lon="4.4096">
        <ele>275</ele>
        <time>2016-03-24T16:24:29Z</time>
      </trkpt>
      <trkpt lat="44.15794" lon="4.40953">
        <ele>275</ele>
        <time>2016-03-24T16:26:29Z</time>
      </trkpt>
      <trkpt lat="44.1581" lon="4.40942">
        <ele>274</ele>
        <time>2016-03-24T16:28:29Z</time>
      </trkpt>
      <trkpt lat="44.15846" lon="4.40912">
        <ele>274</ele>
        <time>2016-03-24T16:30:29Z</time>
      </trkpt>
      <trkpt lat="44.15861" lon="4.409">
        <ele>275</ele>
        <time>2016-03-24T16:32:29Z</time>
      </trkpt>
      <trkpt lat="44.15876" lon="4.40886">
        <ele>276</ele>
        <time>2016-03-24T16:34:29Z</time>
      </trkpt>
      <trkpt lat="44.15888" lon="4.40872">
        <ele>276</ele>
        <time>2016-03-24T16:36:29Z</time>
      </trkpt>
      <trkpt lat="44.15899" lon="4.40855">
        <ele>277</ele>
        <time>2016-03-24T16:38:29Z</time>
      </trkpt>
      <trkpt lat="44.15907" lon="4.40837">
        <ele>277</ele>
        <time>2016-03-24T16:40:29Z</time>
      </trkpt>
      <trkpt lat="44.15914" lon="4.40816">
        <ele>277</ele>
        <time>2016-03-24T16:42:29Z</time>
      </trkpt>
      <trkpt lat="44.15917" lon="4.40806">
        <ele>277</ele>
        <time>2016-03-24T16:44:29Z</time>
      </trkpt>
      <trkpt lat="44.15921" lon="4.40784">
        <ele>277</ele>
        <time>2016-03-24T16:46:29Z</time>
      </trkpt>
      <trkpt lat="44.15923" lon="4.40773">
        <ele>277</ele>
        <time>2016-03-24T16:48:29Z</time>
      </trkpt>
      <trkpt lat="44.15923" lon="4.40763">
        <ele>276</ele>
        <time>2016-03-24T16:50:29Z</time>
      </trkpt>
      <trkpt lat="44.15924" lon="4.40753">
        <ele>276</ele>
        <time>2016-03-24T16:52:29Z</time>
      </trkpt>
      <trkpt lat="44.15922" lon="4.40739">
        <ele>276</ele>
        <time>2016-03-24T16:54:29Z</time>
      </trkpt>
      <trkpt lat="44.15921" lon="4.40726">
        <ele>276</ele>
        <time>2016-03-24T16:56:29Z</time>
      </trkpt>
      <trkpt lat="44.15917" lon="4.40703">
        <ele>275</ele>
        <time>2016-03-24T16:58:29Z</time>
      </trkpt>
      <trkpt lat="44.15912" lon="4.40674">
        <ele>275</ele>
        <time>2016-03-24T17:00:29Z</time>
      </trkpt>
      <trkpt lat="44.15905" lon="4.40632">
        <ele>276</ele>
        <time>2016-03-24T17:02:29Z</time>
      </trkpt>
      <trkpt lat="44.15899" lon="4.40599">
        <ele>276</ele>
        <time>2016-03-24T17:04:29Z</time>
      </trkpt>
      <trkpt lat="44.15896" lon="4.40586">
        <ele>276</ele>
        <time>2016-03-24T17:06:29Z</time>
      </trkpt>
      <trkpt lat="44.15894" lon="4.40564">
        <ele>277</ele>
        <time>2016-03-24T17:08:29Z</time>
      </trkpt>
      <trkpt lat="44.15893" lon="4.40548">
        <ele>278</ele>
        <time>2016-03-24T17:10:29Z</time>
      </trkpt>
      <trkpt lat="44.15894" lon="4.40532">
        <ele>278</ele>
        <time>2016-03-24T17:12:29Z</time>
      </trkpt>
      <trkpt lat="44.15896" lon="4.40523">
        <ele>279</ele>
        <time>2016-03-24T17:14:29Z</time>
      </trkpt>
      <trkpt lat="44.15899" lon="4.40513">
        <ele>279</ele>
        <time>2016-03-24T17:16:29Z</time>
      </trkpt>
      <trkpt lat="44.159" lon="4.40504">
        <ele>279</ele>
        <time>2016-03-24T17:18:29Z</time>
      </trkpt>
      <trkpt lat="44.15904" lon="4.40495">
        <ele>279</ele>
        <time>2016-03-24T17:20:29Z</time>
      </trkpt>
      <trkpt lat="44.15917" lon="4.40456">
        <ele>279</ele>
        <time>2016-03-24T17:22:29Z</time>
      </trkpt>
      <trkpt lat="44.15936" lon="4.40404">
        <ele>279</ele>
        <time>2016-03-24T17:24:29Z</time>
      </trkpt>
      <trkpt lat="44.15959" lon="4.4034">
        <ele>279</ele>
        <time>2016-03-24T17:26:29Z</time>
      </trkpt>
      <trkpt lat="44.15962" lon="4.40333">
        <ele>278</ele>
        <time>2016-03-24T17:28:29Z</time>
      </trkpt>
      <trkpt lat="44.15974" lon="4.40295">
        <ele>278</ele>
        <time>2016-03-24T17:30:29Z</time>
      </trkpt>
      <trkpt lat="44.15977" lon="4.40276">
        <ele>277</ele>
        <time>2016-03-24T17:32:29Z</time>
      </trkpt>
      <trkpt lat="44.15978" lon="4.40264">
        <ele>277</ele>
        <time>2016-03-24T17:34:29Z</time>
      </trkpt>
      <trkpt lat="44.15975" lon="4.40241">
        <ele>277</ele>
        <time>2016-03-24T17:36:29Z</time>
      </trkpt>
      <trkpt lat="44.15968" lon="4.40207">
        <ele>277</ele>
        <time>2016-03-24T17:38:29Z</time>
      </trkpt>
      <trkpt lat="44.15958" lon="4.40165">
        <ele>277</ele>
        <time>2016-03-24T17:40:29Z</time>
      </trkpt>
      <trkpt lat="44.1595" lon="4.40126">
        <ele>277</ele>
        <time>2016-03-24T17:42:29Z</time>
      </trkpt>
      <trkpt lat="44.15941" lon="4.40079">
        <ele>277</ele>
        <time>2016-03-24T17:44:29Z</time>
      </trkpt>
      <trkpt lat="44.15932" lon="4.40034">
        <ele>277</ele>
        <time>2016-03-24T17:46:29Z</time>
      </trkpt>
      <trkpt lat="44.15922" lon="4.39992">
        <ele>277</ele>
        <time>2016-03-24T17:48:29Z</time>
      </trkpt>
      <trkpt lat="44.15912" lon="4.39958">
        <ele>278</ele>
        <time>2016-03-24T17:50:29Z</time>
      </trkpt>
      <trkpt lat="44.15898" lon="4.39918">
        <ele>279</ele>
        <time>2016-03-24T17:52:29Z</time>
      </trkpt>
      <trkpt lat="44.1589" lon="4.39893">
        <ele>280</ele>
        <time>2016-03-24T17:54:29Z</time>
      </trkpt>
      <trkpt lat="44.15884" lon="4.39874">
        <ele>280</ele>
        <time>2016-03-24T17:56:29Z</time>
      </trkpt>
      <trkpt lat="44.15879" lon="4.39856">
        <ele>280</ele>
        <time>2016-03-24T17:58:29Z</time>
      </trkpt>
      <trkpt lat="44.15876" lon="4.39839">
        <ele>280</ele>
        <time>2016-03-24T18:00:29Z</time>
      </trkpt>
      <trkpt lat="44.15875" lon="4.39829">
        <ele>280</ele>
        <time>2016-03-24T18:02:29Z</time>
      </trkpt>
      <trkpt lat="44.15875" lon="4.39819">
        <ele>280</ele>
        <time>2016-03-24T18:04:29Z</time>
      </trkpt>
      <trkpt lat="44.15875" lon="4.3981">
        <ele>280</ele>
        <time>2016-03-24T18:06:29Z</time>
      </trkpt>
      <trkpt lat="44.15876" lon="4.3979">
        <ele>279</ele>
        <time>2016-03-24T18:08:29Z</time>
      </trkpt>
      <trkpt lat="44.15877" lon="4.39769">
        <ele>279</ele>
        <time>2016-03-24T18:10:29Z</time>
      </trkpt>
      <trkpt lat="44.1588" lon="4.39726">
        <ele>278</ele>
        <time>2016-03-24T18:12:29Z</time>
      </trkpt>
      <trkpt lat="44.15882" lon="4.39702">
        <ele>278</ele>
        <time>2016-03-24T18:14:29Z</time>
      </trkpt>
      <trkpt lat="44.15886" lon="4.39677">
        <ele>278</ele>
        <time>2016-03-24T18:16:29Z</time>
      </trkpt>
      <trkpt lat="44.15889" lon="4.39659">
        <ele>277</ele>
        <time>2016-03-24T18:18:29Z</time>
      </trkpt>
      <trkpt lat="44.15892" lon="4.39644">
        <ele>277</ele>
        <time>2016-03-24T18:20:29Z</time>
      </trkpt>
      <trkpt lat="44.15938" lon="4.39462">
        <ele>279</ele>
        <time>2016-03-24T18:22:29Z</time>
      </trkpt>
      <trkpt lat="44.15946" lon="4.39431">
        <ele>279</ele>
        <time>2016-03-24T18:24:29Z</time>
      </trkpt>
      <trkpt lat="44.1595" lon="4.39415">
        <ele>279</ele>
        <time>2016-03-24T18:26:29Z</time>
      </trkpt>
      <trkpt lat="44.15956" lon="4.39397">
        <ele>279</ele>
        <time>2016-03-24T18:28:29Z</time>
      </trkpt>
      <trkpt lat="44.15967" lon="4.39366">
        <ele>278</ele>
        <time>2016-03-24T18:30:29Z</time>
      </trkpt>
      <trkpt lat="44.15979" lon="4.39335">
        <ele>278</ele>
        <time>2016-03-24T18:32:29Z</time>
      </trkpt>
      <trkpt lat="44.15988" lon="4.3931">
        <ele>278</ele>
        <time>2016-03-24T18:34:29Z</time>
      </trkpt>
      <trkpt lat="44.15991" lon="4.39301">
        <ele>277</ele>
        <time>2016-03-24T18:36:29Z</time>
      </trkpt>
      <trkpt lat="44.15993" lon="4.39293">
        <ele>277</ele>
        <time>2016-03-24T18:38:29Z</time>
      </trkpt>
      <trkpt lat="44.15993" lon="4.39286">
        <ele>277</ele>
        <time>2016-03-24T18:40:29Z</time>
      </trkpt>
      <trkpt lat="44.15994" lon="4.39268">
        <ele>277</ele>
        <time>2016-03-24T18:42:29Z</time>
      </trkpt>
      <trkpt lat="44.15993" lon="4.39248">
        <ele>277</ele>
        <time>2016-03-24T18:44:29Z</time>
      </trkpt>
      <trkpt lat="44.15976" lon="4.38852">
        <ele>284</ele>
        <time>2016-03-24T18:46:29Z</time>
      </trkpt>
      <trkpt lat="44.15975" lon="4.38844">
        <ele>284</ele>
        <time>2016-03-24T18:48:29Z</time>
      </trkpt>
      <trkpt lat="44.15974" lon="4.38836">
        <ele>283</ele>
        <time>2016-03-24T18:50:29Z</time>
      </trkpt>
      <trkpt lat="44.15966" lon="4.38808">
        <ele>283</ele>
        <time>2016-03-24T18:52:29Z</time>
      </trkpt>
      <trkpt lat="44.15894" lon="4.38587">
        <ele>285</ele>
        <time>2016-03-24T18:54:29Z</time>
      </trkpt>
      <trkpt lat="44.15881" lon="4.38542">
        <ele>285</ele>
        <time>2016-03-24T18:56:29Z</time>
      </trkpt>
      <trkpt lat="44.15878" lon="4.3852">
        <ele>285</ele>
        <time>2016-03-24T18:58:29Z</time>
      </trkpt>
      <trkpt lat="44.15875" lon="4.38491">
        <ele>285</ele>
        <time>2016-03-24T19:00:29Z</time>
      </trkpt>
      <trkpt lat="44.15876" lon="4.38449">
        <ele>286</ele>
        <time>2016-03-24T19:02:29Z</time>
      </trkpt>
      <trkpt lat="44.15879" lon="4.38404">
        <ele>286</ele>
        <time>2016-03-24T19:04:29Z</time>
      </trkpt>
      <trkpt lat="44.15884" lon="4.38365">
        <ele>287</ele>
        <time>2016-03-24T19:06:29Z</time>
      </trkpt>
      <trkpt lat="44.15886" lon="4.38348">
        <ele>287</ele>
        <time>2016-03-24T19:08:29Z</time>
      </trkpt>
      <trkpt lat="44.15897" lon="4.38295">
        <ele>287</ele>
        <time>2016-03-24T19:10:29Z</time>
      </trkpt>
      <trkpt lat="44.15905" lon="4.38266">
        <ele>287</ele>
        <time>2016-03-24T19:12:29Z</time>
      </trkpt>
      <trkpt lat="44.15916" lon="4.38236">
        <ele>287</ele>
        <time>2016-03-24T19:14:29Z</time>
      </trkpt>
      <trkpt lat="44.15932" lon="4.38208">
        <ele>287</ele>
        <time>2016-03-24T19:16:29Z</time>
      </trkpt>
      <trkpt lat="44.15957" lon="4.38173">
        <ele>288</ele>
        <time>2016-03-24T19:18:29Z</time>
      </trkpt>
      <trkpt lat="44.15973" lon="4.38154">
        <ele>288</ele>
        <time>2016-03-24T19:20:29Z</time>
      </trkpt>
      <trkpt lat="44.15985" lon="4.38143">
        <ele>289</ele>
        <time>2016-03-24T19:22:29Z</time>
      </trkpt>
      <trkpt lat="44.15996" lon="4.38135">
        <ele>289</ele>
        <time>2016-03-24T19:24:29Z</time>
      </trkpt>
      <trkpt lat="44.16005" lon="4.38132">
        <ele>288</ele>
        <time>2016-03-24T19:26:29Z</time>
      </trkpt>
      <trkpt lat="44.16013" lon="4.38131">
        <ele>288</ele>
        <time>2016-03-24T19:28:29Z</time>
      </trkpt>
      <trkpt lat="44.16022" lon="4.38132">
        <ele>287</ele>
        <time>2016-03-24T19:30:29Z</time>
      </trkpt>
      <trkpt lat="44.16032" lon="4.38132">
        <ele>286</ele>
        <time>2016-03-24T19:32:29Z</time>
      </trkpt>
      <trkpt lat="44.16039" lon="4.3813">
        <ele>285</ele>
        <time>2016-03-24T19:34:29Z</time>
      </trkpt>
      <trkpt lat="44.16042" lon="4.38127">
        <ele>285</ele>
        <time>2016-03-24T19:36:29Z</time>
      </trkpt>
      <trkpt lat="44.16045" lon="4.38124">
        <ele>284</ele>
        <time>2016-03-24T19:38:29Z</time>
      </trkpt>
      <trkpt lat="44.16049" lon="4.38119">
        <ele>284</ele>
        <time>2016-03-24T19:40:29Z</time>
      </trkpt>
      <trkpt lat="44.16051" lon="4.38115">
        <ele>283</ele>
        <time>2016-03-24T19:42:29Z</time>
      </trkpt>
      <trkpt lat="44.16052" lon="4.38109">
        <ele>283</ele>
        <time>2016-03-24T19:44:29Z</time>
      </trkpt>
      <trkpt lat="44.16053" lon="4.38093">
        <ele>281</ele>
        <time>2016-03-24T19:46:29Z</time>
      </trkpt>
      <trkpt lat="44.16052" lon="4.38074">
        <ele>280</ele>
        <time>2016-03-24T19:48:29Z</time>
      </trkpt>
      <trkpt lat="44.16053" lon="4.38062">
        <ele>279</ele>
        <time>2016-03-24T19:50:29Z</time>
      </trkpt>
      <trkpt lat="44.16053" lon="4.38052">
        <ele>279</ele>
        <time>2016-03-24T19:52:29Z</time>
      </trkpt>
      <trkpt lat="44.16057" lon="4.38037">
        <ele>277</ele>
        <time>2016-03-24T19:54:29Z</time>
      </trkpt>
      <trkpt lat="44.16063" lon="4.3802">
        <ele>275</ele>
        <time>2016-03-24T19:56:29Z</time>
      </trkpt>
      <trkpt lat="44.16068" lon="4.38003">
        <ele>273</ele>
        <time>2016-03-24T19:58:29Z</time>
      </trkpt>
      <trkpt lat="44.1607" lon="4.37993">
        <ele>272</ele>
        <time>2016-03-24T20:00:29Z</time>
      </trkpt>
      <trkpt lat="44.16071" lon="4.37987">
        <ele>271</ele>
        <time>2016-03-24T20:02:29Z</time>
      </trkpt>
      <trkpt lat="44.1607" lon="4.37981">
        <ele>270</ele>
        <time>2016-03-24T20:04:29Z</time>
      </trkpt>
      <trkpt lat="44.16069" lon="4.37974">
        <ele>269</ele>
        <time>2016-03-24T20:06:29Z</time>
      </trkpt>
      <trkpt lat="44.16067" lon="4.37968">
        <ele>269</ele>
        <time>2016-03-24T20:08:29Z</time>
      </trkpt>
      <trkpt lat="44.16064" lon="4.37964">
        <ele>269</ele>
        <time>2016-03-24T20:10:29Z</time>
      </trkpt>
      <trkpt lat="44.16061" lon="4.37959">
        <ele>269</ele>
        <time>2016-03-24T20:12:29Z</time>
      </trkpt>
      <trkpt lat="44.1605" lon="4.37948">
        <ele>269</ele>
        <time>2016-03-24T20:14:29Z</time>
      </trkpt>
      <trkpt lat="44.16031" lon="4.37933">
        <ele>269</ele>
        <time>2016-03-24T20:16:29Z</time>
      </trkpt>
      <trkpt lat="44.16014" lon="4.37925">
        <ele>270</ele>
        <time>2016-03-24T20:18:29Z</time>
      </trkpt>
      <trkpt lat="44.15971" lon="4.37909">
        <ele>271</ele>
        <time>2016-03-24T20:20:29Z</time>
      </trkpt>
      <trkpt lat="44.1594" lon="4.37896">
        <ele>270</ele>
        <time>2016-03-24T20:22:29Z</time>
      </trkpt>
      <trkpt lat="44.15927" lon="4.37887">
        <ele>270</ele>
        <time>2016-03-24T20:24:29Z</time>
      </trkpt>
      <trkpt lat="44.1591" lon="4.37865">
        <ele>267</ele>
        <time>2016-03-24T20:26:29Z</time>
      </trkpt>
      <trkpt lat="44.15904" lon="4.37854">
        <ele>265</ele>
        <time>2016-03-24T20:28:29Z</time>
      </trkpt>
      <trkpt lat="44.15899" lon="4.37848">
        <ele>264</ele>
        <time>2016-03-24T20:30:29Z</time>
      </trkpt>
      <trkpt lat="44.15891" lon="4.37842">
        <ele>263</ele>
        <time>2016-03-24T20:32:29Z</time>
      </trkpt>
      <trkpt lat="44.15801" lon="4.37805">
        <ele>261</ele>
        <time>2016-03-24T20:34:29Z</time>
      </trkpt>
      <trkpt lat="44.1577" lon="4.37791">
        <ele>260</ele>
        <time>2016-03-24T20:36:29Z</time>
      </trkpt>
      <trkpt lat="44.15754" lon="4.37786">
        <ele>260</ele>
        <time>2016-03-24T20:38:29Z</time>
      </trkpt>
      <trkpt lat="44.15739" lon="4.37784">
        <ele>259</ele>
        <time>2016-03-24T20:40:29Z</time>
      </trkpt>
      <trkpt lat="44.15696" lon="4.3778">
        <ele>258</ele>
        <time>2016-03-24T20:42:29Z</time>
      </trkpt>
      <trkpt lat="44.1567" lon="4.37777">
        <ele>257</ele>
        <time>2016-03-24T20:44:29Z</time>
      </trkpt>
      <trkpt lat="44.1565" lon="4.3777">
        <ele>257</ele>
        <time>2016-03-24T20:46:29Z</time>
      </trkpt>
      <trkpt lat="44.15635" lon="4.37764">
        <ele>256</ele>
        <time>2016-03-24T20:48:29Z</time>
      </trkpt>
      <trkpt lat="44.15624" lon="4.37758">
        <ele>256</ele>
        <time>2016-03-24T20:50:29Z</time>
      </trkpt>
      <trkpt lat="44.15609" lon="4.37745">
        <ele>255</ele>
        <time>2016-03-24T20:52:29Z</time>
      </trkpt>
      <trkpt lat="44.15603" lon="4.37739">
        <ele>254</ele>
        <time>2016-03-24T20:54:29Z</time>
      </trkpt>
      <trkpt lat="44.15598" lon="4.37731">
        <ele>254</ele>
        <time>2016-03-24T20:56:29Z</time>
      </trkpt>
      <trkpt lat="44.15594" lon="4.37723">
        <ele>253</ele>
        <time>2016-03-24T20:58:29Z</time>
      </trkpt>
      <trkpt lat="44.15583" lon="4.37689">
        <ele>249</ele>
        <time>2016-03-24T21:00:29Z</time>
      </trkpt>
      <trkpt lat="44.15579" lon="4.37679">
        <ele>248</ele>
        <time>2016-03-24T21:02:29Z</time>
      </trkpt>
      <trkpt lat="44.15573" lon="4.37671">
        <ele>247</ele>
        <time>2016-03-24T21:04:29Z</time>
      </trkpt>
      <trkpt lat="44.15567" lon="4.37667">
        <ele>247</ele>
        <time>2016-03-24T21:06:29Z</time>
      </trkpt>
      <trkpt lat="44.15559" lon="4.3766">
        <ele>247</ele>
        <time>2016-03-24T21:08:29Z</time>
      </trkpt>
      <trkpt lat="44.15553" lon="4.37657">
        <ele>247</ele>
        <time>2016-03-24T21:10:29Z</time>
      </trkpt>
      <trkpt lat="44.15546" lon="4.37654">
        <ele>247</ele>
        <time>2016-03-24T21:12:29Z</time>
      </trkpt>
      <trkpt lat="44.15539" lon="4.37649">
        <ele>247</ele>
        <time>2016-03-24T21:14:29Z</time>
      </trkpt>
      <trkpt lat="44.15532" lon="4.37641">
        <ele>247</ele>
        <time>2016-03-24T21:16:29Z</time>
      </trkpt>
      <trkpt lat="44.15525" lon="4.37631">
        <ele>246</ele>
        <time>2016-03-24T21:18:29Z</time>
      </trkpt>
      <trkpt lat="44.1552" lon="4.37617">
        <ele>245</ele>
        <time>2016-03-24T21:20:29Z</time>
      </trkpt>
      <trkpt lat="44.15515" lon="4.37599">
        <ele>244</ele>
        <time>2016-03-24T21:22:29Z</time>
      </trkpt>
      <trkpt lat="44.15503" lon="4.37545">
        <ele>241</ele>
        <time>2016-03-24T21:24:29Z</time>
      </trkpt>
      <trkpt lat="44.15482" lon="4.37456">
        <ele>240</ele>
        <time>2016-03-24T21:26:29Z</time>
      </trkpt>
      <trkpt lat="44.1548" lon="4.37447">
        <ele>239</ele>
        <time>2016-03-24T21:28:29Z</time>
      </trkpt>
      <trkpt lat="44.15478" lon="4.37439">
        <ele>239</ele>
        <time>2016-03-24T21:30:29Z</time>
      </trkpt>
      <trkpt lat="44.15477" lon="4.37432">
        <ele>239</ele>
        <time>2016-03-24T21:32:29Z</time>
      </trkpt>
      <trkpt lat="44.15474" lon="4.37423">
        <ele>239</ele>
        <time>2016-03-24T21:34:29Z</time>
      </trkpt>
      <trkpt lat="44.15441" lon="4.37369">
        <ele>241</ele>
        <time>2016-03-24T21:36:29Z</time>
      </trkpt>
      <trkpt lat="44.1542" lon="4.37338">
        <ele>242</ele>
        <time>2016-03-24T21:38:29Z</time>
      </trkpt>
      <trkpt lat="44.15413" lon="4.37326">
        <ele>242</ele>
        <time>2016-03-24T21:40:29Z</time>
      </trkpt>
      <trkpt lat="44.15369" lon="4.37252">
        <ele>240</ele>
        <time>2016-03-24T21:42:29Z</time>
      </trkpt>
      <trkpt lat="44.15356" lon="4.37232">
        <ele>241</ele>
        <time>2016-03-24T21:44:29Z</time>
      </trkpt>
      <trkpt lat="44.15338" lon="4.372">
        <ele>241</ele>
        <time>2016-03-24T21:46:29Z</time>
      </trkpt>
      <trkpt lat="44.15307" lon="4.37136">
        <ele>242</ele>
        <time>2016-03-24T21:48:29Z</time>
      </trkpt>
      <trkpt lat="44.15302" lon="4.37123">
        <ele>243</ele>
        <time>2016-03-24T21:50:29Z</time>
      </trkpt>
      <trkpt lat="44.15297" lon="4.37107">
        <ele>243</ele>
        <time>2016-03-24T21:52:29Z</time>
      </trkpt>
      <trkpt lat="44.15294" lon="4.37093">
        <ele>244</ele>
        <time>2016-03-24T21:54:29Z</time>
      </trkpt>
      <trkpt lat="44.15291" lon="4.37078">
        <ele>244</ele>
        <time>2016-03-24T21:56:29Z</time>
      </trkpt>
      <trkpt lat="44.15286" lon="4.37064">
        <ele>245</ele>
        <time>2016-03-24T21:58:29Z</time>
      </trkpt>
      <trkpt lat="44.1528" lon="4.37054">
        <ele>246</ele>
        <time>2016-03-24T22:00:29Z</time>
      </trkpt>
      <trkpt lat="44.15272" lon="4.37047">
        <ele>247</ele>
        <time>2016-03-24T22:02:29Z</time>
      </trkpt>
      <trkpt lat="44.15268" lon="4.37045">
        <ele>247</ele>
        <time>2016-03-24T22:04:29Z</time>
      </trkpt>
      <trkpt lat="44.1518" lon="4.37016">
        <ele>250</ele>
        <time>2016-03-24T22:06:29Z</time>
      </trkpt>
      <trkpt lat="44.15167" lon="4.37013">
        <ele>251</ele>
        <time>2016-03-24T22:08:29Z</time>
      </trkpt>
      <trkpt lat="44.15159" lon="4.37009">
        <ele>250</ele>
        <time>2016-03-24T22:10:29Z</time>
      </trkpt>
      <trkpt lat="44.15152" lon="4.37003">
        <ele>250</ele>
        <time>2016-03-24T22:12:29Z</time>
      </trkpt>
      <trkpt lat="44.15144" lon="4.36997">
        <ele>250</ele>
        <time>2016-03-24T22:14:29Z</time>
      </trkpt>
      <trkpt lat="44.15135" lon="4.36986">
        <ele>250</ele>
        <time>2016-03-24T22:16:29Z</time>
      </trkpt>
      <trkpt lat="44.15126" lon="4.36973">
        <ele>250</ele>
        <time>2016-03-24T22:18:29Z</time>
      </trkpt>
      <trkpt lat="44.15113" lon="4.36955">
        <ele>250</ele>
        <time>2016-03-24T22:20:29Z</time>
      </trkpt>
      <trkpt lat="44.15094" lon="4.36931">
        <ele>249</ele>
        <time>2016-03-24T22:22:29Z</time>
      </trkpt>
      <trkpt lat="44.15085" lon="4.36921">
        <ele>249</ele>
        <time>2016-03-24T22:24:29Z</time>
      </trkpt>
      <trkpt lat="44.15077" lon="4.36914">
        <ele>249</ele>
        <time>2016-03-24T22:26:29Z</time>
      </trkpt>
      <trkpt lat="44.15025" lon="4.36879">
        <ele>250</ele>
        <time>2016-03-24T22:28:29Z</time>
      </trkpt>
      <trkpt lat="44.1502" lon="4.36873">
        <ele>250</ele>
        <time>2016-03-24T22:30:29Z</time>
      </trkpt>
      <trkpt lat="44.15018" lon="4.36868">
        <ele>250</ele>
        <time>2016-03-24T22:32:29Z</time>
      </trkpt>
      <trkpt lat="44.15014" lon="4.36859">
        <ele>251</ele>
        <time>2016-03-24T22:34:29Z</time>
      </trkpt>
      <trkpt lat="44.15014" lon="4.36859">
        <ele>251</ele>
        <time>2016-03-24T22:36:29Z</time>
      </trkpt>
      <trkpt lat="44.15031" lon="4.36713">
        <ele>259</ele>
        <time>2016-03-24T22:38:29Z</time>
      </trkpt>
      <trkpt lat="44.15057" lon="4.36485">
        <ele>259</ele>
        <time>2016-03-24T22:40:29Z</time>
      </trkpt>
      <trkpt lat="44.15069" lon="4.36366">
        <ele>255</ele>
        <time>2016-03-24T22:42:29Z</time>
      </trkpt>
      <trkpt lat="44.15072" lon="4.36338">
        <ele>253</ele>
        <time>2016-03-24T22:44:29Z</time>
      </trkpt>
      <trkpt lat="44.15074" lon="4.36317">
        <ele>252</ele>
        <time>2016-03-24T22:46:29Z</time>
      </trkpt>
      <trkpt lat="44.15075" lon="4.36307">
        <ele>252</ele>
        <time>2016-03-24T22:48:29Z</time>
      </trkpt>
      <trkpt lat="44.15076" lon="4.36301">
        <ele>251</ele>
        <time>2016-03-24T22:50:29Z</time>
      </trkpt>
      <trkpt lat="44.15079" lon="4.36293">
        <ele>251</ele>
        <time>2016-03-24T22:52:29Z</time>
      </trkpt>
      <trkpt lat="44.15083" lon="4.36285">
        <ele>251</ele>
        <time>2016-03-24T22:54:29Z</time>
      </trkpt>
      <trkpt lat="44.15087" lon="4.36279">
        <ele>251</ele>
        <time>2016-03-24T22:56:29Z</time>
      </trkpt>
      <trkpt lat="44.15093" lon="4.36272">
        <ele>250</ele>
        <time>2016-03-24T22:58:29Z</time>
      </trkpt>
      <trkpt lat="44.15102" lon="4.36263">
        <ele>250</ele>
        <time>2016-03-24T23:00:29Z</time>
      </trkpt>
      <trkpt lat="44.15103" lon="4.36262">
        <ele>250</ele>
        <time>2016-03-24T23:02:29Z</time>
      </trkpt>
      <trkpt lat="44.15119" lon="4.36246">
        <ele>249</ele>
        <time>2016-03-24T23:04:29Z</time>
      </trkpt>
      <trkpt lat="44.15133" lon="4.36234">
        <ele>248</ele>
        <time>2016-03-24T23:06:29Z</time>
      </trkpt>
      <trkpt lat="44.15141" lon="4.3623">
        <ele>248</ele>
        <time>2016-03-24T23:08:29Z</time>
      </trkpt>
      <trkpt lat="44.15147" lon="4.36228">
        <ele>248</ele>
        <time>2016-03-24T23:10:29Z</time>
      </trkpt>
      <trkpt lat="44.15152" lon="4.36226">
        <ele>247</ele>
        <time>2016-03-24T23:12:29Z</time>
      </trkpt>
      <trkpt lat="44.15159" lon="4.36224">
        <ele>247</ele>
        <time>2016-03-24T23:14:29Z</time>
      </trkpt>
      <trkpt lat="44.15166" lon="4.36219">
        <ele>247</ele>
        <time>2016-03-24T23:16:29Z</time>
      </trkpt>
      <trkpt lat="44.1517" lon="4.36216">
        <ele>247</ele>
        <time>2016-03-24T23:18:29Z</time>
      </trkpt>
      <trkpt lat="44.15176" lon="4.36209">
        <ele>246</ele>
        <time>2016-03-24T23:20:29Z</time>
      </trkpt>
      <trkpt lat="44.15179" lon="4.36203">
        <ele>246</ele>
        <time>2016-03-24T23:22:29Z</time>
      </trkpt>
      <trkpt lat="44.15184" lon="4.36192">
        <ele>245</ele>
        <time>2016-03-24T23:24:29Z</time>
      </trkpt>
      <trkpt lat="44.15188" lon="4.36179">
        <ele>244</ele>
        <time>2016-03-24T23:26:29Z</time>
      </trkpt>
      <trkpt lat="44.1519" lon="4.36168">
        <ele>243</ele>
        <time>2016-03-24T23:28:29Z</time>
      </trkpt>
      <trkpt lat="44.15192" lon="4.36158">
        <ele>243</ele>
        <time>2016-03-24T23:30:29Z</time>
      </trkpt>
      <trkpt lat="44.15192" lon="4.36145">
        <ele>243</ele>
        <time>2016-03-24T23:32:29Z</time>
      </trkpt>
      <trkpt lat="44.15192" lon="4.36145">
        <ele>243</ele>
        <time>2016-03-24T23:34:29Z</time>
      </trkpt>
      <trkpt lat="44.15196" lon="4.36141">
        <ele>243</ele>
        <time>2016-03-24T23:36:29Z</time>
      </trkpt>
      <trkpt lat="44.152" lon="4.36135">
        <ele>243</ele>
        <time>2016-03-24T23:38:29Z</time>
      </trkpt>
      <trkpt lat="44.15208" lon="4.36128">
        <ele>242</ele>
        <time>2016-03-24T23:40:29Z</time>
      </trkpt>
      <trkpt lat="44.15215" lon="4.36121">
        <ele>242</ele>
        <time>2016-03-24T23:42:29Z</time>
      </trkpt>
      <trkpt lat="44.15222" lon="4.36117">
        <ele>242</ele>
        <time>2016-03-24T23:44:29Z</time>
      </trkpt>
      <trkpt lat="44.15236" lon="4.36106">
        <ele>241</ele>
        <time>2016-03-24T23:46:29Z</time>
      </trkpt>
      <trkpt lat="44.15251" lon="4.36094">
        <ele>240</ele>
        <time>2016-03-24T23:48:29Z</time>
      </trkpt>
      <trkpt lat="44.15277" lon="4.36075">
        <ele>240</ele>
        <time>2016-03-24T23:50:29Z</time>
      </trkpt>
      <trkpt lat="44.15342" lon="4.3603">
        <ele>241</ele>
        <time>2016-03-24T23:52:29Z</time>
      </trkpt>
      <trkpt lat="44.15466" lon="4.35949">
        <ele>243</ele>
        <time>2016-03-24T23:54:29Z</time>
      </trkpt>
      <trkpt lat="44.15473" lon="4.35944">
        <ele>244</ele>
        <time>2016-03-24T23:56:29Z</time>
      </trkpt>
      <trkpt lat="44.1552" lon="4.35914">
        <ele>246</ele>
        <time>2016-03-24T23:58:29Z</time>
      </trkpt>
      <trkpt lat="44.15556" lon="4.35891">
        <ele>251</ele>
        <time>2016-03-25T00:00:29Z</time>
      </trkpt>
      <trkpt lat="44.15595" lon="4.35867">
        <ele>254</ele>
        <time>2016-03-25T00:02:29Z</time>
      </trkpt>
      <trkpt lat="44.15602" lon="4.35863">
        <ele>255</ele>
        <time>2016-03-25T00:04:29Z</time>
      </trkpt>
      <trkpt lat="44.15609" lon="4.35861">
        <ele>255</ele>
        <time>2016-03-25T00:06:29Z</time>
      </trkpt>
      <trkpt lat="44.15617" lon="4.35861">
        <ele>254</ele>
        <time>2016-03-25T00:08:29Z</time>
      </trkpt>
      <trkpt lat="44.15625" lon="4.35863">
        <ele>254</ele>
        <time>2016-03-25T00:10:29Z</time>
      </trkpt>
      <trkpt lat="44.15654" lon="4.35885">
        <ele>252</ele>
        <time>2016-03-25T00:12:29Z</time>
      </trkpt>
      <trkpt lat="44.15664" lon="4.35891">
        <ele>251</ele>
        <time>2016-03-25T00:14:29Z</time>
      </trkpt>
      <trkpt lat="44.15674" lon="4.35895">
        <ele>251</ele>
        <time>2016-03-25T00:16:29Z</time>
      </trkpt>
      <trkpt lat="44.15682" lon="4.35898">
        <ele>250</ele>
        <time>2016-03-25T00:18:29Z</time>
      </trkpt>
      <trkpt lat="44.15693" lon="4.359">
        <ele>249</ele>
        <time>2016-03-25T00:20:29Z</time>
      </trkpt>
      <trkpt lat="44.15697" lon="4.359">
        <ele>249</ele>
        <time>2016-03-25T00:22:29Z</time>
      </trkpt>
      <trkpt lat="44.15706" lon="4.359">
        <ele>249</ele>
        <time>2016-03-25T00:24:29Z</time>
      </trkpt>
      <trkpt lat="44.15772" lon="4.35895">
        <ele>248</ele>
        <time>2016-03-25T00:26:29Z</time>
      </trkpt>
      <trkpt lat="44.15781" lon="4.35895">
        <ele>249</ele>
        <time>2016-03-25T00:28:29Z</time>
      </trkpt>
      <trkpt lat="44.1579" lon="4.35896">
        <ele>249</ele>
        <time>2016-03-25T00:30:29Z</time>
      </trkpt>
      <trkpt lat="44.15798" lon="4.35897">
        <ele>249</ele>
        <time>2016-03-25T00:32:29Z</time>
      </trkpt>
      <trkpt lat="44.15805" lon="4.35899">
        <ele>249</ele>
        <time>2016-03-25T00:34:29Z</time>
      </trkpt>
      <trkpt lat="44.15867" lon="4.3592">
        <ele>249</ele>
        <time>2016-03-25T00:36:29Z</time>
      </trkpt>
      <trkpt lat="44.15926" lon="4.3594">
        <ele>249</ele>
        <time>2016-03-25T00:38:29Z</time>
      </trkpt>
      <trkpt lat="44.15945" lon="4.35948">
        <ele>248</ele>
        <time>2016-03-25T00:40:29Z</time>
      </trkpt>
      <trkpt lat="44.15969" lon="4.35959">
        <ele>246</ele>
        <time>2016-03-25T00:42:29Z</time>
      </trkpt>
      <trkpt lat="44.16024" lon="4.35986">
        <ele>243</ele>
        <time>2016-03-25T00:44:29Z</time>
      </trkpt>
      <trkpt lat="44.16024" lon="4.35986">
        <ele>243</ele>
        <time>2016-03-25T00:46:29Z</time>
      </trkpt>
      <trkpt lat="44.16025" lon="4.35978">
        <ele>244</ele>
        <time>2016-03-25T00:48:29Z</time>
      </trkpt>
      <trkpt lat="44.16026" lon="4.35973">
        <ele>244</ele>
        <time>2016-03-25T00:50:29Z</time>
      </trkpt>
      <trkpt lat="44.16025" lon="4.35965">
        <ele>245</ele>
        <time>2016-03-25T00:52:29Z</time>
      </trkpt>
      <trkpt lat="44.16022" lon="4.35957">
        <ele>245</ele>
        <time>2016-03-25T00:54:29Z</time>
      </trkpt>
      <trkpt lat="44.16016" lon="4.35949">
        <ele>246</ele>
        <time>2016-03-25T00:56:29Z</time>
      </trkpt>
      <trkpt lat="44.1601" lon="4.35944">
        <ele>246</ele>
        <time>2016-03-25T00:58:29Z</time>
      </trkpt>
      <trkpt lat="44.16004" lon="4.3594">
        <ele>247</ele>
        <time>2016-03-25T01:00:29Z</time>
      </trkpt>
      <trkpt lat="44.15991" lon="4.35935">
        <ele>248</ele>
        <time>2016-03-25T01:02:29Z</time>
      </trkpt>
      <trkpt lat="44.15966" lon="4.3593">
        <ele>249</ele>
        <time>2016-03-25T01:04:29Z</time>
      </trkpt>
      <trkpt lat="44.15939" lon="4.35921">
        <ele>251</ele>
        <time>2016-03-25T01:06:29Z</time>
      </trkpt>
      <trkpt lat="44.15867" lon="4.3589">
        <ele>254</ele>
        <time>2016-03-25T01:08:29Z</time>
      </trkpt>
      <trkpt lat="44.15762" lon="4.35844">
        <ele>256</ele>
        <time>2016-03-25T01:10:29Z</time>
      </trkpt>
      <trkpt lat="44.15738" lon="4.35834">
        <ele>257</ele>
        <time>2016-03-25T01:12:29Z</time>
      </trkpt>
      <trkpt lat="44.15678" lon="4.35807">
        <ele>260</ele>
        <time>2016-03-25T01:14:29Z</time>
      </trkpt>
      <trkpt lat="44.1561" lon="4.35779">
        <ele>264</ele>
        <time>2016-03-25T01:16:29Z</time>
      </trkpt>
      <trkpt lat="44.15586" lon="4.35767">
        <ele>266</ele>
        <time>2016-03-25T01:18:29Z</time>
      </trkpt>
      <trkpt lat="44.15572" lon="4.3576">
        <ele>266</ele>
        <time>2016-03-25T01:20:29Z</time>
      </trkpt>
      <trkpt lat="44.15559" lon="4.3575">
        <ele>267</ele>
        <time>2016-03-25T01:22:29Z</time>
      </trkpt>
      <trkpt lat="44.1554" lon="4.35736">
        <ele>267</ele>
        <time>2016-03-25T01:24:29Z</time>
      </trkpt>
      <trkpt lat="44.15525" lon="4.35723">
        <ele>268</ele>
        <time>2016-03-25T01:26:29Z</time>
      </trkpt>
      <trkpt lat="44.15515" lon="4.35712">
        <ele>268</ele>
        <time>2016-03-25T01:28:29Z</time>
      </trkpt>
      <trkpt lat="44.15505" lon="4.35699">
        <ele>269</ele>
        <time>2016-03-25T01:30:29Z</time>
      </trkpt>
      <trkpt lat="44.15498" lon="4.35688">
        <ele>269</ele>
        <time>2016-03-25T01:32:29Z</time>
      </trkpt>
      <trkpt lat="44.15493" lon="4.35678">
        <ele>270</ele>
        <time>2016-03-25T01:34:29Z</time>
      </trkpt>
      <trkpt lat="44.15489" lon="4.35667">
        <ele>271</ele>
        <time>2016-03-25T01:36:29Z</time>
      </trkpt>
      <trkpt lat="44.15486" lon="4.35657">
        <ele>271</ele>
        <time>2016-03-25T01:38:29Z</time>
      </trkpt>
      <trkpt lat="44.15485" lon="4.35647">
        <ele>271</ele>
        <time>2016-03-25T01:40:29Z</time>
      </trkpt>
      <trkpt lat="44.15484" lon="4.35638">
        <ele>271</ele>
        <time>2016-03-25T01:42:29Z</time>
      </trkpt>
      <trkpt lat="44.15484" lon="4.35628">
        <ele>271</ele>
        <time>2016-03-25T01:44:29Z</time>
      </trkpt>
      <trkpt lat="44.15484" lon="4.35618">
        <ele>271</ele>
        <time>2016-03-25T01:46:29Z</time>
      </trkpt>
      <trkpt lat="44.15486" lon="4.35608">
        <ele>271</ele>
        <time>2016-03-25T01:48:29Z</time>
      </trkpt>
      <trkpt lat="44.15488" lon="4.35598">
        <ele>271</ele>
        <time>2016-03-25T01:50:29Z</time>
      </trkpt>
      <trkpt lat="44.1549" lon="4.3559">
        <ele>271</ele>
        <time>2016-03-25T01:52:29Z</time>
      </trkpt>
      <trkpt lat="44.15495" lon="4.3558">
        <ele>271</ele>
        <time>2016-03-25T01:54:29Z</time>
      </trkpt>
      <trkpt lat="44.15503" lon="4.35568">
        <ele>270</ele>
        <time>2016-03-25T01:56:29Z</time>
      </trkpt>
      <trkpt lat="44.1551" lon="4.35562">
        <ele>270</ele>
        <time>2016-03-25T01:58:29Z</time>
      </trkpt>
      <trkpt lat="44.15515" lon="4.35558">
        <ele>270</ele>
        <time>2016-03-25T02:00:29Z</time>
      </trkpt>
      <trkpt lat="44.15522" lon="4.35554">
        <ele>271</ele>
        <time>2016-03-25T02:02:29Z</time>
      </trkpt>
      <trkpt lat="44.1553" lon="4.35549">
        <ele>271</ele>
        <time>2016-03-25T02:04:29Z</time>
      </trkpt>
      <trkpt lat="44.15543" lon="4.35543">
        <ele>272</ele>
        <time>2016-03-25T02:06:29Z</time>
      </trkpt>
      <trkpt lat="44.15558" lon="4.35537">
        <ele>273</ele>
        <time>2016-03-25T02:08:29Z</time>
      </trkpt>
      <trkpt lat="44.15581" lon="4.35529">
        <ele>275</ele>
        <time>2016-03-25T02:10:29Z</time>
      </trkpt>
      <trkpt lat="44.15591" lon="4.35525">
        <ele>275</ele>
        <time>2016-03-25T02:12:29Z</time>
      </trkpt>
      <trkpt lat="44.15616" lon="4.35516">
        <ele>277</ele>
        <time>2016-03-25T02:14:29Z</time>
      </trkpt>
      <trkpt lat="44.15643" lon="4.35506">
        <ele>280</ele>
        <time>2016-03-25T02:16:29Z</time>
      </trkpt>
      <trkpt lat="44.15669" lon="4.35497">
        <ele>282</ele>
        <time>2016-03-25T02:18:29Z</time>
      </trkpt>
      <trkpt lat="44.15687" lon="4.3549">
        <ele>282</ele>
        <time>2016-03-25T02:20:29Z</time>
      </trkpt>
      <trkpt lat="44.15704" lon="4.35483">
        <ele>283</ele>
        <time>2016-03-25T02:22:29Z</time>
      </trkpt>
      <trkpt lat="44.15722" lon="4.35474">
        <ele>284</ele>
        <time>2016-03-25T02:24:29Z</time>
      </trkpt>
      <trkpt lat="44.15738" lon="4.35464">
        <ele>285</ele>
        <time>2016-03-25T02:26:29Z</time>
      </trkpt>
      <trkpt lat="44.15754" lon="4.35452">
        <ele>285</ele>
        <time>2016-03-25T02:28:29Z</time>
      </trkpt>
      <trkpt lat="44.1577" lon="4.35437">
        <ele>286</ele>
        <time>2016-03-25T02:30:29Z</time>
      </trkpt>
      <trkpt lat="44.15784" lon="4.35422">
        <ele>287</ele>
        <time>2016-03-25T02:32:29Z</time>
      </trkpt>
      <trkpt lat="44.15798" lon="4.35404">
        <ele>287</ele>
        <time>2016-03-25T02:34:29Z</time>
      </trkpt>
      <trkpt lat="44.1581" lon="4.35386">
        <ele>288</ele>
        <time>2016-03-25T02:36:29Z</time>
      </trkpt>
      <trkpt lat="44.15817" lon="4.35377">
        <ele>289</ele>
        <time>2016-03-25T02:38:29Z</time>
      </trkpt>
      <trkpt lat="44.1583" lon="4.35359">
        <ele>290</ele>
        <time>2016-03-25T02:40:29Z</time>
      </trkpt>
      <trkpt lat="44.15836" lon="4.3535">
        <ele>290</ele>
        <time>2016-03-25T02:42:29Z</time>
      </trkpt>
      <trkpt lat="44.15843" lon="4.35343">
        <ele>290</ele>
        <time>2016-03-25T02:44:29Z</time>
      </trkpt>
      <trkpt lat="44.1585" lon="4.35336">
        <ele>290</ele>
        <time>2016-03-25T02:46:29Z</time>
      </trkpt>
      <trkpt lat="44.15857" lon="4.35331">
        <ele>290</ele>
        <time>2016-03-25T02:48:29Z</time>
      </trkpt>
      <trkpt lat="44.15864" lon="4.35327">
        <ele>290</ele>
        <time>2016-03-25T02:50:29Z</time>
      </trkpt>
      <trkpt lat="44.15872" lon="4.35325">
        <ele>291</ele>
        <time>2016-03-25T02:52:29Z</time>
      </trkpt>
      <trkpt lat="44.1588" lon="4.35323">
        <ele>291</ele>
        <time>2016-03-25T02:54:29Z</time>
      </trkpt>
      <trkpt lat="44.15888" lon="4.35322">
        <ele>292</ele>
        <time>2016-03-25T02:56:29Z</time>
      </trkpt>
      <trkpt lat="44.15896" lon="4.35322">
        <ele>293</ele>
        <time>2016-03-25T02:58:29Z</time>
      </trkpt>
      <trkpt lat="44.15904" lon="4.35323">
        <ele>294</ele>
        <time>2016-03-25T03:00:29Z</time>
      </trkpt>
      <trkpt lat="44.15912" lon="4.35324">
        <ele>295</ele>
        <time>2016-03-25T03:02:29Z</time>
      </trkpt>
      <trkpt lat="44.15919" lon="4.35325">
        <ele>295</ele>
        <time>2016-03-25T03:04:29Z</time>
      </trkpt>
      <trkpt lat="44.15927" lon="4.35325">
        <ele>296</ele>
        <time>2016-03-25T03:06:29Z</time>
      </trkpt>
      <trkpt lat="44.15934" lon="4.35324">
        <ele>297</ele>
        <time>2016-03-25T03:08:29Z</time>
      </trkpt>
      <trkpt lat="44.15942" lon="4.35321">
        <ele>297</ele>
        <time>2016-03-25T03:10:29Z</time>
      </trkpt>
      <trkpt lat="44.15951" lon="4.35317">
        <ele>298</ele>
        <time>2016-03-25T03:12:29Z</time>
      </trkpt>
      <trkpt lat="44.15962" lon="4.35306">
        <ele>298</ele>
        <time>2016-03-25T03:14:29Z</time>
      </trkpt>
      <trkpt lat="44.15969" lon="4.35299">
        <ele>298</ele>
        <time>2016-03-25T03:16:29Z</time>
      </trkpt>
      <trkpt lat="44.15975" lon="4.35291">
        <ele>298</ele>
        <time>2016-03-25T03:18:29Z</time>
      </trkpt>
      <trkpt lat="44.15987" lon="4.35273">
        <ele>299</ele>
        <time>2016-03-25T03:20:29Z</time>
      </trkpt>
      <trkpt lat="44.15999" lon="4.35255">
        <ele>299</ele>
        <time>2016-03-25T03:22:29Z</time>
      </trkpt>
      <trkpt lat="44.16007" lon="4.35242">
        <ele>299</ele>
        <time>2016-03-25T03:24:29Z</time>
      </trkpt>
      <trkpt lat="44.16018" lon="4.35223">
        <ele>299</ele>
        <time>2016-03-25T03:26:29Z</time>
      </trkpt>
      <trkpt lat="44.16032" lon="4.35193">
        <ele>299</ele>
        <time>2016-03-25T03:28:29Z</time>
      </trkpt>
      <trkpt lat="44.16039" lon="4.35176">
        <ele>299</ele>
        <time>2016-03-25T03:30:29Z</time>
      </trkpt>
      <trkpt lat="44.16046" lon="4.35158">
        <ele>299</ele>
        <time>2016-03-25T03:32:29Z</time>
      </trkpt>
      <trkpt lat="44.16052" lon="4.3514">
        <ele>298</ele>
        <time>2016-03-25T03:34:29Z</time>
      </trkpt>
      <trkpt lat="44.1606" lon="4.35119">
        <ele>297</ele>
        <time>2016-03-25T03:36:29Z</time>
      </trkpt>
      <trkpt lat="44.16074" lon="4.3508">
        <ele>296</ele>
        <time>2016-03-25T03:38:29Z</time>
      </trkpt>
      <trkpt lat="44.16088" lon="4.35041">
        <ele>296</ele>
        <time>2016-03-25T03:40:29Z</time>
      </trkpt>
      <trkpt lat="44.16105" lon="4.34993">
        <ele>296</ele>
        <time>2016-03-25T03:42:29Z</time>
      </trkpt>
      <trkpt lat="44.16133" lon="4.34916">
        <ele>295</ele>
        <time>2016-03-25T03:44:29Z</time>
      </trkpt>
      <trkpt lat="44.16149" lon="4.34872">
        <ele>297</ele>
        <time>2016-03-25T03:46:29Z</time>
      </trkpt>
      <trkpt lat="44.16166" lon="4.34824">
        <ele>298</ele>
        <time>2016-03-25T03:48:29Z</time>
      </trkpt>
      <trkpt lat="44.16171" lon="4.34806">
        <ele>297</ele>
        <time>2016-03-25T03:50:29Z</time>
      </trkpt>
      <trkpt lat="44.16177" lon="4.34784">
        <ele>295</ele>
        <time>2016-03-25T03:52:29Z</time>
      </trkpt>
      <trkpt lat="44.16183" lon="4.34758">
        <ele>294</ele>
        <time>2016-03-25T03:54:29Z</time>
      </trkpt>
      <trkpt lat="44.16187" lon="4.34735">
        <ele>294</ele>
        <time>2016-03-25T03:56:29Z</time>
      </trkpt>
      <trkpt lat="44.16189" lon="4.34714">
        <ele>295</ele>
        <time>2016-03-25T03:58:29Z</time>
      </trkpt>
      <trkpt lat="44.16192" lon="4.34692">
        <ele>295</ele>
        <time>2016-03-25T04:00:29Z</time>
      </trkpt>
      <trkpt lat="44.16196" lon="4.34648">
        <ele>296</ele>
        <time>2016-03-25T04:02:29Z</time>
      </trkpt>
      <trkpt lat="44.16201" lon="4.34591">
        <ele>298</ele>
        <time>2016-03-25T04:04:29Z</time>
      </trkpt>
      <trkpt lat="44.1621" lon="4.34515">
        <ele>299</ele>
        <time>2016-03-25T04:06:29Z</time>
      </trkpt>
      <trkpt lat="44.16227" lon="4.34294">
        <ele>301</ele>
        <time>2016-03-25T04:08:29Z</time>
      </trkpt>
      <trkpt lat="44.16229" lon="4.34264">
        <ele>300</ele>
        <time>2016-03-25T04:10:29Z</time>
      </trkpt>
      <trkpt lat="44.16232" lon="4.34238">
        <ele>299</ele>
        <time>2016-03-25T04:12:29Z</time>
      </trkpt>
      <trkpt lat="44.16238" lon="4.34196">
        <ele>298</ele>
        <time>2016-03-25T04:14:29Z</time>
      </trkpt>
      <trkpt lat="44.1624" lon="4.34176">
        <ele>298</ele>
        <time>2016-03-25T04:16:29Z</time>
      </trkpt>
      <trkpt lat="44.16243" lon="4.34152">
        <ele>299</ele>
        <time>2016-03-25T04:18:29Z</time>
      </trkpt>
      <trkpt lat="44.16246" lon="4.34128">
        <ele>300</ele>
        <time>2016-03-25T04:20:29Z</time>
      </trkpt>
      <trkpt lat="44.1625" lon="4.34106">
        <ele>301</ele>
        <time>2016-03-25T04:22:29Z</time>
      </trkpt>
      <trkpt lat="44.16253" lon="4.34077">
        <ele>302</ele>
        <time>2016-03-25T04:24:29Z</time>
      </trkpt>
      <trkpt lat="44.16256" lon="4.34054">
        <ele>302</ele>
        <time>2016-03-25T04:26:29Z</time>
      </trkpt>
      <trkpt lat="44.16259" lon="4.3403">
        <ele>302</ele>
        <time>2016-03-25T04:28:29Z</time>
      </trkpt>
      <trkpt lat="44.16263" lon="4.34005">
        <ele>302</ele>
        <time>2016-03-25T04:30:29Z</time>
      </trkpt>
      <trkpt lat="44.16264" lon="4.33991">
        <ele>302</ele>
        <time>2016-03-25T04:32:29Z</time>
      </trkpt>
      <trkpt lat="44.16269" lon="4.33956">
        <ele>301</ele>
        <time>2016-03-25T04:34:29Z</time>
      </trkpt>
      <trkpt lat="44.16271" lon="4.33944">
        <ele>301</ele>
        <time>2016-03-25T04:36:29Z</time>
      </trkpt>
      <trkpt lat="44.16272" lon="4.33932">
        <ele>301</ele>
        <time>2016-03-25T04:38:29Z</time>
      </trkpt>
      <trkpt lat="44.16274" lon="4.33918">
        <ele>301</ele>
        <time>2016-03-25T04:40:29Z</time>
      </trkpt>
      <trkpt lat="44.16276" lon="4.33897">
        <ele>302</ele>
        <time>2016-03-25T04:42:29Z</time>
      </trkpt>
      <trkpt lat="44.16278" lon="4.33883">
        <ele>303</ele>
        <time>2016-03-25T04:44:29Z</time>
      </trkpt>
      <trkpt lat="44.16281" lon="4.33859">
        <ele>304</ele>
        <time>2016-03-25T04:46:29Z</time>
      </trkpt>
      <trkpt lat="44.16285" lon="4.33835">
        <ele>305</ele>
        <time>2016-03-25T04:48:29Z</time>
      </trkpt>
      <trkpt lat="44.16288" lon="4.33812">
        <ele>306</ele>
        <time>2016-03-25T04:50:29Z</time>
      </trkpt>
      <trkpt lat="44.16291" lon="4.33789">
        <ele>307</ele>
        <time>2016-03-25T04:52:29Z</time>
      </trkpt>
      <trkpt lat="44.16292" lon="4.33777">
        <ele>307</ele>
        <time>2016-03-25T04:54:29Z</time>
      </trkpt>
      <trkpt lat="44.16293" lon="4.33767">
        <ele>307</ele>
        <time>2016-03-25T04:56:29Z</time>
      </trkpt>
      <trkpt lat="44.16295" lon="4.33755">
        <ele>307</ele>
        <time>2016-03-25T04:58:29Z</time>
      </trkpt>
      <trkpt lat="44.16296" lon="4.33743">
        <ele>308</ele>
        <time>2016-03-25T05:00:29Z</time>
      </trkpt>
      <trkpt lat="44.16298" lon="4.33731">
        <ele>308</ele>
        <time>2016-03-25T05:02:29Z</time>
      </trkpt>
      <trkpt lat="44.16301" lon="4.33707">
        <ele>309</ele>
        <time>2016-03-25T05:04:29Z</time>
      </trkpt>
      <trkpt lat="44.16304" lon="4.33684">
        <ele>309</ele>
        <time>2016-03-25T05:06:29Z</time>
      </trkpt>
      <trkpt lat="44.16307" lon="4.33662">
        <ele>310</ele>
        <time>2016-03-25T05:08:29Z</time>
      </trkpt>
      <trkpt lat="44.16308" lon="4.33651">
        <ele>311</ele>
        <time>2016-03-25T05:10:29Z</time>
      </trkpt>
      <trkpt lat="44.1631" lon="4.33639">
        <ele>311</ele>
        <time>2016-03-25T05:12:29Z</time>
      </trkpt>
      <trkpt lat="44.16311" lon="4.33628">
        <ele>311</ele>
        <time>2016-03-25T05:14:29Z</time>
      </trkpt>
      <trkpt lat="44.16313" lon="4.33617">
        <ele>312</ele>
        <time>2016-03-25T05:16:29Z</time>
      </trkpt>
      <trkpt lat="44.16314" lon="4.33604">
        <ele>312</ele>
        <time>2016-03-25T05:18:29Z</time>
      </trkpt>
      <trkpt lat="44.1632" lon="4.33561">
        <ele>314</ele>
        <time>2016-03-25T05:20:29Z</time>
      </trkpt>
      <trkpt lat="44.16323" lon="4.3354">
        <ele>315</ele>
        <time>2016-03-25T05:22:29Z</time>
      </trkpt>
      <trkpt lat="44.16325" lon="4.33527">
        <ele>315</ele>
        <time>2016-03-25T05:24:29Z</time>
      </trkpt>
      <trkpt lat="44.16328" lon="4.33507">
        <ele>316</ele>
        <time>2016-03-25T05:26:29Z</time>
      </trkpt>
      <trkpt lat="44.1633" lon="4.33486">
        <ele>316</ele>
        <time>2016-03-25T05:28:29Z</time>
      </trkpt>
      <trkpt lat="44.16333" lon="4.33464">
        <ele>317</ele>
        <time>2016-03-25T05:30:29Z</time>
      </trkpt>
      <trkpt lat="44.16335" lon="4.33454">
        <ele>318</ele>
        <time>2016-03-25T05:32:29Z</time>
      </trkpt>
      <trkpt lat="44.16338" lon="4.33433">
        <ele>318</ele>
        <time>2016-03-25T05:34:29Z</time>
      </trkpt>
      <trkpt lat="44.1634" lon="4.33423">
        <ele>318</ele>
        <time>2016-03-25T05:36:29Z</time>
      </trkpt>
      <trkpt lat="44.16342" lon="4.33413">
        <ele>318</ele>
        <time>2016-03-25T05:38:29Z</time>
      </trkpt>
      <trkpt lat="44.16344" lon="4.33403">
        <ele>318</ele>
        <time>2016-03-25T05:40:29Z</time>
      </trkpt>
      <trkpt lat="44.16346" lon="4.33392">
        <ele>317</ele>
        <time>2016-03-25T05:42:29Z</time>
      </trkpt>
      <trkpt lat="44.16349" lon="4.33382">
        <ele>317</ele>
        <time>2016-03-25T05:44:29Z</time>
      </trkpt>
      <trkpt lat="44.16352" lon="4.33371">
        <ele>317</ele>
        <time>2016-03-25T05:46:29Z</time>
      </trkpt>
      <trkpt lat="44.16354" lon="4.33361">
        <ele>316</ele>
        <time>2016-03-25T05:48:29Z</time>
      </trkpt>
      <trkpt lat="44.16357" lon="4.33351">
        <ele>316</ele>
        <time>2016-03-25T05:50:29Z</time>
      </trkpt>
      <trkpt lat="44.1636" lon="4.3334">
        <ele>316</ele>
        <time>2016-03-25T05:52:29Z</time>
      </trkpt>
      <trkpt lat="44.16363" lon="4.3333">
        <ele>316</ele>
        <time>2016-03-25T05:54:29Z</time>
      </trkpt>
      <trkpt lat="44.16367" lon="4.33319">
        <ele>316</ele>
        <time>2016-03-25T05:56:29Z</time>
      </trkpt>
      <trkpt lat="44.1637" lon="4.33309">
        <ele>316</ele>
        <time>2016-03-25T05:58:29Z</time>
      </trkpt>
      <trkpt lat="44.16374" lon="4.33298">
        <ele>316</ele>
        <time>2016-03-25T06:00:29Z</time>
      </trkpt>
      <trkpt lat="44.16378" lon="4.33288">
        <ele>316</ele>
        <time>2016-03-25T06:02:29Z</time>
      </trkpt>
      <trkpt lat="44.16383" lon="4.33278">
        <ele>316</ele>
        <time>2016-03-25T06:04:29Z</time>
      </trkpt>
      <trkpt lat="44.16388" lon="4.33269">
        <ele>316</ele>
        <time>2016-03-25T06:06:29Z</time>
      </trkpt>
      <trkpt lat="44.16393" lon="4.33259">
        <ele>316</ele>
        <time>2016-03-25T06:08:29Z</time>
      </trkpt>
      <trkpt lat="44.16399" lon="4.33249">
        <ele>316</ele>
        <time>2016-03-25T06:10:29Z</time>
      </trkpt>
      <trkpt lat="44.16405" lon="4.33241">
        <ele>316</ele>
        <time>2016-03-25T06:12:29Z</time>
      </trkpt>
      <trkpt lat="44.1641" lon="4.33232">
        <ele>317</ele>
        <time>2016-03-25T06:14:29Z</time>
      </trkpt>
      <trkpt lat="44.16418" lon="4.3322">
        <ele>317</ele>
        <time>2016-03-25T06:16:29Z</time>
      </trkpt>
      <trkpt lat="44.16422" lon="4.33214">
        <ele>317</ele>
        <time>2016-03-25T06:18:29Z</time>
      </trkpt>
      <trkpt lat="44.16434" lon="4.33197">
        <ele>318</ele>
        <time>2016-03-25T06:20:29Z</time>
      </trkpt>
      <trkpt lat="44.16446" lon="4.33179">
        <ele>318</ele>
        <time>2016-03-25T06:22:29Z</time>
      </trkpt>
      <trkpt lat="44.16452" lon="4.3317">
        <ele>319</ele>
        <time>2016-03-25T06:24:29Z</time>
      </trkpt>
      <trkpt lat="44.16463" lon="4.33153">
        <ele>319</ele>
        <time>2016-03-25T06:26:29Z</time>
      </trkpt>
      <trkpt lat="44.16475" lon="4.33136">
        <ele>319</ele>
        <time>2016-03-25T06:28:29Z</time>
      </trkpt>
      <trkpt lat="44.16487" lon="4.33118">
        <ele>319</ele>
        <time>2016-03-25T06:30:29Z</time>
      </trkpt>
      <trkpt lat="44.16498" lon="4.33101">
        <ele>320</ele>
        <time>2016-03-25T06:32:29Z</time>
      </trkpt>
      <trkpt lat="44.1651" lon="4.33083">
        <ele>321</ele>
        <time>2016-03-25T06:34:29Z</time>
      </trkpt>
      <trkpt lat="44.16516" lon="4.33075">
        <ele>321</ele>
        <time>2016-03-25T06:36:29Z</time>
      </trkpt>
      <trkpt lat="44.16522" lon="4.33066">
        <ele>321</ele>
        <time>2016-03-25T06:38:29Z</time>
      </trkpt>
      <trkpt lat="44.16528" lon="4.33057">
        <ele>321</ele>
        <time>2016-03-25T06:40:29Z</time>
      </trkpt>
      <trkpt lat="44.16556" lon="4.33014">
        <ele>323</ele>
        <time>2016-03-25T06:42:29Z</time>
      </trkpt>
      <trkpt lat="44.16562" lon="4.33006">
        <ele>324</ele>
        <time>2016-03-25T06:44:29Z</time>
      </trkpt>
      <trkpt lat="44.16567" lon="4.32997">
        <ele>324</ele>
        <time>2016-03-25T06:46:29Z</time>
      </trkpt>
      <trkpt lat="44.16579" lon="4.3298">
        <ele>325</ele>
        <time>2016-03-25T06:48:29Z</time>
      </trkpt>
      <trkpt lat="44.16601" lon="4.32947">
        <ele>325</ele>
        <time>2016-03-25T06:50:29Z</time>
      </trkpt>
      <trkpt lat="44.1665" lon="4.32875">
        <ele>327</ele>
        <time>2016-03-25T06:52:29Z</time>
      </trkpt>
      <trkpt lat="44.1666" lon="4.32859">
        <ele>328</ele>
        <time>2016-03-25T06:54:29Z</time>
      </trkpt>
      <trkpt lat="44.16675" lon="4.32836">
        <ele>329</ele>
        <time>2016-03-25T06:56:29Z</time>
      </trkpt>
      <trkpt lat="44.16688" lon="4.32812">
        <ele>329</ele>
        <time>2016-03-25T06:58:29Z</time>
      </trkpt>
      <trkpt lat="44.16698" lon="4.3279">
        <ele>330</ele>
        <time>2016-03-25T07:00:29Z</time>
      </trkpt>
      <trkpt lat="44.16709" lon="4.32766">
        <ele>331</ele>
        <time>2016-03-25T07:02:29Z</time>
      </trkpt>
      <trkpt lat="44.16738" lon="4.32695">
        <ele>334</ele>
        <time>2016-03-25T07:04:29Z</time>
      </trkpt>
      <trkpt lat="44.16758" lon="4.32642">
        <ele>337</ele>
        <time>2016-03-25T07:06:29Z</time>
      </trkpt>
      <trkpt lat="44.16769" lon="4.32605">
        <ele>336</ele>
        <time>2016-03-25T07:08:29Z</time>
      </trkpt>
      <trkpt lat="44.16784" lon="4.3255">
        <ele>337</ele>
        <time>2016-03-25T07:10:29Z</time>
      </trkpt>
      <trkpt lat="44.16805" lon="4.32466">
        <ele>340</ele>
        <time>2016-03-25T07:12:29Z</time>
      </trkpt>
      <trkpt lat="44.1681" lon="4.32449">
        <ele>341</ele>
        <time>2016-03-25T07:14:29Z</time>
      </trkpt>
      <trkpt lat="44.16844" lon="4.32316">
        <ele>344</ele>
        <time>2016-03-25T07:16:29Z</time>
      </trkpt>
      <trkpt lat="44.16869" lon="4.32215">
        <ele>345</ele>
        <time>2016-03-25T07:18:29Z</time>
      </trkpt>
      <trkpt lat="44.16881" lon="4.32167">
        <ele>345</ele>
        <time>2016-03-25T07:20:29Z</time>
      </trkpt>
      <trkpt lat="44.16883" lon="4.32159">
        <ele>345</ele>
        <time>2016-03-25T07:22:29Z</time>
      </trkpt>
      <trkpt lat="44.16889" lon="4.32138">
        <ele>344</ele>
        <time>2016-03-25T07:24:29Z</time>
      </trkpt>
      <trkpt lat="44.16907" lon="4.32077">
        <ele>343</ele>
        <time>2016-03-25T07:26:29Z</time>
      </trkpt>
      <trkpt lat="44.16921" lon="4.32033">
        <ele>341</ele>
        <time>2016-03-25T07:28:29Z</time>
      </trkpt>
      <trkpt lat="44.16925" lon="4.3202">
        <ele>341</ele>
        <time>2016-03-25T07:30:29Z</time>
      </trkpt>
      <trkpt lat="44.16926" lon="4.32016">
        <ele>341</ele>
        <time>2016-03-25T07:32:29Z</time>
      </trkpt>
      <trkpt lat="44.1694" lon="4.31969">
        <ele>340</ele>
        <time>2016-03-25T07:34:29Z</time>
      </trkpt>
      <trkpt lat="44.16944" lon="4.31959">
        <ele>340</ele>
        <time>2016-03-25T07:36:29Z</time>
      </trkpt>
      <trkpt lat="44.16955" lon="4.31925">
        <ele>339</ele>
        <time>2016-03-25T07:38:29Z</time>
      </trkpt>
      <trkpt lat="44.16959" lon="4.31913">
        <ele>340</ele>
        <time>2016-03-25T07:40:29Z</time>
      </trkpt>
      <trkpt lat="44.16962" lon="4.31903">
        <ele>340</ele>
        <time>2016-03-25T07:42:29Z</time>
      </trkpt>
      <trkpt lat="44.16975" lon="4.31871">
        <ele>340</ele>
        <time>2016-03-25T07:44:29Z</time>
      </trkpt>
      <trkpt lat="44.16985" lon="4.31846">
        <ele>341</ele>
        <time>2016-03-25T07:46:29Z</time>
      </trkpt>
      <trkpt lat="44.16994" lon="4.31826">
        <ele>341</ele>
        <time>2016-03-25T07:48:29Z</time>
      </trkpt>
      <trkpt lat="44.17015" lon="4.31777">
        <ele>342</ele>
        <time>2016-03-25T07:50:29Z</time>
      </trkpt>
      <trkpt lat="44.17029" lon="4.3174">
        <ele>342</ele>
        <time>2016-03-25T07:52:29Z</time>
      </trkpt>
      <trkpt lat="44.1704" lon="4.31708">
        <ele>342</ele>
        <time>2016-03-25T07:54:29Z</time>
      </trkpt>
      <trkpt lat="44.17055" lon="4.31663">
        <ele>341</ele>
        <time>2016-03-25T07:56:29Z</time>
      </trkpt>
      <trkpt lat="44.17058" lon="4.31653">
        <ele>341</ele>
        <time>2016-03-25T07:58:29Z</time>
      </trkpt>
      <trkpt lat="44.1709" lon="4.31556">
        <ele>341</ele>
        <time>2016-03-25T08:00:29Z</time>
      </trkpt>
      <trkpt lat="44.17114" lon="4.31482">
        <ele>340</ele>
        <time>2016-03-25T08:02:29Z</time>
      </trkpt>
      <trkpt lat="44.1713" lon="4.31427">
        <ele>339</ele>
        <time>2016-03-25T08:04:29Z</time>
      </trkpt>
      <trkpt lat="44.17151" lon="4.31366">
        <ele>336</ele>
        <time>2016-03-25T08:06:29Z</time>
      </trkpt>
      <trkpt lat="44.17181" lon="4.31276">
        <ele>333</ele>
        <time>2016-03-25T08:08:29Z</time>
      </trkpt>
      <trkpt lat="44.17202" lon="4.31211">
        <ele>331</ele>
        <time>2016-03-25T08:10:29Z</time>
      </trkpt>
      <trkpt lat="44.17217" lon="4.31167">
        <ele>330</ele>
        <time>2016-03-25T08:12:29Z</time>
      </trkpt>
      <trkpt lat="44.17224" lon="4.31146">
        <ele>330</ele>
        <time>2016-03-25T08:14:29Z</time>
      </trkpt>
      <trkpt lat="44.1725" lon="4.31063">
        <ele>331</ele>
        <time>2016-03-25T08:16:29Z</time>
      </trkpt>
      <trkpt lat="44.17273" lon="4.30995">
        <ele>333</ele>
        <time>2016-03-25T08:18:29Z</time>
      </trkpt>
      <trkpt lat="44.17301" lon="4.30914">
        <ele>335</ele>
        <time>2016-03-25T08:20:29Z</time>
      </trkpt>
      <trkpt lat="44.17323" lon="4.30847">
        <ele>335</ele>
        <time>2016-03-25T08:22:29Z</time>
      </trkpt>
      <trkpt lat="44.1733" lon="4.30825">
        <ele>335</ele>
        <time>2016-03-25T08:24:29Z</time>
      </trkpt>
      <trkpt lat="44.17359" lon="4.30725">
        <ele>333</ele>
        <time>2016-03-25T08:26:29Z</time>
      </trkpt>
      <trkpt lat="44.17382" lon="4.30644">
        <ele>331</ele>
        <time>2016-03-25T08:28:29Z</time>
      </trkpt>
      <trkpt lat="44.17415" lon="4.30531">
        <ele>329</ele>
        <time>2016-03-25T08:30:29Z</time>
      </trkpt>
      <trkpt lat="44.17441" lon="4.30451">
        <ele>328</ele>
        <time>2016-03-25T08:32:29Z</time>
      </trkpt>
      <trkpt lat="44.17475" lon="4.30349">
        <ele>327</ele>
        <time>2016-03-25T08:34:29Z</time>
      </trkpt>
      <trkpt lat="44.17476" lon="4.30347">
        <ele>327</ele>
        <time>2016-03-25T08:36:29Z</time>
      </trkpt>
      <trkpt lat="44.17498" lon="4.30279">
        <ele>328</ele>
        <time>2016-03-25T08:38:29Z</time>
      </trkpt>
      <trkpt lat="44.17516" lon="4.30226">
        <ele>329</ele>
        <time>2016-03-25T08:40:29Z</time>
      </trkpt>
      <trkpt lat="44.17532" lon="4.30174">
        <ele>329</ele>
        <time>2016-03-25T08:42:29Z</time>
      </trkpt>
      <trkpt lat="44.17547" lon="4.30128">
        <ele>331</ele>
        <time>2016-03-25T08:44:29Z</time>
      </trkpt>
      <trkpt lat="44.17561" lon="4.30087">
        <ele>334</ele>
        <time>2016-03-25T08:46:29Z</time>
      </trkpt>
      <trkpt lat="44.17565" lon="4.30074">
        <ele>334</ele>
        <time>2016-03-25T08:48:29Z</time>
      </trkpt>
      <trkpt lat="44.17585" lon="4.30012">
        <ele>336</ele>
        <time>2016-03-25T08:50:29Z</time>
      </trkpt>
      <trkpt lat="44.17604" lon="4.29956">
        <ele>335</ele>
        <time>2016-03-25T08:52:29Z</time>
      </trkpt>
      <trkpt lat="44.17607" lon="4.29948">
        <ele>335</ele>
        <time>2016-03-25T08:54:29Z</time>
      </trkpt>
      <trkpt lat="44.17622" lon="4.29899">
        <ele>334</ele>
        <time>2016-03-25T08:56:29Z</time>
      </trkpt>
      <trkpt lat="44.17632" lon="4.29876">
        <ele>333</ele>
        <time>2016-03-25T08:58:29Z</time>
      </trkpt>
      <trkpt lat="44.17644" lon="4.29851">
        <ele>333</ele>
        <time>2016-03-25T09:00:29Z</time>
      </trkpt>
      <trkpt lat="44.17652" lon="4.29837">
        <ele>333</ele>
        <time>2016-03-25T09:02:29Z</time>
      </trkpt>
      <trkpt lat="44.1766" lon="4.29825">
        <ele>333</ele>
        <time>2016-03-25T09:04:29Z</time>
      </trkpt>
      <trkpt lat="44.17665" lon="4.29819">
        <ele>334</ele>
        <time>2016-03-25T09:06:29Z</time>
      </trkpt>
      <trkpt lat="44.17672" lon="4.29811">
        <ele>334</ele>
        <time>2016-03-25T09:08:29Z</time>
      </trkpt>
      <trkpt lat="44.1768" lon="4.29804">
        <ele>334</ele>
        <time>2016-03-25T09:10:29Z</time>
      </trkpt>
      <trkpt lat="44.17691" lon="4.29796">
        <ele>333</ele>
        <time>2016-03-25T09:12:29Z</time>
      </trkpt>
      <trkpt lat="44.177" lon="4.2979">
        <ele>333</ele>
        <time>2016-03-25T09:14:29Z</time>
      </trkpt>
      <trkpt lat="44.17723" lon="4.29777">
        <ele>333</ele>
        <time>2016-03-25T09:16:29Z</time>
      </trkpt>
      <trkpt lat="44.1774" lon="4.29767">
        <ele>333</ele>
        <time>2016-03-25T09:18:29Z</time>
      </trkpt>
      <trkpt lat="44.17768" lon="4.29751">
        <ele>332</ele>
        <time>2016-03-25T09:20:29Z</time>
      </trkpt>
      <trkpt lat="44.17786" lon="4.2974">
        <ele>331</ele>
        <time>2016-03-25T09:22:29Z</time>
      </trkpt>
      <trkpt lat="44.17804" lon="4.29729">
        <ele>330</ele>
        <time>2016-03-25T09:24:29Z</time>
      </trkpt>
      <trkpt lat="44.17832" lon="4.29714">
        <ele>328</ele>
        <time>2016-03-25T09:26:29Z</time>
      </trkpt>
      <trkpt lat="44.17885" lon="4.29682">
        <ele>326</ele>
        <time>2016-03-25T09:28:29Z</time>
      </trkpt>
      <trkpt lat="44.17906" lon="4.2967">
        <ele>325</ele>
        <time>2016-03-25T09:30:29Z</time>
      </trkpt>
      <trkpt lat="44.17931" lon="4.29656">
        <ele>323</ele>
        <time>2016-03-25T09:32:29Z</time>
      </trkpt>
      <trkpt lat="44.17958" lon="4.29639">
        <ele>320</ele>
        <time>2016-03-25T09:34:29Z</time>
      </trkpt>
      <trkpt lat="44.17987" lon="4.29617">
        <ele>318</ele>
        <time>2016-03-25T09:36:29Z</time>
      </trkpt>
      <trkpt lat="44.18014" lon="4.2959">
        <ele>317</ele>
        <time>2016-03-25T09:38:29Z</time>
      </trkpt>
      <trkpt lat="44.1806" lon="4.29544">
        <ele>319</ele>
        <time>2016-03-25T09:40:29Z</time>
      </trkpt>
      <trkpt lat="44.18087" lon="4.29515">
        <ele>321</ele>
        <time>2016-03-25T09:42:29Z</time>
      </trkpt>
      <trkpt lat="44.18126" lon="4.29478">
        <ele>321</ele>
        <time>2016-03-25T09:44:29Z</time>
      </trkpt>
      <trkpt lat="44.18163" lon="4.2944">
        <ele>323</ele>
        <time>2016-03-25T09:46:29Z</time>
      </trkpt>
      <trkpt lat="44.18208" lon="4.29393">
        <ele>321</ele>
        <time>2016-03-25T09:48:29Z</time>
      </trkpt>
      <trkpt lat="44.18245" lon="4.29359">
        <ele>317</ele>
        <time>2016-03-25T09:50:29Z</time>
      </trkpt>
      <trkpt lat="44.18281" lon="4.2932">
        <ele>316</ele>
        <time>2016-03-25T09:52:29Z</time>
      </trkpt>
      <trkpt lat="44.18311" lon="4.29289">
        <ele>316</ele>
        <time>2016-03-25T09:54:29Z</time>
      </trkpt>
      <trkpt lat="44.18329" lon="4.29271">
        <ele>316</ele>
        <time>2016-03-25T09:56:29Z</time>
      </trkpt>
      <trkpt lat="44.18349" lon="4.29248">
        <ele>315</ele>
        <time>2016-03-25T09:58:29Z</time>
      </trkpt>
      <trkpt lat="44.18375" lon="4.29224">
        <ele>314</ele>
        <time>2016-03-25T10:00:29Z</time>
      </trkpt>
      <trkpt lat="44.18398" lon="4.29202">
        <ele>314</ele>
        <time>2016-03-25T10:02:29Z</time>
      </trkpt>
      <trkpt lat="44.18418" lon="4.29182">
        <ele>314</ele>
        <time>2016-03-25T10:04:29Z</time>
      </trkpt>
      <trkpt lat="44.18435" lon="4.29164">
        <ele>314</ele>
        <time>2016-03-25T10:06:29Z</time>
      </trkpt>
      <trkpt lat="44.18443" lon="4.29155">
        <ele>313</ele>
        <time>2016-03-25T10:08:29Z</time>
      </trkpt>
      <trkpt lat="44.18451" lon="4.29145">
        <ele>313</ele>
        <time>2016-03-25T10:10:29Z</time>
      </trkpt>
      <trkpt lat="44.18458" lon="4.29135">
        <ele>313</ele>
        <time>2016-03-25T10:12:29Z</time>
      </trkpt>
      <trkpt lat="44.18464" lon="4.29125">
        <ele>313</ele>
        <time>2016-03-25T10:14:29Z</time>
      </trkpt>
      <trkpt lat="44.1847" lon="4.29115">
        <ele>313</ele>
        <time>2016-03-25T10:16:29Z</time>
      </trkpt>
      <trkpt lat="44.18479" lon="4.29098">
        <ele>313</ele>
        <time>2016-03-25T10:18:29Z</time>
      </trkpt>
      <trkpt lat="44.18504" lon="4.29044">
        <ele>313</ele>
        <time>2016-03-25T10:20:29Z</time>
      </trkpt>
      <trkpt lat="44.18525" lon="4.28998">
        <ele>313</ele>
        <time>2016-03-25T10:22:29Z</time>
      </trkpt>
      <trkpt lat="44.18546" lon="4.28952">
        <ele>311</ele>
        <time>2016-03-25T10:24:29Z</time>
      </trkpt>
      <trkpt lat="44.18559" lon="4.28923">
        <ele>310</ele>
        <time>2016-03-25T10:26:29Z</time>
      </trkpt>
      <trkpt lat="44.1857" lon="4.28899">
        <ele>310</ele>
        <time>2016-03-25T10:28:29Z</time>
      </trkpt>
      <trkpt lat="44.18578" lon="4.28879">
        <ele>310</ele>
        <time>2016-03-25T10:30:29Z</time>
      </trkpt>
      <trkpt lat="44.1858" lon="4.28868">
        <ele>309</ele>
        <time>2016-03-25T10:32:29Z</time>
      </trkpt>
      <trkpt lat="44.18583" lon="4.28855">
        <ele>309</ele>
        <time>2016-03-25T10:34:29Z</time>
      </trkpt>
      <trkpt lat="44.18585" lon="4.28842">
        <ele>308</ele>
        <time>2016-03-25T10:36:29Z</time>
      </trkpt>
      <trkpt lat="44.18587" lon="4.28828">
        <ele>308</ele>
        <time>2016-03-25T10:38:29Z</time>
      </trkpt>
      <trkpt lat="44.18588" lon="4.28811">
        <ele>307</ele>
        <time>2016-03-25T10:40:29Z</time>
      </trkpt>
      <trkpt lat="44.18588" lon="4.28799">
        <ele>307</ele>
        <time>2016-03-25T10:42:29Z</time>
      </trkpt>
      <trkpt lat="44.18588" lon="4.2879">
        <ele>307</ele>
        <time>2016-03-25T10:44:29Z</time>
      </trkpt>
      <trkpt lat="44.18588" lon="4.28783">
        <ele>307</ele>
        <time>2016-03-25T10:46:29Z</time>
      </trkpt>
      <trkpt lat="44.18588" lon="4.28753">
        <ele>306</ele>
        <time>2016-03-25T10:48:29Z</time>
      </trkpt>
      <trkpt lat="44.18587" lon="4.28735">
        <ele>306</ele>
        <time>2016-03-25T10:50:29Z</time>
      </trkpt>
      <trkpt lat="44.18586" lon="4.28721">
        <ele>306</ele>
        <time>2016-03-25T10:52:29Z</time>
      </trkpt>
      <trkpt lat="44.18586" lon="4.28719">
        <ele>306</ele>
        <time>2016-03-25T10:54:29Z</time>
      </trkpt>
      <trkpt lat="44.18582" lon="4.28704">
        <ele>306</ele>
        <time>2016-03-25T10:56:29Z</time>
      </trkpt>
      <trkpt lat="44.18579" lon="4.28695">
        <ele>305</ele>
        <time>2016-03-25T10:58:29Z</time>
      </trkpt>
      <trkpt lat="44.18571" lon="4.28677">
        <ele>304</ele>
        <time>2016-03-25T11:00:29Z</time>
      </trkpt>
      <trkpt lat="44.18558" lon="4.28652">
        <ele>301</ele>
        <time>2016-03-25T11:02:29Z</time>
      </trkpt>
      <trkpt lat="44.18555" lon="4.28643">
        <ele>301</ele>
        <time>2016-03-25T11:04:29Z</time>
      </trkpt>
      <trkpt lat="44.18553" lon="4.28634">
        <ele>301</ele>
        <time>2016-03-25T11:06:29Z</time>
      </trkpt>
      <trkpt lat="44.18552" lon="4.28625">
        <ele>301</ele>
        <time>2016-03-25T11:08:29Z</time>
      </trkpt>
      <trkpt lat="44.18552" lon="4.28616">
        <ele>301</ele>
        <time>2016-03-25T11:10:29Z</time>
      </trkpt>
      <trkpt lat="44.18552" lon="4.28608">
        <ele>301</ele>
        <time>2016-03-25T11:12:29Z</time>
      </trkpt>
      <trkpt lat="44.18554" lon="4.286">
        <ele>301</ele>
        <time>2016-03-25T11:14:29Z</time>
      </trkpt>
      <trkpt lat="44.18556" lon="4.28592">
        <ele>302</ele>
        <time>2016-03-25T11:16:29Z</time>
      </trkpt>
      <trkpt lat="44.1856" lon="4.28584">
        <ele>303</ele>
        <time>2016-03-25T11:18:29Z</time>
      </trkpt>
      <trkpt lat="44.18564" lon="4.28577">
        <ele>303</ele>
        <time>2016-03-25T11:20:29Z</time>
      </trkpt>
      <trkpt lat="44.18569" lon="4.2857">
        <ele>303</ele>
        <time>2016-03-25T11:22:29Z</time>
      </trkpt>
      <trkpt lat="44.18587" lon="4.28549">
        <ele>304</ele>
        <time>2016-03-25T11:24:29Z</time>
      </trkpt>
      <trkpt lat="44.18613" lon="4.28517">
        <ele>302</ele>
        <time>2016-03-25T11:26:29Z</time>
      </trkpt>
      <trkpt lat="44.18638" lon="4.28486">
        <ele>301</ele>
        <time>2016-03-25T11:28:29Z</time>
      </trkpt>
      <trkpt lat="44.1865" lon="4.2847">
        <ele>302</ele>
        <time>2016-03-25T11:30:29Z</time>
      </trkpt>
      <trkpt lat="44.18655" lon="4.28464">
        <ele>302</ele>
        <time>2016-03-25T11:32:29Z</time>
      </trkpt>
      <trkpt lat="44.18666" lon="4.28453">
        <ele>303</ele>
        <time>2016-03-25T11:34:29Z</time>
      </trkpt>
      <trkpt lat="44.18675" lon="4.28443">
        <ele>303</ele>
        <time>2016-03-25T11:36:29Z</time>
      </trkpt>
      <trkpt lat="44.18691" lon="4.28432">
        <ele>303</ele>
        <time>2016-03-25T11:38:29Z</time>
      </trkpt>
      <trkpt lat="44.18712" lon="4.28422">
        <ele>302</ele>
        <time>2016-03-25T11:40:29Z</time>
      </trkpt>
      <trkpt lat="44.18737" lon="4.28408">
        <ele>303</ele>
        <time>2016-03-25T11:42:29Z</time>
      </trkpt>
      <trkpt lat="44.18753" lon="4.284">
        <ele>303</ele>
        <time>2016-03-25T11:44:29Z</time>
      </trkpt>
      <trkpt lat="44.18771" lon="4.28396">
        <ele>302</ele>
        <time>2016-03-25T11:46:29Z</time>
      </trkpt>
      <trkpt lat="44.18799" lon="4.28394">
        <ele>302</ele>
        <time>2016-03-25T11:48:29Z</time>
      </trkpt>
      <trkpt lat="44.18827" lon="4.28392">
        <ele>301</ele>
        <time>2016-03-25T11:50:29Z</time>
      </trkpt>
      <trkpt lat="44.18845" lon="4.28391">
        <ele>300</ele>
        <time>2016-03-25T11:52:29Z</time>
      </trkpt>
      <trkpt lat="44.18863" lon="4.28389">
        <ele>299</ele>
        <time>2016-03-25T11:54:29Z</time>
      </trkpt>
      <trkpt lat="44.18873" lon="4.28387">
        <ele>298</ele>
        <time>2016-03-25T11:56:29Z</time>
      </trkpt>
      <trkpt lat="44.18882" lon="4.28383">
        <ele>298</ele>
        <time>2016-03-25T11:58:29Z</time>
      </trkpt>
      <trkpt lat="44.189" lon="4.28375">
        <ele>298</ele>
        <time>2016-03-25T12:00:29Z</time>
      </trkpt>
      <trkpt lat="44.18927" lon="4.28361">
        <ele>297</ele>
        <time>2016-03-25T12:02:29Z</time>
      </trkpt>
      <trkpt lat="44.18964" lon="4.28343">
        <ele>295</ele>
        <time>2016-03-25T12:04:29Z</time>
      </trkpt>
      <trkpt lat="44.18981" lon="4.28336">
        <ele>293</ele>
        <time>2016-03-25T12:06:29Z</time>
      </trkpt>
      <trkpt lat="44.18988" lon="4.28332">
        <ele>292</ele>
        <time>2016-03-25T12:08:29Z</time>
      </trkpt>
      <trkpt lat="44.18998" lon="4.28327">
        <ele>292</ele>
        <time>2016-03-25T12:10:29Z</time>
      </trkpt>
      <trkpt lat="44.19003" lon="4.28325">
        <ele>291</ele>
        <time>2016-03-25T12:12:29Z</time>
      </trkpt>
      <trkpt lat="44.19008" lon="4.28321">
        <ele>291</ele>
        <time>2016-03-25T12:14:29Z</time>
      </trkpt>
      <trkpt lat="44.19012" lon="4.28318">
        <ele>291</ele>
        <time>2016-03-25T12:16:29Z</time>
      </trkpt>
      <trkpt lat="44.19018" lon="4.28313">
        <ele>291</ele>
        <time>2016-03-25T12:18:29Z</time>
      </trkpt>
      <trkpt lat="44.19022" lon="4.28308">
        <ele>291</ele>
        <time>2016-03-25T12:20:29Z</time>
      </trkpt>
      <trkpt lat="44.19026" lon="4.28301">
        <ele>291</ele>
        <time>2016-03-25T12:22:29Z</time>
      </trkpt>
      <trkpt lat="44.19032" lon="4.28293">
        <ele>291</ele>
        <time>2016-03-25T12:24:29Z</time>
      </trkpt>
      <trkpt lat="44.19038" lon="4.28284">
        <ele>291</ele>
        <time>2016-03-25T12:26:29Z</time>
      </trkpt>
      <trkpt lat="44.19042" lon="4.28279">
        <ele>291</ele>
        <time>2016-03-25T12:28:29Z</time>
      </trkpt>
      <trkpt lat="44.19047" lon="4.28273">
        <ele>291</ele>
        <time>2016-03-25T12:30:29Z</time>
      </trkpt>
      <trkpt lat="44.19052" lon="4.28268">
        <ele>291</ele>
        <time>2016-03-25T12:32:29Z</time>
      </trkpt>
      <trkpt lat="44.19057" lon="4.28264">
        <ele>290</ele>
        <time>2016-03-25T12:34:29Z</time>
      </trkpt>
      <trkpt lat="44.19062" lon="4.28262">
        <ele>290</ele>
        <time>2016-03-25T12:36:29Z</time>
      </trkpt>
      <trkpt lat="44.19066" lon="4.2826">
        <ele>290</ele>
        <time>2016-03-25T12:38:29Z</time>
      </trkpt>
      <trkpt lat="44.19072" lon="4.28258">
        <ele>290</ele>
        <time>2016-03-25T12:40:29Z</time>
      </trkpt>
      <trkpt lat="44.19076" lon="4.28258">
        <ele>289</ele>
        <time>2016-03-25T12:42:29Z</time>
      </trkpt>
      <trkpt lat="44.19081" lon="4.28258">
        <ele>289</ele>
        <time>2016-03-25T12:44:29Z</time>
      </trkpt>
      <trkpt lat="44.19087" lon="4.28258">
        <ele>289</ele>
        <time>2016-03-25T12:46:29Z</time>
      </trkpt>
      <trkpt lat="44.19092" lon="4.28259">
        <ele>288</ele>
        <time>2016-03-25T12:48:29Z</time>
      </trkpt>
      <trkpt lat="44.19099" lon="4.28262">
        <ele>287</ele>
        <time>2016-03-25T12:50:29Z</time>
      </trkpt>
      <trkpt lat="44.19115" lon="4.28269">
        <ele>286</ele>
        <time>2016-03-25T12:52:29Z</time>
      </trkpt>
      <trkpt lat="44.19131" lon="4.2828">
        <ele>284</ele>
        <time>2016-03-25T12:54:29Z</time>
      </trkpt>
      <trkpt lat="44.19156" lon="4.28298">
        <ele>282</ele>
        <time>2016-03-25T12:56:29Z</time>
      </trkpt>
      <trkpt lat="44.19189" lon="4.28321">
        <ele>279</ele>
        <time>2016-03-25T12:58:29Z</time>
      </trkpt>
      <trkpt lat="44.19203" lon="4.28331">
        <ele>279</ele>
        <time>2016-03-25T13:00:29Z</time>
      </trkpt>
      <trkpt lat="44.19212" lon="4.28337">
        <ele>279</ele>
        <time>2016-03-25T13:02:29Z</time>
      </trkpt>
      <trkpt lat="44.19214" lon="4.28338">
        <ele>278</ele>
        <time>2016-03-25T13:04:29Z</time>
      </trkpt>
      <trkpt lat="44.19232" lon="4.2835">
        <ele>278</ele>
        <time>2016-03-25T13:06:29Z</time>
      </trkpt>
      <trkpt lat="44.19246" lon="4.2836">
        <ele>279</ele>
        <time>2016-03-25T13:08:29Z</time>
      </trkpt>
      <trkpt lat="44.19252" lon="4.28366">
        <ele>279</ele>
        <time>2016-03-25T13:10:29Z</time>
      </trkpt>
      <trkpt lat="44.19264" lon="4.28379">
        <ele>279</ele>
        <time>2016-03-25T13:12:29Z</time>
      </trkpt>
      <trkpt lat="44.19285" lon="4.28407">
        <ele>281</ele>
        <time>2016-03-25T13:14:29Z</time>
      </trkpt>
      <trkpt lat="44.19293" lon="4.28414">
        <ele>281</ele>
        <time>2016-03-25T13:16:29Z</time>
      </trkpt>
      <trkpt lat="44.19298" lon="4.28418">
        <ele>281</ele>
        <time>2016-03-25T13:18:29Z</time>
      </trkpt>
      <trkpt lat="44.19302" lon="4.28421">
        <ele>281</ele>
        <time>2016-03-25T13:20:29Z</time>
      </trkpt>
      <trkpt lat="44.19307" lon="4.28423">
        <ele>281</ele>
        <time>2016-03-25T13:22:29Z</time>
      </trkpt>
      <trkpt lat="44.19312" lon="4.28426">
        <ele>281</ele>
        <time>2016-03-25T13:24:29Z</time>
      </trkpt>
      <trkpt lat="44.19322" lon="4.2843">
        <ele>281</ele>
        <time>2016-03-25T13:26:29Z</time>
      </trkpt>
      <trkpt lat="44.19342" lon="4.28438">
        <ele>283</ele>
        <time>2016-03-25T13:28:29Z</time>
      </trkpt>
      <trkpt lat="44.19349" lon="4.28441">
        <ele>284</ele>
        <time>2016-03-25T13:30:29Z</time>
      </trkpt>
      <trkpt lat="44.19362" lon="4.28446">
        <ele>286</ele>
        <time>2016-03-25T13:32:29Z</time>
      </trkpt>
      <trkpt lat="44.19368" lon="4.28447">
        <ele>287</ele>
        <time>2016-03-25T13:34:29Z</time>
      </trkpt>
      <trkpt lat="44.19374" lon="4.28447">
        <ele>288</ele>
        <time>2016-03-25T13:36:29Z</time>
      </trkpt>
      <trkpt lat="44.19379" lon="4.28445">
        <ele>289</ele>
        <time>2016-03-25T13:38:29Z</time>
      </trkpt>
      <trkpt lat="44.19385" lon="4.28441">
        <ele>289</ele>
        <time>2016-03-25T13:40:29Z</time>
      </trkpt>
      <trkpt lat="44.1939" lon="4.28436">
        <ele>289</ele>
        <time>2016-03-25T13:42:29Z</time>
      </trkpt>
      <trkpt lat="44.19393" lon="4.28429">
        <ele>289</ele>
        <time>2016-03-25T13:44:29Z</time>
      </trkpt>
      <trkpt lat="44.19397" lon="4.28422">
        <ele>289</ele>
        <time>2016-03-25T13:46:29Z</time>
      </trkpt>
      <trkpt lat="44.19399" lon="4.28413">
        <ele>289</ele>
        <time>2016-03-25T13:48:29Z</time>
      </trkpt>
      <trkpt lat="44.194" lon="4.28404">
        <ele>289</ele>
        <time>2016-03-25T13:50:29Z</time>
      </trkpt>
      <trkpt lat="44.19401" lon="4.28394">
        <ele>288</ele>
        <time>2016-03-25T13:52:29Z</time>
      </trkpt>
      <trkpt lat="44.19403" lon="4.28363">
        <ele>287</ele>
        <time>2016-03-25T13:54:29Z</time>
      </trkpt>
      <trkpt lat="44.19402" lon="4.28316">
        <ele>285</ele>
        <time>2016-03-25T13:56:29Z</time>
      </trkpt>
      <trkpt lat="44.19401" lon="4.28265">
        <ele>284</ele>
        <time>2016-03-25T13:58:29Z</time>
      </trkpt>
      <trkpt lat="44.194" lon="4.28227">
        <ele>282</ele>
        <time>2016-03-25T14:00:29Z</time>
      </trkpt>
      <trkpt lat="44.19396" lon="4.28125">
        <ele>279</ele>
        <time>2016-03-25T14:02:29Z</time>
      </trkpt>
      <trkpt lat="44.19394" lon="4.28083">
        <ele>277</ele>
        <time>2016-03-25T14:04:29Z</time>
      </trkpt>
      <trkpt lat="44.19393" lon="4.28061">
        <ele>276</ele>
        <time>2016-03-25T14:06:29Z</time>
      </trkpt>
      <trkpt lat="44.19394" lon="4.28048">
        <ele>276</ele>
        <time>2016-03-25T14:08:29Z</time>
      </trkpt>
      <trkpt lat="44.19396" lon="4.28028">
        <ele>277</ele>
        <time>2016-03-25T14:10:29Z</time>
      </trkpt>
      <trkpt lat="44.19399" lon="4.28005">
        <ele>277</ele>
        <time>2016-03-25T14:12:29Z</time>
      </trkpt>
      <trkpt lat="44.19401" lon="4.27995">
        <ele>278</ele>
        <time>2016-03-25T14:14:29Z</time>
      </trkpt>
      <trkpt lat="44.19406" lon="4.27951">
        <ele>278</ele>
        <time>2016-03-25T14:16:29Z</time>
      </trkpt>
      <trkpt lat="44.19408" lon="4.27911">
        <ele>277</ele>
        <time>2016-03-25T14:18:29Z</time>
      </trkpt>
      <trkpt lat="44.19412" lon="4.2783">
        <ele>274</ele>
        <time>2016-03-25T14:20:29Z</time>
      </trkpt>
      <trkpt lat="44.19414" lon="4.27794">
        <ele>273</ele>
        <time>2016-03-25T14:22:29Z</time>
      </trkpt>
      <trkpt lat="44.19415" lon="4.27775">
        <ele>272</ele>
        <time>2016-03-25T14:24:29Z</time>
      </trkpt>
      <trkpt lat="44.19416" lon="4.2776">
        <ele>271</ele>
        <time>2016-03-25T14:26:29Z</time>
      </trkpt>
      <trkpt lat="44.19416" lon="4.27744">
        <ele>271</ele>
        <time>2016-03-25T14:28:29Z</time>
      </trkpt>
      <trkpt lat="44.19416" lon="4.27729">
        <ele>271</ele>
        <time>2016-03-25T14:30:29Z</time>
      </trkpt>
      <trkpt lat="44.19415" lon="4.2771">
        <ele>270</ele>
        <time>2016-03-25T14:32:29Z</time>
      </trkpt>
      <trkpt lat="44.19412" lon="4.27671">
        <ele>269</ele>
        <time>2016-03-25T14:34:29Z</time>
      </trkpt>
      <trkpt lat="44.19401" lon="4.27574">
        <ele>265</ele>
        <time>2016-03-25T14:36:29Z</time>
      </trkpt>
      <trkpt lat="44.19397" lon="4.27533">
        <ele>261</ele>
        <time>2016-03-25T14:38:29Z</time>
      </trkpt>
      <trkpt lat="44.19394" lon="4.27505">
        <ele>258</ele>
        <time>2016-03-25T14:40:29Z</time>
      </trkpt>
      <trkpt lat="44.19393" lon="4.27478">
        <ele>256</ele>
        <time>2016-03-25T14:42:29Z</time>
      </trkpt>
      <trkpt lat="44.19393" lon="4.27465">
        <ele>255</ele>
        <time>2016-03-25T14:44:29Z</time>
      </trkpt>
      <trkpt lat="44.19393" lon="4.27451">
        <ele>255</ele>
        <time>2016-03-25T14:46:29Z</time>
      </trkpt>
      <trkpt lat="44.19398" lon="4.27403">
        <ele>254</ele>
        <time>2016-03-25T14:48:29Z</time>
      </trkpt>
      <trkpt lat="44.19403" lon="4.27361">
        <ele>252</ele>
        <time>2016-03-25T14:50:29Z</time>
      </trkpt>
      <trkpt lat="44.19407" lon="4.27339">
        <ele>251</ele>
        <time>2016-03-25T14:52:29Z</time>
      </trkpt>
      <trkpt lat="44.19415" lon="4.27302">
        <ele>250</ele>
        <time>2016-03-25T14:54:29Z</time>
      </trkpt>
      <trkpt lat="44.19423" lon="4.27274">
        <ele>250</ele>
        <time>2016-03-25T14:56:29Z</time>
      </trkpt>
      <trkpt lat="44.19433" lon="4.27227">
        <ele>247</ele>
        <time>2016-03-25T14:58:29Z</time>
      </trkpt>
      <trkpt lat="44.19438" lon="4.27211">
        <ele>246</ele>
        <time>2016-03-25T15:00:29Z</time>
      </trkpt>
      <trkpt lat="44.1944" lon="4.27204">
        <ele>246</ele>
        <time>2016-03-25T15:02:29Z</time>
      </trkpt>
      <trkpt lat="44.19442" lon="4.27198">
        <ele>245</ele>
        <time>2016-03-25T15:04:29Z</time>
      </trkpt>
      <trkpt lat="44.19445" lon="4.27193">
        <ele>245</ele>
        <time>2016-03-25T15:06:29Z</time>
      </trkpt>
      <trkpt lat="44.1945" lon="4.27187">
        <ele>245</ele>
        <time>2016-03-25T15:08:29Z</time>
      </trkpt>
      <trkpt lat="44.19453" lon="4.27182">
        <ele>245</ele>
        <time>2016-03-25T15:10:29Z</time>
      </trkpt>
      <trkpt lat="44.19458" lon="4.27178">
        <ele>246</ele>
        <time>2016-03-25T15:12:29Z</time>
      </trkpt>
      <trkpt lat="44.19464" lon="4.27173">
        <ele>246</ele>
        <time>2016-03-25T15:14:29Z</time>
      </trkpt>
      <trkpt lat="44.1947" lon="4.27169">
        <ele>247</ele>
        <time>2016-03-25T15:16:29Z</time>
      </trkpt>
      <trkpt lat="44.19476" lon="4.27165">
        <ele>247</ele>
        <time>2016-03-25T15:18:29Z</time>
      </trkpt>
      <trkpt lat="44.19483" lon="4.2716">
        <ele>248</ele>
        <time>2016-03-25T15:20:29Z</time>
      </trkpt>
      <trkpt lat="44.19488" lon="4.27156">
        <ele>248</ele>
        <time>2016-03-25T15:22:29Z</time>
      </trkpt>
      <trkpt lat="44.19496" lon="4.27146">
        <ele>247</ele>
        <time>2016-03-25T15:24:29Z</time>
      </trkpt>
      <trkpt lat="44.19505" lon="4.27133">
        <ele>247</ele>
        <time>2016-03-25T15:26:29Z</time>
      </trkpt>
      <trkpt lat="44.19512" lon="4.27123">
        <ele>246</ele>
        <time>2016-03-25T15:28:29Z</time>
      </trkpt>
      <trkpt lat="44.19525" lon="4.27103">
        <ele>246</ele>
        <time>2016-03-25T15:30:29Z</time>
      </trkpt>
      <trkpt lat="44.19532" lon="4.27092">
        <ele>246</ele>
        <time>2016-03-25T15:32:29Z</time>
      </trkpt>
      <trkpt lat="44.19536" lon="4.27083">
        <ele>246</ele>
        <time>2016-03-25T15:34:29Z</time>
      </trkpt>
      <trkpt lat="44.19545" lon="4.27062">
        <ele>247</ele>
        <time>2016-03-25T15:36:29Z</time>
      </trkpt>
      <trkpt lat="44.19549" lon="4.27052">
        <ele>247</ele>
        <time>2016-03-25T15:38:29Z</time>
      </trkpt>
      <trkpt lat="44.19552" lon="4.27041">
        <ele>247</ele>
        <time>2016-03-25T15:40:29Z</time>
      </trkpt>
      <trkpt lat="44.19554" lon="4.27031">
        <ele>247</ele>
        <time>2016-03-25T15:42:29Z</time>
      </trkpt>
      <trkpt lat="44.19556" lon="4.27017">
        <ele>246</ele>
        <time>2016-03-25T15:44:29Z</time>
      </trkpt>
      <trkpt lat="44.19557" lon="4.27009">
        <ele>246</ele>
        <time>2016-03-25T15:46:29Z</time>
      </trkpt>
      <trkpt lat="44.19557" lon="4.27">
        <ele>245</ele>
        <time>2016-03-25T15:48:29Z</time>
      </trkpt>
      <trkpt lat="44.19557" lon="4.26988">
        <ele>245</ele>
        <time>2016-03-25T15:50:29Z</time>
      </trkpt>
      <trkpt lat="44.19555" lon="4.26974">
        <ele>245</ele>
        <time>2016-03-25T15:52:29Z</time>
      </trkpt>
      <trkpt lat="44.19554" lon="4.26963">
        <ele>245</ele>
        <time>2016-03-25T15:54:29Z</time>
      </trkpt>
      <trkpt lat="44.19552" lon="4.26952">
        <ele>245</ele>
        <time>2016-03-25T15:56:29Z</time>
      </trkpt>
      <trkpt lat="44.1955" lon="4.26937">
        <ele>246</ele>
        <time>2016-03-25T15:58:29Z</time>
      </trkpt>
      <trkpt lat="44.19544" lon="4.2691">
        <ele>245</ele>
        <time>2016-03-25T16:00:29Z</time>
      </trkpt>
      <trkpt lat="44.19537" lon="4.26868">
        <ele>245</ele>
        <time>2016-03-25T16:02:29Z</time>
      </trkpt>
      <trkpt lat="44.19534" lon="4.2685">
        <ele>246</ele>
        <time>2016-03-25T16:04:29Z</time>
      </trkpt>
      <trkpt lat="44.19532" lon="4.26839">
        <ele>246</ele>
        <time>2016-03-25T16:06:29Z</time>
      </trkpt>
      <trkpt lat="44.19532" lon="4.26831">
        <ele>246</ele>
        <time>2016-03-25T16:08:29Z</time>
      </trkpt>
      <trkpt lat="44.19532" lon="4.26823">
        <ele>246</ele>
        <time>2016-03-25T16:10:29Z</time>
      </trkpt>
      <trkpt lat="44.19533" lon="4.26817">
        <ele>245</ele>
        <time>2016-03-25T16:12:29Z</time>
      </trkpt>
      <trkpt lat="44.19534" lon="4.2681">
        <ele>245</ele>
        <time>2016-03-25T16:14:29Z</time>
      </trkpt>
      <trkpt lat="44.19537" lon="4.26803">
        <ele>245</ele>
        <time>2016-03-25T16:16:29Z</time>
      </trkpt>
      <trkpt lat="44.19541" lon="4.26794">
        <ele>244</ele>
        <time>2016-03-25T16:18:29Z</time>
      </trkpt>
      <trkpt lat="44.19544" lon="4.26785">
        <ele>244</ele>
        <time>2016-03-25T16:20:29Z</time>
      </trkpt>
      <trkpt lat="44.19548" lon="4.26776">
        <ele>243</ele>
        <time>2016-03-25T16:22:29Z</time>
      </trkpt>
      <trkpt lat="44.19553" lon="4.26767">
        <ele>242</ele>
        <time>2016-03-25T16:24:29Z</time>
      </trkpt>
      <trkpt lat="44.19565" lon="4.26739">
        <ele>239</ele>
        <time>2016-03-25T16:26:29Z</time>
      </trkpt>
      <trkpt lat="44.19573" lon="4.26717">
        <ele>237</ele>
        <time>2016-03-25T16:28:29Z</time>
      </trkpt>
      <trkpt lat="44.19582" lon="4.26694">
        <ele>234</ele>
        <time>2016-03-25T16:30:29Z</time>
      </trkpt>
      <trkpt lat="44.19585" lon="4.26686">
        <ele>234</ele>
        <time>2016-03-25T16:32:29Z</time>
      </trkpt>
      <trkpt lat="44.19587" lon="4.26679">
        <ele>234</ele>
        <time>2016-03-25T16:34:29Z</time>
      </trkpt>
      <trkpt lat="44.19589" lon="4.26668">
        <ele>233</ele>
        <time>2016-03-25T16:36:29Z</time>
      </trkpt>
      <trkpt lat="44.1959" lon="4.2666">
        <ele>233</ele>
        <time>2016-03-25T16:38:29Z</time>
      </trkpt>
      <trkpt lat="44.19592" lon="4.26646">
        <ele>232</ele>
        <time>2016-03-25T16:40:29Z</time>
      </trkpt>
      <trkpt lat="44.19594" lon="4.26633">
        <ele>232</ele>
        <time>2016-03-25T16:42:29Z</time>
      </trkpt>
      <trkpt lat="44.19595" lon="4.2662">
        <ele>232</ele>
        <time>2016-03-25T16:44:29Z</time>
      </trkpt>
      <trkpt lat="44.19597" lon="4.26609">
        <ele>232</ele>
        <time>2016-03-25T16:46:29Z</time>
      </trkpt>
      <trkpt lat="44.19598" lon="4.26594">
        <ele>231</ele>
        <time>2016-03-25T16:48:29Z</time>
      </trkpt>
      <trkpt lat="44.196" lon="4.26581">
        <ele>231</ele>
        <time>2016-03-25T16:50:29Z</time>
      </trkpt>
      <trkpt lat="44.19603" lon="4.26558">
        <ele>230</ele>
        <time>2016-03-25T16:52:29Z</time>
      </trkpt>
      <trkpt lat="44.19608" lon="4.26516">
        <ele>228</ele>
        <time>2016-03-25T16:54:29Z</time>
      </trkpt>
      <trkpt lat="44.1961" lon="4.26492">
        <ele>226</ele>
        <time>2016-03-25T16:56:29Z</time>
      </trkpt>
      <trkpt lat="44.19611" lon="4.26482">
        <ele>225</ele>
        <time>2016-03-25T16:58:29Z</time>
      </trkpt>
      <trkpt lat="44.19611" lon="4.26481">
        <ele>225</ele>
        <time>2016-03-25T17:00:29Z</time>
      </trkpt>
      <trkpt lat="44.19613" lon="4.26472">
        <ele>225</ele>
        <time>2016-03-25T17:02:29Z</time>
      </trkpt>
      <trkpt lat="44.19617" lon="4.2645">
        <ele>224</ele>
        <time>2016-03-25T17:04:29Z</time>
      </trkpt>
      <trkpt lat="44.19621" lon="4.26431">
        <ele>223</ele>
        <time>2016-03-25T17:06:29Z</time>
      </trkpt>
      <trkpt lat="44.19625" lon="4.26414">
        <ele>223</ele>
        <time>2016-03-25T17:08:29Z</time>
      </trkpt>
      <trkpt lat="44.19629" lon="4.26398">
        <ele>223</ele>
        <time>2016-03-25T17:10:29Z</time>
      </trkpt>
      <trkpt lat="44.19632" lon="4.26387">
        <ele>223</ele>
        <time>2016-03-25T17:12:29Z</time>
      </trkpt>
      <trkpt lat="44.19634" lon="4.26374">
        <ele>222</ele>
        <time>2016-03-25T17:14:29Z</time>
      </trkpt>
      <trkpt lat="44.19636" lon="4.26367">
        <ele>222</ele>
        <time>2016-03-25T17:16:29Z</time>
      </trkpt>
      <trkpt lat="44.19638" lon="4.26358">
        <ele>222</ele>
        <time>2016-03-25T17:18:29Z</time>
      </trkpt>
      <trkpt lat="44.19641" lon="4.26347">
        <ele>222</ele>
        <time>2016-03-25T17:20:29Z</time>
      </trkpt>
      <trkpt lat="44.19645" lon="4.26335">
        <ele>221</ele>
        <time>2016-03-25T17:22:29Z</time>
      </trkpt>
      <trkpt lat="44.19648" lon="4.26325">
        <ele>222</ele>
        <time>2016-03-25T17:24:29Z</time>
      </trkpt>
      <trkpt lat="44.1965" lon="4.26318">
        <ele>222</ele>
        <time>2016-03-25T17:26:29Z</time>
      </trkpt>
      <trkpt lat="44.19654" lon="4.26308">
        <ele>222</ele>
        <time>2016-03-25T17:28:29Z</time>
      </trkpt>
      <trkpt lat="44.19658" lon="4.26302">
        <ele>223</ele>
        <time>2016-03-25T17:30:29Z</time>
      </trkpt>
      <trkpt lat="44.19663" lon="4.26296">
        <ele>223</ele>
        <time>2016-03-25T17:32:29Z</time>
      </trkpt>
      <trkpt lat="44.19667" lon="4.26292">
        <ele>224</ele>
        <time>2016-03-25T17:34:29Z</time>
      </trkpt>
      <trkpt lat="44.19672" lon="4.26286">
        <ele>224</ele>
        <time>2016-03-25T17:36:29Z</time>
      </trkpt>
      <trkpt lat="44.19676" lon="4.26283">
        <ele>223</ele>
        <time>2016-03-25T17:38:29Z</time>
      </trkpt>
      <trkpt lat="44.19681" lon="4.26281">
        <ele>223</ele>
        <time>2016-03-25T17:40:29Z</time>
      </trkpt>
      <trkpt lat="44.19685" lon="4.26279">
        <ele>223</ele>
        <time>2016-03-25T17:42:29Z</time>
      </trkpt>
      <trkpt lat="44.19689" lon="4.26279">
        <ele>223</ele>
        <time>2016-03-25T17:44:29Z</time>
      </trkpt>
      <trkpt lat="44.19694" lon="4.26278">
        <ele>223</ele>
        <time>2016-03-25T17:46:29Z</time>
      </trkpt>
      <trkpt lat="44.19704" lon="4.26279">
        <ele>223</ele>
        <time>2016-03-25T17:48:29Z</time>
      </trkpt>
      <trkpt lat="44.19723" lon="4.26283">
        <ele>223</ele>
        <time>2016-03-25T17:50:29Z</time>
      </trkpt>
      <trkpt lat="44.19736" lon="4.26286">
        <ele>223</ele>
        <time>2016-03-25T17:52:29Z</time>
      </trkpt>
      <trkpt lat="44.19746" lon="4.26288">
        <ele>223</ele>
        <time>2016-03-25T17:54:29Z</time>
      </trkpt>
      <trkpt lat="44.19768" lon="4.26294">
        <ele>222</ele>
        <time>2016-03-25T17:56:29Z</time>
      </trkpt>
      <trkpt lat="44.19792" lon="4.263">
        <ele>221</ele>
        <time>2016-03-25T17:58:29Z</time>
      </trkpt>
      <trkpt lat="44.19816" lon="4.26303">
        <ele>219</ele>
        <time>2016-03-25T18:00:29Z</time>
      </trkpt>
      <trkpt lat="44.19826" lon="4.26302">
        <ele>218</ele>
        <time>2016-03-25T18:02:29Z</time>
      </trkpt>
      <trkpt lat="44.19828" lon="4.26302">
        <ele>218</ele>
        <time>2016-03-25T18:04:29Z</time>
      </trkpt>
      <trkpt lat="44.19832" lon="4.263">
        <ele>218</ele>
        <time>2016-03-25T18:06:29Z</time>
      </trkpt>
      <trkpt lat="44.19834" lon="4.26299">
        <ele>218</ele>
        <time>2016-03-25T18:08:29Z</time>
      </trkpt>
      <trkpt lat="44.1984" lon="4.26296">
        <ele>218</ele>
        <time>2016-03-25T18:10:29Z</time>
      </trkpt>
      <trkpt lat="44.19843" lon="4.26294">
        <ele>218</ele>
        <time>2016-03-25T18:12:29Z</time>
      </trkpt>
      <trkpt lat="44.19846" lon="4.26293">
        <ele>218</ele>
        <time>2016-03-25T18:14:29Z</time>
      </trkpt>
      <trkpt lat="44.19851" lon="4.26289">
        <ele>218</ele>
        <time>2016-03-25T18:16:29Z</time>
      </trkpt>
      <trkpt lat="44.19853" lon="4.26287">
        <ele>217</ele>
        <time>2016-03-25T18:18:29Z</time>
      </trkpt>
      <trkpt lat="44.19858" lon="4.26281">
        <ele>217</ele>
        <time>2016-03-25T18:20:29Z</time>
      </trkpt>
      <trkpt lat="44.19863" lon="4.26274">
        <ele>217</ele>
        <time>2016-03-25T18:22:29Z</time>
      </trkpt>
      <trkpt lat="44.19867" lon="4.26269">
        <ele>217</ele>
        <time>2016-03-25T18:24:29Z</time>
      </trkpt>
      <trkpt lat="44.19869" lon="4.26266">
        <ele>217</ele>
        <time>2016-03-25T18:26:29Z</time>
      </trkpt>
      <trkpt lat="44.19871" lon="4.26262">
        <ele>216</ele>
        <time>2016-03-25T18:28:29Z</time>
      </trkpt>
      <trkpt lat="44.19873" lon="4.26256">
        <ele>216</ele>
        <time>2016-03-25T18:30:29Z</time>
      </trkpt>
      <trkpt lat="44.19877" lon="4.26246">
        <ele>215</ele>
        <time>2016-03-25T18:32:29Z</time>
      </trkpt>
      <trkpt lat="44.19887" lon="4.26228">
        <ele>214</ele>
        <time>2016-03-25T18:34:29Z</time>
      </trkpt>
      <trkpt lat="44.19901" lon="4.26203">
        <ele>212</ele>
        <time>2016-03-25T18:36:29Z</time>
      </trkpt>
      <trkpt lat="44.19907" lon="4.26196">
        <ele>211</ele>
        <time>2016-03-25T18:38:29Z</time>
      </trkpt>
      <trkpt lat="44.19922" lon="4.26182">
        <ele>209</ele>
        <time>2016-03-25T18:40:29Z</time>
      </trkpt>
      <trkpt lat="44.19936" lon="4.26169">
        <ele>208</ele>
        <time>2016-03-25T18:42:29Z</time>
      </trkpt>
      <trkpt lat="44.19956" lon="4.26153">
        <ele>208</ele>
        <time>2016-03-25T18:44:29Z</time>
      </trkpt>
      <trkpt lat="44.19966" lon="4.26146">
        <ele>208</ele>
        <time>2016-03-25T18:46:29Z</time>
      </trkpt>
      <trkpt lat="44.19972" lon="4.26144">
        <ele>207</ele>
        <time>2016-03-25T18:48:29Z</time>
      </trkpt>
      <trkpt lat="44.19986" lon="4.26139">
        <ele>207</ele>
        <time>2016-03-25T18:50:29Z</time>
      </trkpt>
      <trkpt lat="44.20002" lon="4.26136">
        <ele>207</ele>
        <time>2016-03-25T18:52:29Z</time>
      </trkpt>
      <trkpt lat="44.2001" lon="4.26134">
        <ele>206</ele>
        <time>2016-03-25T18:54:29Z</time>
      </trkpt>
      <trkpt lat="44.20019" lon="4.26133">
        <ele>206</ele>
        <time>2016-03-25T18:56:29Z</time>
      </trkpt>
      <trkpt lat="44.20029" lon="4.26132">
        <ele>205</ele>
        <time>2016-03-25T18:58:29Z</time>
      </trkpt>
      <trkpt lat="44.20034" lon="4.26131">
        <ele>205</ele>
        <time>2016-03-25T19:00:29Z</time>
      </trkpt>
      <trkpt lat="44.20035" lon="4.26131">
        <ele>205</ele>
        <time>2016-03-25T19:02:29Z</time>
      </trkpt>
      <trkpt lat="44.2004" lon="4.2613">
        <ele>204</ele>
        <time>2016-03-25T19:04:29Z</time>
      </trkpt>
      <trkpt lat="44.20048" lon="4.26129">
        <ele>204</ele>
        <time>2016-03-25T19:06:29Z</time>
      </trkpt>
      <trkpt lat="44.20054" lon="4.26128">
        <ele>203</ele>
        <time>2016-03-25T19:08:29Z</time>
      </trkpt>
      <trkpt lat="44.20061" lon="4.26126">
        <ele>202</ele>
        <time>2016-03-25T19:10:29Z</time>
      </trkpt>
      <trkpt lat="44.20068" lon="4.26124">
        <ele>202</ele>
        <time>2016-03-25T19:12:29Z</time>
      </trkpt>
      <trkpt lat="44.20079" lon="4.26122">
        <ele>201</ele>
        <time>2016-03-25T19:14:29Z</time>
      </trkpt>
      <trkpt lat="44.20086" lon="4.26122">
        <ele>200</ele>
        <time>2016-03-25T19:16:29Z</time>
      </trkpt>
      <trkpt lat="44.20092" lon="4.26121">
        <ele>200</ele>
        <time>2016-03-25T19:18:29Z</time>
      </trkpt>
      <trkpt lat="44.20099" lon="4.2612">
        <ele>200</ele>
        <time>2016-03-25T19:20:29Z</time>
      </trkpt>
      <trkpt lat="44.20106" lon="4.26119">
        <ele>200</ele>
        <time>2016-03-25T19:22:29Z</time>
      </trkpt>
      <trkpt lat="44.20111" lon="4.26118">
        <ele>199</ele>
        <time>2016-03-25T19:24:29Z</time>
      </trkpt>
      <trkpt lat="44.20117" lon="4.26116">
        <ele>199</ele>
        <time>2016-03-25T19:26:29Z</time>
      </trkpt>
      <trkpt lat="44.20118" lon="4.26115">
        <ele>199</ele>
        <time>2016-03-25T19:28:29Z</time>
      </trkpt>
      <trkpt lat="44.20123" lon="4.26112">
        <ele>198</ele>
        <time>2016-03-25T19:30:29Z</time>
      </trkpt>
      <trkpt lat="44.20135" lon="4.26105">
        <ele>197</ele>
        <time>2016-03-25T19:32:29Z</time>
      </trkpt>
      <trkpt lat="44.20143" lon="4.26098">
        <ele>196</ele>
        <time>2016-03-25T19:34:29Z</time>
      </trkpt>
      <trkpt lat="44.20148" lon="4.26094">
        <ele>195</ele>
        <time>2016-03-25T19:36:29Z</time>
      </trkpt>
      <trkpt lat="44.20153" lon="4.2609">
        <ele>195</ele>
        <time>2016-03-25T19:38:29Z</time>
      </trkpt>
      <trkpt lat="44.20162" lon="4.26084">
        <ele>194</ele>
        <time>2016-03-25T19:40:29Z</time>
      </trkpt>
      <trkpt lat="44.20168" lon="4.26082">
        <ele>194</ele>
        <time>2016-03-25T19:42:29Z</time>
      </trkpt>
      <trkpt lat="44.20175" lon="4.2608">
        <ele>193</ele>
        <time>2016-03-25T19:44:29Z</time>
      </trkpt>
      <trkpt lat="44.20179" lon="4.2608">
        <ele>192</ele>
        <time>2016-03-25T19:46:29Z</time>
      </trkpt>
      <trkpt lat="44.20181" lon="4.26081">
        <ele>192</ele>
        <time>2016-03-25T19:48:29Z</time>
      </trkpt>
      <trkpt lat="44.20185" lon="4.26081">
        <ele>192</ele>
        <time>2016-03-25T19:50:29Z</time>
      </trkpt>
      <trkpt lat="44.2019" lon="4.26083">
        <ele>191</ele>
        <time>2016-03-25T19:52:29Z</time>
      </trkpt>
      <trkpt lat="44.20196" lon="4.26087">
        <ele>191</ele>
        <time>2016-03-25T19:54:29Z</time>
      </trkpt>
      <trkpt lat="44.20201" lon="4.26091">
        <ele>191</ele>
        <time>2016-03-25T19:56:29Z</time>
      </trkpt>
      <trkpt lat="44.20204" lon="4.26096">
        <ele>191</ele>
        <time>2016-03-25T19:58:29Z</time>
      </trkpt>
      <trkpt lat="44.2021" lon="4.26106">
        <ele>191</ele>
        <time>2016-03-25T20:00:29Z</time>
      </trkpt>
      <trkpt lat="44.20215" lon="4.26122">
        <ele>192</ele>
        <time>2016-03-25T20:02:29Z</time>
      </trkpt>
      <trkpt lat="44.20217" lon="4.2613">
        <ele>193</ele>
        <time>2016-03-25T20:04:29Z</time>
      </trkpt>
      <trkpt lat="44.20222" lon="4.26151">
        <ele>194</ele>
        <time>2016-03-25T20:06:29Z</time>
      </trkpt>
      <trkpt lat="44.20224" lon="4.26161">
        <ele>194</ele>
        <time>2016-03-25T20:08:29Z</time>
      </trkpt>
      <trkpt lat="44.20227" lon="4.26173">
        <ele>194</ele>
        <time>2016-03-25T20:10:29Z</time>
      </trkpt>
      <trkpt lat="44.20229" lon="4.26183">
        <ele>193</ele>
        <time>2016-03-25T20:12:29Z</time>
      </trkpt>
      <trkpt lat="44.20234" lon="4.26203">
        <ele>192</ele>
        <time>2016-03-25T20:14:29Z</time>
      </trkpt>
      <trkpt lat="44.20239" lon="4.2622">
        <ele>191</ele>
        <time>2016-03-25T20:16:29Z</time>
      </trkpt>
      <trkpt lat="44.20242" lon="4.26231">
        <ele>190</ele>
        <time>2016-03-25T20:18:29Z</time>
      </trkpt>
      <trkpt lat="44.20244" lon="4.26239">
        <ele>189</ele>
        <time>2016-03-25T20:20:29Z</time>
      </trkpt>
      <trkpt lat="44.20248" lon="4.26251">
        <ele>188</ele>
        <time>2016-03-25T20:22:29Z</time>
      </trkpt>
      <trkpt lat="44.20252" lon="4.26258">
        <ele>189</ele>
        <time>2016-03-25T20:24:29Z</time>
      </trkpt>
      <trkpt lat="44.20255" lon="4.26264">
        <ele>189</ele>
        <time>2016-03-25T20:26:29Z</time>
      </trkpt>
      <trkpt lat="44.20257" lon="4.26268">
        <ele>189</ele>
        <time>2016-03-25T20:28:29Z</time>
      </trkpt>
      <trkpt lat="44.20263" lon="4.26274">
        <ele>189</ele>
        <time>2016-03-25T20:30:29Z</time>
      </trkpt>
      <trkpt lat="44.20268" lon="4.26278">
        <ele>189</ele>
        <time>2016-03-25T20:32:29Z</time>
      </trkpt>
      <trkpt lat="44.20272" lon="4.2628">
        <ele>189</ele>
        <time>2016-03-25T20:34:29Z</time>
      </trkpt>
      <trkpt lat="44.20276" lon="4.26282">
        <ele>189</ele>
        <time>2016-03-25T20:36:29Z</time>
      </trkpt>
      <trkpt lat="44.2028" lon="4.26283">
        <ele>189</ele>
        <time>2016-03-25T20:38:29Z</time>
      </trkpt>
      <trkpt lat="44.20285" lon="4.26284">
        <ele>188</ele>
        <time>2016-03-25T20:40:29Z</time>
      </trkpt>
      <trkpt lat="44.20295" lon="4.26282">
        <ele>188</ele>
        <time>2016-03-25T20:42:29Z</time>
      </trkpt>
      <trkpt lat="44.203" lon="4.2628">
        <ele>187</ele>
        <time>2016-03-25T20:44:29Z</time>
      </trkpt>
      <trkpt lat="44.20306" lon="4.26275">
        <ele>186</ele>
        <time>2016-03-25T20:46:29Z</time>
      </trkpt>
      <trkpt lat="44.2031" lon="4.2627">
        <ele>186</ele>
        <time>2016-03-25T20:48:29Z</time>
      </trkpt>
      <trkpt lat="44.20314" lon="4.26263">
        <ele>185</ele>
        <time>2016-03-25T20:50:29Z</time>
      </trkpt>
      <trkpt lat="44.20317" lon="4.26255">
        <ele>184</ele>
        <time>2016-03-25T20:52:29Z</time>
      </trkpt>
      <trkpt lat="44.20319" lon="4.26249">
        <ele>184</ele>
        <time>2016-03-25T20:54:29Z</time>
      </trkpt>
      <trkpt lat="44.2032" lon="4.26242">
        <ele>184</ele>
        <time>2016-03-25T20:56:29Z</time>
      </trkpt>
      <trkpt lat="44.2032" lon="4.26234">
        <ele>184</ele>
        <time>2016-03-25T20:58:29Z</time>
      </trkpt>
      <trkpt lat="44.2032" lon="4.26227">
        <ele>183</ele>
        <time>2016-03-25T21:00:29Z</time>
      </trkpt>
      <trkpt lat="44.20319" lon="4.26219">
        <ele>183</ele>
        <time>2016-03-25T21:02:29Z</time>
      </trkpt>
      <trkpt lat="44.20314" lon="4.26205">
        <ele>184</ele>
        <time>2016-03-25T21:04:29Z</time>
      </trkpt>
      <trkpt lat="44.2031" lon="4.26197">
        <ele>184</ele>
        <time>2016-03-25T21:06:29Z</time>
      </trkpt>
      <trkpt lat="44.20306" lon="4.26191">
        <ele>184</ele>
        <time>2016-03-25T21:08:29Z</time>
      </trkpt>
      <trkpt lat="44.20302" lon="4.26184">
        <ele>185</ele>
        <time>2016-03-25T21:10:29Z</time>
      </trkpt>
      <trkpt lat="44.20298" lon="4.26177">
        <ele>185</ele>
        <time>2016-03-25T21:12:29Z</time>
      </trkpt>
      <trkpt lat="44.20294" lon="4.26167">
        <ele>186</ele>
        <time>2016-03-25T21:14:29Z</time>
      </trkpt>
      <trkpt lat="44.20292" lon="4.26161">
        <ele>186</ele>
        <time>2016-03-25T21:16:29Z</time>
      </trkpt>
      <trkpt lat="44.20291" lon="4.26152">
        <ele>185</ele>
        <time>2016-03-25T21:18:29Z</time>
      </trkpt>
      <trkpt lat="44.2029" lon="4.26145">
        <ele>185</ele>
        <time>2016-03-25T21:20:29Z</time>
      </trkpt>
      <trkpt lat="44.2029" lon="4.26136">
        <ele>184</ele>
        <time>2016-03-25T21:22:29Z</time>
      </trkpt>
      <trkpt lat="44.2029" lon="4.26127">
        <ele>184</ele>
        <time>2016-03-25T21:24:29Z</time>
      </trkpt>
      <trkpt lat="44.20292" lon="4.26116">
        <ele>183</ele>
        <time>2016-03-25T21:26:29Z</time>
      </trkpt>
      <trkpt lat="44.20294" lon="4.26108">
        <ele>182</ele>
        <time>2016-03-25T21:28:29Z</time>
      </trkpt>
      <trkpt lat="44.20297" lon="4.261">
        <ele>181</ele>
        <time>2016-03-25T21:30:29Z</time>
      </trkpt>
      <trkpt lat="44.20302" lon="4.26091">
        <ele>180</ele>
        <time>2016-03-25T21:32:29Z</time>
      </trkpt>
      <trkpt lat="44.20309" lon="4.26082">
        <ele>179</ele>
        <time>2016-03-25T21:34:29Z</time>
      </trkpt>
      <trkpt lat="44.20315" lon="4.26077">
        <ele>178</ele>
        <time>2016-03-25T21:36:29Z</time>
      </trkpt>
      <trkpt lat="44.20321" lon="4.26072">
        <ele>178</ele>
        <time>2016-03-25T21:38:29Z</time>
      </trkpt>
      <trkpt lat="44.20322" lon="4.26071">
        <ele>177</ele>
        <time>2016-03-25T21:40:29Z</time>
      </trkpt>
      <trkpt lat="44.20326" lon="4.26067">
        <ele>177</ele>
        <time>2016-03-25T21:42:29Z</time>
      </trkpt>
      <trkpt lat="44.20334" lon="4.26058">
        <ele>176</ele>
        <time>2016-03-25T21:44:29Z</time>
      </trkpt>
      <trkpt lat="44.2034" lon="4.26053">
        <ele>176</ele>
        <time>2016-03-25T21:46:29Z</time>
      </trkpt>
      <trkpt lat="44.20345" lon="4.26047">
        <ele>177</ele>
        <time>2016-03-25T21:48:29Z</time>
      </trkpt>
      <trkpt lat="44.20349" lon="4.26042">
        <ele>177</ele>
        <time>2016-03-25T21:50:29Z</time>
      </trkpt>
      <trkpt lat="44.20352" lon="4.26037">
        <ele>177</ele>
        <time>2016-03-25T21:52:29Z</time>
      </trkpt>
      <trkpt lat="44.20356" lon="4.26031">
        <ele>177</ele>
        <time>2016-03-25T21:54:29Z</time>
      </trkpt>
      <trkpt lat="44.2036" lon="4.26021">
        <ele>177</ele>
        <time>2016-03-25T21:56:29Z</time>
      </trkpt>
      <trkpt lat="44.20362" lon="4.26015">
        <ele>177</ele>
        <time>2016-03-25T21:58:29Z</time>
      </trkpt>
      <trkpt lat="44.20366" lon="4.26002">
        <ele>177</ele>
        <time>2016-03-25T22:00:29Z</time>
      </trkpt>
      <trkpt lat="44.2037" lon="4.25982">
        <ele>177</ele>
        <time>2016-03-25T22:02:29Z</time>
      </trkpt>
      <trkpt lat="44.20375" lon="4.25943">
        <ele>174</ele>
        <time>2016-03-25T22:04:29Z</time>
      </trkpt>
      <trkpt lat="44.20378" lon="4.2592">
        <ele>173</ele>
        <time>2016-03-25T22:06:29Z</time>
      </trkpt>
      <trkpt lat="44.20386" lon="4.25851">
        <ele>170</ele>
        <time>2016-03-25T22:08:29Z</time>
      </trkpt>
      <trkpt lat="44.20394" lon="4.25785">
        <ele>167</ele>
        <time>2016-03-25T22:10:29Z</time>
      </trkpt>
      <trkpt lat="44.20401" lon="4.25722">
        <ele>163</ele>
        <time>2016-03-25T22:12:29Z</time>
      </trkpt>
      <trkpt lat="44.20404" lon="4.25685">
        <ele>162</ele>
        <time>2016-03-25T22:14:29Z</time>
      </trkpt>
      <trkpt lat="44.20404" lon="4.25666">
        <ele>161</ele>
        <time>2016-03-25T22:16:29Z</time>
      </trkpt>
      <trkpt lat="44.20401" lon="4.25643">
        <ele>160</ele>
        <time>2016-03-25T22:18:29Z</time>
      </trkpt>
      <trkpt lat="44.20394" lon="4.25613">
        <ele>159</ele>
        <time>2016-03-25T22:20:29Z</time>
      </trkpt>
      <trkpt lat="44.20388" lon="4.25593">
        <ele>158</ele>
        <time>2016-03-25T22:22:29Z</time>
      </trkpt>
      <trkpt lat="44.2038" lon="4.25577">
        <ele>157</ele>
        <time>2016-03-25T22:24:29Z</time>
      </trkpt>
      <trkpt lat="44.20366" lon="4.25548">
        <ele>157</ele>
        <time>2016-03-25T22:26:29Z</time>
      </trkpt>
      <trkpt lat="44.20357" lon="4.25526">
        <ele>156</ele>
        <time>2016-03-25T22:28:29Z</time>
      </trkpt>
      <trkpt lat="44.20351" lon="4.25508">
        <ele>156</ele>
        <time>2016-03-25T22:30:29Z</time>
      </trkpt>
      <trkpt lat="44.20348" lon="4.2549">
        <ele>156</ele>
        <time>2016-03-25T22:32:29Z</time>
      </trkpt>
      <trkpt lat="44.20346" lon="4.25467">
        <ele>155</ele>
        <time>2016-03-25T22:34:29Z</time>
      </trkpt>
      <trkpt lat="44.20346" lon="4.25447">
        <ele>154</ele>
        <time>2016-03-25T22:36:29Z</time>
      </trkpt>
      <trkpt lat="44.20349" lon="4.25425">
        <ele>154</ele>
        <time>2016-03-25T22:38:29Z</time>
      </trkpt>
      <trkpt lat="44.20353" lon="4.25408">
        <ele>153</ele>
        <time>2016-03-25T22:40:29Z</time>
      </trkpt>
      <trkpt lat="44.20361" lon="4.25384">
        <ele>152</ele>
        <time>2016-03-25T22:42:29Z</time>
      </trkpt>
      <trkpt lat="44.20383" lon="4.25336">
        <ele>149</ele>
        <time>2016-03-25T22:44:29Z</time>
      </trkpt>
      <trkpt lat="44.20409" lon="4.25282">
        <ele>143</ele>
        <time>2016-03-25T22:46:29Z</time>
      </trkpt>
      <trkpt lat="44.20422" lon="4.25256">
        <ele>141</ele>
        <time>2016-03-25T22:48:29Z</time>
      </trkpt>
      <trkpt lat="44.20431" lon="4.25241">
        <ele>140</ele>
        <time>2016-03-25T22:50:29Z</time>
      </trkpt>
      <trkpt lat="44.20436" lon="4.25235">
        <ele>140</ele>
        <time>2016-03-25T22:52:29Z</time>
      </trkpt>
      <trkpt lat="44.2044" lon="4.25229">
        <ele>140</ele>
        <time>2016-03-25T22:54:29Z</time>
      </trkpt>
      <trkpt lat="44.20457" lon="4.25208">
        <ele>138</ele>
        <time>2016-03-25T22:56:29Z</time>
      </trkpt>
      <trkpt lat="44.20472" lon="4.25186">
        <ele>136</ele>
        <time>2016-03-25T22:58:29Z</time>
      </trkpt>
      <trkpt lat="44.20481" lon="4.25167">
        <ele>135</ele>
        <time>2016-03-25T23:00:29Z</time>
      </trkpt>
      <trkpt lat="44.20486" lon="4.2515">
        <ele>134</ele>
        <time>2016-03-25T23:02:29Z</time>
      </trkpt>
      <trkpt lat="44.20489" lon="4.25131">
        <ele>133</ele>
        <time>2016-03-25T23:04:29Z</time>
      </trkpt>
      <trkpt lat="44.2049" lon="4.25116">
        <ele>133</ele>
        <time>2016-03-25T23:06:29Z</time>
      </trkpt>
      <trkpt lat="44.20489" lon="4.25096">
        <ele>133</ele>
        <time>2016-03-25T23:08:29Z</time>
      </trkpt>
      <trkpt lat="44.20487" lon="4.25078">
        <ele>133</ele>
        <time>2016-03-25T23:10:29Z</time>
      </trkpt>
      <trkpt lat="44.20482" lon="4.25047">
        <ele>131</ele>
        <time>2016-03-25T23:12:29Z</time>
      </trkpt>
      <trkpt lat="44.20471" lon="4.24986">
        <ele>128</ele>
        <time>2016-03-25T23:14:29Z</time>
      </trkpt>
      <trkpt lat="44.20466" lon="4.24962">
        <ele>127</ele>
        <time>2016-03-25T23:16:29Z</time>
      </trkpt>
      <trkpt lat="44.20466" lon="4.24951">
        <ele>127</ele>
        <time>2016-03-25T23:18:29Z</time>
      </trkpt>
      <trkpt lat="44.20467" lon="4.24946">
        <ele>126</ele>
        <time>2016-03-25T23:20:29Z</time>
      </trkpt>
      <trkpt lat="44.20469" lon="4.24939">
        <ele>126</ele>
        <time>2016-03-25T23:22:29Z</time>
      </trkpt>
      <trkpt lat="44.2047" lon="4.24935">
        <ele>126</ele>
        <time>2016-03-25T23:24:29Z</time>
      </trkpt>
      <trkpt lat="44.2047" lon="4.24935">
        <ele>126</ele>
        <time>2016-03-25T23:26:29Z</time>
      </trkpt>
      <trkpt lat="44.20472" lon="4.24935">
        <ele>126</ele>
        <time>2016-03-25T23:28:29Z</time>
      </trkpt>
      <trkpt lat="44.20473" lon="4.24934">
        <ele>126</ele>
        <time>2016-03-25T23:30:29Z</time>
      </trkpt>
      <trkpt lat="44.20474" lon="4.24933">
        <ele>125</ele>
        <time>2016-03-25T23:32:29Z</time>
      </trkpt>
      <trkpt lat="44.20475" lon="4.24932">
        <ele>125</ele>
        <time>2016-03-25T23:34:29Z</time>
      </trkpt>
      <trkpt lat="44.20476" lon="4.2493">
        <ele>125</ele>
        <time>2016-03-25T23:36:29Z</time>
      </trkpt>
      <trkpt lat="44.20478" lon="4.24928">
        <ele>125</ele>
        <time>2016-03-25T23:38:29Z</time>
      </trkpt>
      <trkpt lat="44.20478" lon="4.24927">
        <ele>125</ele>
        <time>2016-03-25T23:40:29Z</time>
      </trkpt>
      <trkpt lat="44.20478" lon="4.24925">
        <ele>125</ele>
        <time>2016-03-25T23:42:29Z</time>
      </trkpt>
      <trkpt lat="44.20478" lon="4.24923">
        <ele>125</ele>
        <time>2016-03-25T23:44:29Z</time>
      </trkpt>
      <trkpt lat="44.20478" lon="4.24921">
        <ele>125</ele>
        <time>2016-03-25T23:46:29Z</time>
      </trkpt>
      <trkpt lat="44.20478" lon="4.2492">
        <ele>125</ele>
        <time>2016-03-25T23:48:29Z</time>
      </trkpt>
      <trkpt lat="44.20478" lon="4.24919">
        <ele>125</ele>
        <time>2016-03-25T23:50:29Z</time>
      </trkpt>
      <trkpt lat="44.20477" lon="4.24916">
        <ele>125</ele>
        <time>2016-03-25T23:52:29Z</time>
      </trkpt>
      <trkpt lat="44.20477" lon="4.24914">
        <ele>125</ele>
        <time>2016-03-25T23:54:29Z</time>
      </trkpt>
      <trkpt lat="44.20476" lon="4.24907">
        <ele>125</ele>
        <time>2016-03-25T23:56:29Z</time>
      </trkpt>
      <trkpt lat="44.20476" lon="4.24898">
        <ele>125</ele>
        <time>2016-03-25T23:58:29Z</time>
      </trkpt>
      <trkpt lat="44.20477" lon="4.24893">
        <ele>125</ele>
        <time>2016-03-26T00:00:29Z</time>
      </trkpt>
      <trkpt lat="44.20479" lon="4.2489">
        <ele>124</ele>
        <time>2016-03-26T00:02:29Z</time>
      </trkpt>
      <trkpt lat="44.2048" lon="4.24888">
        <ele>124</ele>
        <time>2016-03-26T00:04:29Z</time>
      </trkpt>
      <trkpt lat="44.20481" lon="4.24885">
        <ele>124</ele>
        <time>2016-03-26T00:06:29Z</time>
      </trkpt>
      <trkpt lat="44.20485" lon="4.24877">
        <ele>124</ele>
        <time>2016-03-26T00:08:29Z</time>
      </trkpt>
      <trkpt lat="44.20489" lon="4.2487">
        <ele>124</ele>
        <time>2016-03-26T00:10:29Z</time>
      </trkpt>
      <trkpt lat="44.20492" lon="4.24862">
        <ele>124</ele>
        <time>2016-03-26T00:12:29Z</time>
      </trkpt>
      <trkpt lat="44.20494" lon="4.24859">
        <ele>124</ele>
        <time>2016-03-26T00:14:29Z</time>
      </trkpt>
      <trkpt lat="44.20498" lon="4.24851">
        <ele>124</ele>
        <time>2016-03-26T00:16:29Z</time>
      </trkpt>
      <trkpt lat="44.20504" lon="4.24838">
        <ele>124</ele>
        <time>2016-03-26T00:18:29Z</time>
      </trkpt>
      <trkpt lat="44.20507" lon="4.2483">
        <ele>124</ele>
        <time>2016-03-26T00:20:29Z</time>
      </trkpt>
      <trkpt lat="44.2054" lon="4.24758">
        <ele>126</ele>
        <time>2016-03-26T00:22:29Z</time>
      </trkpt>
      <trkpt lat="44.20545" lon="4.24745">
        <ele>127</ele>
        <time>2016-03-26T00:24:29Z</time>
      </trkpt>
      <trkpt lat="44.20548" lon="4.24734">
        <ele>126</ele>
        <time>2016-03-26T00:26:29Z</time>
      </trkpt>
      <trkpt lat="44.20548" lon="4.24734">
        <ele>126</ele>
        <time>2016-03-26T00:28:29Z</time>
      </trkpt>
      <trkpt lat="44.20518" lon="4.24721">
        <ele>126</ele>
        <time>2016-03-26T00:30:29Z</time>
      </trkpt>
      <trkpt lat="44.20498" lon="4.2471">
        <ele>125</ele>
        <time>2016-03-26T00:32:29Z</time>
      </trkpt>
      <trkpt lat="44.20492" lon="4.24706">
        <ele>125</ele>
        <time>2016-03-26T00:34:29Z</time>
      </trkpt>
      <trkpt lat="44.20478" lon="4.24696">
        <ele>125</ele>
        <time>2016-03-26T00:36:29Z</time>
      </trkpt>
      <trkpt lat="44.20454" lon="4.2467">
        <ele>124</ele>
        <time>2016-03-26T00:38:29Z</time>
      </trkpt>
      <trkpt lat="44.20421" lon="4.2463">
        <ele>123</ele>
        <time>2016-03-26T00:40:29Z</time>
      </trkpt>
      <trkpt lat="44.20367" lon="4.24561">
        <ele>123</ele>
        <time>2016-03-26T00:42:29Z</time>
      </trkpt>
      <trkpt lat="44.20356" lon="4.24545">
        <ele>124</ele>
        <time>2016-03-26T00:44:29Z</time>
      </trkpt>
      <trkpt lat="44.20346" lon="4.24525">
        <ele>124</ele>
        <time>2016-03-26T00:46:29Z</time>
      </trkpt>
      <trkpt lat="44.20334" lon="4.24495">
        <ele>124</ele>
        <time>2016-03-26T00:48:29Z</time>
      </trkpt>
      <trkpt lat="44.20323" lon="4.24459">
        <ele>125</ele>
        <time>2016-03-26T00:50:29Z</time>
      </trkpt>
      <trkpt lat="44.20304" lon="4.24387">
        <ele>127</ele>
        <time>2016-03-26T00:52:29Z</time>
      </trkpt>
      <trkpt lat="44.20297" lon="4.24346">
        <ele>128</ele>
        <time>2016-03-26T00:54:29Z</time>
      </trkpt>
      <trkpt lat="44.20295" lon="4.24325">
        <ele>128</ele>
        <time>2016-03-26T00:56:29Z</time>
      </trkpt>
      <trkpt lat="44.20295" lon="4.24302">
        <ele>128</ele>
        <time>2016-03-26T00:58:29Z</time>
      </trkpt>
      <trkpt lat="44.20297" lon="4.24271">
        <ele>129</ele>
        <time>2016-03-26T01:00:29Z</time>
      </trkpt>
      <trkpt lat="44.20303" lon="4.24217">
        <ele>129</ele>
        <time>2016-03-26T01:02:29Z</time>
      </trkpt>
      <trkpt lat="44.20304" lon="4.24195">
        <ele>130</ele>
        <time>2016-03-26T01:04:29Z</time>
      </trkpt>
      <trkpt lat="44.20303" lon="4.24175">
        <ele>130</ele>
        <time>2016-03-26T01:06:29Z</time>
      </trkpt>
      <trkpt lat="44.20303" lon="4.24169">
        <ele>130</ele>
        <time>2016-03-26T01:08:29Z</time>
      </trkpt>
      <trkpt lat="44.20301" lon="4.24157">
        <ele>130</ele>
        <time>2016-03-26T01:10:29Z</time>
      </trkpt>
      <trkpt lat="44.20297" lon="4.24122">
        <ele>131</ele>
        <time>2016-03-26T01:12:29Z</time>
      </trkpt>
      <trkpt lat="44.2029" lon="4.24072">
        <ele>132</ele>
        <time>2016-03-26T01:14:29Z</time>
      </trkpt>
      <trkpt lat="44.20286" lon="4.24046">
        <ele>132</ele>
        <time>2016-03-26T01:16:29Z</time>
      </trkpt>
      <trkpt lat="44.20282" lon="4.24025">
        <ele>132</ele>
        <time>2016-03-26T01:18:29Z</time>
      </trkpt>
      <trkpt lat="44.20273" lon="4.23996">
        <ele>132</ele>
        <time>2016-03-26T01:20:29Z</time>
      </trkpt>
      <trkpt lat="44.20254" lon="4.2394">
        <ele>132</ele>
        <time>2016-03-26T01:22:29Z</time>
      </trkpt>
      <trkpt lat="44.20249" lon="4.23922">
        <ele>132</ele>
        <time>2016-03-26T01:24:29Z</time>
      </trkpt>
      <trkpt lat="44.20244" lon="4.23907">
        <ele>132</ele>
        <time>2016-03-26T01:26:29Z</time>
      </trkpt>
      <trkpt lat="44.20223" lon="4.23836">
        <ele>135</ele>
        <time>2016-03-26T01:28:29Z</time>
      </trkpt>
      <trkpt lat="44.20201" lon="4.23761">
        <ele>134</ele>
        <time>2016-03-26T01:30:29Z</time>
      </trkpt>
      <trkpt lat="44.20193" lon="4.23734">
        <ele>134</ele>
        <time>2016-03-26T01:32:29Z</time>
      </trkpt>
      <trkpt lat="44.20174" lon="4.23675">
        <ele>134</ele>
        <time>2016-03-26T01:34:29Z</time>
      </trkpt>
      <trkpt lat="44.20167" lon="4.23649">
        <ele>135</ele>
        <time>2016-03-26T01:36:29Z</time>
      </trkpt>
      <trkpt lat="44.20164" lon="4.23637">
        <ele>135</ele>
        <time>2016-03-26T01:38:29Z</time>
      </trkpt>
      <trkpt lat="44.20153" lon="4.23591">
        <ele>137</ele>
        <time>2016-03-26T01:40:29Z</time>
      </trkpt>
      <trkpt lat="44.20136" lon="4.23502">
        <ele>139</ele>
        <time>2016-03-26T01:42:29Z</time>
      </trkpt>
      <trkpt lat="44.20121" lon="4.23424">
        <ele>138</ele>
        <time>2016-03-26T01:44:29Z</time>
      </trkpt>
      <trkpt lat="44.20119" lon="4.23419">
        <ele>138</ele>
        <time>2016-03-26T01:46:29Z</time>
      </trkpt>
      <trkpt lat="44.20105" lon="4.23346">
        <ele>137</ele>
        <time>2016-03-26T01:48:29Z</time>
      </trkpt>
      <trkpt lat="44.20092" lon="4.23273">
        <ele>138</ele>
        <time>2016-03-26T01:50:29Z</time>
      </trkpt>
      <trkpt lat="44.20076" lon="4.23195">
        <ele>140</ele>
        <time>2016-03-26T01:52:29Z</time>
      </trkpt>
      <trkpt lat="44.20069" lon="4.23167">
        <ele>140</ele>
        <time>2016-03-26T01:54:29Z</time>
      </trkpt>
      <trkpt lat="44.20064" lon="4.23153">
        <ele>140</ele>
        <time>2016-03-26T01:56:29Z</time>
      </trkpt>
      <trkpt lat="44.20055" lon="4.23134">
        <ele>141</ele>
        <time>2016-03-26T01:58:29Z</time>
      </trkpt>
      <trkpt lat="44.20043" lon="4.23116">
        <ele>141</ele>
        <time>2016-03-26T02:00:29Z</time>
      </trkpt>
      <trkpt lat="44.20034" lon="4.23105">
        <ele>142</ele>
        <time>2016-03-26T02:02:29Z</time>
      </trkpt>
      <trkpt lat="44.20026" lon="4.23096">
        <ele>142</ele>
        <time>2016-03-26T02:04:29Z</time>
      </trkpt>
      <trkpt lat="44.20017" lon="4.23087">
        <ele>142</ele>
        <time>2016-03-26T02:06:29Z</time>
      </trkpt>
      <trkpt lat="44.20011" lon="4.23083">
        <ele>142</ele>
        <time>2016-03-26T02:08:29Z</time>
      </trkpt>
      <trkpt lat="44.19999" lon="4.23076">
        <ele>142</ele>
        <time>2016-03-26T02:10:29Z</time>
      </trkpt>
      <trkpt lat="44.1996" lon="4.23056">
        <ele>140</ele>
        <time>2016-03-26T02:12:29Z</time>
      </trkpt>
      <trkpt lat="44.19921" lon="4.23037">
        <ele>137</ele>
        <time>2016-03-26T02:14:29Z</time>
      </trkpt>
      <trkpt lat="44.19898" lon="4.23025">
        <ele>137</ele>
        <time>2016-03-26T02:16:29Z</time>
      </trkpt>
      <trkpt lat="44.19888" lon="4.23018">
        <ele>136</ele>
        <time>2016-03-26T02:18:29Z</time>
      </trkpt>
      <trkpt lat="44.19881" lon="4.23013">
        <ele>136</ele>
        <time>2016-03-26T02:20:29Z</time>
      </trkpt>
      <trkpt lat="44.19874" lon="4.23008">
        <ele>136</ele>
        <time>2016-03-26T02:22:29Z</time>
      </trkpt>
      <trkpt lat="44.19868" lon="4.23002">
        <ele>135</ele>
        <time>2016-03-26T02:24:29Z</time>
      </trkpt>
      <trkpt lat="44.19845" lon="4.2298">
        <ele>135</ele>
        <time>2016-03-26T02:26:29Z</time>
      </trkpt>
      <trkpt lat="44.19845" lon="4.2298">
        <ele>135</ele>
        <time>2016-03-26T02:28:29Z</time>
      </trkpt>
      <trkpt lat="44.19846" lon="4.22976">
        <ele>135</ele>
        <time>2016-03-26T02:30:29Z</time>
      </trkpt>
      <trkpt lat="44.19847" lon="4.22974">
        <ele>135</ele>
        <time>2016-03-26T02:32:29Z</time>
      </trkpt>
      <trkpt lat="44.19848" lon="4.22972">
        <ele>135</ele>
        <time>2016-03-26T02:34:29Z</time>
      </trkpt>
      <trkpt lat="44.19848" lon="4.22969">
        <ele>135</ele>
        <time>2016-03-26T02:36:29Z</time>
      </trkpt>
      <trkpt lat="44.19847" lon="4.22965">
        <ele>135</ele>
        <time>2016-03-26T02:38:29Z</time>
      </trkpt>
      <trkpt lat="44.19847" lon="4.22958">
        <ele>135</ele>
        <time>2016-03-26T02:40:29Z</time>
      </trkpt>
      <trkpt lat="44.19846" lon="4.22945">
        <ele>135</ele>
        <time>2016-03-26T02:42:29Z</time>
      </trkpt>
      <trkpt lat="44.19844" lon="4.22891">
        <ele>135</ele>
        <time>2016-03-26T02:44:29Z</time>
      </trkpt>
      <trkpt lat="44.19837" lon="4.22792">
        <ele>135</ele>
        <time>2016-03-26T02:46:29Z</time>
      </trkpt>
      <trkpt lat="44.19835" lon="4.22739">
        <ele>135</ele>
        <time>2016-03-26T02:48:29Z</time>
      </trkpt>
      <trkpt lat="44.19836" lon="4.22724">
        <ele>135</ele>
        <time>2016-03-26T02:50:29Z</time>
      </trkpt>
      <trkpt lat="44.19837" lon="4.22712">
        <ele>135</ele>
        <time>2016-03-26T02:52:29Z</time>
      </trkpt>
      <trkpt lat="44.1984" lon="4.22696">
        <ele>134</ele>
        <time>2016-03-26T02:54:29Z</time>
      </trkpt>
      <trkpt lat="44.19844" lon="4.22683">
        <ele>134</ele>
        <time>2016-03-26T02:56:29Z</time>
      </trkpt>
      <trkpt lat="44.19848" lon="4.22673">
        <ele>134</ele>
        <time>2016-03-26T02:58:29Z</time>
      </trkpt>
      <trkpt lat="44.19863" lon="4.22644">
        <ele>134</ele>
        <time>2016-03-26T03:00:29Z</time>
      </trkpt>
      <trkpt lat="44.19887" lon="4.22598">
        <ele>134</ele>
        <time>2016-03-26T03:02:29Z</time>
      </trkpt>
      <trkpt lat="44.19909" lon="4.22559">
        <ele>134</ele>
        <time>2016-03-26T03:04:29Z</time>
      </trkpt>
      <trkpt lat="44.19941" lon="4.22504">
        <ele>136</ele>
        <time>2016-03-26T03:06:29Z</time>
      </trkpt>
      <trkpt lat="44.19954" lon="4.22483">
        <ele>137</ele>
        <time>2016-03-26T03:08:29Z</time>
      </trkpt>
      <trkpt lat="44.19967" lon="4.22461">
        <ele>137</ele>
        <time>2016-03-26T03:10:29Z</time>
      </trkpt>
      <trkpt lat="44.19974" lon="4.22446">
        <ele>137</ele>
        <time>2016-03-26T03:12:29Z</time>
      </trkpt>
      <trkpt lat="44.19976" lon="4.22437">
        <ele>137</ele>
        <time>2016-03-26T03:14:29Z</time>
      </trkpt>
      <trkpt lat="44.19978" lon="4.22429">
        <ele>137</ele>
        <time>2016-03-26T03:16:29Z</time>
      </trkpt>
      <trkpt lat="44.19979" lon="4.2242">
        <ele>137</ele>
        <time>2016-03-26T03:18:29Z</time>
      </trkpt>
      <trkpt lat="44.19979" lon="4.22404">
        <ele>137</ele>
        <time>2016-03-26T03:20:29Z</time>
      </trkpt>
      <trkpt lat="44.19979" lon="4.22386">
        <ele>137</ele>
        <time>2016-03-26T03:22:29Z</time>
      </trkpt>
      <trkpt lat="44.19981" lon="4.22373">
        <ele>137</ele>
        <time>2016-03-26T03:24:29Z</time>
      </trkpt>
      <trkpt lat="44.19983" lon="4.22363">
        <ele>137</ele>
        <time>2016-03-26T03:26:29Z</time>
      </trkpt>
      <trkpt lat="44.19986" lon="4.22353">
        <ele>137</ele>
        <time>2016-03-26T03:28:29Z</time>
      </trkpt>
      <trkpt lat="44.19992" lon="4.22341">
        <ele>137</ele>
        <time>2016-03-26T03:30:29Z</time>
      </trkpt>
      <trkpt lat="44.20005" lon="4.22323">
        <ele>137</ele>
        <time>2016-03-26T03:32:29Z</time>
      </trkpt>
      <trkpt lat="44.20023" lon="4.22297">
        <ele>136</ele>
        <time>2016-03-26T03:34:29Z</time>
      </trkpt>
      <trkpt lat="44.20045" lon="4.22266">
        <ele>135</ele>
        <time>2016-03-26T03:36:29Z</time>
      </trkpt>
      <trkpt lat="44.20053" lon="4.22253">
        <ele>135</ele>
        <time>2016-03-26T03:38:29Z</time>
      </trkpt>
      <trkpt lat="44.20056" lon="4.22246">
        <ele>135</ele>
        <time>2016-03-26T03:40:29Z</time>
      </trkpt>
      <trkpt lat="44.20059" lon="4.22237">
        <ele>135</ele>
        <time>2016-03-26T03:42:29Z</time>
      </trkpt>
      <trkpt lat="44.2006" lon="4.2223">
        <ele>135</ele>
        <time>2016-03-26T03:44:29Z</time>
      </trkpt>
      <trkpt lat="44.2006" lon="4.22221">
        <ele>135</ele>
        <time>2016-03-26T03:46:29Z</time>
      </trkpt>
      <trkpt lat="44.20061" lon="4.22195">
        <ele>135</ele>
        <time>2016-03-26T03:48:29Z</time>
      </trkpt>
      <trkpt lat="44.20063" lon="4.22177">
        <ele>134</ele>
        <time>2016-03-26T03:50:29Z</time>
      </trkpt>
      <trkpt lat="44.20067" lon="4.2216">
        <ele>134</ele>
        <time>2016-03-26T03:52:29Z</time>
      </trkpt>
      <trkpt lat="44.20092" lon="4.22045">
        <ele>136</ele>
        <time>2016-03-26T03:54:29Z</time>
      </trkpt>
      <trkpt lat="44.20111" lon="4.21959">
        <ele>136</ele>
        <time>2016-03-26T03:56:29Z</time>
      </trkpt>
      <trkpt lat="44.20115" lon="4.21941">
        <ele>136</ele>
        <time>2016-03-26T03:58:29Z</time>
      </trkpt>
      <trkpt lat="44.20131" lon="4.2187">
        <ele>135</ele>
        <time>2016-03-26T04:00:29Z</time>
      </trkpt>
      <trkpt lat="44.20142" lon="4.21818">
        <ele>135</ele>
        <time>2016-03-26T04:02:29Z</time>
      </trkpt>
      <trkpt lat="44.20164" lon="4.21714">
        <ele>136</ele>
        <time>2016-03-26T04:04:29Z</time>
      </trkpt>
      <trkpt lat="44.2018" lon="4.21645">
        <ele>138</ele>
        <time>2016-03-26T04:06:29Z</time>
      </trkpt>
      <trkpt lat="44.20195" lon="4.2158">
        <ele>137</ele>
        <time>2016-03-26T04:08:29Z</time>
      </trkpt>
      <trkpt lat="44.20201" lon="4.21549">
        <ele>138</ele>
        <time>2016-03-26T04:10:29Z</time>
      </trkpt>
      <trkpt lat="44.20207" lon="4.21514">
        <ele>138</ele>
        <time>2016-03-26T04:12:29Z</time>
      </trkpt>
      <trkpt lat="44.20211" lon="4.21497">
        <ele>138</ele>
        <time>2016-03-26T04:14:29Z</time>
      </trkpt>
      <trkpt lat="44.20214" lon="4.21486">
        <ele>138</ele>
        <time>2016-03-26T04:16:29Z</time>
      </trkpt>
      <trkpt lat="44.2022" lon="4.21472">
        <ele>139</ele>
        <time>2016-03-26T04:18:29Z</time>
      </trkpt>
      <trkpt lat="44.20233" lon="4.21446">
        <ele>139</ele>
        <time>2016-03-26T04:20:29Z</time>
      </trkpt>
      <trkpt lat="44.20238" lon="4.21434">
        <ele>139</ele>
        <time>2016-03-26T04:22:29Z</time>
      </trkpt>
      <trkpt lat="44.20242" lon="4.21421">
        <ele>139</ele>
        <time>2016-03-26T04:24:29Z</time>
      </trkpt>
      <trkpt lat="44.20246" lon="4.21397">
        <ele>140</ele>
        <time>2016-03-26T04:26:29Z</time>
      </trkpt>
      <trkpt lat="44.20249" lon="4.21385">
        <ele>140</ele>
        <time>2016-03-26T04:28:29Z</time>
      </trkpt>
      <trkpt lat="44.20252" lon="4.21373">
        <ele>141</ele>
        <time>2016-03-26T04:30:29Z</time>
      </trkpt>
      <trkpt lat="44.20257" lon="4.21354">
        <ele>141</ele>
        <time>2016-03-26T04:32:29Z</time>
      </trkpt>
      <trkpt lat="44.20268" lon="4.21318">
        <ele>142</ele>
        <time>2016-03-26T04:34:29Z</time>
      </trkpt>
      <trkpt lat="44.20277" lon="4.21289">
        <ele>142</ele>
        <time>2016-03-26T04:36:29Z</time>
      </trkpt>
      <trkpt lat="44.20283" lon="4.21261">
        <ele>142</ele>
        <time>2016-03-26T04:38:29Z</time>
      </trkpt>
      <trkpt lat="44.20292" lon="4.21218">
        <ele>141</ele>
        <time>2016-03-26T04:40:29Z</time>
      </trkpt>
      <trkpt lat="44.203" lon="4.21176">
        <ele>140</ele>
        <time>2016-03-26T04:42:29Z</time>
      </trkpt>
      <trkpt lat="44.2031" lon="4.21143">
        <ele>140</ele>
        <time>2016-03-26T04:44:29Z</time>
      </trkpt>
      <trkpt lat="44.20325" lon="4.21097">
        <ele>140</ele>
        <time>2016-03-26T04:46:29Z</time>
      </trkpt>
      <trkpt lat="44.20334" lon="4.21065">
        <ele>140</ele>
        <time>2016-03-26T04:48:29Z</time>
      </trkpt>
      <trkpt lat="44.20353" lon="4.20987">
        <ele>141</ele>
        <time>2016-03-26T04:50:29Z</time>
      </trkpt>
      <trkpt lat="44.20363" lon="4.20944">
        <ele>141</ele>
        <time>2016-03-26T04:52:29Z</time>
      </trkpt>
      <trkpt lat="44.20372" lon="4.20907">
        <ele>142</ele>
        <time>2016-03-26T04:54:29Z</time>
      </trkpt>
      <trkpt lat="44.20381" lon="4.20868">
        <ele>143</ele>
        <time>2016-03-26T04:56:29Z</time>
      </trkpt>
      <trkpt lat="44.20384" lon="4.20854">
        <ele>143</ele>
        <time>2016-03-26T04:58:29Z</time>
      </trkpt>
      <trkpt lat="44.20386" lon="4.2084">
        <ele>143</ele>
        <time>2016-03-26T05:00:29Z</time>
      </trkpt>
      <trkpt lat="44.20388" lon="4.20818">
        <ele>143</ele>
        <time>2016-03-26T05:02:29Z</time>
      </trkpt>
      <trkpt lat="44.20389" lon="4.20798">
        <ele>143</ele>
        <time>2016-03-26T05:04:29Z</time>
      </trkpt>
      <trkpt lat="44.20391" lon="4.20784">
        <ele>142</ele>
        <time>2016-03-26T05:06:29Z</time>
      </trkpt>
      <trkpt lat="44.20394" lon="4.20775">
        <ele>142</ele>
        <time>2016-03-26T05:08:29Z</time>
      </trkpt>
      <trkpt lat="44.20398" lon="4.20768">
        <ele>142</ele>
        <time>2016-03-26T05:10:29Z</time>
      </trkpt>
      <trkpt lat="44.20403" lon="4.20762">
        <ele>142</ele>
        <time>2016-03-26T05:12:29Z</time>
      </trkpt>
      <trkpt lat="44.20409" lon="4.20757">
        <ele>142</ele>
        <time>2016-03-26T05:14:29Z</time>
      </trkpt>
      <trkpt lat="44.20409" lon="4.20757">
        <ele>142</ele>
        <time>2016-03-26T05:16:29Z</time>
      </trkpt>
      <trkpt lat="44.20417" lon="4.20757">
        <ele>142</ele>
        <time>2016-03-26T05:18:29Z</time>
      </trkpt>
      <trkpt lat="44.20438" lon="4.20755">
        <ele>144</ele>
        <time>2016-03-26T05:20:29Z</time>
      </trkpt>
      <trkpt lat="44.20443" lon="4.20754">
        <ele>144</ele>
        <time>2016-03-26T05:22:29Z</time>
      </trkpt>
      <trkpt lat="44.2045" lon="4.20752">
        <ele>145</ele>
        <time>2016-03-26T05:24:29Z</time>
      </trkpt>
      <trkpt lat="44.20455" lon="4.20749">
        <ele>145</ele>
        <time>2016-03-26T05:26:29Z</time>
      </trkpt>
      <trkpt lat="44.20461" lon="4.20745">
        <ele>146</ele>
        <time>2016-03-26T05:28:29Z</time>
      </trkpt>
      <trkpt lat="44.20466" lon="4.20738">
        <ele>146</ele>
        <time>2016-03-26T05:30:29Z</time>
      </trkpt>
      <trkpt lat="44.20474" lon="4.20726">
        <ele>146</ele>
        <time>2016-03-26T05:32:29Z</time>
      </trkpt>
      <trkpt lat="44.20484" lon="4.20705">
        <ele>146</ele>
        <time>2016-03-26T05:34:29Z</time>
      </trkpt>
      <trkpt lat="44.20494" lon="4.20684">
        <ele>146</ele>
        <time>2016-03-26T05:36:29Z</time>
      </trkpt>
      <trkpt lat="44.20505" lon="4.20666">
        <ele>146</ele>
        <time>2016-03-26T05:38:29Z</time>
      </trkpt>
      <trkpt lat="44.20522" lon="4.20645">
        <ele>147</ele>
        <time>2016-03-26T05:40:29Z</time>
      </trkpt>
      <trkpt lat="44.20531" lon="4.20632">
        <ele>147</ele>
        <time>2016-03-26T05:42:29Z</time>
      </trkpt>
      <trkpt lat="44.2054" lon="4.20619">
        <ele>148</ele>
        <time>2016-03-26T05:44:29Z</time>
      </trkpt>
      <trkpt lat="44.20546" lon="4.20607">
        <ele>148</ele>
        <time>2016-03-26T05:46:29Z</time>
      </trkpt>
      <trkpt lat="44.20552" lon="4.20594">
        <ele>148</ele>
        <time>2016-03-26T05:48:29Z</time>
      </trkpt>
      <trkpt lat="44.20557" lon="4.2058">
        <ele>148</ele>
        <time>2016-03-26T05:50:29Z</time>
      </trkpt>
      <trkpt lat="44.20561" lon="4.20565">
        <ele>148</ele>
        <time>2016-03-26T05:52:29Z</time>
      </trkpt>
      <trkpt lat="44.20569" lon="4.20524">
        <ele>148</ele>
        <time>2016-03-26T05:54:29Z</time>
      </trkpt>
      <trkpt lat="44.20576" lon="4.20488">
        <ele>148</ele>
        <time>2016-03-26T05:56:29Z</time>
      </trkpt>
      <trkpt lat="44.20577" lon="4.20484">
        <ele>148</ele>
        <time>2016-03-26T05:58:29Z</time>
      </trkpt>
      <trkpt lat="44.20582" lon="4.20459">
        <ele>147</ele>
        <time>2016-03-26T06:00:29Z</time>
      </trkpt>
      <trkpt lat="44.20596" lon="4.20408">
        <ele>148</ele>
        <time>2016-03-26T06:02:29Z</time>
      </trkpt>
      <trkpt lat="44.20606" lon="4.20377">
        <ele>149</ele>
        <time>2016-03-26T06:04:29Z</time>
      </trkpt>
      <trkpt lat="44.20614" lon="4.20355">
        <ele>150</ele>
        <time>2016-03-26T06:06:29Z</time>
      </trkpt>
      <trkpt lat="44.20629" lon="4.20318">
        <ele>150</ele>
        <time>2016-03-26T06:08:29Z</time>
      </trkpt>
      <trkpt lat="44.20646" lon="4.20281">
        <ele>150</ele>
        <time>2016-03-26T06:10:29Z</time>
      </trkpt>
      <trkpt lat="44.2067" lon="4.20238">
        <ele>150</ele>
        <time>2016-03-26T06:12:29Z</time>
      </trkpt>
      <trkpt lat="44.20699" lon="4.20186">
        <ele>149</ele>
        <time>2016-03-26T06:14:29Z</time>
      </trkpt>
      <trkpt lat="44.2072" lon="4.20153">
        <ele>149</ele>
        <time>2016-03-26T06:16:29Z</time>
      </trkpt>
      <trkpt lat="44.20746" lon="4.2011">
        <ele>150</ele>
        <time>2016-03-26T06:18:29Z</time>
      </trkpt>
      <trkpt lat="44.20756" lon="4.20095">
        <ele>150</ele>
        <time>2016-03-26T06:20:29Z</time>
      </trkpt>
      <trkpt lat="44.20764" lon="4.20085">
        <ele>151</ele>
        <time>2016-03-26T06:22:29Z</time>
      </trkpt>
      <trkpt lat="44.20771" lon="4.20077">
        <ele>151</ele>
        <time>2016-03-26T06:24:29Z</time>
      </trkpt>
      <trkpt lat="44.2078" lon="4.20068">
        <ele>152</ele>
        <time>2016-03-26T06:26:29Z</time>
      </trkpt>
      <trkpt lat="44.20799" lon="4.2005">
        <ele>153</ele>
        <time>2016-03-26T06:28:29Z</time>
      </trkpt>
      <trkpt lat="44.20816" lon="4.20034">
        <ele>155</ele>
        <time>2016-03-26T06:30:29Z</time>
      </trkpt>
      <trkpt lat="44.20826" lon="4.20026">
        <ele>155</ele>
        <time>2016-03-26T06:32:29Z</time>
      </trkpt>
      <trkpt lat="44.20837" lon="4.20019">
        <ele>156</ele>
        <time>2016-03-26T06:34:29Z</time>
      </trkpt>
      <trkpt lat="44.20844" lon="4.20015">
        <ele>156</ele>
        <time>2016-03-26T06:36:29Z</time>
      </trkpt>
      <trkpt lat="44.20852" lon="4.20012">
        <ele>156</ele>
        <time>2016-03-26T06:38:29Z</time>
      </trkpt>
      <trkpt lat="44.20855" lon="4.20011">
        <ele>156</ele>
        <time>2016-03-26T06:40:29Z</time>
      </trkpt>
      <trkpt lat="44.20864" lon="4.20009">
        <ele>157</ele>
        <time>2016-03-26T06:42:29Z</time>
      </trkpt>
      <trkpt lat="44.20879" lon="4.20007">
        <ele>157</ele>
        <time>2016-03-26T06:44:29Z</time>
      </trkpt>
      <trkpt lat="44.20888" lon="4.20006">
        <ele>157</ele>
        <time>2016-03-26T06:46:29Z</time>
      </trkpt>
      <trkpt lat="44.20892" lon="4.20005">
        <ele>157</ele>
        <time>2016-03-26T06:48:29Z</time>
      </trkpt>
      <trkpt lat="44.20912" lon="4.19995">
        <ele>158</ele>
        <time>2016-03-26T06:50:29Z</time>
      </trkpt>
      <trkpt lat="44.20925" lon="4.19987">
        <ele>158</ele>
        <time>2016-03-26T06:52:29Z</time>
      </trkpt>
      <trkpt lat="44.2094" lon="4.19977">
        <ele>159</ele>
        <time>2016-03-26T06:54:29Z</time>
      </trkpt>
      <trkpt lat="44.20974" lon="4.19957">
        <ele>160</ele>
        <time>2016-03-26T06:56:29Z</time>
      </trkpt>
      <trkpt lat="44.21019" lon="4.19931">
        <ele>163</ele>
        <time>2016-03-26T06:58:29Z</time>
      </trkpt>
      <trkpt lat="44.21038" lon="4.1992">
        <ele>164</ele>
        <time>2016-03-26T07:00:29Z</time>
      </trkpt>
      <trkpt lat="44.21064" lon="4.19903">
        <ele>166</ele>
        <time>2016-03-26T07:02:29Z</time>
      </trkpt>
      <trkpt lat="44.21073" lon="4.19891">
        <ele>166</ele>
        <time>2016-03-26T07:04:29Z</time>
      </trkpt>
      <trkpt lat="44.21088" lon="4.19872">
        <ele>167</ele>
        <time>2016-03-26T07:06:29Z</time>
      </trkpt>
      <trkpt lat="44.21104" lon="4.19849">
        <ele>168</ele>
        <time>2016-03-26T07:08:29Z</time>
      </trkpt>
      <trkpt lat="44.21117" lon="4.1983">
        <ele>168</ele>
        <time>2016-03-26T07:10:29Z</time>
      </trkpt>
      <trkpt lat="44.21124" lon="4.19817">
        <ele>168</ele>
        <time>2016-03-26T07:12:29Z</time>
      </trkpt>
      <trkpt lat="44.21132" lon="4.198">
        <ele>168</ele>
        <time>2016-03-26T07:14:29Z</time>
      </trkpt>
      <trkpt lat="44.2114" lon="4.19775">
        <ele>168</ele>
        <time>2016-03-26T07:16:29Z</time>
      </trkpt>
      <trkpt lat="44.21148" lon="4.19755">
        <ele>167</ele>
        <time>2016-03-26T07:18:29Z</time>
      </trkpt>
      <trkpt lat="44.21154" lon="4.19738">
        <ele>167</ele>
        <time>2016-03-26T07:20:29Z</time>
      </trkpt>
      <trkpt lat="44.21163" lon="4.1972">
        <ele>166</ele>
        <time>2016-03-26T07:22:29Z</time>
      </trkpt>
      <trkpt lat="44.21165" lon="4.19716">
        <ele>166</ele>
        <time>2016-03-26T07:24:29Z</time>
      </trkpt>
      <trkpt lat="44.21166" lon="4.19713">
        <ele>166</ele>
        <time>2016-03-26T07:26:29Z</time>
      </trkpt>
      <trkpt lat="44.21204" lon="4.19641">
        <ele>163</ele>
        <time>2016-03-26T07:28:29Z</time>
      </trkpt>
      <trkpt lat="44.21234" lon="4.19584">
        <ele>161</ele>
        <time>2016-03-26T07:30:29Z</time>
      </trkpt>
      <trkpt lat="44.21246" lon="4.1956">
        <ele>161</ele>
        <time>2016-03-26T07:32:29Z</time>
      </trkpt>
      <trkpt lat="44.21252" lon="4.1955">
        <ele>160</ele>
        <time>2016-03-26T07:34:29Z</time>
      </trkpt>
      <trkpt lat="44.21256" lon="4.19538">
        <ele>160</ele>
        <time>2016-03-26T07:36:29Z</time>
      </trkpt>
      <trkpt lat="44.21257" lon="4.19534">
        <ele>160</ele>
        <time>2016-03-26T07:38:29Z</time>
      </trkpt>
      <trkpt lat="44.21257" lon="4.1953">
        <ele>160</ele>
        <time>2016-03-26T07:40:29Z</time>
      </trkpt>
      <trkpt lat="44.21258" lon="4.19524">
        <ele>159</ele>
        <time>2016-03-26T07:42:29Z</time>
      </trkpt>
      <trkpt lat="44.21259" lon="4.19515">
        <ele>159</ele>
        <time>2016-03-26T07:44:29Z</time>
      </trkpt>
      <trkpt lat="44.21259" lon="4.19502">
        <ele>158</ele>
        <time>2016-03-26T07:46:29Z</time>
      </trkpt>
      <trkpt lat="44.21259" lon="4.19489">
        <ele>159</ele>
        <time>2016-03-26T07:48:29Z</time>
      </trkpt>
      <trkpt lat="44.21257" lon="4.19475">
        <ele>159</ele>
        <time>2016-03-26T07:50:29Z</time>
      </trkpt>
      <trkpt lat="44.21255" lon="4.19451">
        <ele>160</ele>
        <time>2016-03-26T07:52:29Z</time>
      </trkpt>
      <trkpt lat="44.21255" lon="4.1945">
        <ele>160</ele>
        <time>2016-03-26T07:54:29Z</time>
      </trkpt>
      <trkpt lat="44.21254" lon="4.19441">
        <ele>160</ele>
        <time>2016-03-26T07:56:29Z</time>
      </trkpt>
      <trkpt lat="44.21254" lon="4.19438">
        <ele>160</ele>
        <time>2016-03-26T07:58:29Z</time>
      </trkpt>
      <trkpt lat="44.21254" lon="4.19422">
        <ele>161</ele>
        <time>2016-03-26T08:00:29Z</time>
      </trkpt>
      <trkpt lat="44.21255" lon="4.19418">
        <ele>161</ele>
        <time>2016-03-26T08:02:29Z</time>
      </trkpt>
      <trkpt lat="44.21256" lon="4.19415">
        <ele>161</ele>
        <time>2016-03-26T08:04:29Z</time>
      </trkpt>
      <trkpt lat="44.21258" lon="4.19412">
        <ele>162</ele>
        <time>2016-03-26T08:06:29Z</time>
      </trkpt>
      <trkpt lat="44.21259" lon="4.19409">
        <ele>162</ele>
        <time>2016-03-26T08:08:29Z</time>
      </trkpt>
      <trkpt lat="44.21261" lon="4.19406">
        <ele>162</ele>
        <time>2016-03-26T08:10:29Z</time>
      </trkpt>
      <trkpt lat="44.21264" lon="4.19404">
        <ele>162</ele>
        <time>2016-03-26T08:12:29Z</time>
      </trkpt>
      <trkpt lat="44.21268" lon="4.19402">
        <ele>163</ele>
        <time>2016-03-26T08:14:29Z</time>
      </trkpt>
      <trkpt lat="44.21272" lon="4.194">
        <ele>163</ele>
        <time>2016-03-26T08:16:29Z</time>
      </trkpt>
      <trkpt lat="44.21278" lon="4.19398">
        <ele>163</ele>
        <time>2016-03-26T08:18:29Z</time>
      </trkpt>
      <trkpt lat="44.21292" lon="4.19395">
        <ele>164</ele>
        <time>2016-03-26T08:20:29Z</time>
      </trkpt>
      <trkpt lat="44.21303" lon="4.1939">
        <ele>164</ele>
        <time>2016-03-26T08:22:29Z</time>
      </trkpt>
      <trkpt lat="44.21309" lon="4.19385">
        <ele>165</ele>
        <time>2016-03-26T08:24:29Z</time>
      </trkpt>
      <trkpt lat="44.21313" lon="4.19381">
        <ele>165</ele>
        <time>2016-03-26T08:26:29Z</time>
      </trkpt>
      <trkpt lat="44.21316" lon="4.19375">
        <ele>165</ele>
        <time>2016-03-26T08:28:29Z</time>
      </trkpt>
      <trkpt lat="44.21317" lon="4.19368">
        <ele>166</ele>
        <time>2016-03-26T08:30:29Z</time>
      </trkpt>
      <trkpt lat="44.21318" lon="4.19363">
        <ele>166</ele>
        <time>2016-03-26T08:32:29Z</time>
      </trkpt>
      <trkpt lat="44.21323" lon="4.19328">
        <ele>168</ele>
        <time>2016-03-26T08:34:29Z</time>
      </trkpt>
      <trkpt lat="44.21323" lon="4.19325">
        <ele>168</ele>
        <time>2016-03-26T08:36:29Z</time>
      </trkpt>
      <trkpt lat="44.21323" lon="4.19318">
        <ele>169</ele>
        <time>2016-03-26T08:38:29Z</time>
      </trkpt>
      <trkpt lat="44.21321" lon="4.19309">
        <ele>169</ele>
        <time>2016-03-26T08:40:29Z</time>
      </trkpt>
      <trkpt lat="44.21319" lon="4.19306">
        <ele>169</ele>
        <time>2016-03-26T08:42:29Z</time>
      </trkpt>
      <trkpt lat="44.21315" lon="4.19301">
        <ele>169</ele>
        <time>2016-03-26T08:44:29Z</time>
      </trkpt>
      <trkpt lat="44.21312" lon="4.19298">
        <ele>169</ele>
        <time>2016-03-26T08:46:29Z</time>
      </trkpt>
      <trkpt lat="44.21308" lon="4.19296">
        <ele>170</ele>
        <time>2016-03-26T08:48:29Z</time>
      </trkpt>
      <trkpt lat="44.21303" lon="4.19295">
        <ele>170</ele>
        <time>2016-03-26T08:50:29Z</time>
      </trkpt>
      <trkpt lat="44.21291" lon="4.19294">
        <ele>169</ele>
        <time>2016-03-26T08:52:29Z</time>
      </trkpt>
      <trkpt lat="44.21278" lon="4.19294">
        <ele>169</ele>
        <time>2016-03-26T08:54:29Z</time>
      </trkpt>
      <trkpt lat="44.21269" lon="4.19292">
        <ele>169</ele>
        <time>2016-03-26T08:56:29Z</time>
      </trkpt>
      <trkpt lat="44.21263" lon="4.19291">
        <ele>169</ele>
        <time>2016-03-26T08:58:29Z</time>
      </trkpt>
      <trkpt lat="44.21258" lon="4.19288">
        <ele>169</ele>
        <time>2016-03-26T09:00:29Z</time>
      </trkpt>
      <trkpt lat="44.21255" lon="4.19285">
        <ele>169</ele>
        <time>2016-03-26T09:02:29Z</time>
      </trkpt>
      <trkpt lat="44.21253" lon="4.1928">
        <ele>169</ele>
        <time>2016-03-26T09:04:29Z</time>
      </trkpt>
      <trkpt lat="44.21252" lon="4.19279">
        <ele>169</ele>
        <time>2016-03-26T09:06:29Z</time>
      </trkpt>
      <trkpt lat="44.21251" lon="4.19276">
        <ele>169</ele>
        <time>2016-03-26T09:08:29Z</time>
      </trkpt>
      <trkpt lat="44.21251" lon="4.19267">
        <ele>170</ele>
        <time>2016-03-26T09:10:29Z</time>
      </trkpt>
      <trkpt lat="44.21253" lon="4.19258">
        <ele>170</ele>
        <time>2016-03-26T09:12:29Z</time>
      </trkpt>
      <trkpt lat="44.21257" lon="4.19242">
        <ele>170</ele>
        <time>2016-03-26T09:14:29Z</time>
      </trkpt>
      <trkpt lat="44.21265" lon="4.19217">
        <ele>170</ele>
        <time>2016-03-26T09:16:29Z</time>
      </trkpt>
      <trkpt lat="44.21309" lon="4.19081">
        <ele>171</ele>
        <time>2016-03-26T09:18:29Z</time>
      </trkpt>
      <trkpt lat="44.21334" lon="4.1901">
        <ele>170</ele>
        <time>2016-03-26T09:20:29Z</time>
      </trkpt>
      <trkpt lat="44.21346" lon="4.18974">
        <ele>171</ele>
        <time>2016-03-26T09:22:29Z</time>
      </trkpt>
      <trkpt lat="44.21348" lon="4.18969">
        <ele>171</ele>
        <time>2016-03-26T09:24:29Z</time>
      </trkpt>
      <trkpt lat="44.21349" lon="4.18965">
        <ele>171</ele>
        <time>2016-03-26T09:26:29Z</time>
      </trkpt>
      <trkpt lat="44.21349" lon="4.18961">
        <ele>171</ele>
        <time>2016-03-26T09:28:29Z</time>
      </trkpt>
      <trkpt lat="44.2135" lon="4.18957">
        <ele>171</ele>
        <time>2016-03-26T09:30:29Z</time>
      </trkpt>
      <trkpt lat="44.2135" lon="4.18952">
        <ele>171</ele>
        <time>2016-03-26T09:32:29Z</time>
      </trkpt>
      <trkpt lat="44.21351" lon="4.18948">
        <ele>171</ele>
        <time>2016-03-26T09:34:29Z</time>
      </trkpt>
      <trkpt lat="44.21351" lon="4.18943">
        <ele>171</ele>
        <time>2016-03-26T09:36:29Z</time>
      </trkpt>
      <trkpt lat="44.21351" lon="4.18939">
        <ele>171</ele>
        <time>2016-03-26T09:38:29Z</time>
      </trkpt>
      <trkpt lat="44.2135" lon="4.18936">
        <ele>171</ele>
        <time>2016-03-26T09:40:29Z</time>
      </trkpt>
      <trkpt lat="44.2135" lon="4.18931">
        <ele>171</ele>
        <time>2016-03-26T09:42:29Z</time>
      </trkpt>
      <trkpt lat="44.21349" lon="4.18927">
        <ele>171</ele>
        <time>2016-03-26T09:44:29Z</time>
      </trkpt>
      <trkpt lat="44.21348" lon="4.18923">
        <ele>170</ele>
        <time>2016-03-26T09:46:29Z</time>
      </trkpt>
      <trkpt lat="44.21347" lon="4.1892">
        <ele>170</ele>
        <time>2016-03-26T09:48:29Z</time>
      </trkpt>
      <trkpt lat="44.21344" lon="4.18913">
        <ele>170</ele>
        <time>2016-03-26T09:50:29Z</time>
      </trkpt>
      <trkpt lat="44.21337" lon="4.18899">
        <ele>169</ele>
        <time>2016-03-26T09:52:29Z</time>
      </trkpt>
      <trkpt lat="44.2133" lon="4.18887">
        <ele>169</ele>
        <time>2016-03-26T09:54:29Z</time>
      </trkpt>
      <trkpt lat="44.21325" lon="4.18869">
        <ele>168</ele>
        <time>2016-03-26T09:56:29Z</time>
      </trkpt>
      <trkpt lat="44.21324" lon="4.18862">
        <ele>168</ele>
        <time>2016-03-26T09:58:29Z</time>
      </trkpt>
      <trkpt lat="44.21323" lon="4.18855">
        <ele>168</ele>
        <time>2016-03-26T10:00:29Z</time>
      </trkpt>
      <trkpt lat="44.21323" lon="4.18847">
        <ele>168</ele>
        <time>2016-03-26T10:02:29Z</time>
      </trkpt>
      <trkpt lat="44.21324" lon="4.18838">
        <ele>168</ele>
        <time>2016-03-26T10:04:29Z</time>
      </trkpt>
      <trkpt lat="44.21331" lon="4.18814">
        <ele>167</ele>
        <time>2016-03-26T10:06:29Z</time>
      </trkpt>
      <trkpt lat="44.21349" lon="4.18767">
        <ele>167</ele>
        <time>2016-03-26T10:08:29Z</time>
      </trkpt>
      <trkpt lat="44.21362" lon="4.18731">
        <ele>167</ele>
        <time>2016-03-26T10:10:29Z</time>
      </trkpt>
      <trkpt lat="44.2137" lon="4.18712">
        <ele>167</ele>
        <time>2016-03-26T10:12:29Z</time>
      </trkpt>
      <trkpt lat="44.21378" lon="4.18689">
        <ele>167</ele>
        <time>2016-03-26T10:14:29Z</time>
      </trkpt>
      <trkpt lat="44.21383" lon="4.18674">
        <ele>167</ele>
        <time>2016-03-26T10:16:29Z</time>
      </trkpt>
      <trkpt lat="44.21387" lon="4.18658">
        <ele>167</ele>
        <time>2016-03-26T10:18:29Z</time>
      </trkpt>
      <trkpt lat="44.21394" lon="4.18622">
        <ele>167</ele>
        <time>2016-03-26T10:20:29Z</time>
      </trkpt>
      <trkpt lat="44.21399" lon="4.1859">
        <ele>167</ele>
        <time>2016-03-26T10:22:29Z</time>
      </trkpt>
      <trkpt lat="44.21403" lon="4.18574">
        <ele>167</ele>
        <time>2016-03-26T10:24:29Z</time>
      </trkpt>
      <trkpt lat="44.21406" lon="4.18562">
        <ele>167</ele>
        <time>2016-03-26T10:26:29Z</time>
      </trkpt>
      <trkpt lat="44.21411" lon="4.18544">
        <ele>167</ele>
        <time>2016-03-26T10:28:29Z</time>
      </trkpt>
      <trkpt lat="44.21422" lon="4.18516">
        <ele>168</ele>
        <time>2016-03-26T10:30:29Z</time>
      </trkpt>
      <trkpt lat="44.2144" lon="4.18485">
        <ele>168</ele>
        <time>2016-03-26T10:32:29Z</time>
      </trkpt>
      <trkpt lat="44.21471" lon="4.18437">
        <ele>168</ele>
        <time>2016-03-26T10:34:29Z</time>
      </trkpt>
      <trkpt lat="44.2149" lon="4.18408">
        <ele>168</ele>
        <time>2016-03-26T10:36:29Z</time>
      </trkpt>
      <trkpt lat="44.21495" lon="4.18398">
        <ele>167</ele>
        <time>2016-03-26T10:38:29Z</time>
      </trkpt>
      <trkpt lat="44.215" lon="4.18389">
        <ele>167</ele>
        <time>2016-03-26T10:40:29Z</time>
      </trkpt>
      <trkpt lat="44.21506" lon="4.18374">
        <ele>166</ele>
        <time>2016-03-26T10:42:29Z</time>
      </trkpt>
      <trkpt lat="44.21512" lon="4.18361">
        <ele>166</ele>
        <time>2016-03-26T10:44:29Z</time>
      </trkpt>
      <trkpt lat="44.21515" lon="4.18353">
        <ele>166</ele>
        <time>2016-03-26T10:46:29Z</time>
      </trkpt>
      <trkpt lat="44.21521" lon="4.18334">
        <ele>165</ele>
        <time>2016-03-26T10:48:29Z</time>
      </trkpt>
      <trkpt lat="44.21527" lon="4.183">
        <ele>166</ele>
        <time>2016-03-26T10:50:29Z</time>
      </trkpt>
      <trkpt lat="44.21531" lon="4.18259">
        <ele>168</ele>
        <time>2016-03-26T10:52:29Z</time>
      </trkpt>
      <trkpt lat="44.21531" lon="4.18223">
        <ele>168</ele>
        <time>2016-03-26T10:54:29Z</time>
      </trkpt>
      <trkpt lat="44.2153" lon="4.18185">
        <ele>167</ele>
        <time>2016-03-26T10:56:29Z</time>
      </trkpt>
      <trkpt lat="44.21527" lon="4.18151">
        <ele>166</ele>
        <time>2016-03-26T10:58:29Z</time>
      </trkpt>
      <trkpt lat="44.21527" lon="4.18082">
        <ele>166</ele>
        <time>2016-03-26T11:00:29Z</time>
      </trkpt>
      <trkpt lat="44.21526" lon="4.17972">
        <ele>165</ele>
        <time>2016-03-26T11:02:29Z</time>
      </trkpt>
      <trkpt lat="44.21525" lon="4.17882">
        <ele>165</ele>
        <time>2016-03-26T11:04:29Z</time>
      </trkpt>
      <trkpt lat="44.21525" lon="4.17867">
        <ele>165</ele>
        <time>2016-03-26T11:06:29Z</time>
      </trkpt>
      <trkpt lat="44.21525" lon="4.17812">
        <ele>165</ele>
        <time>2016-03-26T11:08:29Z</time>
      </trkpt>
      <trkpt lat="44.21526" lon="4.17782">
        <ele>166</ele>
        <time>2016-03-26T11:10:29Z</time>
      </trkpt>
      <trkpt lat="44.21529" lon="4.17761">
        <ele>167</ele>
        <time>2016-03-26T11:12:29Z</time>
      </trkpt>
      <trkpt lat="44.21536" lon="4.1774">
        <ele>168</ele>
        <time>2016-03-26T11:14:29Z</time>
      </trkpt>
      <trkpt lat="44.2155" lon="4.17695">
        <ele>169</ele>
        <time>2016-03-26T11:16:29Z</time>
      </trkpt>
      <trkpt lat="44.21567" lon="4.17642">
        <ele>170</ele>
        <time>2016-03-26T11:18:29Z</time>
      </trkpt>
      <trkpt lat="44.21571" lon="4.17631">
        <ele>170</ele>
        <time>2016-03-26T11:20:29Z</time>
      </trkpt>
      <trkpt lat="44.2158" lon="4.17601">
        <ele>169</ele>
        <time>2016-03-26T11:22:29Z</time>
      </trkpt>
      <trkpt lat="44.21591" lon="4.17573">
        <ele>170</ele>
        <time>2016-03-26T11:24:29Z</time>
      </trkpt>
      <trkpt lat="44.21602" lon="4.17549">
        <ele>170</ele>
        <time>2016-03-26T11:26:29Z</time>
      </trkpt>
      <trkpt lat="44.21603" lon="4.17545">
        <ele>170</ele>
        <time>2016-03-26T11:28:29Z</time>
      </trkpt>
      <trkpt lat="44.2161" lon="4.17536">
        <ele>171</ele>
        <time>2016-03-26T11:30:29Z</time>
      </trkpt>
      <trkpt lat="44.21617" lon="4.1753">
        <ele>171</ele>
        <time>2016-03-26T11:32:29Z</time>
      </trkpt>
      <trkpt lat="44.21619" lon="4.17527">
        <ele>171</ele>
        <time>2016-03-26T11:34:29Z</time>
      </trkpt>
      <trkpt lat="44.21631" lon="4.17517">
        <ele>172</ele>
        <time>2016-03-26T11:36:29Z</time>
      </trkpt>
      <trkpt lat="44.2165" lon="4.17503">
        <ele>174</ele>
        <time>2016-03-26T11:38:29Z</time>
      </trkpt>
      <trkpt lat="44.21665" lon="4.17493">
        <ele>174</ele>
        <time>2016-03-26T11:40:29Z</time>
      </trkpt>
      <trkpt lat="44.21679" lon="4.17486">
        <ele>175</ele>
        <time>2016-03-26T11:42:29Z</time>
      </trkpt>
      <trkpt lat="44.21703" lon="4.17473">
        <ele>175</ele>
        <time>2016-03-26T11:44:29Z</time>
      </trkpt>
      <trkpt lat="44.21733" lon="4.1746">
        <ele>175</ele>
        <time>2016-03-26T11:46:29Z</time>
      </trkpt>
      <trkpt lat="44.21771" lon="4.17446">
        <ele>175</ele>
        <time>2016-03-26T11:48:29Z</time>
      </trkpt>
      <trkpt lat="44.21801" lon="4.17436">
        <ele>175</ele>
        <time>2016-03-26T11:50:29Z</time>
      </trkpt>
      <trkpt lat="44.21825" lon="4.1743">
        <ele>175</ele>
        <time>2016-03-26T11:52:29Z</time>
      </trkpt>
      <trkpt lat="44.21863" lon="4.1742">
        <ele>174</ele>
        <time>2016-03-26T11:54:29Z</time>
      </trkpt>
      <trkpt lat="44.21874" lon="4.17418">
        <ele>174</ele>
        <time>2016-03-26T11:56:29Z</time>
      </trkpt>
      <trkpt lat="44.21884" lon="4.17418">
        <ele>174</ele>
        <time>2016-03-26T11:58:29Z</time>
      </trkpt>
      <trkpt lat="44.21892" lon="4.17418">
        <ele>174</ele>
        <time>2016-03-26T12:00:29Z</time>
      </trkpt>
      <trkpt lat="44.21898" lon="4.17418">
        <ele>174</ele>
        <time>2016-03-26T12:02:29Z</time>
      </trkpt>
      <trkpt lat="44.21909" lon="4.17419">
        <ele>174</ele>
        <time>2016-03-26T12:04:29Z</time>
      </trkpt>
      <trkpt lat="44.21929" lon="4.17422">
        <ele>175</ele>
        <time>2016-03-26T12:06:29Z</time>
      </trkpt>
      <trkpt lat="44.21953" lon="4.17426">
        <ele>177</ele>
        <time>2016-03-26T12:08:29Z</time>
      </trkpt>
      <trkpt lat="44.21962" lon="4.17426">
        <ele>177</ele>
        <time>2016-03-26T12:10:29Z</time>
      </trkpt>
      <trkpt lat="44.2197" lon="4.17426">
        <ele>177</ele>
        <time>2016-03-26T12:12:29Z</time>
      </trkpt>
      <trkpt lat="44.2198" lon="4.17425">
        <ele>177</ele>
        <time>2016-03-26T12:14:29Z</time>
      </trkpt>
      <trkpt lat="44.21991" lon="4.17424">
        <ele>177</ele>
        <time>2016-03-26T12:16:29Z</time>
      </trkpt>
      <trkpt lat="44.22006" lon="4.17423">
        <ele>177</ele>
        <time>2016-03-26T12:18:29Z</time>
      </trkpt>
      <trkpt lat="44.22018" lon="4.17422">
        <ele>176</ele>
        <time>2016-03-26T12:20:29Z</time>
      </trkpt>
      <trkpt lat="44.2203" lon="4.17423">
        <ele>176</ele>
        <time>2016-03-26T12:22:29Z</time>
      </trkpt>
      <trkpt lat="44.22042" lon="4.17423">
        <ele>176</ele>
        <time>2016-03-26T12:24:29Z</time>
      </trkpt>
      <trkpt lat="44.22053" lon="4.17424">
        <ele>176</ele>
        <time>2016-03-26T12:26:29Z</time>
      </trkpt>
      <trkpt lat="44.22082" lon="4.17428">
        <ele>175</ele>
        <time>2016-03-26T12:28:29Z</time>
      </trkpt>
      <trkpt lat="44.22098" lon="4.17427">
        <ele>175</ele>
        <time>2016-03-26T12:30:29Z</time>
      </trkpt>
      <trkpt lat="44.22112" lon="4.17425">
        <ele>175</ele>
        <time>2016-03-26T12:32:29Z</time>
      </trkpt>
      <trkpt lat="44.22121" lon="4.1742">
        <ele>175</ele>
        <time>2016-03-26T12:34:29Z</time>
      </trkpt>
      <trkpt lat="44.22128" lon="4.17415">
        <ele>176</ele>
        <time>2016-03-26T12:36:29Z</time>
      </trkpt>
      <trkpt lat="44.22138" lon="4.17405">
        <ele>176</ele>
        <time>2016-03-26T12:38:29Z</time>
      </trkpt>
      <trkpt lat="44.22148" lon="4.17389">
        <ele>176</ele>
        <time>2016-03-26T12:40:29Z</time>
      </trkpt>
      <trkpt lat="44.22163" lon="4.17367">
        <ele>177</ele>
        <time>2016-03-26T12:42:29Z</time>
      </trkpt>
      <trkpt lat="44.22167" lon="4.1736">
        <ele>177</ele>
        <time>2016-03-26T12:44:29Z</time>
      </trkpt>
      <trkpt lat="44.2219" lon="4.17321">
        <ele>178</ele>
        <time>2016-03-26T12:46:29Z</time>
      </trkpt>
      <trkpt lat="44.22197" lon="4.17312">
        <ele>178</ele>
        <time>2016-03-26T12:48:29Z</time>
      </trkpt>
      <trkpt lat="44.22204" lon="4.17304">
        <ele>178</ele>
        <time>2016-03-26T12:50:29Z</time>
      </trkpt>
      <trkpt lat="44.22215" lon="4.17293">
        <ele>179</ele>
        <time>2016-03-26T12:52:29Z</time>
      </trkpt>
      <trkpt lat="44.22226" lon="4.17285">
        <ele>179</ele>
        <time>2016-03-26T12:54:29Z</time>
      </trkpt>
      <trkpt lat="44.22232" lon="4.17281">
        <ele>180</ele>
        <time>2016-03-26T12:56:29Z</time>
      </trkpt>
      <trkpt lat="44.2224" lon="4.17278">
        <ele>180</ele>
        <time>2016-03-26T12:58:29Z</time>
      </trkpt>
      <trkpt lat="44.22246" lon="4.17277">
        <ele>181</ele>
        <time>2016-03-26T13:00:29Z</time>
      </trkpt>
      <trkpt lat="44.22253" lon="4.17277">
        <ele>181</ele>
        <time>2016-03-26T13:02:29Z</time>
      </trkpt>
      <trkpt lat="44.22257" lon="4.17278">
        <ele>181</ele>
        <time>2016-03-26T13:04:29Z</time>
      </trkpt>
      <trkpt lat="44.22261" lon="4.17279">
        <ele>181</ele>
        <time>2016-03-26T13:06:29Z</time>
      </trkpt>
      <trkpt lat="44.22269" lon="4.17282">
        <ele>182</ele>
        <time>2016-03-26T13:08:29Z</time>
      </trkpt>
      <trkpt lat="44.22278" lon="4.17286">
        <ele>182</ele>
        <time>2016-03-26T13:10:29Z</time>
      </trkpt>
      <trkpt lat="44.2228" lon="4.17287">
        <ele>182</ele>
        <time>2016-03-26T13:12:29Z</time>
      </trkpt>
      <trkpt lat="44.22282" lon="4.17288">
        <ele>182</ele>
        <time>2016-03-26T13:14:29Z</time>
      </trkpt>
      <trkpt lat="44.22294" lon="4.17294">
        <ele>183</ele>
        <time>2016-03-26T13:16:29Z</time>
      </trkpt>
      <trkpt lat="44.22302" lon="4.17298">
        <ele>183</ele>
        <time>2016-03-26T13:18:29Z</time>
      </trkpt>
      <trkpt lat="44.22309" lon="4.17301">
        <ele>184</ele>
        <time>2016-03-26T13:20:29Z</time>
      </trkpt>
      <trkpt lat="44.22318" lon="4.17303">
        <ele>184</ele>
        <time>2016-03-26T13:22:29Z</time>
      </trkpt>
      <trkpt lat="44.22325" lon="4.17305">
        <ele>185</ele>
        <time>2016-03-26T13:24:29Z</time>
      </trkpt>
      <trkpt lat="44.22333" lon="4.17305">
        <ele>185</ele>
        <time>2016-03-26T13:26:29Z</time>
      </trkpt>
      <trkpt lat="44.22344" lon="4.17305">
        <ele>185</ele>
        <time>2016-03-26T13:28:29Z</time>
      </trkpt>
      <trkpt lat="44.22348" lon="4.17305">
        <ele>186</ele>
        <time>2016-03-26T13:30:29Z</time>
      </trkpt>
      <trkpt lat="44.2236" lon="4.173">
        <ele>186</ele>
        <time>2016-03-26T13:32:29Z</time>
      </trkpt>
      <trkpt lat="44.22374" lon="4.17291">
        <ele>186</ele>
        <time>2016-03-26T13:34:29Z</time>
      </trkpt>
      <trkpt lat="44.22392" lon="4.17278">
        <ele>185</ele>
        <time>2016-03-26T13:36:29Z</time>
      </trkpt>
      <trkpt lat="44.22409" lon="4.17267">
        <ele>185</ele>
        <time>2016-03-26T13:38:29Z</time>
      </trkpt>
      <trkpt lat="44.22424" lon="4.17259">
        <ele>185</ele>
        <time>2016-03-26T13:40:29Z</time>
      </trkpt>
      <trkpt lat="44.22439" lon="4.17255">
        <ele>185</ele>
        <time>2016-03-26T13:42:29Z</time>
      </trkpt>
      <trkpt lat="44.22453" lon="4.17251">
        <ele>185</ele>
        <time>2016-03-26T13:44:29Z</time>
      </trkpt>
      <trkpt lat="44.22475" lon="4.17248">
        <ele>186</ele>
        <time>2016-03-26T13:46:29Z</time>
      </trkpt>
      <trkpt lat="44.22489" lon="4.17244">
        <ele>186</ele>
        <time>2016-03-26T13:48:29Z</time>
      </trkpt>
      <trkpt lat="44.22501" lon="4.1724">
        <ele>186</ele>
        <time>2016-03-26T13:50:29Z</time>
      </trkpt>
      <trkpt lat="44.22509" lon="4.17237">
        <ele>187</ele>
        <time>2016-03-26T13:52:29Z</time>
      </trkpt>
      <trkpt lat="44.22515" lon="4.17233">
        <ele>187</ele>
        <time>2016-03-26T13:54:29Z</time>
      </trkpt>
      <trkpt lat="44.2252" lon="4.17229">
        <ele>187</ele>
        <time>2016-03-26T13:56:29Z</time>
      </trkpt>
      <trkpt lat="44.22528" lon="4.17223">
        <ele>188</ele>
        <time>2016-03-26T13:58:29Z</time>
      </trkpt>
      <trkpt lat="44.22537" lon="4.17215">
        <ele>188</ele>
        <time>2016-03-26T14:00:29Z</time>
      </trkpt>
      <trkpt lat="44.22542" lon="4.17211">
        <ele>188</ele>
        <time>2016-03-26T14:02:29Z</time>
      </trkpt>
      <trkpt lat="44.22549" lon="4.17204">
        <ele>188</ele>
        <time>2016-03-26T14:04:29Z</time>
      </trkpt>
      <trkpt lat="44.22567" lon="4.17185">
        <ele>188</ele>
        <time>2016-03-26T14:06:29Z</time>
      </trkpt>
      <trkpt lat="44.22586" lon="4.17163">
        <ele>188</ele>
        <time>2016-03-26T14:08:29Z</time>
      </trkpt>
      <trkpt lat="44.22591" lon="4.17158">
        <ele>188</ele>
        <time>2016-03-26T14:10:29Z</time>
      </trkpt>
      <trkpt lat="44.22614" lon="4.17127">
        <ele>189</ele>
        <time>2016-03-26T14:12:29Z</time>
      </trkpt>
      <trkpt lat="44.22619" lon="4.17118">
        <ele>189</ele>
        <time>2016-03-26T14:14:29Z</time>
      </trkpt>
      <trkpt lat="44.22622" lon="4.17113">
        <ele>188</ele>
        <time>2016-03-26T14:16:29Z</time>
      </trkpt>
      <trkpt lat="44.22633" lon="4.17089">
        <ele>188</ele>
        <time>2016-03-26T14:18:29Z</time>
      </trkpt>
      <trkpt lat="44.22648" lon="4.17055">
        <ele>189</ele>
        <time>2016-03-26T14:20:29Z</time>
      </trkpt>
      <trkpt lat="44.22665" lon="4.17011">
        <ele>191</ele>
        <time>2016-03-26T14:22:29Z</time>
      </trkpt>
      <trkpt lat="44.2268" lon="4.16975">
        <ele>192</ele>
        <time>2016-03-26T14:24:29Z</time>
      </trkpt>
      <trkpt lat="44.22692" lon="4.16948">
        <ele>193</ele>
        <time>2016-03-26T14:26:29Z</time>
      </trkpt>
      <trkpt lat="44.22704" lon="4.1692">
        <ele>194</ele>
        <time>2016-03-26T14:28:29Z</time>
      </trkpt>
      <trkpt lat="44.22716" lon="4.16897">
        <ele>194</ele>
        <time>2016-03-26T14:30:29Z</time>
      </trkpt>
      <trkpt lat="44.22729" lon="4.16873">
        <ele>194</ele>
        <time>2016-03-26T14:32:29Z</time>
      </trkpt>
      <trkpt lat="44.22748" lon="4.16835">
        <ele>195</ele>
        <time>2016-03-26T14:34:29Z</time>
      </trkpt>
      <trkpt lat="44.22769" lon="4.16796">
        <ele>197</ele>
        <time>2016-03-26T14:36:29Z</time>
      </trkpt>
      <trkpt lat="44.22794" lon="4.16755">
        <ele>200</ele>
        <time>2016-03-26T14:38:29Z</time>
      </trkpt>
      <trkpt lat="44.22811" lon="4.16729">
        <ele>201</ele>
        <time>2016-03-26T14:40:29Z</time>
      </trkpt>
      <trkpt lat="44.22832" lon="4.16698">
        <ele>203</ele>
        <time>2016-03-26T14:42:29Z</time>
      </trkpt>
      <trkpt lat="44.2285" lon="4.16671">
        <ele>204</ele>
        <time>2016-03-26T14:44:29Z</time>
      </trkpt>
      <trkpt lat="44.22866" lon="4.16646">
        <ele>204</ele>
        <time>2016-03-26T14:46:29Z</time>
      </trkpt>
      <trkpt lat="44.2287" lon="4.16639">
        <ele>204</ele>
        <time>2016-03-26T14:48:29Z</time>
      </trkpt>
      <trkpt lat="44.22875" lon="4.16633">
        <ele>204</ele>
        <time>2016-03-26T14:50:29Z</time>
      </trkpt>
      <trkpt lat="44.22877" lon="4.16626">
        <ele>204</ele>
        <time>2016-03-26T14:52:29Z</time>
      </trkpt>
      <trkpt lat="44.22893" lon="4.16565">
        <ele>202</ele>
        <time>2016-03-26T14:54:29Z</time>
      </trkpt>
      <trkpt lat="44.22895" lon="4.16552">
        <ele>202</ele>
        <time>2016-03-26T14:56:29Z</time>
      </trkpt>
      <trkpt lat="44.22897" lon="4.16541">
        <ele>202</ele>
        <time>2016-03-26T14:58:29Z</time>
      </trkpt>
      <trkpt lat="44.22897" lon="4.16519">
        <ele>202</ele>
        <time>2016-03-26T15:00:29Z</time>
      </trkpt>
      <trkpt lat="44.22894" lon="4.16504">
        <ele>201</ele>
        <time>2016-03-26T15:02:29Z</time>
      </trkpt>
      <trkpt lat="44.22891" lon="4.16492">
        <ele>201</ele>
        <time>2016-03-26T15:04:29Z</time>
      </trkpt>
      <trkpt lat="44.22887" lon="4.16481">
        <ele>201</ele>
        <time>2016-03-26T15:06:29Z</time>
      </trkpt>
      <trkpt lat="44.22883" lon="4.16473">
        <ele>200</ele>
        <time>2016-03-26T15:08:29Z</time>
      </trkpt>
      <trkpt lat="44.22873" lon="4.16458">
        <ele>199</ele>
        <time>2016-03-26T15:10:29Z</time>
      </trkpt>
      <trkpt lat="44.22864" lon="4.1645">
        <ele>199</ele>
        <time>2016-03-26T15:12:29Z</time>
      </trkpt>
      <trkpt lat="44.22848" lon="4.16437">
        <ele>198</ele>
        <time>2016-03-26T15:14:29Z</time>
      </trkpt>
      <trkpt lat="44.22834" lon="4.16427">
        <ele>196</ele>
        <time>2016-03-26T15:16:29Z</time>
      </trkpt>
      <trkpt lat="44.22812" lon="4.16415">
        <ele>196</ele>
        <time>2016-03-26T15:18:29Z</time>
      </trkpt>
      <trkpt lat="44.2281" lon="4.16413">
        <ele>196</ele>
        <time>2016-03-26T15:20:29Z</time>
      </trkpt>
      <trkpt lat="44.22798" lon="4.16406">
        <ele>195</ele>
        <time>2016-03-26T15:22:29Z</time>
      </trkpt>
      <trkpt lat="44.22789" lon="4.164">
        <ele>195</ele>
        <time>2016-03-26T15:24:29Z</time>
      </trkpt>
      <trkpt lat="44.22781" lon="4.16394">
        <ele>195</ele>
        <time>2016-03-26T15:26:29Z</time>
      </trkpt>
      <trkpt lat="44.22778" lon="4.16392">
        <ele>195</ele>
        <time>2016-03-26T15:28:29Z</time>
      </trkpt>
      <trkpt lat="44.22771" lon="4.16386">
        <ele>195</ele>
        <time>2016-03-26T15:30:29Z</time>
      </trkpt>
      <trkpt lat="44.22764" lon="4.16381">
        <ele>194</ele>
        <time>2016-03-26T15:32:29Z</time>
      </trkpt>
      <trkpt lat="44.22757" lon="4.16377">
        <ele>194</ele>
        <time>2016-03-26T15:34:29Z</time>
      </trkpt>
      <trkpt lat="44.22756" lon="4.16376">
        <ele>194</ele>
        <time>2016-03-26T15:36:29Z</time>
      </trkpt>
      <trkpt lat="44.22753" lon="4.16371">
        <ele>194</ele>
        <time>2016-03-26T15:38:29Z</time>
      </trkpt>
      <trkpt lat="44.2275" lon="4.16369">
        <ele>194</ele>
        <time>2016-03-26T15:40:29Z</time>
      </trkpt>
      <trkpt lat="44.22746" lon="4.16366">
        <ele>194</ele>
        <time>2016-03-26T15:42:29Z</time>
      </trkpt>
      <trkpt lat="44.22741" lon="4.16364">
        <ele>194</ele>
        <time>2016-03-26T15:44:29Z</time>
      </trkpt>
      <trkpt lat="44.22741" lon="4.16364">
        <ele>194</ele>
        <time>2016-03-26T15:46:29Z</time>
      </trkpt>
      <trkpt lat="44.2274" lon="4.16361">
        <ele>194</ele>
        <time>2016-03-26T15:48:29Z</time>
      </trkpt>
      <trkpt lat="44.2274" lon="4.16359">
        <ele>194</ele>
        <time>2016-03-26T15:50:29Z</time>
      </trkpt>
      <trkpt lat="44.22739" lon="4.16357">
        <ele>194</ele>
        <time>2016-03-26T15:52:29Z</time>
      </trkpt>
      <trkpt lat="44.22738" lon="4.16356">
        <ele>193</ele>
        <time>2016-03-26T15:54:29Z</time>
      </trkpt>
      <trkpt lat="44.22736" lon="4.16355">
        <ele>193</ele>
        <time>2016-03-26T15:56:29Z</time>
      </trkpt>
      <trkpt lat="44.22735" lon="4.16354">
        <ele>193</ele>
        <time>2016-03-26T15:58:29Z</time>
      </trkpt>
      <trkpt lat="44.22733" lon="4.16353">
        <ele>193</ele>
        <time>2016-03-26T16:00:29Z</time>
      </trkpt>
      <trkpt lat="44.22732" lon="4.16349">
        <ele>193</ele>
        <time>2016-03-26T16:02:29Z</time>
      </trkpt>
      <trkpt lat="44.22732" lon="4.16344">
        <ele>193</ele>
        <time>2016-03-26T16:04:29Z</time>
      </trkpt>
      <trkpt lat="44.22732" lon="4.16333">
        <ele>193</ele>
        <time>2016-03-26T16:06:29Z</time>
      </trkpt>
      <trkpt lat="44.22733" lon="4.16328">
        <ele>193</ele>
        <time>2016-03-26T16:08:29Z</time>
      </trkpt>
      <trkpt lat="44.22731" lon="4.1632">
        <ele>193</ele>
        <time>2016-03-26T16:10:29Z</time>
      </trkpt>
      <trkpt lat="44.22733" lon="4.16305">
        <ele>193</ele>
        <time>2016-03-26T16:12:29Z</time>
      </trkpt>
      <trkpt lat="44.22735" lon="4.16289">
        <ele>194</ele>
        <time>2016-03-26T16:14:29Z</time>
      </trkpt>
      <trkpt lat="44.22737" lon="4.16277">
        <ele>194</ele>
        <time>2016-03-26T16:16:29Z</time>
      </trkpt>
      <trkpt lat="44.22744" lon="4.16256">
        <ele>195</ele>
        <time>2016-03-26T16:18:29Z</time>
      </trkpt>
      <trkpt lat="44.22744" lon="4.16256">
        <ele>195</ele>
        <time>2016-03-26T16:20:29Z</time>
      </trkpt>
      <trkpt lat="44.22745" lon="4.16257">
        <ele>195</ele>
        <time>2016-03-26T16:22:29Z</time>
      </trkpt>
      <trkpt lat="44.22747" lon="4.16257">
        <ele>195</ele>
        <time>2016-03-26T16:24:29Z</time>
      </trkpt>
      <trkpt lat="44.22748" lon="4.16256">
        <ele>195</ele>
        <time>2016-03-26T16:26:29Z</time>
      </trkpt>
      <trkpt lat="44.2275" lon="4.16256">
        <ele>195</ele>
        <time>2016-03-26T16:28:29Z</time>
      </trkpt>
      <trkpt lat="44.22751" lon="4.16256">
        <ele>195</ele>
        <time>2016-03-26T16:30:29Z</time>
      </trkpt>
      <trkpt lat="44.22753" lon="4.16255">
        <ele>195</ele>
        <time>2016-03-26T16:32:29Z</time>
      </trkpt>
      <trkpt lat="44.22754" lon="4.16254">
        <ele>195</ele>
        <time>2016-03-26T16:34:29Z</time>
      </trkpt>
      <trkpt lat="44.22755" lon="4.16253">
        <ele>195</ele>
        <time>2016-03-26T16:36:29Z</time>
      </trkpt>
      <trkpt lat="44.22757" lon="4.16252">
        <ele>195</ele>
        <time>2016-03-26T16:38:29Z</time>
      </trkpt>
      <trkpt lat="44.22758" lon="4.16251">
        <ele>195</ele>
        <time>2016-03-26T16:40:29Z</time>
      </trkpt>
      <trkpt lat="44.22759" lon="4.1625">
        <ele>195</ele>
        <time>2016-03-26T16:42:29Z</time>
      </trkpt>
      <trkpt lat="44.2276" lon="4.16248">
        <ele>196</ele>
        <time>2016-03-26T16:44:29Z</time>
      </trkpt>
      <trkpt lat="44.22761" lon="4.16247">
        <ele>196</ele>
        <time>2016-03-26T16:46:29Z</time>
      </trkpt>
      <trkpt lat="44.22762" lon="4.16245">
        <ele>196</ele>
        <time>2016-03-26T16:48:29Z</time>
      </trkpt>
      <trkpt lat="44.22762" lon="4.16243">
        <ele>196</ele>
        <time>2016-03-26T16:50:29Z</time>
      </trkpt>
      <trkpt lat="44.22763" lon="4.16241">
        <ele>196</ele>
        <time>2016-03-26T16:52:29Z</time>
      </trkpt>
      <trkpt lat="44.22764" lon="4.16239">
        <ele>196</ele>
        <time>2016-03-26T16:54:29Z</time>
      </trkpt>
      <trkpt lat="44.22764" lon="4.16237">
        <ele>196</ele>
        <time>2016-03-26T16:56:29Z</time>
      </trkpt>
      <trkpt lat="44.22764" lon="4.16235">
        <ele>196</ele>
        <time>2016-03-26T16:58:29Z</time>
      </trkpt>
      <trkpt lat="44.22764" lon="4.16233">
        <ele>196</ele>
        <time>2016-03-26T17:00:29Z</time>
      </trkpt>
      <trkpt lat="44.22764" lon="4.16231">
        <ele>197</ele>
        <time>2016-03-26T17:02:29Z</time>
      </trkpt>
      <trkpt lat="44.22764" lon="4.16229">
        <ele>197</ele>
        <time>2016-03-26T17:04:29Z</time>
      </trkpt>
      <trkpt lat="44.22764" lon="4.16227">
        <ele>197</ele>
        <time>2016-03-26T17:06:29Z</time>
      </trkpt>
      <trkpt lat="44.22764" lon="4.16225">
        <ele>197</ele>
        <time>2016-03-26T17:08:29Z</time>
      </trkpt>
      <trkpt lat="44.22763" lon="4.16223">
        <ele>197</ele>
        <time>2016-03-26T17:10:29Z</time>
      </trkpt>
      <trkpt lat="44.22763" lon="4.16221">
        <ele>197</ele>
        <time>2016-03-26T17:12:29Z</time>
      </trkpt>
      <trkpt lat="44.22762" lon="4.16219">
        <ele>197</ele>
        <time>2016-03-26T17:14:29Z</time>
      </trkpt>
      <trkpt lat="44.22761" lon="4.16217">
        <ele>197</ele>
        <time>2016-03-26T17:16:29Z</time>
      </trkpt>
      <trkpt lat="44.2276" lon="4.16216">
        <ele>197</ele>
        <time>2016-03-26T17:18:29Z</time>
      </trkpt>
      <trkpt lat="44.2276" lon="4.16214">
        <ele>197</ele>
        <time>2016-03-26T17:20:29Z</time>
      </trkpt>
      <trkpt lat="44.22759" lon="4.16213">
        <ele>197</ele>
        <time>2016-03-26T17:22:29Z</time>
      </trkpt>
      <trkpt lat="44.22758" lon="4.16212">
        <ele>197</ele>
        <time>2016-03-26T17:24:29Z</time>
      </trkpt>
      <trkpt lat="44.22757" lon="4.16211">
        <ele>197</ele>
        <time>2016-03-26T17:26:29Z</time>
      </trkpt>
      <trkpt lat="44.22756" lon="4.1621">
        <ele>197</ele>
        <time>2016-03-26T17:28:29Z</time>
      </trkpt>
      <trkpt lat="44.22755" lon="4.1621">
        <ele>197</ele>
        <time>2016-03-26T17:30:29Z</time>
      </trkpt>
      <trkpt lat="44.22754" lon="4.16209">
        <ele>197</ele>
        <time>2016-03-26T17:32:29Z</time>
      </trkpt>
      <trkpt lat="44.22751" lon="4.16195">
        <ele>197</ele>
        <time>2016-03-26T17:34:29Z</time>
      </trkpt>
      <trkpt lat="44.22748" lon="4.16186">
        <ele>197</ele>
        <time>2016-03-26T17:36:29Z</time>
      </trkpt>
      <trkpt lat="44.22746" lon="4.16173">
        <ele>197</ele>
        <time>2016-03-26T17:38:29Z</time>
      </trkpt>
      <trkpt lat="44.22744" lon="4.16161">
        <ele>198</ele>
        <time>2016-03-26T17:40:29Z</time>
      </trkpt>
      <trkpt lat="44.2274" lon="4.16149">
        <ele>199</ele>
        <time>2016-03-26T17:42:29Z</time>
      </trkpt>
      <trkpt lat="44.22732" lon="4.16094">
        <ele>203</ele>
        <time>2016-03-26T17:44:29Z</time>
      </trkpt>
      <trkpt lat="44.22726" lon="4.16071">
        <ele>205</ele>
        <time>2016-03-26T17:46:29Z</time>
      </trkpt>
      <trkpt lat="44.22718" lon="4.16043">
        <ele>207</ele>
        <time>2016-03-26T17:48:29Z</time>
      </trkpt>
      <trkpt lat="44.22714" lon="4.1603">
        <ele>207</ele>
        <time>2016-03-26T17:50:29Z</time>
      </trkpt>
      <trkpt lat="44.22713" lon="4.16028">
        <ele>207</ele>
        <time>2016-03-26T17:52:29Z</time>
      </trkpt>
      <trkpt lat="44.22703" lon="4.15991">
        <ele>208</ele>
        <time>2016-03-26T17:54:29Z</time>
      </trkpt>
      <trkpt lat="44.22698" lon="4.15971">
        <ele>207</ele>
        <time>2016-03-26T17:56:29Z</time>
      </trkpt>
      <trkpt lat="44.22695" lon="4.15958">
        <ele>207</ele>
        <time>2016-03-26T17:58:29Z</time>
      </trkpt>
      <trkpt lat="44.22694" lon="4.15946">
        <ele>207</ele>
        <time>2016-03-26T18:00:29Z</time>
      </trkpt>
      <trkpt lat="44.22694" lon="4.15936">
        <ele>207</ele>
        <time>2016-03-26T18:02:29Z</time>
      </trkpt>
      <trkpt lat="44.22695" lon="4.15927">
        <ele>208</ele>
        <time>2016-03-26T18:04:29Z</time>
      </trkpt>
      <trkpt lat="44.22696" lon="4.15918">
        <ele>208</ele>
        <time>2016-03-26T18:06:29Z</time>
      </trkpt>
      <trkpt lat="44.22698" lon="4.15906">
        <ele>208</ele>
        <time>2016-03-26T18:08:29Z</time>
      </trkpt>
      <trkpt lat="44.227" lon="4.159">
        <ele>208</ele>
        <time>2016-03-26T18:10:29Z</time>
      </trkpt>
      <trkpt lat="44.22704" lon="4.15887">
        <ele>207</ele>
        <time>2016-03-26T18:12:29Z</time>
      </trkpt>
      <trkpt lat="44.22709" lon="4.1587">
        <ele>206</ele>
        <time>2016-03-26T18:14:29Z</time>
      </trkpt>
      <trkpt lat="44.22714" lon="4.15858">
        <ele>206</ele>
        <time>2016-03-26T18:16:29Z</time>
      </trkpt>
      <trkpt lat="44.22716" lon="4.15851">
        <ele>205</ele>
        <time>2016-03-26T18:18:29Z</time>
      </trkpt>
      <trkpt lat="44.22722" lon="4.15843">
        <ele>205</ele>
        <time>2016-03-26T18:20:29Z</time>
      </trkpt>
      <trkpt lat="44.22739" lon="4.15822">
        <ele>205</ele>
        <time>2016-03-26T18:22:29Z</time>
      </trkpt>
      <trkpt lat="44.22761" lon="4.15796">
        <ele>206</ele>
        <time>2016-03-26T18:24:29Z</time>
      </trkpt>
      <trkpt lat="44.2278" lon="4.15775">
        <ele>208</ele>
        <time>2016-03-26T18:26:29Z</time>
      </trkpt>
      <trkpt lat="44.22802" lon="4.15746">
        <ele>209</ele>
        <time>2016-03-26T18:28:29Z</time>
      </trkpt>
      <trkpt lat="44.22819" lon="4.1572">
        <ele>210</ele>
        <time>2016-03-26T18:30:29Z</time>
      </trkpt>
      <trkpt lat="44.22823" lon="4.15711">
        <ele>209</ele>
        <time>2016-03-26T18:32:29Z</time>
      </trkpt>
      <trkpt lat="44.22836" lon="4.15689">
        <ele>207</ele>
        <time>2016-03-26T18:34:29Z</time>
      </trkpt>
      <trkpt lat="44.22846" lon="4.15666">
        <ele>206</ele>
        <time>2016-03-26T18:36:29Z</time>
      </trkpt>
      <trkpt lat="44.22849" lon="4.15661">
        <ele>207</ele>
        <time>2016-03-26T18:38:29Z</time>
      </trkpt>
      <trkpt lat="44.22859" lon="4.15634">
        <ele>209</ele>
        <time>2016-03-26T18:40:29Z</time>
      </trkpt>
      <trkpt lat="44.22863" lon="4.15624">
        <ele>209</ele>
        <time>2016-03-26T18:42:29Z</time>
      </trkpt>
      <trkpt lat="44.22866" lon="4.15616">
        <ele>210</ele>
        <time>2016-03-26T18:44:29Z</time>
      </trkpt>
      <trkpt lat="44.22872" lon="4.15596">
        <ele>210</ele>
        <time>2016-03-26T18:46:29Z</time>
      </trkpt>
      <trkpt lat="44.22875" lon="4.15579">
        <ele>210</ele>
        <time>2016-03-26T18:48:29Z</time>
      </trkpt>
      <trkpt lat="44.22878" lon="4.15552">
        <ele>209</ele>
        <time>2016-03-26T18:50:29Z</time>
      </trkpt>
      <trkpt lat="44.22883" lon="4.15526">
        <ele>208</ele>
        <time>2016-03-26T18:52:29Z</time>
      </trkpt>
      <trkpt lat="44.22888" lon="4.15498">
        <ele>207</ele>
        <time>2016-03-26T18:54:29Z</time>
      </trkpt>
      <trkpt lat="44.22896" lon="4.15463">
        <ele>205</ele>
        <time>2016-03-26T18:56:29Z</time>
      </trkpt>
      <trkpt lat="44.22897" lon="4.15457">
        <ele>205</ele>
        <time>2016-03-26T18:58:29Z</time>
      </trkpt>
      <trkpt lat="44.22905" lon="4.15421">
        <ele>203</ele>
        <time>2016-03-26T19:00:29Z</time>
      </trkpt>
      <trkpt lat="44.22914" lon="4.15375">
        <ele>202</ele>
        <time>2016-03-26T19:02:29Z</time>
      </trkpt>
      <trkpt lat="44.22922" lon="4.15337">
        <ele>202</ele>
        <time>2016-03-26T19:04:29Z</time>
      </trkpt>
      <trkpt lat="44.22924" lon="4.15314">
        <ele>203</ele>
        <time>2016-03-26T19:06:29Z</time>
      </trkpt>
      <trkpt lat="44.22926" lon="4.15294">
        <ele>204</ele>
        <time>2016-03-26T19:08:29Z</time>
      </trkpt>
      <trkpt lat="44.22927" lon="4.15275">
        <ele>204</ele>
        <time>2016-03-26T19:10:29Z</time>
      </trkpt>
      <trkpt lat="44.22925" lon="4.15233">
        <ele>205</ele>
        <time>2016-03-26T19:12:29Z</time>
      </trkpt>
      <trkpt lat="44.22924" lon="4.152">
        <ele>207</ele>
        <time>2016-03-26T19:14:29Z</time>
      </trkpt>
      <trkpt lat="44.2292" lon="4.15151">
        <ele>209</ele>
        <time>2016-03-26T19:16:29Z</time>
      </trkpt>
      <trkpt lat="44.22919" lon="4.1511">
        <ele>210</ele>
        <time>2016-03-26T19:18:29Z</time>
      </trkpt>
      <trkpt lat="44.22916" lon="4.15071">
        <ele>211</ele>
        <time>2016-03-26T19:20:29Z</time>
      </trkpt>
      <trkpt lat="44.22914" lon="4.15048">
        <ele>213</ele>
        <time>2016-03-26T19:22:29Z</time>
      </trkpt>
      <trkpt lat="44.22913" lon="4.15021">
        <ele>216</ele>
        <time>2016-03-26T19:24:29Z</time>
      </trkpt>
      <trkpt lat="44.22913" lon="4.14988">
        <ele>217</ele>
        <time>2016-03-26T19:26:29Z</time>
      </trkpt>
      <trkpt lat="44.22915" lon="4.14974">
        <ele>216</ele>
        <time>2016-03-26T19:28:29Z</time>
      </trkpt>
      <trkpt lat="44.22916" lon="4.14964">
        <ele>216</ele>
        <time>2016-03-26T19:30:29Z</time>
      </trkpt>
      <trkpt lat="44.2292" lon="4.1495">
        <ele>215</ele>
        <time>2016-03-26T19:32:29Z</time>
      </trkpt>
      <trkpt lat="44.22927" lon="4.1493">
        <ele>215</ele>
        <time>2016-03-26T19:34:29Z</time>
      </trkpt>
      <trkpt lat="44.22932" lon="4.14919">
        <ele>216</ele>
        <time>2016-03-26T19:36:29Z</time>
      </trkpt>
      <trkpt lat="44.2294" lon="4.14913">
        <ele>217</ele>
        <time>2016-03-26T19:38:29Z</time>
      </trkpt>
      <trkpt lat="44.22956" lon="4.14894">
        <ele>217</ele>
        <time>2016-03-26T19:40:29Z</time>
      </trkpt>
      <trkpt lat="44.22965" lon="4.14881">
        <ele>217</ele>
        <time>2016-03-26T19:42:29Z</time>
      </trkpt>
      <trkpt lat="44.2301" lon="4.14824">
        <ele>217</ele>
        <time>2016-03-26T19:44:29Z</time>
      </trkpt>
      <trkpt lat="44.23031" lon="4.14796">
        <ele>219</ele>
        <time>2016-03-26T19:46:29Z</time>
      </trkpt>
      <trkpt lat="44.23038" lon="4.14787">
        <ele>220</ele>
        <time>2016-03-26T19:48:29Z</time>
      </trkpt>
      <trkpt lat="44.23045" lon="4.14778">
        <ele>220</ele>
        <time>2016-03-26T19:50:29Z</time>
      </trkpt>
      <trkpt lat="44.23074" lon="4.14742">
        <ele>222</ele>
        <time>2016-03-26T19:52:29Z</time>
      </trkpt>
      <trkpt lat="44.2309" lon="4.14718">
        <ele>224</ele>
        <time>2016-03-26T19:54:29Z</time>
      </trkpt>
      <trkpt lat="44.23093" lon="4.14707">
        <ele>224</ele>
        <time>2016-03-26T19:56:29Z</time>
      </trkpt>
      <trkpt lat="44.23099" lon="4.147">
        <ele>225</ele>
        <time>2016-03-26T19:58:29Z</time>
      </trkpt>
      <trkpt lat="44.23104" lon="4.14694">
        <ele>226</ele>
        <time>2016-03-26T20:00:29Z</time>
      </trkpt>
      <trkpt lat="44.23117" lon="4.14675">
        <ele>228</ele>
        <time>2016-03-26T20:02:29Z</time>
      </trkpt>
      <trkpt lat="44.23125" lon="4.14661">
        <ele>229</ele>
        <time>2016-03-26T20:04:29Z</time>
      </trkpt>
      <trkpt lat="44.23137" lon="4.14641">
        <ele>231</ele>
        <time>2016-03-26T20:06:29Z</time>
      </trkpt>
      <trkpt lat="44.23143" lon="4.1463">
        <ele>232</ele>
        <time>2016-03-26T20:08:29Z</time>
      </trkpt>
      <trkpt lat="44.23153" lon="4.14609">
        <ele>232</ele>
        <time>2016-03-26T20:10:29Z</time>
      </trkpt>
      <trkpt lat="44.23163" lon="4.1459">
        <ele>233</ele>
        <time>2016-03-26T20:12:29Z</time>
      </trkpt>
      <trkpt lat="44.23173" lon="4.1457">
        <ele>234</ele>
        <time>2016-03-26T20:14:29Z</time>
      </trkpt>
      <trkpt lat="44.23195" lon="4.14532">
        <ele>235</ele>
        <time>2016-03-26T20:16:29Z</time>
      </trkpt>
      <trkpt lat="44.23214" lon="4.145">
        <ele>236</ele>
        <time>2016-03-26T20:18:29Z</time>
      </trkpt>
      <trkpt lat="44.23234" lon="4.14471">
        <ele>236</ele>
        <time>2016-03-26T20:20:29Z</time>
      </trkpt>
      <trkpt lat="44.23254" lon="4.14441">
        <ele>235</ele>
        <time>2016-03-26T20:22:29Z</time>
      </trkpt>
      <trkpt lat="44.23278" lon="4.1441">
        <ele>237</ele>
        <time>2016-03-26T20:24:29Z</time>
      </trkpt>
      <trkpt lat="44.23292" lon="4.14393">
        <ele>239</ele>
        <time>2016-03-26T20:26:29Z</time>
      </trkpt>
      <trkpt lat="44.23316" lon="4.14361">
        <ele>240</ele>
        <time>2016-03-26T20:28:29Z</time>
      </trkpt>
      <trkpt lat="44.2334" lon="4.14329">
        <ele>240</ele>
        <time>2016-03-26T20:30:29Z</time>
      </trkpt>
      <trkpt lat="44.23356" lon="4.14307">
        <ele>241</ele>
        <time>2016-03-26T20:32:29Z</time>
      </trkpt>
      <trkpt lat="44.23378" lon="4.14275">
        <ele>242</ele>
        <time>2016-03-26T20:34:29Z</time>
      </trkpt>
      <trkpt lat="44.23384" lon="4.14266">
        <ele>242</ele>
        <time>2016-03-26T20:36:29Z</time>
      </trkpt>
      <trkpt lat="44.23388" lon="4.14259">
        <ele>242</ele>
        <time>2016-03-26T20:38:29Z</time>
      </trkpt>
      <trkpt lat="44.23396" lon="4.14242">
        <ele>241</ele>
        <time>2016-03-26T20:40:29Z</time>
      </trkpt>
      <trkpt lat="44.23407" lon="4.14221">
        <ele>241</ele>
        <time>2016-03-26T20:42:29Z</time>
      </trkpt>
      <trkpt lat="44.23414" lon="4.14205">
        <ele>241</ele>
        <time>2016-03-26T20:44:29Z</time>
      </trkpt>
      <trkpt lat="44.2342" lon="4.14188">
        <ele>241</ele>
        <time>2016-03-26T20:46:29Z</time>
      </trkpt>
      <trkpt lat="44.23428" lon="4.14165">
        <ele>241</ele>
        <time>2016-03-26T20:48:29Z</time>
      </trkpt>
      <trkpt lat="44.23429" lon="4.14161">
        <ele>241</ele>
        <time>2016-03-26T20:50:29Z</time>
      </trkpt>
      <trkpt lat="44.23431" lon="4.14156">
        <ele>241</ele>
        <time>2016-03-26T20:52:29Z</time>
      </trkpt>
      <trkpt lat="44.23434" lon="4.14146">
        <ele>240</ele>
        <time>2016-03-26T20:54:29Z</time>
      </trkpt>
      <trkpt lat="44.2344" lon="4.14129">
        <ele>239</ele>
        <time>2016-03-26T20:56:29Z</time>
      </trkpt>
      <trkpt lat="44.23442" lon="4.14121">
        <ele>239</ele>
        <time>2016-03-26T20:58:29Z</time>
      </trkpt>
      <trkpt lat="44.23445" lon="4.14111">
        <ele>238</ele>
        <time>2016-03-26T21:00:29Z</time>
      </trkpt>
      <trkpt lat="44.23448" lon="4.14098">
        <ele>237</ele>
        <time>2016-03-26T21:02:29Z</time>
      </trkpt>
      <trkpt lat="44.23452" lon="4.14077">
        <ele>235</ele>
        <time>2016-03-26T21:04:29Z</time>
      </trkpt>
      <trkpt lat="44.23454" lon="4.14071">
        <ele>235</ele>
        <time>2016-03-26T21:06:29Z</time>
      </trkpt>
      <trkpt lat="44.23455" lon="4.14066">
        <ele>235</ele>
        <time>2016-03-26T21:08:29Z</time>
      </trkpt>
      <trkpt lat="44.23457" lon="4.14056">
        <ele>234</ele>
        <time>2016-03-26T21:10:29Z</time>
      </trkpt>
      <trkpt lat="44.23458" lon="4.14045">
        <ele>233</ele>
        <time>2016-03-26T21:12:29Z</time>
      </trkpt>
      <trkpt lat="44.23459" lon="4.1404">
        <ele>232</ele>
        <time>2016-03-26T21:14:29Z</time>
      </trkpt>
      <trkpt lat="44.23461" lon="4.1403">
        <ele>232</ele>
        <time>2016-03-26T21:16:29Z</time>
      </trkpt>
      <trkpt lat="44.23462" lon="4.14021">
        <ele>231</ele>
        <time>2016-03-26T21:18:29Z</time>
      </trkpt>
      <trkpt lat="44.23463" lon="4.14014">
        <ele>230</ele>
        <time>2016-03-26T21:20:29Z</time>
      </trkpt>
      <trkpt lat="44.23464" lon="4.14009">
        <ele>230</ele>
        <time>2016-03-26T21:22:29Z</time>
      </trkpt>
      <trkpt lat="44.23468" lon="4.13991">
        <ele>229</ele>
        <time>2016-03-26T21:24:29Z</time>
      </trkpt>
      <trkpt lat="44.23469" lon="4.13984">
        <ele>229</ele>
        <time>2016-03-26T21:26:29Z</time>
      </trkpt>
      <trkpt lat="44.23471" lon="4.13975">
        <ele>229</ele>
        <time>2016-03-26T21:28:29Z</time>
      </trkpt>
      <trkpt lat="44.23473" lon="4.13964">
        <ele>228</ele>
        <time>2016-03-26T21:30:29Z</time>
      </trkpt>
      <trkpt lat="44.23477" lon="4.13937">
        <ele>227</ele>
        <time>2016-03-26T21:32:29Z</time>
      </trkpt>
      <trkpt lat="44.23483" lon="4.13903">
        <ele>225</ele>
        <time>2016-03-26T21:34:29Z</time>
      </trkpt>
      <trkpt lat="44.23485" lon="4.1389">
        <ele>224</ele>
        <time>2016-03-26T21:36:29Z</time>
      </trkpt>
      <trkpt lat="44.23487" lon="4.13881">
        <ele>223</ele>
        <time>2016-03-26T21:38:29Z</time>
      </trkpt>
      <trkpt lat="44.23498" lon="4.13852">
        <ele>220</ele>
        <time>2016-03-26T21:40:29Z</time>
      </trkpt>
      <trkpt lat="44.23509" lon="4.13824">
        <ele>219</ele>
        <time>2016-03-26T21:42:29Z</time>
      </trkpt>
      <trkpt lat="44.23514" lon="4.13812">
        <ele>219</ele>
        <time>2016-03-26T21:44:29Z</time>
      </trkpt>
      <trkpt lat="44.23524" lon="4.13787">
        <ele>218</ele>
        <time>2016-03-26T21:46:29Z</time>
      </trkpt>
      <trkpt lat="44.23535" lon="4.13764">
        <ele>217</ele>
        <time>2016-03-26T21:48:29Z</time>
      </trkpt>
      <trkpt lat="44.23543" lon="4.13744">
        <ele>216</ele>
        <time>2016-03-26T21:50:29Z</time>
      </trkpt>
      <trkpt lat="44.23552" lon="4.13725">
        <ele>217</ele>
        <time>2016-03-26T21:52:29Z</time>
      </trkpt>
      <trkpt lat="44.23559" lon="4.13705">
        <ele>217</ele>
        <time>2016-03-26T21:54:29Z</time>
      </trkpt>
      <trkpt lat="44.23564" lon="4.13684">
        <ele>216</ele>
        <time>2016-03-26T21:56:29Z</time>
      </trkpt>
      <trkpt lat="44.23571" lon="4.13664">
        <ele>216</ele>
        <time>2016-03-26T21:58:29Z</time>
      </trkpt>
      <trkpt lat="44.23573" lon="4.13654">
        <ele>216</ele>
        <time>2016-03-26T22:00:29Z</time>
      </trkpt>
      <trkpt lat="44.23575" lon="4.13649">
        <ele>216</ele>
        <time>2016-03-26T22:02:29Z</time>
      </trkpt>
      <trkpt lat="44.23584" lon="4.13624">
        <ele>217</ele>
        <time>2016-03-26T22:04:29Z</time>
      </trkpt>
      <trkpt lat="44.23595" lon="4.13596">
        <ele>220</ele>
        <time>2016-03-26T22:06:29Z</time>
      </trkpt>
      <trkpt lat="44.2361" lon="4.13565">
        <ele>223</ele>
        <time>2016-03-26T22:08:29Z</time>
      </trkpt>
      <trkpt lat="44.23621" lon="4.13538">
        <ele>225</ele>
        <time>2016-03-26T22:10:29Z</time>
      </trkpt>
      <trkpt lat="44.23631" lon="4.13517">
        <ele>227</ele>
        <time>2016-03-26T22:12:29Z</time>
      </trkpt>
      <trkpt lat="44.23637" lon="4.13501">
        <ele>228</ele>
        <time>2016-03-26T22:14:29Z</time>
      </trkpt>
      <trkpt lat="44.23645" lon="4.13485">
        <ele>229</ele>
        <time>2016-03-26T22:16:29Z</time>
      </trkpt>
      <trkpt lat="44.23646" lon="4.13469">
        <ele>230</ele>
        <time>2016-03-26T22:18:29Z</time>
      </trkpt>
      <trkpt lat="44.23647" lon="4.13455">
        <ele>230</ele>
        <time>2016-03-26T22:20:29Z</time>
      </trkpt>
      <trkpt lat="44.23648" lon="4.13438">
        <ele>230</ele>
        <time>2016-03-26T22:22:29Z</time>
      </trkpt>
      <trkpt lat="44.2365" lon="4.13427">
        <ele>230</ele>
        <time>2016-03-26T22:24:29Z</time>
      </trkpt>
      <trkpt lat="44.23651" lon="4.13415">
        <ele>231</ele>
        <time>2016-03-26T22:26:29Z</time>
      </trkpt>
      <trkpt lat="44.23655" lon="4.13395">
        <ele>233</ele>
        <time>2016-03-26T22:28:29Z</time>
      </trkpt>
      <trkpt lat="44.23659" lon="4.1337">
        <ele>235</ele>
        <time>2016-03-26T22:30:29Z</time>
      </trkpt>
      <trkpt lat="44.2366" lon="4.13357">
        <ele>236</ele>
        <time>2016-03-26T22:32:29Z</time>
      </trkpt>
      <trkpt lat="44.2366" lon="4.13354">
        <ele>237</ele>
        <time>2016-03-26T22:34:29Z</time>
      </trkpt>
      <trkpt lat="44.2366" lon="4.13352">
        <ele>237</ele>
        <time>2016-03-26T22:36:29Z</time>
      </trkpt>
      <trkpt lat="44.23659" lon="4.13349">
        <ele>237</ele>
        <time>2016-03-26T22:38:29Z</time>
      </trkpt>
      <trkpt lat="44.23658" lon="4.13346">
        <ele>236</ele>
        <time>2016-03-26T22:40:29Z</time>
      </trkpt>
      <trkpt lat="44.23654" lon="4.13334">
        <ele>236</ele>
        <time>2016-03-26T22:42:29Z</time>
      </trkpt>
      <trkpt lat="44.23651" lon="4.13327">
        <ele>235</ele>
        <time>2016-03-26T22:44:29Z</time>
      </trkpt>
      <trkpt lat="44.23649" lon="4.13321">
        <ele>236</ele>
        <time>2016-03-26T22:46:29Z</time>
      </trkpt>
      <trkpt lat="44.23647" lon="4.13316">
        <ele>235</ele>
        <time>2016-03-26T22:48:29Z</time>
      </trkpt>
      <trkpt lat="44.23645" lon="4.13311">
        <ele>235</ele>
        <time>2016-03-26T22:50:29Z</time>
      </trkpt>
      <trkpt lat="44.23643" lon="4.13308">
        <ele>235</ele>
        <time>2016-03-26T22:52:29Z</time>
      </trkpt>
      <trkpt lat="44.2364" lon="4.133">
        <ele>235</ele>
        <time>2016-03-26T22:54:29Z</time>
      </trkpt>
      <trkpt lat="44.23627" lon="4.13274">
        <ele>232</ele>
        <time>2016-03-26T22:56:29Z</time>
      </trkpt>
      <trkpt lat="44.23625" lon="4.1327">
        <ele>232</ele>
        <time>2016-03-26T22:58:29Z</time>
      </trkpt>
      <trkpt lat="44.23621" lon="4.13262">
        <ele>231</ele>
        <time>2016-03-26T23:00:29Z</time>
      </trkpt>
      <trkpt lat="44.23617" lon="4.13254">
        <ele>230</ele>
        <time>2016-03-26T23:02:29Z</time>
      </trkpt>
      <trkpt lat="44.23611" lon="4.13243">
        <ele>229</ele>
        <time>2016-03-26T23:04:29Z</time>
      </trkpt>
      <trkpt lat="44.23608" lon="4.13233">
        <ele>228</ele>
        <time>2016-03-26T23:06:29Z</time>
      </trkpt>
      <trkpt lat="44.23604" lon="4.13224">
        <ele>226</ele>
        <time>2016-03-26T23:08:29Z</time>
      </trkpt>
      <trkpt lat="44.23601" lon="4.13217">
        <ele>225</ele>
        <time>2016-03-26T23:10:29Z</time>
      </trkpt>
      <trkpt lat="44.23598" lon="4.1321">
        <ele>224</ele>
        <time>2016-03-26T23:12:29Z</time>
      </trkpt>
      <trkpt lat="44.23594" lon="4.13199">
        <ele>223</ele>
        <time>2016-03-26T23:14:29Z</time>
      </trkpt>
      <trkpt lat="44.23593" lon="4.13196">
        <ele>223</ele>
        <time>2016-03-26T23:16:29Z</time>
      </trkpt>
      <trkpt lat="44.23593" lon="4.1319">
        <ele>223</ele>
        <time>2016-03-26T23:18:29Z</time>
      </trkpt>
      <trkpt lat="44.23593" lon="4.13181">
        <ele>223</ele>
        <time>2016-03-26T23:20:29Z</time>
      </trkpt>
      <trkpt lat="44.23594" lon="4.13172">
        <ele>224</ele>
        <time>2016-03-26T23:22:29Z</time>
      </trkpt>
      <trkpt lat="44.23596" lon="4.13163">
        <ele>225</ele>
        <time>2016-03-26T23:24:29Z</time>
      </trkpt>
      <trkpt lat="44.23598" lon="4.13157">
        <ele>226</ele>
        <time>2016-03-26T23:26:29Z</time>
      </trkpt>
      <trkpt lat="44.23601" lon="4.13146">
        <ele>227</ele>
        <time>2016-03-26T23:28:29Z</time>
      </trkpt>
      <trkpt lat="44.23608" lon="4.13132">
        <ele>229</ele>
        <time>2016-03-26T23:30:29Z</time>
      </trkpt>
      <trkpt lat="44.23615" lon="4.13117">
        <ele>230</ele>
        <time>2016-03-26T23:32:29Z</time>
      </trkpt>
      <trkpt lat="44.23624" lon="4.13102">
        <ele>232</ele>
        <time>2016-03-26T23:34:29Z</time>
      </trkpt>
      <trkpt lat="44.23637" lon="4.13083">
        <ele>233</ele>
        <time>2016-03-26T23:36:29Z</time>
      </trkpt>
      <trkpt lat="44.23649" lon="4.13068">
        <ele>234</ele>
        <time>2016-03-26T23:38:29Z</time>
      </trkpt>
      <trkpt lat="44.23663" lon="4.1305">
        <ele>235</ele>
        <time>2016-03-26T23:40:29Z</time>
      </trkpt>
      <trkpt lat="44.2368" lon="4.13024">
        <ele>237</ele>
        <time>2016-03-26T23:42:29Z</time>
      </trkpt>
      <trkpt lat="44.23684" lon="4.13017">
        <ele>237</ele>
        <time>2016-03-26T23:44:29Z</time>
      </trkpt>
      <trkpt lat="44.23689" lon="4.13006">
        <ele>238</ele>
        <time>2016-03-26T23:46:29Z</time>
      </trkpt>
      <trkpt lat="44.23698" lon="4.12991">
        <ele>238</ele>
        <time>2016-03-26T23:48:29Z</time>
      </trkpt>
      <trkpt lat="44.23713" lon="4.12959">
        <ele>238</ele>
        <time>2016-03-26T23:50:29Z</time>
      </trkpt>
      <trkpt lat="44.23735" lon="4.12907">
        <ele>235</ele>
        <time>2016-03-26T23:52:29Z</time>
      </trkpt>
      <trkpt lat="44.23738" lon="4.129">
        <ele>235</ele>
        <time>2016-03-26T23:54:29Z</time>
      </trkpt>
      <trkpt lat="44.23742" lon="4.12892">
        <ele>235</ele>
        <time>2016-03-26T23:56:29Z</time>
      </trkpt>
      <trkpt lat="44.2375" lon="4.1287">
        <ele>235</ele>
        <time>2016-03-26T23:58:29Z</time>
      </trkpt>
      <trkpt lat="44.23758" lon="4.12851">
        <ele>234</ele>
        <time>2016-03-27T00:00:29Z</time>
      </trkpt>
      <trkpt lat="44.23763" lon="4.12835">
        <ele>234</ele>
        <time>2016-03-27T00:02:29Z</time>
      </trkpt>
      <trkpt lat="44.23766" lon="4.12827">
        <ele>233</ele>
        <time>2016-03-27T00:04:29Z</time>
      </trkpt>
      <trkpt lat="44.23769" lon="4.12821">
        <ele>233</ele>
        <time>2016-03-27T00:06:29Z</time>
      </trkpt>
      <trkpt lat="44.23774" lon="4.12808">
        <ele>232</ele>
        <time>2016-03-27T00:08:29Z</time>
      </trkpt>
      <trkpt lat="44.23783" lon="4.12782">
        <ele>230</ele>
        <time>2016-03-27T00:10:29Z</time>
      </trkpt>
      <trkpt lat="44.23787" lon="4.12773">
        <ele>229</ele>
        <time>2016-03-27T00:12:29Z</time>
      </trkpt>
      <trkpt lat="44.23793" lon="4.12757">
        <ele>228</ele>
        <time>2016-03-27T00:14:29Z</time>
      </trkpt>
      <trkpt lat="44.23803" lon="4.12729">
        <ele>228</ele>
        <time>2016-03-27T00:16:29Z</time>
      </trkpt>
      <trkpt lat="44.23813" lon="4.12705">
        <ele>229</ele>
        <time>2016-03-27T00:18:29Z</time>
      </trkpt>
      <trkpt lat="44.23816" lon="4.12697">
        <ele>229</ele>
        <time>2016-03-27T00:20:29Z</time>
      </trkpt>
      <trkpt lat="44.2382" lon="4.12687">
        <ele>229</ele>
        <time>2016-03-27T00:22:29Z</time>
      </trkpt>
      <trkpt lat="44.23827" lon="4.12668">
        <ele>230</ele>
        <time>2016-03-27T00:24:29Z</time>
      </trkpt>
      <trkpt lat="44.23835" lon="4.12649">
        <ele>231</ele>
        <time>2016-03-27T00:26:29Z</time>
      </trkpt>
      <trkpt lat="44.23837" lon="4.12642">
        <ele>232</ele>
        <time>2016-03-27T00:28:29Z</time>
      </trkpt>
      <trkpt lat="44.2384" lon="4.12634">
        <ele>232</ele>
        <time>2016-03-27T00:30:29Z</time>
      </trkpt>
      <trkpt lat="44.23842" lon="4.12625">
        <ele>233</ele>
        <time>2016-03-27T00:32:29Z</time>
      </trkpt>
      <trkpt lat="44.23845" lon="4.12616">
        <ele>233</ele>
        <time>2016-03-27T00:34:29Z</time>
      </trkpt>
      <trkpt lat="44.23847" lon="4.12605">
        <ele>234</ele>
        <time>2016-03-27T00:36:29Z</time>
      </trkpt>
      <trkpt lat="44.23848" lon="4.12596">
        <ele>234</ele>
        <time>2016-03-27T00:38:29Z</time>
      </trkpt>
      <trkpt lat="44.23848" lon="4.12589">
        <ele>234</ele>
        <time>2016-03-27T00:40:29Z</time>
      </trkpt>
      <trkpt lat="44.23848" lon="4.12566">
        <ele>235</ele>
        <time>2016-03-27T00:42:29Z</time>
      </trkpt>
      <trkpt lat="44.23846" lon="4.12541">
        <ele>236</ele>
        <time>2016-03-27T00:44:29Z</time>
      </trkpt>
      <trkpt lat="44.23843" lon="4.1253">
        <ele>236</ele>
        <time>2016-03-27T00:46:29Z</time>
      </trkpt>
      <trkpt lat="44.23841" lon="4.12521">
        <ele>236</ele>
        <time>2016-03-27T00:48:29Z</time>
      </trkpt>
      <trkpt lat="44.2384" lon="4.12516">
        <ele>236</ele>
        <time>2016-03-27T00:50:29Z</time>
      </trkpt>
      <trkpt lat="44.23838" lon="4.1251">
        <ele>236</ele>
        <time>2016-03-27T00:52:29Z</time>
      </trkpt>
      <trkpt lat="44.23836" lon="4.12504">
        <ele>236</ele>
        <time>2016-03-27T00:54:29Z</time>
      </trkpt>
      <trkpt lat="44.23832" lon="4.12493">
        <ele>236</ele>
        <time>2016-03-27T00:56:29Z</time>
      </trkpt>
      <trkpt lat="44.23828" lon="4.12481">
        <ele>236</ele>
        <time>2016-03-27T00:58:29Z</time>
      </trkpt>
      <trkpt lat="44.23824" lon="4.12465">
        <ele>236</ele>
        <time>2016-03-27T01:00:29Z</time>
      </trkpt>
      <trkpt lat="44.23821" lon="4.12455">
        <ele>236</ele>
        <time>2016-03-27T01:02:29Z</time>
      </trkpt>
      <trkpt lat="44.23817" lon="4.12437">
        <ele>237</ele>
        <time>2016-03-27T01:04:29Z</time>
      </trkpt>
      <trkpt lat="44.23813" lon="4.12412">
        <ele>237</ele>
        <time>2016-03-27T01:06:29Z</time>
      </trkpt>
      <trkpt lat="44.23807" lon="4.12388">
        <ele>236</ele>
        <time>2016-03-27T01:08:29Z</time>
      </trkpt>
      <trkpt lat="44.23804" lon="4.12379">
        <ele>236</ele>
        <time>2016-03-27T01:10:29Z</time>
      </trkpt>
      <trkpt lat="44.23801" lon="4.1237">
        <ele>235</ele>
        <time>2016-03-27T01:12:29Z</time>
      </trkpt>
      <trkpt lat="44.2379" lon="4.12352">
        <ele>234</ele>
        <time>2016-03-27T01:14:29Z</time>
      </trkpt>
      <trkpt lat="44.23778" lon="4.12335">
        <ele>232</ele>
        <time>2016-03-27T01:16:29Z</time>
      </trkpt>
      <trkpt lat="44.23769" lon="4.12323">
        <ele>231</ele>
        <time>2016-03-27T01:18:29Z</time>
      </trkpt>
      <trkpt lat="44.23762" lon="4.12315">
        <ele>230</ele>
        <time>2016-03-27T01:20:29Z</time>
      </trkpt>
      <trkpt lat="44.23753" lon="4.12302">
        <ele>229</ele>
        <time>2016-03-27T01:22:29Z</time>
      </trkpt>
      <trkpt lat="44.23743" lon="4.12284">
        <ele>229</ele>
        <time>2016-03-27T01:24:29Z</time>
      </trkpt>
      <trkpt lat="44.23739" lon="4.12277">
        <ele>230</ele>
        <time>2016-03-27T01:26:29Z</time>
      </trkpt>
      <trkpt lat="44.23737" lon="4.12271">
        <ele>230</ele>
        <time>2016-03-27T01:28:29Z</time>
      </trkpt>
      <trkpt lat="44.23734" lon="4.12264">
        <ele>230</ele>
        <time>2016-03-27T01:30:29Z</time>
      </trkpt>
      <trkpt lat="44.23732" lon="4.12258">
        <ele>230</ele>
        <time>2016-03-27T01:32:29Z</time>
      </trkpt>
      <trkpt lat="44.23731" lon="4.12255">
        <ele>230</ele>
        <time>2016-03-27T01:34:29Z</time>
      </trkpt>
      <trkpt lat="44.23731" lon="4.12252">
        <ele>230</ele>
        <time>2016-03-27T01:36:29Z</time>
      </trkpt>
      <trkpt lat="44.2373" lon="4.12247">
        <ele>230</ele>
        <time>2016-03-27T01:38:29Z</time>
      </trkpt>
      <trkpt lat="44.23728" lon="4.12234">
        <ele>230</ele>
        <time>2016-03-27T01:40:29Z</time>
      </trkpt>
      <trkpt lat="44.23727" lon="4.12226">
        <ele>229</ele>
        <time>2016-03-27T01:42:29Z</time>
      </trkpt>
      <trkpt lat="44.23727" lon="4.12221">
        <ele>229</ele>
        <time>2016-03-27T01:44:29Z</time>
      </trkpt>
      <trkpt lat="44.23727" lon="4.12211">
        <ele>229</ele>
        <time>2016-03-27T01:46:29Z</time>
      </trkpt>
      <trkpt lat="44.23728" lon="4.12201">
        <ele>229</ele>
        <time>2016-03-27T01:48:29Z</time>
      </trkpt>
      <trkpt lat="44.23732" lon="4.12163">
        <ele>228</ele>
        <time>2016-03-27T01:50:29Z</time>
      </trkpt>
      <trkpt lat="44.23732" lon="4.12151">
        <ele>228</ele>
        <time>2016-03-27T01:52:29Z</time>
      </trkpt>
      <trkpt lat="44.23732" lon="4.1215">
        <ele>228</ele>
        <time>2016-03-27T01:54:29Z</time>
      </trkpt>
      <trkpt lat="44.23733" lon="4.12127">
        <ele>227</ele>
        <time>2016-03-27T01:56:29Z</time>
      </trkpt>
      <trkpt lat="44.23733" lon="4.12116">
        <ele>227</ele>
        <time>2016-03-27T01:58:29Z</time>
      </trkpt>
      <trkpt lat="44.23733" lon="4.12105">
        <ele>227</ele>
        <time>2016-03-27T03:00:29Z</time>
      </trkpt>
      <trkpt lat="44.23733" lon="4.12093">
        <ele>227</ele>
        <time>2016-03-27T03:02:29Z</time>
      </trkpt>
      <trkpt lat="44.23732" lon="4.12073">
        <ele>227</ele>
        <time>2016-03-27T03:04:29Z</time>
      </trkpt>
      <trkpt lat="44.23732" lon="4.12048">
        <ele>227</ele>
        <time>2016-03-27T03:06:29Z</time>
      </trkpt>
      <trkpt lat="44.23731" lon="4.12008">
        <ele>227</ele>
        <time>2016-03-27T03:08:29Z</time>
      </trkpt>
      <trkpt lat="44.23731" lon="4.11989">
        <ele>228</ele>
        <time>2016-03-27T03:10:29Z</time>
      </trkpt>
      <trkpt lat="44.23731" lon="4.11954">
        <ele>229</ele>
        <time>2016-03-27T03:12:29Z</time>
      </trkpt>
      <trkpt lat="44.2373" lon="4.11914">
        <ele>231</ele>
        <time>2016-03-27T03:14:29Z</time>
      </trkpt>
      <trkpt lat="44.2373" lon="4.11888">
        <ele>232</ele>
        <time>2016-03-27T03:16:29Z</time>
      </trkpt>
      <trkpt lat="44.23729" lon="4.11868">
        <ele>232</ele>
        <time>2016-03-27T03:18:29Z</time>
      </trkpt>
      <trkpt lat="44.23729" lon="4.11859">
        <ele>233</ele>
        <time>2016-03-27T03:20:29Z</time>
      </trkpt>
      <trkpt lat="44.2373" lon="4.11846">
        <ele>233</ele>
        <time>2016-03-27T03:22:29Z</time>
      </trkpt>
      <trkpt lat="44.23732" lon="4.11832">
        <ele>234</ele>
        <time>2016-03-27T03:24:29Z</time>
      </trkpt>
      <trkpt lat="44.23733" lon="4.11821">
        <ele>233</ele>
        <time>2016-03-27T03:26:29Z</time>
      </trkpt>
      <trkpt lat="44.23738" lon="4.118">
        <ele>233</ele>
        <time>2016-03-27T03:28:29Z</time>
      </trkpt>
      <trkpt lat="44.23742" lon="4.1178">
        <ele>233</ele>
        <time>2016-03-27T03:30:29Z</time>
      </trkpt>
      <trkpt lat="44.23746" lon="4.11761">
        <ele>232</ele>
        <time>2016-03-27T03:32:29Z</time>
      </trkpt>
      <trkpt lat="44.2375" lon="4.11737">
        <ele>232</ele>
        <time>2016-03-27T03:34:29Z</time>
      </trkpt>
      <trkpt lat="44.2376" lon="4.11679">
        <ele>232</ele>
        <time>2016-03-27T03:36:29Z</time>
      </trkpt>
      <trkpt lat="44.23761" lon="4.11676">
        <ele>232</ele>
        <time>2016-03-27T03:38:29Z</time>
      </trkpt>
      <trkpt lat="44.23765" lon="4.11661">
        <ele>232</ele>
        <time>2016-03-27T03:40:29Z</time>
      </trkpt>
      <trkpt lat="44.23773" lon="4.1163">
        <ele>232</ele>
        <time>2016-03-27T03:42:29Z</time>
      </trkpt>
      <trkpt lat="44.23776" lon="4.11619">
        <ele>232</ele>
        <time>2016-03-27T03:44:29Z</time>
      </trkpt>
      <trkpt lat="44.2378" lon="4.116">
        <ele>231</ele>
        <time>2016-03-27T03:46:29Z</time>
      </trkpt>
      <trkpt lat="44.23785" lon="4.11578">
        <ele>231</ele>
        <time>2016-03-27T03:48:29Z</time>
      </trkpt>
      <trkpt lat="44.23798" lon="4.1151">
        <ele>230</ele>
        <time>2016-03-27T03:50:29Z</time>
      </trkpt>
      <trkpt lat="44.23799" lon="4.11505">
        <ele>229</ele>
        <time>2016-03-27T03:52:29Z</time>
      </trkpt>
      <trkpt lat="44.23811" lon="4.11438">
        <ele>231</ele>
        <time>2016-03-27T03:54:29Z</time>
      </trkpt>
      <trkpt lat="44.23813" lon="4.11428">
        <ele>231</ele>
        <time>2016-03-27T03:56:29Z</time>
      </trkpt>
      <trkpt lat="44.23824" lon="4.11366">
        <ele>232</ele>
        <time>2016-03-27T03:58:29Z</time>
      </trkpt>
      <trkpt lat="44.23837" lon="4.11294">
        <ele>233</ele>
        <time>2016-03-27T04:00:29Z</time>
      </trkpt>
      <trkpt lat="44.23846" lon="4.11256">
        <ele>234</ele>
        <time>2016-03-27T04:02:29Z</time>
      </trkpt>
      <trkpt lat="44.23854" lon="4.11222">
        <ele>234</ele>
        <time>2016-03-27T04:04:29Z</time>
      </trkpt>
      <trkpt lat="44.23859" lon="4.112">
        <ele>233</ele>
        <time>2016-03-27T04:06:29Z</time>
      </trkpt>
      <trkpt lat="44.23869" lon="4.11169">
        <ele>233</ele>
        <time>2016-03-27T04:08:29Z</time>
      </trkpt>
      <trkpt lat="44.2388" lon="4.11131">
        <ele>233</ele>
        <time>2016-03-27T04:10:29Z</time>
      </trkpt>
      <trkpt lat="44.23887" lon="4.11111">
        <ele>233</ele>
        <time>2016-03-27T04:12:29Z</time>
      </trkpt>
      <trkpt lat="44.23894" lon="4.11088">
        <ele>233</ele>
        <time>2016-03-27T04:14:29Z</time>
      </trkpt>
      <trkpt lat="44.2391" lon="4.11041">
        <ele>234</ele>
        <time>2016-03-27T04:16:29Z</time>
      </trkpt>
      <trkpt lat="44.23924" lon="4.10997">
        <ele>233</ele>
        <time>2016-03-27T04:18:29Z</time>
      </trkpt>
      <trkpt lat="44.23933" lon="4.10973">
        <ele>233</ele>
        <time>2016-03-27T04:20:29Z</time>
      </trkpt>
      <trkpt lat="44.23947" lon="4.10936">
        <ele>233</ele>
        <time>2016-03-27T04:22:29Z</time>
      </trkpt>
      <trkpt lat="44.23955" lon="4.10917">
        <ele>233</ele>
        <time>2016-03-27T04:24:29Z</time>
      </trkpt>
      <trkpt lat="44.23967" lon="4.10887">
        <ele>234</ele>
        <time>2016-03-27T04:26:29Z</time>
      </trkpt>
      <trkpt lat="44.23982" lon="4.10847">
        <ele>234</ele>
        <time>2016-03-27T04:28:29Z</time>
      </trkpt>
      <trkpt lat="44.23992" lon="4.10816">
        <ele>234</ele>
        <time>2016-03-27T04:30:29Z</time>
      </trkpt>
      <trkpt lat="44.24001" lon="4.10798">
        <ele>235</ele>
        <time>2016-03-27T04:32:29Z</time>
      </trkpt>
      <trkpt lat="44.2401" lon="4.10782">
        <ele>235</ele>
        <time>2016-03-27T04:34:29Z</time>
      </trkpt>
      <trkpt lat="44.24017" lon="4.10773">
        <ele>236</ele>
        <time>2016-03-27T04:36:29Z</time>
      </trkpt>
      <trkpt lat="44.24026" lon="4.1076">
        <ele>236</ele>
        <time>2016-03-27T04:38:29Z</time>
      </trkpt>
      <trkpt lat="44.24041" lon="4.10745">
        <ele>236</ele>
        <time>2016-03-27T04:40:29Z</time>
      </trkpt>
      <trkpt lat="44.24052" lon="4.10732">
        <ele>236</ele>
        <time>2016-03-27T04:42:29Z</time>
      </trkpt>
      <trkpt lat="44.24056" lon="4.10728">
        <ele>236</ele>
        <time>2016-03-27T04:44:29Z</time>
      </trkpt>
      <trkpt lat="44.2406" lon="4.10724">
        <ele>236</ele>
        <time>2016-03-27T04:46:29Z</time>
      </trkpt>
      <trkpt lat="44.24063" lon="4.10721">
        <ele>236</ele>
        <time>2016-03-27T04:48:29Z</time>
      </trkpt>
      <trkpt lat="44.24067" lon="4.10719">
        <ele>236</ele>
        <time>2016-03-27T04:50:29Z</time>
      </trkpt>
      <trkpt lat="44.24075" lon="4.10713">
        <ele>236</ele>
        <time>2016-03-27T04:52:29Z</time>
      </trkpt>
      <trkpt lat="44.24086" lon="4.10706">
        <ele>237</ele>
        <time>2016-03-27T04:54:29Z</time>
      </trkpt>
      <trkpt lat="44.24091" lon="4.10702">
        <ele>237</ele>
        <time>2016-03-27T04:56:29Z</time>
      </trkpt>
      <trkpt lat="44.24097" lon="4.10699">
        <ele>237</ele>
        <time>2016-03-27T04:58:29Z</time>
      </trkpt>
      <trkpt lat="44.24114" lon="4.10689">
        <ele>237</ele>
        <time>2016-03-27T05:00:29Z</time>
      </trkpt>
      <trkpt lat="44.24135" lon="4.10676">
        <ele>237</ele>
        <time>2016-03-27T05:02:29Z</time>
      </trkpt>
      <trkpt lat="44.24145" lon="4.10669">
        <ele>237</ele>
        <time>2016-03-27T05:04:29Z</time>
      </trkpt>
      <trkpt lat="44.24148" lon="4.10666">
        <ele>237</ele>
        <time>2016-03-27T05:06:29Z</time>
      </trkpt>
      <trkpt lat="44.24151" lon="4.10661">
        <ele>237</ele>
        <time>2016-03-27T05:08:29Z</time>
      </trkpt>
      <trkpt lat="44.24153" lon="4.10658">
        <ele>237</ele>
        <time>2016-03-27T05:10:29Z</time>
      </trkpt>
      <trkpt lat="44.24156" lon="4.10653">
        <ele>237</ele>
        <time>2016-03-27T05:12:29Z</time>
      </trkpt>
      <trkpt lat="44.24158" lon="4.10647">
        <ele>237</ele>
        <time>2016-03-27T05:14:29Z</time>
      </trkpt>
      <trkpt lat="44.24165" lon="4.1063">
        <ele>237</ele>
        <time>2016-03-27T05:16:29Z</time>
      </trkpt>
      <trkpt lat="44.24166" lon="4.10626">
        <ele>237</ele>
        <time>2016-03-27T05:18:29Z</time>
      </trkpt>
      <trkpt lat="44.24169" lon="4.10618">
        <ele>237</ele>
        <time>2016-03-27T05:20:29Z</time>
      </trkpt>
      <trkpt lat="44.24171" lon="4.10614">
        <ele>237</ele>
        <time>2016-03-27T05:22:29Z</time>
      </trkpt>
      <trkpt lat="44.24178" lon="4.10596">
        <ele>238</ele>
        <time>2016-03-27T05:24:29Z</time>
      </trkpt>
      <trkpt lat="44.24181" lon="4.10589">
        <ele>238</ele>
        <time>2016-03-27T05:26:29Z</time>
      </trkpt>
      <trkpt lat="44.24183" lon="4.10585">
        <ele>238</ele>
        <time>2016-03-27T05:28:29Z</time>
      </trkpt>
      <trkpt lat="44.24186" lon="4.10579">
        <ele>238</ele>
        <time>2016-03-27T05:30:29Z</time>
      </trkpt>
      <trkpt lat="44.24189" lon="4.10573">
        <ele>238</ele>
        <time>2016-03-27T05:32:29Z</time>
      </trkpt>
      <trkpt lat="44.24193" lon="4.10567">
        <ele>239</ele>
        <time>2016-03-27T05:34:29Z</time>
      </trkpt>
      <trkpt lat="44.24196" lon="4.10563">
        <ele>239</ele>
        <time>2016-03-27T05:36:29Z</time>
      </trkpt>
      <trkpt lat="44.24196" lon="4.10562">
        <ele>239</ele>
        <time>2016-03-27T05:38:29Z</time>
      </trkpt>
      <trkpt lat="44.242" lon="4.10556">
        <ele>239</ele>
        <time>2016-03-27T05:40:29Z</time>
      </trkpt>
      <trkpt lat="44.24205" lon="4.10549">
        <ele>239</ele>
        <time>2016-03-27T05:42:29Z</time>
      </trkpt>
      <trkpt lat="44.24208" lon="4.10544">
        <ele>239</ele>
        <time>2016-03-27T05:44:29Z</time>
      </trkpt>
      <trkpt lat="44.24215" lon="4.10535">
        <ele>239</ele>
        <time>2016-03-27T05:46:29Z</time>
      </trkpt>
      <trkpt lat="44.24228" lon="4.10519">
        <ele>240</ele>
        <time>2016-03-27T05:48:29Z</time>
      </trkpt>
      <trkpt lat="44.24247" lon="4.10492">
        <ele>239</ele>
        <time>2016-03-27T05:50:29Z</time>
      </trkpt>
      <trkpt lat="44.24257" lon="4.10474">
        <ele>239</ele>
        <time>2016-03-27T05:52:29Z</time>
      </trkpt>
      <trkpt lat="44.24262" lon="4.10467">
        <ele>239</ele>
        <time>2016-03-27T05:54:29Z</time>
      </trkpt>
      <trkpt lat="44.24262" lon="4.10466">
        <ele>239</ele>
        <time>2016-03-27T05:56:29Z</time>
      </trkpt>
      <trkpt lat="44.24265" lon="4.10461">
        <ele>239</ele>
        <time>2016-03-27T05:58:29Z</time>
      </trkpt>
      <trkpt lat="44.24268" lon="4.10456">
        <ele>239</ele>
        <time>2016-03-27T06:00:29Z</time>
      </trkpt>
      <trkpt lat="44.24271" lon="4.10451">
        <ele>239</ele>
        <time>2016-03-27T06:02:29Z</time>
      </trkpt>
      <trkpt lat="44.24274" lon="4.10444">
        <ele>239</ele>
        <time>2016-03-27T06:04:29Z</time>
      </trkpt>
      <trkpt lat="44.24277" lon="4.10437">
        <ele>239</ele>
        <time>2016-03-27T06:06:29Z</time>
      </trkpt>
      <trkpt lat="44.24282" lon="4.10424">
        <ele>239</ele>
        <time>2016-03-27T06:08:29Z</time>
      </trkpt>
      <trkpt lat="44.24285" lon="4.10416">
        <ele>238</ele>
        <time>2016-03-27T06:10:29Z</time>
      </trkpt>
      <trkpt lat="44.24293" lon="4.10397">
        <ele>237</ele>
        <time>2016-03-27T06:12:29Z</time>
      </trkpt>
      <trkpt lat="44.24299" lon="4.10382">
        <ele>236</ele>
        <time>2016-03-27T06:14:29Z</time>
      </trkpt>
      <trkpt lat="44.24302" lon="4.10374">
        <ele>236</ele>
        <time>2016-03-27T06:16:29Z</time>
      </trkpt>
      <trkpt lat="44.24304" lon="4.10367">
        <ele>235</ele>
        <time>2016-03-27T06:18:29Z</time>
      </trkpt>
      <trkpt lat="44.24309" lon="4.10337">
        <ele>233</ele>
        <time>2016-03-27T06:20:29Z</time>
      </trkpt>
      <trkpt lat="44.24309" lon="4.10329">
        <ele>233</ele>
        <time>2016-03-27T06:22:29Z</time>
      </trkpt>
      <trkpt lat="44.24309" lon="4.10325">
        <ele>233</ele>
        <time>2016-03-27T06:24:29Z</time>
      </trkpt>
      <trkpt lat="44.24309" lon="4.10323">
        <ele>233</ele>
        <time>2016-03-27T06:26:29Z</time>
      </trkpt>
      <trkpt lat="44.24309" lon="4.10308">
        <ele>233</ele>
        <time>2016-03-27T06:28:29Z</time>
      </trkpt>
      <trkpt lat="44.24309" lon="4.10302">
        <ele>233</ele>
        <time>2016-03-27T06:30:29Z</time>
      </trkpt>
      <trkpt lat="44.24309" lon="4.10294">
        <ele>233</ele>
        <time>2016-03-27T06:32:29Z</time>
      </trkpt>
      <trkpt lat="44.24309" lon="4.10286">
        <ele>233</ele>
        <time>2016-03-27T06:34:29Z</time>
      </trkpt>
      <trkpt lat="44.2431" lon="4.1028">
        <ele>234</ele>
        <time>2016-03-27T06:36:29Z</time>
      </trkpt>
      <trkpt lat="44.24311" lon="4.10271">
        <ele>234</ele>
        <time>2016-03-27T06:38:29Z</time>
      </trkpt>
      <trkpt lat="44.24314" lon="4.10256">
        <ele>234</ele>
        <time>2016-03-27T06:40:29Z</time>
      </trkpt>
      <trkpt lat="44.24317" lon="4.10247">
        <ele>234</ele>
        <time>2016-03-27T06:42:29Z</time>
      </trkpt>
      <trkpt lat="44.24319" lon="4.10243">
        <ele>235</ele>
        <time>2016-03-27T06:44:29Z</time>
      </trkpt>
      <trkpt lat="44.24322" lon="4.10238">
        <ele>235</ele>
        <time>2016-03-27T06:46:29Z</time>
      </trkpt>
      <trkpt lat="44.24324" lon="4.10233">
        <ele>235</ele>
        <time>2016-03-27T06:48:29Z</time>
      </trkpt>
      <trkpt lat="44.24327" lon="4.10229">
        <ele>235</ele>
        <time>2016-03-27T06:50:29Z</time>
      </trkpt>
      <trkpt lat="44.24329" lon="4.10226">
        <ele>235</ele>
        <time>2016-03-27T06:52:29Z</time>
      </trkpt>
      <trkpt lat="44.24333" lon="4.10221">
        <ele>235</ele>
        <time>2016-03-27T06:54:29Z</time>
      </trkpt>
      <trkpt lat="44.24336" lon="4.10218">
        <ele>236</ele>
        <time>2016-03-27T06:56:29Z</time>
      </trkpt>
      <trkpt lat="44.2434" lon="4.10213">
        <ele>236</ele>
        <time>2016-03-27T06:58:29Z</time>
      </trkpt>
      <trkpt lat="44.24346" lon="4.10206">
        <ele>236</ele>
        <time>2016-03-27T07:00:29Z</time>
      </trkpt>
      <trkpt lat="44.24351" lon="4.10201">
        <ele>236</ele>
        <time>2016-03-27T07:02:29Z</time>
      </trkpt>
      <trkpt lat="44.24357" lon="4.10195">
        <ele>236</ele>
        <time>2016-03-27T07:04:29Z</time>
      </trkpt>
      <trkpt lat="44.24369" lon="4.10182">
        <ele>237</ele>
        <time>2016-03-27T07:06:29Z</time>
      </trkpt>
      <trkpt lat="44.24386" lon="4.10164">
        <ele>237</ele>
        <time>2016-03-27T07:08:29Z</time>
      </trkpt>
      <trkpt lat="44.24397" lon="4.10151">
        <ele>238</ele>
        <time>2016-03-27T07:10:29Z</time>
      </trkpt>
      <trkpt lat="44.24402" lon="4.10145">
        <ele>238</ele>
        <time>2016-03-27T07:12:29Z</time>
      </trkpt>
      <trkpt lat="44.24406" lon="4.10139">
        <ele>238</ele>
        <time>2016-03-27T07:14:29Z</time>
      </trkpt>
      <trkpt lat="44.24409" lon="4.10136">
        <ele>238</ele>
        <time>2016-03-27T07:16:29Z</time>
      </trkpt>
      <trkpt lat="44.24411" lon="4.10133">
        <ele>238</ele>
        <time>2016-03-27T07:18:29Z</time>
      </trkpt>
      <trkpt lat="44.24423" lon="4.10115">
        <ele>238</ele>
        <time>2016-03-27T07:20:29Z</time>
      </trkpt>
      <trkpt lat="44.24428" lon="4.10109">
        <ele>238</ele>
        <time>2016-03-27T07:22:29Z</time>
      </trkpt>
      <trkpt lat="44.24433" lon="4.10102">
        <ele>238</ele>
        <time>2016-03-27T07:24:29Z</time>
      </trkpt>
      <trkpt lat="44.24439" lon="4.10093">
        <ele>238</ele>
        <time>2016-03-27T07:26:29Z</time>
      </trkpt>
      <trkpt lat="44.24452" lon="4.10073">
        <ele>239</ele>
        <time>2016-03-27T07:28:29Z</time>
      </trkpt>
      <trkpt lat="44.24462" lon="4.10058">
        <ele>239</ele>
        <time>2016-03-27T07:30:29Z</time>
      </trkpt>
      <trkpt lat="44.24469" lon="4.10047">
        <ele>239</ele>
        <time>2016-03-27T07:32:29Z</time>
      </trkpt>
      <trkpt lat="44.24473" lon="4.1004">
        <ele>240</ele>
        <time>2016-03-27T07:34:29Z</time>
      </trkpt>
      <trkpt lat="44.24476" lon="4.10035">
        <ele>240</ele>
        <time>2016-03-27T07:36:29Z</time>
      </trkpt>
      <trkpt lat="44.24479" lon="4.10029">
        <ele>240</ele>
        <time>2016-03-27T07:38:29Z</time>
      </trkpt>
      <trkpt lat="44.24481" lon="4.10022">
        <ele>240</ele>
        <time>2016-03-27T07:40:29Z</time>
      </trkpt>
      <trkpt lat="44.24483" lon="4.10017">
        <ele>240</ele>
        <time>2016-03-27T07:42:29Z</time>
      </trkpt>
      <trkpt lat="44.24488" lon="4.10007">
        <ele>240</ele>
        <time>2016-03-27T07:44:29Z</time>
      </trkpt>
      <trkpt lat="44.24492" lon="4.09998">
        <ele>240</ele>
        <time>2016-03-27T07:46:29Z</time>
      </trkpt>
      <trkpt lat="44.24495" lon="4.09991">
        <ele>240</ele>
        <time>2016-03-27T07:48:29Z</time>
      </trkpt>
      <trkpt lat="44.24499" lon="4.09983">
        <ele>241</ele>
        <time>2016-03-27T07:50:29Z</time>
      </trkpt>
      <trkpt lat="44.2451" lon="4.0996">
        <ele>241</ele>
        <time>2016-03-27T07:52:29Z</time>
      </trkpt>
      <trkpt lat="44.24518" lon="4.0994">
        <ele>242</ele>
        <time>2016-03-27T07:54:29Z</time>
      </trkpt>
      <trkpt lat="44.24521" lon="4.09933">
        <ele>242</ele>
        <time>2016-03-27T07:56:29Z</time>
      </trkpt>
      <trkpt lat="44.24533" lon="4.09906">
        <ele>244</ele>
        <time>2016-03-27T07:58:29Z</time>
      </trkpt>
      <trkpt lat="44.24536" lon="4.09899">
        <ele>244</ele>
        <time>2016-03-27T08:00:29Z</time>
      </trkpt>
      <trkpt lat="44.24539" lon="4.09892">
        <ele>244</ele>
        <time>2016-03-27T08:02:29Z</time>
      </trkpt>
      <trkpt lat="44.24544" lon="4.0988">
        <ele>245</ele>
        <time>2016-03-27T08:04:29Z</time>
      </trkpt>
      <trkpt lat="44.24546" lon="4.09873">
        <ele>245</ele>
        <time>2016-03-27T08:06:29Z</time>
      </trkpt>
      <trkpt lat="44.24548" lon="4.09869">
        <ele>245</ele>
        <time>2016-03-27T08:08:29Z</time>
      </trkpt>
      <trkpt lat="44.2455" lon="4.09862">
        <ele>245</ele>
        <time>2016-03-27T08:10:29Z</time>
      </trkpt>
      <trkpt lat="44.24552" lon="4.09854">
        <ele>246</ele>
        <time>2016-03-27T08:12:29Z</time>
      </trkpt>
      <trkpt lat="44.24554" lon="4.09848">
        <ele>246</ele>
        <time>2016-03-27T08:14:29Z</time>
      </trkpt>
      <trkpt lat="44.24556" lon="4.09838">
        <ele>246</ele>
        <time>2016-03-27T08:16:29Z</time>
      </trkpt>
      <trkpt lat="44.24557" lon="4.0983">
        <ele>246</ele>
        <time>2016-03-27T08:18:29Z</time>
      </trkpt>
      <trkpt lat="44.24559" lon="4.09824">
        <ele>246</ele>
        <time>2016-03-27T08:20:29Z</time>
      </trkpt>
      <trkpt lat="44.24561" lon="4.09812">
        <ele>247</ele>
        <time>2016-03-27T08:22:29Z</time>
      </trkpt>
      <trkpt lat="44.24562" lon="4.09804">
        <ele>247</ele>
        <time>2016-03-27T08:24:29Z</time>
      </trkpt>
      <trkpt lat="44.24564" lon="4.09797">
        <ele>247</ele>
        <time>2016-03-27T08:26:29Z</time>
      </trkpt>
      <trkpt lat="44.24565" lon="4.0979">
        <ele>247</ele>
        <time>2016-03-27T08:28:29Z</time>
      </trkpt>
      <trkpt lat="44.24567" lon="4.09775">
        <ele>247</ele>
        <time>2016-03-27T08:30:29Z</time>
      </trkpt>
      <trkpt lat="44.24567" lon="4.09765">
        <ele>247</ele>
        <time>2016-03-27T08:32:29Z</time>
      </trkpt>
      <trkpt lat="44.24568" lon="4.0976">
        <ele>247</ele>
        <time>2016-03-27T08:34:29Z</time>
      </trkpt>
      <trkpt lat="44.24569" lon="4.09756">
        <ele>247</ele>
        <time>2016-03-27T08:36:29Z</time>
      </trkpt>
      <trkpt lat="44.24569" lon="4.09751">
        <ele>247</ele>
        <time>2016-03-27T08:38:29Z</time>
      </trkpt>
      <trkpt lat="44.24571" lon="4.09743">
        <ele>247</ele>
        <time>2016-03-27T08:40:29Z</time>
      </trkpt>
      <trkpt lat="44.24572" lon="4.09737">
        <ele>248</ele>
        <time>2016-03-27T08:42:29Z</time>
      </trkpt>
      <trkpt lat="44.24572" lon="4.09735">
        <ele>248</ele>
        <time>2016-03-27T08:44:29Z</time>
      </trkpt>
      <trkpt lat="44.24574" lon="4.09729">
        <ele>248</ele>
        <time>2016-03-27T08:46:29Z</time>
      </trkpt>
      <trkpt lat="44.24575" lon="4.09725">
        <ele>248</ele>
        <time>2016-03-27T08:48:29Z</time>
      </trkpt>
      <trkpt lat="44.24577" lon="4.09718">
        <ele>248</ele>
        <time>2016-03-27T08:50:29Z</time>
      </trkpt>
      <trkpt lat="44.24579" lon="4.09711">
        <ele>248</ele>
        <time>2016-03-27T08:52:29Z</time>
      </trkpt>
      <trkpt lat="44.24581" lon="4.09703">
        <ele>248</ele>
        <time>2016-03-27T08:54:29Z</time>
      </trkpt>
      <trkpt lat="44.24585" lon="4.0969">
        <ele>248</ele>
        <time>2016-03-27T08:56:29Z</time>
      </trkpt>
      <trkpt lat="44.24588" lon="4.09675">
        <ele>249</ele>
        <time>2016-03-27T08:58:29Z</time>
      </trkpt>
      <trkpt lat="44.24589" lon="4.09671">
        <ele>249</ele>
        <time>2016-03-27T09:00:29Z</time>
      </trkpt>
      <trkpt lat="44.24597" lon="4.09642">
        <ele>252</ele>
        <time>2016-03-27T09:02:29Z</time>
      </trkpt>
      <trkpt lat="44.24604" lon="4.09618">
        <ele>254</ele>
        <time>2016-03-27T09:04:29Z</time>
      </trkpt>
      <trkpt lat="44.24608" lon="4.09603">
        <ele>255</ele>
        <time>2016-03-27T09:06:29Z</time>
      </trkpt>
      <trkpt lat="44.24618" lon="4.09569">
        <ele>256</ele>
        <time>2016-03-27T09:08:29Z</time>
      </trkpt>
      <trkpt lat="44.24622" lon="4.09558">
        <ele>256</ele>
        <time>2016-03-27T09:10:29Z</time>
      </trkpt>
      <trkpt lat="44.24626" lon="4.09543">
        <ele>255</ele>
        <time>2016-03-27T09:12:29Z</time>
      </trkpt>
      <trkpt lat="44.24636" lon="4.09507">
        <ele>255</ele>
        <time>2016-03-27T09:14:29Z</time>
      </trkpt>
      <trkpt lat="44.2464" lon="4.09491">
        <ele>254</ele>
        <time>2016-03-27T09:16:29Z</time>
      </trkpt>
      <trkpt lat="44.2465" lon="4.09456">
        <ele>252</ele>
        <time>2016-03-27T09:18:29Z</time>
      </trkpt>
      <trkpt lat="44.24661" lon="4.0942">
        <ele>250</ele>
        <time>2016-03-27T09:20:29Z</time>
      </trkpt>
      <trkpt lat="44.2467" lon="4.09395">
        <ele>250</ele>
        <time>2016-03-27T09:22:29Z</time>
      </trkpt>
      <trkpt lat="44.24672" lon="4.09388">
        <ele>250</ele>
        <time>2016-03-27T09:24:29Z</time>
      </trkpt>
      <trkpt lat="44.24675" lon="4.0938">
        <ele>251</ele>
        <time>2016-03-27T09:26:29Z</time>
      </trkpt>
      <trkpt lat="44.24679" lon="4.09371">
        <ele>251</ele>
        <time>2016-03-27T09:28:29Z</time>
      </trkpt>
      <trkpt lat="44.24683" lon="4.09362">
        <ele>251</ele>
        <time>2016-03-27T09:30:29Z</time>
      </trkpt>
      <trkpt lat="44.24688" lon="4.09351">
        <ele>251</ele>
        <time>2016-03-27T09:32:29Z</time>
      </trkpt>
      <trkpt lat="44.24691" lon="4.09344">
        <ele>251</ele>
        <time>2016-03-27T09:34:29Z</time>
      </trkpt>
      <trkpt lat="44.24699" lon="4.09328">
        <ele>251</ele>
        <time>2016-03-27T09:36:29Z</time>
      </trkpt>
      <trkpt lat="44.24704" lon="4.09318">
        <ele>252</ele>
        <time>2016-03-27T09:38:29Z</time>
      </trkpt>
      <trkpt lat="44.24708" lon="4.0931">
        <ele>252</ele>
        <time>2016-03-27T09:40:29Z</time>
      </trkpt>
      <trkpt lat="44.24712" lon="4.09301">
        <ele>252</ele>
        <time>2016-03-27T09:42:29Z</time>
      </trkpt>
      <trkpt lat="44.24717" lon="4.09291">
        <ele>252</ele>
        <time>2016-03-27T09:44:29Z</time>
      </trkpt>
      <trkpt lat="44.24725" lon="4.09278">
        <ele>252</ele>
        <time>2016-03-27T09:46:29Z</time>
      </trkpt>
      <trkpt lat="44.24731" lon="4.09268">
        <ele>252</ele>
        <time>2016-03-27T09:48:29Z</time>
      </trkpt>
      <trkpt lat="44.24738" lon="4.09256">
        <ele>252</ele>
        <time>2016-03-27T09:50:29Z</time>
      </trkpt>
      <trkpt lat="44.24759" lon="4.09214">
        <ele>253</ele>
        <time>2016-03-27T09:52:29Z</time>
      </trkpt>
      <trkpt lat="44.24763" lon="4.09206">
        <ele>253</ele>
        <time>2016-03-27T09:54:29Z</time>
      </trkpt>
      <trkpt lat="44.24767" lon="4.09199">
        <ele>253</ele>
        <time>2016-03-27T09:56:29Z</time>
      </trkpt>
      <trkpt lat="44.24771" lon="4.09192">
        <ele>254</ele>
        <time>2016-03-27T09:58:29Z</time>
      </trkpt>
      <trkpt lat="44.24789" lon="4.09157">
        <ele>254</ele>
        <time>2016-03-27T10:00:29Z</time>
      </trkpt>
      <trkpt lat="44.24795" lon="4.09144">
        <ele>255</ele>
        <time>2016-03-27T10:02:29Z</time>
      </trkpt>
      <trkpt lat="44.24801" lon="4.09134">
        <ele>255</ele>
        <time>2016-03-27T10:04:29Z</time>
      </trkpt>
      <trkpt lat="44.24805" lon="4.09121">
        <ele>255</ele>
        <time>2016-03-27T10:06:29Z</time>
      </trkpt>
      <trkpt lat="44.24806" lon="4.09122">
        <ele>255</ele>
        <time>2016-03-27T10:08:29Z</time>
      </trkpt>
      <trkpt lat="44.24809" lon="4.09122">
        <ele>254</ele>
        <time>2016-03-27T10:10:29Z</time>
      </trkpt>
      <trkpt lat="44.24811" lon="4.09121">
        <ele>254</ele>
        <time>2016-03-27T10:12:29Z</time>
      </trkpt>
      <trkpt lat="44.24813" lon="4.0912">
        <ele>254</ele>
        <time>2016-03-27T10:14:29Z</time>
      </trkpt>
      <trkpt lat="44.24814" lon="4.09118">
        <ele>254</ele>
        <time>2016-03-27T10:16:29Z</time>
      </trkpt>
      <trkpt lat="44.24815" lon="4.09115">
        <ele>254</ele>
        <time>2016-03-27T10:18:29Z</time>
      </trkpt>
      <trkpt lat="44.24816" lon="4.0911">
        <ele>254</ele>
        <time>2016-03-27T10:20:29Z</time>
      </trkpt>
      <trkpt lat="44.24815" lon="4.09108">
        <ele>254</ele>
        <time>2016-03-27T10:22:29Z</time>
      </trkpt>
      <trkpt lat="44.24815" lon="4.09106">
        <ele>255</ele>
        <time>2016-03-27T10:24:29Z</time>
      </trkpt>
      <trkpt lat="44.24814" lon="4.09104">
        <ele>255</ele>
        <time>2016-03-27T10:26:29Z</time>
      </trkpt>
      <trkpt lat="44.24812" lon="4.09102">
        <ele>255</ele>
        <time>2016-03-27T10:28:29Z</time>
      </trkpt>
      <trkpt lat="44.24811" lon="4.09101">
        <ele>255</ele>
        <time>2016-03-27T10:30:29Z</time>
      </trkpt>
      <trkpt lat="44.2481" lon="4.091">
        <ele>255</ele>
        <time>2016-03-27T10:32:29Z</time>
      </trkpt>
      <trkpt lat="44.24811" lon="4.0909">
        <ele>256</ele>
        <time>2016-03-27T10:34:29Z</time>
      </trkpt>
      <trkpt lat="44.24812" lon="4.09084">
        <ele>256</ele>
        <time>2016-03-27T10:36:29Z</time>
      </trkpt>
      <trkpt lat="44.24814" lon="4.09078">
        <ele>256</ele>
        <time>2016-03-27T10:38:29Z</time>
      </trkpt>
      <trkpt lat="44.24816" lon="4.0907">
        <ele>256</ele>
        <time>2016-03-27T10:40:29Z</time>
      </trkpt>
      <trkpt lat="44.24819" lon="4.09062">
        <ele>256</ele>
        <time>2016-03-27T10:42:29Z</time>
      </trkpt>
      <trkpt lat="44.24822" lon="4.09055">
        <ele>256</ele>
        <time>2016-03-27T10:44:29Z</time>
      </trkpt>
      <trkpt lat="44.24828" lon="4.0904">
        <ele>256</ele>
        <time>2016-03-27T10:46:29Z</time>
      </trkpt>
      <trkpt lat="44.24834" lon="4.09027">
        <ele>256</ele>
        <time>2016-03-27T10:48:29Z</time>
      </trkpt>
      <trkpt lat="44.24838" lon="4.09017">
        <ele>257</ele>
        <time>2016-03-27T10:50:29Z</time>
      </trkpt>
      <trkpt lat="44.24842" lon="4.09009">
        <ele>257</ele>
        <time>2016-03-27T10:52:29Z</time>
      </trkpt>
      <trkpt lat="44.24854" lon="4.08987">
        <ele>257</ele>
        <time>2016-03-27T10:54:29Z</time>
      </trkpt>
      <trkpt lat="44.24869" lon="4.08962">
        <ele>258</ele>
        <time>2016-03-27T10:56:29Z</time>
      </trkpt>
      <trkpt lat="44.24875" lon="4.08953">
        <ele>258</ele>
        <time>2016-03-27T10:58:29Z</time>
      </trkpt>
      <trkpt lat="44.24878" lon="4.08947">
        <ele>258</ele>
        <time>2016-03-27T11:00:29Z</time>
      </trkpt>
      <trkpt lat="44.24887" lon="4.08934">
        <ele>258</ele>
        <time>2016-03-27T11:02:29Z</time>
      </trkpt>
      <trkpt lat="44.24896" lon="4.0892">
        <ele>258</ele>
        <time>2016-03-27T11:04:29Z</time>
      </trkpt>
      <trkpt lat="44.24903" lon="4.0891">
        <ele>259</ele>
        <time>2016-03-27T11:06:29Z</time>
      </trkpt>
      <trkpt lat="44.24907" lon="4.08905">
        <ele>258</ele>
        <time>2016-03-27T11:08:29Z</time>
      </trkpt>
      <trkpt lat="44.24911" lon="4.08898">
        <ele>259</ele>
        <time>2016-03-27T11:10:29Z</time>
      </trkpt>
      <trkpt lat="44.24923" lon="4.08883">
        <ele>258</ele>
        <time>2016-03-27T11:12:29Z</time>
      </trkpt>
      <trkpt lat="44.24944" lon="4.08859">
        <ele>258</ele>
        <time>2016-03-27T11:14:29Z</time>
      </trkpt>
      <trkpt lat="44.2496" lon="4.08839">
        <ele>258</ele>
        <time>2016-03-27T11:16:29Z</time>
      </trkpt>
      <trkpt lat="44.24966" lon="4.08832">
        <ele>258</ele>
        <time>2016-03-27T11:18:29Z</time>
      </trkpt>
      <trkpt lat="44.24973" lon="4.08824">
        <ele>258</ele>
        <time>2016-03-27T11:20:29Z</time>
      </trkpt>
      <trkpt lat="44.24985" lon="4.08814">
        <ele>257</ele>
        <time>2016-03-27T11:22:29Z</time>
      </trkpt>
      <trkpt lat="44.24995" lon="4.08809">
        <ele>256</ele>
        <time>2016-03-27T11:24:29Z</time>
      </trkpt>
      <trkpt lat="44.24999" lon="4.08807">
        <ele>255</ele>
        <time>2016-03-27T11:26:29Z</time>
      </trkpt>
      <trkpt lat="44.25006" lon="4.08805">
        <ele>255</ele>
        <time>2016-03-27T11:28:29Z</time>
      </trkpt>
      <trkpt lat="44.25011" lon="4.08803">
        <ele>255</ele>
        <time>2016-03-27T11:30:29Z</time>
      </trkpt>
      <trkpt lat="44.25018" lon="4.08801">
        <ele>255</ele>
        <time>2016-03-27T11:32:29Z</time>
      </trkpt>
      <trkpt lat="44.25031" lon="4.08797">
        <ele>255</ele>
        <time>2016-03-27T11:34:29Z</time>
      </trkpt>
      <trkpt lat="44.25046" lon="4.08792">
        <ele>254</ele>
        <time>2016-03-27T11:36:29Z</time>
      </trkpt>
      <trkpt lat="44.25063" lon="4.08784">
        <ele>254</ele>
        <time>2016-03-27T11:38:29Z</time>
      </trkpt>
      <trkpt lat="44.25066" lon="4.0878">
        <ele>254</ele>
        <time>2016-03-27T11:40:29Z</time>
      </trkpt>
      <trkpt lat="44.25069" lon="4.08776">
        <ele>254</ele>
        <time>2016-03-27T11:42:29Z</time>
      </trkpt>
      <trkpt lat="44.2508" lon="4.08763">
        <ele>255</ele>
        <time>2016-03-27T11:44:29Z</time>
      </trkpt>
      <trkpt lat="44.25111" lon="4.0872">
        <ele>256</ele>
        <time>2016-03-27T11:46:29Z</time>
      </trkpt>
      <trkpt lat="44.25127" lon="4.08696">
        <ele>256</ele>
        <time>2016-03-27T11:48:29Z</time>
      </trkpt>
      <trkpt lat="44.25132" lon="4.08688">
        <ele>256</ele>
        <time>2016-03-27T11:50:29Z</time>
      </trkpt>
      <trkpt lat="44.25151" lon="4.08659">
        <ele>256</ele>
        <time>2016-03-27T11:52:29Z</time>
      </trkpt>
      <trkpt lat="44.25159" lon="4.08648">
        <ele>256</ele>
        <time>2016-03-27T11:54:29Z</time>
      </trkpt>
      <trkpt lat="44.25166" lon="4.0864">
        <ele>256</ele>
        <time>2016-03-27T11:56:29Z</time>
      </trkpt>
      <trkpt lat="44.25171" lon="4.08633">
        <ele>256</ele>
        <time>2016-03-27T11:58:29Z</time>
      </trkpt>
      <trkpt lat="44.25175" lon="4.08627">
        <ele>256</ele>
        <time>2016-03-27T12:00:29Z</time>
      </trkpt>
      <trkpt lat="44.25183" lon="4.08618">
        <ele>256</ele>
        <time>2016-03-27T12:02:29Z</time>
      </trkpt>
      <trkpt lat="44.25194" lon="4.08605">
        <ele>257</ele>
        <time>2016-03-27T12:04:29Z</time>
      </trkpt>
      <trkpt lat="44.25196" lon="4.08602">
        <ele>257</ele>
        <time>2016-03-27T12:06:29Z</time>
      </trkpt>
      <trkpt lat="44.25217" lon="4.08578">
        <ele>257</ele>
        <time>2016-03-27T12:08:29Z</time>
      </trkpt>
      <trkpt lat="44.25223" lon="4.0857">
        <ele>258</ele>
        <time>2016-03-27T12:10:29Z</time>
      </trkpt>
      <trkpt lat="44.25235" lon="4.08557">
        <ele>259</ele>
        <time>2016-03-27T12:12:29Z</time>
      </trkpt>
      <trkpt lat="44.2525" lon="4.08538">
        <ele>260</ele>
        <time>2016-03-27T12:14:29Z</time>
      </trkpt>
      <trkpt lat="44.25263" lon="4.08523">
        <ele>261</ele>
        <time>2016-03-27T12:16:29Z</time>
      </trkpt>
      <trkpt lat="44.2527" lon="4.08511">
        <ele>262</ele>
        <time>2016-03-27T12:18:29Z</time>
      </trkpt>
      <trkpt lat="44.25276" lon="4.085">
        <ele>262</ele>
        <time>2016-03-27T12:20:29Z</time>
      </trkpt>
      <trkpt lat="44.25284" lon="4.08475">
        <ele>265</ele>
        <time>2016-03-27T12:22:29Z</time>
      </trkpt>
      <trkpt lat="44.25287" lon="4.0847">
        <ele>265</ele>
        <time>2016-03-27T12:24:29Z</time>
      </trkpt>
      <trkpt lat="44.25289" lon="4.08465">
        <ele>265</ele>
        <time>2016-03-27T12:26:29Z</time>
      </trkpt>
      <trkpt lat="44.25292" lon="4.08461">
        <ele>265</ele>
        <time>2016-03-27T12:28:29Z</time>
      </trkpt>
      <trkpt lat="44.25297" lon="4.08456">
        <ele>265</ele>
        <time>2016-03-27T12:30:29Z</time>
      </trkpt>
      <trkpt lat="44.25334" lon="4.08441">
        <ele>261</ele>
        <time>2016-03-27T12:32:29Z</time>
      </trkpt>
      <trkpt lat="44.25349" lon="4.08435">
        <ele>261</ele>
        <time>2016-03-27T12:34:29Z</time>
      </trkpt>
      <trkpt lat="44.25364" lon="4.08427">
        <ele>261</ele>
        <time>2016-03-27T12:36:29Z</time>
      </trkpt>
      <trkpt lat="44.25374" lon="4.08419">
        <ele>261</ele>
        <time>2016-03-27T12:38:29Z</time>
      </trkpt>
      <trkpt lat="44.25385" lon="4.0841">
        <ele>261</ele>
        <time>2016-03-27T12:40:29Z</time>
      </trkpt>
      <trkpt lat="44.25409" lon="4.08389">
        <ele>262</ele>
        <time>2016-03-27T12:42:29Z</time>
      </trkpt>
      <trkpt lat="44.25432" lon="4.08371">
        <ele>263</ele>
        <time>2016-03-27T12:44:29Z</time>
      </trkpt>
      <trkpt lat="44.25467" lon="4.08344">
        <ele>263</ele>
        <time>2016-03-27T12:46:29Z</time>
      </trkpt>
      <trkpt lat="44.25468" lon="4.08343">
        <ele>263</ele>
        <time>2016-03-27T12:48:29Z</time>
      </trkpt>
      <trkpt lat="44.25482" lon="4.08331">
        <ele>262</ele>
        <time>2016-03-27T12:50:29Z</time>
      </trkpt>
      <trkpt lat="44.25496" lon="4.08317">
        <ele>262</ele>
        <time>2016-03-27T12:52:29Z</time>
      </trkpt>
      <trkpt lat="44.2552" lon="4.08288">
        <ele>262</ele>
        <time>2016-03-27T12:54:29Z</time>
      </trkpt>
      <trkpt lat="44.25549" lon="4.08247">
        <ele>262</ele>
        <time>2016-03-27T12:56:29Z</time>
      </trkpt>
      <trkpt lat="44.25563" lon="4.08229">
        <ele>261</ele>
        <time>2016-03-27T12:58:29Z</time>
      </trkpt>
      <trkpt lat="44.25563" lon="4.08229">
        <ele>261</ele>
        <time>2016-03-27T13:00:29Z</time>
      </trkpt>
      <trkpt lat="44.2557" lon="4.08236">
        <ele>260</ele>
        <time>2016-03-27T13:02:29Z</time>
      </trkpt>
      <trkpt lat="44.25615" lon="4.08275">
        <ele>259</ele>
        <time>2016-03-27T13:04:29Z</time>
      </trkpt>
      <trkpt lat="44.25632" lon="4.0829">
        <ele>260</ele>
        <time>2016-03-27T13:06:29Z</time>
      </trkpt>
      <trkpt lat="44.2565" lon="4.08304">
        <ele>260</ele>
        <time>2016-03-27T13:08:29Z</time>
      </trkpt>
      <trkpt lat="44.25657" lon="4.08307">
        <ele>261</ele>
        <time>2016-03-27T13:10:29Z</time>
      </trkpt>
      <trkpt lat="44.25662" lon="4.08306">
        <ele>261</ele>
        <time>2016-03-27T13:12:29Z</time>
      </trkpt>
      <trkpt lat="44.25667" lon="4.08303">
        <ele>261</ele>
        <time>2016-03-27T13:14:29Z</time>
      </trkpt>
      <trkpt lat="44.25671" lon="4.08297">
        <ele>262</ele>
        <time>2016-03-27T13:16:29Z</time>
      </trkpt>
      <trkpt lat="44.25674" lon="4.08289">
        <ele>263</ele>
        <time>2016-03-27T13:18:29Z</time>
      </trkpt>
      <trkpt lat="44.25676" lon="4.08279">
        <ele>263</ele>
        <time>2016-03-27T13:20:29Z</time>
      </trkpt>
      <trkpt lat="44.25684" lon="4.08233">
        <ele>265</ele>
        <time>2016-03-27T13:22:29Z</time>
      </trkpt>
      <trkpt lat="44.25691" lon="4.08209">
        <ele>265</ele>
        <time>2016-03-27T13:24:29Z</time>
      </trkpt>
      <trkpt lat="44.25692" lon="4.08207">
        <ele>265</ele>
        <time>2016-03-27T13:26:29Z</time>
      </trkpt>
      <trkpt lat="44.25695" lon="4.08203">
        <ele>265</ele>
        <time>2016-03-27T13:28:29Z</time>
      </trkpt>
      <trkpt lat="44.25704" lon="4.08188">
        <ele>265</ele>
        <time>2016-03-27T13:30:29Z</time>
      </trkpt>
      <trkpt lat="44.25713" lon="4.08177">
        <ele>265</ele>
        <time>2016-03-27T13:32:29Z</time>
      </trkpt>
      <trkpt lat="44.25726" lon="4.08169">
        <ele>266</ele>
        <time>2016-03-27T13:34:29Z</time>
      </trkpt>
      <trkpt lat="44.2574" lon="4.08166">
        <ele>267</ele>
        <time>2016-03-27T13:36:29Z</time>
      </trkpt>
      <trkpt lat="44.25753" lon="4.08167">
        <ele>268</ele>
        <time>2016-03-27T13:38:29Z</time>
      </trkpt>
      <trkpt lat="44.25768" lon="4.08172">
        <ele>270</ele>
        <time>2016-03-27T13:40:29Z</time>
      </trkpt>
      <trkpt lat="44.25786" lon="4.08183">
        <ele>273</ele>
        <time>2016-03-27T13:42:29Z</time>
      </trkpt>
      <trkpt lat="44.25803" lon="4.08197">
        <ele>275</ele>
        <time>2016-03-27T13:44:29Z</time>
      </trkpt>
      <trkpt lat="44.25824" lon="4.08223">
        <ele>279</ele>
        <time>2016-03-27T13:46:29Z</time>
      </trkpt>
      <trkpt lat="44.25856" lon="4.08264">
        <ele>281</ele>
        <time>2016-03-27T13:48:29Z</time>
      </trkpt>
      <trkpt lat="44.25876" lon="4.08291">
        <ele>284</ele>
        <time>2016-03-27T13:50:29Z</time>
      </trkpt>
      <trkpt lat="44.25891" lon="4.0831">
        <ele>285</ele>
        <time>2016-03-27T13:52:29Z</time>
      </trkpt>
      <trkpt lat="44.25904" lon="4.0832">
        <ele>286</ele>
        <time>2016-03-27T13:54:29Z</time>
      </trkpt>
      <trkpt lat="44.25916" lon="4.08324">
        <ele>286</ele>
        <time>2016-03-27T13:56:29Z</time>
      </trkpt>
      <trkpt lat="44.25921" lon="4.08325">
        <ele>286</ele>
        <time>2016-03-27T13:58:29Z</time>
      </trkpt>
      <trkpt lat="44.25932" lon="4.08327">
        <ele>287</ele>
        <time>2016-03-27T14:00:29Z</time>
      </trkpt>
      <trkpt lat="44.25943" lon="4.08331">
        <ele>288</ele>
        <time>2016-03-27T14:02:29Z</time>
      </trkpt>
      <trkpt lat="44.25951" lon="4.08335">
        <ele>289</ele>
        <time>2016-03-27T14:04:29Z</time>
      </trkpt>
      <trkpt lat="44.25968" lon="4.08345">
        <ele>291</ele>
        <time>2016-03-27T14:06:29Z</time>
      </trkpt>
      <trkpt lat="44.25975" lon="4.08347">
        <ele>292</ele>
        <time>2016-03-27T14:08:29Z</time>
      </trkpt>
      <trkpt lat="44.25987" lon="4.08351">
        <ele>293</ele>
        <time>2016-03-27T14:10:29Z</time>
      </trkpt>
      <trkpt lat="44.25999" lon="4.08351">
        <ele>294</ele>
        <time>2016-03-27T14:12:29Z</time>
      </trkpt>
      <trkpt lat="44.26011" lon="4.08349">
        <ele>295</ele>
        <time>2016-03-27T14:14:29Z</time>
      </trkpt>
      <trkpt lat="44.2602" lon="4.08347">
        <ele>295</ele>
        <time>2016-03-27T14:16:29Z</time>
      </trkpt>
      <trkpt lat="44.26026" lon="4.08344">
        <ele>295</ele>
        <time>2016-03-27T14:18:29Z</time>
      </trkpt>
      <trkpt lat="44.26053" lon="4.08334">
        <ele>295</ele>
        <time>2016-03-27T14:20:29Z</time>
      </trkpt>
      <trkpt lat="44.26063" lon="4.08334">
        <ele>296</ele>
        <time>2016-03-27T14:22:29Z</time>
      </trkpt>
      <trkpt lat="44.26071" lon="4.08334">
        <ele>296</ele>
        <time>2016-03-27T14:24:29Z</time>
      </trkpt>
      <trkpt lat="44.26079" lon="4.08337">
        <ele>297</ele>
        <time>2016-03-27T14:26:29Z</time>
      </trkpt>
      <trkpt lat="44.26085" lon="4.08338">
        <ele>298</ele>
        <time>2016-03-27T14:28:29Z</time>
      </trkpt>
      <trkpt lat="44.26098" lon="4.08342">
        <ele>300</ele>
        <time>2016-03-27T14:30:29Z</time>
      </trkpt>
      <trkpt lat="44.26111" lon="4.08343">
        <ele>301</ele>
        <time>2016-03-27T14:32:29Z</time>
      </trkpt>
      <trkpt lat="44.26121" lon="4.08342">
        <ele>301</ele>
        <time>2016-03-27T14:34:29Z</time>
      </trkpt>
      <trkpt lat="44.26132" lon="4.08339">
        <ele>301</ele>
        <time>2016-03-27T14:36:29Z</time>
      </trkpt>
      <trkpt lat="44.26148" lon="4.0833">
        <ele>301</ele>
        <time>2016-03-27T14:38:29Z</time>
      </trkpt>
      <trkpt lat="44.2617" lon="4.08312">
        <ele>301</ele>
        <time>2016-03-27T14:40:29Z</time>
      </trkpt>
      <trkpt lat="44.2618" lon="4.08307">
        <ele>302</ele>
        <time>2016-03-27T14:42:29Z</time>
      </trkpt>
      <trkpt lat="44.2619" lon="4.08304">
        <ele>303</ele>
        <time>2016-03-27T14:44:29Z</time>
      </trkpt>
      <trkpt lat="44.262" lon="4.08303">
        <ele>304</ele>
        <time>2016-03-27T14:46:29Z</time>
      </trkpt>
      <trkpt lat="44.26214" lon="4.08303">
        <ele>306</ele>
        <time>2016-03-27T14:48:29Z</time>
      </trkpt>
      <trkpt lat="44.26254" lon="4.08305">
        <ele>311</ele>
        <time>2016-03-27T14:50:29Z</time>
      </trkpt>
      <trkpt lat="44.26261" lon="4.08305">
        <ele>312</ele>
        <time>2016-03-27T14:52:29Z</time>
      </trkpt>
      <trkpt lat="44.26264" lon="4.08305">
        <ele>313</ele>
        <time>2016-03-27T14:54:29Z</time>
      </trkpt>
      <trkpt lat="44.26271" lon="4.08304">
        <ele>314</ele>
        <time>2016-03-27T14:56:29Z</time>
      </trkpt>
      <trkpt lat="44.26279" lon="4.083">
        <ele>314</ele>
        <time>2016-03-27T14:58:29Z</time>
      </trkpt>
      <trkpt lat="44.26289" lon="4.08295">
        <ele>315</ele>
        <time>2016-03-27T15:00:29Z</time>
      </trkpt>
      <trkpt lat="44.26301" lon="4.08288">
        <ele>316</ele>
        <time>2016-03-27T15:02:29Z</time>
      </trkpt>
      <trkpt lat="44.26312" lon="4.08279">
        <ele>317</ele>
        <time>2016-03-27T15:04:29Z</time>
      </trkpt>
      <trkpt lat="44.26322" lon="4.08269">
        <ele>318</ele>
        <time>2016-03-27T15:06:29Z</time>
      </trkpt>
      <trkpt lat="44.26331" lon="4.08257">
        <ele>319</ele>
        <time>2016-03-27T15:08:29Z</time>
      </trkpt>
      <trkpt lat="44.26339" lon="4.08243">
        <ele>320</ele>
        <time>2016-03-27T15:10:29Z</time>
      </trkpt>
      <trkpt lat="44.26349" lon="4.08223">
        <ele>321</ele>
        <time>2016-03-27T15:12:29Z</time>
      </trkpt>
      <trkpt lat="44.26358" lon="4.08207">
        <ele>321</ele>
        <time>2016-03-27T15:14:29Z</time>
      </trkpt>
      <trkpt lat="44.26366" lon="4.08195">
        <ele>321</ele>
        <time>2016-03-27T15:16:29Z</time>
      </trkpt>
      <trkpt lat="44.26377" lon="4.08184">
        <ele>322</ele>
        <time>2016-03-27T15:18:29Z</time>
      </trkpt>
      <trkpt lat="44.26389" lon="4.08174">
        <ele>323</ele>
        <time>2016-03-27T15:20:29Z</time>
      </trkpt>
      <trkpt lat="44.26402" lon="4.08166">
        <ele>324</ele>
        <time>2016-03-27T15:22:29Z</time>
      </trkpt>
      <trkpt lat="44.26411" lon="4.08162">
        <ele>325</ele>
        <time>2016-03-27T15:24:29Z</time>
      </trkpt>
      <trkpt lat="44.26419" lon="4.08159">
        <ele>327</ele>
        <time>2016-03-27T15:26:29Z</time>
      </trkpt>
      <trkpt lat="44.26431" lon="4.08157">
        <ele>328</ele>
        <time>2016-03-27T15:28:29Z</time>
      </trkpt>
      <trkpt lat="44.26447" lon="4.08156">
        <ele>329</ele>
        <time>2016-03-27T15:30:29Z</time>
      </trkpt>
      <trkpt lat="44.26457" lon="4.08154">
        <ele>330</ele>
        <time>2016-03-27T15:32:29Z</time>
      </trkpt>
      <trkpt lat="44.26466" lon="4.08151">
        <ele>331</ele>
        <time>2016-03-27T15:34:29Z</time>
      </trkpt>
      <trkpt lat="44.26487" lon="4.08139">
        <ele>333</ele>
        <time>2016-03-27T15:36:29Z</time>
      </trkpt>
      <trkpt lat="44.26511" lon="4.08125">
        <ele>336</ele>
        <time>2016-03-27T15:38:29Z</time>
      </trkpt>
      <trkpt lat="44.26542" lon="4.08108">
        <ele>340</ele>
        <time>2016-03-27T15:40:29Z</time>
      </trkpt>
      <trkpt lat="44.26549" lon="4.08104">
        <ele>340</ele>
        <time>2016-03-27T15:42:29Z</time>
      </trkpt>
      <trkpt lat="44.26554" lon="4.08098">
        <ele>341</ele>
        <time>2016-03-27T15:44:29Z</time>
      </trkpt>
      <trkpt lat="44.2656" lon="4.08087">
        <ele>341</ele>
        <time>2016-03-27T15:46:29Z</time>
      </trkpt>
      <trkpt lat="44.26563" lon="4.08079">
        <ele>341</ele>
        <time>2016-03-27T15:48:29Z</time>
      </trkpt>
      <trkpt lat="44.26565" lon="4.08071">
        <ele>343</ele>
        <time>2016-03-27T15:50:29Z</time>
      </trkpt>
      <trkpt lat="44.26566" lon="4.08059">
        <ele>345</ele>
        <time>2016-03-27T15:52:29Z</time>
      </trkpt>
      <trkpt lat="44.26565" lon="4.08049">
        <ele>346</ele>
        <time>2016-03-27T15:54:29Z</time>
      </trkpt>
      <trkpt lat="44.26561" lon="4.08035">
        <ele>348</ele>
        <time>2016-03-27T15:56:29Z</time>
      </trkpt>
      <trkpt lat="44.26557" lon="4.08024">
        <ele>350</ele>
        <time>2016-03-27T15:58:29Z</time>
      </trkpt>
      <trkpt lat="44.26553" lon="4.08018">
        <ele>350</ele>
        <time>2016-03-27T16:00:29Z</time>
      </trkpt>
      <trkpt lat="44.26547" lon="4.08012">
        <ele>351</ele>
        <time>2016-03-27T16:02:29Z</time>
      </trkpt>
      <trkpt lat="44.2654" lon="4.08008">
        <ele>351</ele>
        <time>2016-03-27T16:04:29Z</time>
      </trkpt>
      <trkpt lat="44.26534" lon="4.08007">
        <ele>351</ele>
        <time>2016-03-27T16:06:29Z</time>
      </trkpt>
      <trkpt lat="44.26527" lon="4.08007">
        <ele>350</ele>
        <time>2016-03-27T16:08:29Z</time>
      </trkpt>
      <trkpt lat="44.26518" lon="4.0801">
        <ele>349</ele>
        <time>2016-03-27T16:10:29Z</time>
      </trkpt>
      <trkpt lat="44.26503" lon="4.08015">
        <ele>347</ele>
        <time>2016-03-27T16:12:29Z</time>
      </trkpt>
      <trkpt lat="44.26495" lon="4.08016">
        <ele>347</ele>
        <time>2016-03-27T16:14:29Z</time>
      </trkpt>
      <trkpt lat="44.26489" lon="4.08016">
        <ele>346</ele>
        <time>2016-03-27T16:16:29Z</time>
      </trkpt>
      <trkpt lat="44.2648" lon="4.08013">
        <ele>346</ele>
        <time>2016-03-27T16:18:29Z</time>
      </trkpt>
      <trkpt lat="44.26472" lon="4.0801">
        <ele>346</ele>
        <time>2016-03-27T16:20:29Z</time>
      </trkpt>
      <trkpt lat="44.26466" lon="4.08005">
        <ele>346</ele>
        <time>2016-03-27T16:22:29Z</time>
      </trkpt>
      <trkpt lat="44.26459" lon="4.07997">
        <ele>347</ele>
        <time>2016-03-27T16:24:29Z</time>
      </trkpt>
      <trkpt lat="44.26452" lon="4.07986">
        <ele>348</ele>
        <time>2016-03-27T16:26:29Z</time>
      </trkpt>
      <trkpt lat="44.26444" lon="4.07971">
        <ele>351</ele>
        <time>2016-03-27T16:28:29Z</time>
      </trkpt>
      <trkpt lat="44.2644" lon="4.07965">
        <ele>352</ele>
        <time>2016-03-27T16:30:29Z</time>
      </trkpt>
      <trkpt lat="44.26435" lon="4.07959">
        <ele>353</ele>
        <time>2016-03-27T16:32:29Z</time>
      </trkpt>
      <trkpt lat="44.26427" lon="4.07954">
        <ele>353</ele>
        <time>2016-03-27T16:34:29Z</time>
      </trkpt>
      <trkpt lat="44.26419" lon="4.0795">
        <ele>354</ele>
        <time>2016-03-27T16:36:29Z</time>
      </trkpt>
      <trkpt lat="44.26409" lon="4.07947">
        <ele>354</ele>
        <time>2016-03-27T16:38:29Z</time>
      </trkpt>
      <trkpt lat="44.26401" lon="4.07947">
        <ele>353</ele>
        <time>2016-03-27T16:40:29Z</time>
      </trkpt>
      <trkpt lat="44.2639" lon="4.0795">
        <ele>352</ele>
        <time>2016-03-27T16:42:29Z</time>
      </trkpt>
      <trkpt lat="44.2638" lon="4.07953">
        <ele>351</ele>
        <time>2016-03-27T16:44:29Z</time>
      </trkpt>
      <trkpt lat="44.26373" lon="4.07954">
        <ele>351</ele>
        <time>2016-03-27T16:46:29Z</time>
      </trkpt>
      <trkpt lat="44.26366" lon="4.07952">
        <ele>351</ele>
        <time>2016-03-27T16:48:29Z</time>
      </trkpt>
      <trkpt lat="44.2636" lon="4.07949">
        <ele>351</ele>
        <time>2016-03-27T16:50:29Z</time>
      </trkpt>
      <trkpt lat="44.26353" lon="4.07943">
        <ele>352</ele>
        <time>2016-03-27T16:52:29Z</time>
      </trkpt>
      <trkpt lat="44.26348" lon="4.07935">
        <ele>353</ele>
        <time>2016-03-27T16:54:29Z</time>
      </trkpt>
      <trkpt lat="44.26344" lon="4.07928">
        <ele>354</ele>
        <time>2016-03-27T16:56:29Z</time>
      </trkpt>
      <trkpt lat="44.26342" lon="4.0792">
        <ele>355</ele>
        <time>2016-03-27T16:58:29Z</time>
      </trkpt>
      <trkpt lat="44.2634" lon="4.07909">
        <ele>357</ele>
        <time>2016-03-27T17:00:29Z</time>
      </trkpt>
      <trkpt lat="44.26341" lon="4.07897">
        <ele>359</ele>
        <time>2016-03-27T17:02:29Z</time>
      </trkpt>
      <trkpt lat="44.26342" lon="4.07886">
        <ele>361</ele>
        <time>2016-03-27T17:04:29Z</time>
      </trkpt>
      <trkpt lat="44.26344" lon="4.07877">
        <ele>362</ele>
        <time>2016-03-27T17:06:29Z</time>
      </trkpt>
      <trkpt lat="44.26349" lon="4.07868">
        <ele>364</ele>
        <time>2016-03-27T17:08:29Z</time>
      </trkpt>
      <trkpt lat="44.26357" lon="4.0786">
        <ele>366</ele>
        <time>2016-03-27T17:10:29Z</time>
      </trkpt>
      <trkpt lat="44.26364" lon="4.07855">
        <ele>367</ele>
        <time>2016-03-27T17:12:29Z</time>
      </trkpt>
      <trkpt lat="44.26368" lon="4.07854">
        <ele>367</ele>
        <time>2016-03-27T17:14:29Z</time>
      </trkpt>
      <trkpt lat="44.26375" lon="4.07852">
        <ele>368</ele>
        <time>2016-03-27T17:16:29Z</time>
      </trkpt>
      <trkpt lat="44.26381" lon="4.07852">
        <ele>368</ele>
        <time>2016-03-27T17:18:29Z</time>
      </trkpt>
      <trkpt lat="44.2639" lon="4.07854">
        <ele>368</ele>
        <time>2016-03-27T17:20:29Z</time>
      </trkpt>
      <trkpt lat="44.264" lon="4.07858">
        <ele>368</ele>
        <time>2016-03-27T17:22:29Z</time>
      </trkpt>
      <trkpt lat="44.2641" lon="4.07864">
        <ele>368</ele>
        <time>2016-03-27T17:24:29Z</time>
      </trkpt>
      <trkpt lat="44.2642" lon="4.07866">
        <ele>368</ele>
        <time>2016-03-27T17:26:29Z</time>
      </trkpt>
      <trkpt lat="44.26427" lon="4.07868">
        <ele>368</ele>
        <time>2016-03-27T17:28:29Z</time>
      </trkpt>
      <trkpt lat="44.26434" lon="4.07869">
        <ele>368</ele>
        <time>2016-03-27T17:30:29Z</time>
      </trkpt>
      <trkpt lat="44.26439" lon="4.07868">
        <ele>369</ele>
        <time>2016-03-27T17:32:29Z</time>
      </trkpt>
      <trkpt lat="44.26446" lon="4.07867">
        <ele>370</ele>
        <time>2016-03-27T17:34:29Z</time>
      </trkpt>
      <trkpt lat="44.26455" lon="4.07863">
        <ele>371</ele>
        <time>2016-03-27T17:36:29Z</time>
      </trkpt>
      <trkpt lat="44.26464" lon="4.07858">
        <ele>372</ele>
        <time>2016-03-27T17:38:29Z</time>
      </trkpt>
      <trkpt lat="44.26474" lon="4.07851">
        <ele>374</ele>
        <time>2016-03-27T17:40:29Z</time>
      </trkpt>
      <trkpt lat="44.26476" lon="4.0785">
        <ele>374</ele>
        <time>2016-03-27T17:42:29Z</time>
      </trkpt>
      <trkpt lat="44.26484" lon="4.07844">
        <ele>375</ele>
        <time>2016-03-27T17:44:29Z</time>
      </trkpt>
      <trkpt lat="44.26493" lon="4.07839">
        <ele>377</ele>
        <time>2016-03-27T17:46:29Z</time>
      </trkpt>
      <trkpt lat="44.26504" lon="4.07834">
        <ele>378</ele>
        <time>2016-03-27T17:48:29Z</time>
      </trkpt>
      <trkpt lat="44.26513" lon="4.07831">
        <ele>380</ele>
        <time>2016-03-27T17:50:29Z</time>
      </trkpt>
      <trkpt lat="44.26523" lon="4.07829">
        <ele>381</ele>
        <time>2016-03-27T17:52:29Z</time>
      </trkpt>
      <trkpt lat="44.26532" lon="4.07829">
        <ele>382</ele>
        <time>2016-03-27T17:54:29Z</time>
      </trkpt>
      <trkpt lat="44.26538" lon="4.0783">
        <ele>382</ele>
        <time>2016-03-27T17:56:29Z</time>
      </trkpt>
      <trkpt lat="44.26548" lon="4.07834">
        <ele>382</ele>
        <time>2016-03-27T17:58:29Z</time>
      </trkpt>
      <trkpt lat="44.26558" lon="4.07836">
        <ele>382</ele>
        <time>2016-03-27T18:00:29Z</time>
      </trkpt>
      <trkpt lat="44.26567" lon="4.07837">
        <ele>383</ele>
        <time>2016-03-27T18:02:29Z</time>
      </trkpt>
      <trkpt lat="44.26576" lon="4.07838">
        <ele>384</ele>
        <time>2016-03-27T18:04:29Z</time>
      </trkpt>
      <trkpt lat="44.26586" lon="4.07837">
        <ele>384</ele>
        <time>2016-03-27T18:06:29Z</time>
      </trkpt>
      <trkpt lat="44.26589" lon="4.07836">
        <ele>384</ele>
        <time>2016-03-27T18:08:29Z</time>
      </trkpt>
      <trkpt lat="44.26594" lon="4.07835">
        <ele>384</ele>
        <time>2016-03-27T18:10:29Z</time>
      </trkpt>
      <trkpt lat="44.26603" lon="4.0783">
        <ele>384</ele>
        <time>2016-03-27T18:12:29Z</time>
      </trkpt>
      <trkpt lat="44.26612" lon="4.07825">
        <ele>385</ele>
        <time>2016-03-27T18:14:29Z</time>
      </trkpt>
      <trkpt lat="44.26624" lon="4.07816">
        <ele>386</ele>
        <time>2016-03-27T18:16:29Z</time>
      </trkpt>
      <trkpt lat="44.26636" lon="4.07808">
        <ele>387</ele>
        <time>2016-03-27T18:18:29Z</time>
      </trkpt>
      <trkpt lat="44.26646" lon="4.07803">
        <ele>387</ele>
        <time>2016-03-27T18:20:29Z</time>
      </trkpt>
      <trkpt lat="44.26658" lon="4.07798">
        <ele>387</ele>
        <time>2016-03-27T18:22:29Z</time>
      </trkpt>
      <trkpt lat="44.26668" lon="4.07796">
        <ele>387</ele>
        <time>2016-03-27T18:24:29Z</time>
      </trkpt>
      <trkpt lat="44.26678" lon="4.07795">
        <ele>389</ele>
        <time>2016-03-27T18:26:29Z</time>
      </trkpt>
      <trkpt lat="44.26688" lon="4.07795">
        <ele>390</ele>
        <time>2016-03-27T18:28:29Z</time>
      </trkpt>
      <trkpt lat="44.2669" lon="4.07795">
        <ele>390</ele>
        <time>2016-03-27T18:30:29Z</time>
      </trkpt>
      <trkpt lat="44.26705" lon="4.07795">
        <ele>392</ele>
        <time>2016-03-27T18:32:29Z</time>
      </trkpt>
      <trkpt lat="44.26715" lon="4.07795">
        <ele>393</ele>
        <time>2016-03-27T18:34:29Z</time>
      </trkpt>
      <trkpt lat="44.26726" lon="4.07792">
        <ele>395</ele>
        <time>2016-03-27T18:36:29Z</time>
      </trkpt>
      <trkpt lat="44.26748" lon="4.07786">
        <ele>399</ele>
        <time>2016-03-27T18:38:29Z</time>
      </trkpt>
      <trkpt lat="44.2676" lon="4.07784">
        <ele>401</ele>
        <time>2016-03-27T18:40:29Z</time>
      </trkpt>
      <trkpt lat="44.26771" lon="4.07782">
        <ele>403</ele>
        <time>2016-03-27T18:42:29Z</time>
      </trkpt>
      <trkpt lat="44.26773" lon="4.07781">
        <ele>403</ele>
        <time>2016-03-27T18:44:29Z</time>
      </trkpt>
      <trkpt lat="44.26783" lon="4.07781">
        <ele>404</ele>
        <time>2016-03-27T18:46:29Z</time>
      </trkpt>
      <trkpt lat="44.26791" lon="4.07782">
        <ele>405</ele>
        <time>2016-03-27T18:48:29Z</time>
      </trkpt>
      <trkpt lat="44.26794" lon="4.07782">
        <ele>405</ele>
        <time>2016-03-27T18:50:29Z</time>
      </trkpt>
      <trkpt lat="44.26803" lon="4.07785">
        <ele>406</ele>
        <time>2016-03-27T18:52:29Z</time>
      </trkpt>
      <trkpt lat="44.26812" lon="4.07788">
        <ele>406</ele>
        <time>2016-03-27T18:54:29Z</time>
      </trkpt>
      <trkpt lat="44.2682" lon="4.07792">
        <ele>407</ele>
        <time>2016-03-27T18:56:29Z</time>
      </trkpt>
      <trkpt lat="44.26827" lon="4.07797">
        <ele>407</ele>
        <time>2016-03-27T18:58:29Z</time>
      </trkpt>
      <trkpt lat="44.26834" lon="4.07803">
        <ele>407</ele>
        <time>2016-03-27T19:00:29Z</time>
      </trkpt>
      <trkpt lat="44.26841" lon="4.0781">
        <ele>408</ele>
        <time>2016-03-27T19:02:29Z</time>
      </trkpt>
      <trkpt lat="44.26847" lon="4.07817">
        <ele>408</ele>
        <time>2016-03-27T19:04:29Z</time>
      </trkpt>
      <trkpt lat="44.26853" lon="4.07825">
        <ele>409</ele>
        <time>2016-03-27T19:06:29Z</time>
      </trkpt>
      <trkpt lat="44.26859" lon="4.07833">
        <ele>410</ele>
        <time>2016-03-27T19:08:29Z</time>
      </trkpt>
      <trkpt lat="44.26864" lon="4.07841">
        <ele>410</ele>
        <time>2016-03-27T19:10:29Z</time>
      </trkpt>
      <trkpt lat="44.26869" lon="4.0785">
        <ele>411</ele>
        <time>2016-03-27T19:12:29Z</time>
      </trkpt>
      <trkpt lat="44.26873" lon="4.07861">
        <ele>412</ele>
        <time>2016-03-27T19:14:29Z</time>
      </trkpt>
      <trkpt lat="44.26876" lon="4.07871">
        <ele>412</ele>
        <time>2016-03-27T19:16:29Z</time>
      </trkpt>
      <trkpt lat="44.26879" lon="4.07882">
        <ele>412</ele>
        <time>2016-03-27T19:18:29Z</time>
      </trkpt>
      <trkpt lat="44.26885" lon="4.07916">
        <ele>412</ele>
        <time>2016-03-27T19:20:29Z</time>
      </trkpt>
      <trkpt lat="44.26892" lon="4.0795">
        <ele>412</ele>
        <time>2016-03-27T19:22:29Z</time>
      </trkpt>
      <trkpt lat="44.26895" lon="4.07961">
        <ele>412</ele>
        <time>2016-03-27T19:24:29Z</time>
      </trkpt>
      <trkpt lat="44.26897" lon="4.07972">
        <ele>411</ele>
        <time>2016-03-27T19:26:29Z</time>
      </trkpt>
      <trkpt lat="44.269" lon="4.07982">
        <ele>411</ele>
        <time>2016-03-27T19:28:29Z</time>
      </trkpt>
      <trkpt lat="44.26904" lon="4.07991">
        <ele>412</ele>
        <time>2016-03-27T19:30:29Z</time>
      </trkpt>
      <trkpt lat="44.26908" lon="4.07999">
        <ele>412</ele>
        <time>2016-03-27T19:32:29Z</time>
      </trkpt>
      <trkpt lat="44.26913" lon="4.08006">
        <ele>413</ele>
        <time>2016-03-27T19:34:29Z</time>
      </trkpt>
      <trkpt lat="44.26918" lon="4.0801">
        <ele>414</ele>
        <time>2016-03-27T19:36:29Z</time>
      </trkpt>
      <trkpt lat="44.26923" lon="4.08013">
        <ele>414</ele>
        <time>2016-03-27T19:38:29Z</time>
      </trkpt>
      <trkpt lat="44.26927" lon="4.08015">
        <ele>414</ele>
        <time>2016-03-27T19:40:29Z</time>
      </trkpt>
      <trkpt lat="44.26931" lon="4.08016">
        <ele>414</ele>
        <time>2016-03-27T19:42:29Z</time>
      </trkpt>
      <trkpt lat="44.26937" lon="4.08017">
        <ele>414</ele>
        <time>2016-03-27T19:44:29Z</time>
      </trkpt>
      <trkpt lat="44.26942" lon="4.08018">
        <ele>414</ele>
        <time>2016-03-27T19:46:29Z</time>
      </trkpt>
      <trkpt lat="44.26948" lon="4.08016">
        <ele>413</ele>
        <time>2016-03-27T19:48:29Z</time>
      </trkpt>
      <trkpt lat="44.26963" lon="4.08012">
        <ele>413</ele>
        <time>2016-03-27T19:50:29Z</time>
      </trkpt>
      <trkpt lat="44.26981" lon="4.08005">
        <ele>413</ele>
        <time>2016-03-27T19:52:29Z</time>
      </trkpt>
      <trkpt lat="44.27072" lon="4.07967">
        <ele>410</ele>
        <time>2016-03-27T19:54:29Z</time>
      </trkpt>
      <trkpt lat="44.27086" lon="4.07962">
        <ele>410</ele>
        <time>2016-03-27T19:56:29Z</time>
      </trkpt>
      <trkpt lat="44.27094" lon="4.07959">
        <ele>410</ele>
        <time>2016-03-27T19:58:29Z</time>
      </trkpt>
      <trkpt lat="44.27108" lon="4.07955">
        <ele>411</ele>
        <time>2016-03-27T20:00:29Z</time>
      </trkpt>
      <trkpt lat="44.27115" lon="4.07953">
        <ele>411</ele>
        <time>2016-03-27T20:02:29Z</time>
      </trkpt>
      <trkpt lat="44.27123" lon="4.07951">
        <ele>411</ele>
        <time>2016-03-27T20:04:29Z</time>
      </trkpt>
      <trkpt lat="44.27138" lon="4.0795">
        <ele>411</ele>
        <time>2016-03-27T20:06:29Z</time>
      </trkpt>
      <trkpt lat="44.27145" lon="4.0795">
        <ele>411</ele>
        <time>2016-03-27T20:08:29Z</time>
      </trkpt>
      <trkpt lat="44.27152" lon="4.07952">
        <ele>410</ele>
        <time>2016-03-27T20:10:29Z</time>
      </trkpt>
      <trkpt lat="44.27164" lon="4.07958">
        <ele>408</ele>
        <time>2016-03-27T20:12:29Z</time>
      </trkpt>
      <trkpt lat="44.27168" lon="4.07962">
        <ele>407</ele>
        <time>2016-03-27T20:14:29Z</time>
      </trkpt>
      <trkpt lat="44.27172" lon="4.07966">
        <ele>406</ele>
        <time>2016-03-27T20:16:29Z</time>
      </trkpt>
      <trkpt lat="44.27178" lon="4.07975">
        <ele>404</ele>
        <time>2016-03-27T20:18:29Z</time>
      </trkpt>
      <trkpt lat="44.27181" lon="4.0798">
        <ele>403</ele>
        <time>2016-03-27T20:20:29Z</time>
      </trkpt>
      <trkpt lat="44.27192" lon="4.07997">
        <ele>399</ele>
        <time>2016-03-27T20:22:29Z</time>
      </trkpt>
      <trkpt lat="44.27202" lon="4.08012">
        <ele>397</ele>
        <time>2016-03-27T20:24:29Z</time>
      </trkpt>
      <trkpt lat="44.27205" lon="4.08018">
        <ele>395</ele>
        <time>2016-03-27T20:26:29Z</time>
      </trkpt>
      <trkpt lat="44.2721" lon="4.08023">
        <ele>395</ele>
        <time>2016-03-27T20:28:29Z</time>
      </trkpt>
      <trkpt lat="44.27218" lon="4.08033">
        <ele>393</ele>
        <time>2016-03-27T20:30:29Z</time>
      </trkpt>
      <trkpt lat="44.27223" lon="4.08037">
        <ele>392</ele>
        <time>2016-03-27T20:32:29Z</time>
      </trkpt>
      <trkpt lat="44.27228" lon="4.08041">
        <ele>392</ele>
        <time>2016-03-27T20:34:29Z</time>
      </trkpt>
      <trkpt lat="44.2724" lon="4.08049">
        <ele>391</ele>
        <time>2016-03-27T20:36:29Z</time>
      </trkpt>
      <trkpt lat="44.2725" lon="4.08053">
        <ele>391</ele>
        <time>2016-03-27T20:38:29Z</time>
      </trkpt>
      <trkpt lat="44.27254" lon="4.08055">
        <ele>390</ele>
        <time>2016-03-27T20:40:29Z</time>
      </trkpt>
      <trkpt lat="44.27264" lon="4.08057">
        <ele>388</ele>
        <time>2016-03-27T20:42:29Z</time>
      </trkpt>
      <trkpt lat="44.27274" lon="4.08058">
        <ele>386</ele>
        <time>2016-03-27T20:44:29Z</time>
      </trkpt>
      <trkpt lat="44.2728" lon="4.08059">
        <ele>385</ele>
        <time>2016-03-27T20:46:29Z</time>
      </trkpt>
      <trkpt lat="44.27287" lon="4.08059">
        <ele>385</ele>
        <time>2016-03-27T20:48:29Z</time>
      </trkpt>
      <trkpt lat="44.27301" lon="4.08057">
        <ele>384</ele>
        <time>2016-03-27T20:50:29Z</time>
      </trkpt>
      <trkpt lat="44.27308" lon="4.08055">
        <ele>383</ele>
        <time>2016-03-27T20:52:29Z</time>
      </trkpt>
      <trkpt lat="44.27315" lon="4.08053">
        <ele>383</ele>
        <time>2016-03-27T20:54:29Z</time>
      </trkpt>
      <trkpt lat="44.27329" lon="4.08047">
        <ele>384</ele>
        <time>2016-03-27T20:56:29Z</time>
      </trkpt>
      <trkpt lat="44.27359" lon="4.08035">
        <ele>385</ele>
        <time>2016-03-27T20:58:29Z</time>
      </trkpt>
      <trkpt lat="44.27372" lon="4.08029">
        <ele>385</ele>
        <time>2016-03-27T21:00:29Z</time>
      </trkpt>
      <trkpt lat="44.27378" lon="4.08028">
        <ele>385</ele>
        <time>2016-03-27T21:02:29Z</time>
      </trkpt>
      <trkpt lat="44.27383" lon="4.08026">
        <ele>385</ele>
        <time>2016-03-27T21:04:29Z</time>
      </trkpt>
      <trkpt lat="44.27388" lon="4.08025">
        <ele>385</ele>
        <time>2016-03-27T21:06:29Z</time>
      </trkpt>
      <trkpt lat="44.27394" lon="4.08024">
        <ele>385</ele>
        <time>2016-03-27T21:08:29Z</time>
      </trkpt>
      <trkpt lat="44.27418" lon="4.08023">
        <ele>382</ele>
        <time>2016-03-27T21:10:29Z</time>
      </trkpt>
      <trkpt lat="44.27472" lon="4.0802">
        <ele>372</ele>
        <time>2016-03-27T21:12:29Z</time>
      </trkpt>
      <trkpt lat="44.2749" lon="4.08019">
        <ele>369</ele>
        <time>2016-03-27T21:14:29Z</time>
      </trkpt>
      <trkpt lat="44.27496" lon="4.08018">
        <ele>368</ele>
        <time>2016-03-27T21:16:29Z</time>
      </trkpt>
      <trkpt lat="44.27502" lon="4.08017">
        <ele>367</ele>
        <time>2016-03-27T21:18:29Z</time>
      </trkpt>
      <trkpt lat="44.27507" lon="4.08014">
        <ele>366</ele>
        <time>2016-03-27T21:20:29Z</time>
      </trkpt>
      <trkpt lat="44.27513" lon="4.08011">
        <ele>365</ele>
        <time>2016-03-27T21:22:29Z</time>
      </trkpt>
      <trkpt lat="44.27518" lon="4.08006">
        <ele>365</ele>
        <time>2016-03-27T21:24:29Z</time>
      </trkpt>
      <trkpt lat="44.27522" lon="4.08">
        <ele>365</ele>
        <time>2016-03-27T21:26:29Z</time>
      </trkpt>
      <trkpt lat="44.27529" lon="4.07986">
        <ele>364</ele>
        <time>2016-03-27T21:28:29Z</time>
      </trkpt>
      <trkpt lat="44.27531" lon="4.07978">
        <ele>364</ele>
        <time>2016-03-27T21:30:29Z</time>
      </trkpt>
      <trkpt lat="44.27532" lon="4.07972">
        <ele>364</ele>
        <time>2016-03-27T21:32:29Z</time>
      </trkpt>
      <trkpt lat="44.27533" lon="4.07962">
        <ele>364</ele>
        <time>2016-03-27T21:34:29Z</time>
      </trkpt>
      <trkpt lat="44.27536" lon="4.07944">
        <ele>364</ele>
        <time>2016-03-27T21:36:29Z</time>
      </trkpt>
      <trkpt lat="44.27539" lon="4.07928">
        <ele>364</ele>
        <time>2016-03-27T21:38:29Z</time>
      </trkpt>
      <trkpt lat="44.27541" lon="4.0792">
        <ele>364</ele>
        <time>2016-03-27T21:40:29Z</time>
      </trkpt>
      <trkpt lat="44.27545" lon="4.07904">
        <ele>364</ele>
        <time>2016-03-27T21:42:29Z</time>
      </trkpt>
      <trkpt lat="44.27554" lon="4.07877">
        <ele>362</ele>
        <time>2016-03-27T21:44:29Z</time>
      </trkpt>
      <trkpt lat="44.27559" lon="4.07859">
        <ele>362</ele>
        <time>2016-03-27T21:46:29Z</time>
      </trkpt>
      <trkpt lat="44.27562" lon="4.07841">
        <ele>361</ele>
        <time>2016-03-27T21:48:29Z</time>
      </trkpt>
      <trkpt lat="44.27566" lon="4.07794">
        <ele>360</ele>
        <time>2016-03-27T21:50:29Z</time>
      </trkpt>
      <trkpt lat="44.27567" lon="4.07785">
        <ele>359</ele>
        <time>2016-03-27T21:52:29Z</time>
      </trkpt>
      <trkpt lat="44.27567" lon="4.07776">
        <ele>359</ele>
        <time>2016-03-27T21:54:29Z</time>
      </trkpt>
      <trkpt lat="44.27567" lon="4.07766">
        <ele>359</ele>
        <time>2016-03-27T21:56:29Z</time>
      </trkpt>
      <trkpt lat="44.27566" lon="4.07757">
        <ele>360</ele>
        <time>2016-03-27T21:58:29Z</time>
      </trkpt>
      <trkpt lat="44.27565" lon="4.07748">
        <ele>360</ele>
        <time>2016-03-27T22:00:29Z</time>
      </trkpt>
      <trkpt lat="44.27564" lon="4.07738">
        <ele>359</ele>
        <time>2016-03-27T22:02:29Z</time>
      </trkpt>
      <trkpt lat="44.27562" lon="4.07729">
        <ele>359</ele>
        <time>2016-03-27T22:04:29Z</time>
      </trkpt>
      <trkpt lat="44.27559" lon="4.07709">
        <ele>358</ele>
        <time>2016-03-27T22:06:29Z</time>
      </trkpt>
      <trkpt lat="44.27554" lon="4.07682">
        <ele>357</ele>
        <time>2016-03-27T22:08:29Z</time>
      </trkpt>
      <trkpt lat="44.27544" lon="4.07637">
        <ele>357</ele>
        <time>2016-03-27T22:10:29Z</time>
      </trkpt>
      <trkpt lat="44.27533" lon="4.07584">
        <ele>356</ele>
        <time>2016-03-27T22:12:29Z</time>
      </trkpt>
      <trkpt lat="44.27529" lon="4.07564">
        <ele>359</ele>
        <time>2016-03-27T22:14:29Z</time>
      </trkpt>
      <trkpt lat="44.27529" lon="4.07556">
        <ele>360</ele>
        <time>2016-03-27T22:16:29Z</time>
      </trkpt>
      <trkpt lat="44.27529" lon="4.07547">
        <ele>360</ele>
        <time>2016-03-27T22:18:29Z</time>
      </trkpt>
      <trkpt lat="44.27531" lon="4.07536">
        <ele>360</ele>
        <time>2016-03-27T22:20:29Z</time>
      </trkpt>
      <trkpt lat="44.27536" lon="4.07524">
        <ele>359</ele>
        <time>2016-03-27T22:22:29Z</time>
      </trkpt>
      <trkpt lat="44.27542" lon="4.07513">
        <ele>358</ele>
        <time>2016-03-27T22:24:29Z</time>
      </trkpt>
      <trkpt lat="44.27548" lon="4.07506">
        <ele>357</ele>
        <time>2016-03-27T22:26:29Z</time>
      </trkpt>
      <trkpt lat="44.27555" lon="4.07502">
        <ele>356</ele>
        <time>2016-03-27T22:28:29Z</time>
      </trkpt>
      <trkpt lat="44.27566" lon="4.07499">
        <ele>353</ele>
        <time>2016-03-27T22:30:29Z</time>
      </trkpt>
      <trkpt lat="44.27579" lon="4.07499">
        <ele>349</ele>
        <time>2016-03-27T22:32:29Z</time>
      </trkpt>
      <trkpt lat="44.2759" lon="4.07499">
        <ele>347</ele>
        <time>2016-03-27T22:34:29Z</time>
      </trkpt>
      <trkpt lat="44.27596" lon="4.07499">
        <ele>346</ele>
        <time>2016-03-27T22:36:29Z</time>
      </trkpt>
      <trkpt lat="44.27603" lon="4.07503">
        <ele>343</ele>
        <time>2016-03-27T22:38:29Z</time>
      </trkpt>
      <trkpt lat="44.27614" lon="4.07508">
        <ele>340</ele>
        <time>2016-03-27T22:40:29Z</time>
      </trkpt>
      <trkpt lat="44.27624" lon="4.07511">
        <ele>338</ele>
        <time>2016-03-27T22:42:29Z</time>
      </trkpt>
      <trkpt lat="44.27633" lon="4.07513">
        <ele>335</ele>
        <time>2016-03-27T22:44:29Z</time>
      </trkpt>
      <trkpt lat="44.27642" lon="4.07513">
        <ele>333</ele>
        <time>2016-03-27T22:46:29Z</time>
      </trkpt>
      <trkpt lat="44.27648" lon="4.07513">
        <ele>332</ele>
        <time>2016-03-27T22:48:29Z</time>
      </trkpt>
      <trkpt lat="44.27654" lon="4.0751">
        <ele>331</ele>
        <time>2016-03-27T22:50:29Z</time>
      </trkpt>
      <trkpt lat="44.27659" lon="4.07506">
        <ele>331</ele>
        <time>2016-03-27T22:52:29Z</time>
      </trkpt>
      <trkpt lat="44.27666" lon="4.07499">
        <ele>331</ele>
        <time>2016-03-27T22:54:29Z</time>
      </trkpt>
      <trkpt lat="44.2767" lon="4.07491">
        <ele>330</ele>
        <time>2016-03-27T22:56:29Z</time>
      </trkpt>
      <trkpt lat="44.27672" lon="4.07484">
        <ele>330</ele>
        <time>2016-03-27T22:58:29Z</time>
      </trkpt>
      <trkpt lat="44.27673" lon="4.07481">
        <ele>330</ele>
        <time>2016-03-27T23:00:29Z</time>
      </trkpt>
      <trkpt lat="44.27674" lon="4.07475">
        <ele>330</ele>
        <time>2016-03-27T23:02:29Z</time>
      </trkpt>
      <trkpt lat="44.27678" lon="4.07454">
        <ele>329</ele>
        <time>2016-03-27T23:04:29Z</time>
      </trkpt>
      <trkpt lat="44.2768" lon="4.0744">
        <ele>329</ele>
        <time>2016-03-27T23:06:29Z</time>
      </trkpt>
      <trkpt lat="44.2768" lon="4.07428">
        <ele>330</ele>
        <time>2016-03-27T23:08:29Z</time>
      </trkpt>
      <trkpt lat="44.27679" lon="4.07399">
        <ele>330</ele>
        <time>2016-03-27T23:10:29Z</time>
      </trkpt>
      <trkpt lat="44.27677" lon="4.07365">
        <ele>329</ele>
        <time>2016-03-27T23:12:29Z</time>
      </trkpt>
      <trkpt lat="44.27675" lon="4.07351">
        <ele>329</ele>
        <time>2016-03-27T23:14:29Z</time>
      </trkpt>
      <trkpt lat="44.27674" lon="4.07343">
        <ele>328</ele>
        <time>2016-03-27T23:16:29Z</time>
      </trkpt>
      <trkpt lat="44.27671" lon="4.07337">
        <ele>328</ele>
        <time>2016-03-27T23:18:29Z</time>
      </trkpt>
      <trkpt lat="44.27668" lon="4.07332">
        <ele>329</ele>
        <time>2016-03-27T23:20:29Z</time>
      </trkpt>
      <trkpt lat="44.27661" lon="4.07321">
        <ele>330</ele>
        <time>2016-03-27T23:22:29Z</time>
      </trkpt>
      <trkpt lat="44.27655" lon="4.07307">
        <ele>331</ele>
        <time>2016-03-27T23:24:29Z</time>
      </trkpt>
      <trkpt lat="44.2765" lon="4.07291">
        <ele>332</ele>
        <time>2016-03-27T23:26:29Z</time>
      </trkpt>
      <trkpt lat="44.27648" lon="4.07281">
        <ele>331</ele>
        <time>2016-03-27T23:28:29Z</time>
      </trkpt>
      <trkpt lat="44.27648" lon="4.07277">
        <ele>331</ele>
        <time>2016-03-27T23:30:29Z</time>
      </trkpt>
      <trkpt lat="44.27647" lon="4.07268">
        <ele>331</ele>
        <time>2016-03-27T23:32:29Z</time>
      </trkpt>
      <trkpt lat="44.27647" lon="4.07265">
        <ele>330</ele>
        <time>2016-03-27T23:34:29Z</time>
      </trkpt>
      <trkpt lat="44.27647" lon="4.0726">
        <ele>330</ele>
        <time>2016-03-27T23:36:29Z</time>
      </trkpt>
      <trkpt lat="44.27648" lon="4.0725">
        <ele>329</ele>
        <time>2016-03-27T23:38:29Z</time>
      </trkpt>
      <trkpt lat="44.2766" lon="4.07192">
        <ele>328</ele>
        <time>2016-03-27T23:40:29Z</time>
      </trkpt>
      <trkpt lat="44.27662" lon="4.07184">
        <ele>327</ele>
        <time>2016-03-27T23:42:29Z</time>
      </trkpt>
      <trkpt lat="44.27668" lon="4.07177">
        <ele>326</ele>
        <time>2016-03-27T23:44:29Z</time>
      </trkpt>
      <trkpt lat="44.27671" lon="4.07174">
        <ele>327</ele>
        <time>2016-03-27T23:46:29Z</time>
      </trkpt>
      <trkpt lat="44.27674" lon="4.07172">
        <ele>327</ele>
        <time>2016-03-27T23:48:29Z</time>
      </trkpt>
      <trkpt lat="44.27678" lon="4.0717">
        <ele>328</ele>
        <time>2016-03-27T23:50:29Z</time>
      </trkpt>
      <trkpt lat="44.27681" lon="4.07169">
        <ele>328</ele>
        <time>2016-03-27T23:52:29Z</time>
      </trkpt>
      <trkpt lat="44.2769" lon="4.07171">
        <ele>329</ele>
        <time>2016-03-27T23:54:29Z</time>
      </trkpt>
      <trkpt lat="44.27698" lon="4.07174">
        <ele>329</ele>
        <time>2016-03-27T23:56:29Z</time>
      </trkpt>
      <trkpt lat="44.27705" lon="4.07181">
        <ele>329</ele>
        <time>2016-03-27T23:58:29Z</time>
      </trkpt>
      <trkpt lat="44.2771" lon="4.07188">
        <ele>328</ele>
        <time>2016-03-28T00:00:29Z</time>
      </trkpt>
      <trkpt lat="44.27715" lon="4.07205">
        <ele>327</ele>
        <time>2016-03-28T00:02:29Z</time>
      </trkpt>
      <trkpt lat="44.27721" lon="4.07229">
        <ele>324</ele>
        <time>2016-03-28T00:04:29Z</time>
      </trkpt>
      <trkpt lat="44.27726" lon="4.07255">
        <ele>322</ele>
        <time>2016-03-28T00:06:29Z</time>
      </trkpt>
      <trkpt lat="44.27727" lon="4.07258">
        <ele>322</ele>
        <time>2016-03-28T00:08:29Z</time>
      </trkpt>
      <trkpt lat="44.27731" lon="4.07268">
        <ele>321</ele>
        <time>2016-03-28T00:10:29Z</time>
      </trkpt>
      <trkpt lat="44.27732" lon="4.07274">
        <ele>321</ele>
        <time>2016-03-28T00:12:29Z</time>
      </trkpt>
      <trkpt lat="44.27734" lon="4.07281">
        <ele>321</ele>
        <time>2016-03-28T00:14:29Z</time>
      </trkpt>
      <trkpt lat="44.27737" lon="4.07297">
        <ele>320</ele>
        <time>2016-03-28T00:16:29Z</time>
      </trkpt>
      <trkpt lat="44.27745" lon="4.07322">
        <ele>317</ele>
        <time>2016-03-28T00:18:29Z</time>
      </trkpt>
      <trkpt lat="44.27752" lon="4.07339">
        <ele>315</ele>
        <time>2016-03-28T00:20:29Z</time>
      </trkpt>
      <trkpt lat="44.27754" lon="4.07348">
        <ele>315</ele>
        <time>2016-03-28T00:22:29Z</time>
      </trkpt>
      <trkpt lat="44.27756" lon="4.07366">
        <ele>313</ele>
        <time>2016-03-28T00:24:29Z</time>
      </trkpt>
      <trkpt lat="44.2776" lon="4.07386">
        <ele>312</ele>
        <time>2016-03-28T00:26:29Z</time>
      </trkpt>
      <trkpt lat="44.27764" lon="4.07401">
        <ele>311</ele>
        <time>2016-03-28T00:28:29Z</time>
      </trkpt>
      <trkpt lat="44.27772" lon="4.07432">
        <ele>310</ele>
        <time>2016-03-28T00:30:29Z</time>
      </trkpt>
      <trkpt lat="44.2778" lon="4.07462">
        <ele>309</ele>
        <time>2016-03-28T00:32:29Z</time>
      </trkpt>
      <trkpt lat="44.27782" lon="4.07474">
        <ele>309</ele>
        <time>2016-03-28T00:34:29Z</time>
      </trkpt>
      <trkpt lat="44.27783" lon="4.07485">
        <ele>308</ele>
        <time>2016-03-28T00:36:29Z</time>
      </trkpt>
      <trkpt lat="44.27783" lon="4.07515">
        <ele>304</ele>
        <time>2016-03-28T00:38:29Z</time>
      </trkpt>
      <trkpt lat="44.27782" lon="4.07538">
        <ele>300</ele>
        <time>2016-03-28T00:40:29Z</time>
      </trkpt>
      <trkpt lat="44.27782" lon="4.07548">
        <ele>299</ele>
        <time>2016-03-28T00:42:29Z</time>
      </trkpt>
      <trkpt lat="44.27783" lon="4.0756">
        <ele>297</ele>
        <time>2016-03-28T00:44:29Z</time>
      </trkpt>
      <trkpt lat="44.27788" lon="4.07585">
        <ele>294</ele>
        <time>2016-03-28T00:46:29Z</time>
      </trkpt>
      <trkpt lat="44.27793" lon="4.0761">
        <ele>291</ele>
        <time>2016-03-28T00:48:29Z</time>
      </trkpt>
      <trkpt lat="44.27797" lon="4.07623">
        <ele>289</ele>
        <time>2016-03-28T00:50:29Z</time>
      </trkpt>
      <trkpt lat="44.27802" lon="4.07633">
        <ele>288</ele>
        <time>2016-03-28T00:52:29Z</time>
      </trkpt>
      <trkpt lat="44.27807" lon="4.07641">
        <ele>287</ele>
        <time>2016-03-28T00:54:29Z</time>
      </trkpt>
      <trkpt lat="44.2781" lon="4.0765">
        <ele>287</ele>
        <time>2016-03-28T00:56:29Z</time>
      </trkpt>
      <trkpt lat="44.27813" lon="4.07662">
        <ele>285</ele>
        <time>2016-03-28T00:58:29Z</time>
      </trkpt>
      <trkpt lat="44.27816" lon="4.07681">
        <ele>283</ele>
        <time>2016-03-28T01:00:29Z</time>
      </trkpt>
      <trkpt lat="44.27818" lon="4.07691">
        <ele>282</ele>
        <time>2016-03-28T01:02:29Z</time>
      </trkpt>
      <trkpt lat="44.27822" lon="4.077">
        <ele>282</ele>
        <time>2016-03-28T01:04:29Z</time>
      </trkpt>
      <trkpt lat="44.27827" lon="4.07706">
        <ele>281</ele>
        <time>2016-03-28T01:06:29Z</time>
      </trkpt>
      <trkpt lat="44.27838" lon="4.07716">
        <ele>281</ele>
        <time>2016-03-28T01:08:29Z</time>
      </trkpt>
      <trkpt lat="44.27843" lon="4.07724">
        <ele>281</ele>
        <time>2016-03-28T01:10:29Z</time>
      </trkpt>
      <trkpt lat="44.27848" lon="4.07731">
        <ele>281</ele>
        <time>2016-03-28T01:12:29Z</time>
      </trkpt>
      <trkpt lat="44.2785" lon="4.0774">
        <ele>281</ele>
        <time>2016-03-28T01:14:29Z</time>
      </trkpt>
      <trkpt lat="44.2785" lon="4.07744">
        <ele>280</ele>
        <time>2016-03-28T01:16:29Z</time>
      </trkpt>
      <trkpt lat="44.2785" lon="4.07748">
        <ele>280</ele>
        <time>2016-03-28T01:18:29Z</time>
      </trkpt>
      <trkpt lat="44.27849" lon="4.07756">
        <ele>279</ele>
        <time>2016-03-28T01:20:29Z</time>
      </trkpt>
      <trkpt lat="44.27842" lon="4.07771">
        <ele>277</ele>
        <time>2016-03-28T01:22:29Z</time>
      </trkpt>
      <trkpt lat="44.27838" lon="4.07778">
        <ele>275</ele>
        <time>2016-03-28T01:24:29Z</time>
      </trkpt>
      <trkpt lat="44.27835" lon="4.07787">
        <ele>274</ele>
        <time>2016-03-28T01:26:29Z</time>
      </trkpt>
      <trkpt lat="44.27832" lon="4.07809">
        <ele>273</ele>
        <time>2016-03-28T01:28:29Z</time>
      </trkpt>
      <trkpt lat="44.27826" lon="4.07841">
        <ele>271</ele>
        <time>2016-03-28T01:30:29Z</time>
      </trkpt>
      <trkpt lat="44.27824" lon="4.07856">
        <ele>271</ele>
        <time>2016-03-28T01:32:29Z</time>
      </trkpt>
      <trkpt lat="44.27824" lon="4.07873">
        <ele>271</ele>
        <time>2016-03-28T01:34:29Z</time>
      </trkpt>
      <trkpt lat="44.27824" lon="4.07905">
        <ele>270</ele>
        <time>2016-03-28T01:36:29Z</time>
      </trkpt>
      <trkpt lat="44.27823" lon="4.07912">
        <ele>270</ele>
        <time>2016-03-28T01:38:29Z</time>
      </trkpt>
      <trkpt lat="44.27823" lon="4.07929">
        <ele>270</ele>
        <time>2016-03-28T01:40:29Z</time>
      </trkpt>
      <trkpt lat="44.27824" lon="4.07947">
        <ele>269</ele>
        <time>2016-03-28T01:42:29Z</time>
      </trkpt>
      <trkpt lat="44.27825" lon="4.07966">
        <ele>268</ele>
        <time>2016-03-28T01:44:29Z</time>
      </trkpt>
      <trkpt lat="44.27827" lon="4.07985">
        <ele>267</ele>
        <time>2016-03-28T01:46:29Z</time>
      </trkpt>
      <trkpt lat="44.27828" lon="4.07991">
        <ele>266</ele>
        <time>2016-03-28T01:48:29Z</time>
      </trkpt>
      <trkpt lat="44.2783" lon="4.07997">
        <ele>266</ele>
        <time>2016-03-28T01:50:29Z</time>
      </trkpt>
      <trkpt lat="44.27834" lon="4.08009">
        <ele>265</ele>
        <time>2016-03-28T01:52:29Z</time>
      </trkpt>
      <trkpt lat="44.27838" lon="4.08022">
        <ele>265</ele>
        <time>2016-03-28T01:54:29Z</time>
      </trkpt>
      <trkpt lat="44.27846" lon="4.0804">
        <ele>266</ele>
        <time>2016-03-28T01:56:29Z</time>
      </trkpt>
      <trkpt lat="44.27848" lon="4.08052">
        <ele>266</ele>
        <time>2016-03-28T01:58:29Z</time>
      </trkpt>
      <trkpt lat="44.27851" lon="4.08065">
        <ele>266</ele>
        <time>2016-03-28T02:00:29Z</time>
      </trkpt>
      <trkpt lat="44.27852" lon="4.08078">
        <ele>266</ele>
        <time>2016-03-28T02:02:29Z</time>
      </trkpt>
      <trkpt lat="44.27852" lon="4.08082">
        <ele>266</ele>
        <time>2016-03-28T02:04:29Z</time>
      </trkpt>
      <trkpt lat="44.27852" lon="4.08089">
        <ele>266</ele>
        <time>2016-03-28T02:06:29Z</time>
      </trkpt>
      <trkpt lat="44.2785" lon="4.08102">
        <ele>265</ele>
        <time>2016-03-28T02:08:29Z</time>
      </trkpt>
      <trkpt lat="44.27847" lon="4.08128">
        <ele>263</ele>
        <time>2016-03-28T02:10:29Z</time>
      </trkpt>
      <trkpt lat="44.27845" lon="4.08146">
        <ele>261</ele>
        <time>2016-03-28T02:12:29Z</time>
      </trkpt>
      <trkpt lat="44.27845" lon="4.08159">
        <ele>261</ele>
        <time>2016-03-28T02:14:29Z</time>
      </trkpt>
      <trkpt lat="44.27845" lon="4.08181">
        <ele>260</ele>
        <time>2016-03-28T02:16:29Z</time>
      </trkpt>
      <trkpt lat="44.27845" lon="4.08197">
        <ele>259</ele>
        <time>2016-03-28T02:18:29Z</time>
      </trkpt>
      <trkpt lat="44.27845" lon="4.0821">
        <ele>259</ele>
        <time>2016-03-28T02:20:29Z</time>
      </trkpt>
      <trkpt lat="44.27846" lon="4.08222">
        <ele>259</ele>
        <time>2016-03-28T02:22:29Z</time>
      </trkpt>
      <trkpt lat="44.27848" lon="4.08237">
        <ele>259</ele>
        <time>2016-03-28T02:24:29Z</time>
      </trkpt>
      <trkpt lat="44.27848" lon="4.08246">
        <ele>259</ele>
        <time>2016-03-28T02:26:29Z</time>
      </trkpt>
      <trkpt lat="44.27848" lon="4.08256">
        <ele>259</ele>
        <time>2016-03-28T02:28:29Z</time>
      </trkpt>
      <trkpt lat="44.27847" lon="4.08267">
        <ele>258</ele>
        <time>2016-03-28T02:30:29Z</time>
      </trkpt>
      <trkpt lat="44.27845" lon="4.08279">
        <ele>258</ele>
        <time>2016-03-28T02:32:29Z</time>
      </trkpt>
      <trkpt lat="44.27843" lon="4.08292">
        <ele>257</ele>
        <time>2016-03-28T02:34:29Z</time>
      </trkpt>
      <trkpt lat="44.27843" lon="4.08307">
        <ele>256</ele>
        <time>2016-03-28T02:36:29Z</time>
      </trkpt>
      <trkpt lat="44.27842" lon="4.08316">
        <ele>256</ele>
        <time>2016-03-28T02:38:29Z</time>
      </trkpt>
      <trkpt lat="44.2784" lon="4.08325">
        <ele>255</ele>
        <time>2016-03-28T02:40:29Z</time>
      </trkpt>
      <trkpt lat="44.27839" lon="4.08337">
        <ele>254</ele>
        <time>2016-03-28T02:42:29Z</time>
      </trkpt>
      <trkpt lat="44.27838" lon="4.0835">
        <ele>253</ele>
        <time>2016-03-28T02:44:29Z</time>
      </trkpt>
      <trkpt lat="44.27838" lon="4.08367">
        <ele>253</ele>
        <time>2016-03-28T02:46:29Z</time>
      </trkpt>
      <trkpt lat="44.27838" lon="4.08378">
        <ele>252</ele>
        <time>2016-03-28T02:48:29Z</time>
      </trkpt>
      <trkpt lat="44.27839" lon="4.08386">
        <ele>252</ele>
        <time>2016-03-28T02:50:29Z</time>
      </trkpt>
      <trkpt lat="44.27841" lon="4.08397">
        <ele>253</ele>
        <time>2016-03-28T02:52:29Z</time>
      </trkpt>
      <trkpt lat="44.27845" lon="4.08412">
        <ele>254</ele>
        <time>2016-03-28T02:54:29Z</time>
      </trkpt>
      <trkpt lat="44.27849" lon="4.0843">
        <ele>254</ele>
        <time>2016-03-28T02:56:29Z</time>
      </trkpt>
      <trkpt lat="44.27852" lon="4.08441">
        <ele>255</ele>
        <time>2016-03-28T02:58:29Z</time>
      </trkpt>
      <trkpt lat="44.27854" lon="4.0845">
        <ele>255</ele>
        <time>2016-03-28T03:00:29Z</time>
      </trkpt>
      <trkpt lat="44.27855" lon="4.08458">
        <ele>255</ele>
        <time>2016-03-28T03:02:29Z</time>
      </trkpt>
      <trkpt lat="44.27858" lon="4.08488">
        <ele>255</ele>
        <time>2016-03-28T03:04:29Z</time>
      </trkpt>
      <trkpt lat="44.2786" lon="4.08515">
        <ele>254</ele>
        <time>2016-03-28T03:06:29Z</time>
      </trkpt>
      <trkpt lat="44.27863" lon="4.08541">
        <ele>253</ele>
        <time>2016-03-28T03:08:29Z</time>
      </trkpt>
      <trkpt lat="44.27867" lon="4.08572">
        <ele>252</ele>
        <time>2016-03-28T03:10:29Z</time>
      </trkpt>
      <trkpt lat="44.27869" lon="4.08588">
        <ele>252</ele>
        <time>2016-03-28T03:12:29Z</time>
      </trkpt>
      <trkpt lat="44.27871" lon="4.08603">
        <ele>251</ele>
        <time>2016-03-28T03:14:29Z</time>
      </trkpt>
      <trkpt lat="44.27872" lon="4.08612">
        <ele>251</ele>
        <time>2016-03-28T03:16:29Z</time>
      </trkpt>
      <trkpt lat="44.27873" lon="4.08626">
        <ele>251</ele>
        <time>2016-03-28T03:18:29Z</time>
      </trkpt>
      <trkpt lat="44.27873" lon="4.08643">
        <ele>250</ele>
        <time>2016-03-28T03:20:29Z</time>
      </trkpt>
      <trkpt lat="44.27872" lon="4.08661">
        <ele>248</ele>
        <time>2016-03-28T03:22:29Z</time>
      </trkpt>
      <trkpt lat="44.27872" lon="4.08684">
        <ele>247</ele>
        <time>2016-03-28T03:24:29Z</time>
      </trkpt>
      <trkpt lat="44.27872" lon="4.08698">
        <ele>247</ele>
        <time>2016-03-28T03:26:29Z</time>
      </trkpt>
      <trkpt lat="44.27873" lon="4.08707">
        <ele>247</ele>
        <time>2016-03-28T03:28:29Z</time>
      </trkpt>
      <trkpt lat="44.27876" lon="4.08719">
        <ele>246</ele>
        <time>2016-03-28T03:30:29Z</time>
      </trkpt>
      <trkpt lat="44.27882" lon="4.08737">
        <ele>246</ele>
        <time>2016-03-28T03:32:29Z</time>
      </trkpt>
      <trkpt lat="44.27887" lon="4.08751">
        <ele>245</ele>
        <time>2016-03-28T03:34:29Z</time>
      </trkpt>
      <trkpt lat="44.27887" lon="4.08751">
        <ele>245</ele>
        <time>2016-03-28T03:36:29Z</time>
      </trkpt>
      <trkpt lat="44.27881" lon="4.08757">
        <ele>245</ele>
        <time>2016-03-28T03:38:29Z</time>
      </trkpt>
      <trkpt lat="44.27876" lon="4.08762">
        <ele>244</ele>
        <time>2016-03-28T03:40:29Z</time>
      </trkpt>
      <trkpt lat="44.27872" lon="4.08768">
        <ele>244</ele>
        <time>2016-03-28T03:42:29Z</time>
      </trkpt>
      <trkpt lat="44.27868" lon="4.08777">
        <ele>244</ele>
        <time>2016-03-28T03:44:29Z</time>
      </trkpt>
      <trkpt lat="44.27866" lon="4.08786">
        <ele>243</ele>
        <time>2016-03-28T03:46:29Z</time>
      </trkpt>
      <trkpt lat="44.27866" lon="4.08788">
        <ele>243</ele>
        <time>2016-03-28T03:48:29Z</time>
      </trkpt>
      <trkpt lat="44.27865" lon="4.08799">
        <ele>243</ele>
        <time>2016-03-28T03:50:29Z</time>
      </trkpt>
      <trkpt lat="44.27869" lon="4.08823">
        <ele>241</ele>
        <time>2016-03-28T03:52:29Z</time>
      </trkpt>
      <trkpt lat="44.27877" lon="4.08859">
        <ele>241</ele>
        <time>2016-03-28T03:54:29Z</time>
      </trkpt>
      <trkpt lat="44.27882" lon="4.08879">
        <ele>241</ele>
        <time>2016-03-28T03:56:29Z</time>
      </trkpt>
      <trkpt lat="44.27887" lon="4.08895">
        <ele>240</ele>
        <time>2016-03-28T03:58:29Z</time>
      </trkpt>
      <trkpt lat="44.27892" lon="4.08905">
        <ele>239</ele>
        <time>2016-03-28T04:00:29Z</time>
      </trkpt>
      <trkpt lat="44.27902" lon="4.0892">
        <ele>236</ele>
        <time>2016-03-28T04:02:29Z</time>
      </trkpt>
      <trkpt lat="44.27916" lon="4.08936">
        <ele>234</ele>
        <time>2016-03-28T04:04:29Z</time>
      </trkpt>
      <trkpt lat="44.2793" lon="4.08947">
        <ele>235</ele>
        <time>2016-03-28T04:06:29Z</time>
      </trkpt>
      <trkpt lat="44.27952" lon="4.08961">
        <ele>236</ele>
        <time>2016-03-28T04:08:29Z</time>
      </trkpt>
      <trkpt lat="44.27962" lon="4.08966">
        <ele>236</ele>
        <time>2016-03-28T04:10:29Z</time>
      </trkpt>
      <trkpt lat="44.27975" lon="4.08978">
        <ele>235</ele>
        <time>2016-03-28T04:12:29Z</time>
      </trkpt>
      <trkpt lat="44.27981" lon="4.08986">
        <ele>235</ele>
        <time>2016-03-28T04:14:29Z</time>
      </trkpt>
      <trkpt lat="44.27986" lon="4.08993">
        <ele>234</ele>
        <time>2016-03-28T04:16:29Z</time>
      </trkpt>
      <trkpt lat="44.27989" lon="4.08999">
        <ele>234</ele>
        <time>2016-03-28T04:18:29Z</time>
      </trkpt>
      <trkpt lat="44.27992" lon="4.09004">
        <ele>234</ele>
        <time>2016-03-28T04:20:29Z</time>
      </trkpt>
      <trkpt lat="44.27996" lon="4.09019">
        <ele>233</ele>
        <time>2016-03-28T04:22:29Z</time>
      </trkpt>
      <trkpt lat="44.28" lon="4.09034">
        <ele>232</ele>
        <time>2016-03-28T04:24:29Z</time>
      </trkpt>
      <trkpt lat="44.28004" lon="4.09051">
        <ele>232</ele>
        <time>2016-03-28T04:26:29Z</time>
      </trkpt>
      <trkpt lat="44.2801" lon="4.09081">
        <ele>232</ele>
        <time>2016-03-28T04:28:29Z</time>
      </trkpt>
      <trkpt lat="44.28015" lon="4.0911">
        <ele>232</ele>
        <time>2016-03-28T04:30:29Z</time>
      </trkpt>
      <trkpt lat="44.28018" lon="4.09133">
        <ele>231</ele>
        <time>2016-03-28T04:32:29Z</time>
      </trkpt>
      <trkpt lat="44.2802" lon="4.09146">
        <ele>230</ele>
        <time>2016-03-28T04:34:29Z</time>
      </trkpt>
      <trkpt lat="44.28021" lon="4.0916">
        <ele>230</ele>
        <time>2016-03-28T04:36:29Z</time>
      </trkpt>
      <trkpt lat="44.28021" lon="4.09177">
        <ele>230</ele>
        <time>2016-03-28T04:38:29Z</time>
      </trkpt>
      <trkpt lat="44.28021" lon="4.09188">
        <ele>230</ele>
        <time>2016-03-28T04:40:29Z</time>
      </trkpt>
      <trkpt lat="44.28021" lon="4.09205">
        <ele>231</ele>
        <time>2016-03-28T04:42:29Z</time>
      </trkpt>
      <trkpt lat="44.28023" lon="4.09227">
        <ele>231</ele>
        <time>2016-03-28T04:44:29Z</time>
      </trkpt>
      <trkpt lat="44.28025" lon="4.09252">
        <ele>231</ele>
        <time>2016-03-28T04:46:29Z</time>
      </trkpt>
      <trkpt lat="44.28029" lon="4.09278">
        <ele>231</ele>
        <time>2016-03-28T04:48:29Z</time>
      </trkpt>
      <trkpt lat="44.28031" lon="4.09291">
        <ele>232</ele>
        <time>2016-03-28T04:50:29Z</time>
      </trkpt>
      <trkpt lat="44.28034" lon="4.09302">
        <ele>231</ele>
        <time>2016-03-28T04:52:29Z</time>
      </trkpt>
      <trkpt lat="44.28038" lon="4.09314">
        <ele>231</ele>
        <time>2016-03-28T04:54:29Z</time>
      </trkpt>
      <trkpt lat="44.28045" lon="4.09327">
        <ele>229</ele>
        <time>2016-03-28T04:56:29Z</time>
      </trkpt>
      <trkpt lat="44.28057" lon="4.0935">
        <ele>226</ele>
        <time>2016-03-28T04:58:29Z</time>
      </trkpt>
      <trkpt lat="44.28073" lon="4.09378">
        <ele>222</ele>
        <time>2016-03-28T05:00:29Z</time>
      </trkpt>
      <trkpt lat="44.28086" lon="4.09398">
        <ele>219</ele>
        <time>2016-03-28T05:02:29Z</time>
      </trkpt>
      <trkpt lat="44.2809" lon="4.09406">
        <ele>220</ele>
        <time>2016-03-28T05:04:29Z</time>
      </trkpt>
      <trkpt lat="44.28094" lon="4.09417">
        <ele>220</ele>
        <time>2016-03-28T05:06:29Z</time>
      </trkpt>
      <trkpt lat="44.28104" lon="4.0945">
        <ele>222</ele>
        <time>2016-03-28T05:08:29Z</time>
      </trkpt>
      <trkpt lat="44.28105" lon="4.09454">
        <ele>222</ele>
        <time>2016-03-28T05:10:29Z</time>
      </trkpt>
      <trkpt lat="44.28111" lon="4.09479">
        <ele>222</ele>
        <time>2016-03-28T05:12:29Z</time>
      </trkpt>
      <trkpt lat="44.28122" lon="4.09509">
        <ele>222</ele>
        <time>2016-03-28T05:14:29Z</time>
      </trkpt>
      <trkpt lat="44.2813" lon="4.09541">
        <ele>223</ele>
        <time>2016-03-28T05:16:29Z</time>
      </trkpt>
      <trkpt lat="44.28135" lon="4.09562">
        <ele>223</ele>
        <time>2016-03-28T05:18:29Z</time>
      </trkpt>
      <trkpt lat="44.28137" lon="4.09569">
        <ele>223</ele>
        <time>2016-03-28T05:20:29Z</time>
      </trkpt>
      <trkpt lat="44.28138" lon="4.09578">
        <ele>223</ele>
        <time>2016-03-28T05:22:29Z</time>
      </trkpt>
      <trkpt lat="44.28138" lon="4.09589">
        <ele>223</ele>
        <time>2016-03-28T05:24:29Z</time>
      </trkpt>
      <trkpt lat="44.28136" lon="4.09601">
        <ele>223</ele>
        <time>2016-03-28T05:26:29Z</time>
      </trkpt>
      <trkpt lat="44.28132" lon="4.0962">
        <ele>222</ele>
        <time>2016-03-28T05:28:29Z</time>
      </trkpt>
      <trkpt lat="44.28128" lon="4.09635">
        <ele>221</ele>
        <time>2016-03-28T05:30:29Z</time>
      </trkpt>
      <trkpt lat="44.28126" lon="4.09644">
        <ele>221</ele>
        <time>2016-03-28T05:32:29Z</time>
      </trkpt>
      <trkpt lat="44.28125" lon="4.09654">
        <ele>220</ele>
        <time>2016-03-28T05:34:29Z</time>
      </trkpt>
      <trkpt lat="44.28124" lon="4.09667">
        <ele>219</ele>
        <time>2016-03-28T05:36:29Z</time>
      </trkpt>
      <trkpt lat="44.28124" lon="4.09688">
        <ele>219</ele>
        <time>2016-03-28T05:38:29Z</time>
      </trkpt>
      <trkpt lat="44.28124" lon="4.09689">
        <ele>219</ele>
        <time>2016-03-28T05:40:29Z</time>
      </trkpt>
      <trkpt lat="44.28124" lon="4.097">
        <ele>219</ele>
        <time>2016-03-28T05:42:29Z</time>
      </trkpt>
      <trkpt lat="44.28123" lon="4.09704">
        <ele>219</ele>
        <time>2016-03-28T05:44:29Z</time>
      </trkpt>
      <trkpt lat="44.28122" lon="4.09708">
        <ele>218</ele>
        <time>2016-03-28T05:46:29Z</time>
      </trkpt>
      <trkpt lat="44.2812" lon="4.09719">
        <ele>218</ele>
        <time>2016-03-28T05:48:29Z</time>
      </trkpt>
      <trkpt lat="44.28115" lon="4.09734">
        <ele>217</ele>
        <time>2016-03-28T05:50:29Z</time>
      </trkpt>
      <trkpt lat="44.2811" lon="4.09745">
        <ele>215</ele>
        <time>2016-03-28T05:52:29Z</time>
      </trkpt>
      <trkpt lat="44.28106" lon="4.09753">
        <ele>214</ele>
        <time>2016-03-28T05:54:29Z</time>
      </trkpt>
      <trkpt lat="44.281" lon="4.0976">
        <ele>212</ele>
        <time>2016-03-28T05:56:29Z</time>
      </trkpt>
      <trkpt lat="44.28088" lon="4.0977">
        <ele>208</ele>
        <time>2016-03-28T05:58:29Z</time>
      </trkpt>
      <trkpt lat="44.2808" lon="4.0978">
        <ele>207</ele>
        <time>2016-03-28T06:00:29Z</time>
      </trkpt>
      <trkpt lat="44.28066" lon="4.09801">
        <ele>208</ele>
        <time>2016-03-28T06:02:29Z</time>
      </trkpt>
      <trkpt lat="44.28062" lon="4.09809">
        <ele>208</ele>
        <time>2016-03-28T06:04:29Z</time>
      </trkpt>
      <trkpt lat="44.2806" lon="4.09816">
        <ele>207</ele>
        <time>2016-03-28T06:06:29Z</time>
      </trkpt>
      <trkpt lat="44.28058" lon="4.09824">
        <ele>207</ele>
        <time>2016-03-28T06:08:29Z</time>
      </trkpt>
      <trkpt lat="44.28057" lon="4.09833">
        <ele>206</ele>
        <time>2016-03-28T06:10:29Z</time>
      </trkpt>
      <trkpt lat="44.28057" lon="4.0984">
        <ele>206</ele>
        <time>2016-03-28T06:12:29Z</time>
      </trkpt>
      <trkpt lat="44.28058" lon="4.09845">
        <ele>206</ele>
        <time>2016-03-28T06:14:29Z</time>
      </trkpt>
      <trkpt lat="44.2806" lon="4.09857">
        <ele>206</ele>
        <time>2016-03-28T06:16:29Z</time>
      </trkpt>
      <trkpt lat="44.28061" lon="4.09863">
        <ele>206</ele>
        <time>2016-03-28T06:18:29Z</time>
      </trkpt>
      <trkpt lat="44.28061" lon="4.0987">
        <ele>207</ele>
        <time>2016-03-28T06:20:29Z</time>
      </trkpt>
      <trkpt lat="44.28059" lon="4.09884">
        <ele>207</ele>
        <time>2016-03-28T06:22:29Z</time>
      </trkpt>
      <trkpt lat="44.28047" lon="4.09927">
        <ele>207</ele>
        <time>2016-03-28T06:24:29Z</time>
      </trkpt>
      <trkpt lat="44.28033" lon="4.09981">
        <ele>208</ele>
        <time>2016-03-28T06:26:29Z</time>
      </trkpt>
      <trkpt lat="44.2802" lon="4.10036">
        <ele>204</ele>
        <time>2016-03-28T06:28:29Z</time>
      </trkpt>
      <trkpt lat="44.28012" lon="4.1007">
        <ele>201</ele>
        <time>2016-03-28T06:30:29Z</time>
      </trkpt>
      <trkpt lat="44.2801" lon="4.10081">
        <ele>200</ele>
        <time>2016-03-28T06:32:29Z</time>
      </trkpt>
      <trkpt lat="44.28009" lon="4.10088">
        <ele>199</ele>
        <time>2016-03-28T06:34:29Z</time>
      </trkpt>
      <trkpt lat="44.28009" lon="4.10098">
        <ele>199</ele>
        <time>2016-03-28T06:36:29Z</time>
      </trkpt>
      <trkpt lat="44.2801" lon="4.10109">
        <ele>200</ele>
        <time>2016-03-28T06:38:29Z</time>
      </trkpt>
      <trkpt lat="44.28012" lon="4.10124">
        <ele>200</ele>
        <time>2016-03-28T06:40:29Z</time>
      </trkpt>
      <trkpt lat="44.28015" lon="4.10136">
        <ele>201</ele>
        <time>2016-03-28T06:42:29Z</time>
      </trkpt>
      <trkpt lat="44.28016" lon="4.10146">
        <ele>201</ele>
        <time>2016-03-28T06:44:29Z</time>
      </trkpt>
      <trkpt lat="44.28018" lon="4.10158">
        <ele>202</ele>
        <time>2016-03-28T06:46:29Z</time>
      </trkpt>
      <trkpt lat="44.28019" lon="4.10172">
        <ele>202</ele>
        <time>2016-03-28T06:48:29Z</time>
      </trkpt>
      <trkpt lat="44.28019" lon="4.1019">
        <ele>202</ele>
        <time>2016-03-28T06:50:29Z</time>
      </trkpt>
      <trkpt lat="44.28019" lon="4.10212">
        <ele>201</ele>
        <time>2016-03-28T06:52:29Z</time>
      </trkpt>
      <trkpt lat="44.28018" lon="4.10227">
        <ele>201</ele>
        <time>2016-03-28T06:54:29Z</time>
      </trkpt>
      <trkpt lat="44.28017" lon="4.10238">
        <ele>200</ele>
        <time>2016-03-28T06:56:29Z</time>
      </trkpt>
      <trkpt lat="44.28015" lon="4.1025">
        <ele>199</ele>
        <time>2016-03-28T06:58:29Z</time>
      </trkpt>
      <trkpt lat="44.28014" lon="4.1026">
        <ele>199</ele>
        <time>2016-03-28T07:00:29Z</time>
      </trkpt>
      <trkpt lat="44.28014" lon="4.10271">
        <ele>199</ele>
        <time>2016-03-28T07:02:29Z</time>
      </trkpt>
      <trkpt lat="44.28014" lon="4.10286">
        <ele>200</ele>
        <time>2016-03-28T07:04:29Z</time>
      </trkpt>
      <trkpt lat="44.28014" lon="4.10297">
        <ele>200</ele>
        <time>2016-03-28T07:06:29Z</time>
      </trkpt>
      <trkpt lat="44.28013" lon="4.10317">
        <ele>200</ele>
        <time>2016-03-28T07:08:29Z</time>
      </trkpt>
      <trkpt lat="44.28012" lon="4.10338">
        <ele>201</ele>
        <time>2016-03-28T07:10:29Z</time>
      </trkpt>
      <trkpt lat="44.2801" lon="4.10354">
        <ele>201</ele>
        <time>2016-03-28T07:12:29Z</time>
      </trkpt>
      <trkpt lat="44.28009" lon="4.10366">
        <ele>201</ele>
        <time>2016-03-28T07:14:29Z</time>
      </trkpt>
      <trkpt lat="44.28005" lon="4.10383">
        <ele>201</ele>
        <time>2016-03-28T07:16:29Z</time>
      </trkpt>
      <trkpt lat="44.28" lon="4.10403">
        <ele>200</ele>
        <time>2016-03-28T07:18:29Z</time>
      </trkpt>
      <trkpt lat="44.28" lon="4.10405">
        <ele>200</ele>
        <time>2016-03-28T07:20:29Z</time>
      </trkpt>
      <trkpt lat="44.27994" lon="4.1042">
        <ele>201</ele>
        <time>2016-03-28T07:22:29Z</time>
      </trkpt>
      <trkpt lat="44.27987" lon="4.10433">
        <ele>202</ele>
        <time>2016-03-28T07:24:29Z</time>
      </trkpt>
      <trkpt lat="44.27968" lon="4.10457">
        <ele>201</ele>
        <time>2016-03-28T07:26:29Z</time>
      </trkpt>
      <trkpt lat="44.27955" lon="4.10473">
        <ele>199</ele>
        <time>2016-03-28T07:28:29Z</time>
      </trkpt>
      <trkpt lat="44.27945" lon="4.10489">
        <ele>197</ele>
        <time>2016-03-28T07:30:29Z</time>
      </trkpt>
      <trkpt lat="44.27937" lon="4.10503">
        <ele>195</ele>
        <time>2016-03-28T07:32:29Z</time>
      </trkpt>
      <trkpt lat="44.27931" lon="4.10516">
        <ele>194</ele>
        <time>2016-03-28T07:34:29Z</time>
      </trkpt>
      <trkpt lat="44.27928" lon="4.1053">
        <ele>193</ele>
        <time>2016-03-28T07:36:29Z</time>
      </trkpt>
      <trkpt lat="44.27924" lon="4.10542">
        <ele>192</ele>
        <time>2016-03-28T07:38:29Z</time>
      </trkpt>
      <trkpt lat="44.27922" lon="4.10558">
        <ele>191</ele>
        <time>2016-03-28T07:40:29Z</time>
      </trkpt>
      <trkpt lat="44.27921" lon="4.1058">
        <ele>191</ele>
        <time>2016-03-28T07:42:29Z</time>
      </trkpt>
      <trkpt lat="44.27919" lon="4.10613">
        <ele>188</ele>
        <time>2016-03-28T07:44:29Z</time>
      </trkpt>
      <trkpt lat="44.27918" lon="4.10655">
        <ele>185</ele>
        <time>2016-03-28T07:46:29Z</time>
      </trkpt>
      <trkpt lat="44.27918" lon="4.10686">
        <ele>184</ele>
        <time>2016-03-28T07:48:29Z</time>
      </trkpt>
      <trkpt lat="44.27919" lon="4.10709">
        <ele>184</ele>
        <time>2016-03-28T07:50:29Z</time>
      </trkpt>
      <trkpt lat="44.27919" lon="4.10725">
        <ele>183</ele>
        <time>2016-03-28T07:52:29Z</time>
      </trkpt>
      <trkpt lat="44.27922" lon="4.10742">
        <ele>184</ele>
        <time>2016-03-28T07:54:29Z</time>
      </trkpt>
      <trkpt lat="44.27924" lon="4.10768">
        <ele>185</ele>
        <time>2016-03-28T07:56:29Z</time>
      </trkpt>
      <trkpt lat="44.27926" lon="4.10794">
        <ele>185</ele>
        <time>2016-03-28T07:58:29Z</time>
      </trkpt>
      <trkpt lat="44.27926" lon="4.10818">
        <ele>185</ele>
        <time>2016-03-28T08:00:29Z</time>
      </trkpt>
      <trkpt lat="44.27927" lon="4.10841">
        <ele>185</ele>
        <time>2016-03-28T08:02:29Z</time>
      </trkpt>
      <trkpt lat="44.27927" lon="4.10867">
        <ele>185</ele>
        <time>2016-03-28T08:04:29Z</time>
      </trkpt>
      <trkpt lat="44.27926" lon="4.10886">
        <ele>185</ele>
        <time>2016-03-28T08:06:29Z</time>
      </trkpt>
      <trkpt lat="44.27925" lon="4.10907">
        <ele>184</ele>
        <time>2016-03-28T08:08:29Z</time>
      </trkpt>
      <trkpt lat="44.27926" lon="4.10923">
        <ele>184</ele>
        <time>2016-03-28T08:10:29Z</time>
      </trkpt>
      <trkpt lat="44.27929" lon="4.10937">
        <ele>185</ele>
        <time>2016-03-28T08:12:29Z</time>
      </trkpt>
      <trkpt lat="44.27934" lon="4.10951">
        <ele>185</ele>
        <time>2016-03-28T08:14:29Z</time>
      </trkpt>
      <trkpt lat="44.27951" lon="4.10988">
        <ele>185</ele>
        <time>2016-03-28T08:16:29Z</time>
      </trkpt>
      <trkpt lat="44.2796" lon="4.11008">
        <ele>185</ele>
        <time>2016-03-28T08:18:29Z</time>
      </trkpt>
      <trkpt lat="44.27968" lon="4.11027">
        <ele>184</ele>
        <time>2016-03-28T08:20:29Z</time>
      </trkpt>
      <trkpt lat="44.27979" lon="4.11051">
        <ele>183</ele>
        <time>2016-03-28T08:22:29Z</time>
      </trkpt>
      <trkpt lat="44.27994" lon="4.11092">
        <ele>180</ele>
        <time>2016-03-28T08:24:29Z</time>
      </trkpt>
      <trkpt lat="44.28" lon="4.11107">
        <ele>179</ele>
        <time>2016-03-28T08:26:29Z</time>
      </trkpt>
      <trkpt lat="44.2801" lon="4.11132">
        <ele>182</ele>
        <time>2016-03-28T08:28:29Z</time>
      </trkpt>
      <trkpt lat="44.28031" lon="4.11186">
        <ele>184</ele>
        <time>2016-03-28T08:30:29Z</time>
      </trkpt>
      <trkpt lat="44.2805" lon="4.11235">
        <ele>184</ele>
        <time>2016-03-28T08:32:29Z</time>
      </trkpt>
      <trkpt lat="44.28068" lon="4.11282">
        <ele>180</ele>
        <time>2016-03-28T08:34:29Z</time>
      </trkpt>
      <trkpt lat="44.28085" lon="4.1134">
        <ele>175</ele>
        <time>2016-03-28T08:36:29Z</time>
      </trkpt>
      <trkpt lat="44.28098" lon="4.11392">
        <ele>174</ele>
        <time>2016-03-28T08:38:29Z</time>
      </trkpt>
      <trkpt lat="44.28108" lon="4.11429">
        <ele>172</ele>
        <time>2016-03-28T08:40:29Z</time>
      </trkpt>
      <trkpt lat="44.28113" lon="4.11453">
        <ele>170</ele>
        <time>2016-03-28T08:42:29Z</time>
      </trkpt>
      <trkpt lat="44.28116" lon="4.11471">
        <ele>168</ele>
        <time>2016-03-28T08:44:29Z</time>
      </trkpt>
      <trkpt lat="44.28119" lon="4.1149">
        <ele>166</ele>
        <time>2016-03-28T08:46:29Z</time>
      </trkpt>
      <trkpt lat="44.28122" lon="4.11514">
        <ele>165</ele>
        <time>2016-03-28T08:48:29Z</time>
      </trkpt>
      <trkpt lat="44.28123" lon="4.11524">
        <ele>165</ele>
        <time>2016-03-28T08:50:29Z</time>
      </trkpt>
      <trkpt lat="44.28128" lon="4.11542">
        <ele>164</ele>
        <time>2016-03-28T08:52:29Z</time>
      </trkpt>
      <trkpt lat="44.28129" lon="4.11548">
        <ele>164</ele>
        <time>2016-03-28T08:54:29Z</time>
      </trkpt>
      <trkpt lat="44.28134" lon="4.11554">
        <ele>164</ele>
        <time>2016-03-28T08:56:29Z</time>
      </trkpt>
      <trkpt lat="44.28135" lon="4.11555">
        <ele>164</ele>
        <time>2016-03-28T08:58:29Z</time>
      </trkpt>
      <trkpt lat="44.28144" lon="4.11564">
        <ele>163</ele>
        <time>2016-03-28T09:00:29Z</time>
      </trkpt>
      <trkpt lat="44.28145" lon="4.11566">
        <ele>163</ele>
        <time>2016-03-28T09:02:29Z</time>
      </trkpt>
      <trkpt lat="44.2816" lon="4.11588">
        <ele>162</ele>
        <time>2016-03-28T09:04:29Z</time>
      </trkpt>
      <trkpt lat="44.28181" lon="4.1162">
        <ele>162</ele>
        <time>2016-03-28T09:06:29Z</time>
      </trkpt>
      <trkpt lat="44.28184" lon="4.11625">
        <ele>163</ele>
        <time>2016-03-28T09:08:29Z</time>
      </trkpt>
      <trkpt lat="44.28186" lon="4.11628">
        <ele>163</ele>
        <time>2016-03-28T09:10:29Z</time>
      </trkpt>
      <trkpt lat="44.28191" lon="4.11636">
        <ele>163</ele>
        <time>2016-03-28T09:12:29Z</time>
      </trkpt>
      <trkpt lat="44.28192" lon="4.1164">
        <ele>163</ele>
        <time>2016-03-28T09:14:29Z</time>
      </trkpt>
      <trkpt lat="44.28193" lon="4.11645">
        <ele>163</ele>
        <time>2016-03-28T09:16:29Z</time>
      </trkpt>
      <trkpt lat="44.28195" lon="4.11654">
        <ele>163</ele>
        <time>2016-03-28T09:18:29Z</time>
      </trkpt>
      <trkpt lat="44.28195" lon="4.11656">
        <ele>163</ele>
        <time>2016-03-28T09:20:29Z</time>
      </trkpt>
      <trkpt lat="44.28195" lon="4.11658">
        <ele>163</ele>
        <time>2016-03-28T09:22:29Z</time>
      </trkpt>
      <trkpt lat="44.28195" lon="4.11663">
        <ele>163</ele>
        <time>2016-03-28T09:24:29Z</time>
      </trkpt>
      <trkpt lat="44.28195" lon="4.11668">
        <ele>163</ele>
        <time>2016-03-28T09:26:29Z</time>
      </trkpt>
      <trkpt lat="44.28199" lon="4.11679">
        <ele>163</ele>
        <time>2016-03-28T09:28:29Z</time>
      </trkpt>
      <trkpt lat="44.282" lon="4.11684">
        <ele>163</ele>
        <time>2016-03-28T09:30:29Z</time>
      </trkpt>
      <trkpt lat="44.282" lon="4.11684">
        <ele>163</ele>
        <time>2016-03-28T09:32:29Z</time>
      </trkpt>
      <trkpt lat="44.282" lon="4.11688">
        <ele>162</ele>
        <time>2016-03-28T09:34:29Z</time>
      </trkpt>
      <trkpt lat="44.282" lon="4.11689">
        <ele>162</ele>
        <time>2016-03-28T09:36:29Z</time>
      </trkpt>
      <trkpt lat="44.282" lon="4.11692">
        <ele>162</ele>
        <time>2016-03-28T09:38:29Z</time>
      </trkpt>
      <trkpt lat="44.28201" lon="4.11694">
        <ele>162</ele>
        <time>2016-03-28T09:40:29Z</time>
      </trkpt>
      <trkpt lat="44.28202" lon="4.11696">
        <ele>162</ele>
        <time>2016-03-28T09:42:29Z</time>
      </trkpt>
      <trkpt lat="44.28204" lon="4.11696">
        <ele>162</ele>
        <time>2016-03-28T09:44:29Z</time>
      </trkpt>
      <trkpt lat="44.28203" lon="4.11708">
        <ele>162</ele>
        <time>2016-03-28T09:46:29Z</time>
      </trkpt>
      <trkpt lat="44.28205" lon="4.11717">
        <ele>162</ele>
        <time>2016-03-28T09:48:29Z</time>
      </trkpt>
      <trkpt lat="44.28203" lon="4.11725">
        <ele>162</ele>
        <time>2016-03-28T09:50:29Z</time>
      </trkpt>
      <trkpt lat="44.28202" lon="4.1173">
        <ele>162</ele>
        <time>2016-03-28T09:52:29Z</time>
      </trkpt>
      <trkpt lat="44.28195" lon="4.11779">
        <ele>163</ele>
        <time>2016-03-28T09:54:29Z</time>
      </trkpt>
      <trkpt lat="44.28185" lon="4.11845">
        <ele>164</ele>
        <time>2016-03-28T09:56:29Z</time>
      </trkpt>
      <trkpt lat="44.28181" lon="4.11868">
        <ele>164</ele>
        <time>2016-03-28T09:58:29Z</time>
      </trkpt>
      <trkpt lat="44.28177" lon="4.11899">
        <ele>165</ele>
        <time>2016-03-28T10:00:29Z</time>
      </trkpt>
      <trkpt lat="44.28173" lon="4.11929">
        <ele>165</ele>
        <time>2016-03-28T10:02:29Z</time>
      </trkpt>
      <trkpt lat="44.28171" lon="4.1195">
        <ele>165</ele>
        <time>2016-03-28T10:04:29Z</time>
      </trkpt>
      <trkpt lat="44.2817" lon="4.11966">
        <ele>165</ele>
        <time>2016-03-28T10:06:29Z</time>
      </trkpt>
      <trkpt lat="44.28169" lon="4.11983">
        <ele>165</ele>
        <time>2016-03-28T10:08:29Z</time>
      </trkpt>
      <trkpt lat="44.28168" lon="4.12003">
        <ele>165</ele>
        <time>2016-03-28T10:10:29Z</time>
      </trkpt>
      <trkpt lat="44.28167" lon="4.12042">
        <ele>164</ele>
        <time>2016-03-28T10:12:29Z</time>
      </trkpt>
      <trkpt lat="44.28167" lon="4.12045">
        <ele>164</ele>
        <time>2016-03-28T10:14:29Z</time>
      </trkpt>
      <trkpt lat="44.28167" lon="4.12077">
        <ele>163</ele>
        <time>2016-03-28T10:16:29Z</time>
      </trkpt>
      <trkpt lat="44.28165" lon="4.12102">
        <ele>163</ele>
        <time>2016-03-28T10:18:29Z</time>
      </trkpt>
      <trkpt lat="44.28161" lon="4.12141">
        <ele>163</ele>
        <time>2016-03-28T10:20:29Z</time>
      </trkpt>
      <trkpt lat="44.28149" lon="4.12204">
        <ele>163</ele>
        <time>2016-03-28T10:22:29Z</time>
      </trkpt>
      <trkpt lat="44.28131" lon="4.12269">
        <ele>163</ele>
        <time>2016-03-28T10:24:29Z</time>
      </trkpt>
      <trkpt lat="44.28109" lon="4.12348">
        <ele>163</ele>
        <time>2016-03-28T10:26:29Z</time>
      </trkpt>
      <trkpt lat="44.28099" lon="4.12386">
        <ele>162</ele>
        <time>2016-03-28T10:28:29Z</time>
      </trkpt>
      <trkpt lat="44.28091" lon="4.12409">
        <ele>162</ele>
        <time>2016-03-28T10:30:29Z</time>
      </trkpt>
      <trkpt lat="44.28085" lon="4.1242">
        <ele>162</ele>
        <time>2016-03-28T10:32:29Z</time>
      </trkpt>
      <trkpt lat="44.28078" lon="4.1243">
        <ele>161</ele>
        <time>2016-03-28T10:34:29Z</time>
      </trkpt>
      <trkpt lat="44.2807" lon="4.12438">
        <ele>161</ele>
        <time>2016-03-28T10:36:29Z</time>
      </trkpt>
      <trkpt lat="44.28053" lon="4.12453">
        <ele>160</ele>
        <time>2016-03-28T10:38:29Z</time>
      </trkpt>
      <trkpt lat="44.28024" lon="4.12471">
        <ele>159</ele>
        <time>2016-03-28T10:40:29Z</time>
      </trkpt>
      <trkpt lat="44.28" lon="4.1248">
        <ele>159</ele>
        <time>2016-03-28T10:42:29Z</time>
      </trkpt>
      <trkpt lat="44.27997" lon="4.12482">
        <ele>159</ele>
        <time>2016-03-28T10:44:29Z</time>
      </trkpt>
      <trkpt lat="44.2799" lon="4.12481">
        <ele>159</ele>
        <time>2016-03-28T10:46:29Z</time>
      </trkpt>
      <trkpt lat="44.27974" lon="4.12486">
        <ele>159</ele>
        <time>2016-03-28T10:48:29Z</time>
      </trkpt>
      <trkpt lat="44.27963" lon="4.12492">
        <ele>159</ele>
        <time>2016-03-28T10:50:29Z</time>
      </trkpt>
      <trkpt lat="44.27955" lon="4.12499">
        <ele>159</ele>
        <time>2016-03-28T10:52:29Z</time>
      </trkpt>
      <trkpt lat="44.27953" lon="4.12502">
        <ele>159</ele>
        <time>2016-03-28T10:54:29Z</time>
      </trkpt>
      <trkpt lat="44.27953" lon="4.12502">
        <ele>159</ele>
        <time>2016-03-28T10:56:29Z</time>
      </trkpt>
      <trkpt lat="44.27944" lon="4.12513">
        <ele>158</ele>
        <time>2016-03-28T10:58:29Z</time>
      </trkpt>
      <trkpt lat="44.27937" lon="4.12534">
        <ele>158</ele>
        <time>2016-03-28T11:00:29Z</time>
      </trkpt>
      <trkpt lat="44.27934" lon="4.12551">
        <ele>158</ele>
        <time>2016-03-28T11:02:29Z</time>
      </trkpt>
      <trkpt lat="44.27932" lon="4.12568">
        <ele>157</ele>
        <time>2016-03-28T11:04:29Z</time>
      </trkpt>
      <trkpt lat="44.2792" lon="4.1267">
        <ele>157</ele>
        <time>2016-03-28T11:06:29Z</time>
      </trkpt>
      <trkpt lat="44.27912" lon="4.12759">
        <ele>157</ele>
        <time>2016-03-28T11:08:29Z</time>
      </trkpt>
      <trkpt lat="44.27906" lon="4.12825">
        <ele>160</ele>
        <time>2016-03-28T11:10:29Z</time>
      </trkpt>
      <trkpt lat="44.27903" lon="4.12846">
        <ele>162</ele>
        <time>2016-03-28T11:12:29Z</time>
      </trkpt>
      <trkpt lat="44.27898" lon="4.12868">
        <ele>165</ele>
        <time>2016-03-28T11:14:29Z</time>
      </trkpt>
      <trkpt lat="44.2789" lon="4.1289">
        <ele>166</ele>
        <time>2016-03-28T11:16:29Z</time>
      </trkpt>
      <trkpt lat="44.27881" lon="4.12915">
        <ele>168</ele>
        <time>2016-03-28T11:18:29Z</time>
      </trkpt>
      <trkpt lat="44.27872" lon="4.12938">
        <ele>168</ele>
        <time>2016-03-28T11:20:29Z</time>
      </trkpt>
      <trkpt lat="44.27864" lon="4.12961">
        <ele>168</ele>
        <time>2016-03-28T11:22:29Z</time>
      </trkpt>
      <trkpt lat="44.27859" lon="4.12978">
        <ele>168</ele>
        <time>2016-03-28T11:24:29Z</time>
      </trkpt>
      <trkpt lat="44.27858" lon="4.1299">
        <ele>168</ele>
        <time>2016-03-28T11:26:29Z</time>
      </trkpt>
      <trkpt lat="44.27859" lon="4.12996">
        <ele>169</ele>
        <time>2016-03-28T11:28:29Z</time>
      </trkpt>
      <trkpt lat="44.27859" lon="4.12996">
        <ele>169</ele>
        <time>2016-03-28T11:30:29Z</time>
      </trkpt>
      <trkpt lat="44.27833" lon="4.13045">
        <ele>166</ele>
        <time>2016-03-28T11:32:29Z</time>
      </trkpt>
      <trkpt lat="44.27796" lon="4.13104">
        <ele>166</ele>
        <time>2016-03-28T11:34:29Z</time>
      </trkpt>
      <trkpt lat="44.27791" lon="4.13111">
        <ele>165</ele>
        <time>2016-03-28T11:36:29Z</time>
      </trkpt>
      <trkpt lat="44.27756" lon="4.13161">
        <ele>163</ele>
        <time>2016-03-28T11:38:29Z</time>
      </trkpt>
      <trkpt lat="44.27737" lon="4.13191">
        <ele>161</ele>
        <time>2016-03-28T11:40:29Z</time>
      </trkpt>
      <trkpt lat="44.27721" lon="4.13221">
        <ele>160</ele>
        <time>2016-03-28T11:42:29Z</time>
      </trkpt>
      <trkpt lat="44.27713" lon="4.13241">
        <ele>159</ele>
        <time>2016-03-28T11:44:29Z</time>
      </trkpt>
      <trkpt lat="44.27706" lon="4.13263">
        <ele>159</ele>
        <time>2016-03-28T11:46:29Z</time>
      </trkpt>
      <trkpt lat="44.27701" lon="4.13287">
        <ele>158</ele>
        <time>2016-03-28T11:48:29Z</time>
      </trkpt>
      <trkpt lat="44.27697" lon="4.13317">
        <ele>157</ele>
        <time>2016-03-28T11:50:29Z</time>
      </trkpt>
      <trkpt lat="44.27695" lon="4.1335">
        <ele>157</ele>
        <time>2016-03-28T11:52:29Z</time>
      </trkpt>
      <trkpt lat="44.27694" lon="4.13384">
        <ele>157</ele>
        <time>2016-03-28T11:54:29Z</time>
      </trkpt>
      <trkpt lat="44.27693" lon="4.13418">
        <ele>157</ele>
        <time>2016-03-28T11:56:29Z</time>
      </trkpt>
      <trkpt lat="44.27694" lon="4.13446">
        <ele>157</ele>
        <time>2016-03-28T11:58:29Z</time>
      </trkpt>
      <trkpt lat="44.27694" lon="4.13475">
        <ele>157</ele>
        <time>2016-03-28T12:00:29Z</time>
      </trkpt>
      <trkpt lat="44.27693" lon="4.13514">
        <ele>158</ele>
        <time>2016-03-28T12:02:29Z</time>
      </trkpt>
      <trkpt lat="44.27693" lon="4.13542">
        <ele>158</ele>
        <time>2016-03-28T12:04:29Z</time>
      </trkpt>
      <trkpt lat="44.27695" lon="4.13572">
        <ele>159</ele>
        <time>2016-03-28T12:06:29Z</time>
      </trkpt>
      <trkpt lat="44.27699" lon="4.13601">
        <ele>159</ele>
        <time>2016-03-28T12:08:29Z</time>
      </trkpt>
      <trkpt lat="44.27702" lon="4.13621">
        <ele>159</ele>
        <time>2016-03-28T12:10:29Z</time>
      </trkpt>
      <trkpt lat="44.27703" lon="4.13627">
        <ele>159</ele>
        <time>2016-03-28T12:12:29Z</time>
      </trkpt>
      <trkpt lat="44.27703" lon="4.1363">
        <ele>159</ele>
        <time>2016-03-28T12:14:29Z</time>
      </trkpt>
      <trkpt lat="44.27709" lon="4.13657">
        <ele>159</ele>
        <time>2016-03-28T12:16:29Z</time>
      </trkpt>
      <trkpt lat="44.27713" lon="4.13674">
        <ele>159</ele>
        <time>2016-03-28T12:18:29Z</time>
      </trkpt>
      <trkpt lat="44.27715" lon="4.13682">
        <ele>159</ele>
        <time>2016-03-28T12:20:29Z</time>
      </trkpt>
      <trkpt lat="44.27721" lon="4.1371">
        <ele>159</ele>
        <time>2016-03-28T12:22:29Z</time>
      </trkpt>
      <trkpt lat="44.27722" lon="4.13711">
        <ele>159</ele>
        <time>2016-03-28T12:24:29Z</time>
      </trkpt>
      <trkpt lat="44.27729" lon="4.13735">
        <ele>160</ele>
        <time>2016-03-28T12:26:29Z</time>
      </trkpt>
      <trkpt lat="44.27735" lon="4.13762">
        <ele>159</ele>
        <time>2016-03-28T12:28:29Z</time>
      </trkpt>
      <trkpt lat="44.27742" lon="4.13787">
        <ele>159</ele>
        <time>2016-03-28T12:30:29Z</time>
      </trkpt>
      <trkpt lat="44.27748" lon="4.1381">
        <ele>158</ele>
        <time>2016-03-28T12:32:29Z</time>
      </trkpt>
      <trkpt lat="44.27754" lon="4.13834">
        <ele>158</ele>
        <time>2016-03-28T12:34:29Z</time>
      </trkpt>
      <trkpt lat="44.2776" lon="4.1386">
        <ele>158</ele>
        <time>2016-03-28T12:36:29Z</time>
      </trkpt>
      <trkpt lat="44.27763" lon="4.13887">
        <ele>158</ele>
        <time>2016-03-28T12:38:29Z</time>
      </trkpt>
      <trkpt lat="44.27766" lon="4.13915">
        <ele>158</ele>
        <time>2016-03-28T12:40:29Z</time>
      </trkpt>
      <trkpt lat="44.27767" lon="4.13939">
        <ele>158</ele>
        <time>2016-03-28T12:42:29Z</time>
      </trkpt>
      <trkpt lat="44.27768" lon="4.13957">
        <ele>158</ele>
        <time>2016-03-28T12:44:29Z</time>
      </trkpt>
      <trkpt lat="44.27765" lon="4.13962">
        <ele>158</ele>
        <time>2016-03-28T12:46:29Z</time>
      </trkpt>
      <trkpt lat="44.27764" lon="4.13968">
        <ele>158</ele>
        <time>2016-03-28T12:48:29Z</time>
      </trkpt>
      <trkpt lat="44.27764" lon="4.13985">
        <ele>158</ele>
        <time>2016-03-28T12:50:29Z</time>
      </trkpt>
      <trkpt lat="44.27761" lon="4.14003">
        <ele>157</ele>
        <time>2016-03-28T12:52:29Z</time>
      </trkpt>
      <trkpt lat="44.27757" lon="4.1402">
        <ele>157</ele>
        <time>2016-03-28T12:54:29Z</time>
      </trkpt>
      <trkpt lat="44.27757" lon="4.14021">
        <ele>157</ele>
        <time>2016-03-28T12:56:29Z</time>
      </trkpt>
      <trkpt lat="44.27752" lon="4.14047">
        <ele>157</ele>
        <time>2016-03-28T12:58:29Z</time>
      </trkpt>
      <trkpt lat="44.27751" lon="4.14054">
        <ele>157</ele>
        <time>2016-03-28T13:00:29Z</time>
      </trkpt>
      <trkpt lat="44.27747" lon="4.14074">
        <ele>157</ele>
        <time>2016-03-28T13:02:29Z</time>
      </trkpt>
      <trkpt lat="44.27745" lon="4.14081">
        <ele>157</ele>
        <time>2016-03-28T13:04:29Z</time>
      </trkpt>
      <trkpt lat="44.27746" lon="4.14092">
        <ele>157</ele>
        <time>2016-03-28T13:06:29Z</time>
      </trkpt>
      <trkpt lat="44.27744" lon="4.14101">
        <ele>157</ele>
        <time>2016-03-28T13:08:29Z</time>
      </trkpt>
      <trkpt lat="44.2774" lon="4.14117">
        <ele>156</ele>
        <time>2016-03-28T13:10:29Z</time>
      </trkpt>
      <trkpt lat="44.27723" lon="4.14182">
        <ele>156</ele>
        <time>2016-03-28T13:12:29Z</time>
      </trkpt>
      <trkpt lat="44.27718" lon="4.1421">
        <ele>156</ele>
        <time>2016-03-28T13:14:29Z</time>
      </trkpt>
      <trkpt lat="44.27711" lon="4.14235">
        <ele>155</ele>
        <time>2016-03-28T13:16:29Z</time>
      </trkpt>
      <trkpt lat="44.27706" lon="4.1426">
        <ele>155</ele>
        <time>2016-03-28T13:18:29Z</time>
      </trkpt>
      <trkpt lat="44.27701" lon="4.14287">
        <ele>155</ele>
        <time>2016-03-28T13:20:29Z</time>
      </trkpt>
      <trkpt lat="44.27692" lon="4.14332">
        <ele>155</ele>
        <time>2016-03-28T13:22:29Z</time>
      </trkpt>
      <trkpt lat="44.27687" lon="4.14364">
        <ele>156</ele>
        <time>2016-03-28T13:24:29Z</time>
      </trkpt>
      <trkpt lat="44.27682" lon="4.14428">
        <ele>158</ele>
        <time>2016-03-28T13:26:29Z</time>
      </trkpt>
      <trkpt lat="44.27676" lon="4.14483">
        <ele>157</ele>
        <time>2016-03-28T13:28:29Z</time>
      </trkpt>
      <trkpt lat="44.27672" lon="4.14528">
        <ele>157</ele>
        <time>2016-03-28T13:30:29Z</time>
      </trkpt>
      <trkpt lat="44.27672" lon="4.14564">
        <ele>157</ele>
        <time>2016-03-28T13:32:29Z</time>
      </trkpt>
      <trkpt lat="44.27672" lon="4.14602">
        <ele>157</ele>
        <time>2016-03-28T13:34:29Z</time>
      </trkpt>
      <trkpt lat="44.27673" lon="4.14652">
        <ele>157</ele>
        <time>2016-03-28T13:36:29Z</time>
      </trkpt>
      <trkpt lat="44.27672" lon="4.14665">
        <ele>156</ele>
        <time>2016-03-28T13:38:29Z</time>
      </trkpt>
      <trkpt lat="44.27672" lon="4.14675">
        <ele>157</ele>
        <time>2016-03-28T13:40:29Z</time>
      </trkpt>
      <trkpt lat="44.27672" lon="4.14718">
        <ele>157</ele>
        <time>2016-03-28T13:42:29Z</time>
      </trkpt>
      <trkpt lat="44.27671" lon="4.14761">
        <ele>158</ele>
        <time>2016-03-28T13:44:29Z</time>
      </trkpt>
      <trkpt lat="44.2767" lon="4.14781">
        <ele>158</ele>
        <time>2016-03-28T13:46:29Z</time>
      </trkpt>
      <trkpt lat="44.27669" lon="4.14786">
        <ele>158</ele>
        <time>2016-03-28T13:48:29Z</time>
      </trkpt>
      <trkpt lat="44.27669" lon="4.14799">
        <ele>158</ele>
        <time>2016-03-28T13:50:29Z</time>
      </trkpt>
      <trkpt lat="44.27668" lon="4.14818">
        <ele>159</ele>
        <time>2016-03-28T13:52:29Z</time>
      </trkpt>
      <trkpt lat="44.27666" lon="4.14837">
        <ele>159</ele>
        <time>2016-03-28T13:54:29Z</time>
      </trkpt>
      <trkpt lat="44.2766" lon="4.14866">
        <ele>160</ele>
        <time>2016-03-28T13:56:29Z</time>
      </trkpt>
      <trkpt lat="44.2765" lon="4.1491">
        <ele>160</ele>
        <time>2016-03-28T13:58:29Z</time>
      </trkpt>
      <trkpt lat="44.2764" lon="4.14954">
        <ele>163</ele>
        <time>2016-03-28T14:00:29Z</time>
      </trkpt>
      <trkpt lat="44.27632" lon="4.14985">
        <ele>163</ele>
        <time>2016-03-28T14:02:29Z</time>
      </trkpt>
      <trkpt lat="44.27627" lon="4.15001">
        <ele>164</ele>
        <time>2016-03-28T14:04:29Z</time>
      </trkpt>
      <trkpt lat="44.27626" lon="4.15004">
        <ele>164</ele>
        <time>2016-03-28T14:06:29Z</time>
      </trkpt>
      <trkpt lat="44.27623" lon="4.15011">
        <ele>165</ele>
        <time>2016-03-28T14:08:29Z</time>
      </trkpt>
      <trkpt lat="44.27611" lon="4.15031">
        <ele>165</ele>
        <time>2016-03-28T14:10:29Z</time>
      </trkpt>
      <trkpt lat="44.27582" lon="4.15071">
        <ele>163</ele>
        <time>2016-03-28T14:12:29Z</time>
      </trkpt>
      <trkpt lat="44.27553" lon="4.15111">
        <ele>168</ele>
        <time>2016-03-28T14:14:29Z</time>
      </trkpt>
      <trkpt lat="44.27536" lon="4.15132">
        <ele>170</ele>
        <time>2016-03-28T14:16:29Z</time>
      </trkpt>
      <trkpt lat="44.27527" lon="4.15142">
        <ele>170</ele>
        <time>2016-03-28T14:18:29Z</time>
      </trkpt>
      <trkpt lat="44.27516" lon="4.15152">
        <ele>170</ele>
        <time>2016-03-28T14:20:29Z</time>
      </trkpt>
      <trkpt lat="44.27501" lon="4.15163">
        <ele>168</ele>
        <time>2016-03-28T14:22:29Z</time>
      </trkpt>
      <trkpt lat="44.27488" lon="4.15171">
        <ele>168</ele>
        <time>2016-03-28T14:24:29Z</time>
      </trkpt>
      <trkpt lat="44.27465" lon="4.15185">
        <ele>171</ele>
        <time>2016-03-28T14:26:29Z</time>
      </trkpt>
      <trkpt lat="44.27443" lon="4.15196">
        <ele>171</ele>
        <time>2016-03-28T14:28:29Z</time>
      </trkpt>
      <trkpt lat="44.27421" lon="4.15206">
        <ele>170</ele>
        <time>2016-03-28T14:30:29Z</time>
      </trkpt>
      <trkpt lat="44.27402" lon="4.15215">
        <ele>170</ele>
        <time>2016-03-28T14:32:29Z</time>
      </trkpt>
      <trkpt lat="44.27386" lon="4.15224">
        <ele>169</ele>
        <time>2016-03-28T14:34:29Z</time>
      </trkpt>
      <trkpt lat="44.27366" lon="4.15235">
        <ele>168</ele>
        <time>2016-03-28T14:36:29Z</time>
      </trkpt>
      <trkpt lat="44.27345" lon="4.15248">
        <ele>165</ele>
        <time>2016-03-28T14:38:29Z</time>
      </trkpt>
      <trkpt lat="44.27324" lon="4.1526">
        <ele>166</ele>
        <time>2016-03-28T14:40:29Z</time>
      </trkpt>
      <trkpt lat="44.27298" lon="4.15277">
        <ele>170</ele>
        <time>2016-03-28T14:42:29Z</time>
      </trkpt>
      <trkpt lat="44.27274" lon="4.15294">
        <ele>172</ele>
        <time>2016-03-28T14:44:29Z</time>
      </trkpt>
      <trkpt lat="44.2724" lon="4.15317">
        <ele>171</ele>
        <time>2016-03-28T14:46:29Z</time>
      </trkpt>
      <trkpt lat="44.27214" lon="4.15334">
        <ele>170</ele>
        <time>2016-03-28T14:48:29Z</time>
      </trkpt>
      <trkpt lat="44.27197" lon="4.15347">
        <ele>173</ele>
        <time>2016-03-28T14:50:29Z</time>
      </trkpt>
      <trkpt lat="44.27181" lon="4.15357">
        <ele>173</ele>
        <time>2016-03-28T14:52:29Z</time>
      </trkpt>
      <trkpt lat="44.27163" lon="4.15369">
        <ele>174</ele>
        <time>2016-03-28T14:54:29Z</time>
      </trkpt>
      <trkpt lat="44.2714" lon="4.15382">
        <ele>175</ele>
        <time>2016-03-28T14:56:29Z</time>
      </trkpt>
      <trkpt lat="44.27115" lon="4.15395">
        <ele>174</ele>
        <time>2016-03-28T14:58:29Z</time>
      </trkpt>
      <trkpt lat="44.27089" lon="4.15407">
        <ele>170</ele>
        <time>2016-03-28T15:00:29Z</time>
      </trkpt>
      <trkpt lat="44.27059" lon="4.15423">
        <ele>170</ele>
        <time>2016-03-28T15:02:29Z</time>
      </trkpt>
      <trkpt lat="44.27026" lon="4.15439">
        <ele>171</ele>
        <time>2016-03-28T15:04:29Z</time>
      </trkpt>
      <trkpt lat="44.26992" lon="4.15456">
        <ele>172</ele>
        <time>2016-03-28T15:06:29Z</time>
      </trkpt>
      <trkpt lat="44.26962" lon="4.15472">
        <ele>171</ele>
        <time>2016-03-28T15:08:29Z</time>
      </trkpt>
      <trkpt lat="44.26939" lon="4.15484">
        <ele>169</ele>
        <time>2016-03-28T15:10:29Z</time>
      </trkpt>
      <trkpt lat="44.26935" lon="4.15486">
        <ele>169</ele>
        <time>2016-03-28T15:12:29Z</time>
      </trkpt>
      <trkpt lat="44.26917" lon="4.15495">
        <ele>166</ele>
        <time>2016-03-28T15:14:29Z</time>
      </trkpt>
      <trkpt lat="44.26908" lon="4.15499">
        <ele>166</ele>
        <time>2016-03-28T15:16:29Z</time>
      </trkpt>
      <trkpt lat="44.26901" lon="4.15502">
        <ele>167</ele>
        <time>2016-03-28T15:18:29Z</time>
      </trkpt>
      <trkpt lat="44.26891" lon="4.15505">
        <ele>168</ele>
        <time>2016-03-28T15:20:29Z</time>
      </trkpt>
      <trkpt lat="44.26881" lon="4.15507">
        <ele>168</ele>
        <time>2016-03-28T15:22:29Z</time>
      </trkpt>
      <trkpt lat="44.26869" lon="4.15506">
        <ele>167</ele>
        <time>2016-03-28T15:24:29Z</time>
      </trkpt>
      <trkpt lat="44.26859" lon="4.15505">
        <ele>166</ele>
        <time>2016-03-28T15:26:29Z</time>
      </trkpt>
      <trkpt lat="44.26847" lon="4.15502">
        <ele>165</ele>
        <time>2016-03-28T15:28:29Z</time>
      </trkpt>
      <trkpt lat="44.26842" lon="4.155">
        <ele>164</ele>
        <time>2016-03-28T15:30:29Z</time>
      </trkpt>
      <trkpt lat="44.26826" lon="4.15494">
        <ele>164</ele>
        <time>2016-03-28T15:32:29Z</time>
      </trkpt>
      <trkpt lat="44.26819" lon="4.15492">
        <ele>166</ele>
        <time>2016-03-28T15:34:29Z</time>
      </trkpt>
      <trkpt lat="44.2681" lon="4.15487">
        <ele>167</ele>
        <time>2016-03-28T15:36:29Z</time>
      </trkpt>
      <trkpt lat="44.26802" lon="4.15481">
        <ele>167</ele>
        <time>2016-03-28T15:38:29Z</time>
      </trkpt>
      <trkpt lat="44.26795" lon="4.15474">
        <ele>167</ele>
        <time>2016-03-28T15:40:29Z</time>
      </trkpt>
      <trkpt lat="44.26785" lon="4.15464">
        <ele>167</ele>
        <time>2016-03-28T15:42:29Z</time>
      </trkpt>
      <trkpt lat="44.26778" lon="4.15456">
        <ele>167</ele>
        <time>2016-03-28T15:44:29Z</time>
      </trkpt>
      <trkpt lat="44.26773" lon="4.1545">
        <ele>167</ele>
        <time>2016-03-28T15:46:29Z</time>
      </trkpt>
      <trkpt lat="44.26773" lon="4.15449">
        <ele>167</ele>
        <time>2016-03-28T15:48:29Z</time>
      </trkpt>
      <trkpt lat="44.2677" lon="4.15439">
        <ele>166</ele>
        <time>2016-03-28T15:50:29Z</time>
      </trkpt>
      <trkpt lat="44.26743" lon="4.15403">
        <ele>163</ele>
        <time>2016-03-28T15:52:29Z</time>
      </trkpt>
      <trkpt lat="44.26727" lon="4.15383">
        <ele>160</ele>
        <time>2016-03-28T15:54:29Z</time>
      </trkpt>
      <trkpt lat="44.26715" lon="4.15373">
        <ele>159</ele>
        <time>2016-03-28T15:56:29Z</time>
      </trkpt>
      <trkpt lat="44.26707" lon="4.15367">
        <ele>158</ele>
        <time>2016-03-28T15:58:29Z</time>
      </trkpt>
      <trkpt lat="44.26696" lon="4.1536">
        <ele>156</ele>
        <time>2016-03-28T16:00:29Z</time>
      </trkpt>
      <trkpt lat="44.26685" lon="4.15356">
        <ele>156</ele>
        <time>2016-03-28T16:02:29Z</time>
      </trkpt>
      <trkpt lat="44.26676" lon="4.15353">
        <ele>155</ele>
        <time>2016-03-28T16:04:29Z</time>
      </trkpt>
      <trkpt lat="44.26665" lon="4.1535">
        <ele>154</ele>
        <time>2016-03-28T16:06:29Z</time>
      </trkpt>
      <trkpt lat="44.26658" lon="4.15349">
        <ele>154</ele>
        <time>2016-03-28T16:08:29Z</time>
      </trkpt>
      <trkpt lat="44.26644" lon="4.15347">
        <ele>153</ele>
        <time>2016-03-28T16:10:29Z</time>
      </trkpt>
      <trkpt lat="44.26608" lon="4.15346">
        <ele>151</ele>
        <time>2016-03-28T16:12:29Z</time>
      </trkpt>
      <trkpt lat="44.26598" lon="4.15345">
        <ele>151</ele>
        <time>2016-03-28T16:14:29Z</time>
      </trkpt>
      <trkpt lat="44.26576" lon="4.15345">
        <ele>150</ele>
        <time>2016-03-28T16:16:29Z</time>
      </trkpt>
      <trkpt lat="44.26545" lon="4.15346">
        <ele>150</ele>
        <time>2016-03-28T16:18:29Z</time>
      </trkpt>
      <trkpt lat="44.26521" lon="4.15347">
        <ele>149</ele>
        <time>2016-03-28T16:20:29Z</time>
      </trkpt>
      <trkpt lat="44.2651" lon="4.15348">
        <ele>149</ele>
        <time>2016-03-28T16:22:29Z</time>
      </trkpt>
      <trkpt lat="44.26496" lon="4.1535">
        <ele>149</ele>
        <time>2016-03-28T16:24:29Z</time>
      </trkpt>
      <trkpt lat="44.2648" lon="4.15352">
        <ele>148</ele>
        <time>2016-03-28T16:26:29Z</time>
      </trkpt>
      <trkpt lat="44.26475" lon="4.15353">
        <ele>148</ele>
        <time>2016-03-28T16:28:29Z</time>
      </trkpt>
      <trkpt lat="44.26471" lon="4.15354">
        <ele>148</ele>
        <time>2016-03-28T16:30:29Z</time>
      </trkpt>
      <trkpt lat="44.26457" lon="4.15359">
        <ele>148</ele>
        <time>2016-03-28T16:32:29Z</time>
      </trkpt>
      <trkpt lat="44.26441" lon="4.15364">
        <ele>148</ele>
        <time>2016-03-28T16:34:29Z</time>
      </trkpt>
      <trkpt lat="44.26424" lon="4.15371">
        <ele>148</ele>
        <time>2016-03-28T16:36:29Z</time>
      </trkpt>
      <trkpt lat="44.26408" lon="4.15379">
        <ele>148</ele>
        <time>2016-03-28T16:38:29Z</time>
      </trkpt>
      <trkpt lat="44.26383" lon="4.15397">
        <ele>148</ele>
        <time>2016-03-28T16:40:29Z</time>
      </trkpt>
      <trkpt lat="44.26353" lon="4.15427">
        <ele>148</ele>
        <time>2016-03-28T16:42:29Z</time>
      </trkpt>
      <trkpt lat="44.26335" lon="4.15448">
        <ele>148</ele>
        <time>2016-03-28T16:44:29Z</time>
      </trkpt>
      <trkpt lat="44.26318" lon="4.15472">
        <ele>148</ele>
        <time>2016-03-28T16:46:29Z</time>
      </trkpt>
      <trkpt lat="44.26302" lon="4.155">
        <ele>148</ele>
        <time>2016-03-28T16:48:29Z</time>
      </trkpt>
      <trkpt lat="44.26285" lon="4.15535">
        <ele>148</ele>
        <time>2016-03-28T16:50:29Z</time>
      </trkpt>
      <trkpt lat="44.26273" lon="4.15568">
        <ele>148</ele>
        <time>2016-03-28T16:52:29Z</time>
      </trkpt>
      <trkpt lat="44.26264" lon="4.156">
        <ele>148</ele>
        <time>2016-03-28T16:54:29Z</time>
      </trkpt>
      <trkpt lat="44.26257" lon="4.15629">
        <ele>148</ele>
        <time>2016-03-28T16:56:29Z</time>
      </trkpt>
      <trkpt lat="44.26253" lon="4.15666">
        <ele>149</ele>
        <time>2016-03-28T16:58:29Z</time>
      </trkpt>
      <trkpt lat="44.2625" lon="4.157">
        <ele>149</ele>
        <time>2016-03-28T17:00:29Z</time>
      </trkpt>
      <trkpt lat="44.26247" lon="4.15766">
        <ele>148</ele>
        <time>2016-03-28T17:02:29Z</time>
      </trkpt>
      <trkpt lat="44.26246" lon="4.15781">
        <ele>148</ele>
        <time>2016-03-28T17:04:29Z</time>
      </trkpt>
      <trkpt lat="44.26245" lon="4.15806">
        <ele>148</ele>
        <time>2016-03-28T17:06:29Z</time>
      </trkpt>
      <trkpt lat="44.26245" lon="4.15829">
        <ele>148</ele>
        <time>2016-03-28T17:08:29Z</time>
      </trkpt>
      <trkpt lat="44.26244" lon="4.1585">
        <ele>148</ele>
        <time>2016-03-28T17:10:29Z</time>
      </trkpt>
      <trkpt lat="44.26244" lon="4.15857">
        <ele>148</ele>
        <time>2016-03-28T17:12:29Z</time>
      </trkpt>
      <trkpt lat="44.26242" lon="4.15902">
        <ele>147</ele>
        <time>2016-03-28T17:14:29Z</time>
      </trkpt>
      <trkpt lat="44.2624" lon="4.15973">
        <ele>146</ele>
        <time>2016-03-28T17:16:29Z</time>
      </trkpt>
      <trkpt lat="44.26239" lon="4.16041">
        <ele>146</ele>
        <time>2016-03-28T17:18:29Z</time>
      </trkpt>
      <trkpt lat="44.26241" lon="4.16084">
        <ele>146</ele>
        <time>2016-03-28T17:20:29Z</time>
      </trkpt>
      <trkpt lat="44.26245" lon="4.16128">
        <ele>146</ele>
        <time>2016-03-28T17:22:29Z</time>
      </trkpt>
      <trkpt lat="44.26252" lon="4.16171">
        <ele>146</ele>
        <time>2016-03-28T17:24:29Z</time>
      </trkpt>
      <trkpt lat="44.26263" lon="4.16208">
        <ele>147</ele>
        <time>2016-03-28T17:26:29Z</time>
      </trkpt>
      <trkpt lat="44.26272" lon="4.16233">
        <ele>148</ele>
        <time>2016-03-28T17:28:29Z</time>
      </trkpt>
      <trkpt lat="44.26279" lon="4.16253">
        <ele>149</ele>
        <time>2016-03-28T17:30:29Z</time>
      </trkpt>
      <trkpt lat="44.26287" lon="4.1627">
        <ele>149</ele>
        <time>2016-03-28T17:32:29Z</time>
      </trkpt>
      <trkpt lat="44.26295" lon="4.16286">
        <ele>149</ele>
        <time>2016-03-28T17:34:29Z</time>
      </trkpt>
      <trkpt lat="44.26299" lon="4.16294">
        <ele>150</ele>
        <time>2016-03-28T17:36:29Z</time>
      </trkpt>
      <trkpt lat="44.26308" lon="4.16308">
        <ele>150</ele>
        <time>2016-03-28T17:38:29Z</time>
      </trkpt>
      <trkpt lat="44.26326" lon="4.16332">
        <ele>151</ele>
        <time>2016-03-28T17:40:29Z</time>
      </trkpt>
      <trkpt lat="44.26354" lon="4.16364">
        <ele>150</ele>
        <time>2016-03-28T17:42:29Z</time>
      </trkpt>
      <trkpt lat="44.26384" lon="4.1639">
        <ele>150</ele>
        <time>2016-03-28T17:44:29Z</time>
      </trkpt>
      <trkpt lat="44.26418" lon="4.1641">
        <ele>150</ele>
        <time>2016-03-28T17:46:29Z</time>
      </trkpt>
      <trkpt lat="44.26435" lon="4.16421">
        <ele>149</ele>
        <time>2016-03-28T17:48:29Z</time>
      </trkpt>
      <trkpt lat="44.26463" lon="4.16431">
        <ele>150</ele>
        <time>2016-03-28T17:50:29Z</time>
      </trkpt>
      <trkpt lat="44.26505" lon="4.16443">
        <ele>150</ele>
        <time>2016-03-28T17:52:29Z</time>
      </trkpt>
      <trkpt lat="44.26516" lon="4.16445">
        <ele>149</ele>
        <time>2016-03-28T17:54:29Z</time>
      </trkpt>
      <trkpt lat="44.26564" lon="4.16458">
        <ele>147</ele>
        <time>2016-03-28T17:56:29Z</time>
      </trkpt>
      <trkpt lat="44.26575" lon="4.16461">
        <ele>147</ele>
        <time>2016-03-28T17:58:29Z</time>
      </trkpt>
      <trkpt lat="44.26587" lon="4.16465">
        <ele>146</ele>
        <time>2016-03-28T18:00:29Z</time>
      </trkpt>
      <trkpt lat="44.26598" lon="4.16468">
        <ele>146</ele>
        <time>2016-03-28T18:02:29Z</time>
      </trkpt>
      <trkpt lat="44.26609" lon="4.16471">
        <ele>146</ele>
        <time>2016-03-28T18:04:29Z</time>
      </trkpt>
      <trkpt lat="44.26619" lon="4.16475">
        <ele>146</ele>
        <time>2016-03-28T18:06:29Z</time>
      </trkpt>
      <trkpt lat="44.2663" lon="4.16478">
        <ele>146</ele>
        <time>2016-03-28T18:08:29Z</time>
      </trkpt>
      <trkpt lat="44.26641" lon="4.16481">
        <ele>145</ele>
        <time>2016-03-28T18:10:29Z</time>
      </trkpt>
      <trkpt lat="44.26652" lon="4.16484">
        <ele>145</ele>
        <time>2016-03-28T18:12:29Z</time>
      </trkpt>
      <trkpt lat="44.26663" lon="4.16487">
        <ele>145</ele>
        <time>2016-03-28T18:14:29Z</time>
      </trkpt>
      <trkpt lat="44.26674" lon="4.16491">
        <ele>145</ele>
        <time>2016-03-28T18:16:29Z</time>
      </trkpt>
      <trkpt lat="44.26684" lon="4.16494">
        <ele>145</ele>
        <time>2016-03-28T18:18:29Z</time>
      </trkpt>
      <trkpt lat="44.26695" lon="4.16497">
        <ele>145</ele>
        <time>2016-03-28T18:20:29Z</time>
      </trkpt>
      <trkpt lat="44.26705" lon="4.165">
        <ele>145</ele>
        <time>2016-03-28T18:22:29Z</time>
      </trkpt>
      <trkpt lat="44.26714" lon="4.16503">
        <ele>146</ele>
        <time>2016-03-28T18:24:29Z</time>
      </trkpt>
      <trkpt lat="44.26724" lon="4.16506">
        <ele>146</ele>
        <time>2016-03-28T18:26:29Z</time>
      </trkpt>
      <trkpt lat="44.26733" lon="4.16508">
        <ele>146</ele>
        <time>2016-03-28T18:28:29Z</time>
      </trkpt>
      <trkpt lat="44.26743" lon="4.16512">
        <ele>146</ele>
        <time>2016-03-28T18:30:29Z</time>
      </trkpt>
      <trkpt lat="44.26753" lon="4.16514">
        <ele>147</ele>
        <time>2016-03-28T18:32:29Z</time>
      </trkpt>
      <trkpt lat="44.26763" lon="4.16517">
        <ele>147</ele>
        <time>2016-03-28T18:34:29Z</time>
      </trkpt>
      <trkpt lat="44.26772" lon="4.16521">
        <ele>148</ele>
        <time>2016-03-28T18:36:29Z</time>
      </trkpt>
      <trkpt lat="44.26781" lon="4.16524">
        <ele>149</ele>
        <time>2016-03-28T18:38:29Z</time>
      </trkpt>
      <trkpt lat="44.2679" lon="4.16527">
        <ele>149</ele>
        <time>2016-03-28T18:40:29Z</time>
      </trkpt>
      <trkpt lat="44.26799" lon="4.16531">
        <ele>150</ele>
        <time>2016-03-28T18:42:29Z</time>
      </trkpt>
      <trkpt lat="44.26808" lon="4.16535">
        <ele>150</ele>
        <time>2016-03-28T18:44:29Z</time>
      </trkpt>
      <trkpt lat="44.26816" lon="4.16539">
        <ele>150</ele>
        <time>2016-03-28T18:46:29Z</time>
      </trkpt>
      <trkpt lat="44.26824" lon="4.16544">
        <ele>150</ele>
        <time>2016-03-28T18:48:29Z</time>
      </trkpt>
      <trkpt lat="44.26832" lon="4.1655">
        <ele>151</ele>
        <time>2016-03-28T18:50:29Z</time>
      </trkpt>
      <trkpt lat="44.2684" lon="4.16555">
        <ele>152</ele>
        <time>2016-03-28T18:52:29Z</time>
      </trkpt>
      <trkpt lat="44.26847" lon="4.16561">
        <ele>154</ele>
        <time>2016-03-28T18:54:29Z</time>
      </trkpt>
      <trkpt lat="44.26854" lon="4.16566">
        <ele>155</ele>
        <time>2016-03-28T18:56:29Z</time>
      </trkpt>
      <trkpt lat="44.26861" lon="4.16573">
        <ele>157</ele>
        <time>2016-03-28T18:58:29Z</time>
      </trkpt>
      <trkpt lat="44.26867" lon="4.16579">
        <ele>158</ele>
        <time>2016-03-28T19:00:29Z</time>
      </trkpt>
      <trkpt lat="44.26879" lon="4.16589">
        <ele>160</ele>
        <time>2016-03-28T19:02:29Z</time>
      </trkpt>
      <trkpt lat="44.26888" lon="4.16599">
        <ele>160</ele>
        <time>2016-03-28T19:04:29Z</time>
      </trkpt>
      <trkpt lat="44.269" lon="4.16613">
        <ele>160</ele>
        <time>2016-03-28T19:06:29Z</time>
      </trkpt>
      <trkpt lat="44.26911" lon="4.16628">
        <ele>159</ele>
        <time>2016-03-28T19:08:29Z</time>
      </trkpt>
      <trkpt lat="44.26916" lon="4.16637">
        <ele>158</ele>
        <time>2016-03-28T19:10:29Z</time>
      </trkpt>
      <trkpt lat="44.26929" lon="4.16658">
        <ele>154</ele>
        <time>2016-03-28T19:12:29Z</time>
      </trkpt>
      <trkpt lat="44.26944" lon="4.16684">
        <ele>152</ele>
        <time>2016-03-28T19:14:29Z</time>
      </trkpt>
      <trkpt lat="44.26947" lon="4.16689">
        <ele>152</ele>
        <time>2016-03-28T19:16:29Z</time>
      </trkpt>
      <trkpt lat="44.26959" lon="4.16714">
        <ele>151</ele>
        <time>2016-03-28T19:18:29Z</time>
      </trkpt>
      <trkpt lat="44.26964" lon="4.16725">
        <ele>151</ele>
        <time>2016-03-28T19:20:29Z</time>
      </trkpt>
      <trkpt lat="44.26967" lon="4.1673">
        <ele>150</ele>
        <time>2016-03-28T19:22:29Z</time>
      </trkpt>
      <trkpt lat="44.26968" lon="4.16733">
        <ele>150</ele>
        <time>2016-03-28T19:24:29Z</time>
      </trkpt>
      <trkpt lat="44.26969" lon="4.1674">
        <ele>150</ele>
        <time>2016-03-28T19:26:29Z</time>
      </trkpt>
      <trkpt lat="44.2697" lon="4.16744">
        <ele>150</ele>
        <time>2016-03-28T19:28:29Z</time>
      </trkpt>
      <trkpt lat="44.26971" lon="4.16745">
        <ele>150</ele>
        <time>2016-03-28T19:30:29Z</time>
      </trkpt>
      <trkpt lat="44.26973" lon="4.16746">
        <ele>150</ele>
        <time>2016-03-28T19:32:29Z</time>
      </trkpt>
      <trkpt lat="44.26974" lon="4.16746">
        <ele>150</ele>
        <time>2016-03-28T19:34:29Z</time>
      </trkpt>
      <trkpt lat="44.26975" lon="4.16747">
        <ele>150</ele>
        <time>2016-03-28T19:36:29Z</time>
      </trkpt>
      <trkpt lat="44.26979" lon="4.16762">
        <ele>149</ele>
        <time>2016-03-28T19:38:29Z</time>
      </trkpt>
      <trkpt lat="44.26985" lon="4.16778">
        <ele>149</ele>
        <time>2016-03-28T19:40:29Z</time>
      </trkpt>
      <trkpt lat="44.26987" lon="4.16785">
        <ele>149</ele>
        <time>2016-03-28T19:42:29Z</time>
      </trkpt>
      <trkpt lat="44.26989" lon="4.16789">
        <ele>149</ele>
        <time>2016-03-28T19:44:29Z</time>
      </trkpt>
      <trkpt lat="44.26999" lon="4.16814">
        <ele>148</ele>
        <time>2016-03-28T19:46:29Z</time>
      </trkpt>
      <trkpt lat="44.2701" lon="4.16837">
        <ele>148</ele>
        <time>2016-03-28T19:48:29Z</time>
      </trkpt>
      <trkpt lat="44.27016" lon="4.16847">
        <ele>148</ele>
        <time>2016-03-28T19:50:29Z</time>
      </trkpt>
      <trkpt lat="44.27022" lon="4.1686">
        <ele>148</ele>
        <time>2016-03-28T19:52:29Z</time>
      </trkpt>
      <trkpt lat="44.27031" lon="4.16878">
        <ele>148</ele>
        <time>2016-03-28T19:54:29Z</time>
      </trkpt>
      <trkpt lat="44.27036" lon="4.16888">
        <ele>148</ele>
        <time>2016-03-28T19:56:29Z</time>
      </trkpt>
      <trkpt lat="44.27044" lon="4.16902">
        <ele>149</ele>
        <time>2016-03-28T19:58:29Z</time>
      </trkpt>
      <trkpt lat="44.27071" lon="4.16946">
        <ele>149</ele>
        <time>2016-03-28T20:00:29Z</time>
      </trkpt>
      <trkpt lat="44.27081" lon="4.16961">
        <ele>149</ele>
        <time>2016-03-28T20:02:29Z</time>
      </trkpt>
      <trkpt lat="44.27101" lon="4.16994">
        <ele>151</ele>
        <time>2016-03-28T20:04:29Z</time>
      </trkpt>
      <trkpt lat="44.27119" lon="4.17022">
        <ele>152</ele>
        <time>2016-03-28T20:06:29Z</time>
      </trkpt>
      <trkpt lat="44.27132" lon="4.17043">
        <ele>152</ele>
        <time>2016-03-28T20:08:29Z</time>
      </trkpt>
      <trkpt lat="44.27133" lon="4.17047">
        <ele>152</ele>
        <time>2016-03-28T20:10:29Z</time>
      </trkpt>
      <trkpt lat="44.27134" lon="4.1705">
        <ele>152</ele>
        <time>2016-03-28T20:12:29Z</time>
      </trkpt>
      <trkpt lat="44.27135" lon="4.17052">
        <ele>152</ele>
        <time>2016-03-28T20:14:29Z</time>
      </trkpt>
      <trkpt lat="44.27137" lon="4.17056">
        <ele>152</ele>
        <time>2016-03-28T20:16:29Z</time>
      </trkpt>
      <trkpt lat="44.2715" lon="4.17104">
        <ele>150</ele>
        <time>2016-03-28T20:18:29Z</time>
      </trkpt>
      <trkpt lat="44.27157" lon="4.17128">
        <ele>149</ele>
        <time>2016-03-28T20:20:29Z</time>
      </trkpt>
      <trkpt lat="44.27161" lon="4.17141">
        <ele>149</ele>
        <time>2016-03-28T20:22:29Z</time>
      </trkpt>
      <trkpt lat="44.2717" lon="4.17168">
        <ele>148</ele>
        <time>2016-03-28T20:24:29Z</time>
      </trkpt>
      <trkpt lat="44.27173" lon="4.1718">
        <ele>148</ele>
        <time>2016-03-28T20:26:29Z</time>
      </trkpt>
      <trkpt lat="44.27181" lon="4.17205">
        <ele>150</ele>
        <time>2016-03-28T20:28:29Z</time>
      </trkpt>
      <trkpt lat="44.27194" lon="4.17243">
        <ele>151</ele>
        <time>2016-03-28T20:30:29Z</time>
      </trkpt>
      <trkpt lat="44.27197" lon="4.17252">
        <ele>152</ele>
        <time>2016-03-28T20:32:29Z</time>
      </trkpt>
      <trkpt lat="44.27199" lon="4.17262">
        <ele>152</ele>
        <time>2016-03-28T20:34:29Z</time>
      </trkpt>
      <trkpt lat="44.27199" lon="4.17263">
        <ele>152</ele>
        <time>2016-03-28T20:36:29Z</time>
      </trkpt>
      <trkpt lat="44.27203" lon="4.17266">
        <ele>153</ele>
        <time>2016-03-28T20:38:29Z</time>
      </trkpt>
      <trkpt lat="44.27207" lon="4.17285">
        <ele>153</ele>
        <time>2016-03-28T20:40:29Z</time>
      </trkpt>
      <trkpt lat="44.27218" lon="4.17326">
        <ele>155</ele>
        <time>2016-03-28T20:42:29Z</time>
      </trkpt>
      <trkpt lat="44.27221" lon="4.17343">
        <ele>156</ele>
        <time>2016-03-28T20:44:29Z</time>
      </trkpt>
      <trkpt lat="44.27224" lon="4.17362">
        <ele>157</ele>
        <time>2016-03-28T20:46:29Z</time>
      </trkpt>
      <trkpt lat="44.27226" lon="4.17383">
        <ele>158</ele>
        <time>2016-03-28T20:48:29Z</time>
      </trkpt>
      <trkpt lat="44.27227" lon="4.17392">
        <ele>158</ele>
        <time>2016-03-28T20:50:29Z</time>
      </trkpt>
      <trkpt lat="44.27228" lon="4.17402">
        <ele>158</ele>
        <time>2016-03-28T20:52:29Z</time>
      </trkpt>
      <trkpt lat="44.27229" lon="4.17421">
        <ele>159</ele>
        <time>2016-03-28T20:54:29Z</time>
      </trkpt>
      <trkpt lat="44.2723" lon="4.17442">
        <ele>159</ele>
        <time>2016-03-28T20:56:29Z</time>
      </trkpt>
      <trkpt lat="44.27229" lon="4.17462">
        <ele>160</ele>
        <time>2016-03-28T20:58:29Z</time>
      </trkpt>
      <trkpt lat="44.27229" lon="4.17483">
        <ele>160</ele>
        <time>2016-03-28T21:00:29Z</time>
      </trkpt>
      <trkpt lat="44.27228" lon="4.17514">
        <ele>161</ele>
        <time>2016-03-28T21:02:29Z</time>
      </trkpt>
      <trkpt lat="44.27224" lon="4.17556">
        <ele>161</ele>
        <time>2016-03-28T21:04:29Z</time>
      </trkpt>
      <trkpt lat="44.27223" lon="4.17573">
        <ele>161</ele>
        <time>2016-03-28T21:06:29Z</time>
      </trkpt>
      <trkpt lat="44.2722" lon="4.17611">
        <ele>162</ele>
        <time>2016-03-28T21:08:29Z</time>
      </trkpt>
      <trkpt lat="44.27218" lon="4.17631">
        <ele>163</ele>
        <time>2016-03-28T21:10:29Z</time>
      </trkpt>
      <trkpt lat="44.27216" lon="4.17659">
        <ele>163</ele>
        <time>2016-03-28T21:12:29Z</time>
      </trkpt>
      <trkpt lat="44.27213" lon="4.17695">
        <ele>163</ele>
        <time>2016-03-28T21:14:29Z</time>
      </trkpt>
      <trkpt lat="44.27211" lon="4.17735">
        <ele>161</ele>
        <time>2016-03-28T21:16:29Z</time>
      </trkpt>
      <trkpt lat="44.27208" lon="4.17776">
        <ele>160</ele>
        <time>2016-03-28T21:18:29Z</time>
      </trkpt>
      <trkpt lat="44.27206" lon="4.17815">
        <ele>160</ele>
        <time>2016-03-28T21:20:29Z</time>
      </trkpt>
      <trkpt lat="44.27203" lon="4.17853">
        <ele>160</ele>
        <time>2016-03-28T21:22:29Z</time>
      </trkpt>
      <trkpt lat="44.272" lon="4.17883">
        <ele>160</ele>
        <time>2016-03-28T21:24:29Z</time>
      </trkpt>
      <trkpt lat="44.27196" lon="4.17919">
        <ele>160</ele>
        <time>2016-03-28T21:26:29Z</time>
      </trkpt>
      <trkpt lat="44.27189" lon="4.1796">
        <ele>162</ele>
        <time>2016-03-28T21:28:29Z</time>
      </trkpt>
      <trkpt lat="44.2718" lon="4.18006">
        <ele>164</ele>
        <time>2016-03-28T21:30:29Z</time>
      </trkpt>
      <trkpt lat="44.27169" lon="4.18057">
        <ele>164</ele>
        <time>2016-03-28T21:32:29Z</time>
      </trkpt>
      <trkpt lat="44.27159" lon="4.18108">
        <ele>164</ele>
        <time>2016-03-28T21:34:29Z</time>
      </trkpt>
      <trkpt lat="44.2715" lon="4.18154">
        <ele>161</ele>
        <time>2016-03-28T21:36:29Z</time>
      </trkpt>
      <trkpt lat="44.27142" lon="4.18197">
        <ele>160</ele>
        <time>2016-03-28T21:38:29Z</time>
      </trkpt>
      <trkpt lat="44.27135" lon="4.18227">
        <ele>160</ele>
        <time>2016-03-28T21:40:29Z</time>
      </trkpt>
      <trkpt lat="44.2713" lon="4.18251">
        <ele>160</ele>
        <time>2016-03-28T21:42:29Z</time>
      </trkpt>
      <trkpt lat="44.27127" lon="4.18268">
        <ele>160</ele>
        <time>2016-03-28T21:44:29Z</time>
      </trkpt>
      <trkpt lat="44.27126" lon="4.18281">
        <ele>159</ele>
        <time>2016-03-28T21:46:29Z</time>
      </trkpt>
      <trkpt lat="44.27125" lon="4.18294">
        <ele>159</ele>
        <time>2016-03-28T21:48:29Z</time>
      </trkpt>
      <trkpt lat="44.27124" lon="4.18303">
        <ele>159</ele>
        <time>2016-03-28T21:50:29Z</time>
      </trkpt>
      <trkpt lat="44.27124" lon="4.18315">
        <ele>159</ele>
        <time>2016-03-28T21:52:29Z</time>
      </trkpt>
      <trkpt lat="44.27124" lon="4.18325">
        <ele>159</ele>
        <time>2016-03-28T21:54:29Z</time>
      </trkpt>
      <trkpt lat="44.27124" lon="4.18336">
        <ele>158</ele>
        <time>2016-03-28T21:56:29Z</time>
      </trkpt>
      <trkpt lat="44.27124" lon="4.18347">
        <ele>158</ele>
        <time>2016-03-28T21:58:29Z</time>
      </trkpt>
      <trkpt lat="44.27126" lon="4.18365">
        <ele>158</ele>
        <time>2016-03-28T22:00:29Z</time>
      </trkpt>
      <trkpt lat="44.27128" lon="4.18388">
        <ele>157</ele>
        <time>2016-03-28T22:02:29Z</time>
      </trkpt>
      <trkpt lat="44.2713" lon="4.18399">
        <ele>157</ele>
        <time>2016-03-28T22:04:29Z</time>
      </trkpt>
      <trkpt lat="44.27133" lon="4.18413">
        <ele>157</ele>
        <time>2016-03-28T22:06:29Z</time>
      </trkpt>
      <trkpt lat="44.27136" lon="4.18423">
        <ele>156</ele>
        <time>2016-03-28T22:08:29Z</time>
      </trkpt>
      <trkpt lat="44.27143" lon="4.18444">
        <ele>155</ele>
        <time>2016-03-28T22:10:29Z</time>
      </trkpt>
      <trkpt lat="44.27149" lon="4.18461">
        <ele>155</ele>
        <time>2016-03-28T22:12:29Z</time>
      </trkpt>
      <trkpt lat="44.27153" lon="4.18473">
        <ele>154</ele>
        <time>2016-03-28T22:14:29Z</time>
      </trkpt>
      <trkpt lat="44.27162" lon="4.18495">
        <ele>153</ele>
        <time>2016-03-28T22:16:29Z</time>
      </trkpt>
      <trkpt lat="44.27176" lon="4.18528">
        <ele>151</ele>
        <time>2016-03-28T22:18:29Z</time>
      </trkpt>
      <trkpt lat="44.27183" lon="4.18546">
        <ele>150</ele>
        <time>2016-03-28T22:20:29Z</time>
      </trkpt>
      <trkpt lat="44.27184" lon="4.18548">
        <ele>150</ele>
        <time>2016-03-28T22:22:29Z</time>
      </trkpt>
      <trkpt lat="44.27187" lon="4.18556">
        <ele>149</ele>
        <time>2016-03-28T22:24:29Z</time>
      </trkpt>
      <trkpt lat="44.2719" lon="4.18566">
        <ele>149</ele>
        <time>2016-03-28T22:26:29Z</time>
      </trkpt>
      <trkpt lat="44.27195" lon="4.18583">
        <ele>148</ele>
        <time>2016-03-28T22:28:29Z</time>
      </trkpt>
      <trkpt lat="44.27198" lon="4.18595">
        <ele>148</ele>
        <time>2016-03-28T22:30:29Z</time>
      </trkpt>
      <trkpt lat="44.27204" lon="4.18624">
        <ele>147</ele>
        <time>2016-03-28T22:32:29Z</time>
      </trkpt>
      <trkpt lat="44.2721" lon="4.18657">
        <ele>146</ele>
        <time>2016-03-28T22:34:29Z</time>
      </trkpt>
      <trkpt lat="44.27214" lon="4.18676">
        <ele>146</ele>
        <time>2016-03-28T22:36:29Z</time>
      </trkpt>
      <trkpt lat="44.27217" lon="4.18694">
        <ele>147</ele>
        <time>2016-03-28T22:38:29Z</time>
      </trkpt>
      <trkpt lat="44.27218" lon="4.18703">
        <ele>147</ele>
        <time>2016-03-28T22:40:29Z</time>
      </trkpt>
      <trkpt lat="44.2722" lon="4.18714">
        <ele>148</ele>
        <time>2016-03-28T22:42:29Z</time>
      </trkpt>
      <trkpt lat="44.2722" lon="4.18716">
        <ele>148</ele>
        <time>2016-03-28T22:44:29Z</time>
      </trkpt>
      <trkpt lat="44.27221" lon="4.1872">
        <ele>148</ele>
        <time>2016-03-28T22:46:29Z</time>
      </trkpt>
      <trkpt lat="44.27223" lon="4.18733">
        <ele>149</ele>
        <time>2016-03-28T22:48:29Z</time>
      </trkpt>
      <trkpt lat="44.27225" lon="4.18744">
        <ele>149</ele>
        <time>2016-03-28T22:50:29Z</time>
      </trkpt>
      <trkpt lat="44.27227" lon="4.1876">
        <ele>150</ele>
        <time>2016-03-28T22:52:29Z</time>
      </trkpt>
      <trkpt lat="44.2723" lon="4.18774">
        <ele>151</ele>
        <time>2016-03-28T22:54:29Z</time>
      </trkpt>
      <trkpt lat="44.27232" lon="4.18788">
        <ele>152</ele>
        <time>2016-03-28T22:56:29Z</time>
      </trkpt>
      <trkpt lat="44.27235" lon="4.18807">
        <ele>153</ele>
        <time>2016-03-28T22:58:29Z</time>
      </trkpt>
      <trkpt lat="44.27237" lon="4.1882">
        <ele>154</ele>
        <time>2016-03-28T23:00:29Z</time>
      </trkpt>
      <trkpt lat="44.27239" lon="4.18833">
        <ele>155</ele>
        <time>2016-03-28T23:02:29Z</time>
      </trkpt>
      <trkpt lat="44.27241" lon="4.18843">
        <ele>155</ele>
        <time>2016-03-28T23:04:29Z</time>
      </trkpt>
      <trkpt lat="44.27243" lon="4.18853">
        <ele>156</ele>
        <time>2016-03-28T23:06:29Z</time>
      </trkpt>
      <trkpt lat="44.27244" lon="4.18862">
        <ele>156</ele>
        <time>2016-03-28T23:08:29Z</time>
      </trkpt>
      <trkpt lat="44.27246" lon="4.18873">
        <ele>157</ele>
        <time>2016-03-28T23:10:29Z</time>
      </trkpt>
      <trkpt lat="44.27246" lon="4.18882">
        <ele>157</ele>
        <time>2016-03-28T23:12:29Z</time>
      </trkpt>
      <trkpt lat="44.27247" lon="4.18892">
        <ele>157</ele>
        <time>2016-03-28T23:14:29Z</time>
      </trkpt>
      <trkpt lat="44.27248" lon="4.18901">
        <ele>157</ele>
        <time>2016-03-28T23:16:29Z</time>
      </trkpt>
      <trkpt lat="44.27248" lon="4.1891">
        <ele>157</ele>
        <time>2016-03-28T23:18:29Z</time>
      </trkpt>
      <trkpt lat="44.27248" lon="4.18919">
        <ele>158</ele>
        <time>2016-03-28T23:20:29Z</time>
      </trkpt>
      <trkpt lat="44.27248" lon="4.18929">
        <ele>158</ele>
        <time>2016-03-28T23:22:29Z</time>
      </trkpt>
      <trkpt lat="44.27247" lon="4.18941">
        <ele>158</ele>
        <time>2016-03-28T23:24:29Z</time>
      </trkpt>
      <trkpt lat="44.27245" lon="4.18952">
        <ele>158</ele>
        <time>2016-03-28T23:26:29Z</time>
      </trkpt>
      <trkpt lat="44.27242" lon="4.18968">
        <ele>158</ele>
        <time>2016-03-28T23:28:29Z</time>
      </trkpt>
      <trkpt lat="44.27236" lon="4.18993">
        <ele>158</ele>
        <time>2016-03-28T23:30:29Z</time>
      </trkpt>
      <trkpt lat="44.27232" lon="4.19008">
        <ele>158</ele>
        <time>2016-03-28T23:32:29Z</time>
      </trkpt>
      <trkpt lat="44.27228" lon="4.19019">
        <ele>159</ele>
        <time>2016-03-28T23:34:29Z</time>
      </trkpt>
      <trkpt lat="44.27223" lon="4.19034">
        <ele>159</ele>
        <time>2016-03-28T23:36:29Z</time>
      </trkpt>
      <trkpt lat="44.27217" lon="4.19049">
        <ele>159</ele>
        <time>2016-03-28T23:38:29Z</time>
      </trkpt>
      <trkpt lat="44.2721" lon="4.19068">
        <ele>159</ele>
        <time>2016-03-28T23:40:29Z</time>
      </trkpt>
      <trkpt lat="44.27199" lon="4.19092">
        <ele>158</ele>
        <time>2016-03-28T23:42:29Z</time>
      </trkpt>
      <trkpt lat="44.27188" lon="4.19116">
        <ele>159</ele>
        <time>2016-03-28T23:44:29Z</time>
      </trkpt>
      <trkpt lat="44.27177" lon="4.19137">
        <ele>158</ele>
        <time>2016-03-28T23:46:29Z</time>
      </trkpt>
      <trkpt lat="44.27167" lon="4.19155">
        <ele>156</ele>
        <time>2016-03-28T23:48:29Z</time>
      </trkpt>
      <trkpt lat="44.2716" lon="4.19165">
        <ele>156</ele>
        <time>2016-03-28T23:50:29Z</time>
      </trkpt>
      <trkpt lat="44.27151" lon="4.19177">
        <ele>158</ele>
        <time>2016-03-28T23:52:29Z</time>
      </trkpt>
      <trkpt lat="44.27139" lon="4.19193">
        <ele>159</ele>
        <time>2016-03-28T23:54:29Z</time>
      </trkpt>
      <trkpt lat="44.27126" lon="4.19208">
        <ele>159</ele>
        <time>2016-03-28T23:56:29Z</time>
      </trkpt>
      <trkpt lat="44.2711" lon="4.19226">
        <ele>158</ele>
        <time>2016-03-28T23:58:29Z</time>
      </trkpt>
      <trkpt lat="44.27093" lon="4.19244">
        <ele>155</ele>
        <time>2016-03-29T00:00:29Z</time>
      </trkpt>
      <trkpt lat="44.2708" lon="4.19254">
        <ele>153</ele>
        <time>2016-03-29T00:02:29Z</time>
      </trkpt>
      <trkpt lat="44.27071" lon="4.19261">
        <ele>153</ele>
        <time>2016-03-29T00:04:29Z</time>
      </trkpt>
      <trkpt lat="44.27064" lon="4.19265">
        <ele>153</ele>
        <time>2016-03-29T00:06:29Z</time>
      </trkpt>
      <trkpt lat="44.27055" lon="4.19271">
        <ele>153</ele>
        <time>2016-03-29T00:08:29Z</time>
      </trkpt>
      <trkpt lat="44.27046" lon="4.19276">
        <ele>152</ele>
        <time>2016-03-29T00:10:29Z</time>
      </trkpt>
      <trkpt lat="44.27037" lon="4.19282">
        <ele>151</ele>
        <time>2016-03-29T00:12:29Z</time>
      </trkpt>
      <trkpt lat="44.27022" lon="4.19289">
        <ele>150</ele>
        <time>2016-03-29T00:14:29Z</time>
      </trkpt>
      <trkpt lat="44.27014" lon="4.19294">
        <ele>149</ele>
        <time>2016-03-29T00:16:29Z</time>
      </trkpt>
      <trkpt lat="44.27009" lon="4.19298">
        <ele>148</ele>
        <time>2016-03-29T00:18:29Z</time>
      </trkpt>
      <trkpt lat="44.27002" lon="4.19301">
        <ele>147</ele>
        <time>2016-03-29T00:20:29Z</time>
      </trkpt>
      <trkpt lat="44.26995" lon="4.19308">
        <ele>147</ele>
        <time>2016-03-29T00:22:29Z</time>
      </trkpt>
      <trkpt lat="44.26979" lon="4.19322">
        <ele>147</ele>
        <time>2016-03-29T00:24:29Z</time>
      </trkpt>
      <trkpt lat="44.26962" lon="4.19339">
        <ele>146</ele>
        <time>2016-03-29T00:26:29Z</time>
      </trkpt>
      <trkpt lat="44.26943" lon="4.1936">
        <ele>145</ele>
        <time>2016-03-29T00:28:29Z</time>
      </trkpt>
      <trkpt lat="44.26939" lon="4.19366">
        <ele>145</ele>
        <time>2016-03-29T00:30:29Z</time>
      </trkpt>
      <trkpt lat="44.26933" lon="4.19374">
        <ele>145</ele>
        <time>2016-03-29T00:32:29Z</time>
      </trkpt>
      <trkpt lat="44.26926" lon="4.19387">
        <ele>145</ele>
        <time>2016-03-29T00:34:29Z</time>
      </trkpt>
      <trkpt lat="44.26919" lon="4.19402">
        <ele>145</ele>
        <time>2016-03-29T00:36:29Z</time>
      </trkpt>
      <trkpt lat="44.26916" lon="4.19416">
        <ele>145</ele>
        <time>2016-03-29T00:38:29Z</time>
      </trkpt>
      <trkpt lat="44.26913" lon="4.19435">
        <ele>145</ele>
        <time>2016-03-29T00:40:29Z</time>
      </trkpt>
      <trkpt lat="44.26912" lon="4.19448">
        <ele>145</ele>
        <time>2016-03-29T00:42:29Z</time>
      </trkpt>
      <trkpt lat="44.26912" lon="4.19457">
        <ele>145</ele>
        <time>2016-03-29T00:44:29Z</time>
      </trkpt>
      <trkpt lat="44.26913" lon="4.19466">
        <ele>145</ele>
        <time>2016-03-29T00:46:29Z</time>
      </trkpt>
      <trkpt lat="44.26915" lon="4.19487">
        <ele>145</ele>
        <time>2016-03-29T00:48:29Z</time>
      </trkpt>
      <trkpt lat="44.26917" lon="4.19501">
        <ele>145</ele>
        <time>2016-03-29T00:50:29Z</time>
      </trkpt>
      <trkpt lat="44.26919" lon="4.1952">
        <ele>145</ele>
        <time>2016-03-29T00:52:29Z</time>
      </trkpt>
      <trkpt lat="44.2692" lon="4.19526">
        <ele>145</ele>
        <time>2016-03-29T00:54:29Z</time>
      </trkpt>
      <trkpt lat="44.26923" lon="4.1955">
        <ele>145</ele>
        <time>2016-03-29T00:56:29Z</time>
      </trkpt>
      <trkpt lat="44.26922" lon="4.19555">
        <ele>145</ele>
        <time>2016-03-29T00:58:29Z</time>
      </trkpt>
      <trkpt lat="44.2692" lon="4.19564">
        <ele>144</ele>
        <time>2016-03-29T01:00:29Z</time>
      </trkpt>
      <trkpt lat="44.26918" lon="4.19574">
        <ele>144</ele>
        <time>2016-03-29T01:02:29Z</time>
      </trkpt>
      <trkpt lat="44.26917" lon="4.19577">
        <ele>144</ele>
        <time>2016-03-29T01:04:29Z</time>
      </trkpt>
      <trkpt lat="44.26917" lon="4.19577">
        <ele>144</ele>
        <time>2016-03-29T01:06:29Z</time>
      </trkpt>
      <trkpt lat="44.26915" lon="4.19577">
        <ele>144</ele>
        <time>2016-03-29T01:08:29Z</time>
      </trkpt>
      <trkpt lat="44.26896" lon="4.19576">
        <ele>144</ele>
        <time>2016-03-29T01:10:29Z</time>
      </trkpt>
      <trkpt lat="44.26887" lon="4.19575">
        <ele>143</ele>
        <time>2016-03-29T01:12:29Z</time>
      </trkpt>
      <trkpt lat="44.26869" lon="4.19574">
        <ele>143</ele>
        <time>2016-03-29T01:14:29Z</time>
      </trkpt>
      <trkpt lat="44.26835" lon="4.19574">
        <ele>142</ele>
        <time>2016-03-29T01:16:29Z</time>
      </trkpt>
      <trkpt lat="44.26829" lon="4.19574">
        <ele>142</ele>
        <time>2016-03-29T01:18:29Z</time>
      </trkpt>
      <trkpt lat="44.26822" lon="4.19576">
        <ele>142</ele>
        <time>2016-03-29T01:20:29Z</time>
      </trkpt>
      <trkpt lat="44.26804" lon="4.19575">
        <ele>142</ele>
        <time>2016-03-29T01:22:29Z</time>
      </trkpt>
      <trkpt lat="44.2679" lon="4.19575">
        <ele>142</ele>
        <time>2016-03-29T01:24:29Z</time>
      </trkpt>
      <trkpt lat="44.26785" lon="4.19575">
        <ele>142</ele>
        <time>2016-03-29T01:26:29Z</time>
      </trkpt>
      <trkpt lat="44.26777" lon="4.19576">
        <ele>142</ele>
        <time>2016-03-29T01:28:29Z</time>
      </trkpt>
      <trkpt lat="44.26772" lon="4.19578">
        <ele>142</ele>
        <time>2016-03-29T01:30:29Z</time>
      </trkpt>
      <trkpt lat="44.26767" lon="4.19581">
        <ele>142</ele>
        <time>2016-03-29T01:32:29Z</time>
      </trkpt>
      <trkpt lat="44.26758" lon="4.19588">
        <ele>142</ele>
        <time>2016-03-29T01:34:29Z</time>
      </trkpt>
      <trkpt lat="44.26754" lon="4.19592">
        <ele>142</ele>
        <time>2016-03-29T01:36:29Z</time>
      </trkpt>
      <trkpt lat="44.26748" lon="4.196">
        <ele>142</ele>
        <time>2016-03-29T01:38:29Z</time>
      </trkpt>
      <trkpt lat="44.26743" lon="4.19609">
        <ele>142</ele>
        <time>2016-03-29T01:40:29Z</time>
      </trkpt>
      <trkpt lat="44.26735" lon="4.19624">
        <ele>143</ele>
        <time>2016-03-29T01:42:29Z</time>
      </trkpt>
      <trkpt lat="44.26705" lon="4.19681">
        <ele>142</ele>
        <time>2016-03-29T01:44:29Z</time>
      </trkpt>
      <trkpt lat="44.26687" lon="4.19715">
        <ele>142</ele>
        <time>2016-03-29T01:46:29Z</time>
      </trkpt>
      <trkpt lat="44.26674" lon="4.19741">
        <ele>141</ele>
        <time>2016-03-29T01:48:29Z</time>
      </trkpt>
      <trkpt lat="44.26654" lon="4.19784">
        <ele>141</ele>
        <time>2016-03-29T01:50:29Z</time>
      </trkpt>
      <trkpt lat="44.26642" lon="4.19806">
        <ele>141</ele>
        <time>2016-03-29T01:52:29Z</time>
      </trkpt>
      <trkpt lat="44.26625" lon="4.19835">
        <ele>142</ele>
        <time>2016-03-29T01:54:29Z</time>
      </trkpt>
      <trkpt lat="44.26619" lon="4.19847">
        <ele>142</ele>
        <time>2016-03-29T01:56:29Z</time>
      </trkpt>
      <trkpt lat="44.26591" lon="4.199">
        <ele>143</ele>
        <time>2016-03-29T01:58:29Z</time>
      </trkpt>
      <trkpt lat="44.26582" lon="4.19918">
        <ele>143</ele>
        <time>2016-03-29T02:00:29Z</time>
      </trkpt>
      <trkpt lat="44.26565" lon="4.1995">
        <ele>143</ele>
        <time>2016-03-29T02:02:29Z</time>
      </trkpt>
      <trkpt lat="44.26553" lon="4.19974">
        <ele>144</ele>
        <time>2016-03-29T02:04:29Z</time>
      </trkpt>
      <trkpt lat="44.26548" lon="4.19984">
        <ele>144</ele>
        <time>2016-03-29T02:06:29Z</time>
      </trkpt>
      <trkpt lat="44.26544" lon="4.19991">
        <ele>144</ele>
        <time>2016-03-29T02:08:29Z</time>
      </trkpt>
      <trkpt lat="44.26539" lon="4.19999">
        <ele>144</ele>
        <time>2016-03-29T02:10:29Z</time>
      </trkpt>
      <trkpt lat="44.2653" lon="4.2001">
        <ele>144</ele>
        <time>2016-03-29T02:12:29Z</time>
      </trkpt>
      <trkpt lat="44.2652" lon="4.20022">
        <ele>144</ele>
        <time>2016-03-29T02:14:29Z</time>
      </trkpt>
      <trkpt lat="44.26516" lon="4.20025">
        <ele>144</ele>
        <time>2016-03-29T02:16:29Z</time>
      </trkpt>
      <trkpt lat="44.26505" lon="4.20034">
        <ele>144</ele>
        <time>2016-03-29T02:18:29Z</time>
      </trkpt>
      <trkpt lat="44.26496" lon="4.20041">
        <ele>143</ele>
        <time>2016-03-29T02:20:29Z</time>
      </trkpt>
      <trkpt lat="44.26488" lon="4.20046">
        <ele>143</ele>
        <time>2016-03-29T02:22:29Z</time>
      </trkpt>
      <trkpt lat="44.26478" lon="4.20052">
        <ele>143</ele>
        <time>2016-03-29T02:24:29Z</time>
      </trkpt>
      <trkpt lat="44.26468" lon="4.20055">
        <ele>142</ele>
        <time>2016-03-29T02:26:29Z</time>
      </trkpt>
      <trkpt lat="44.26465" lon="4.20056">
        <ele>142</ele>
        <time>2016-03-29T02:28:29Z</time>
      </trkpt>
      <trkpt lat="44.26459" lon="4.20057">
        <ele>142</ele>
        <time>2016-03-29T02:30:29Z</time>
      </trkpt>
      <trkpt lat="44.26454" lon="4.20057">
        <ele>142</ele>
        <time>2016-03-29T02:32:29Z</time>
      </trkpt>
      <trkpt lat="44.26446" lon="4.20057">
        <ele>142</ele>
        <time>2016-03-29T02:34:29Z</time>
      </trkpt>
      <trkpt lat="44.26441" lon="4.20057">
        <ele>142</ele>
        <time>2016-03-29T02:36:29Z</time>
      </trkpt>
      <trkpt lat="44.26435" lon="4.20056">
        <ele>142</ele>
        <time>2016-03-29T02:38:29Z</time>
      </trkpt>
      <trkpt lat="44.26428" lon="4.20054">
        <ele>141</ele>
        <time>2016-03-29T02:40:29Z</time>
      </trkpt>
      <trkpt lat="44.26421" lon="4.20052">
        <ele>141</ele>
        <time>2016-03-29T02:42:29Z</time>
      </trkpt>
      <trkpt lat="44.2641" lon="4.20048">
        <ele>141</ele>
        <time>2016-03-29T02:44:29Z</time>
      </trkpt>
      <trkpt lat="44.26393" lon="4.20042">
        <ele>140</ele>
        <time>2016-03-29T02:46:29Z</time>
      </trkpt>
      <trkpt lat="44.26359" lon="4.20029">
        <ele>139</ele>
        <time>2016-03-29T02:48:29Z</time>
      </trkpt>
      <trkpt lat="44.26344" lon="4.20024">
        <ele>139</ele>
        <time>2016-03-29T02:50:29Z</time>
      </trkpt>
      <trkpt lat="44.2634" lon="4.20023">
        <ele>138</ele>
        <time>2016-03-29T02:52:29Z</time>
      </trkpt>
      <trkpt lat="44.26336" lon="4.20021">
        <ele>138</ele>
        <time>2016-03-29T02:54:29Z</time>
      </trkpt>
      <trkpt lat="44.26323" lon="4.20017">
        <ele>138</ele>
        <time>2016-03-29T02:56:29Z</time>
      </trkpt>
      <trkpt lat="44.2628" lon="4.20003">
        <ele>139</ele>
        <time>2016-03-29T02:58:29Z</time>
      </trkpt>
      <trkpt lat="44.26238" lon="4.1999">
        <ele>141</ele>
        <time>2016-03-29T03:00:29Z</time>
      </trkpt>
      <trkpt lat="44.26233" lon="4.19988">
        <ele>141</ele>
        <time>2016-03-29T03:02:29Z</time>
      </trkpt>
      <trkpt lat="44.26232" lon="4.19987">
        <ele>141</ele>
        <time>2016-03-29T03:04:29Z</time>
      </trkpt>
      <trkpt lat="44.26228" lon="4.19986">
        <ele>141</ele>
        <time>2016-03-29T03:06:29Z</time>
      </trkpt>
      <trkpt lat="44.26224" lon="4.19985">
        <ele>141</ele>
        <time>2016-03-29T03:08:29Z</time>
      </trkpt>
      <trkpt lat="44.26221" lon="4.19983">
        <ele>142</ele>
        <time>2016-03-29T03:10:29Z</time>
      </trkpt>
      <trkpt lat="44.26206" lon="4.19971">
        <ele>142</ele>
        <time>2016-03-29T03:12:29Z</time>
      </trkpt>
      <trkpt lat="44.26181" lon="4.19948">
        <ele>143</ele>
        <time>2016-03-29T03:14:29Z</time>
      </trkpt>
      <trkpt lat="44.26169" lon="4.19935">
        <ele>144</ele>
        <time>2016-03-29T03:16:29Z</time>
      </trkpt>
      <trkpt lat="44.26142" lon="4.19907">
        <ele>145</ele>
        <time>2016-03-29T03:18:29Z</time>
      </trkpt>
      <trkpt lat="44.26122" lon="4.19885">
        <ele>147</ele>
        <time>2016-03-29T03:20:29Z</time>
      </trkpt>
      <trkpt lat="44.26112" lon="4.19875">
        <ele>147</ele>
        <time>2016-03-29T03:22:29Z</time>
      </trkpt>
      <trkpt lat="44.26108" lon="4.19864">
        <ele>148</ele>
        <time>2016-03-29T03:24:29Z</time>
      </trkpt>
      <trkpt lat="44.26101" lon="4.19855">
        <ele>148</ele>
        <time>2016-03-29T03:26:29Z</time>
      </trkpt>
      <trkpt lat="44.2609" lon="4.19844">
        <ele>149</ele>
        <time>2016-03-29T03:28:29Z</time>
      </trkpt>
      <trkpt lat="44.26087" lon="4.19841">
        <ele>149</ele>
        <time>2016-03-29T03:30:29Z</time>
      </trkpt>
      <trkpt lat="44.26074" lon="4.19829">
        <ele>149</ele>
        <time>2016-03-29T03:32:29Z</time>
      </trkpt>
      <trkpt lat="44.26064" lon="4.19819">
        <ele>149</ele>
        <time>2016-03-29T03:34:29Z</time>
      </trkpt>
      <trkpt lat="44.26064" lon="4.19819">
        <ele>149</ele>
        <time>2016-03-29T03:36:29Z</time>
      </trkpt>
      <trkpt lat="44.26062" lon="4.19825">
        <ele>149</ele>
        <time>2016-03-29T03:38:29Z</time>
      </trkpt>
      <trkpt lat="44.26053" lon="4.19843">
        <ele>149</ele>
        <time>2016-03-29T03:40:29Z</time>
      </trkpt>
      <trkpt lat="44.26045" lon="4.19862">
        <ele>149</ele>
        <time>2016-03-29T03:42:29Z</time>
      </trkpt>
      <trkpt lat="44.26037" lon="4.1988">
        <ele>149</ele>
        <time>2016-03-29T03:44:29Z</time>
      </trkpt>
      <trkpt lat="44.26019" lon="4.19923">
        <ele>149</ele>
        <time>2016-03-29T03:46:29Z</time>
      </trkpt>
      <trkpt lat="44.25979" lon="4.20011">
        <ele>148</ele>
        <time>2016-03-29T03:48:29Z</time>
      </trkpt>
      <trkpt lat="44.25954" lon="4.20063">
        <ele>147</ele>
        <time>2016-03-29T03:50:29Z</time>
      </trkpt>
      <trkpt lat="44.25929" lon="4.20119">
        <ele>146</ele>
        <time>2016-03-29T03:52:29Z</time>
      </trkpt>
      <trkpt lat="44.25913" lon="4.20154">
        <ele>146</ele>
        <time>2016-03-29T03:54:29Z</time>
      </trkpt>
      <trkpt lat="44.25905" lon="4.20171">
        <ele>147</ele>
        <time>2016-03-29T03:56:29Z</time>
      </trkpt>
      <trkpt lat="44.25886" lon="4.20214">
        <ele>151</ele>
        <time>2016-03-29T03:58:29Z</time>
      </trkpt>
      <trkpt lat="44.25855" lon="4.20284">
        <ele>154</ele>
        <time>2016-03-29T04:00:29Z</time>
      </trkpt>
      <trkpt lat="44.25837" lon="4.20323">
        <ele>155</ele>
        <time>2016-03-29T04:02:29Z</time>
      </trkpt>
      <trkpt lat="44.25825" lon="4.20353">
        <ele>155</ele>
        <time>2016-03-29T04:04:29Z</time>
      </trkpt>
      <trkpt lat="44.25812" lon="4.20386">
        <ele>155</ele>
        <time>2016-03-29T04:06:29Z</time>
      </trkpt>
      <trkpt lat="44.25801" lon="4.20419">
        <ele>154</ele>
        <time>2016-03-29T04:08:29Z</time>
      </trkpt>
      <trkpt lat="44.25791" lon="4.20451">
        <ele>154</ele>
        <time>2016-03-29T04:10:29Z</time>
      </trkpt>
      <trkpt lat="44.25786" lon="4.20472">
        <ele>153</ele>
        <time>2016-03-29T04:12:29Z</time>
      </trkpt>
      <trkpt lat="44.25783" lon="4.20483">
        <ele>153</ele>
        <time>2016-03-29T04:14:29Z</time>
      </trkpt>
      <trkpt lat="44.25781" lon="4.2049">
        <ele>153</ele>
        <time>2016-03-29T04:16:29Z</time>
      </trkpt>
      <trkpt lat="44.25779" lon="4.20503">
        <ele>152</ele>
        <time>2016-03-29T04:18:29Z</time>
      </trkpt>
      <trkpt lat="44.25779" lon="4.20503">
        <ele>152</ele>
        <time>2016-03-29T04:20:29Z</time>
      </trkpt>
      <trkpt lat="44.25777" lon="4.20504">
        <ele>152</ele>
        <time>2016-03-29T04:22:29Z</time>
      </trkpt>
      <trkpt lat="44.25776" lon="4.20504">
        <ele>153</ele>
        <time>2016-03-29T04:24:29Z</time>
      </trkpt>
      <trkpt lat="44.25774" lon="4.20506">
        <ele>153</ele>
        <time>2016-03-29T04:26:29Z</time>
      </trkpt>
      <trkpt lat="44.25772" lon="4.20508">
        <ele>153</ele>
        <time>2016-03-29T04:28:29Z</time>
      </trkpt>
      <trkpt lat="44.25772" lon="4.20511">
        <ele>153</ele>
        <time>2016-03-29T04:30:29Z</time>
      </trkpt>
      <trkpt lat="44.25772" lon="4.20514">
        <ele>153</ele>
        <time>2016-03-29T04:32:29Z</time>
      </trkpt>
      <trkpt lat="44.25774" lon="4.20517">
        <ele>153</ele>
        <time>2016-03-29T04:34:29Z</time>
      </trkpt>
      <trkpt lat="44.25775" lon="4.20519">
        <ele>152</ele>
        <time>2016-03-29T04:36:29Z</time>
      </trkpt>
      <trkpt lat="44.25777" lon="4.20521">
        <ele>152</ele>
        <time>2016-03-29T04:38:29Z</time>
      </trkpt>
      <trkpt lat="44.25778" lon="4.20521">
        <ele>152</ele>
        <time>2016-03-29T04:40:29Z</time>
      </trkpt>
      <trkpt lat="44.25781" lon="4.20521">
        <ele>151</ele>
        <time>2016-03-29T04:42:29Z</time>
      </trkpt>
      <trkpt lat="44.25785" lon="4.20543">
        <ele>150</ele>
        <time>2016-03-29T04:44:29Z</time>
      </trkpt>
      <trkpt lat="44.25796" lon="4.20583">
        <ele>147</ele>
        <time>2016-03-29T04:46:29Z</time>
      </trkpt>
      <trkpt lat="44.25801" lon="4.20609">
        <ele>147</ele>
        <time>2016-03-29T04:48:29Z</time>
      </trkpt>
      <trkpt lat="44.25801" lon="4.20611">
        <ele>147</ele>
        <time>2016-03-29T04:50:29Z</time>
      </trkpt>
      <trkpt lat="44.25801" lon="4.20619">
        <ele>147</ele>
        <time>2016-03-29T04:52:29Z</time>
      </trkpt>
      <trkpt lat="44.25801" lon="4.20632">
        <ele>147</ele>
        <time>2016-03-29T04:54:29Z</time>
      </trkpt>
      <trkpt lat="44.258" lon="4.20648">
        <ele>147</ele>
        <time>2016-03-29T04:56:29Z</time>
      </trkpt>
      <trkpt lat="44.25797" lon="4.20659">
        <ele>148</ele>
        <time>2016-03-29T04:58:29Z</time>
      </trkpt>
      <trkpt lat="44.25792" lon="4.20674">
        <ele>148</ele>
        <time>2016-03-29T05:00:29Z</time>
      </trkpt>
      <trkpt lat="44.25784" lon="4.20695">
        <ele>149</ele>
        <time>2016-03-29T05:02:29Z</time>
      </trkpt>
      <trkpt lat="44.25777" lon="4.20711">
        <ele>149</ele>
        <time>2016-03-29T05:04:29Z</time>
      </trkpt>
      <trkpt lat="44.25766" lon="4.20735">
        <ele>149</ele>
        <time>2016-03-29T05:06:29Z</time>
      </trkpt>
      <trkpt lat="44.25755" lon="4.20757">
        <ele>149</ele>
        <time>2016-03-29T05:08:29Z</time>
      </trkpt>
      <trkpt lat="44.25748" lon="4.20772">
        <ele>148</ele>
        <time>2016-03-29T05:10:29Z</time>
      </trkpt>
      <trkpt lat="44.25742" lon="4.20787">
        <ele>147</ele>
        <time>2016-03-29T05:12:29Z</time>
      </trkpt>
      <trkpt lat="44.2573" lon="4.20815">
        <ele>145</ele>
        <time>2016-03-29T05:14:29Z</time>
      </trkpt>
      <trkpt lat="44.25716" lon="4.20843">
        <ele>144</ele>
        <time>2016-03-29T05:16:29Z</time>
      </trkpt>
      <trkpt lat="44.25696" lon="4.20886">
        <ele>143</ele>
        <time>2016-03-29T05:18:29Z</time>
      </trkpt>
      <trkpt lat="44.25685" lon="4.20913">
        <ele>143</ele>
        <time>2016-03-29T05:20:29Z</time>
      </trkpt>
      <trkpt lat="44.2567" lon="4.20941">
        <ele>142</ele>
        <time>2016-03-29T05:22:29Z</time>
      </trkpt>
      <trkpt lat="44.25659" lon="4.20967">
        <ele>142</ele>
        <time>2016-03-29T05:24:29Z</time>
      </trkpt>
      <trkpt lat="44.25643" lon="4.20995">
        <ele>141</ele>
        <time>2016-03-29T05:26:29Z</time>
      </trkpt>
      <trkpt lat="44.25617" lon="4.21049">
        <ele>141</ele>
        <time>2016-03-29T05:28:29Z</time>
      </trkpt>
      <trkpt lat="44.25603" lon="4.21072">
        <ele>141</ele>
        <time>2016-03-29T05:30:29Z</time>
      </trkpt>
      <trkpt lat="44.25591" lon="4.2109">
        <ele>141</ele>
        <time>2016-03-29T05:32:29Z</time>
      </trkpt>
      <trkpt lat="44.25585" lon="4.21099">
        <ele>141</ele>
        <time>2016-03-29T05:34:29Z</time>
      </trkpt>
      <trkpt lat="44.25575" lon="4.21109">
        <ele>140</ele>
        <time>2016-03-29T05:36:29Z</time>
      </trkpt>
      <trkpt lat="44.25555" lon="4.2113">
        <ele>139</ele>
        <time>2016-03-29T05:38:29Z</time>
      </trkpt>
      <trkpt lat="44.25501" lon="4.21172">
        <ele>136</ele>
        <time>2016-03-29T05:40:29Z</time>
      </trkpt>
      <trkpt lat="44.25486" lon="4.21186">
        <ele>135</ele>
        <time>2016-03-29T05:42:29Z</time>
      </trkpt>
      <trkpt lat="44.25454" lon="4.21212">
        <ele>135</ele>
        <time>2016-03-29T05:44:29Z</time>
      </trkpt>
      <trkpt lat="44.25441" lon="4.21221">
        <ele>135</ele>
        <time>2016-03-29T05:46:29Z</time>
      </trkpt>
      <trkpt lat="44.25413" lon="4.21243">
        <ele>136</ele>
        <time>2016-03-29T05:48:29Z</time>
      </trkpt>
      <trkpt lat="44.25391" lon="4.21259">
        <ele>136</ele>
        <time>2016-03-29T05:50:29Z</time>
      </trkpt>
      <trkpt lat="44.2537" lon="4.21269">
        <ele>136</ele>
        <time>2016-03-29T05:52:29Z</time>
      </trkpt>
      <trkpt lat="44.25339" lon="4.21278">
        <ele>136</ele>
        <time>2016-03-29T05:54:29Z</time>
      </trkpt>
      <trkpt lat="44.25328" lon="4.2128">
        <ele>136</ele>
        <time>2016-03-29T05:56:29Z</time>
      </trkpt>
      <trkpt lat="44.25312" lon="4.21282">
        <ele>136</ele>
        <time>2016-03-29T05:58:29Z</time>
      </trkpt>
      <trkpt lat="44.25282" lon="4.21285">
        <ele>136</ele>
        <time>2016-03-29T06:00:29Z</time>
      </trkpt>
      <trkpt lat="44.25273" lon="4.21287">
        <ele>136</ele>
        <time>2016-03-29T06:02:29Z</time>
      </trkpt>
      <trkpt lat="44.25249" lon="4.21291">
        <ele>136</ele>
        <time>2016-03-29T06:04:29Z</time>
      </trkpt>
      <trkpt lat="44.25236" lon="4.21293">
        <ele>135</ele>
        <time>2016-03-29T06:06:29Z</time>
      </trkpt>
      <trkpt lat="44.25226" lon="4.21295">
        <ele>135</ele>
        <time>2016-03-29T06:08:29Z</time>
      </trkpt>
      <trkpt lat="44.2522" lon="4.21296">
        <ele>135</ele>
        <time>2016-03-29T06:10:29Z</time>
      </trkpt>
      <trkpt lat="44.25159" lon="4.21307">
        <ele>133</ele>
        <time>2016-03-29T06:12:29Z</time>
      </trkpt>
      <trkpt lat="44.25153" lon="4.21308">
        <ele>134</ele>
        <time>2016-03-29T06:14:29Z</time>
      </trkpt>
      <trkpt lat="44.25098" lon="4.21317">
        <ele>138</ele>
        <time>2016-03-29T06:16:29Z</time>
      </trkpt>
      <trkpt lat="44.25083" lon="4.21319">
        <ele>139</ele>
        <time>2016-03-29T06:18:29Z</time>
      </trkpt>
      <trkpt lat="44.25064" lon="4.21321">
        <ele>140</ele>
        <time>2016-03-29T06:20:29Z</time>
      </trkpt>
      <trkpt lat="44.25055" lon="4.2132">
        <ele>140</ele>
        <time>2016-03-29T06:22:29Z</time>
      </trkpt>
      <trkpt lat="44.25047" lon="4.21319">
        <ele>140</ele>
        <time>2016-03-29T06:24:29Z</time>
      </trkpt>
      <trkpt lat="44.2503" lon="4.21315">
        <ele>140</ele>
        <time>2016-03-29T06:26:29Z</time>
      </trkpt>
      <trkpt lat="44.2502" lon="4.21312">
        <ele>140</ele>
        <time>2016-03-29T06:28:29Z</time>
      </trkpt>
      <trkpt lat="44.2501" lon="4.21308">
        <ele>140</ele>
        <time>2016-03-29T06:30:29Z</time>
      </trkpt>
      <trkpt lat="44.24995" lon="4.21302">
        <ele>140</ele>
        <time>2016-03-29T06:32:29Z</time>
      </trkpt>
      <trkpt lat="44.2498" lon="4.21295">
        <ele>139</ele>
        <time>2016-03-29T06:34:29Z</time>
      </trkpt>
      <trkpt lat="44.24962" lon="4.2129">
        <ele>138</ele>
        <time>2016-03-29T06:36:29Z</time>
      </trkpt>
      <trkpt lat="44.24947" lon="4.21289">
        <ele>138</ele>
        <time>2016-03-29T06:38:29Z</time>
      </trkpt>
      <trkpt lat="44.24928" lon="4.21291">
        <ele>137</ele>
        <time>2016-03-29T06:40:29Z</time>
      </trkpt>
      <trkpt lat="44.24912" lon="4.21294">
        <ele>137</ele>
        <time>2016-03-29T06:42:29Z</time>
      </trkpt>
      <trkpt lat="44.24895" lon="4.21302">
        <ele>137</ele>
        <time>2016-03-29T06:44:29Z</time>
      </trkpt>
      <trkpt lat="44.24882" lon="4.21311">
        <ele>136</ele>
        <time>2016-03-29T06:46:29Z</time>
      </trkpt>
      <trkpt lat="44.24871" lon="4.21321">
        <ele>136</ele>
        <time>2016-03-29T06:48:29Z</time>
      </trkpt>
      <trkpt lat="44.24865" lon="4.21328">
        <ele>136</ele>
        <time>2016-03-29T06:50:29Z</time>
      </trkpt>
      <trkpt lat="44.2485" lon="4.21346">
        <ele>137</ele>
        <time>2016-03-29T06:52:29Z</time>
      </trkpt>
      <trkpt lat="44.24835" lon="4.21371">
        <ele>137</ele>
        <time>2016-03-29T06:54:29Z</time>
      </trkpt>
      <trkpt lat="44.24814" lon="4.21408">
        <ele>138</ele>
        <time>2016-03-29T06:56:29Z</time>
      </trkpt>
      <trkpt lat="44.24801" lon="4.21437">
        <ele>137</ele>
        <time>2016-03-29T06:58:29Z</time>
      </trkpt>
      <trkpt lat="44.24783" lon="4.21475">
        <ele>136</ele>
        <time>2016-03-29T07:00:29Z</time>
      </trkpt>
      <trkpt lat="44.24774" lon="4.21491">
        <ele>135</ele>
        <time>2016-03-29T07:02:29Z</time>
      </trkpt>
      <trkpt lat="44.24768" lon="4.21501">
        <ele>135</ele>
        <time>2016-03-29T07:04:29Z</time>
      </trkpt>
      <trkpt lat="44.24758" lon="4.21518">
        <ele>134</ele>
        <time>2016-03-29T07:06:29Z</time>
      </trkpt>
      <trkpt lat="44.24727" lon="4.21566">
        <ele>135</ele>
        <time>2016-03-29T07:08:29Z</time>
      </trkpt>
      <trkpt lat="44.24699" lon="4.21609">
        <ele>134</ele>
        <time>2016-03-29T07:10:29Z</time>
      </trkpt>
      <trkpt lat="44.24677" lon="4.21639">
        <ele>133</ele>
        <time>2016-03-29T07:12:29Z</time>
      </trkpt>
      <trkpt lat="44.24649" lon="4.21679">
        <ele>131</ele>
        <time>2016-03-29T07:14:29Z</time>
      </trkpt>
      <trkpt lat="44.24617" lon="4.21712">
        <ele>132</ele>
        <time>2016-03-29T07:16:29Z</time>
      </trkpt>
      <trkpt lat="44.24562" lon="4.21769">
        <ele>131</ele>
        <time>2016-03-29T07:18:29Z</time>
      </trkpt>
      <trkpt lat="44.24526" lon="4.21808">
        <ele>132</ele>
        <time>2016-03-29T07:20:29Z</time>
      </trkpt>
      <trkpt lat="44.24509" lon="4.21823">
        <ele>133</ele>
        <time>2016-03-29T07:22:29Z</time>
      </trkpt>
      <trkpt lat="44.24472" lon="4.21853">
        <ele>133</ele>
        <time>2016-03-29T07:24:29Z</time>
      </trkpt>
      <trkpt lat="44.24429" lon="4.21886">
        <ele>133</ele>
        <time>2016-03-29T07:26:29Z</time>
      </trkpt>
      <trkpt lat="44.24415" lon="4.21895">
        <ele>133</ele>
        <time>2016-03-29T07:28:29Z</time>
      </trkpt>
      <trkpt lat="44.24394" lon="4.21907">
        <ele>133</ele>
        <time>2016-03-29T07:30:29Z</time>
      </trkpt>
      <trkpt lat="44.24364" lon="4.21929">
        <ele>133</ele>
        <time>2016-03-29T07:32:29Z</time>
      </trkpt>
      <trkpt lat="44.24349" lon="4.2194">
        <ele>133</ele>
        <time>2016-03-29T07:34:29Z</time>
      </trkpt>
      <trkpt lat="44.24334" lon="4.21951">
        <ele>133</ele>
        <time>2016-03-29T07:36:29Z</time>
      </trkpt>
      <trkpt lat="44.24273" lon="4.21999">
        <ele>134</ele>
        <time>2016-03-29T07:38:29Z</time>
      </trkpt>
      <trkpt lat="44.24234" lon="4.22029">
        <ele>133</ele>
        <time>2016-03-29T07:40:29Z</time>
      </trkpt>
      <trkpt lat="44.24207" lon="4.22049">
        <ele>131</ele>
        <time>2016-03-29T07:42:29Z</time>
      </trkpt>
      <trkpt lat="44.24186" lon="4.22068">
        <ele>130</ele>
        <time>2016-03-29T07:44:29Z</time>
      </trkpt>
      <trkpt lat="44.24162" lon="4.22095">
        <ele>129</ele>
        <time>2016-03-29T07:46:29Z</time>
      </trkpt>
      <trkpt lat="44.24142" lon="4.22121">
        <ele>128</ele>
        <time>2016-03-29T07:48:29Z</time>
      </trkpt>
      <trkpt lat="44.24125" lon="4.22145">
        <ele>127</ele>
        <time>2016-03-29T07:50:29Z</time>
      </trkpt>
      <trkpt lat="44.24123" lon="4.22148">
        <ele>127</ele>
        <time>2016-03-29T07:52:29Z</time>
      </trkpt>
      <trkpt lat="44.24115" lon="4.22161">
        <ele>127</ele>
        <time>2016-03-29T07:54:29Z</time>
      </trkpt>
      <trkpt lat="44.24108" lon="4.22173">
        <ele>127</ele>
        <time>2016-03-29T07:56:29Z</time>
      </trkpt>
      <trkpt lat="44.241" lon="4.22191">
        <ele>126</ele>
        <time>2016-03-29T07:58:29Z</time>
      </trkpt>
      <trkpt lat="44.24094" lon="4.22206">
        <ele>126</ele>
        <time>2016-03-29T08:00:29Z</time>
      </trkpt>
      <trkpt lat="44.2409" lon="4.22222">
        <ele>126</ele>
        <time>2016-03-29T08:02:29Z</time>
      </trkpt>
      <trkpt lat="44.24086" lon="4.22239">
        <ele>125</ele>
        <time>2016-03-29T08:04:29Z</time>
      </trkpt>
      <trkpt lat="44.24083" lon="4.22256">
        <ele>125</ele>
        <time>2016-03-29T08:06:29Z</time>
      </trkpt>
      <trkpt lat="44.2408" lon="4.22285">
        <ele>127</ele>
        <time>2016-03-29T08:08:29Z</time>
      </trkpt>
      <trkpt lat="44.24074" lon="4.22336">
        <ele>130</ele>
        <time>2016-03-29T08:10:29Z</time>
      </trkpt>
      <trkpt lat="44.24072" lon="4.22358">
        <ele>129</ele>
        <time>2016-03-29T08:12:29Z</time>
      </trkpt>
      <trkpt lat="44.24067" lon="4.224">
        <ele>127</ele>
        <time>2016-03-29T08:14:29Z</time>
      </trkpt>
      <trkpt lat="44.24061" lon="4.22455">
        <ele>126</ele>
        <time>2016-03-29T08:16:29Z</time>
      </trkpt>
      <trkpt lat="44.24054" lon="4.22504">
        <ele>125</ele>
        <time>2016-03-29T08:18:29Z</time>
      </trkpt>
      <trkpt lat="44.24044" lon="4.22552">
        <ele>127</ele>
        <time>2016-03-29T08:20:29Z</time>
      </trkpt>
      <trkpt lat="44.24043" lon="4.22558">
        <ele>127</ele>
        <time>2016-03-29T08:22:29Z</time>
      </trkpt>
      <trkpt lat="44.24032" lon="4.22611">
        <ele>128</ele>
        <time>2016-03-29T08:24:29Z</time>
      </trkpt>
      <trkpt lat="44.24031" lon="4.22615">
        <ele>128</ele>
        <time>2016-03-29T08:26:29Z</time>
      </trkpt>
      <trkpt lat="44.24029" lon="4.22629">
        <ele>128</ele>
        <time>2016-03-29T08:28:29Z</time>
      </trkpt>
      <trkpt lat="44.24028" lon="4.22631">
        <ele>128</ele>
        <time>2016-03-29T08:30:29Z</time>
      </trkpt>
      <trkpt lat="44.24027" lon="4.2264">
        <ele>128</ele>
        <time>2016-03-29T08:32:29Z</time>
      </trkpt>
      <trkpt lat="44.24022" lon="4.22666">
        <ele>128</ele>
        <time>2016-03-29T08:34:29Z</time>
      </trkpt>
      <trkpt lat="44.24016" lon="4.22692">
        <ele>128</ele>
        <time>2016-03-29T08:36:29Z</time>
      </trkpt>
      <trkpt lat="44.24011" lon="4.22709">
        <ele>128</ele>
        <time>2016-03-29T08:38:29Z</time>
      </trkpt>
      <trkpt lat="44.24005" lon="4.22727">
        <ele>127</ele>
        <time>2016-03-29T08:40:29Z</time>
      </trkpt>
      <trkpt lat="44.23994" lon="4.22756">
        <ele>127</ele>
        <time>2016-03-29T08:42:29Z</time>
      </trkpt>
      <trkpt lat="44.23973" lon="4.22806">
        <ele>128</ele>
        <time>2016-03-29T08:44:29Z</time>
      </trkpt>
      <trkpt lat="44.23952" lon="4.22857">
        <ele>128</ele>
        <time>2016-03-29T08:46:29Z</time>
      </trkpt>
      <trkpt lat="44.23923" lon="4.22926">
        <ele>129</ele>
        <time>2016-03-29T08:48:29Z</time>
      </trkpt>
      <trkpt lat="44.23903" lon="4.22976">
        <ele>130</ele>
        <time>2016-03-29T08:50:29Z</time>
      </trkpt>
      <trkpt lat="44.23895" lon="4.22994">
        <ele>131</ele>
        <time>2016-03-29T08:52:29Z</time>
      </trkpt>
      <trkpt lat="44.23887" lon="4.23009">
        <ele>131</ele>
        <time>2016-03-29T08:54:29Z</time>
      </trkpt>
      <trkpt lat="44.2388" lon="4.23019">
        <ele>131</ele>
        <time>2016-03-29T08:56:29Z</time>
      </trkpt>
      <trkpt lat="44.23872" lon="4.23029">
        <ele>130</ele>
        <time>2016-03-29T08:58:29Z</time>
      </trkpt>
      <trkpt lat="44.23861" lon="4.23041">
        <ele>130</ele>
        <time>2016-03-29T09:00:29Z</time>
      </trkpt>
      <trkpt lat="44.2385" lon="4.23052">
        <ele>130</ele>
        <time>2016-03-29T09:02:29Z</time>
      </trkpt>
      <trkpt lat="44.23836" lon="4.23067">
        <ele>129</ele>
        <time>2016-03-29T09:04:29Z</time>
      </trkpt>
      <trkpt lat="44.23827" lon="4.23077">
        <ele>129</ele>
        <time>2016-03-29T09:06:29Z</time>
      </trkpt>
      <trkpt lat="44.23819" lon="4.23089">
        <ele>129</ele>
        <time>2016-03-29T09:08:29Z</time>
      </trkpt>
      <trkpt lat="44.23813" lon="4.23099">
        <ele>129</ele>
        <time>2016-03-29T09:10:29Z</time>
      </trkpt>
      <trkpt lat="44.23808" lon="4.23109">
        <ele>129</ele>
        <time>2016-03-29T09:12:29Z</time>
      </trkpt>
      <trkpt lat="44.23807" lon="4.23113">
        <ele>129</ele>
        <time>2016-03-29T09:14:29Z</time>
      </trkpt>
      <trkpt lat="44.23803" lon="4.23128">
        <ele>128</ele>
        <time>2016-03-29T09:16:29Z</time>
      </trkpt>
      <trkpt lat="44.238" lon="4.23141">
        <ele>128</ele>
        <time>2016-03-29T09:18:29Z</time>
      </trkpt>
      <trkpt lat="44.23799" lon="4.23156">
        <ele>129</ele>
        <time>2016-03-29T09:20:29Z</time>
      </trkpt>
      <trkpt lat="44.238" lon="4.23174">
        <ele>129</ele>
        <time>2016-03-29T09:22:29Z</time>
      </trkpt>
      <trkpt lat="44.238" lon="4.23188">
        <ele>128</ele>
        <time>2016-03-29T09:24:29Z</time>
      </trkpt>
      <trkpt lat="44.238" lon="4.23199">
        <ele>128</ele>
        <time>2016-03-29T09:26:29Z</time>
      </trkpt>
      <trkpt lat="44.23801" lon="4.23212">
        <ele>128</ele>
        <time>2016-03-29T09:28:29Z</time>
      </trkpt>
      <trkpt lat="44.238" lon="4.23228">
        <ele>127</ele>
        <time>2016-03-29T09:30:29Z</time>
      </trkpt>
      <trkpt lat="44.238" lon="4.23235">
        <ele>127</ele>
        <time>2016-03-29T09:32:29Z</time>
      </trkpt>
      <trkpt lat="44.23799" lon="4.23241">
        <ele>127</ele>
        <time>2016-03-29T09:34:29Z</time>
      </trkpt>
      <trkpt lat="44.23794" lon="4.2326">
        <ele>126</ele>
        <time>2016-03-29T09:36:29Z</time>
      </trkpt>
      <trkpt lat="44.23788" lon="4.23279">
        <ele>126</ele>
        <time>2016-03-29T09:38:29Z</time>
      </trkpt>
      <trkpt lat="44.23775" lon="4.23311">
        <ele>125</ele>
        <time>2016-03-29T09:40:29Z</time>
      </trkpt>
      <trkpt lat="44.2377" lon="4.23324">
        <ele>125</ele>
        <time>2016-03-29T09:42:29Z</time>
      </trkpt>
      <trkpt lat="44.23756" lon="4.23357">
        <ele>125</ele>
        <time>2016-03-29T09:44:29Z</time>
      </trkpt>
      <trkpt lat="44.23751" lon="4.23368">
        <ele>125</ele>
        <time>2016-03-29T09:46:29Z</time>
      </trkpt>
      <trkpt lat="44.23747" lon="4.2338">
        <ele>125</ele>
        <time>2016-03-29T09:48:29Z</time>
      </trkpt>
      <trkpt lat="44.23744" lon="4.23391">
        <ele>125</ele>
        <time>2016-03-29T09:50:29Z</time>
      </trkpt>
      <trkpt lat="44.23742" lon="4.23403">
        <ele>125</ele>
        <time>2016-03-29T09:52:29Z</time>
      </trkpt>
      <trkpt lat="44.23741" lon="4.23415">
        <ele>126</ele>
        <time>2016-03-29T09:54:29Z</time>
      </trkpt>
      <trkpt lat="44.23741" lon="4.23421">
        <ele>126</ele>
        <time>2016-03-29T09:56:29Z</time>
      </trkpt>
      <trkpt lat="44.23741" lon="4.23427">
        <ele>126</ele>
        <time>2016-03-29T09:58:29Z</time>
      </trkpt>
      <trkpt lat="44.23741" lon="4.2344">
        <ele>126</ele>
        <time>2016-03-29T10:00:29Z</time>
      </trkpt>
      <trkpt lat="44.23743" lon="4.23452">
        <ele>126</ele>
        <time>2016-03-29T10:02:29Z</time>
      </trkpt>
      <trkpt lat="44.23747" lon="4.23474">
        <ele>126</ele>
        <time>2016-03-29T10:04:29Z</time>
      </trkpt>
      <trkpt lat="44.23759" lon="4.2353">
        <ele>126</ele>
        <time>2016-03-29T10:06:29Z</time>
      </trkpt>
      <trkpt lat="44.23765" lon="4.23557">
        <ele>127</ele>
        <time>2016-03-29T10:08:29Z</time>
      </trkpt>
      <trkpt lat="44.23771" lon="4.23584">
        <ele>127</ele>
        <time>2016-03-29T10:10:29Z</time>
      </trkpt>
      <trkpt lat="44.23774" lon="4.23605">
        <ele>127</ele>
        <time>2016-03-29T10:12:29Z</time>
      </trkpt>
      <trkpt lat="44.23774" lon="4.23615">
        <ele>126</ele>
        <time>2016-03-29T10:14:29Z</time>
      </trkpt>
      <trkpt lat="44.23774" lon="4.23625">
        <ele>126</ele>
        <time>2016-03-29T10:16:29Z</time>
      </trkpt>
      <trkpt lat="44.23773" lon="4.23637">
        <ele>126</ele>
        <time>2016-03-29T10:18:29Z</time>
      </trkpt>
      <trkpt lat="44.23771" lon="4.2365">
        <ele>126</ele>
        <time>2016-03-29T10:20:29Z</time>
      </trkpt>
      <trkpt lat="44.23767" lon="4.23662">
        <ele>125</ele>
        <time>2016-03-29T10:22:29Z</time>
      </trkpt>
      <trkpt lat="44.23763" lon="4.23674">
        <ele>125</ele>
        <time>2016-03-29T10:24:29Z</time>
      </trkpt>
      <trkpt lat="44.23755" lon="4.23694">
        <ele>125</ele>
        <time>2016-03-29T10:26:29Z</time>
      </trkpt>
      <trkpt lat="44.23752" lon="4.23703">
        <ele>126</ele>
        <time>2016-03-29T10:28:29Z</time>
      </trkpt>
      <trkpt lat="44.2375" lon="4.23712">
        <ele>126</ele>
        <time>2016-03-29T10:30:29Z</time>
      </trkpt>
      <trkpt lat="44.23748" lon="4.23726">
        <ele>126</ele>
        <time>2016-03-29T10:32:29Z</time>
      </trkpt>
      <trkpt lat="44.23746" lon="4.2374">
        <ele>126</ele>
        <time>2016-03-29T10:34:29Z</time>
      </trkpt>
      <trkpt lat="44.23746" lon="4.23755">
        <ele>126</ele>
        <time>2016-03-29T10:36:29Z</time>
      </trkpt>
      <trkpt lat="44.23745" lon="4.23784">
        <ele>127</ele>
        <time>2016-03-29T10:38:29Z</time>
      </trkpt>
      <trkpt lat="44.23745" lon="4.23815">
        <ele>127</ele>
        <time>2016-03-29T10:40:29Z</time>
      </trkpt>
      <trkpt lat="44.23744" lon="4.23846">
        <ele>128</ele>
        <time>2016-03-29T10:42:29Z</time>
      </trkpt>
      <trkpt lat="44.23744" lon="4.23862">
        <ele>128</ele>
        <time>2016-03-29T10:44:29Z</time>
      </trkpt>
      <trkpt lat="44.23744" lon="4.23877">
        <ele>129</ele>
        <time>2016-03-29T10:46:29Z</time>
      </trkpt>
      <trkpt lat="44.23743" lon="4.23908">
        <ele>130</ele>
        <time>2016-03-29T10:48:29Z</time>
      </trkpt>
      <trkpt lat="44.23743" lon="4.23922">
        <ele>130</ele>
        <time>2016-03-29T10:50:29Z</time>
      </trkpt>
      <trkpt lat="44.23743" lon="4.23937">
        <ele>129</ele>
        <time>2016-03-29T10:52:29Z</time>
      </trkpt>
      <trkpt lat="44.23744" lon="4.23951">
        <ele>129</ele>
        <time>2016-03-29T10:54:29Z</time>
      </trkpt>
      <trkpt lat="44.23746" lon="4.23965">
        <ele>129</ele>
        <time>2016-03-29T10:56:29Z</time>
      </trkpt>
      <trkpt lat="44.23749" lon="4.23978">
        <ele>128</ele>
        <time>2016-03-29T10:58:29Z</time>
      </trkpt>
      <trkpt lat="44.23755" lon="4.24005">
        <ele>128</ele>
        <time>2016-03-29T11:00:29Z</time>
      </trkpt>
      <trkpt lat="44.23762" lon="4.24032">
        <ele>129</ele>
        <time>2016-03-29T11:02:29Z</time>
      </trkpt>
      <trkpt lat="44.2377" lon="4.24058">
        <ele>130</ele>
        <time>2016-03-29T11:04:29Z</time>
      </trkpt>
      <trkpt lat="44.23776" lon="4.24086">
        <ele>130</ele>
        <time>2016-03-29T11:06:29Z</time>
      </trkpt>
      <trkpt lat="44.23779" lon="4.24099">
        <ele>130</ele>
        <time>2016-03-29T11:08:29Z</time>
      </trkpt>
      <trkpt lat="44.23782" lon="4.24113">
        <ele>130</ele>
        <time>2016-03-29T11:10:29Z</time>
      </trkpt>
      <trkpt lat="44.23784" lon="4.24126">
        <ele>130</ele>
        <time>2016-03-29T11:12:29Z</time>
      </trkpt>
      <trkpt lat="44.23786" lon="4.24139">
        <ele>130</ele>
        <time>2016-03-29T11:14:29Z</time>
      </trkpt>
      <trkpt lat="44.23787" lon="4.24152">
        <ele>130</ele>
        <time>2016-03-29T11:16:29Z</time>
      </trkpt>
      <trkpt lat="44.23788" lon="4.24164">
        <ele>130</ele>
        <time>2016-03-29T11:18:29Z</time>
      </trkpt>
      <trkpt lat="44.23787" lon="4.24177">
        <ele>130</ele>
        <time>2016-03-29T11:20:29Z</time>
      </trkpt>
      <trkpt lat="44.23786" lon="4.2419">
        <ele>130</ele>
        <time>2016-03-29T11:22:29Z</time>
      </trkpt>
      <trkpt lat="44.23784" lon="4.24202">
        <ele>131</ele>
        <time>2016-03-29T11:24:29Z</time>
      </trkpt>
      <trkpt lat="44.23781" lon="4.24213">
        <ele>131</ele>
        <time>2016-03-29T11:26:29Z</time>
      </trkpt>
      <trkpt lat="44.23778" lon="4.24224">
        <ele>131</ele>
        <time>2016-03-29T11:28:29Z</time>
      </trkpt>
      <trkpt lat="44.23775" lon="4.2423">
        <ele>131</ele>
        <time>2016-03-29T11:30:29Z</time>
      </trkpt>
      <trkpt lat="44.23768" lon="4.24242">
        <ele>132</ele>
        <time>2016-03-29T11:32:29Z</time>
      </trkpt>
      <trkpt lat="44.23762" lon="4.24251">
        <ele>132</ele>
        <time>2016-03-29T11:34:29Z</time>
      </trkpt>
      <trkpt lat="44.23749" lon="4.24267">
        <ele>132</ele>
        <time>2016-03-29T11:36:29Z</time>
      </trkpt>
      <trkpt lat="44.23735" lon="4.24281">
        <ele>131</ele>
        <time>2016-03-29T11:38:29Z</time>
      </trkpt>
      <trkpt lat="44.23721" lon="4.24297">
        <ele>131</ele>
        <time>2016-03-29T11:40:29Z</time>
      </trkpt>
      <trkpt lat="44.23707" lon="4.24312">
        <ele>130</ele>
        <time>2016-03-29T11:42:29Z</time>
      </trkpt>
      <trkpt lat="44.23686" lon="4.24336">
        <ele>129</ele>
        <time>2016-03-29T11:44:29Z</time>
      </trkpt>
      <trkpt lat="44.23665" lon="4.24359">
        <ele>129</ele>
        <time>2016-03-29T11:46:29Z</time>
      </trkpt>
      <trkpt lat="44.23652" lon="4.24373">
        <ele>129</ele>
        <time>2016-03-29T11:48:29Z</time>
      </trkpt>
      <trkpt lat="44.2365" lon="4.24376">
        <ele>129</ele>
        <time>2016-03-29T11:50:29Z</time>
      </trkpt>
      <trkpt lat="44.23625" lon="4.24403">
        <ele>129</ele>
        <time>2016-03-29T11:52:29Z</time>
      </trkpt>
      <trkpt lat="44.23605" lon="4.24425">
        <ele>129</ele>
        <time>2016-03-29T11:54:29Z</time>
      </trkpt>
      <trkpt lat="44.23586" lon="4.24446">
        <ele>129</ele>
        <time>2016-03-29T11:56:29Z</time>
      </trkpt>
      <trkpt lat="44.23574" lon="4.24458">
        <ele>129</ele>
        <time>2016-03-29T11:58:29Z</time>
      </trkpt>
      <trkpt lat="44.23573" lon="4.2446">
        <ele>129</ele>
        <time>2016-03-29T12:00:29Z</time>
      </trkpt>
      <trkpt lat="44.23566" lon="4.24468">
        <ele>129</ele>
        <time>2016-03-29T12:02:29Z</time>
      </trkpt>
      <trkpt lat="44.23542" lon="4.24492">
        <ele>129</ele>
        <time>2016-03-29T12:04:29Z</time>
      </trkpt>
      <trkpt lat="44.23524" lon="4.24512">
        <ele>128</ele>
        <time>2016-03-29T12:06:29Z</time>
      </trkpt>
      <trkpt lat="44.23505" lon="4.24533">
        <ele>128</ele>
        <time>2016-03-29T12:08:29Z</time>
      </trkpt>
      <trkpt lat="44.23487" lon="4.24553">
        <ele>127</ele>
        <time>2016-03-29T12:10:29Z</time>
      </trkpt>
      <trkpt lat="44.23477" lon="4.24567">
        <ele>127</ele>
        <time>2016-03-29T12:12:29Z</time>
      </trkpt>
      <trkpt lat="44.23468" lon="4.24582">
        <ele>126</ele>
        <time>2016-03-29T12:14:29Z</time>
      </trkpt>
      <trkpt lat="44.23463" lon="4.2459">
        <ele>126</ele>
        <time>2016-03-29T12:16:29Z</time>
      </trkpt>
      <trkpt lat="44.23459" lon="4.24597">
        <ele>126</ele>
        <time>2016-03-29T12:18:29Z</time>
      </trkpt>
      <trkpt lat="44.23453" lon="4.24613">
        <ele>126</ele>
        <time>2016-03-29T12:20:29Z</time>
      </trkpt>
      <trkpt lat="44.23443" lon="4.24638">
        <ele>125</ele>
        <time>2016-03-29T12:22:29Z</time>
      </trkpt>
      <trkpt lat="44.2343" lon="4.24672">
        <ele>125</ele>
        <time>2016-03-29T12:24:29Z</time>
      </trkpt>
      <trkpt lat="44.2341" lon="4.24724">
        <ele>126</ele>
        <time>2016-03-29T12:26:29Z</time>
      </trkpt>
      <trkpt lat="44.23404" lon="4.2474">
        <ele>126</ele>
        <time>2016-03-29T12:28:29Z</time>
      </trkpt>
      <trkpt lat="44.23401" lon="4.24749">
        <ele>126</ele>
        <time>2016-03-29T12:30:29Z</time>
      </trkpt>
      <trkpt lat="44.23398" lon="4.24759">
        <ele>126</ele>
        <time>2016-03-29T12:32:29Z</time>
      </trkpt>
      <trkpt lat="44.23395" lon="4.24777">
        <ele>126</ele>
        <time>2016-03-29T12:34:29Z</time>
      </trkpt>
      <trkpt lat="44.23393" lon="4.24786">
        <ele>126</ele>
        <time>2016-03-29T12:36:29Z</time>
      </trkpt>
      <trkpt lat="44.23391" lon="4.24805">
        <ele>126</ele>
        <time>2016-03-29T12:38:29Z</time>
      </trkpt>
      <trkpt lat="44.2339" lon="4.24824">
        <ele>126</ele>
        <time>2016-03-29T12:40:29Z</time>
      </trkpt>
      <trkpt lat="44.2339" lon="4.24833">
        <ele>126</ele>
        <time>2016-03-29T12:42:29Z</time>
      </trkpt>
      <trkpt lat="44.2339" lon="4.24842">
        <ele>125</ele>
        <time>2016-03-29T12:44:29Z</time>
      </trkpt>
      <trkpt lat="44.23391" lon="4.2486">
        <ele>125</ele>
        <time>2016-03-29T12:46:29Z</time>
      </trkpt>
      <trkpt lat="44.23392" lon="4.24869">
        <ele>125</ele>
        <time>2016-03-29T12:48:29Z</time>
      </trkpt>
      <trkpt lat="44.23393" lon="4.24878">
        <ele>124</ele>
        <time>2016-03-29T12:50:29Z</time>
      </trkpt>
      <trkpt lat="44.23397" lon="4.24895">
        <ele>124</ele>
        <time>2016-03-29T12:52:29Z</time>
      </trkpt>
      <trkpt lat="44.234" lon="4.24912">
        <ele>123</ele>
        <time>2016-03-29T12:54:29Z</time>
      </trkpt>
      <trkpt lat="44.23405" lon="4.24934">
        <ele>123</ele>
        <time>2016-03-29T12:56:29Z</time>
      </trkpt>
      <trkpt lat="44.23411" lon="4.24957">
        <ele>123</ele>
        <time>2016-03-29T12:58:29Z</time>
      </trkpt>
      <trkpt lat="44.23416" lon="4.24978">
        <ele>124</ele>
        <time>2016-03-29T13:00:29Z</time>
      </trkpt>
      <trkpt lat="44.23421" lon="4.24998">
        <ele>124</ele>
        <time>2016-03-29T13:02:29Z</time>
      </trkpt>
      <trkpt lat="44.23425" lon="4.25015">
        <ele>124</ele>
        <time>2016-03-29T13:04:29Z</time>
      </trkpt>
      <trkpt lat="44.23428" lon="4.25031">
        <ele>125</ele>
        <time>2016-03-29T13:06:29Z</time>
      </trkpt>
      <trkpt lat="44.23432" lon="4.2505">
        <ele>125</ele>
        <time>2016-03-29T13:08:29Z</time>
      </trkpt>
      <trkpt lat="44.23435" lon="4.25068">
        <ele>125</ele>
        <time>2016-03-29T13:10:29Z</time>
      </trkpt>
      <trkpt lat="44.23438" lon="4.25096">
        <ele>125</ele>
        <time>2016-03-29T13:12:29Z</time>
      </trkpt>
      <trkpt lat="44.23439" lon="4.25124">
        <ele>125</ele>
        <time>2016-03-29T13:14:29Z</time>
      </trkpt>
      <trkpt lat="44.23439" lon="4.25171">
        <ele>126</ele>
        <time>2016-03-29T13:16:29Z</time>
      </trkpt>
      <trkpt lat="44.2344" lon="4.25194">
        <ele>126</ele>
        <time>2016-03-29T13:18:29Z</time>
      </trkpt>
      <trkpt lat="44.23441" lon="4.25246">
        <ele>126</ele>
        <time>2016-03-29T13:20:29Z</time>
      </trkpt>
      <trkpt lat="44.23443" lon="4.2531">
        <ele>124</ele>
        <time>2016-03-29T13:22:29Z</time>
      </trkpt>
      <trkpt lat="44.23444" lon="4.2536">
        <ele>122</ele>
        <time>2016-03-29T13:24:29Z</time>
      </trkpt>
      <trkpt lat="44.23445" lon="4.25397">
        <ele>121</ele>
        <time>2016-03-29T13:26:29Z</time>
      </trkpt>
      <trkpt lat="44.23446" lon="4.2543">
        <ele>121</ele>
        <time>2016-03-29T13:28:29Z</time>
      </trkpt>
      <trkpt lat="44.23446" lon="4.25442">
        <ele>122</ele>
        <time>2016-03-29T13:30:29Z</time>
      </trkpt>
      <trkpt lat="44.23446" lon="4.2545">
        <ele>122</ele>
        <time>2016-03-29T13:32:29Z</time>
      </trkpt>
      <trkpt lat="44.23446" lon="4.25468">
        <ele>122</ele>
        <time>2016-03-29T13:34:29Z</time>
      </trkpt>
      <trkpt lat="44.23444" lon="4.25493">
        <ele>123</ele>
        <time>2016-03-29T13:36:29Z</time>
      </trkpt>
      <trkpt lat="44.23441" lon="4.25513">
        <ele>122</ele>
        <time>2016-03-29T13:38:29Z</time>
      </trkpt>
      <trkpt lat="44.23438" lon="4.25532">
        <ele>122</ele>
        <time>2016-03-29T13:40:29Z</time>
      </trkpt>
      <trkpt lat="44.23433" lon="4.2556">
        <ele>122</ele>
        <time>2016-03-29T13:42:29Z</time>
      </trkpt>
      <trkpt lat="44.23428" lon="4.25586">
        <ele>121</ele>
        <time>2016-03-29T13:44:29Z</time>
      </trkpt>
      <trkpt lat="44.23422" lon="4.25613">
        <ele>121</ele>
        <time>2016-03-29T13:46:29Z</time>
      </trkpt>
      <trkpt lat="44.23417" lon="4.25639">
        <ele>122</ele>
        <time>2016-03-29T13:48:29Z</time>
      </trkpt>
      <trkpt lat="44.23412" lon="4.25667">
        <ele>122</ele>
        <time>2016-03-29T13:50:29Z</time>
      </trkpt>
      <trkpt lat="44.23411" lon="4.2568">
        <ele>122</ele>
        <time>2016-03-29T13:52:29Z</time>
      </trkpt>
      <trkpt lat="44.23411" lon="4.25694">
        <ele>122</ele>
        <time>2016-03-29T13:54:29Z</time>
      </trkpt>
      <trkpt lat="44.23412" lon="4.2571">
        <ele>122</ele>
        <time>2016-03-29T13:56:29Z</time>
      </trkpt>
      <trkpt lat="44.23415" lon="4.25725">
        <ele>122</ele>
        <time>2016-03-29T13:58:29Z</time>
      </trkpt>
      <trkpt lat="44.23417" lon="4.25733">
        <ele>122</ele>
        <time>2016-03-29T14:00:29Z</time>
      </trkpt>
      <trkpt lat="44.23419" lon="4.2574">
        <ele>122</ele>
        <time>2016-03-29T14:02:29Z</time>
      </trkpt>
      <trkpt lat="44.23428" lon="4.2577">
        <ele>121</ele>
        <time>2016-03-29T14:04:29Z</time>
      </trkpt>
      <trkpt lat="44.23444" lon="4.25813">
        <ele>119</ele>
        <time>2016-03-29T14:06:29Z</time>
      </trkpt>
      <trkpt lat="44.23462" lon="4.25866">
        <ele>119</ele>
        <time>2016-03-29T14:08:29Z</time>
      </trkpt>
      <trkpt lat="44.23472" lon="4.25895">
        <ele>119</ele>
        <time>2016-03-29T14:10:29Z</time>
      </trkpt>
      <trkpt lat="44.23495" lon="4.25961">
        <ele>119</ele>
        <time>2016-03-29T14:12:29Z</time>
      </trkpt>
      <trkpt lat="44.23505" lon="4.25989">
        <ele>118</ele>
        <time>2016-03-29T14:14:29Z</time>
      </trkpt>
      <trkpt lat="44.23511" lon="4.26009">
        <ele>118</ele>
        <time>2016-03-29T14:16:29Z</time>
      </trkpt>
      <trkpt lat="44.23519" lon="4.26039">
        <ele>118</ele>
        <time>2016-03-29T14:18:29Z</time>
      </trkpt>
      <trkpt lat="44.23527" lon="4.26078">
        <ele>117</ele>
        <time>2016-03-29T14:20:29Z</time>
      </trkpt>
      <trkpt lat="44.23534" lon="4.2611">
        <ele>117</ele>
        <time>2016-03-29T14:22:29Z</time>
      </trkpt>
      <trkpt lat="44.23537" lon="4.26127">
        <ele>117</ele>
        <time>2016-03-29T14:24:29Z</time>
      </trkpt>
      <trkpt lat="44.23543" lon="4.26157">
        <ele>117</ele>
        <time>2016-03-29T14:26:29Z</time>
      </trkpt>
      <trkpt lat="44.23552" lon="4.26206">
        <ele>117</ele>
        <time>2016-03-29T14:28:29Z</time>
      </trkpt>
      <trkpt lat="44.2356" lon="4.26244">
        <ele>117</ele>
        <time>2016-03-29T14:30:29Z</time>
      </trkpt>
      <trkpt lat="44.23564" lon="4.26271">
        <ele>118</ele>
        <time>2016-03-29T14:32:29Z</time>
      </trkpt>
      <trkpt lat="44.23569" lon="4.26299">
        <ele>118</ele>
        <time>2016-03-29T14:34:29Z</time>
      </trkpt>
      <trkpt lat="44.23573" lon="4.26326">
        <ele>118</ele>
        <time>2016-03-29T14:36:29Z</time>
      </trkpt>
      <trkpt lat="44.23575" lon="4.26344">
        <ele>119</ele>
        <time>2016-03-29T14:38:29Z</time>
      </trkpt>
      <trkpt lat="44.23577" lon="4.26361">
        <ele>119</ele>
        <time>2016-03-29T14:40:29Z</time>
      </trkpt>
      <trkpt lat="44.23579" lon="4.26378">
        <ele>119</ele>
        <time>2016-03-29T14:42:29Z</time>
      </trkpt>
      <trkpt lat="44.23581" lon="4.26395">
        <ele>119</ele>
        <time>2016-03-29T14:44:29Z</time>
      </trkpt>
      <trkpt lat="44.23584" lon="4.26412">
        <ele>119</ele>
        <time>2016-03-29T14:46:29Z</time>
      </trkpt>
      <trkpt lat="44.23587" lon="4.26428">
        <ele>119</ele>
        <time>2016-03-29T14:48:29Z</time>
      </trkpt>
      <trkpt lat="44.23594" lon="4.2645">
        <ele>118</ele>
        <time>2016-03-29T14:50:29Z</time>
      </trkpt>
      <trkpt lat="44.23596" lon="4.26457">
        <ele>118</ele>
        <time>2016-03-29T14:52:29Z</time>
      </trkpt>
      <trkpt lat="44.23602" lon="4.2647">
        <ele>118</ele>
        <time>2016-03-29T14:54:29Z</time>
      </trkpt>
      <trkpt lat="44.23603" lon="4.26473">
        <ele>118</ele>
        <time>2016-03-29T14:56:29Z</time>
      </trkpt>
      <trkpt lat="44.23606" lon="4.26478">
        <ele>118</ele>
        <time>2016-03-29T14:58:29Z</time>
      </trkpt>
      <trkpt lat="44.23609" lon="4.26484">
        <ele>118</ele>
        <time>2016-03-29T15:00:29Z</time>
      </trkpt>
      <trkpt lat="44.23616" lon="4.26496">
        <ele>117</ele>
        <time>2016-03-29T15:02:29Z</time>
      </trkpt>
      <trkpt lat="44.23623" lon="4.26507">
        <ele>117</ele>
        <time>2016-03-29T15:04:29Z</time>
      </trkpt>
      <trkpt lat="44.23627" lon="4.26513">
        <ele>118</ele>
        <time>2016-03-29T15:06:29Z</time>
      </trkpt>
      <trkpt lat="44.23632" lon="4.2652">
        <ele>118</ele>
        <time>2016-03-29T15:08:29Z</time>
      </trkpt>
      <trkpt lat="44.23642" lon="4.26536">
        <ele>118</ele>
        <time>2016-03-29T15:10:29Z</time>
      </trkpt>
      <trkpt lat="44.23652" lon="4.26553">
        <ele>117</ele>
        <time>2016-03-29T15:12:29Z</time>
      </trkpt>
      <trkpt lat="44.23659" lon="4.26567">
        <ele>117</ele>
        <time>2016-03-29T15:14:29Z</time>
      </trkpt>
      <trkpt lat="44.23666" lon="4.26581">
        <ele>117</ele>
        <time>2016-03-29T15:16:29Z</time>
      </trkpt>
      <trkpt lat="44.23672" lon="4.26597">
        <ele>117</ele>
        <time>2016-03-29T15:18:29Z</time>
      </trkpt>
      <trkpt lat="44.23675" lon="4.26604">
        <ele>117</ele>
        <time>2016-03-29T15:20:29Z</time>
      </trkpt>
      <trkpt lat="44.2368" lon="4.26621">
        <ele>118</ele>
        <time>2016-03-29T15:22:29Z</time>
      </trkpt>
      <trkpt lat="44.23704" lon="4.267">
        <ele>118</ele>
        <time>2016-03-29T15:24:29Z</time>
      </trkpt>
      <trkpt lat="44.2374" lon="4.26818">
        <ele>118</ele>
        <time>2016-03-29T15:26:29Z</time>
      </trkpt>
      <trkpt lat="44.23754" lon="4.26866">
        <ele>118</ele>
        <time>2016-03-29T15:28:29Z</time>
      </trkpt>
      <trkpt lat="44.23754" lon="4.26866">
        <ele>118</ele>
        <time>2016-03-29T15:30:29Z</time>
      </trkpt>
      <trkpt lat="44.23741" lon="4.26872">
        <ele>117</ele>
        <time>2016-03-29T15:32:29Z</time>
      </trkpt>
      <trkpt lat="44.23731" lon="4.26877">
        <ele>117</ele>
        <time>2016-03-29T15:34:29Z</time>
      </trkpt>
      <trkpt lat="44.23724" lon="4.26881">
        <ele>117</ele>
        <time>2016-03-29T15:36:29Z</time>
      </trkpt>
      <trkpt lat="44.2372" lon="4.26884">
        <ele>117</ele>
        <time>2016-03-29T15:38:29Z</time>
      </trkpt>
      <trkpt lat="44.23715" lon="4.26889">
        <ele>117</ele>
        <time>2016-03-29T15:40:29Z</time>
      </trkpt>
      <trkpt lat="44.23711" lon="4.26894">
        <ele>117</ele>
        <time>2016-03-29T15:42:29Z</time>
      </trkpt>
      <trkpt lat="44.23707" lon="4.26901">
        <ele>117</ele>
        <time>2016-03-29T15:44:29Z</time>
      </trkpt>
      <trkpt lat="44.23704" lon="4.26908">
        <ele>117</ele>
        <time>2016-03-29T15:46:29Z</time>
      </trkpt>
      <trkpt lat="44.23701" lon="4.26916">
        <ele>116</ele>
        <time>2016-03-29T15:48:29Z</time>
      </trkpt>
      <trkpt lat="44.23699" lon="4.26924">
        <ele>116</ele>
        <time>2016-03-29T15:50:29Z</time>
      </trkpt>
      <trkpt lat="44.23698" lon="4.26932">
        <ele>116</ele>
        <time>2016-03-29T15:52:29Z</time>
      </trkpt>
      <trkpt lat="44.23697" lon="4.26941">
        <ele>116</ele>
        <time>2016-03-29T15:54:29Z</time>
      </trkpt>
      <trkpt lat="44.23697" lon="4.26959">
        <ele>116</ele>
        <time>2016-03-29T15:56:29Z</time>
      </trkpt>
      <trkpt lat="44.23697" lon="4.26968">
        <ele>116</ele>
        <time>2016-03-29T15:58:29Z</time>
      </trkpt>
      <trkpt lat="44.23696" lon="4.26977">
        <ele>116</ele>
        <time>2016-03-29T16:00:29Z</time>
      </trkpt>
      <trkpt lat="44.23695" lon="4.26986">
        <ele>116</ele>
        <time>2016-03-29T16:02:29Z</time>
      </trkpt>
      <trkpt lat="44.23693" lon="4.26994">
        <ele>116</ele>
        <time>2016-03-29T16:04:29Z</time>
      </trkpt>
      <trkpt lat="44.2369" lon="4.27002">
        <ele>116</ele>
        <time>2016-03-29T16:06:29Z</time>
      </trkpt>
      <trkpt lat="44.23687" lon="4.2701">
        <ele>116</ele>
        <time>2016-03-29T16:08:29Z</time>
      </trkpt>
      <trkpt lat="44.23683" lon="4.27018">
        <ele>116</ele>
        <time>2016-03-29T16:10:29Z</time>
      </trkpt>
      <trkpt lat="44.23679" lon="4.27025">
        <ele>116</ele>
        <time>2016-03-29T16:12:29Z</time>
      </trkpt>
      <trkpt lat="44.23669" lon="4.27039">
        <ele>115</ele>
        <time>2016-03-29T16:14:29Z</time>
      </trkpt>
      <trkpt lat="44.23659" lon="4.27052">
        <ele>115</ele>
        <time>2016-03-29T16:16:29Z</time>
      </trkpt>
      <trkpt lat="44.23651" lon="4.27062">
        <ele>114</ele>
        <time>2016-03-29T16:18:29Z</time>
      </trkpt>
      <trkpt lat="44.23642" lon="4.27074">
        <ele>114</ele>
        <time>2016-03-29T16:20:29Z</time>
      </trkpt>
      <trkpt lat="44.23631" lon="4.27089">
        <ele>114</ele>
        <time>2016-03-29T16:22:29Z</time>
      </trkpt>
      <trkpt lat="44.23614" lon="4.27112">
        <ele>114</ele>
        <time>2016-03-29T16:24:29Z</time>
      </trkpt>
      <trkpt lat="44.23603" lon="4.27126">
        <ele>114</ele>
        <time>2016-03-29T16:26:29Z</time>
      </trkpt>
      <trkpt lat="44.23592" lon="4.27141">
        <ele>114</ele>
        <time>2016-03-29T16:28:29Z</time>
      </trkpt>
      <trkpt lat="44.23582" lon="4.27155">
        <ele>114</ele>
        <time>2016-03-29T16:30:29Z</time>
      </trkpt>
      <trkpt lat="44.23571" lon="4.27169">
        <ele>115</ele>
        <time>2016-03-29T16:32:29Z</time>
      </trkpt>
      <trkpt lat="44.2356" lon="4.27183">
        <ele>115</ele>
        <time>2016-03-29T16:34:29Z</time>
      </trkpt>
      <trkpt lat="44.23555" lon="4.27191">
        <ele>115</ele>
        <time>2016-03-29T16:36:29Z</time>
      </trkpt>
      <trkpt lat="44.2355" lon="4.27198">
        <ele>116</ele>
        <time>2016-03-29T16:38:29Z</time>
      </trkpt>
      <trkpt lat="44.23546" lon="4.27206">
        <ele>116</ele>
        <time>2016-03-29T16:40:29Z</time>
      </trkpt>
      <trkpt lat="44.23542" lon="4.27215">
        <ele>116</ele>
        <time>2016-03-29T16:42:29Z</time>
      </trkpt>
      <trkpt lat="44.23538" lon="4.27224">
        <ele>116</ele>
        <time>2016-03-29T16:44:29Z</time>
      </trkpt>
      <trkpt lat="44.23535" lon="4.27233">
        <ele>116</ele>
        <time>2016-03-29T16:46:29Z</time>
      </trkpt>
      <trkpt lat="44.23532" lon="4.27242">
        <ele>116</ele>
        <time>2016-03-29T16:48:29Z</time>
      </trkpt>
      <trkpt lat="44.23527" lon="4.27261">
        <ele>116</ele>
        <time>2016-03-29T16:50:29Z</time>
      </trkpt>
      <trkpt lat="44.23523" lon="4.27279">
        <ele>116</ele>
        <time>2016-03-29T16:52:29Z</time>
      </trkpt>
      <trkpt lat="44.23519" lon="4.27294">
        <ele>116</ele>
        <time>2016-03-29T16:54:29Z</time>
      </trkpt>
      <trkpt lat="44.23513" lon="4.27319">
        <ele>115</ele>
        <time>2016-03-29T16:56:29Z</time>
      </trkpt>
      <trkpt lat="44.23503" lon="4.2736">
        <ele>116</ele>
        <time>2016-03-29T16:58:29Z</time>
      </trkpt>
      <trkpt lat="44.23499" lon="4.27377">
        <ele>116</ele>
        <time>2016-03-29T17:00:29Z</time>
      </trkpt>
      <trkpt lat="44.23495" lon="4.27395">
        <ele>117</ele>
        <time>2016-03-29T17:02:29Z</time>
      </trkpt>
      <trkpt lat="44.2349" lon="4.27412">
        <ele>117</ele>
        <time>2016-03-29T17:04:29Z</time>
      </trkpt>
      <trkpt lat="44.23486" lon="4.2743">
        <ele>117</ele>
        <time>2016-03-29T17:06:29Z</time>
      </trkpt>
      <trkpt lat="44.23482" lon="4.27441">
        <ele>117</ele>
        <time>2016-03-29T17:08:29Z</time>
      </trkpt>
      <trkpt lat="44.23478" lon="4.27449">
        <ele>117</ele>
        <time>2016-03-29T17:10:29Z</time>
      </trkpt>
      <trkpt lat="44.23474" lon="4.27459">
        <ele>117</ele>
        <time>2016-03-29T17:12:29Z</time>
      </trkpt>
      <trkpt lat="44.23469" lon="4.27467">
        <ele>118</ele>
        <time>2016-03-29T17:14:29Z</time>
      </trkpt>
      <trkpt lat="44.23461" lon="4.27478">
        <ele>118</ele>
        <time>2016-03-29T17:16:29Z</time>
      </trkpt>
      <trkpt lat="44.2345" lon="4.2749">
        <ele>118</ele>
        <time>2016-03-29T17:18:29Z</time>
      </trkpt>
      <trkpt lat="44.23424" lon="4.27521">
        <ele>118</ele>
        <time>2016-03-29T17:20:29Z</time>
      </trkpt>
      <trkpt lat="44.23326" lon="4.27639">
        <ele>116</ele>
        <time>2016-03-29T17:22:29Z</time>
      </trkpt>
      <trkpt lat="44.23269" lon="4.27708">
        <ele>112</ele>
        <time>2016-03-29T17:24:29Z</time>
      </trkpt>
      <trkpt lat="44.23211" lon="4.27778">
        <ele>111</ele>
        <time>2016-03-29T17:26:29Z</time>
      </trkpt>
      <trkpt lat="44.23114" lon="4.27896">
        <ele>112</ele>
        <time>2016-03-29T17:28:29Z</time>
      </trkpt>
      <trkpt lat="44.23094" lon="4.2792">
        <ele>113</ele>
        <time>2016-03-29T17:30:29Z</time>
      </trkpt>
      <trkpt lat="44.23079" lon="4.27935">
        <ele>113</ele>
        <time>2016-03-29T17:32:29Z</time>
      </trkpt>
      <trkpt lat="44.23072" lon="4.27943">
        <ele>113</ele>
        <time>2016-03-29T17:34:29Z</time>
      </trkpt>
      <trkpt lat="44.23072" lon="4.27943">
        <ele>113</ele>
        <time>2016-03-29T17:36:29Z</time>
      </trkpt>
      <trkpt lat="44.23076" lon="4.27953">
        <ele>113</ele>
        <time>2016-03-29T17:38:29Z</time>
      </trkpt>
      <trkpt lat="44.23081" lon="4.27965">
        <ele>112</ele>
        <time>2016-03-29T17:40:29Z</time>
      </trkpt>
      <trkpt lat="44.23087" lon="4.27982">
        <ele>112</ele>
        <time>2016-03-29T17:42:29Z</time>
      </trkpt>
      <trkpt lat="44.23091" lon="4.27992">
        <ele>112</ele>
        <time>2016-03-29T17:44:29Z</time>
      </trkpt>
      <trkpt lat="44.23091" lon="4.27992">
        <ele>112</ele>
        <time>2016-03-29T17:46:29Z</time>
      </trkpt>
      <trkpt lat="44.23084" lon="4.2801">
        <ele>112</ele>
        <time>2016-03-29T17:48:29Z</time>
      </trkpt>
      <trkpt lat="44.23079" lon="4.28022">
        <ele>113</ele>
        <time>2016-03-29T17:50:29Z</time>
      </trkpt>
      <trkpt lat="44.23072" lon="4.28039">
        <ele>113</ele>
        <time>2016-03-29T17:52:29Z</time>
      </trkpt>
      <trkpt lat="44.23064" lon="4.28056">
        <ele>114</ele>
        <time>2016-03-29T17:54:29Z</time>
      </trkpt>
      <trkpt lat="44.23055" lon="4.28076">
        <ele>115</ele>
        <time>2016-03-29T17:56:29Z</time>
      </trkpt>
      <trkpt lat="44.23048" lon="4.28094">
        <ele>115</ele>
        <time>2016-03-29T17:58:29Z</time>
      </trkpt>
      <trkpt lat="44.23045" lon="4.28099">
        <ele>115</ele>
        <time>2016-03-29T18:00:29Z</time>
      </trkpt>
      <trkpt lat="44.23042" lon="4.28102">
        <ele>115</ele>
        <time>2016-03-29T18:02:29Z</time>
      </trkpt>
      <trkpt lat="44.23036" lon="4.28107">
        <ele>115</ele>
        <time>2016-03-29T18:04:29Z</time>
      </trkpt>
      <trkpt lat="44.23032" lon="4.28111">
        <ele>115</ele>
        <time>2016-03-29T18:06:29Z</time>
      </trkpt>
      <trkpt lat="44.23026" lon="4.28114">
        <ele>115</ele>
        <time>2016-03-29T18:08:29Z</time>
      </trkpt>
      <trkpt lat="44.2302" lon="4.28119">
        <ele>115</ele>
        <time>2016-03-29T18:10:29Z</time>
      </trkpt>
      <trkpt lat="44.23005" lon="4.28129">
        <ele>115</ele>
        <time>2016-03-29T18:12:29Z</time>
      </trkpt>
      <trkpt lat="44.2298" lon="4.28144">
        <ele>116</ele>
        <time>2016-03-29T18:14:29Z</time>
      </trkpt>
      <trkpt lat="44.22957" lon="4.28157">
        <ele>116</ele>
        <time>2016-03-29T18:16:29Z</time>
      </trkpt>
      <trkpt lat="44.2295" lon="4.28162">
        <ele>116</ele>
        <time>2016-03-29T18:18:29Z</time>
      </trkpt>
      <trkpt lat="44.22944" lon="4.28166">
        <ele>116</ele>
        <time>2016-03-29T18:20:29Z</time>
      </trkpt>
      <trkpt lat="44.22936" lon="4.28172">
        <ele>117</ele>
        <time>2016-03-29T18:22:29Z</time>
      </trkpt>
      <trkpt lat="44.22927" lon="4.28179">
        <ele>117</ele>
        <time>2016-03-29T18:24:29Z</time>
      </trkpt>
      <trkpt lat="44.22918" lon="4.28187">
        <ele>118</ele>
        <time>2016-03-29T18:26:29Z</time>
      </trkpt>
      <trkpt lat="44.22913" lon="4.28194">
        <ele>118</ele>
        <time>2016-03-29T18:28:29Z</time>
      </trkpt>
      <trkpt lat="44.22899" lon="4.28207">
        <ele>120</ele>
        <time>2016-03-29T18:30:29Z</time>
      </trkpt>
      <trkpt lat="44.22891" lon="4.28216">
        <ele>120</ele>
        <time>2016-03-29T18:32:29Z</time>
      </trkpt>
      <trkpt lat="44.22884" lon="4.28225">
        <ele>120</ele>
        <time>2016-03-29T18:34:29Z</time>
      </trkpt>
      <trkpt lat="44.22872" lon="4.28241">
        <ele>120</ele>
        <time>2016-03-29T18:36:29Z</time>
      </trkpt>
      <trkpt lat="44.22865" lon="4.28249">
        <ele>120</ele>
        <time>2016-03-29T18:38:29Z</time>
      </trkpt>
      <trkpt lat="44.22855" lon="4.28261">
        <ele>121</ele>
        <time>2016-03-29T18:40:29Z</time>
      </trkpt>
      <trkpt lat="44.22847" lon="4.2827">
        <ele>121</ele>
        <time>2016-03-29T18:42:29Z</time>
      </trkpt>
      <trkpt lat="44.22829" lon="4.28291">
        <ele>121</ele>
        <time>2016-03-29T18:44:29Z</time>
      </trkpt>
      <trkpt lat="44.22811" lon="4.28314">
        <ele>123</ele>
        <time>2016-03-29T18:46:29Z</time>
      </trkpt>
      <trkpt lat="44.22799" lon="4.28332">
        <ele>123</ele>
        <time>2016-03-29T18:48:29Z</time>
      </trkpt>
      <trkpt lat="44.22767" lon="4.28377">
        <ele>126</ele>
        <time>2016-03-29T18:50:29Z</time>
      </trkpt>
      <trkpt lat="44.2275" lon="4.28402">
        <ele>126</ele>
        <time>2016-03-29T18:52:29Z</time>
      </trkpt>
      <trkpt lat="44.22743" lon="4.28412">
        <ele>127</ele>
        <time>2016-03-29T18:54:29Z</time>
      </trkpt>
      <trkpt lat="44.22734" lon="4.28422">
        <ele>127</ele>
        <time>2016-03-29T18:56:29Z</time>
      </trkpt>
      <trkpt lat="44.22728" lon="4.28429">
        <ele>129</ele>
        <time>2016-03-29T18:58:29Z</time>
      </trkpt>
      <trkpt lat="44.22722" lon="4.28434">
        <ele>129</ele>
        <time>2016-03-29T19:00:29Z</time>
      </trkpt>
      <trkpt lat="44.22714" lon="4.28442">
        <ele>130</ele>
        <time>2016-03-29T19:02:29Z</time>
      </trkpt>
      <trkpt lat="44.22703" lon="4.28449">
        <ele>131</ele>
        <time>2016-03-29T19:04:29Z</time>
      </trkpt>
      <trkpt lat="44.22689" lon="4.28456">
        <ele>132</ele>
        <time>2016-03-29T19:06:29Z</time>
      </trkpt>
      <trkpt lat="44.22677" lon="4.28461">
        <ele>132</ele>
        <time>2016-03-29T19:08:29Z</time>
      </trkpt>
      <trkpt lat="44.22667" lon="4.28463">
        <ele>132</ele>
        <time>2016-03-29T19:10:29Z</time>
      </trkpt>
      <trkpt lat="44.22655" lon="4.28464">
        <ele>133</ele>
        <time>2016-03-29T19:12:29Z</time>
      </trkpt>
      <trkpt lat="44.22649" lon="4.28464">
        <ele>133</ele>
        <time>2016-03-29T19:14:29Z</time>
      </trkpt>
      <trkpt lat="44.2264" lon="4.28465">
        <ele>133</ele>
        <time>2016-03-29T19:16:29Z</time>
      </trkpt>
      <trkpt lat="44.22632" lon="4.28464">
        <ele>133</ele>
        <time>2016-03-29T19:18:29Z</time>
      </trkpt>
      <trkpt lat="44.22622" lon="4.28463">
        <ele>133</ele>
        <time>2016-03-29T19:20:29Z</time>
      </trkpt>
      <trkpt lat="44.22613" lon="4.28461">
        <ele>133</ele>
        <time>2016-03-29T19:22:29Z</time>
      </trkpt>
      <trkpt lat="44.226" lon="4.28457">
        <ele>132</ele>
        <time>2016-03-29T19:24:29Z</time>
      </trkpt>
      <trkpt lat="44.22584" lon="4.2845">
        <ele>132</ele>
        <time>2016-03-29T19:26:29Z</time>
      </trkpt>
      <trkpt lat="44.22576" lon="4.28445">
        <ele>131</ele>
        <time>2016-03-29T19:28:29Z</time>
      </trkpt>
      <trkpt lat="44.22566" lon="4.28439">
        <ele>131</ele>
        <time>2016-03-29T19:30:29Z</time>
      </trkpt>
      <trkpt lat="44.22557" lon="4.28431">
        <ele>130</ele>
        <time>2016-03-29T19:32:29Z</time>
      </trkpt>
      <trkpt lat="44.22548" lon="4.28422">
        <ele>129</ele>
        <time>2016-03-29T19:34:29Z</time>
      </trkpt>
      <trkpt lat="44.22538" lon="4.28411">
        <ele>129</ele>
        <time>2016-03-29T19:36:29Z</time>
      </trkpt>
      <trkpt lat="44.22529" lon="4.28399">
        <ele>130</ele>
        <time>2016-03-29T19:38:29Z</time>
      </trkpt>
      <trkpt lat="44.22522" lon="4.28391">
        <ele>131</ele>
        <time>2016-03-29T19:40:29Z</time>
      </trkpt>
      <trkpt lat="44.22516" lon="4.28386">
        <ele>131</ele>
        <time>2016-03-29T19:42:29Z</time>
      </trkpt>
      <trkpt lat="44.22513" lon="4.28385">
        <ele>131</ele>
        <time>2016-03-29T19:44:29Z</time>
      </trkpt>
      <trkpt lat="44.22509" lon="4.28383">
        <ele>131</ele>
        <time>2016-03-29T19:46:29Z</time>
      </trkpt>
      <trkpt lat="44.22505" lon="4.28383">
        <ele>131</ele>
        <time>2016-03-29T19:48:29Z</time>
      </trkpt>
      <trkpt lat="44.22499" lon="4.28383">
        <ele>131</ele>
        <time>2016-03-29T19:50:29Z</time>
      </trkpt>
      <trkpt lat="44.22495" lon="4.28384">
        <ele>131</ele>
        <time>2016-03-29T19:52:29Z</time>
      </trkpt>
      <trkpt lat="44.22492" lon="4.28385">
        <ele>131</ele>
        <time>2016-03-29T19:54:29Z</time>
      </trkpt>
      <trkpt lat="44.22483" lon="4.28388">
        <ele>131</ele>
        <time>2016-03-29T19:56:29Z</time>
      </trkpt>
      <trkpt lat="44.22473" lon="4.28394">
        <ele>130</ele>
        <time>2016-03-29T19:58:29Z</time>
      </trkpt>
      <trkpt lat="44.22464" lon="4.28401">
        <ele>130</ele>
        <time>2016-03-29T20:00:29Z</time>
      </trkpt>
      <trkpt lat="44.22456" lon="4.28407">
        <ele>130</ele>
        <time>2016-03-29T20:02:29Z</time>
      </trkpt>
      <trkpt lat="44.22447" lon="4.28415">
        <ele>129</ele>
        <time>2016-03-29T20:04:29Z</time>
      </trkpt>
      <trkpt lat="44.22438" lon="4.28425">
        <ele>130</ele>
        <time>2016-03-29T20:06:29Z</time>
      </trkpt>
      <trkpt lat="44.22424" lon="4.2844">
        <ele>132</ele>
        <time>2016-03-29T20:08:29Z</time>
      </trkpt>
      <trkpt lat="44.22415" lon="4.28452">
        <ele>134</ele>
        <time>2016-03-29T20:10:29Z</time>
      </trkpt>
      <trkpt lat="44.224" lon="4.28468">
        <ele>135</ele>
        <time>2016-03-29T20:12:29Z</time>
      </trkpt>
      <trkpt lat="44.22381" lon="4.28491">
        <ele>136</ele>
        <time>2016-03-29T20:14:29Z</time>
      </trkpt>
      <trkpt lat="44.22351" lon="4.28523">
        <ele>138</ele>
        <time>2016-03-29T20:16:29Z</time>
      </trkpt>
      <trkpt lat="44.22331" lon="4.28546">
        <ele>140</ele>
        <time>2016-03-29T20:18:29Z</time>
      </trkpt>
      <trkpt lat="44.22312" lon="4.28565">
        <ele>141</ele>
        <time>2016-03-29T20:20:29Z</time>
      </trkpt>
      <trkpt lat="44.22299" lon="4.28576">
        <ele>141</ele>
        <time>2016-03-29T20:22:29Z</time>
      </trkpt>
      <trkpt lat="44.22291" lon="4.28583">
        <ele>141</ele>
        <time>2016-03-29T20:24:29Z</time>
      </trkpt>
      <trkpt lat="44.22287" lon="4.28585">
        <ele>141</ele>
        <time>2016-03-29T20:26:29Z</time>
      </trkpt>
      <trkpt lat="44.22283" lon="4.28588">
        <ele>141</ele>
        <time>2016-03-29T20:28:29Z</time>
      </trkpt>
      <trkpt lat="44.2228" lon="4.28589">
        <ele>140</ele>
        <time>2016-03-29T20:30:29Z</time>
      </trkpt>
      <trkpt lat="44.22275" lon="4.2859">
        <ele>140</ele>
        <time>2016-03-29T20:32:29Z</time>
      </trkpt>
      <trkpt lat="44.2227" lon="4.28591">
        <ele>139</ele>
        <time>2016-03-29T20:34:29Z</time>
      </trkpt>
      <trkpt lat="44.22257" lon="4.28591">
        <ele>138</ele>
        <time>2016-03-29T20:36:29Z</time>
      </trkpt>
      <trkpt lat="44.22244" lon="4.28592">
        <ele>137</ele>
        <time>2016-03-29T20:38:29Z</time>
      </trkpt>
      <trkpt lat="44.22232" lon="4.28592">
        <ele>137</ele>
        <time>2016-03-29T20:40:29Z</time>
      </trkpt>
      <trkpt lat="44.22225" lon="4.28593">
        <ele>137</ele>
        <time>2016-03-29T20:42:29Z</time>
      </trkpt>
      <trkpt lat="44.22214" lon="4.28594">
        <ele>137</ele>
        <time>2016-03-29T20:44:29Z</time>
      </trkpt>
      <trkpt lat="44.22201" lon="4.28595">
        <ele>137</ele>
        <time>2016-03-29T20:46:29Z</time>
      </trkpt>
      <trkpt lat="44.22194" lon="4.28595">
        <ele>136</ele>
        <time>2016-03-29T20:48:29Z</time>
      </trkpt>
      <trkpt lat="44.2219" lon="4.28594">
        <ele>136</ele>
        <time>2016-03-29T20:50:29Z</time>
      </trkpt>
      <trkpt lat="44.22186" lon="4.28593">
        <ele>136</ele>
        <time>2016-03-29T20:52:29Z</time>
      </trkpt>
      <trkpt lat="44.22176" lon="4.28591">
        <ele>135</ele>
        <time>2016-03-29T20:54:29Z</time>
      </trkpt>
      <trkpt lat="44.22156" lon="4.28585">
        <ele>135</ele>
        <time>2016-03-29T20:56:29Z</time>
      </trkpt>
      <trkpt lat="44.22145" lon="4.28582">
        <ele>135</ele>
        <time>2016-03-29T20:58:29Z</time>
      </trkpt>
      <trkpt lat="44.22135" lon="4.28581">
        <ele>135</ele>
        <time>2016-03-29T21:00:29Z</time>
      </trkpt>
      <trkpt lat="44.22128" lon="4.2858">
        <ele>135</ele>
        <time>2016-03-29T21:02:29Z</time>
      </trkpt>
      <trkpt lat="44.22118" lon="4.28581">
        <ele>135</ele>
        <time>2016-03-29T21:04:29Z</time>
      </trkpt>
      <trkpt lat="44.22107" lon="4.28583">
        <ele>135</ele>
        <time>2016-03-29T21:06:29Z</time>
      </trkpt>
      <trkpt lat="44.22095" lon="4.28586">
        <ele>136</ele>
        <time>2016-03-29T21:08:29Z</time>
      </trkpt>
      <trkpt lat="44.22086" lon="4.2859">
        <ele>137</ele>
        <time>2016-03-29T21:10:29Z</time>
      </trkpt>
      <trkpt lat="44.22077" lon="4.28595">
        <ele>139</ele>
        <time>2016-03-29T21:12:29Z</time>
      </trkpt>
      <trkpt lat="44.22055" lon="4.2861">
        <ele>141</ele>
        <time>2016-03-29T21:14:29Z</time>
      </trkpt>
      <trkpt lat="44.22034" lon="4.28623">
        <ele>143</ele>
        <time>2016-03-29T21:16:29Z</time>
      </trkpt>
      <trkpt lat="44.22022" lon="4.28632">
        <ele>143</ele>
        <time>2016-03-29T21:18:29Z</time>
      </trkpt>
      <trkpt lat="44.22013" lon="4.2864">
        <ele>143</ele>
        <time>2016-03-29T21:20:29Z</time>
      </trkpt>
      <trkpt lat="44.22003" lon="4.2865">
        <ele>143</ele>
        <time>2016-03-29T21:22:29Z</time>
      </trkpt>
      <trkpt lat="44.21995" lon="4.28659">
        <ele>143</ele>
        <time>2016-03-29T21:24:29Z</time>
      </trkpt>
      <trkpt lat="44.21987" lon="4.28669">
        <ele>143</ele>
        <time>2016-03-29T21:26:29Z</time>
      </trkpt>
      <trkpt lat="44.21982" lon="4.28676">
        <ele>143</ele>
        <time>2016-03-29T21:28:29Z</time>
      </trkpt>
      <trkpt lat="44.21977" lon="4.28682">
        <ele>143</ele>
        <time>2016-03-29T21:30:29Z</time>
      </trkpt>
      <trkpt lat="44.21973" lon="4.28684">
        <ele>143</ele>
        <time>2016-03-29T21:32:29Z</time>
      </trkpt>
      <trkpt lat="44.21971" lon="4.28685">
        <ele>143</ele>
        <time>2016-03-29T21:34:29Z</time>
      </trkpt>
      <trkpt lat="44.21966" lon="4.28687">
        <ele>143</ele>
        <time>2016-03-29T21:36:29Z</time>
      </trkpt>
      <trkpt lat="44.21961" lon="4.28688">
        <ele>143</ele>
        <time>2016-03-29T21:38:29Z</time>
      </trkpt>
      <trkpt lat="44.21949" lon="4.28689">
        <ele>142</ele>
        <time>2016-03-29T21:40:29Z</time>
      </trkpt>
      <trkpt lat="44.21939" lon="4.28688">
        <ele>141</ele>
        <time>2016-03-29T21:42:29Z</time>
      </trkpt>
      <trkpt lat="44.21934" lon="4.28689">
        <ele>141</ele>
        <time>2016-03-29T21:44:29Z</time>
      </trkpt>
      <trkpt lat="44.2193" lon="4.28691">
        <ele>140</ele>
        <time>2016-03-29T21:46:29Z</time>
      </trkpt>
      <trkpt lat="44.21926" lon="4.28695">
        <ele>140</ele>
        <time>2016-03-29T21:48:29Z</time>
      </trkpt>
      <trkpt lat="44.21923" lon="4.28699">
        <ele>139</ele>
        <time>2016-03-29T21:50:29Z</time>
      </trkpt>
      <trkpt lat="44.2192" lon="4.28706">
        <ele>139</ele>
        <time>2016-03-29T21:52:29Z</time>
      </trkpt>
      <trkpt lat="44.21915" lon="4.2872">
        <ele>139</ele>
        <time>2016-03-29T21:54:29Z</time>
      </trkpt>
      <trkpt lat="44.21912" lon="4.28732">
        <ele>139</ele>
        <time>2016-03-29T21:56:29Z</time>
      </trkpt>
      <trkpt lat="44.21911" lon="4.28742">
        <ele>139</ele>
        <time>2016-03-29T21:58:29Z</time>
      </trkpt>
      <trkpt lat="44.2191" lon="4.28751">
        <ele>139</ele>
        <time>2016-03-29T22:00:29Z</time>
      </trkpt>
      <trkpt lat="44.2191" lon="4.28757">
        <ele>139</ele>
        <time>2016-03-29T22:02:29Z</time>
      </trkpt>
      <trkpt lat="44.2191" lon="4.28767">
        <ele>139</ele>
        <time>2016-03-29T22:04:29Z</time>
      </trkpt>
      <trkpt lat="44.2191" lon="4.28826">
        <ele>140</ele>
        <time>2016-03-29T22:06:29Z</time>
      </trkpt>
      <trkpt lat="44.2191" lon="4.28866">
        <ele>141</ele>
        <time>2016-03-29T22:08:29Z</time>
      </trkpt>
      <trkpt lat="44.2191" lon="4.28888">
        <ele>141</ele>
        <time>2016-03-29T22:10:29Z</time>
      </trkpt>
      <trkpt lat="44.21909" lon="4.28901">
        <ele>141</ele>
        <time>2016-03-29T22:12:29Z</time>
      </trkpt>
      <trkpt lat="44.21908" lon="4.28912">
        <ele>142</ele>
        <time>2016-03-29T22:14:29Z</time>
      </trkpt>
      <trkpt lat="44.21907" lon="4.28923">
        <ele>142</ele>
        <time>2016-03-29T22:16:29Z</time>
      </trkpt>
      <trkpt lat="44.21903" lon="4.28942">
        <ele>143</ele>
        <time>2016-03-29T22:18:29Z</time>
      </trkpt>
      <trkpt lat="44.21899" lon="4.2896">
        <ele>143</ele>
        <time>2016-03-29T22:20:29Z</time>
      </trkpt>
      <trkpt lat="44.21898" lon="4.28968">
        <ele>143</ele>
        <time>2016-03-29T22:22:29Z</time>
      </trkpt>
      <trkpt lat="44.21895" lon="4.28985">
        <ele>144</ele>
        <time>2016-03-29T22:24:29Z</time>
      </trkpt>
      <trkpt lat="44.21893" lon="4.28999">
        <ele>145</ele>
        <time>2016-03-29T22:26:29Z</time>
      </trkpt>
      <trkpt lat="44.21893" lon="4.29006">
        <ele>145</ele>
        <time>2016-03-29T22:28:29Z</time>
      </trkpt>
      <trkpt lat="44.21894" lon="4.29012">
        <ele>145</ele>
        <time>2016-03-29T22:30:29Z</time>
      </trkpt>
      <trkpt lat="44.21895" lon="4.29017">
        <ele>146</ele>
        <time>2016-03-29T22:32:29Z</time>
      </trkpt>
      <trkpt lat="44.21896" lon="4.29022">
        <ele>146</ele>
        <time>2016-03-29T22:34:29Z</time>
      </trkpt>
      <trkpt lat="44.21897" lon="4.29025">
        <ele>146</ele>
        <time>2016-03-29T22:36:29Z</time>
      </trkpt>
      <trkpt lat="44.21898" lon="4.29028">
        <ele>146</ele>
        <time>2016-03-29T22:38:29Z</time>
      </trkpt>
      <trkpt lat="44.21901" lon="4.29033">
        <ele>147</ele>
        <time>2016-03-29T22:40:29Z</time>
      </trkpt>
      <trkpt lat="44.21903" lon="4.29038">
        <ele>147</ele>
        <time>2016-03-29T22:42:29Z</time>
      </trkpt>
      <trkpt lat="44.21908" lon="4.29044">
        <ele>147</ele>
        <time>2016-03-29T22:44:29Z</time>
      </trkpt>
      <trkpt lat="44.21915" lon="4.29052">
        <ele>147</ele>
        <time>2016-03-29T22:46:29Z</time>
      </trkpt>
      <trkpt lat="44.21925" lon="4.29065">
        <ele>148</ele>
        <time>2016-03-29T22:48:29Z</time>
      </trkpt>
      <trkpt lat="44.21931" lon="4.29075">
        <ele>149</ele>
        <time>2016-03-29T22:50:29Z</time>
      </trkpt>
      <trkpt lat="44.21936" lon="4.29087">
        <ele>150</ele>
        <time>2016-03-29T22:52:29Z</time>
      </trkpt>
      <trkpt lat="44.2194" lon="4.29098">
        <ele>151</ele>
        <time>2016-03-29T22:54:29Z</time>
      </trkpt>
      <trkpt lat="44.21944" lon="4.29116">
        <ele>152</ele>
        <time>2016-03-29T22:56:29Z</time>
      </trkpt>
      <trkpt lat="44.21945" lon="4.29128">
        <ele>153</ele>
        <time>2016-03-29T22:58:29Z</time>
      </trkpt>
      <trkpt lat="44.21945" lon="4.29139">
        <ele>153</ele>
        <time>2016-03-29T23:00:29Z</time>
      </trkpt>
      <trkpt lat="44.21943" lon="4.29156">
        <ele>154</ele>
        <time>2016-03-29T23:02:29Z</time>
      </trkpt>
      <trkpt lat="44.21936" lon="4.29195">
        <ele>154</ele>
        <time>2016-03-29T23:04:29Z</time>
      </trkpt>
      <trkpt lat="44.21934" lon="4.29208">
        <ele>153</ele>
        <time>2016-03-29T23:06:29Z</time>
      </trkpt>
      <trkpt lat="44.21931" lon="4.29216">
        <ele>153</ele>
        <time>2016-03-29T23:08:29Z</time>
      </trkpt>
      <trkpt lat="44.21929" lon="4.29222">
        <ele>152</ele>
        <time>2016-03-29T23:10:29Z</time>
      </trkpt>
      <trkpt lat="44.21925" lon="4.29227">
        <ele>152</ele>
        <time>2016-03-29T23:12:29Z</time>
      </trkpt>
      <trkpt lat="44.2192" lon="4.29232">
        <ele>151</ele>
        <time>2016-03-29T23:14:29Z</time>
      </trkpt>
      <trkpt lat="44.21918" lon="4.29233">
        <ele>151</ele>
        <time>2016-03-29T23:16:29Z</time>
      </trkpt>
      <trkpt lat="44.21915" lon="4.29234">
        <ele>151</ele>
        <time>2016-03-29T23:18:29Z</time>
      </trkpt>
      <trkpt lat="44.21912" lon="4.29235">
        <ele>151</ele>
        <time>2016-03-29T23:20:29Z</time>
      </trkpt>
      <trkpt lat="44.21909" lon="4.29235">
        <ele>151</ele>
        <time>2016-03-29T23:22:29Z</time>
      </trkpt>
      <trkpt lat="44.21905" lon="4.29235">
        <ele>152</ele>
        <time>2016-03-29T23:24:29Z</time>
      </trkpt>
      <trkpt lat="44.21897" lon="4.29233">
        <ele>153</ele>
        <time>2016-03-29T23:26:29Z</time>
      </trkpt>
      <trkpt lat="44.21876" lon="4.2923">
        <ele>155</ele>
        <time>2016-03-29T23:28:29Z</time>
      </trkpt>
      <trkpt lat="44.21866" lon="4.29228">
        <ele>157</ele>
        <time>2016-03-29T23:30:29Z</time>
      </trkpt>
      <trkpt lat="44.2186" lon="4.29227">
        <ele>157</ele>
        <time>2016-03-29T23:32:29Z</time>
      </trkpt>
      <trkpt lat="44.21856" lon="4.29227">
        <ele>158</ele>
        <time>2016-03-29T23:34:29Z</time>
      </trkpt>
      <trkpt lat="44.21851" lon="4.29228">
        <ele>158</ele>
        <time>2016-03-29T23:36:29Z</time>
      </trkpt>
      <trkpt lat="44.21834" lon="4.29231">
        <ele>160</ele>
        <time>2016-03-29T23:38:29Z</time>
      </trkpt>
      <trkpt lat="44.21823" lon="4.29235">
        <ele>161</ele>
        <time>2016-03-29T23:40:29Z</time>
      </trkpt>
      <trkpt lat="44.2181" lon="4.29241">
        <ele>162</ele>
        <time>2016-03-29T23:42:29Z</time>
      </trkpt>
      <trkpt lat="44.21796" lon="4.29248">
        <ele>163</ele>
        <time>2016-03-29T23:44:29Z</time>
      </trkpt>
      <trkpt lat="44.21783" lon="4.29256">
        <ele>164</ele>
        <time>2016-03-29T23:46:29Z</time>
      </trkpt>
      <trkpt lat="44.21769" lon="4.29266">
        <ele>165</ele>
        <time>2016-03-29T23:48:29Z</time>
      </trkpt>
      <trkpt lat="44.2176" lon="4.29271">
        <ele>165</ele>
        <time>2016-03-29T23:50:29Z</time>
      </trkpt>
      <trkpt lat="44.21756" lon="4.29273">
        <ele>165</ele>
        <time>2016-03-29T23:52:29Z</time>
      </trkpt>
      <trkpt lat="44.21753" lon="4.29274">
        <ele>165</ele>
        <time>2016-03-29T23:54:29Z</time>
      </trkpt>
      <trkpt lat="44.2175" lon="4.29275">
        <ele>165</ele>
        <time>2016-03-29T23:56:29Z</time>
      </trkpt>
      <trkpt lat="44.21747" lon="4.29275">
        <ele>166</ele>
        <time>2016-03-29T23:58:29Z</time>
      </trkpt>
      <trkpt lat="44.21742" lon="4.29276">
        <ele>167</ele>
        <time>2016-03-30T00:00:29Z</time>
      </trkpt>
      <trkpt lat="44.2174" lon="4.29276">
        <ele>168</ele>
        <time>2016-03-30T00:02:29Z</time>
      </trkpt>
      <trkpt lat="44.21738" lon="4.29277">
        <ele>168</ele>
        <time>2016-03-30T00:04:29Z</time>
      </trkpt>
      <trkpt lat="44.21735" lon="4.29279">
        <ele>169</ele>
        <time>2016-03-30T00:06:29Z</time>
      </trkpt>
      <trkpt lat="44.21732" lon="4.29281">
        <ele>169</ele>
        <time>2016-03-30T00:08:29Z</time>
      </trkpt>
      <trkpt lat="44.21729" lon="4.29284">
        <ele>170</ele>
        <time>2016-03-30T00:10:29Z</time>
      </trkpt>
      <trkpt lat="44.21727" lon="4.29288">
        <ele>170</ele>
        <time>2016-03-30T00:12:29Z</time>
      </trkpt>
      <trkpt lat="44.21726" lon="4.29291">
        <ele>170</ele>
        <time>2016-03-30T00:14:29Z</time>
      </trkpt>
      <trkpt lat="44.21725" lon="4.29295">
        <ele>169</ele>
        <time>2016-03-30T00:16:29Z</time>
      </trkpt>
      <trkpt lat="44.21725" lon="4.29298">
        <ele>169</ele>
        <time>2016-03-30T00:18:29Z</time>
      </trkpt>
      <trkpt lat="44.21726" lon="4.29302">
        <ele>168</ele>
        <time>2016-03-30T00:20:29Z</time>
      </trkpt>
      <trkpt lat="44.21727" lon="4.29309">
        <ele>167</ele>
        <time>2016-03-30T00:22:29Z</time>
      </trkpt>
      <trkpt lat="44.21727" lon="4.29317">
        <ele>166</ele>
        <time>2016-03-30T00:24:29Z</time>
      </trkpt>
      <trkpt lat="44.21728" lon="4.29323">
        <ele>165</ele>
        <time>2016-03-30T00:26:29Z</time>
      </trkpt>
      <trkpt lat="44.21727" lon="4.29328">
        <ele>165</ele>
        <time>2016-03-30T00:28:29Z</time>
      </trkpt>
      <trkpt lat="44.21726" lon="4.29331">
        <ele>165</ele>
        <time>2016-03-30T00:30:29Z</time>
      </trkpt>
      <trkpt lat="44.21725" lon="4.29334">
        <ele>165</ele>
        <time>2016-03-30T00:32:29Z</time>
      </trkpt>
      <trkpt lat="44.21722" lon="4.29341">
        <ele>166</ele>
        <time>2016-03-30T00:34:29Z</time>
      </trkpt>
      <trkpt lat="44.21716" lon="4.2935">
        <ele>168</ele>
        <time>2016-03-30T00:36:29Z</time>
      </trkpt>
      <trkpt lat="44.2171" lon="4.29359">
        <ele>170</ele>
        <time>2016-03-30T00:38:29Z</time>
      </trkpt>
      <trkpt lat="44.21704" lon="4.29369">
        <ele>172</ele>
        <time>2016-03-30T00:40:29Z</time>
      </trkpt>
      <trkpt lat="44.21699" lon="4.2938">
        <ele>173</ele>
        <time>2016-03-30T00:42:29Z</time>
      </trkpt>
      <trkpt lat="44.21692" lon="4.29395">
        <ele>175</ele>
        <time>2016-03-30T00:44:29Z</time>
      </trkpt>
      <trkpt lat="44.21687" lon="4.2941">
        <ele>176</ele>
        <time>2016-03-30T00:46:29Z</time>
      </trkpt>
      <trkpt lat="44.21683" lon="4.29423">
        <ele>176</ele>
        <time>2016-03-30T00:48:29Z</time>
      </trkpt>
      <trkpt lat="44.21673" lon="4.2946">
        <ele>172</ele>
        <time>2016-03-30T00:50:29Z</time>
      </trkpt>
      <trkpt lat="44.21671" lon="4.29466">
        <ele>171</ele>
        <time>2016-03-30T00:52:29Z</time>
      </trkpt>
      <trkpt lat="44.21668" lon="4.29472">
        <ele>170</ele>
        <time>2016-03-30T00:54:29Z</time>
      </trkpt>
      <trkpt lat="44.21662" lon="4.2948">
        <ele>169</ele>
        <time>2016-03-30T00:56:29Z</time>
      </trkpt>
      <trkpt lat="44.21655" lon="4.2949">
        <ele>168</ele>
        <time>2016-03-30T00:58:29Z</time>
      </trkpt>
      <trkpt lat="44.21648" lon="4.29501">
        <ele>168</ele>
        <time>2016-03-30T01:00:29Z</time>
      </trkpt>
      <trkpt lat="44.21639" lon="4.29517">
        <ele>170</ele>
        <time>2016-03-30T01:02:29Z</time>
      </trkpt>
      <trkpt lat="44.21631" lon="4.2953">
        <ele>171</ele>
        <time>2016-03-30T01:04:29Z</time>
      </trkpt>
      <trkpt lat="44.21628" lon="4.29534">
        <ele>172</ele>
        <time>2016-03-30T01:06:29Z</time>
      </trkpt>
      <trkpt lat="44.21625" lon="4.29536">
        <ele>172</ele>
        <time>2016-03-30T01:08:29Z</time>
      </trkpt>
      <trkpt lat="44.21621" lon="4.29537">
        <ele>172</ele>
        <time>2016-03-30T01:10:29Z</time>
      </trkpt>
      <trkpt lat="44.21617" lon="4.29536">
        <ele>173</ele>
        <time>2016-03-30T01:12:29Z</time>
      </trkpt>
      <trkpt lat="44.21611" lon="4.29532">
        <ele>173</ele>
        <time>2016-03-30T01:14:29Z</time>
      </trkpt>
      <trkpt lat="44.21605" lon="4.29526">
        <ele>173</ele>
        <time>2016-03-30T01:16:29Z</time>
      </trkpt>
      <trkpt lat="44.21597" lon="4.29516">
        <ele>174</ele>
        <time>2016-03-30T01:18:29Z</time>
      </trkpt>
      <trkpt lat="44.21588" lon="4.29507">
        <ele>176</ele>
        <time>2016-03-30T01:20:29Z</time>
      </trkpt>
      <trkpt lat="44.21579" lon="4.29498">
        <ele>178</ele>
        <time>2016-03-30T01:22:29Z</time>
      </trkpt>
      <trkpt lat="44.21574" lon="4.29495">
        <ele>180</ele>
        <time>2016-03-30T01:24:29Z</time>
      </trkpt>
      <trkpt lat="44.21569" lon="4.29494">
        <ele>181</ele>
        <time>2016-03-30T01:26:29Z</time>
      </trkpt>
      <trkpt lat="44.21564" lon="4.29494">
        <ele>182</ele>
        <time>2016-03-30T01:28:29Z</time>
      </trkpt>
      <trkpt lat="44.21559" lon="4.29494">
        <ele>182</ele>
        <time>2016-03-30T01:30:29Z</time>
      </trkpt>
      <trkpt lat="44.21552" lon="4.29496">
        <ele>183</ele>
        <time>2016-03-30T01:32:29Z</time>
      </trkpt>
      <trkpt lat="44.21547" lon="4.29499">
        <ele>183</ele>
        <time>2016-03-30T01:34:29Z</time>
      </trkpt>
      <trkpt lat="44.21539" lon="4.29504">
        <ele>183</ele>
        <time>2016-03-30T01:36:29Z</time>
      </trkpt>
      <trkpt lat="44.21518" lon="4.29518">
        <ele>184</ele>
        <time>2016-03-30T01:38:29Z</time>
      </trkpt>
      <trkpt lat="44.21501" lon="4.29532">
        <ele>184</ele>
        <time>2016-03-30T01:40:29Z</time>
      </trkpt>
      <trkpt lat="44.21488" lon="4.29544">
        <ele>186</ele>
        <time>2016-03-30T01:42:29Z</time>
      </trkpt>
      <trkpt lat="44.21479" lon="4.29552">
        <ele>187</ele>
        <time>2016-03-30T01:44:29Z</time>
      </trkpt>
      <trkpt lat="44.21473" lon="4.2956">
        <ele>188</ele>
        <time>2016-03-30T01:46:29Z</time>
      </trkpt>
      <trkpt lat="44.21469" lon="4.29565">
        <ele>188</ele>
        <time>2016-03-30T01:48:29Z</time>
      </trkpt>
      <trkpt lat="44.21465" lon="4.29569">
        <ele>188</ele>
        <time>2016-03-30T01:50:29Z</time>
      </trkpt>
      <trkpt lat="44.21461" lon="4.29577">
        <ele>188</ele>
        <time>2016-03-30T01:52:29Z</time>
      </trkpt>
      <trkpt lat="44.21458" lon="4.29584">
        <ele>188</ele>
        <time>2016-03-30T01:54:29Z</time>
      </trkpt>
      <trkpt lat="44.21456" lon="4.29591">
        <ele>188</ele>
        <time>2016-03-30T01:56:29Z</time>
      </trkpt>
      <trkpt lat="44.21453" lon="4.296">
        <ele>189</ele>
        <time>2016-03-30T01:58:29Z</time>
      </trkpt>
      <trkpt lat="44.2145" lon="4.29615">
        <ele>189</ele>
        <time>2016-03-30T02:00:29Z</time>
      </trkpt>
      <trkpt lat="44.21448" lon="4.29628">
        <ele>188</ele>
        <time>2016-03-30T02:02:29Z</time>
      </trkpt>
      <trkpt lat="44.21446" lon="4.29639">
        <ele>188</ele>
        <time>2016-03-30T02:04:29Z</time>
      </trkpt>
      <trkpt lat="44.21444" lon="4.29647">
        <ele>188</ele>
        <time>2016-03-30T02:06:29Z</time>
      </trkpt>
      <trkpt lat="44.2144" lon="4.29658">
        <ele>188</ele>
        <time>2016-03-30T02:08:29Z</time>
      </trkpt>
      <trkpt lat="44.21435" lon="4.29675">
        <ele>187</ele>
        <time>2016-03-30T02:10:29Z</time>
      </trkpt>
      <trkpt lat="44.21429" lon="4.29693">
        <ele>185</ele>
        <time>2016-03-30T02:12:29Z</time>
      </trkpt>
      <trkpt lat="44.21424" lon="4.29709">
        <ele>183</ele>
        <time>2016-03-30T02:14:29Z</time>
      </trkpt>
      <trkpt lat="44.21423" lon="4.29711">
        <ele>183</ele>
        <time>2016-03-30T02:16:29Z</time>
      </trkpt>
      <trkpt lat="44.2142" lon="4.29719">
        <ele>181</ele>
        <time>2016-03-30T02:18:29Z</time>
      </trkpt>
      <trkpt lat="44.21418" lon="4.29723">
        <ele>181</ele>
        <time>2016-03-30T02:20:29Z</time>
      </trkpt>
      <trkpt lat="44.21414" lon="4.29727">
        <ele>180</ele>
        <time>2016-03-30T02:22:29Z</time>
      </trkpt>
      <trkpt lat="44.21412" lon="4.29728">
        <ele>180</ele>
        <time>2016-03-30T02:24:29Z</time>
      </trkpt>
      <trkpt lat="44.21407" lon="4.2973">
        <ele>180</ele>
        <time>2016-03-30T02:26:29Z</time>
      </trkpt>
      <trkpt lat="44.21403" lon="4.29731">
        <ele>181</ele>
        <time>2016-03-30T02:28:29Z</time>
      </trkpt>
      <trkpt lat="44.21388" lon="4.29732">
        <ele>182</ele>
        <time>2016-03-30T02:30:29Z</time>
      </trkpt>
      <trkpt lat="44.21376" lon="4.29733">
        <ele>183</ele>
        <time>2016-03-30T02:32:29Z</time>
      </trkpt>
      <trkpt lat="44.21367" lon="4.29735">
        <ele>183</ele>
        <time>2016-03-30T02:34:29Z</time>
      </trkpt>
      <trkpt lat="44.21361" lon="4.29736">
        <ele>184</ele>
        <time>2016-03-30T02:36:29Z</time>
      </trkpt>
      <trkpt lat="44.21354" lon="4.29739">
        <ele>183</ele>
        <time>2016-03-30T02:38:29Z</time>
      </trkpt>
      <trkpt lat="44.21323" lon="4.29754">
        <ele>181</ele>
        <time>2016-03-30T02:40:29Z</time>
      </trkpt>
      <trkpt lat="44.21296" lon="4.29767">
        <ele>182</ele>
        <time>2016-03-30T02:42:29Z</time>
      </trkpt>
      <trkpt lat="44.21287" lon="4.29773">
        <ele>182</ele>
        <time>2016-03-30T02:44:29Z</time>
      </trkpt>
      <trkpt lat="44.2128" lon="4.29778">
        <ele>182</ele>
        <time>2016-03-30T02:46:29Z</time>
      </trkpt>
      <trkpt lat="44.21274" lon="4.29782">
        <ele>182</ele>
        <time>2016-03-30T02:48:29Z</time>
      </trkpt>
      <trkpt lat="44.21266" lon="4.2979">
        <ele>181</ele>
        <time>2016-03-30T02:50:29Z</time>
      </trkpt>
      <trkpt lat="44.21264" lon="4.29792">
        <ele>181</ele>
        <time>2016-03-30T02:52:29Z</time>
      </trkpt>
      <trkpt lat="44.21259" lon="4.29796">
        <ele>181</ele>
        <time>2016-03-30T02:54:29Z</time>
      </trkpt>
      <trkpt lat="44.21253" lon="4.298">
        <ele>180</ele>
        <time>2016-03-30T02:56:29Z</time>
      </trkpt>
      <trkpt lat="44.21249" lon="4.29802">
        <ele>180</ele>
        <time>2016-03-30T02:58:29Z</time>
      </trkpt>
      <trkpt lat="44.21244" lon="4.29804">
        <ele>180</ele>
        <time>2016-03-30T03:00:29Z</time>
      </trkpt>
      <trkpt lat="44.21234" lon="4.29806">
        <ele>180</ele>
        <time>2016-03-30T03:02:29Z</time>
      </trkpt>
      <trkpt lat="44.21225" lon="4.29809">
        <ele>180</ele>
        <time>2016-03-30T03:04:29Z</time>
      </trkpt>
      <trkpt lat="44.21216" lon="4.2981">
        <ele>181</ele>
        <time>2016-03-30T03:06:29Z</time>
      </trkpt>
      <trkpt lat="44.21207" lon="4.2981">
        <ele>181</ele>
        <time>2016-03-30T03:08:29Z</time>
      </trkpt>
      <trkpt lat="44.21198" lon="4.29809">
        <ele>181</ele>
        <time>2016-03-30T03:10:29Z</time>
      </trkpt>
      <trkpt lat="44.21189" lon="4.29805">
        <ele>182</ele>
        <time>2016-03-30T03:12:29Z</time>
      </trkpt>
      <trkpt lat="44.21178" lon="4.29799">
        <ele>182</ele>
        <time>2016-03-30T03:14:29Z</time>
      </trkpt>
      <trkpt lat="44.21167" lon="4.29792">
        <ele>183</ele>
        <time>2016-03-30T03:16:29Z</time>
      </trkpt>
      <trkpt lat="44.21155" lon="4.29785">
        <ele>183</ele>
        <time>2016-03-30T03:18:29Z</time>
      </trkpt>
      <trkpt lat="44.21147" lon="4.2978">
        <ele>183</ele>
        <time>2016-03-30T03:20:29Z</time>
      </trkpt>
      <trkpt lat="44.21141" lon="4.29777">
        <ele>183</ele>
        <time>2016-03-30T03:22:29Z</time>
      </trkpt>
      <trkpt lat="44.21134" lon="4.29773">
        <ele>183</ele>
        <time>2016-03-30T03:24:29Z</time>
      </trkpt>
      <trkpt lat="44.21126" lon="4.29771">
        <ele>183</ele>
        <time>2016-03-30T03:26:29Z</time>
      </trkpt>
      <trkpt lat="44.21099" lon="4.29762">
        <ele>182</ele>
        <time>2016-03-30T03:28:29Z</time>
      </trkpt>
      <trkpt lat="44.21048" lon="4.29747">
        <ele>182</ele>
        <time>2016-03-30T03:30:29Z</time>
      </trkpt>
      <trkpt lat="44.21031" lon="4.29743">
        <ele>182</ele>
        <time>2016-03-30T03:32:29Z</time>
      </trkpt>
      <trkpt lat="44.21012" lon="4.29739">
        <ele>183</ele>
        <time>2016-03-30T03:34:29Z</time>
      </trkpt>
      <trkpt lat="44.21002" lon="4.29738">
        <ele>183</ele>
        <time>2016-03-30T03:36:29Z</time>
      </trkpt>
      <trkpt lat="44.20994" lon="4.29739">
        <ele>183</ele>
        <time>2016-03-30T03:38:29Z</time>
      </trkpt>
      <trkpt lat="44.20983" lon="4.29741">
        <ele>183</ele>
        <time>2016-03-30T03:40:29Z</time>
      </trkpt>
      <trkpt lat="44.20969" lon="4.29747">
        <ele>183</ele>
        <time>2016-03-30T03:42:29Z</time>
      </trkpt>
      <trkpt lat="44.20957" lon="4.29752">
        <ele>184</ele>
        <time>2016-03-30T03:44:29Z</time>
      </trkpt>
      <trkpt lat="44.20943" lon="4.29757">
        <ele>185</ele>
        <time>2016-03-30T03:46:29Z</time>
      </trkpt>
      <trkpt lat="44.20934" lon="4.29759">
        <ele>186</ele>
        <time>2016-03-30T03:48:29Z</time>
      </trkpt>
      <trkpt lat="44.20925" lon="4.2976">
        <ele>186</ele>
        <time>2016-03-30T03:50:29Z</time>
      </trkpt>
      <trkpt lat="44.20918" lon="4.2976">
        <ele>186</ele>
        <time>2016-03-30T03:52:29Z</time>
      </trkpt>
      <trkpt lat="44.2091" lon="4.29759">
        <ele>186</ele>
        <time>2016-03-30T03:54:29Z</time>
      </trkpt>
      <trkpt lat="44.20896" lon="4.29758">
        <ele>186</ele>
        <time>2016-03-30T03:56:29Z</time>
      </trkpt>
      <trkpt lat="44.20886" lon="4.29756">
        <ele>186</ele>
        <time>2016-03-30T03:58:29Z</time>
      </trkpt>
      <trkpt lat="44.20868" lon="4.29751">
        <ele>185</ele>
        <time>2016-03-30T04:00:29Z</time>
      </trkpt>
      <trkpt lat="44.20848" lon="4.29746">
        <ele>186</ele>
        <time>2016-03-30T04:02:29Z</time>
      </trkpt>
      <trkpt lat="44.20813" lon="4.29735">
        <ele>189</ele>
        <time>2016-03-30T04:04:29Z</time>
      </trkpt>
      <trkpt lat="44.20802" lon="4.29733">
        <ele>190</ele>
        <time>2016-03-30T04:06:29Z</time>
      </trkpt>
      <trkpt lat="44.20795" lon="4.29733">
        <ele>190</ele>
        <time>2016-03-30T04:08:29Z</time>
      </trkpt>
      <trkpt lat="44.2079" lon="4.29734">
        <ele>190</ele>
        <time>2016-03-30T04:10:29Z</time>
      </trkpt>
      <trkpt lat="44.20784" lon="4.29737">
        <ele>190</ele>
        <time>2016-03-30T04:12:29Z</time>
      </trkpt>
      <trkpt lat="44.20778" lon="4.29741">
        <ele>190</ele>
        <time>2016-03-30T04:14:29Z</time>
      </trkpt>
      <trkpt lat="44.20767" lon="4.29751">
        <ele>188</ele>
        <time>2016-03-30T04:16:29Z</time>
      </trkpt>
      <trkpt lat="44.20761" lon="4.29758">
        <ele>189</ele>
        <time>2016-03-30T04:18:29Z</time>
      </trkpt>
      <trkpt lat="44.20755" lon="4.29765">
        <ele>189</ele>
        <time>2016-03-30T04:20:29Z</time>
      </trkpt>
      <trkpt lat="44.20751" lon="4.29772">
        <ele>189</ele>
        <time>2016-03-30T04:22:29Z</time>
      </trkpt>
      <trkpt lat="44.20748" lon="4.2978">
        <ele>190</ele>
        <time>2016-03-30T04:24:29Z</time>
      </trkpt>
      <trkpt lat="44.20746" lon="4.29788">
        <ele>190</ele>
        <time>2016-03-30T04:26:29Z</time>
      </trkpt>
      <trkpt lat="44.20745" lon="4.29797">
        <ele>190</ele>
        <time>2016-03-30T04:28:29Z</time>
      </trkpt>
      <trkpt lat="44.20745" lon="4.29812">
        <ele>190</ele>
        <time>2016-03-30T04:30:29Z</time>
      </trkpt>
      <trkpt lat="44.20746" lon="4.29828">
        <ele>190</ele>
        <time>2016-03-30T04:32:29Z</time>
      </trkpt>
      <trkpt lat="44.20747" lon="4.29841">
        <ele>190</ele>
        <time>2016-03-30T04:34:29Z</time>
      </trkpt>
      <trkpt lat="44.20748" lon="4.29854">
        <ele>190</ele>
        <time>2016-03-30T04:36:29Z</time>
      </trkpt>
      <trkpt lat="44.2075" lon="4.29872">
        <ele>190</ele>
        <time>2016-03-30T04:38:29Z</time>
      </trkpt>
      <trkpt lat="44.20751" lon="4.29884">
        <ele>191</ele>
        <time>2016-03-30T04:40:29Z</time>
      </trkpt>
      <trkpt lat="44.20751" lon="4.29894">
        <ele>191</ele>
        <time>2016-03-30T04:42:29Z</time>
      </trkpt>
      <trkpt lat="44.20752" lon="4.29905">
        <ele>191</ele>
        <time>2016-03-30T04:44:29Z</time>
      </trkpt>
      <trkpt lat="44.20752" lon="4.29915">
        <ele>191</ele>
        <time>2016-03-30T04:46:29Z</time>
      </trkpt>
      <trkpt lat="44.20751" lon="4.29924">
        <ele>191</ele>
        <time>2016-03-30T04:48:29Z</time>
      </trkpt>
      <trkpt lat="44.2075" lon="4.29935">
        <ele>191</ele>
        <time>2016-03-30T04:50:29Z</time>
      </trkpt>
      <trkpt lat="44.20748" lon="4.29945">
        <ele>191</ele>
        <time>2016-03-30T04:52:29Z</time>
      </trkpt>
      <trkpt lat="44.20744" lon="4.29971">
        <ele>191</ele>
        <time>2016-03-30T04:54:29Z</time>
      </trkpt>
      <trkpt lat="44.20739" lon="4.29997">
        <ele>191</ele>
        <time>2016-03-30T04:56:29Z</time>
      </trkpt>
      <trkpt lat="44.20736" lon="4.30011">
        <ele>192</ele>
        <time>2016-03-30T04:58:29Z</time>
      </trkpt>
      <trkpt lat="44.20733" lon="4.30022">
        <ele>193</ele>
        <time>2016-03-30T05:00:29Z</time>
      </trkpt>
      <trkpt lat="44.20728" lon="4.3003">
        <ele>194</ele>
        <time>2016-03-30T05:02:29Z</time>
      </trkpt>
      <trkpt lat="44.2072" lon="4.30038">
        <ele>195</ele>
        <time>2016-03-30T05:04:29Z</time>
      </trkpt>
      <trkpt lat="44.20714" lon="4.3004">
        <ele>196</ele>
        <time>2016-03-30T05:06:29Z</time>
      </trkpt>
      <trkpt lat="44.20707" lon="4.3004">
        <ele>196</ele>
        <time>2016-03-30T05:08:29Z</time>
      </trkpt>
      <trkpt lat="44.20696" lon="4.30041">
        <ele>196</ele>
        <time>2016-03-30T05:10:29Z</time>
      </trkpt>
      <trkpt lat="44.2068" lon="4.30042">
        <ele>196</ele>
        <time>2016-03-30T05:12:29Z</time>
      </trkpt>
      <trkpt lat="44.20664" lon="4.30042">
        <ele>197</ele>
        <time>2016-03-30T05:14:29Z</time>
      </trkpt>
      <trkpt lat="44.20648" lon="4.30044">
        <ele>197</ele>
        <time>2016-03-30T05:16:29Z</time>
      </trkpt>
      <trkpt lat="44.20634" lon="4.30045">
        <ele>197</ele>
        <time>2016-03-30T05:18:29Z</time>
      </trkpt>
      <trkpt lat="44.2062" lon="4.30046">
        <ele>198</ele>
        <time>2016-03-30T05:20:29Z</time>
      </trkpt>
      <trkpt lat="44.20606" lon="4.30048">
        <ele>198</ele>
        <time>2016-03-30T05:22:29Z</time>
      </trkpt>
      <trkpt lat="44.20597" lon="4.30051">
        <ele>198</ele>
        <time>2016-03-30T05:24:29Z</time>
      </trkpt>
      <trkpt lat="44.20588" lon="4.30055">
        <ele>198</ele>
        <time>2016-03-30T05:26:29Z</time>
      </trkpt>
      <trkpt lat="44.2058" lon="4.3006">
        <ele>199</ele>
        <time>2016-03-30T05:28:29Z</time>
      </trkpt>
      <trkpt lat="44.2057" lon="4.30067">
        <ele>199</ele>
        <time>2016-03-30T05:30:29Z</time>
      </trkpt>
      <trkpt lat="44.2056" lon="4.30076">
        <ele>199</ele>
        <time>2016-03-30T05:32:29Z</time>
      </trkpt>
      <trkpt lat="44.20549" lon="4.30088">
        <ele>200</ele>
        <time>2016-03-30T05:34:29Z</time>
      </trkpt>
      <trkpt lat="44.20539" lon="4.30099">
        <ele>201</ele>
        <time>2016-03-30T05:36:29Z</time>
      </trkpt>
      <trkpt lat="44.20534" lon="4.30105">
        <ele>201</ele>
        <time>2016-03-30T05:38:29Z</time>
      </trkpt>
      <trkpt lat="44.2053" lon="4.30111">
        <ele>201</ele>
        <time>2016-03-30T05:40:29Z</time>
      </trkpt>
      <trkpt lat="44.20525" lon="4.30122">
        <ele>201</ele>
        <time>2016-03-30T05:42:29Z</time>
      </trkpt>
      <trkpt lat="44.20521" lon="4.30131">
        <ele>201</ele>
        <time>2016-03-30T05:44:29Z</time>
      </trkpt>
      <trkpt lat="44.2052" lon="4.3014">
        <ele>201</ele>
        <time>2016-03-30T05:46:29Z</time>
      </trkpt>
      <trkpt lat="44.20519" lon="4.30148">
        <ele>201</ele>
        <time>2016-03-30T05:48:29Z</time>
      </trkpt>
      <trkpt lat="44.20519" lon="4.30159">
        <ele>201</ele>
        <time>2016-03-30T05:50:29Z</time>
      </trkpt>
      <trkpt lat="44.20519" lon="4.30176">
        <ele>202</ele>
        <time>2016-03-30T05:52:29Z</time>
      </trkpt>
      <trkpt lat="44.20518" lon="4.30197">
        <ele>202</ele>
        <time>2016-03-30T05:54:29Z</time>
      </trkpt>
      <trkpt lat="44.20518" lon="4.30218">
        <ele>202</ele>
        <time>2016-03-30T05:56:29Z</time>
      </trkpt>
      <trkpt lat="44.20517" lon="4.30242">
        <ele>203</ele>
        <time>2016-03-30T05:58:29Z</time>
      </trkpt>
      <trkpt lat="44.20517" lon="4.30264">
        <ele>203</ele>
        <time>2016-03-30T06:00:29Z</time>
      </trkpt>
      <trkpt lat="44.20517" lon="4.30277">
        <ele>204</ele>
        <time>2016-03-30T06:02:29Z</time>
      </trkpt>
      <trkpt lat="44.20517" lon="4.30289">
        <ele>204</ele>
        <time>2016-03-30T06:04:29Z</time>
      </trkpt>
      <trkpt lat="44.20518" lon="4.30307">
        <ele>206</ele>
        <time>2016-03-30T06:06:29Z</time>
      </trkpt>
      <trkpt lat="44.2052" lon="4.30319">
        <ele>207</ele>
        <time>2016-03-30T06:08:29Z</time>
      </trkpt>
      <trkpt lat="44.20521" lon="4.30327">
        <ele>208</ele>
        <time>2016-03-30T06:10:29Z</time>
      </trkpt>
      <trkpt lat="44.20524" lon="4.30355">
        <ele>210</ele>
        <time>2016-03-30T06:12:29Z</time>
      </trkpt>
      <trkpt lat="44.20533" lon="4.30421">
        <ele>214</ele>
        <time>2016-03-30T06:14:29Z</time>
      </trkpt>
      <trkpt lat="44.20538" lon="4.30455">
        <ele>217</ele>
        <time>2016-03-30T06:16:29Z</time>
      </trkpt>
      <trkpt lat="44.20544" lon="4.3049">
        <ele>220</ele>
        <time>2016-03-30T06:18:29Z</time>
      </trkpt>
      <trkpt lat="44.20549" lon="4.30515">
        <ele>221</ele>
        <time>2016-03-30T06:20:29Z</time>
      </trkpt>
      <trkpt lat="44.20555" lon="4.30533">
        <ele>222</ele>
        <time>2016-03-30T06:22:29Z</time>
      </trkpt>
      <trkpt lat="44.20558" lon="4.30543">
        <ele>223</ele>
        <time>2016-03-30T06:24:29Z</time>
      </trkpt>
      <trkpt lat="44.20566" lon="4.30565">
        <ele>223</ele>
        <time>2016-03-30T06:26:29Z</time>
      </trkpt>
      <trkpt lat="44.2057" lon="4.30577">
        <ele>222</ele>
        <time>2016-03-30T06:28:29Z</time>
      </trkpt>
      <trkpt lat="44.20579" lon="4.30602">
        <ele>221</ele>
        <time>2016-03-30T06:30:29Z</time>
      </trkpt>
      <trkpt lat="44.20586" lon="4.30623">
        <ele>221</ele>
        <time>2016-03-30T06:32:29Z</time>
      </trkpt>
      <trkpt lat="44.20594" lon="4.30646">
        <ele>222</ele>
        <time>2016-03-30T06:34:29Z</time>
      </trkpt>
      <trkpt lat="44.20596" lon="4.30652">
        <ele>222</ele>
        <time>2016-03-30T06:36:29Z</time>
      </trkpt>
      <trkpt lat="44.20601" lon="4.30665">
        <ele>223</ele>
        <time>2016-03-30T06:38:29Z</time>
      </trkpt>
      <trkpt lat="44.20607" lon="4.30678">
        <ele>225</ele>
        <time>2016-03-30T06:40:29Z</time>
      </trkpt>
      <trkpt lat="44.20615" lon="4.3069">
        <ele>227</ele>
        <time>2016-03-30T06:42:29Z</time>
      </trkpt>
      <trkpt lat="44.2062" lon="4.30697">
        <ele>228</ele>
        <time>2016-03-30T06:44:29Z</time>
      </trkpt>
      <trkpt lat="44.20627" lon="4.30704">
        <ele>228</ele>
        <time>2016-03-30T06:46:29Z</time>
      </trkpt>
      <trkpt lat="44.20636" lon="4.3071">
        <ele>229</ele>
        <time>2016-03-30T06:48:29Z</time>
      </trkpt>
      <trkpt lat="44.20644" lon="4.30718">
        <ele>229</ele>
        <time>2016-03-30T06:50:29Z</time>
      </trkpt>
      <trkpt lat="44.20653" lon="4.30727">
        <ele>229</ele>
        <time>2016-03-30T06:52:29Z</time>
      </trkpt>
      <trkpt lat="44.20658" lon="4.30733">
        <ele>229</ele>
        <time>2016-03-30T06:54:29Z</time>
      </trkpt>
      <trkpt lat="44.20662" lon="4.30737">
        <ele>229</ele>
        <time>2016-03-30T06:56:29Z</time>
      </trkpt>
      <trkpt lat="44.20666" lon="4.3074">
        <ele>228</ele>
        <time>2016-03-30T06:58:29Z</time>
      </trkpt>
      <trkpt lat="44.20669" lon="4.30741">
        <ele>229</ele>
        <time>2016-03-30T07:00:29Z</time>
      </trkpt>
      <trkpt lat="44.20673" lon="4.30742">
        <ele>230</ele>
        <time>2016-03-30T07:02:29Z</time>
      </trkpt>
      <trkpt lat="44.20676" lon="4.30741">
        <ele>231</ele>
        <time>2016-03-30T07:04:29Z</time>
      </trkpt>
      <trkpt lat="44.20679" lon="4.3074">
        <ele>231</ele>
        <time>2016-03-30T07:06:29Z</time>
      </trkpt>
      <trkpt lat="44.20681" lon="4.30738">
        <ele>232</ele>
        <time>2016-03-30T07:08:29Z</time>
      </trkpt>
      <trkpt lat="44.20682" lon="4.30734">
        <ele>233</ele>
        <time>2016-03-30T07:10:29Z</time>
      </trkpt>
      <trkpt lat="44.20684" lon="4.30731">
        <ele>234</ele>
        <time>2016-03-30T07:12:29Z</time>
      </trkpt>
      <trkpt lat="44.20684" lon="4.30727">
        <ele>234</ele>
        <time>2016-03-30T07:14:29Z</time>
      </trkpt>
      <trkpt lat="44.20684" lon="4.30723">
        <ele>235</ele>
        <time>2016-03-30T07:16:29Z</time>
      </trkpt>
      <trkpt lat="44.20683" lon="4.30718">
        <ele>235</ele>
        <time>2016-03-30T07:18:29Z</time>
      </trkpt>
      <trkpt lat="44.20682" lon="4.30713">
        <ele>235</ele>
        <time>2016-03-30T07:20:29Z</time>
      </trkpt>
      <trkpt lat="44.20679" lon="4.30709">
        <ele>235</ele>
        <time>2016-03-30T07:22:29Z</time>
      </trkpt>
      <trkpt lat="44.20675" lon="4.30702">
        <ele>235</ele>
        <time>2016-03-30T07:24:29Z</time>
      </trkpt>
      <trkpt lat="44.20667" lon="4.3069">
        <ele>234</ele>
        <time>2016-03-30T07:26:29Z</time>
      </trkpt>
      <trkpt lat="44.20659" lon="4.30679">
        <ele>234</ele>
        <time>2016-03-30T07:28:29Z</time>
      </trkpt>
      <trkpt lat="44.20652" lon="4.30669">
        <ele>234</ele>
        <time>2016-03-30T07:30:29Z</time>
      </trkpt>
      <trkpt lat="44.20649" lon="4.30664">
        <ele>234</ele>
        <time>2016-03-30T07:32:29Z</time>
      </trkpt>
      <trkpt lat="44.20645" lon="4.30654">
        <ele>234</ele>
        <time>2016-03-30T07:34:29Z</time>
      </trkpt>
      <trkpt lat="44.20641" lon="4.30641">
        <ele>234</ele>
        <time>2016-03-30T07:36:29Z</time>
      </trkpt>
      <trkpt lat="44.20632" lon="4.30608">
        <ele>235</ele>
        <time>2016-03-30T07:38:29Z</time>
      </trkpt>
      <trkpt lat="44.20622" lon="4.30574">
        <ele>234</ele>
        <time>2016-03-30T07:40:29Z</time>
      </trkpt>
      <trkpt lat="44.2061" lon="4.3053">
        <ele>233</ele>
        <time>2016-03-30T07:42:29Z</time>
      </trkpt>
      <trkpt lat="44.20607" lon="4.30516">
        <ele>232</ele>
        <time>2016-03-30T07:44:29Z</time>
      </trkpt>
      <trkpt lat="44.20606" lon="4.30507">
        <ele>232</ele>
        <time>2016-03-30T07:46:29Z</time>
      </trkpt>
      <trkpt lat="44.20606" lon="4.30496">
        <ele>233</ele>
        <time>2016-03-30T07:48:29Z</time>
      </trkpt>
      <trkpt lat="44.20604" lon="4.30458">
        <ele>232</ele>
        <time>2016-03-30T07:50:29Z</time>
      </trkpt>
      <trkpt lat="44.20604" lon="4.30445">
        <ele>232</ele>
        <time>2016-03-30T07:52:29Z</time>
      </trkpt>
      <trkpt lat="44.20604" lon="4.3043">
        <ele>232</ele>
        <time>2016-03-30T07:54:29Z</time>
      </trkpt>
      <trkpt lat="44.20605" lon="4.30405">
        <ele>233</ele>
        <time>2016-03-30T07:56:29Z</time>
      </trkpt>
      <trkpt lat="44.20604" lon="4.30387">
        <ele>233</ele>
        <time>2016-03-30T07:58:29Z</time>
      </trkpt>
      <trkpt lat="44.20603" lon="4.30365">
        <ele>233</ele>
        <time>2016-03-30T08:00:29Z</time>
      </trkpt>
      <trkpt lat="44.20601" lon="4.30339">
        <ele>233</ele>
        <time>2016-03-30T08:02:29Z</time>
      </trkpt>
      <trkpt lat="44.206" lon="4.3032">
        <ele>232</ele>
        <time>2016-03-30T08:04:29Z</time>
      </trkpt>
      <trkpt lat="44.206" lon="4.30309">
        <ele>232</ele>
        <time>2016-03-30T08:06:29Z</time>
      </trkpt>
      <trkpt lat="44.20601" lon="4.303">
        <ele>231</ele>
        <time>2016-03-30T08:08:29Z</time>
      </trkpt>
      <trkpt lat="44.20603" lon="4.30288">
        <ele>231</ele>
        <time>2016-03-30T08:10:29Z</time>
      </trkpt>
      <trkpt lat="44.20607" lon="4.30273">
        <ele>231</ele>
        <time>2016-03-30T08:12:29Z</time>
      </trkpt>
      <trkpt lat="44.20612" lon="4.30258">
        <ele>232</ele>
        <time>2016-03-30T08:14:29Z</time>
      </trkpt>
      <trkpt lat="44.20618" lon="4.30243">
        <ele>231</ele>
        <time>2016-03-30T08:16:29Z</time>
      </trkpt>
      <trkpt lat="44.20624" lon="4.30232">
        <ele>231</ele>
        <time>2016-03-30T08:18:29Z</time>
      </trkpt>
      <trkpt lat="44.20629" lon="4.30225">
        <ele>230</ele>
        <time>2016-03-30T08:20:29Z</time>
      </trkpt>
      <trkpt lat="44.20638" lon="4.30218">
        <ele>231</ele>
        <time>2016-03-30T08:22:29Z</time>
      </trkpt>
      <trkpt lat="44.20645" lon="4.30215">
        <ele>232</ele>
        <time>2016-03-30T08:24:29Z</time>
      </trkpt>
      <trkpt lat="44.20652" lon="4.30215">
        <ele>233</ele>
        <time>2016-03-30T08:26:29Z</time>
      </trkpt>
      <trkpt lat="44.20658" lon="4.30218">
        <ele>234</ele>
        <time>2016-03-30T08:28:29Z</time>
      </trkpt>
      <trkpt lat="44.20662" lon="4.30223">
        <ele>236</ele>
        <time>2016-03-30T08:30:29Z</time>
      </trkpt>
      <trkpt lat="44.20666" lon="4.3023">
        <ele>239</ele>
        <time>2016-03-30T08:32:29Z</time>
      </trkpt>
      <trkpt lat="44.20669" lon="4.30239">
        <ele>240</ele>
        <time>2016-03-30T08:34:29Z</time>
      </trkpt>
      <trkpt lat="44.20672" lon="4.30259">
        <ele>243</ele>
        <time>2016-03-30T08:36:29Z</time>
      </trkpt>
      <trkpt lat="44.20675" lon="4.30277">
        <ele>244</ele>
        <time>2016-03-30T08:38:29Z</time>
      </trkpt>
      <trkpt lat="44.20677" lon="4.30288">
        <ele>244</ele>
        <time>2016-03-30T08:40:29Z</time>
      </trkpt>
      <trkpt lat="44.2068" lon="4.30298">
        <ele>244</ele>
        <time>2016-03-30T08:42:29Z</time>
      </trkpt>
      <trkpt lat="44.20687" lon="4.30312">
        <ele>244</ele>
        <time>2016-03-30T08:44:29Z</time>
      </trkpt>
      <trkpt lat="44.20692" lon="4.30324">
        <ele>243</ele>
        <time>2016-03-30T08:46:29Z</time>
      </trkpt>
      <trkpt lat="44.20694" lon="4.3033">
        <ele>243</ele>
        <time>2016-03-30T08:48:29Z</time>
      </trkpt>
      <trkpt lat="44.20695" lon="4.30337">
        <ele>243</ele>
        <time>2016-03-30T08:50:29Z</time>
      </trkpt>
      <trkpt lat="44.20698" lon="4.30355">
        <ele>243</ele>
        <time>2016-03-30T08:52:29Z</time>
      </trkpt>
      <trkpt lat="44.20701" lon="4.30387">
        <ele>243</ele>
        <time>2016-03-30T08:54:29Z</time>
      </trkpt>
      <trkpt lat="44.20704" lon="4.30416">
        <ele>244</ele>
        <time>2016-03-30T08:56:29Z</time>
      </trkpt>
      <trkpt lat="44.20707" lon="4.30443">
        <ele>245</ele>
        <time>2016-03-30T08:58:29Z</time>
      </trkpt>
      <trkpt lat="44.2071" lon="4.30472">
        <ele>245</ele>
        <time>2016-03-30T09:00:29Z</time>
      </trkpt>
      <trkpt lat="44.20714" lon="4.30498">
        <ele>246</ele>
        <time>2016-03-30T09:02:29Z</time>
      </trkpt>
      <trkpt lat="44.2072" lon="4.30529">
        <ele>247</ele>
        <time>2016-03-30T09:04:29Z</time>
      </trkpt>
      <trkpt lat="44.20726" lon="4.30561">
        <ele>249</ele>
        <time>2016-03-30T09:06:29Z</time>
      </trkpt>
      <trkpt lat="44.2073" lon="4.30582">
        <ele>250</ele>
        <time>2016-03-30T09:08:29Z</time>
      </trkpt>
      <trkpt lat="44.20733" lon="4.30595">
        <ele>251</ele>
        <time>2016-03-30T09:10:29Z</time>
      </trkpt>
      <trkpt lat="44.20737" lon="4.3061">
        <ele>251</ele>
        <time>2016-03-30T09:12:29Z</time>
      </trkpt>
      <trkpt lat="44.20747" lon="4.30645">
        <ele>253</ele>
        <time>2016-03-30T09:14:29Z</time>
      </trkpt>
      <trkpt lat="44.20758" lon="4.30683">
        <ele>252</ele>
        <time>2016-03-30T09:16:29Z</time>
      </trkpt>
      <trkpt lat="44.20766" lon="4.30714">
        <ele>250</ele>
        <time>2016-03-30T09:18:29Z</time>
      </trkpt>
      <trkpt lat="44.20769" lon="4.30727">
        <ele>249</ele>
        <time>2016-03-30T09:20:29Z</time>
      </trkpt>
      <trkpt lat="44.20771" lon="4.30739">
        <ele>249</ele>
        <time>2016-03-30T09:22:29Z</time>
      </trkpt>
      <trkpt lat="44.20772" lon="4.30754">
        <ele>250</ele>
        <time>2016-03-30T09:24:29Z</time>
      </trkpt>
      <trkpt lat="44.20773" lon="4.30772">
        <ele>251</ele>
        <time>2016-03-30T09:26:29Z</time>
      </trkpt>
      <trkpt lat="44.20773" lon="4.30787">
        <ele>252</ele>
        <time>2016-03-30T09:28:29Z</time>
      </trkpt>
      <trkpt lat="44.20772" lon="4.30801">
        <ele>253</ele>
        <time>2016-03-30T09:30:29Z</time>
      </trkpt>
      <trkpt lat="44.20771" lon="4.30814">
        <ele>254</ele>
        <time>2016-03-30T09:32:29Z</time>
      </trkpt>
      <trkpt lat="44.2077" lon="4.30823">
        <ele>255</ele>
        <time>2016-03-30T09:34:29Z</time>
      </trkpt>
      <trkpt lat="44.20767" lon="4.30835">
        <ele>256</ele>
        <time>2016-03-30T09:36:29Z</time>
      </trkpt>
      <trkpt lat="44.20764" lon="4.3085">
        <ele>259</ele>
        <time>2016-03-30T09:38:29Z</time>
      </trkpt>
      <trkpt lat="44.20758" lon="4.30878">
        <ele>264</ele>
        <time>2016-03-30T09:40:29Z</time>
      </trkpt>
      <trkpt lat="44.20755" lon="4.30891">
        <ele>267</ele>
        <time>2016-03-30T09:42:29Z</time>
      </trkpt>
      <trkpt lat="44.20752" lon="4.30899">
        <ele>269</ele>
        <time>2016-03-30T09:44:29Z</time>
      </trkpt>
      <trkpt lat="44.2075" lon="4.30907">
        <ele>271</ele>
        <time>2016-03-30T09:46:29Z</time>
      </trkpt>
      <trkpt lat="44.20748" lon="4.30913">
        <ele>272</ele>
        <time>2016-03-30T09:48:29Z</time>
      </trkpt>
      <trkpt lat="44.20744" lon="4.30923">
        <ele>272</ele>
        <time>2016-03-30T09:50:29Z</time>
      </trkpt>
      <trkpt lat="44.20738" lon="4.30934">
        <ele>273</ele>
        <time>2016-03-30T09:52:29Z</time>
      </trkpt>
      <trkpt lat="44.20725" lon="4.30959">
        <ele>275</ele>
        <time>2016-03-30T09:54:29Z</time>
      </trkpt>
      <trkpt lat="44.20702" lon="4.30998">
        <ele>278</ele>
        <time>2016-03-30T09:56:29Z</time>
      </trkpt>
      <trkpt lat="44.20695" lon="4.31011">
        <ele>278</ele>
        <time>2016-03-30T09:58:29Z</time>
      </trkpt>
      <trkpt lat="44.20681" lon="4.31038">
        <ele>281</ele>
        <time>2016-03-30T10:00:29Z</time>
      </trkpt>
      <trkpt lat="44.20649" lon="4.311">
        <ele>287</ele>
        <time>2016-03-30T10:02:29Z</time>
      </trkpt>
      <trkpt lat="44.20639" lon="4.31117">
        <ele>287</ele>
        <time>2016-03-30T10:04:29Z</time>
      </trkpt>
      <trkpt lat="44.20632" lon="4.3113">
        <ele>288</ele>
        <time>2016-03-30T10:06:29Z</time>
      </trkpt>
      <trkpt lat="44.20623" lon="4.31146">
        <ele>289</ele>
        <time>2016-03-30T10:08:29Z</time>
      </trkpt>
      <trkpt lat="44.20617" lon="4.31155">
        <ele>289</ele>
        <time>2016-03-30T10:10:29Z</time>
      </trkpt>
      <trkpt lat="44.20611" lon="4.31163">
        <ele>289</ele>
        <time>2016-03-30T10:12:29Z</time>
      </trkpt>
      <trkpt lat="44.20605" lon="4.31173">
        <ele>289</ele>
        <time>2016-03-30T10:14:29Z</time>
      </trkpt>
      <trkpt lat="44.20598" lon="4.31183">
        <ele>289</ele>
        <time>2016-03-30T10:16:29Z</time>
      </trkpt>
      <trkpt lat="44.20575" lon="4.31216">
        <ele>290</ele>
        <time>2016-03-30T10:18:29Z</time>
      </trkpt>
      <trkpt lat="44.20561" lon="4.31235">
        <ele>292</ele>
        <time>2016-03-30T10:20:29Z</time>
      </trkpt>
      <trkpt lat="44.20547" lon="4.31252">
        <ele>292</ele>
        <time>2016-03-30T10:22:29Z</time>
      </trkpt>
      <trkpt lat="44.20536" lon="4.31265">
        <ele>292</ele>
        <time>2016-03-30T10:24:29Z</time>
      </trkpt>
      <trkpt lat="44.2053" lon="4.31271">
        <ele>292</ele>
        <time>2016-03-30T10:26:29Z</time>
      </trkpt>
      <trkpt lat="44.20525" lon="4.31275">
        <ele>292</ele>
        <time>2016-03-30T10:28:29Z</time>
      </trkpt>
      <trkpt lat="44.20514" lon="4.31285">
        <ele>293</ele>
        <time>2016-03-30T10:30:29Z</time>
      </trkpt>
      <trkpt lat="44.20504" lon="4.31292">
        <ele>294</ele>
        <time>2016-03-30T10:32:29Z</time>
      </trkpt>
      <trkpt lat="44.20496" lon="4.31299">
        <ele>295</ele>
        <time>2016-03-30T10:34:29Z</time>
      </trkpt>
      <trkpt lat="44.2049" lon="4.31305">
        <ele>296</ele>
        <time>2016-03-30T10:36:29Z</time>
      </trkpt>
      <trkpt lat="44.20481" lon="4.31315">
        <ele>298</ele>
        <time>2016-03-30T10:38:29Z</time>
      </trkpt>
      <trkpt lat="44.20475" lon="4.31321">
        <ele>300</ele>
        <time>2016-03-30T10:40:29Z</time>
      </trkpt>
      <trkpt lat="44.20467" lon="4.31326">
        <ele>300</ele>
        <time>2016-03-30T10:42:29Z</time>
      </trkpt>
      <trkpt lat="44.20462" lon="4.31329">
        <ele>301</ele>
        <time>2016-03-30T10:44:29Z</time>
      </trkpt>
      <trkpt lat="44.20457" lon="4.31332">
        <ele>302</ele>
        <time>2016-03-30T10:46:29Z</time>
      </trkpt>
      <trkpt lat="44.20454" lon="4.31336">
        <ele>302</ele>
        <time>2016-03-30T10:48:29Z</time>
      </trkpt>
      <trkpt lat="44.20441" lon="4.31341">
        <ele>303</ele>
        <time>2016-03-30T10:50:29Z</time>
      </trkpt>
      <trkpt lat="44.20424" lon="4.31347">
        <ele>303</ele>
        <time>2016-03-30T10:52:29Z</time>
      </trkpt>
      <trkpt lat="44.20415" lon="4.31348">
        <ele>303</ele>
        <time>2016-03-30T10:54:29Z</time>
      </trkpt>
      <trkpt lat="44.20399" lon="4.31349">
        <ele>305</ele>
        <time>2016-03-30T10:56:29Z</time>
      </trkpt>
      <trkpt lat="44.20382" lon="4.31348">
        <ele>306</ele>
        <time>2016-03-30T10:58:29Z</time>
      </trkpt>
      <trkpt lat="44.20356" lon="4.31343">
        <ele>306</ele>
        <time>2016-03-30T11:00:29Z</time>
      </trkpt>
      <trkpt lat="44.20338" lon="4.3134">
        <ele>307</ele>
        <time>2016-03-30T11:02:29Z</time>
      </trkpt>
      <trkpt lat="44.20329" lon="4.31339">
        <ele>307</ele>
        <time>2016-03-30T11:04:29Z</time>
      </trkpt>
      <trkpt lat="44.2032" lon="4.31339">
        <ele>307</ele>
        <time>2016-03-30T11:06:29Z</time>
      </trkpt>
      <trkpt lat="44.20311" lon="4.3134">
        <ele>308</ele>
        <time>2016-03-30T11:08:29Z</time>
      </trkpt>
      <trkpt lat="44.20302" lon="4.31341">
        <ele>309</ele>
        <time>2016-03-30T11:10:29Z</time>
      </trkpt>
      <trkpt lat="44.2029" lon="4.31342">
        <ele>310</ele>
        <time>2016-03-30T11:12:29Z</time>
      </trkpt>
      <trkpt lat="44.20274" lon="4.31344">
        <ele>312</ele>
        <time>2016-03-30T11:14:29Z</time>
      </trkpt>
      <trkpt lat="44.20257" lon="4.31344">
        <ele>313</ele>
        <time>2016-03-30T11:16:29Z</time>
      </trkpt>
      <trkpt lat="44.20232" lon="4.31344">
        <ele>315</ele>
        <time>2016-03-30T11:18:29Z</time>
      </trkpt>
      <trkpt lat="44.2021" lon="4.31344">
        <ele>317</ele>
        <time>2016-03-30T11:20:29Z</time>
      </trkpt>
      <trkpt lat="44.20197" lon="4.31342">
        <ele>318</ele>
        <time>2016-03-30T11:22:29Z</time>
      </trkpt>
      <trkpt lat="44.20184" lon="4.31341">
        <ele>319</ele>
        <time>2016-03-30T11:24:29Z</time>
      </trkpt>
      <trkpt lat="44.20172" lon="4.31339">
        <ele>319</ele>
        <time>2016-03-30T11:26:29Z</time>
      </trkpt>
      <trkpt lat="44.20163" lon="4.31336">
        <ele>320</ele>
        <time>2016-03-30T11:28:29Z</time>
      </trkpt>
      <trkpt lat="44.20154" lon="4.31332">
        <ele>320</ele>
        <time>2016-03-30T11:30:29Z</time>
      </trkpt>
      <trkpt lat="44.20144" lon="4.31325">
        <ele>321</ele>
        <time>2016-03-30T11:32:29Z</time>
      </trkpt>
      <trkpt lat="44.20135" lon="4.31318">
        <ele>322</ele>
        <time>2016-03-30T11:34:29Z</time>
      </trkpt>
      <trkpt lat="44.20124" lon="4.3131">
        <ele>322</ele>
        <time>2016-03-30T11:36:29Z</time>
      </trkpt>
      <trkpt lat="44.20115" lon="4.31302">
        <ele>323</ele>
        <time>2016-03-30T11:38:29Z</time>
      </trkpt>
      <trkpt lat="44.20105" lon="4.31297">
        <ele>323</ele>
        <time>2016-03-30T11:40:29Z</time>
      </trkpt>
      <trkpt lat="44.20093" lon="4.31293">
        <ele>324</ele>
        <time>2016-03-30T11:42:29Z</time>
      </trkpt>
      <trkpt lat="44.20073" lon="4.31286">
        <ele>325</ele>
        <time>2016-03-30T11:44:29Z</time>
      </trkpt>
      <trkpt lat="44.20059" lon="4.3128">
        <ele>325</ele>
        <time>2016-03-30T11:46:29Z</time>
      </trkpt>
      <trkpt lat="44.2005" lon="4.3128">
        <ele>326</ele>
        <time>2016-03-30T11:48:29Z</time>
      </trkpt>
      <trkpt lat="44.20041" lon="4.3128">
        <ele>327</ele>
        <time>2016-03-30T11:50:29Z</time>
      </trkpt>
      <trkpt lat="44.20033" lon="4.31282">
        <ele>328</ele>
        <time>2016-03-30T11:52:29Z</time>
      </trkpt>
      <trkpt lat="44.20024" lon="4.31285">
        <ele>329</ele>
        <time>2016-03-30T11:54:29Z</time>
      </trkpt>
      <trkpt lat="44.20017" lon="4.31288">
        <ele>331</ele>
        <time>2016-03-30T11:56:29Z</time>
      </trkpt>
      <trkpt lat="44.2001" lon="4.31288">
        <ele>331</ele>
        <time>2016-03-30T11:58:29Z</time>
      </trkpt>
      <trkpt lat="44.20005" lon="4.31285">
        <ele>331</ele>
        <time>2016-03-30T12:00:29Z</time>
      </trkpt>
      <trkpt lat="44.2" lon="4.31279">
        <ele>331</ele>
        <time>2016-03-30T12:02:29Z</time>
      </trkpt>
      <trkpt lat="44.19994" lon="4.31269">
        <ele>329</ele>
        <time>2016-03-30T12:04:29Z</time>
      </trkpt>
      <trkpt lat="44.19986" lon="4.31259">
        <ele>328</ele>
        <time>2016-03-30T12:06:29Z</time>
      </trkpt>
      <trkpt lat="44.1998" lon="4.31253">
        <ele>328</ele>
        <time>2016-03-30T12:08:29Z</time>
      </trkpt>
      <trkpt lat="44.1997" lon="4.31249">
        <ele>328</ele>
        <time>2016-03-30T12:10:29Z</time>
      </trkpt>
      <trkpt lat="44.19957" lon="4.31247">
        <ele>330</ele>
        <time>2016-03-30T12:12:29Z</time>
      </trkpt>
      <trkpt lat="44.19946" lon="4.31244">
        <ele>331</ele>
        <time>2016-03-30T12:14:29Z</time>
      </trkpt>
      <trkpt lat="44.19938" lon="4.31244">
        <ele>332</ele>
        <time>2016-03-30T12:16:29Z</time>
      </trkpt>
      <trkpt lat="44.19929" lon="4.31245">
        <ele>333</ele>
        <time>2016-03-30T12:18:29Z</time>
      </trkpt>
      <trkpt lat="44.1992" lon="4.31246">
        <ele>334</ele>
        <time>2016-03-30T12:20:29Z</time>
      </trkpt>
      <trkpt lat="44.19906" lon="4.3125">
        <ele>335</ele>
        <time>2016-03-30T12:22:29Z</time>
      </trkpt>
      <trkpt lat="44.19886" lon="4.31254">
        <ele>337</ele>
        <time>2016-03-30T12:24:29Z</time>
      </trkpt>
      <trkpt lat="44.19873" lon="4.31257">
        <ele>338</ele>
        <time>2016-03-30T12:26:29Z</time>
      </trkpt>
      <trkpt lat="44.19861" lon="4.31261">
        <ele>340</ele>
        <time>2016-03-30T12:28:29Z</time>
      </trkpt>
      <trkpt lat="44.19851" lon="4.31265">
        <ele>341</ele>
        <time>2016-03-30T12:30:29Z</time>
      </trkpt>
      <trkpt lat="44.19842" lon="4.31268">
        <ele>342</ele>
        <time>2016-03-30T12:32:29Z</time>
      </trkpt>
      <trkpt lat="44.19834" lon="4.31268">
        <ele>343</ele>
        <time>2016-03-30T12:34:29Z</time>
      </trkpt>
      <trkpt lat="44.19831" lon="4.31267">
        <ele>343</ele>
        <time>2016-03-30T12:36:29Z</time>
      </trkpt>
      <trkpt lat="44.19827" lon="4.31266">
        <ele>342</ele>
        <time>2016-03-30T12:38:29Z</time>
      </trkpt>
      <trkpt lat="44.19821" lon="4.31262">
        <ele>341</ele>
        <time>2016-03-30T12:40:29Z</time>
      </trkpt>
      <trkpt lat="44.19813" lon="4.3126">
        <ele>339</ele>
        <time>2016-03-30T12:42:29Z</time>
      </trkpt>
      <trkpt lat="44.19807" lon="4.31261">
        <ele>339</ele>
        <time>2016-03-30T12:44:29Z</time>
      </trkpt>
      <trkpt lat="44.19801" lon="4.31263">
        <ele>339</ele>
        <time>2016-03-30T12:46:29Z</time>
      </trkpt>
      <trkpt lat="44.19786" lon="4.31272">
        <ele>339</ele>
        <time>2016-03-30T12:48:29Z</time>
      </trkpt>
      <trkpt lat="44.19773" lon="4.31278">
        <ele>339</ele>
        <time>2016-03-30T12:50:29Z</time>
      </trkpt>
      <trkpt lat="44.1976" lon="4.31285">
        <ele>340</ele>
        <time>2016-03-30T12:52:29Z</time>
      </trkpt>
      <trkpt lat="44.19751" lon="4.31288">
        <ele>340</ele>
        <time>2016-03-30T12:54:29Z</time>
      </trkpt>
      <trkpt lat="44.19747" lon="4.3129">
        <ele>340</ele>
        <time>2016-03-30T12:56:29Z</time>
      </trkpt>
      <trkpt lat="44.19733" lon="4.31294">
        <ele>339</ele>
        <time>2016-03-30T12:58:29Z</time>
      </trkpt>
      <trkpt lat="44.19715" lon="4.31299">
        <ele>337</ele>
        <time>2016-03-30T13:00:29Z</time>
      </trkpt>
      <trkpt lat="44.19694" lon="4.31305">
        <ele>335</ele>
        <time>2016-03-30T13:02:29Z</time>
      </trkpt>
      <trkpt lat="44.19681" lon="4.3131">
        <ele>334</ele>
        <time>2016-03-30T13:04:29Z</time>
      </trkpt>
      <trkpt lat="44.19667" lon="4.31317">
        <ele>334</ele>
        <time>2016-03-30T13:06:29Z</time>
      </trkpt>
      <trkpt lat="44.19654" lon="4.31325">
        <ele>333</ele>
        <time>2016-03-30T13:08:29Z</time>
      </trkpt>
      <trkpt lat="44.19648" lon="4.31329">
        <ele>332</ele>
        <time>2016-03-30T13:10:29Z</time>
      </trkpt>
      <trkpt lat="44.19637" lon="4.31339">
        <ele>333</ele>
        <time>2016-03-30T13:12:29Z</time>
      </trkpt>
      <trkpt lat="44.19636" lon="4.3134">
        <ele>333</ele>
        <time>2016-03-30T13:14:29Z</time>
      </trkpt>
      <trkpt lat="44.1963" lon="4.31347">
        <ele>333</ele>
        <time>2016-03-30T13:16:29Z</time>
      </trkpt>
      <trkpt lat="44.19616" lon="4.31366">
        <ele>335</ele>
        <time>2016-03-30T13:18:29Z</time>
      </trkpt>
      <trkpt lat="44.19599" lon="4.3139">
        <ele>336</ele>
        <time>2016-03-30T13:20:29Z</time>
      </trkpt>
      <trkpt lat="44.19584" lon="4.31408">
        <ele>334</ele>
        <time>2016-03-30T13:22:29Z</time>
      </trkpt>
      <trkpt lat="44.19567" lon="4.31427">
        <ele>334</ele>
        <time>2016-03-30T13:24:29Z</time>
      </trkpt>
      <trkpt lat="44.1955" lon="4.31446">
        <ele>332</ele>
        <time>2016-03-30T13:26:29Z</time>
      </trkpt>
      <trkpt lat="44.19508" lon="4.31499">
        <ele>328</ele>
        <time>2016-03-30T13:28:29Z</time>
      </trkpt>
      <trkpt lat="44.19493" lon="4.31521">
        <ele>327</ele>
        <time>2016-03-30T13:30:29Z</time>
      </trkpt>
      <trkpt lat="44.19484" lon="4.31537">
        <ele>328</ele>
        <time>2016-03-30T13:32:29Z</time>
      </trkpt>
      <trkpt lat="44.19478" lon="4.31547">
        <ele>328</ele>
        <time>2016-03-30T13:34:29Z</time>
      </trkpt>
      <trkpt lat="44.1947" lon="4.31559">
        <ele>329</ele>
        <time>2016-03-30T13:36:29Z</time>
      </trkpt>
      <trkpt lat="44.19462" lon="4.31567">
        <ele>328</ele>
        <time>2016-03-30T13:38:29Z</time>
      </trkpt>
      <trkpt lat="44.19454" lon="4.31573">
        <ele>328</ele>
        <time>2016-03-30T13:40:29Z</time>
      </trkpt>
      <trkpt lat="44.19443" lon="4.31579">
        <ele>327</ele>
        <time>2016-03-30T13:42:29Z</time>
      </trkpt>
      <trkpt lat="44.19429" lon="4.31583">
        <ele>326</ele>
        <time>2016-03-30T13:44:29Z</time>
      </trkpt>
      <trkpt lat="44.19417" lon="4.31587">
        <ele>325</ele>
        <time>2016-03-30T13:46:29Z</time>
      </trkpt>
      <trkpt lat="44.19407" lon="4.31591">
        <ele>326</ele>
        <time>2016-03-30T13:48:29Z</time>
      </trkpt>
      <trkpt lat="44.194" lon="4.31594">
        <ele>326</ele>
        <time>2016-03-30T13:50:29Z</time>
      </trkpt>
      <trkpt lat="44.19394" lon="4.31597">
        <ele>326</ele>
        <time>2016-03-30T13:52:29Z</time>
      </trkpt>
      <trkpt lat="44.19385" lon="4.31603">
        <ele>327</ele>
        <time>2016-03-30T13:54:29Z</time>
      </trkpt>
      <trkpt lat="44.19369" lon="4.31615">
        <ele>328</ele>
        <time>2016-03-30T13:56:29Z</time>
      </trkpt>
      <trkpt lat="44.1935" lon="4.31629">
        <ele>328</ele>
        <time>2016-03-30T13:58:29Z</time>
      </trkpt>
      <trkpt lat="44.19337" lon="4.31639">
        <ele>329</ele>
        <time>2016-03-30T14:00:29Z</time>
      </trkpt>
      <trkpt lat="44.19326" lon="4.31646">
        <ele>329</ele>
        <time>2016-03-30T14:02:29Z</time>
      </trkpt>
      <trkpt lat="44.19315" lon="4.31652">
        <ele>330</ele>
        <time>2016-03-30T14:04:29Z</time>
      </trkpt>
      <trkpt lat="44.19313" lon="4.31655">
        <ele>330</ele>
        <time>2016-03-30T14:06:29Z</time>
      </trkpt>
      <trkpt lat="44.19309" lon="4.31659">
        <ele>330</ele>
        <time>2016-03-30T14:08:29Z</time>
      </trkpt>
      <trkpt lat="44.19307" lon="4.31661">
        <ele>330</ele>
        <time>2016-03-30T14:10:29Z</time>
      </trkpt>
      <trkpt lat="44.19305" lon="4.31664">
        <ele>330</ele>
        <time>2016-03-30T14:12:29Z</time>
      </trkpt>
      <trkpt lat="44.19305" lon="4.31666">
        <ele>330</ele>
        <time>2016-03-30T14:14:29Z</time>
      </trkpt>
      <trkpt lat="44.19302" lon="4.31671">
        <ele>330</ele>
        <time>2016-03-30T14:16:29Z</time>
      </trkpt>
      <trkpt lat="44.19301" lon="4.31676">
        <ele>330</ele>
        <time>2016-03-30T14:18:29Z</time>
      </trkpt>
      <trkpt lat="44.193" lon="4.31683">
        <ele>330</ele>
        <time>2016-03-30T14:20:29Z</time>
      </trkpt>
      <trkpt lat="44.19301" lon="4.31716">
        <ele>330</ele>
        <time>2016-03-30T14:22:29Z</time>
      </trkpt>
      <trkpt lat="44.19301" lon="4.31735">
        <ele>329</ele>
        <time>2016-03-30T14:24:29Z</time>
      </trkpt>
      <trkpt lat="44.19302" lon="4.31757">
        <ele>329</ele>
        <time>2016-03-30T14:26:29Z</time>
      </trkpt>
      <trkpt lat="44.19302" lon="4.31763">
        <ele>329</ele>
        <time>2016-03-30T14:28:29Z</time>
      </trkpt>
      <trkpt lat="44.19303" lon="4.31771">
        <ele>329</ele>
        <time>2016-03-30T14:30:29Z</time>
      </trkpt>
      <trkpt lat="44.19305" lon="4.31781">
        <ele>328</ele>
        <time>2016-03-30T14:32:29Z</time>
      </trkpt>
      <trkpt lat="44.19309" lon="4.31792">
        <ele>328</ele>
        <time>2016-03-30T14:34:29Z</time>
      </trkpt>
      <trkpt lat="44.19313" lon="4.318">
        <ele>328</ele>
        <time>2016-03-30T14:36:29Z</time>
      </trkpt>
      <trkpt lat="44.19324" lon="4.31826">
        <ele>328</ele>
        <time>2016-03-30T14:38:29Z</time>
      </trkpt>
      <trkpt lat="44.19327" lon="4.31831">
        <ele>328</ele>
        <time>2016-03-30T14:40:29Z</time>
      </trkpt>
      <trkpt lat="44.19328" lon="4.31836">
        <ele>328</ele>
        <time>2016-03-30T14:42:29Z</time>
      </trkpt>
      <trkpt lat="44.1933" lon="4.3184">
        <ele>328</ele>
        <time>2016-03-30T14:44:29Z</time>
      </trkpt>
      <trkpt lat="44.19331" lon="4.31844">
        <ele>328</ele>
        <time>2016-03-30T14:46:29Z</time>
      </trkpt>
      <trkpt lat="44.19331" lon="4.31847">
        <ele>328</ele>
        <time>2016-03-30T14:48:29Z</time>
      </trkpt>
      <trkpt lat="44.19331" lon="4.31851">
        <ele>328</ele>
        <time>2016-03-30T14:50:29Z</time>
      </trkpt>
      <trkpt lat="44.19331" lon="4.31854">
        <ele>328</ele>
        <time>2016-03-30T14:52:29Z</time>
      </trkpt>
      <trkpt lat="44.1933" lon="4.3186">
        <ele>329</ele>
        <time>2016-03-30T14:54:29Z</time>
      </trkpt>
      <trkpt lat="44.19329" lon="4.31865">
        <ele>329</ele>
        <time>2016-03-30T14:56:29Z</time>
      </trkpt>
      <trkpt lat="44.19327" lon="4.31869">
        <ele>329</ele>
        <time>2016-03-30T14:58:29Z</time>
      </trkpt>
      <trkpt lat="44.19325" lon="4.31875">
        <ele>329</ele>
        <time>2016-03-30T15:00:29Z</time>
      </trkpt>
      <trkpt lat="44.19321" lon="4.31881">
        <ele>329</ele>
        <time>2016-03-30T15:02:29Z</time>
      </trkpt>
      <trkpt lat="44.19317" lon="4.31887">
        <ele>329</ele>
        <time>2016-03-30T15:04:29Z</time>
      </trkpt>
      <trkpt lat="44.1931" lon="4.31894">
        <ele>329</ele>
        <time>2016-03-30T15:06:29Z</time>
      </trkpt>
      <trkpt lat="44.19306" lon="4.31899">
        <ele>329</ele>
        <time>2016-03-30T15:08:29Z</time>
      </trkpt>
      <trkpt lat="44.19298" lon="4.31909">
        <ele>329</ele>
        <time>2016-03-30T15:10:29Z</time>
      </trkpt>
      <trkpt lat="44.19289" lon="4.31922">
        <ele>330</ele>
        <time>2016-03-30T15:12:29Z</time>
      </trkpt>
      <trkpt lat="44.19284" lon="4.31929">
        <ele>330</ele>
        <time>2016-03-30T15:14:29Z</time>
      </trkpt>
      <trkpt lat="44.19278" lon="4.31938">
        <ele>331</ele>
        <time>2016-03-30T15:16:29Z</time>
      </trkpt>
      <trkpt lat="44.19274" lon="4.31947">
        <ele>331</ele>
        <time>2016-03-30T15:18:29Z</time>
      </trkpt>
      <trkpt lat="44.1927" lon="4.31956">
        <ele>332</ele>
        <time>2016-03-30T15:20:29Z</time>
      </trkpt>
      <trkpt lat="44.19266" lon="4.31964">
        <ele>332</ele>
        <time>2016-03-30T15:22:29Z</time>
      </trkpt>
      <trkpt lat="44.19262" lon="4.31972">
        <ele>333</ele>
        <time>2016-03-30T15:24:29Z</time>
      </trkpt>
      <trkpt lat="44.19257" lon="4.31988">
        <ele>334</ele>
        <time>2016-03-30T15:26:29Z</time>
      </trkpt>
      <trkpt lat="44.19254" lon="4.31998">
        <ele>335</ele>
        <time>2016-03-30T15:28:29Z</time>
      </trkpt>
      <trkpt lat="44.19252" lon="4.32007">
        <ele>335</ele>
        <time>2016-03-30T15:30:29Z</time>
      </trkpt>
      <trkpt lat="44.19251" lon="4.32012">
        <ele>335</ele>
        <time>2016-03-30T15:32:29Z</time>
      </trkpt>
      <trkpt lat="44.1925" lon="4.32017">
        <ele>335</ele>
        <time>2016-03-30T15:34:29Z</time>
      </trkpt>
      <trkpt lat="44.19248" lon="4.32026">
        <ele>335</ele>
        <time>2016-03-30T15:36:29Z</time>
      </trkpt>
      <trkpt lat="44.19246" lon="4.32035">
        <ele>335</ele>
        <time>2016-03-30T15:38:29Z</time>
      </trkpt>
      <trkpt lat="44.19243" lon="4.32046">
        <ele>336</ele>
        <time>2016-03-30T15:40:29Z</time>
      </trkpt>
      <trkpt lat="44.19241" lon="4.32049">
        <ele>336</ele>
        <time>2016-03-30T15:42:29Z</time>
      </trkpt>
      <trkpt lat="44.19239" lon="4.32053">
        <ele>336</ele>
        <time>2016-03-30T15:44:29Z</time>
      </trkpt>
      <trkpt lat="44.19237" lon="4.32057">
        <ele>336</ele>
        <time>2016-03-30T15:46:29Z</time>
      </trkpt>
      <trkpt lat="44.19235" lon="4.3206">
        <ele>336</ele>
        <time>2016-03-30T15:48:29Z</time>
      </trkpt>
      <trkpt lat="44.19231" lon="4.32065">
        <ele>336</ele>
        <time>2016-03-30T15:50:29Z</time>
      </trkpt>
      <trkpt lat="44.19225" lon="4.32071">
        <ele>336</ele>
        <time>2016-03-30T15:52:29Z</time>
      </trkpt>
      <trkpt lat="44.19211" lon="4.32081">
        <ele>336</ele>
        <time>2016-03-30T15:54:29Z</time>
      </trkpt>
      <trkpt lat="44.19204" lon="4.32087">
        <ele>335</ele>
        <time>2016-03-30T15:56:29Z</time>
      </trkpt>
      <trkpt lat="44.19177" lon="4.32106">
        <ele>334</ele>
        <time>2016-03-30T15:58:29Z</time>
      </trkpt>
      <trkpt lat="44.19152" lon="4.32125">
        <ele>333</ele>
        <time>2016-03-30T16:00:29Z</time>
      </trkpt>
      <trkpt lat="44.19136" lon="4.32138">
        <ele>332</ele>
        <time>2016-03-30T16:02:29Z</time>
      </trkpt>
      <trkpt lat="44.19128" lon="4.32147">
        <ele>331</ele>
        <time>2016-03-30T16:04:29Z</time>
      </trkpt>
      <trkpt lat="44.19124" lon="4.32152">
        <ele>331</ele>
        <time>2016-03-30T16:06:29Z</time>
      </trkpt>
      <trkpt lat="44.19117" lon="4.3216">
        <ele>330</ele>
        <time>2016-03-30T16:08:29Z</time>
      </trkpt>
      <trkpt lat="44.19102" lon="4.32179">
        <ele>329</ele>
        <time>2016-03-30T16:10:29Z</time>
      </trkpt>
      <trkpt lat="44.19096" lon="4.32186">
        <ele>329</ele>
        <time>2016-03-30T16:12:29Z</time>
      </trkpt>
      <trkpt lat="44.19082" lon="4.32203">
        <ele>328</ele>
        <time>2016-03-30T16:14:29Z</time>
      </trkpt>
      <trkpt lat="44.19073" lon="4.32212">
        <ele>328</ele>
        <time>2016-03-30T16:16:29Z</time>
      </trkpt>
      <trkpt lat="44.19063" lon="4.32221">
        <ele>327</ele>
        <time>2016-03-30T16:18:29Z</time>
      </trkpt>
      <trkpt lat="44.19057" lon="4.32223">
        <ele>327</ele>
        <time>2016-03-30T16:20:29Z</time>
      </trkpt>
      <trkpt lat="44.19048" lon="4.3223">
        <ele>327</ele>
        <time>2016-03-30T16:22:29Z</time>
      </trkpt>
      <trkpt lat="44.19037" lon="4.32239">
        <ele>326</ele>
        <time>2016-03-30T16:24:29Z</time>
      </trkpt>
      <trkpt lat="44.19018" lon="4.32257">
        <ele>326</ele>
        <time>2016-03-30T16:26:29Z</time>
      </trkpt>
      <trkpt lat="44.19" lon="4.32274">
        <ele>325</ele>
        <time>2016-03-30T16:28:29Z</time>
      </trkpt>
      <trkpt lat="44.18982" lon="4.32292">
        <ele>324</ele>
        <time>2016-03-30T16:30:29Z</time>
      </trkpt>
      <trkpt lat="44.1896" lon="4.32314">
        <ele>322</ele>
        <time>2016-03-30T16:32:29Z</time>
      </trkpt>
      <trkpt lat="44.18947" lon="4.32329">
        <ele>321</ele>
        <time>2016-03-30T16:34:29Z</time>
      </trkpt>
      <trkpt lat="44.18929" lon="4.32351">
        <ele>320</ele>
        <time>2016-03-30T16:36:29Z</time>
      </trkpt>
      <trkpt lat="44.18918" lon="4.32362">
        <ele>319</ele>
        <time>2016-03-30T16:38:29Z</time>
      </trkpt>
      <trkpt lat="44.18906" lon="4.32374">
        <ele>318</ele>
        <time>2016-03-30T16:40:29Z</time>
      </trkpt>
      <trkpt lat="44.18887" lon="4.3239">
        <ele>317</ele>
        <time>2016-03-30T16:42:29Z</time>
      </trkpt>
      <trkpt lat="44.18862" lon="4.32415">
        <ele>317</ele>
        <time>2016-03-30T16:44:29Z</time>
      </trkpt>
      <trkpt lat="44.18842" lon="4.32435">
        <ele>316</ele>
        <time>2016-03-30T16:46:29Z</time>
      </trkpt>
      <trkpt lat="44.18829" lon="4.32448">
        <ele>315</ele>
        <time>2016-03-30T16:48:29Z</time>
      </trkpt>
      <trkpt lat="44.18818" lon="4.32461">
        <ele>314</ele>
        <time>2016-03-30T16:50:29Z</time>
      </trkpt>
      <trkpt lat="44.18798" lon="4.32483">
        <ele>313</ele>
        <time>2016-03-30T16:52:29Z</time>
      </trkpt>
      <trkpt lat="44.18785" lon="4.32497">
        <ele>312</ele>
        <time>2016-03-30T16:54:29Z</time>
      </trkpt>
      <trkpt lat="44.18769" lon="4.32513">
        <ele>310</ele>
        <time>2016-03-30T16:56:29Z</time>
      </trkpt>
      <trkpt lat="44.18754" lon="4.32526">
        <ele>309</ele>
        <time>2016-03-30T16:58:29Z</time>
      </trkpt>
      <trkpt lat="44.18737" lon="4.32541">
        <ele>309</ele>
        <time>2016-03-30T17:00:29Z</time>
      </trkpt>
      <trkpt lat="44.18731" lon="4.32547">
        <ele>309</ele>
        <time>2016-03-30T17:02:29Z</time>
      </trkpt>
      <trkpt lat="44.18726" lon="4.32553">
        <ele>308</ele>
        <time>2016-03-30T17:04:29Z</time>
      </trkpt>
      <trkpt lat="44.18713" lon="4.32573">
        <ele>308</ele>
        <time>2016-03-30T17:06:29Z</time>
      </trkpt>
      <trkpt lat="44.18702" lon="4.32589">
        <ele>307</ele>
        <time>2016-03-30T17:08:29Z</time>
      </trkpt>
      <trkpt lat="44.18699" lon="4.32593">
        <ele>307</ele>
        <time>2016-03-30T17:10:29Z</time>
      </trkpt>
      <trkpt lat="44.18697" lon="4.32594">
        <ele>307</ele>
        <time>2016-03-30T17:12:29Z</time>
      </trkpt>
      <trkpt lat="44.18692" lon="4.32598">
        <ele>306</ele>
        <time>2016-03-30T17:14:29Z</time>
      </trkpt>
      <trkpt lat="44.18687" lon="4.32599">
        <ele>306</ele>
        <time>2016-03-30T17:16:29Z</time>
      </trkpt>
      <trkpt lat="44.18679" lon="4.32599">
        <ele>305</ele>
        <time>2016-03-30T17:18:29Z</time>
      </trkpt>
      <trkpt lat="44.18665" lon="4.32598">
        <ele>305</ele>
        <time>2016-03-30T17:20:29Z</time>
      </trkpt>
      <trkpt lat="44.18647" lon="4.32595">
        <ele>304</ele>
        <time>2016-03-30T17:22:29Z</time>
      </trkpt>
      <trkpt lat="44.18628" lon="4.3259">
        <ele>303</ele>
        <time>2016-03-30T17:24:29Z</time>
      </trkpt>
      <trkpt lat="44.18624" lon="4.3259">
        <ele>303</ele>
        <time>2016-03-30T17:26:29Z</time>
      </trkpt>
      <trkpt lat="44.18619" lon="4.3259">
        <ele>303</ele>
        <time>2016-03-30T17:28:29Z</time>
      </trkpt>
      <trkpt lat="44.18617" lon="4.32592">
        <ele>303</ele>
        <time>2016-03-30T17:30:29Z</time>
      </trkpt>
      <trkpt lat="44.18614" lon="4.32594">
        <ele>303</ele>
        <time>2016-03-30T17:32:29Z</time>
      </trkpt>
      <trkpt lat="44.1861" lon="4.32597">
        <ele>303</ele>
        <time>2016-03-30T17:34:29Z</time>
      </trkpt>
      <trkpt lat="44.18608" lon="4.32602">
        <ele>303</ele>
        <time>2016-03-30T17:36:29Z</time>
      </trkpt>
      <trkpt lat="44.18605" lon="4.32611">
        <ele>302</ele>
        <time>2016-03-30T17:38:29Z</time>
      </trkpt>
      <trkpt lat="44.186" lon="4.32635">
        <ele>302</ele>
        <time>2016-03-30T17:40:29Z</time>
      </trkpt>
      <trkpt lat="44.18597" lon="4.32647">
        <ele>302</ele>
        <time>2016-03-30T17:42:29Z</time>
      </trkpt>
      <trkpt lat="44.18594" lon="4.32655">
        <ele>301</ele>
        <time>2016-03-30T17:44:29Z</time>
      </trkpt>
      <trkpt lat="44.18584" lon="4.32682">
        <ele>301</ele>
        <time>2016-03-30T17:46:29Z</time>
      </trkpt>
      <trkpt lat="44.18577" lon="4.32697">
        <ele>301</ele>
        <time>2016-03-30T17:48:29Z</time>
      </trkpt>
      <trkpt lat="44.18573" lon="4.32705">
        <ele>300</ele>
        <time>2016-03-30T17:50:29Z</time>
      </trkpt>
      <trkpt lat="44.1857" lon="4.32712">
        <ele>300</ele>
        <time>2016-03-30T17:52:29Z</time>
      </trkpt>
      <trkpt lat="44.18563" lon="4.32725">
        <ele>300</ele>
        <time>2016-03-30T17:54:29Z</time>
      </trkpt>
      <trkpt lat="44.18554" lon="4.32743">
        <ele>299</ele>
        <time>2016-03-30T17:56:29Z</time>
      </trkpt>
      <trkpt lat="44.18547" lon="4.32757">
        <ele>299</ele>
        <time>2016-03-30T17:58:29Z</time>
      </trkpt>
      <trkpt lat="44.18545" lon="4.32761">
        <ele>298</ele>
        <time>2016-03-30T18:00:29Z</time>
      </trkpt>
      <trkpt lat="44.18541" lon="4.32772">
        <ele>298</ele>
        <time>2016-03-30T18:02:29Z</time>
      </trkpt>
      <trkpt lat="44.18533" lon="4.32786">
        <ele>298</ele>
        <time>2016-03-30T18:04:29Z</time>
      </trkpt>
      <trkpt lat="44.18523" lon="4.32801">
        <ele>297</ele>
        <time>2016-03-30T18:06:29Z</time>
      </trkpt>
      <trkpt lat="44.1852" lon="4.32806">
        <ele>297</ele>
        <time>2016-03-30T18:08:29Z</time>
      </trkpt>
      <trkpt lat="44.18515" lon="4.32813">
        <ele>296</ele>
        <time>2016-03-30T18:10:29Z</time>
      </trkpt>
      <trkpt lat="44.18508" lon="4.32824">
        <ele>296</ele>
        <time>2016-03-30T18:12:29Z</time>
      </trkpt>
      <trkpt lat="44.18508" lon="4.32825">
        <ele>296</ele>
        <time>2016-03-30T18:14:29Z</time>
      </trkpt>
      <trkpt lat="44.18505" lon="4.3283">
        <ele>295</ele>
        <time>2016-03-30T18:16:29Z</time>
      </trkpt>
      <trkpt lat="44.18503" lon="4.32834">
        <ele>295</ele>
        <time>2016-03-30T18:18:29Z</time>
      </trkpt>
      <trkpt lat="44.18498" lon="4.32844">
        <ele>295</ele>
        <time>2016-03-30T18:20:29Z</time>
      </trkpt>
      <trkpt lat="44.18489" lon="4.32861">
        <ele>295</ele>
        <time>2016-03-30T18:22:29Z</time>
      </trkpt>
      <trkpt lat="44.18485" lon="4.32869">
        <ele>295</ele>
        <time>2016-03-30T18:24:29Z</time>
      </trkpt>
      <trkpt lat="44.18484" lon="4.32871">
        <ele>295</ele>
        <time>2016-03-30T18:26:29Z</time>
      </trkpt>
      <trkpt lat="44.18482" lon="4.32877">
        <ele>295</ele>
        <time>2016-03-30T18:28:29Z</time>
      </trkpt>
      <trkpt lat="44.18479" lon="4.32886">
        <ele>295</ele>
        <time>2016-03-30T18:30:29Z</time>
      </trkpt>
      <trkpt lat="44.18475" lon="4.32894">
        <ele>295</ele>
        <time>2016-03-30T18:32:29Z</time>
      </trkpt>
      <trkpt lat="44.18472" lon="4.32899">
        <ele>295</ele>
        <time>2016-03-30T18:34:29Z</time>
      </trkpt>
      <trkpt lat="44.18469" lon="4.32904">
        <ele>295</ele>
        <time>2016-03-30T18:36:29Z</time>
      </trkpt>
      <trkpt lat="44.18464" lon="4.32911">
        <ele>295</ele>
        <time>2016-03-30T18:38:29Z</time>
      </trkpt>
      <trkpt lat="44.18456" lon="4.3292">
        <ele>294</ele>
        <time>2016-03-30T18:40:29Z</time>
      </trkpt>
      <trkpt lat="44.1845" lon="4.3293">
        <ele>294</ele>
        <time>2016-03-30T18:42:29Z</time>
      </trkpt>
      <trkpt lat="44.1845" lon="4.3293">
        <ele>294</ele>
        <time>2016-03-30T18:44:29Z</time>
      </trkpt>
      <trkpt lat="44.18453" lon="4.32931">
        <ele>294</ele>
        <time>2016-03-30T18:46:29Z</time>
      </trkpt>
      <trkpt lat="44.18455" lon="4.32934">
        <ele>294</ele>
        <time>2016-03-30T18:48:29Z</time>
      </trkpt>
      <trkpt lat="44.18458" lon="4.32937">
        <ele>294</ele>
        <time>2016-03-30T18:50:29Z</time>
      </trkpt>
      <trkpt lat="44.1846" lon="4.3294">
        <ele>294</ele>
        <time>2016-03-30T18:52:29Z</time>
      </trkpt>
      <trkpt lat="44.18464" lon="4.32945">
        <ele>294</ele>
        <time>2016-03-30T18:54:29Z</time>
      </trkpt>
      <trkpt lat="44.18466" lon="4.32949">
        <ele>294</ele>
        <time>2016-03-30T18:56:29Z</time>
      </trkpt>
      <trkpt lat="44.18467" lon="4.32951">
        <ele>294</ele>
        <time>2016-03-30T18:58:29Z</time>
      </trkpt>
      <trkpt lat="44.18467" lon="4.32957">
        <ele>294</ele>
        <time>2016-03-30T19:00:29Z</time>
      </trkpt>
      <trkpt lat="44.18468" lon="4.32966">
        <ele>294</ele>
        <time>2016-03-30T19:02:29Z</time>
      </trkpt>
      <trkpt lat="44.18468" lon="4.32973">
        <ele>294</ele>
        <time>2016-03-30T19:04:29Z</time>
      </trkpt>
      <trkpt lat="44.18468" lon="4.32974">
        <ele>294</ele>
        <time>2016-03-30T19:06:29Z</time>
      </trkpt>
      <trkpt lat="44.18469" lon="4.32995">
        <ele>294</ele>
        <time>2016-03-30T19:08:29Z</time>
      </trkpt>
      <trkpt lat="44.18469" lon="4.33004">
        <ele>293</ele>
        <time>2016-03-30T19:10:29Z</time>
      </trkpt>
      <trkpt lat="44.18468" lon="4.33012">
        <ele>293</ele>
        <time>2016-03-30T19:12:29Z</time>
      </trkpt>
      <trkpt lat="44.18468" lon="4.33017">
        <ele>293</ele>
        <time>2016-03-30T19:14:29Z</time>
      </trkpt>
      <trkpt lat="44.18466" lon="4.33026">
        <ele>293</ele>
        <time>2016-03-30T19:16:29Z</time>
      </trkpt>
      <trkpt lat="44.18445" lon="4.33103">
        <ele>292</ele>
        <time>2016-03-30T19:18:29Z</time>
      </trkpt>
      <trkpt lat="44.18438" lon="4.33126">
        <ele>292</ele>
        <time>2016-03-30T19:20:29Z</time>
      </trkpt>
      <trkpt lat="44.18431" lon="4.33152">
        <ele>293</ele>
        <time>2016-03-30T19:22:29Z</time>
      </trkpt>
      <trkpt lat="44.18418" lon="4.33193">
        <ele>295</ele>
        <time>2016-03-30T19:24:29Z</time>
      </trkpt>
      <trkpt lat="44.18415" lon="4.33202">
        <ele>295</ele>
        <time>2016-03-30T19:26:29Z</time>
      </trkpt>
      <trkpt lat="44.18408" lon="4.33221">
        <ele>296</ele>
        <time>2016-03-30T19:28:29Z</time>
      </trkpt>
      <trkpt lat="44.18406" lon="4.33227">
        <ele>296</ele>
        <time>2016-03-30T19:30:29Z</time>
      </trkpt>
      <trkpt lat="44.18403" lon="4.33234">
        <ele>296</ele>
        <time>2016-03-30T19:32:29Z</time>
      </trkpt>
      <trkpt lat="44.18399" lon="4.33241">
        <ele>297</ele>
        <time>2016-03-30T19:34:29Z</time>
      </trkpt>
      <trkpt lat="44.18398" lon="4.33242">
        <ele>297</ele>
        <time>2016-03-30T19:36:29Z</time>
      </trkpt>
      <trkpt lat="44.18396" lon="4.33245">
        <ele>297</ele>
        <time>2016-03-30T19:38:29Z</time>
      </trkpt>
      <trkpt lat="44.18391" lon="4.33252">
        <ele>298</ele>
        <time>2016-03-30T19:40:29Z</time>
      </trkpt>
      <trkpt lat="44.18385" lon="4.33257">
        <ele>298</ele>
        <time>2016-03-30T19:42:29Z</time>
      </trkpt>
      <trkpt lat="44.18383" lon="4.33259">
        <ele>298</ele>
        <time>2016-03-30T19:44:29Z</time>
      </trkpt>
      <trkpt lat="44.18377" lon="4.33264">
        <ele>298</ele>
        <time>2016-03-30T19:46:29Z</time>
      </trkpt>
      <trkpt lat="44.18367" lon="4.33269">
        <ele>299</ele>
        <time>2016-03-30T19:48:29Z</time>
      </trkpt>
      <trkpt lat="44.18354" lon="4.33275">
        <ele>300</ele>
        <time>2016-03-30T19:50:29Z</time>
      </trkpt>
      <trkpt lat="44.18345" lon="4.33278">
        <ele>300</ele>
        <time>2016-03-30T19:52:29Z</time>
      </trkpt>
      <trkpt lat="44.18329" lon="4.33286">
        <ele>300</ele>
        <time>2016-03-30T19:54:29Z</time>
      </trkpt>
      <trkpt lat="44.1831" lon="4.33297">
        <ele>300</ele>
        <time>2016-03-30T19:56:29Z</time>
      </trkpt>
      <trkpt lat="44.18301" lon="4.33301">
        <ele>299</ele>
        <time>2016-03-30T19:58:29Z</time>
      </trkpt>
      <trkpt lat="44.18292" lon="4.33305">
        <ele>299</ele>
        <time>2016-03-30T20:00:29Z</time>
      </trkpt>
      <trkpt lat="44.18282" lon="4.33309">
        <ele>299</ele>
        <time>2016-03-30T20:02:29Z</time>
      </trkpt>
      <trkpt lat="44.18276" lon="4.33313">
        <ele>298</ele>
        <time>2016-03-30T20:04:29Z</time>
      </trkpt>
      <trkpt lat="44.1827" lon="4.33318">
        <ele>298</ele>
        <time>2016-03-30T20:06:29Z</time>
      </trkpt>
      <trkpt lat="44.18263" lon="4.33327">
        <ele>298</ele>
        <time>2016-03-30T20:08:29Z</time>
      </trkpt>
      <trkpt lat="44.18252" lon="4.33341">
        <ele>297</ele>
        <time>2016-03-30T20:10:29Z</time>
      </trkpt>
      <trkpt lat="44.1825" lon="4.33344">
        <ele>297</ele>
        <time>2016-03-30T20:12:29Z</time>
      </trkpt>
      <trkpt lat="44.18247" lon="4.33348">
        <ele>297</ele>
        <time>2016-03-30T20:14:29Z</time>
      </trkpt>
      <trkpt lat="44.18239" lon="4.33356">
        <ele>296</ele>
        <time>2016-03-30T20:16:29Z</time>
      </trkpt>
      <trkpt lat="44.18229" lon="4.33363">
        <ele>295</ele>
        <time>2016-03-30T20:18:29Z</time>
      </trkpt>
      <trkpt lat="44.18212" lon="4.33373">
        <ele>294</ele>
        <time>2016-03-30T20:20:29Z</time>
      </trkpt>
      <trkpt lat="44.18189" lon="4.33385">
        <ele>293</ele>
        <time>2016-03-30T20:22:29Z</time>
      </trkpt>
      <trkpt lat="44.18167" lon="4.33398">
        <ele>291</ele>
        <time>2016-03-30T20:24:29Z</time>
      </trkpt>
      <trkpt lat="44.18145" lon="4.33412">
        <ele>292</ele>
        <time>2016-03-30T20:26:29Z</time>
      </trkpt>
      <trkpt lat="44.18143" lon="4.33414">
        <ele>292</ele>
        <time>2016-03-30T20:28:29Z</time>
      </trkpt>
      <trkpt lat="44.18127" lon="4.33424">
        <ele>292</ele>
        <time>2016-03-30T20:30:29Z</time>
      </trkpt>
      <trkpt lat="44.18106" lon="4.33439">
        <ele>293</ele>
        <time>2016-03-30T20:32:29Z</time>
      </trkpt>
      <trkpt lat="44.18086" lon="4.33453">
        <ele>293</ele>
        <time>2016-03-30T20:34:29Z</time>
      </trkpt>
      <trkpt lat="44.18066" lon="4.33467">
        <ele>292</ele>
        <time>2016-03-30T20:36:29Z</time>
      </trkpt>
      <trkpt lat="44.18063" lon="4.33469">
        <ele>292</ele>
        <time>2016-03-30T20:38:29Z</time>
      </trkpt>
      <trkpt lat="44.18055" lon="4.33474">
        <ele>292</ele>
        <time>2016-03-30T20:40:29Z</time>
      </trkpt>
      <trkpt lat="44.18047" lon="4.3348">
        <ele>292</ele>
        <time>2016-03-30T20:42:29Z</time>
      </trkpt>
      <trkpt lat="44.18043" lon="4.33484">
        <ele>292</ele>
        <time>2016-03-30T20:44:29Z</time>
      </trkpt>
      <trkpt lat="44.18042" lon="4.33485">
        <ele>292</ele>
        <time>2016-03-30T20:46:29Z</time>
      </trkpt>
      <trkpt lat="44.18035" lon="4.33492">
        <ele>292</ele>
        <time>2016-03-30T20:48:29Z</time>
      </trkpt>
      <trkpt lat="44.18031" lon="4.33497">
        <ele>292</ele>
        <time>2016-03-30T20:50:29Z</time>
      </trkpt>
      <trkpt lat="44.18027" lon="4.33503">
        <ele>292</ele>
        <time>2016-03-30T20:52:29Z</time>
      </trkpt>
      <trkpt lat="44.18023" lon="4.33508">
        <ele>292</ele>
        <time>2016-03-30T20:54:29Z</time>
      </trkpt>
      <trkpt lat="44.18013" lon="4.33526">
        <ele>292</ele>
        <time>2016-03-30T20:56:29Z</time>
      </trkpt>
      <trkpt lat="44.18001" lon="4.33552">
        <ele>292</ele>
        <time>2016-03-30T20:58:29Z</time>
      </trkpt>
      <trkpt lat="44.17988" lon="4.33578">
        <ele>293</ele>
        <time>2016-03-30T21:00:29Z</time>
      </trkpt>
      <trkpt lat="44.17979" lon="4.33593">
        <ele>293</ele>
        <time>2016-03-30T21:02:29Z</time>
      </trkpt>
      <trkpt lat="44.17971" lon="4.33607">
        <ele>294</ele>
        <time>2016-03-30T21:04:29Z</time>
      </trkpt>
      <trkpt lat="44.17962" lon="4.3362">
        <ele>295</ele>
        <time>2016-03-30T21:06:29Z</time>
      </trkpt>
      <trkpt lat="44.1795" lon="4.33634">
        <ele>295</ele>
        <time>2016-03-30T21:08:29Z</time>
      </trkpt>
      <trkpt lat="44.1794" lon="4.33645">
        <ele>296</ele>
        <time>2016-03-30T21:10:29Z</time>
      </trkpt>
      <trkpt lat="44.17928" lon="4.33655">
        <ele>296</ele>
        <time>2016-03-30T21:12:29Z</time>
      </trkpt>
      <trkpt lat="44.17915" lon="4.33666">
        <ele>297</ele>
        <time>2016-03-30T21:14:29Z</time>
      </trkpt>
      <trkpt lat="44.17904" lon="4.33674">
        <ele>297</ele>
        <time>2016-03-30T21:16:29Z</time>
      </trkpt>
      <trkpt lat="44.17889" lon="4.33688">
        <ele>297</ele>
        <time>2016-03-30T21:18:29Z</time>
      </trkpt>
      <trkpt lat="44.17876" lon="4.337">
        <ele>297</ele>
        <time>2016-03-30T21:20:29Z</time>
      </trkpt>
      <trkpt lat="44.17871" lon="4.33705">
        <ele>298</ele>
        <time>2016-03-30T21:22:29Z</time>
      </trkpt>
      <trkpt lat="44.17866" lon="4.33712">
        <ele>298</ele>
        <time>2016-03-30T21:24:29Z</time>
      </trkpt>
      <trkpt lat="44.17855" lon="4.33726">
        <ele>298</ele>
        <time>2016-03-30T21:26:29Z</time>
      </trkpt>
      <trkpt lat="44.17842" lon="4.33744">
        <ele>298</ele>
        <time>2016-03-30T21:28:29Z</time>
      </trkpt>
      <trkpt lat="44.17833" lon="4.3376">
        <ele>298</ele>
        <time>2016-03-30T21:30:29Z</time>
      </trkpt>
      <trkpt lat="44.17826" lon="4.33772">
        <ele>298</ele>
        <time>2016-03-30T21:32:29Z</time>
      </trkpt>
      <trkpt lat="44.17821" lon="4.33782">
        <ele>297</ele>
        <time>2016-03-30T21:34:29Z</time>
      </trkpt>
      <trkpt lat="44.17816" lon="4.33793">
        <ele>297</ele>
        <time>2016-03-30T21:36:29Z</time>
      </trkpt>
      <trkpt lat="44.17812" lon="4.33803">
        <ele>297</ele>
        <time>2016-03-30T21:38:29Z</time>
      </trkpt>
      <trkpt lat="44.17808" lon="4.33813">
        <ele>297</ele>
        <time>2016-03-30T21:40:29Z</time>
      </trkpt>
      <trkpt lat="44.17802" lon="4.33831">
        <ele>296</ele>
        <time>2016-03-30T21:42:29Z</time>
      </trkpt>
      <trkpt lat="44.17798" lon="4.33842">
        <ele>296</ele>
        <time>2016-03-30T21:44:29Z</time>
      </trkpt>
      <trkpt lat="44.17793" lon="4.33855">
        <ele>296</ele>
        <time>2016-03-30T21:46:29Z</time>
      </trkpt>
      <trkpt lat="44.1779" lon="4.33861">
        <ele>296</ele>
        <time>2016-03-30T21:48:29Z</time>
      </trkpt>
      <trkpt lat="44.17787" lon="4.33868">
        <ele>295</ele>
        <time>2016-03-30T21:50:29Z</time>
      </trkpt>
      <trkpt lat="44.17781" lon="4.33877">
        <ele>295</ele>
        <time>2016-03-30T21:52:29Z</time>
      </trkpt>
      <trkpt lat="44.17778" lon="4.33882">
        <ele>295</ele>
        <time>2016-03-30T21:54:29Z</time>
      </trkpt>
      <trkpt lat="44.17774" lon="4.33888">
        <ele>295</ele>
        <time>2016-03-30T21:56:29Z</time>
      </trkpt>
      <trkpt lat="44.17769" lon="4.33895">
        <ele>294</ele>
        <time>2016-03-30T21:58:29Z</time>
      </trkpt>
      <trkpt lat="44.17763" lon="4.33902">
        <ele>294</ele>
        <time>2016-03-30T22:00:29Z</time>
      </trkpt>
      <trkpt lat="44.17758" lon="4.33908">
        <ele>294</ele>
        <time>2016-03-30T22:02:29Z</time>
      </trkpt>
      <trkpt lat="44.17751" lon="4.33915">
        <ele>293</ele>
        <time>2016-03-30T22:04:29Z</time>
      </trkpt>
      <trkpt lat="44.17746" lon="4.33919">
        <ele>293</ele>
        <time>2016-03-30T22:06:29Z</time>
      </trkpt>
      <trkpt lat="44.17738" lon="4.33925">
        <ele>294</ele>
        <time>2016-03-30T22:08:29Z</time>
      </trkpt>
      <trkpt lat="44.17732" lon="4.3393">
        <ele>295</ele>
        <time>2016-03-30T22:10:29Z</time>
      </trkpt>
      <trkpt lat="44.1772" lon="4.33939">
        <ele>296</ele>
        <time>2016-03-30T22:12:29Z</time>
      </trkpt>
      <trkpt lat="44.1771" lon="4.33948">
        <ele>296</ele>
        <time>2016-03-30T22:14:29Z</time>
      </trkpt>
      <trkpt lat="44.17702" lon="4.33956">
        <ele>297</ele>
        <time>2016-03-30T22:16:29Z</time>
      </trkpt>
      <trkpt lat="44.17693" lon="4.33965">
        <ele>297</ele>
        <time>2016-03-30T22:18:29Z</time>
      </trkpt>
      <trkpt lat="44.17686" lon="4.33974">
        <ele>298</ele>
        <time>2016-03-30T22:20:29Z</time>
      </trkpt>
      <trkpt lat="44.17676" lon="4.3399">
        <ele>299</ele>
        <time>2016-03-30T22:22:29Z</time>
      </trkpt>
      <trkpt lat="44.17666" lon="4.34005">
        <ele>299</ele>
        <time>2016-03-30T22:24:29Z</time>
      </trkpt>
      <trkpt lat="44.17664" lon="4.34007">
        <ele>299</ele>
        <time>2016-03-30T22:26:29Z</time>
      </trkpt>
      <trkpt lat="44.17658" lon="4.34016">
        <ele>299</ele>
        <time>2016-03-30T22:28:29Z</time>
      </trkpt>
      <trkpt lat="44.1764" lon="4.34039">
        <ele>299</ele>
        <time>2016-03-30T22:30:29Z</time>
      </trkpt>
      <trkpt lat="44.17618" lon="4.34066">
        <ele>300</ele>
        <time>2016-03-30T22:32:29Z</time>
      </trkpt>
      <trkpt lat="44.17615" lon="4.3407">
        <ele>300</ele>
        <time>2016-03-30T22:34:29Z</time>
      </trkpt>
      <trkpt lat="44.17604" lon="4.34083">
        <ele>300</ele>
        <time>2016-03-30T22:36:29Z</time>
      </trkpt>
      <trkpt lat="44.17598" lon="4.34091">
        <ele>300</ele>
        <time>2016-03-30T22:38:29Z</time>
      </trkpt>
      <trkpt lat="44.1758" lon="4.34112">
        <ele>301</ele>
        <time>2016-03-30T22:40:29Z</time>
      </trkpt>
      <trkpt lat="44.17559" lon="4.34136">
        <ele>301</ele>
        <time>2016-03-30T22:42:29Z</time>
      </trkpt>
      <trkpt lat="44.17545" lon="4.34152">
        <ele>301</ele>
        <time>2016-03-30T22:44:29Z</time>
      </trkpt>
      <trkpt lat="44.17534" lon="4.34164">
        <ele>301</ele>
        <time>2016-03-30T22:46:29Z</time>
      </trkpt>
      <trkpt lat="44.17524" lon="4.34175">
        <ele>300</ele>
        <time>2016-03-30T22:48:29Z</time>
      </trkpt>
      <trkpt lat="44.17514" lon="4.34184">
        <ele>300</ele>
        <time>2016-03-30T22:50:29Z</time>
      </trkpt>
      <trkpt lat="44.17507" lon="4.34191">
        <ele>299</ele>
        <time>2016-03-30T22:52:29Z</time>
      </trkpt>
      <trkpt lat="44.17485" lon="4.34209">
        <ele>298</ele>
        <time>2016-03-30T22:54:29Z</time>
      </trkpt>
      <trkpt lat="44.17461" lon="4.34231">
        <ele>298</ele>
        <time>2016-03-30T22:56:29Z</time>
      </trkpt>
      <trkpt lat="44.17433" lon="4.34255">
        <ele>299</ele>
        <time>2016-03-30T22:58:29Z</time>
      </trkpt>
      <trkpt lat="44.174" lon="4.34284">
        <ele>299</ele>
        <time>2016-03-30T23:00:29Z</time>
      </trkpt>
      <trkpt lat="44.17376" lon="4.34305">
        <ele>300</ele>
        <time>2016-03-30T23:02:29Z</time>
      </trkpt>
      <trkpt lat="44.17365" lon="4.34315">
        <ele>300</ele>
        <time>2016-03-30T23:04:29Z</time>
      </trkpt>
      <trkpt lat="44.17362" lon="4.34317">
        <ele>300</ele>
        <time>2016-03-30T23:06:29Z</time>
      </trkpt>
      <trkpt lat="44.17359" lon="4.3432">
        <ele>300</ele>
        <time>2016-03-30T23:08:29Z</time>
      </trkpt>
      <trkpt lat="44.17353" lon="4.34326">
        <ele>300</ele>
        <time>2016-03-30T23:10:29Z</time>
      </trkpt>
      <trkpt lat="44.17353" lon="4.34326">
        <ele>300</ele>
        <time>2016-03-30T23:12:29Z</time>
      </trkpt>
      <trkpt lat="44.17342" lon="4.34337">
        <ele>301</ele>
        <time>2016-03-30T23:14:29Z</time>
      </trkpt>
      <trkpt lat="44.17338" lon="4.34342">
        <ele>301</ele>
        <time>2016-03-30T23:16:29Z</time>
      </trkpt>
      <trkpt lat="44.17325" lon="4.34357">
        <ele>301</ele>
        <time>2016-03-30T23:18:29Z</time>
      </trkpt>
      <trkpt lat="44.17315" lon="4.3437">
        <ele>301</ele>
        <time>2016-03-30T23:20:29Z</time>
      </trkpt>
      <trkpt lat="44.17307" lon="4.3438">
        <ele>301</ele>
        <time>2016-03-30T23:22:29Z</time>
      </trkpt>
      <trkpt lat="44.17298" lon="4.34391">
        <ele>301</ele>
        <time>2016-03-30T23:24:29Z</time>
      </trkpt>
      <trkpt lat="44.17292" lon="4.34401">
        <ele>301</ele>
        <time>2016-03-30T23:26:29Z</time>
      </trkpt>
      <trkpt lat="44.17284" lon="4.34415">
        <ele>301</ele>
        <time>2016-03-30T23:28:29Z</time>
      </trkpt>
      <trkpt lat="44.17276" lon="4.34431">
        <ele>301</ele>
        <time>2016-03-30T23:30:29Z</time>
      </trkpt>
      <trkpt lat="44.17267" lon="4.34448">
        <ele>301</ele>
        <time>2016-03-30T23:32:29Z</time>
      </trkpt>
      <trkpt lat="44.17255" lon="4.3447">
        <ele>301</ele>
        <time>2016-03-30T23:34:29Z</time>
      </trkpt>
      <trkpt lat="44.17246" lon="4.34489">
        <ele>300</ele>
        <time>2016-03-30T23:36:29Z</time>
      </trkpt>
      <trkpt lat="44.1724" lon="4.34497">
        <ele>300</ele>
        <time>2016-03-30T23:38:29Z</time>
      </trkpt>
      <trkpt lat="44.17239" lon="4.34498">
        <ele>300</ele>
        <time>2016-03-30T23:40:29Z</time>
      </trkpt>
      <trkpt lat="44.17236" lon="4.34504">
        <ele>300</ele>
        <time>2016-03-30T23:42:29Z</time>
      </trkpt>
      <trkpt lat="44.1723" lon="4.34512">
        <ele>300</ele>
        <time>2016-03-30T23:44:29Z</time>
      </trkpt>
      <trkpt lat="44.17209" lon="4.34537">
        <ele>299</ele>
        <time>2016-03-30T23:46:29Z</time>
      </trkpt>
      <trkpt lat="44.17173" lon="4.34577">
        <ele>298</ele>
        <time>2016-03-30T23:48:29Z</time>
      </trkpt>
      <trkpt lat="44.17153" lon="4.34599">
        <ele>298</ele>
        <time>2016-03-30T23:50:29Z</time>
      </trkpt>
      <trkpt lat="44.17141" lon="4.34612">
        <ele>297</ele>
        <time>2016-03-30T23:52:29Z</time>
      </trkpt>
      <trkpt lat="44.17115" lon="4.34643">
        <ele>297</ele>
        <time>2016-03-30T23:54:29Z</time>
      </trkpt>
      <trkpt lat="44.17094" lon="4.34668">
        <ele>296</ele>
        <time>2016-03-30T23:56:29Z</time>
      </trkpt>
      <trkpt lat="44.17072" lon="4.34692">
        <ele>296</ele>
        <time>2016-03-30T23:58:29Z</time>
      </trkpt>
      <trkpt lat="44.17067" lon="4.34698">
        <ele>296</ele>
        <time>2016-03-31T00:00:29Z</time>
      </trkpt>
      <trkpt lat="44.17062" lon="4.34703">
        <ele>296</ele>
        <time>2016-03-31T00:02:29Z</time>
      </trkpt>
      <trkpt lat="44.17054" lon="4.3471">
        <ele>296</ele>
        <time>2016-03-31T00:04:29Z</time>
      </trkpt>
      <trkpt lat="44.17045" lon="4.34716">
        <ele>296</ele>
        <time>2016-03-31T00:06:29Z</time>
      </trkpt>
      <trkpt lat="44.17042" lon="4.34717">
        <ele>296</ele>
        <time>2016-03-31T00:08:29Z</time>
      </trkpt>
      <trkpt lat="44.17037" lon="4.3472">
        <ele>297</ele>
        <time>2016-03-31T00:10:29Z</time>
      </trkpt>
      <trkpt lat="44.17027" lon="4.34724">
        <ele>297</ele>
        <time>2016-03-31T00:12:29Z</time>
      </trkpt>
      <trkpt lat="44.17014" lon="4.34727">
        <ele>297</ele>
        <time>2016-03-31T00:14:29Z</time>
      </trkpt>
      <trkpt lat="44.16997" lon="4.34731">
        <ele>297</ele>
        <time>2016-03-31T00:16:29Z</time>
      </trkpt>
      <trkpt lat="44.16989" lon="4.34733">
        <ele>297</ele>
        <time>2016-03-31T00:18:29Z</time>
      </trkpt>
      <trkpt lat="44.16978" lon="4.34735">
        <ele>297</ele>
        <time>2016-03-31T00:20:29Z</time>
      </trkpt>
      <trkpt lat="44.16971" lon="4.34737">
        <ele>297</ele>
        <time>2016-03-31T00:22:29Z</time>
      </trkpt>
      <trkpt lat="44.16963" lon="4.3474">
        <ele>297</ele>
        <time>2016-03-31T00:24:29Z</time>
      </trkpt>
      <trkpt lat="44.16957" lon="4.34743">
        <ele>297</ele>
        <time>2016-03-31T00:26:29Z</time>
      </trkpt>
      <trkpt lat="44.16946" lon="4.34751">
        <ele>297</ele>
        <time>2016-03-31T00:28:29Z</time>
      </trkpt>
      <trkpt lat="44.1692" lon="4.34774">
        <ele>298</ele>
        <time>2016-03-31T00:30:29Z</time>
      </trkpt>
      <trkpt lat="44.16905" lon="4.34787">
        <ele>298</ele>
        <time>2016-03-31T00:32:29Z</time>
      </trkpt>
      <trkpt lat="44.16899" lon="4.34795">
        <ele>298</ele>
        <time>2016-03-31T00:34:29Z</time>
      </trkpt>
      <trkpt lat="44.16899" lon="4.34795">
        <ele>298</ele>
        <time>2016-03-31T00:36:29Z</time>
      </trkpt>
      <trkpt lat="44.16901" lon="4.34809">
        <ele>298</ele>
        <time>2016-03-31T00:38:29Z</time>
      </trkpt>
      <trkpt lat="44.16906" lon="4.34831">
        <ele>298</ele>
        <time>2016-03-31T00:40:29Z</time>
      </trkpt>
      <trkpt lat="44.16912" lon="4.34854">
        <ele>299</ele>
        <time>2016-03-31T00:42:29Z</time>
      </trkpt>
      <trkpt lat="44.16921" lon="4.3489">
        <ele>300</ele>
        <time>2016-03-31T00:44:29Z</time>
      </trkpt>
      <trkpt lat="44.16924" lon="4.34903">
        <ele>300</ele>
        <time>2016-03-31T00:46:29Z</time>
      </trkpt>
      <trkpt lat="44.16933" lon="4.34933">
        <ele>300</ele>
        <time>2016-03-31T00:48:29Z</time>
      </trkpt>
      <trkpt lat="44.1694" lon="4.34956">
        <ele>300</ele>
        <time>2016-03-31T00:50:29Z</time>
      </trkpt>
      <trkpt lat="44.1695" lon="4.34981">
        <ele>300</ele>
        <time>2016-03-31T00:52:29Z</time>
      </trkpt>
      <trkpt lat="44.16958" lon="4.35001">
        <ele>301</ele>
        <time>2016-03-31T00:54:29Z</time>
      </trkpt>
      <trkpt lat="44.16963" lon="4.35011">
        <ele>301</ele>
        <time>2016-03-31T00:56:29Z</time>
      </trkpt>
      <trkpt lat="44.16967" lon="4.35023">
        <ele>301</ele>
        <time>2016-03-31T00:58:29Z</time>
      </trkpt>
      <trkpt lat="44.16969" lon="4.35034">
        <ele>301</ele>
        <time>2016-03-31T01:00:29Z</time>
      </trkpt>
      <trkpt lat="44.16971" lon="4.35047">
        <ele>301</ele>
        <time>2016-03-31T01:02:29Z</time>
      </trkpt>
      <trkpt lat="44.16971" lon="4.3506">
        <ele>301</ele>
        <time>2016-03-31T01:04:29Z</time>
      </trkpt>
      <trkpt lat="44.16969" lon="4.35077">
        <ele>301</ele>
        <time>2016-03-31T01:06:29Z</time>
      </trkpt>
      <trkpt lat="44.16967" lon="4.35092">
        <ele>301</ele>
        <time>2016-03-31T01:08:29Z</time>
      </trkpt>
      <trkpt lat="44.16962" lon="4.35113">
        <ele>301</ele>
        <time>2016-03-31T01:10:29Z</time>
      </trkpt>
      <trkpt lat="44.16957" lon="4.35132">
        <ele>300</ele>
        <time>2016-03-31T01:12:29Z</time>
      </trkpt>
      <trkpt lat="44.16955" lon="4.35144">
        <ele>300</ele>
        <time>2016-03-31T01:14:29Z</time>
      </trkpt>
      <trkpt lat="44.16953" lon="4.35157">
        <ele>300</ele>
        <time>2016-03-31T01:16:29Z</time>
      </trkpt>
      <trkpt lat="44.16952" lon="4.35165">
        <ele>300</ele>
        <time>2016-03-31T01:18:29Z</time>
      </trkpt>
      <trkpt lat="44.16952" lon="4.35175">
        <ele>299</ele>
        <time>2016-03-31T01:20:29Z</time>
      </trkpt>
      <trkpt lat="44.16951" lon="4.35192">
        <ele>299</ele>
        <time>2016-03-31T01:22:29Z</time>
      </trkpt>
      <trkpt lat="44.16949" lon="4.35212">
        <ele>298</ele>
        <time>2016-03-31T01:24:29Z</time>
      </trkpt>
      <trkpt lat="44.16946" lon="4.35229">
        <ele>298</ele>
        <time>2016-03-31T01:26:29Z</time>
      </trkpt>
      <trkpt lat="44.16943" lon="4.35248">
        <ele>297</ele>
        <time>2016-03-31T01:28:29Z</time>
      </trkpt>
      <trkpt lat="44.16939" lon="4.35266">
        <ele>296</ele>
        <time>2016-03-31T01:30:29Z</time>
      </trkpt>
      <trkpt lat="44.16935" lon="4.35281">
        <ele>295</ele>
        <time>2016-03-31T01:32:29Z</time>
      </trkpt>
      <trkpt lat="44.16932" lon="4.35295">
        <ele>295</ele>
        <time>2016-03-31T01:34:29Z</time>
      </trkpt>
      <trkpt lat="44.16929" lon="4.35313">
        <ele>294</ele>
        <time>2016-03-31T01:36:29Z</time>
      </trkpt>
      <trkpt lat="44.16928" lon="4.35318">
        <ele>294</ele>
        <time>2016-03-31T01:38:29Z</time>
      </trkpt>
      <trkpt lat="44.16925" lon="4.35337">
        <ele>293</ele>
        <time>2016-03-31T01:40:29Z</time>
      </trkpt>
      <trkpt lat="44.16918" lon="4.3538">
        <ele>291</ele>
        <time>2016-03-31T01:42:29Z</time>
      </trkpt>
      <trkpt lat="44.16915" lon="4.35405">
        <ele>290</ele>
        <time>2016-03-31T01:44:29Z</time>
      </trkpt>
      <trkpt lat="44.16914" lon="4.35417">
        <ele>290</ele>
        <time>2016-03-31T01:46:29Z</time>
      </trkpt>
      <trkpt lat="44.16914" lon="4.35427">
        <ele>290</ele>
        <time>2016-03-31T01:48:29Z</time>
      </trkpt>
      <trkpt lat="44.16914" lon="4.3544">
        <ele>289</ele>
        <time>2016-03-31T01:50:29Z</time>
      </trkpt>
      <trkpt lat="44.16915" lon="4.3545">
        <ele>289</ele>
        <time>2016-03-31T01:52:29Z</time>
      </trkpt>
      <trkpt lat="44.16917" lon="4.35462">
        <ele>288</ele>
        <time>2016-03-31T01:54:29Z</time>
      </trkpt>
      <trkpt lat="44.1692" lon="4.3548">
        <ele>288</ele>
        <time>2016-03-31T01:56:29Z</time>
      </trkpt>
      <trkpt lat="44.16926" lon="4.35509">
        <ele>287</ele>
        <time>2016-03-31T01:58:29Z</time>
      </trkpt>
      <trkpt lat="44.16933" lon="4.35538">
        <ele>287</ele>
        <time>2016-03-31T02:00:29Z</time>
      </trkpt>
      <trkpt lat="44.16942" lon="4.35567">
        <ele>286</ele>
        <time>2016-03-31T02:02:29Z</time>
      </trkpt>
      <trkpt lat="44.16954" lon="4.35601">
        <ele>285</ele>
        <time>2016-03-31T02:04:29Z</time>
      </trkpt>
      <trkpt lat="44.16965" lon="4.35624">
        <ele>284</ele>
        <time>2016-03-31T02:06:29Z</time>
      </trkpt>
      <trkpt lat="44.16972" lon="4.35635">
        <ele>283</ele>
        <time>2016-03-31T02:08:29Z</time>
      </trkpt>
      <trkpt lat="44.1698" lon="4.35645">
        <ele>282</ele>
        <time>2016-03-31T02:10:29Z</time>
      </trkpt>
      <trkpt lat="44.16992" lon="4.35659">
        <ele>280</ele>
        <time>2016-03-31T02:12:29Z</time>
      </trkpt>
      <trkpt lat="44.17003" lon="4.35671">
        <ele>279</ele>
        <time>2016-03-31T02:14:29Z</time>
      </trkpt>
      <trkpt lat="44.17014" lon="4.35686">
        <ele>278</ele>
        <time>2016-03-31T02:16:29Z</time>
      </trkpt>
      <trkpt lat="44.17027" lon="4.35707">
        <ele>276</ele>
        <time>2016-03-31T02:18:29Z</time>
      </trkpt>
      <trkpt lat="44.17036" lon="4.35722">
        <ele>275</ele>
        <time>2016-03-31T02:20:29Z</time>
      </trkpt>
      <trkpt lat="44.1704" lon="4.35732">
        <ele>275</ele>
        <time>2016-03-31T02:22:29Z</time>
      </trkpt>
      <trkpt lat="44.17042" lon="4.35738">
        <ele>274</ele>
        <time>2016-03-31T02:24:29Z</time>
      </trkpt>
      <trkpt lat="44.17044" lon="4.35747">
        <ele>274</ele>
        <time>2016-03-31T02:26:29Z</time>
      </trkpt>
      <trkpt lat="44.17047" lon="4.35759">
        <ele>274</ele>
        <time>2016-03-31T02:28:29Z</time>
      </trkpt>
      <trkpt lat="44.1705" lon="4.35771">
        <ele>274</ele>
        <time>2016-03-31T02:30:29Z</time>
      </trkpt>
      <trkpt lat="44.17051" lon="4.35774">
        <ele>274</ele>
        <time>2016-03-31T02:32:29Z</time>
      </trkpt>
      <trkpt lat="44.17058" lon="4.35785">
        <ele>273</ele>
        <time>2016-03-31T02:34:29Z</time>
      </trkpt>
      <trkpt lat="44.1707" lon="4.35798">
        <ele>273</ele>
        <time>2016-03-31T02:36:29Z</time>
      </trkpt>
      <trkpt lat="44.17076" lon="4.35809">
        <ele>273</ele>
        <time>2016-03-31T02:38:29Z</time>
      </trkpt>
      <trkpt lat="44.17078" lon="4.35811">
        <ele>272</ele>
        <time>2016-03-31T02:40:29Z</time>
      </trkpt>
      <trkpt lat="44.17084" lon="4.35821">
        <ele>272</ele>
        <time>2016-03-31T02:42:29Z</time>
      </trkpt>
      <trkpt lat="44.17091" lon="4.35833">
        <ele>272</ele>
        <time>2016-03-31T02:44:29Z</time>
      </trkpt>
      <trkpt lat="44.17097" lon="4.35844">
        <ele>273</ele>
        <time>2016-03-31T02:46:29Z</time>
      </trkpt>
      <trkpt lat="44.17108" lon="4.35856">
        <ele>272</ele>
        <time>2016-03-31T02:48:29Z</time>
      </trkpt>
      <trkpt lat="44.17123" lon="4.35868">
        <ele>272</ele>
        <time>2016-03-31T02:50:29Z</time>
      </trkpt>
      <trkpt lat="44.17139" lon="4.35883">
        <ele>271</ele>
        <time>2016-03-31T02:52:29Z</time>
      </trkpt>
      <trkpt lat="44.17158" lon="4.359">
        <ele>269</ele>
        <time>2016-03-31T02:54:29Z</time>
      </trkpt>
      <trkpt lat="44.17172" lon="4.35912">
        <ele>269</ele>
        <time>2016-03-31T02:56:29Z</time>
      </trkpt>
      <trkpt lat="44.17183" lon="4.35918">
        <ele>268</ele>
        <time>2016-03-31T02:58:29Z</time>
      </trkpt>
      <trkpt lat="44.17196" lon="4.35923">
        <ele>268</ele>
        <time>2016-03-31T03:00:29Z</time>
      </trkpt>
      <trkpt lat="44.17213" lon="4.35927">
        <ele>267</ele>
        <time>2016-03-31T03:02:29Z</time>
      </trkpt>
      <trkpt lat="44.17237" lon="4.35933">
        <ele>265</ele>
        <time>2016-03-31T03:04:29Z</time>
      </trkpt>
      <trkpt lat="44.17256" lon="4.35939">
        <ele>265</ele>
        <time>2016-03-31T03:06:29Z</time>
      </trkpt>
      <trkpt lat="44.1727" lon="4.35947">
        <ele>265</ele>
        <time>2016-03-31T03:08:29Z</time>
      </trkpt>
      <trkpt lat="44.17282" lon="4.35954">
        <ele>265</ele>
        <time>2016-03-31T03:10:29Z</time>
      </trkpt>
      <trkpt lat="44.17291" lon="4.35961">
        <ele>265</ele>
        <time>2016-03-31T03:12:29Z</time>
      </trkpt>
      <trkpt lat="44.173" lon="4.35972">
        <ele>265</ele>
        <time>2016-03-31T03:14:29Z</time>
      </trkpt>
      <trkpt lat="44.1732" lon="4.35997">
        <ele>264</ele>
        <time>2016-03-31T03:16:29Z</time>
      </trkpt>
      <trkpt lat="44.17339" lon="4.3602">
        <ele>264</ele>
        <time>2016-03-31T03:18:29Z</time>
      </trkpt>
      <trkpt lat="44.17347" lon="4.3603">
        <ele>264</ele>
        <time>2016-03-31T03:20:29Z</time>
      </trkpt>
      <trkpt lat="44.17352" lon="4.36041">
        <ele>264</ele>
        <time>2016-03-31T03:22:29Z</time>
      </trkpt>
      <trkpt lat="44.17357" lon="4.36052">
        <ele>264</ele>
        <time>2016-03-31T03:24:29Z</time>
      </trkpt>
      <trkpt lat="44.1736" lon="4.36064">
        <ele>264</ele>
        <time>2016-03-31T03:26:29Z</time>
      </trkpt>
      <trkpt lat="44.17361" lon="4.36065">
        <ele>264</ele>
        <time>2016-03-31T03:28:29Z</time>
      </trkpt>
      <trkpt lat="44.17362" lon="4.36072">
        <ele>264</ele>
        <time>2016-03-31T03:30:29Z</time>
      </trkpt>
      <trkpt lat="44.17362" lon="4.36073">
        <ele>264</ele>
        <time>2016-03-31T03:32:29Z</time>
      </trkpt>
      <trkpt lat="44.17361" lon="4.36087">
        <ele>263</ele>
        <time>2016-03-31T03:34:29Z</time>
      </trkpt>
      <trkpt lat="44.1736" lon="4.36092">
        <ele>263</ele>
        <time>2016-03-31T03:36:29Z</time>
      </trkpt>
      <trkpt lat="44.1736" lon="4.36095">
        <ele>262</ele>
        <time>2016-03-31T03:38:29Z</time>
      </trkpt>
      <trkpt lat="44.1736" lon="4.36095">
        <ele>262</ele>
        <time>2016-03-31T03:40:29Z</time>
      </trkpt>
      <trkpt lat="44.1736" lon="4.36098">
        <ele>262</ele>
        <time>2016-03-31T03:42:29Z</time>
      </trkpt>
      <trkpt lat="44.17362" lon="4.36102">
        <ele>262</ele>
        <time>2016-03-31T03:44:29Z</time>
      </trkpt>
      <trkpt lat="44.17364" lon="4.36109">
        <ele>261</ele>
        <time>2016-03-31T03:46:29Z</time>
      </trkpt>
      <trkpt lat="44.17364" lon="4.36109">
        <ele>261</ele>
        <time>2016-03-31T03:48:29Z</time>
      </trkpt>
      <trkpt lat="44.17366" lon="4.36109">
        <ele>261</ele>
        <time>2016-03-31T03:50:29Z</time>
      </trkpt>
      <trkpt lat="44.17372" lon="4.36105">
        <ele>261</ele>
        <time>2016-03-31T03:52:29Z</time>
      </trkpt>
      <trkpt lat="44.17377" lon="4.36103">
        <ele>261</ele>
        <time>2016-03-31T03:54:29Z</time>
      </trkpt>
      <trkpt lat="44.17379" lon="4.36102">
        <ele>261</ele>
        <time>2016-03-31T03:56:29Z</time>
      </trkpt>
      <trkpt lat="44.17381" lon="4.36101">
        <ele>261</ele>
        <time>2016-03-31T03:58:29Z</time>
      </trkpt>
      <trkpt lat="44.17384" lon="4.36099">
        <ele>261</ele>
        <time>2016-03-31T04:00:29Z</time>
      </trkpt>
      <trkpt lat="44.17396" lon="4.36094">
        <ele>262</ele>
        <time>2016-03-31T04:02:29Z</time>
      </trkpt>
      <trkpt lat="44.17422" lon="4.36085">
        <ele>262</ele>
        <time>2016-03-31T04:04:29Z</time>
      </trkpt>
      <trkpt lat="44.17457" lon="4.36072">
        <ele>261</ele>
        <time>2016-03-31T04:06:29Z</time>
      </trkpt>
      <trkpt lat="44.17495" lon="4.36061">
        <ele>261</ele>
        <time>2016-03-31T04:08:29Z</time>
      </trkpt>
      <trkpt lat="44.17495" lon="4.36061">
        <ele>261</ele>
        <time>2016-03-31T04:10:29Z</time>
      </trkpt>
      <trkpt lat="44.17497" lon="4.36065">
        <ele>261</ele>
        <time>2016-03-31T04:12:29Z</time>
      </trkpt>
      <trkpt lat="44.17499" lon="4.36071">
        <ele>259</ele>
        <time>2016-03-31T04:14:29Z</time>
      </trkpt>
      <trkpt lat="44.17499" lon="4.36075">
        <ele>259</ele>
        <time>2016-03-31T04:16:29Z</time>
      </trkpt>
      <trkpt lat="44.17499" lon="4.36081">
        <ele>258</ele>
        <time>2016-03-31T04:18:29Z</time>
      </trkpt>
      <trkpt lat="44.17499" lon="4.36089">
        <ele>257</ele>
        <time>2016-03-31T04:20:29Z</time>
      </trkpt>
      <trkpt lat="44.17498" lon="4.36099">
        <ele>256</ele>
        <time>2016-03-31T04:22:29Z</time>
      </trkpt>
      <trkpt lat="44.17497" lon="4.36101">
        <ele>256</ele>
        <time>2016-03-31T04:24:29Z</time>
      </trkpt>
      <trkpt lat="44.17493" lon="4.36107">
        <ele>255</ele>
        <time>2016-03-31T04:26:29Z</time>
      </trkpt>
      <trkpt lat="44.17483" lon="4.36118">
        <ele>255</ele>
        <time>2016-03-31T04:28:29Z</time>
      </trkpt>
      <trkpt lat="44.17453" lon="4.3615">
        <ele>254</ele>
        <time>2016-03-31T04:30:29Z</time>
      </trkpt>
      <trkpt lat="44.17426" lon="4.36178">
        <ele>253</ele>
        <time>2016-03-31T04:32:29Z</time>
      </trkpt>
      <trkpt lat="44.17402" lon="4.36203">
        <ele>253</ele>
        <time>2016-03-31T04:34:29Z</time>
      </trkpt>
      <trkpt lat="44.17371" lon="4.36233">
        <ele>253</ele>
        <time>2016-03-31T04:36:29Z</time>
      </trkpt>
      <trkpt lat="44.17353" lon="4.3625">
        <ele>252</ele>
        <time>2016-03-31T04:38:29Z</time>
      </trkpt>
      <trkpt lat="44.17344" lon="4.36268">
        <ele>252</ele>
        <time>2016-03-31T04:40:29Z</time>
      </trkpt>
      <trkpt lat="44.17343" lon="4.36276">
        <ele>251</ele>
        <time>2016-03-31T04:42:29Z</time>
      </trkpt>
      <trkpt lat="44.17339" lon="4.36306">
        <ele>250</ele>
        <time>2016-03-31T04:44:29Z</time>
      </trkpt>
      <trkpt lat="44.1733" lon="4.3636">
        <ele>247</ele>
        <time>2016-03-31T04:46:29Z</time>
      </trkpt>
      <trkpt lat="44.17325" lon="4.36391">
        <ele>246</ele>
        <time>2016-03-31T04:48:29Z</time>
      </trkpt>
      <trkpt lat="44.17323" lon="4.36406">
        <ele>246</ele>
        <time>2016-03-31T04:50:29Z</time>
      </trkpt>
      <trkpt lat="44.17323" lon="4.36416">
        <ele>246</ele>
        <time>2016-03-31T04:52:29Z</time>
      </trkpt>
      <trkpt lat="44.17323" lon="4.3642">
        <ele>246</ele>
        <time>2016-03-31T04:54:29Z</time>
      </trkpt>
      <trkpt lat="44.17324" lon="4.36424">
        <ele>245</ele>
        <time>2016-03-31T04:56:29Z</time>
      </trkpt>
      <trkpt lat="44.17324" lon="4.3643">
        <ele>245</ele>
        <time>2016-03-31T04:58:29Z</time>
      </trkpt>
      <trkpt lat="44.17325" lon="4.36432">
        <ele>245</ele>
        <time>2016-03-31T05:00:29Z</time>
      </trkpt>
      <trkpt lat="44.17326" lon="4.36438">
        <ele>245</ele>
        <time>2016-03-31T05:02:29Z</time>
      </trkpt>
      <trkpt lat="44.17326" lon="4.36438">
        <ele>245</ele>
        <time>2016-03-31T05:04:29Z</time>
      </trkpt>
      <trkpt lat="44.1733" lon="4.36451">
        <ele>245</ele>
        <time>2016-03-31T05:06:29Z</time>
      </trkpt>
      <trkpt lat="44.17335" lon="4.36466">
        <ele>245</ele>
        <time>2016-03-31T05:08:29Z</time>
      </trkpt>
      <trkpt lat="44.17342" lon="4.3648">
        <ele>245</ele>
        <time>2016-03-31T05:10:29Z</time>
      </trkpt>
      <trkpt lat="44.17349" lon="4.36493">
        <ele>245</ele>
        <time>2016-03-31T05:12:29Z</time>
      </trkpt>
      <trkpt lat="44.17359" lon="4.36506">
        <ele>245</ele>
        <time>2016-03-31T05:14:29Z</time>
      </trkpt>
      <trkpt lat="44.17371" lon="4.36517">
        <ele>245</ele>
        <time>2016-03-31T05:16:29Z</time>
      </trkpt>
      <trkpt lat="44.17381" lon="4.36528">
        <ele>245</ele>
        <time>2016-03-31T05:18:29Z</time>
      </trkpt>
      <trkpt lat="44.17394" lon="4.36542">
        <ele>246</ele>
        <time>2016-03-31T05:20:29Z</time>
      </trkpt>
      <trkpt lat="44.17407" lon="4.36552">
        <ele>247</ele>
        <time>2016-03-31T05:22:29Z</time>
      </trkpt>
      <trkpt lat="44.17419" lon="4.36561">
        <ele>247</ele>
        <time>2016-03-31T05:24:29Z</time>
      </trkpt>
      <trkpt lat="44.17433" lon="4.3657">
        <ele>249</ele>
        <time>2016-03-31T05:26:29Z</time>
      </trkpt>
      <trkpt lat="44.17444" lon="4.3658">
        <ele>251</ele>
        <time>2016-03-31T05:28:29Z</time>
      </trkpt>
      <trkpt lat="44.17454" lon="4.36592">
        <ele>253</ele>
        <time>2016-03-31T05:30:29Z</time>
      </trkpt>
      <trkpt lat="44.1746" lon="4.36602">
        <ele>255</ele>
        <time>2016-03-31T05:32:29Z</time>
      </trkpt>
      <trkpt lat="44.17465" lon="4.36618">
        <ele>256</ele>
        <time>2016-03-31T05:34:29Z</time>
      </trkpt>
      <trkpt lat="44.17467" lon="4.36631">
        <ele>257</ele>
        <time>2016-03-31T05:36:29Z</time>
      </trkpt>
      <trkpt lat="44.17469" lon="4.36648">
        <ele>258</ele>
        <time>2016-03-31T05:38:29Z</time>
      </trkpt>
      <trkpt lat="44.17468" lon="4.36657">
        <ele>258</ele>
        <time>2016-03-31T05:40:29Z</time>
      </trkpt>
      <trkpt lat="44.17468" lon="4.36668">
        <ele>259</ele>
        <time>2016-03-31T05:42:29Z</time>
      </trkpt>
      <trkpt lat="44.17467" lon="4.36675">
        <ele>259</ele>
        <time>2016-03-31T05:44:29Z</time>
      </trkpt>
      <trkpt lat="44.17464" lon="4.36682">
        <ele>258</ele>
        <time>2016-03-31T05:46:29Z</time>
      </trkpt>
      <trkpt lat="44.1746" lon="4.36695">
        <ele>258</ele>
        <time>2016-03-31T05:48:29Z</time>
      </trkpt>
      <trkpt lat="44.17455" lon="4.3671">
        <ele>257</ele>
        <time>2016-03-31T05:50:29Z</time>
      </trkpt>
      <trkpt lat="44.17452" lon="4.3672">
        <ele>257</ele>
        <time>2016-03-31T05:52:29Z</time>
      </trkpt>
      <trkpt lat="44.1745" lon="4.36731">
        <ele>257</ele>
        <time>2016-03-31T05:54:29Z</time>
      </trkpt>
      <trkpt lat="44.17446" lon="4.36763">
        <ele>256</ele>
        <time>2016-03-31T05:56:29Z</time>
      </trkpt>
      <trkpt lat="44.17441" lon="4.36793">
        <ele>255</ele>
        <time>2016-03-31T05:58:29Z</time>
      </trkpt>
      <trkpt lat="44.17437" lon="4.36824">
        <ele>254</ele>
        <time>2016-03-31T06:00:29Z</time>
      </trkpt>
      <trkpt lat="44.17433" lon="4.36847">
        <ele>253</ele>
        <time>2016-03-31T06:02:29Z</time>
      </trkpt>
      <trkpt lat="44.17432" lon="4.3686">
        <ele>252</ele>
        <time>2016-03-31T06:04:29Z</time>
      </trkpt>
      <trkpt lat="44.17432" lon="4.36869">
        <ele>252</ele>
        <time>2016-03-31T06:06:29Z</time>
      </trkpt>
      <trkpt lat="44.17432" lon="4.36877">
        <ele>252</ele>
        <time>2016-03-31T06:08:29Z</time>
      </trkpt>
      <trkpt lat="44.17433" lon="4.36885">
        <ele>251</ele>
        <time>2016-03-31T06:10:29Z</time>
      </trkpt>
      <trkpt lat="44.17437" lon="4.36907">
        <ele>251</ele>
        <time>2016-03-31T06:12:29Z</time>
      </trkpt>
      <trkpt lat="44.1744" lon="4.36922">
        <ele>251</ele>
        <time>2016-03-31T06:14:29Z</time>
      </trkpt>
      <trkpt lat="44.17441" lon="4.36927">
        <ele>251</ele>
        <time>2016-03-31T06:16:29Z</time>
      </trkpt>
      <trkpt lat="44.17444" lon="4.36942">
        <ele>251</ele>
        <time>2016-03-31T06:18:29Z</time>
      </trkpt>
      <trkpt lat="44.17446" lon="4.36961">
        <ele>251</ele>
        <time>2016-03-31T06:20:29Z</time>
      </trkpt>
      <trkpt lat="44.17448" lon="4.3698">
        <ele>250</ele>
        <time>2016-03-31T06:22:29Z</time>
      </trkpt>
      <trkpt lat="44.1745" lon="4.37012">
        <ele>249</ele>
        <time>2016-03-31T06:24:29Z</time>
      </trkpt>
      <trkpt lat="44.17451" lon="4.37038">
        <ele>247</ele>
        <time>2016-03-31T06:26:29Z</time>
      </trkpt>
      <trkpt lat="44.17454" lon="4.37072">
        <ele>246</ele>
        <time>2016-03-31T06:28:29Z</time>
      </trkpt>
      <trkpt lat="44.17456" lon="4.37095">
        <ele>244</ele>
        <time>2016-03-31T06:30:29Z</time>
      </trkpt>
      <trkpt lat="44.17457" lon="4.37111">
        <ele>244</ele>
        <time>2016-03-31T06:32:29Z</time>
      </trkpt>
      <trkpt lat="44.17458" lon="4.37123">
        <ele>243</ele>
        <time>2016-03-31T06:34:29Z</time>
      </trkpt>
      <trkpt lat="44.17457" lon="4.37137">
        <ele>242</ele>
        <time>2016-03-31T06:36:29Z</time>
      </trkpt>
      <trkpt lat="44.17455" lon="4.3715">
        <ele>241</ele>
        <time>2016-03-31T06:38:29Z</time>
      </trkpt>
      <trkpt lat="44.1745" lon="4.37198">
        <ele>239</ele>
        <time>2016-03-31T06:40:29Z</time>
      </trkpt>
      <trkpt lat="44.17445" lon="4.37258">
        <ele>238</ele>
        <time>2016-03-31T06:42:29Z</time>
      </trkpt>
      <trkpt lat="44.17444" lon="4.37278">
        <ele>238</ele>
        <time>2016-03-31T06:44:29Z</time>
      </trkpt>
      <trkpt lat="44.17444" lon="4.37317">
        <ele>237</ele>
        <time>2016-03-31T06:46:29Z</time>
      </trkpt>
      <trkpt lat="44.17446" lon="4.37348">
        <ele>237</ele>
        <time>2016-03-31T06:48:29Z</time>
      </trkpt>
      <trkpt lat="44.17447" lon="4.3737">
        <ele>237</ele>
        <time>2016-03-31T06:50:29Z</time>
      </trkpt>
      <trkpt lat="44.17446" lon="4.37375">
        <ele>237</ele>
        <time>2016-03-31T06:52:29Z</time>
      </trkpt>
      <trkpt lat="44.17446" lon="4.37403">
        <ele>237</ele>
        <time>2016-03-31T06:54:29Z</time>
      </trkpt>
      <trkpt lat="44.17446" lon="4.37432">
        <ele>237</ele>
        <time>2016-03-31T06:56:29Z</time>
      </trkpt>
      <trkpt lat="44.17447" lon="4.37454">
        <ele>237</ele>
        <time>2016-03-31T06:58:29Z</time>
      </trkpt>
      <trkpt lat="44.17447" lon="4.37461">
        <ele>237</ele>
        <time>2016-03-31T07:00:29Z</time>
      </trkpt>
      <trkpt lat="44.17446" lon="4.37469">
        <ele>237</ele>
        <time>2016-03-31T07:02:29Z</time>
      </trkpt>
      <trkpt lat="44.17445" lon="4.37478">
        <ele>237</ele>
        <time>2016-03-31T07:04:29Z</time>
      </trkpt>
      <trkpt lat="44.17444" lon="4.37486">
        <ele>237</ele>
        <time>2016-03-31T07:06:29Z</time>
      </trkpt>
      <trkpt lat="44.17441" lon="4.37495">
        <ele>238</ele>
        <time>2016-03-31T07:08:29Z</time>
      </trkpt>
      <trkpt lat="44.17437" lon="4.375">
        <ele>237</ele>
        <time>2016-03-31T07:10:29Z</time>
      </trkpt>
      <trkpt lat="44.17433" lon="4.37505">
        <ele>237</ele>
        <time>2016-03-31T07:12:29Z</time>
      </trkpt>
      <trkpt lat="44.17427" lon="4.37509">
        <ele>237</ele>
        <time>2016-03-31T07:14:29Z</time>
      </trkpt>
      <trkpt lat="44.17421" lon="4.37511">
        <ele>237</ele>
        <time>2016-03-31T07:16:29Z</time>
      </trkpt>
      <trkpt lat="44.17412" lon="4.37519">
        <ele>236</ele>
        <time>2016-03-31T07:18:29Z</time>
      </trkpt>
      <trkpt lat="44.17407" lon="4.37526">
        <ele>236</ele>
        <time>2016-03-31T07:20:29Z</time>
      </trkpt>
      <trkpt lat="44.17389" lon="4.37548">
        <ele>235</ele>
        <time>2016-03-31T07:22:29Z</time>
      </trkpt>
      <trkpt lat="44.17387" lon="4.3755">
        <ele>235</ele>
        <time>2016-03-31T07:24:29Z</time>
      </trkpt>
      <trkpt lat="44.17376" lon="4.3757">
        <ele>234</ele>
        <time>2016-03-31T07:26:29Z</time>
      </trkpt>
      <trkpt lat="44.17372" lon="4.3758">
        <ele>233</ele>
        <time>2016-03-31T07:28:29Z</time>
      </trkpt>
      <trkpt lat="44.1737" lon="4.37595">
        <ele>233</ele>
        <time>2016-03-31T07:30:29Z</time>
      </trkpt>
      <trkpt lat="44.17368" lon="4.3762">
        <ele>233</ele>
        <time>2016-03-31T07:32:29Z</time>
      </trkpt>
      <trkpt lat="44.17368" lon="4.37632">
        <ele>233</ele>
        <time>2016-03-31T07:34:29Z</time>
      </trkpt>
      <trkpt lat="44.17366" lon="4.37653">
        <ele>232</ele>
        <time>2016-03-31T07:36:29Z</time>
      </trkpt>
      <trkpt lat="44.17364" lon="4.37672">
        <ele>232</ele>
        <time>2016-03-31T07:38:29Z</time>
      </trkpt>
      <trkpt lat="44.1736" lon="4.3769">
        <ele>232</ele>
        <time>2016-03-31T07:40:29Z</time>
      </trkpt>
      <trkpt lat="44.17325" lon="4.3786">
        <ele>230</ele>
        <time>2016-03-31T07:42:29Z</time>
      </trkpt>
      <trkpt lat="44.17317" lon="4.37881">
        <ele>230</ele>
        <time>2016-03-31T07:44:29Z</time>
      </trkpt>
      <trkpt lat="44.17306" lon="4.37899">
        <ele>229</ele>
        <time>2016-03-31T07:46:29Z</time>
      </trkpt>
      <trkpt lat="44.17296" lon="4.37916">
        <ele>228</ele>
        <time>2016-03-31T07:48:29Z</time>
      </trkpt>
      <trkpt lat="44.17288" lon="4.37938">
        <ele>227</ele>
        <time>2016-03-31T07:50:29Z</time>
      </trkpt>
      <trkpt lat="44.17278" lon="4.38002">
        <ele>226</ele>
        <time>2016-03-31T07:52:29Z</time>
      </trkpt>
      <trkpt lat="44.17274" lon="4.38034">
        <ele>226</ele>
        <time>2016-03-31T07:54:29Z</time>
      </trkpt>
      <trkpt lat="44.17274" lon="4.38067">
        <ele>226</ele>
        <time>2016-03-31T07:56:29Z</time>
      </trkpt>
      <trkpt lat="44.17277" lon="4.38095">
        <ele>225</ele>
        <time>2016-03-31T07:58:29Z</time>
      </trkpt>
      <trkpt lat="44.17281" lon="4.38116">
        <ele>225</ele>
        <time>2016-03-31T08:00:29Z</time>
      </trkpt>
      <trkpt lat="44.17286" lon="4.38136">
        <ele>225</ele>
        <time>2016-03-31T08:02:29Z</time>
      </trkpt>
      <trkpt lat="44.17296" lon="4.38174">
        <ele>225</ele>
        <time>2016-03-31T08:04:29Z</time>
      </trkpt>
      <trkpt lat="44.17311" lon="4.38221">
        <ele>225</ele>
        <time>2016-03-31T08:06:29Z</time>
      </trkpt>
      <trkpt lat="44.1732" lon="4.38245">
        <ele>226</ele>
        <time>2016-03-31T08:08:29Z</time>
      </trkpt>
      <trkpt lat="44.1733" lon="4.38268">
        <ele>226</ele>
        <time>2016-03-31T08:10:29Z</time>
      </trkpt>
      <trkpt lat="44.17338" lon="4.38288">
        <ele>226</ele>
        <time>2016-03-31T08:12:29Z</time>
      </trkpt>
      <trkpt lat="44.17343" lon="4.383">
        <ele>226</ele>
        <time>2016-03-31T08:14:29Z</time>
      </trkpt>
      <trkpt lat="44.17344" lon="4.38311">
        <ele>226</ele>
        <time>2016-03-31T08:16:29Z</time>
      </trkpt>
      <trkpt lat="44.17345" lon="4.38318">
        <ele>226</ele>
        <time>2016-03-31T08:18:29Z</time>
      </trkpt>
      <trkpt lat="44.17345" lon="4.38324">
        <ele>226</ele>
        <time>2016-03-31T08:20:29Z</time>
      </trkpt>
      <trkpt lat="44.17343" lon="4.3833">
        <ele>226</ele>
        <time>2016-03-31T08:22:29Z</time>
      </trkpt>
      <trkpt lat="44.17342" lon="4.38335">
        <ele>226</ele>
        <time>2016-03-31T08:24:29Z</time>
      </trkpt>
      <trkpt lat="44.1734" lon="4.38342">
        <ele>226</ele>
        <time>2016-03-31T08:26:29Z</time>
      </trkpt>
      <trkpt lat="44.17307" lon="4.38407">
        <ele>225</ele>
        <time>2016-03-31T08:28:29Z</time>
      </trkpt>
      <trkpt lat="44.173" lon="4.38417">
        <ele>225</ele>
        <time>2016-03-31T08:30:29Z</time>
      </trkpt>
      <trkpt lat="44.17292" lon="4.38426">
        <ele>225</ele>
        <time>2016-03-31T08:32:29Z</time>
      </trkpt>
      <trkpt lat="44.17287" lon="4.38431">
        <ele>225</ele>
        <time>2016-03-31T08:34:29Z</time>
      </trkpt>
      <trkpt lat="44.17278" lon="4.38438">
        <ele>225</ele>
        <time>2016-03-31T08:36:29Z</time>
      </trkpt>
      <trkpt lat="44.17264" lon="4.38447">
        <ele>225</ele>
        <time>2016-03-31T08:38:29Z</time>
      </trkpt>
      <trkpt lat="44.1725" lon="4.38457">
        <ele>225</ele>
        <time>2016-03-31T08:40:29Z</time>
      </trkpt>
      <trkpt lat="44.17247" lon="4.38459">
        <ele>225</ele>
        <time>2016-03-31T08:42:29Z</time>
      </trkpt>
      <trkpt lat="44.1722" lon="4.38481">
        <ele>225</ele>
        <time>2016-03-31T08:44:29Z</time>
      </trkpt>
      <trkpt lat="44.17172" lon="4.38518">
        <ele>225</ele>
        <time>2016-03-31T08:46:29Z</time>
      </trkpt>
      <trkpt lat="44.17135" lon="4.38545">
        <ele>226</ele>
        <time>2016-03-31T08:48:29Z</time>
      </trkpt>
      <trkpt lat="44.17116" lon="4.38561">
        <ele>226</ele>
        <time>2016-03-31T08:50:29Z</time>
      </trkpt>
      <trkpt lat="44.17087" lon="4.38593">
        <ele>227</ele>
        <time>2016-03-31T08:52:29Z</time>
      </trkpt>
      <trkpt lat="44.1706" lon="4.38621">
        <ele>229</ele>
        <time>2016-03-31T08:54:29Z</time>
      </trkpt>
      <trkpt lat="44.17056" lon="4.38626">
        <ele>229</ele>
        <time>2016-03-31T08:56:29Z</time>
      </trkpt>
      <trkpt lat="44.17053" lon="4.38631">
        <ele>229</ele>
        <time>2016-03-31T08:58:29Z</time>
      </trkpt>
      <trkpt lat="44.17051" lon="4.38634">
        <ele>230</ele>
        <time>2016-03-31T09:00:29Z</time>
      </trkpt>
      <trkpt lat="44.17048" lon="4.38639">
        <ele>230</ele>
        <time>2016-03-31T09:02:29Z</time>
      </trkpt>
      <trkpt lat="44.17048" lon="4.38646">
        <ele>230</ele>
        <time>2016-03-31T09:04:29Z</time>
      </trkpt>
      <trkpt lat="44.17048" lon="4.38651">
        <ele>230</ele>
        <time>2016-03-31T09:06:29Z</time>
      </trkpt>
      <trkpt lat="44.17048" lon="4.38655">
        <ele>230</ele>
        <time>2016-03-31T09:08:29Z</time>
      </trkpt>
      <trkpt lat="44.17049" lon="4.38658">
        <ele>230</ele>
        <time>2016-03-31T09:10:29Z</time>
      </trkpt>
      <trkpt lat="44.1705" lon="4.38661">
        <ele>230</ele>
        <time>2016-03-31T09:12:29Z</time>
      </trkpt>
      <trkpt lat="44.17051" lon="4.38663">
        <ele>230</ele>
        <time>2016-03-31T09:14:29Z</time>
      </trkpt>
      <trkpt lat="44.17053" lon="4.38666">
        <ele>230</ele>
        <time>2016-03-31T09:16:29Z</time>
      </trkpt>
      <trkpt lat="44.17055" lon="4.3867">
        <ele>231</ele>
        <time>2016-03-31T09:18:29Z</time>
      </trkpt>
      <trkpt lat="44.17068" lon="4.38684">
        <ele>231</ele>
        <time>2016-03-31T09:20:29Z</time>
      </trkpt>
      <trkpt lat="44.1708" lon="4.38695">
        <ele>232</ele>
        <time>2016-03-31T09:22:29Z</time>
      </trkpt>
      <trkpt lat="44.17088" lon="4.38708">
        <ele>233</ele>
        <time>2016-03-31T09:24:29Z</time>
      </trkpt>
      <trkpt lat="44.17089" lon="4.38713">
        <ele>234</ele>
        <time>2016-03-31T09:26:29Z</time>
      </trkpt>
      <trkpt lat="44.17089" lon="4.38717">
        <ele>234</ele>
        <time>2016-03-31T09:28:29Z</time>
      </trkpt>
      <trkpt lat="44.17089" lon="4.38721">
        <ele>235</ele>
        <time>2016-03-31T09:30:29Z</time>
      </trkpt>
      <trkpt lat="44.17088" lon="4.38724">
        <ele>235</ele>
        <time>2016-03-31T09:32:29Z</time>
      </trkpt>
      <trkpt lat="44.17086" lon="4.38731">
        <ele>236</ele>
        <time>2016-03-31T09:34:29Z</time>
      </trkpt>
      <trkpt lat="44.17084" lon="4.38736">
        <ele>236</ele>
        <time>2016-03-31T09:36:29Z</time>
      </trkpt>
      <trkpt lat="44.17082" lon="4.3874">
        <ele>237</ele>
        <time>2016-03-31T09:38:29Z</time>
      </trkpt>
      <trkpt lat="44.17078" lon="4.38746">
        <ele>238</ele>
        <time>2016-03-31T09:40:29Z</time>
      </trkpt>
      <trkpt lat="44.17068" lon="4.38753">
        <ele>239</ele>
        <time>2016-03-31T09:42:29Z</time>
      </trkpt>
      <trkpt lat="44.17053" lon="4.38762">
        <ele>240</ele>
        <time>2016-03-31T09:44:29Z</time>
      </trkpt>
      <trkpt lat="44.17046" lon="4.38768">
        <ele>241</ele>
        <time>2016-03-31T09:46:29Z</time>
      </trkpt>
      <trkpt lat="44.17038" lon="4.38776">
        <ele>242</ele>
        <time>2016-03-31T09:48:29Z</time>
      </trkpt>
      <trkpt lat="44.17022" lon="4.38796">
        <ele>244</ele>
        <time>2016-03-31T09:50:29Z</time>
      </trkpt>
      <trkpt lat="44.17007" lon="4.38822">
        <ele>247</ele>
        <time>2016-03-31T09:52:29Z</time>
      </trkpt>
      <trkpt lat="44.1699" lon="4.38843">
        <ele>250</ele>
        <time>2016-03-31T09:54:29Z</time>
      </trkpt>
      <trkpt lat="44.16971" lon="4.38859">
        <ele>253</ele>
        <time>2016-03-31T09:56:29Z</time>
      </trkpt>
      <trkpt lat="44.16954" lon="4.38873">
        <ele>255</ele>
        <time>2016-03-31T09:58:29Z</time>
      </trkpt>
      <trkpt lat="44.16934" lon="4.38887">
        <ele>256</ele>
        <time>2016-03-31T10:00:29Z</time>
      </trkpt>
      <trkpt lat="44.16929" lon="4.3889">
        <ele>257</ele>
        <time>2016-03-31T10:02:29Z</time>
      </trkpt>
      <trkpt lat="44.16915" lon="4.38901">
        <ele>258</ele>
        <time>2016-03-31T10:04:29Z</time>
      </trkpt>
      <trkpt lat="44.16891" lon="4.38919">
        <ele>261</ele>
        <time>2016-03-31T10:06:29Z</time>
      </trkpt>
      <trkpt lat="44.1688" lon="4.38927">
        <ele>263</ele>
        <time>2016-03-31T10:08:29Z</time>
      </trkpt>
      <trkpt lat="44.16873" lon="4.38931">
        <ele>264</ele>
        <time>2016-03-31T10:10:29Z</time>
      </trkpt>
      <trkpt lat="44.16863" lon="4.38934">
        <ele>264</ele>
        <time>2016-03-31T10:12:29Z</time>
      </trkpt>
      <trkpt lat="44.16854" lon="4.38935">
        <ele>264</ele>
        <time>2016-03-31T10:14:29Z</time>
      </trkpt>
      <trkpt lat="44.16836" lon="4.38945">
        <ele>266</ele>
        <time>2016-03-31T10:16:29Z</time>
      </trkpt>
      <trkpt lat="44.16821" lon="4.38956">
        <ele>268</ele>
        <time>2016-03-31T10:18:29Z</time>
      </trkpt>
      <trkpt lat="44.16801" lon="4.38974">
        <ele>270</ele>
        <time>2016-03-31T10:20:29Z</time>
      </trkpt>
      <trkpt lat="44.16782" lon="4.3899">
        <ele>271</ele>
        <time>2016-03-31T10:22:29Z</time>
      </trkpt>
      <trkpt lat="44.16759" lon="4.39004">
        <ele>270</ele>
        <time>2016-03-31T10:24:29Z</time>
      </trkpt>
      <trkpt lat="44.1674" lon="4.39015">
        <ele>270</ele>
        <time>2016-03-31T10:26:29Z</time>
      </trkpt>
      <trkpt lat="44.16737" lon="4.39018">
        <ele>271</ele>
        <time>2016-03-31T10:28:29Z</time>
      </trkpt>
      <trkpt lat="44.16734" lon="4.39021">
        <ele>271</ele>
        <time>2016-03-31T10:30:29Z</time>
      </trkpt>
      <trkpt lat="44.16728" lon="4.39027">
        <ele>271</ele>
        <time>2016-03-31T10:32:29Z</time>
      </trkpt>
      <trkpt lat="44.16724" lon="4.39033">
        <ele>272</ele>
        <time>2016-03-31T10:34:29Z</time>
      </trkpt>
      <trkpt lat="44.16718" lon="4.39042">
        <ele>272</ele>
        <time>2016-03-31T10:36:29Z</time>
      </trkpt>
      <trkpt lat="44.16706" lon="4.39073">
        <ele>273</ele>
        <time>2016-03-31T10:38:29Z</time>
      </trkpt>
      <trkpt lat="44.167" lon="4.39086">
        <ele>274</ele>
        <time>2016-03-31T10:40:29Z</time>
      </trkpt>
      <trkpt lat="44.16693" lon="4.39098">
        <ele>275</ele>
        <time>2016-03-31T10:42:29Z</time>
      </trkpt>
      <trkpt lat="44.16683" lon="4.39108">
        <ele>276</ele>
        <time>2016-03-31T10:44:29Z</time>
      </trkpt>
      <trkpt lat="44.16672" lon="4.39116">
        <ele>276</ele>
        <time>2016-03-31T10:46:29Z</time>
      </trkpt>
      <trkpt lat="44.1665" lon="4.39131">
        <ele>278</ele>
        <time>2016-03-31T10:48:29Z</time>
      </trkpt>
      <trkpt lat="44.16601" lon="4.39158">
        <ele>281</ele>
        <time>2016-03-31T10:50:29Z</time>
      </trkpt>
      <trkpt lat="44.16545" lon="4.39207">
        <ele>287</ele>
        <time>2016-03-31T10:52:29Z</time>
      </trkpt>
      <trkpt lat="44.16529" lon="4.39225">
        <ele>289</ele>
        <time>2016-03-31T10:54:29Z</time>
      </trkpt>
      <trkpt lat="44.16519" lon="4.39232">
        <ele>289</ele>
        <time>2016-03-31T10:56:29Z</time>
      </trkpt>
      <trkpt lat="44.16508" lon="4.39239">
        <ele>289</ele>
        <time>2016-03-31T10:58:29Z</time>
      </trkpt>
      <trkpt lat="44.165" lon="4.39242">
        <ele>290</ele>
        <time>2016-03-31T11:00:29Z</time>
      </trkpt>
      <trkpt lat="44.1649" lon="4.39243">
        <ele>290</ele>
        <time>2016-03-31T11:02:29Z</time>
      </trkpt>
      <trkpt lat="44.16479" lon="4.39244">
        <ele>290</ele>
        <time>2016-03-31T11:04:29Z</time>
      </trkpt>
      <trkpt lat="44.16467" lon="4.39239">
        <ele>291</ele>
        <time>2016-03-31T11:06:29Z</time>
      </trkpt>
      <trkpt lat="44.1645" lon="4.39232">
        <ele>291</ele>
        <time>2016-03-31T11:08:29Z</time>
      </trkpt>
      <trkpt lat="44.16431" lon="4.39223">
        <ele>292</ele>
        <time>2016-03-31T11:10:29Z</time>
      </trkpt>
      <trkpt lat="44.16421" lon="4.39221">
        <ele>292</ele>
        <time>2016-03-31T11:12:29Z</time>
      </trkpt>
      <trkpt lat="44.16411" lon="4.39221">
        <ele>292</ele>
        <time>2016-03-31T11:14:29Z</time>
      </trkpt>
      <trkpt lat="44.16405" lon="4.39223">
        <ele>292</ele>
        <time>2016-03-31T11:16:29Z</time>
      </trkpt>
      <trkpt lat="44.16376" lon="4.39228">
        <ele>291</ele>
        <time>2016-03-31T11:18:29Z</time>
      </trkpt>
      <trkpt lat="44.16121" lon="4.39265">
        <ele>282</ele>
        <time>2016-03-31T11:20:29Z</time>
      </trkpt>
      <trkpt lat="44.15993" lon="4.39286">
        <ele>277</ele>
        <time>2016-03-31T11:22:29Z</time>
      </trkpt>
      <trkpt lat="44.15993" lon="4.39286">
        <ele>277</ele>
        <time>2016-03-31T11:24:29Z</time>
      </trkpt>
      <trkpt lat="44.15993" lon="4.39293">
        <ele>277</ele>
        <time>2016-03-31T11:26:29Z</time>
      </trkpt>
      <trkpt lat="44.15991" lon="4.39301">
        <ele>277</ele>
        <time>2016-03-31T11:28:29Z</time>
      </trkpt>
      <trkpt lat="44.15988" lon="4.3931">
        <ele>278</ele>
        <time>2016-03-31T11:30:29Z</time>
      </trkpt>
      <trkpt lat="44.15979" lon="4.39335">
        <ele>278</ele>
        <time>2016-03-31T11:32:29Z</time>
      </trkpt>
      <trkpt lat="44.15967" lon="4.39366">
        <ele>278</ele>
        <time>2016-03-31T11:34:29Z</time>
      </trkpt>
      <trkpt lat="44.15956" lon="4.39397">
        <ele>279</ele>
        <time>2016-03-31T11:36:29Z</time>
      </trkpt>
      <trkpt lat="44.1595" lon="4.39415">
        <ele>279</ele>
        <time>2016-03-31T11:38:29Z</time>
      </trkpt>
      <trkpt lat="44.15946" lon="4.39431">
        <ele>279</ele>
        <time>2016-03-31T11:40:29Z</time>
      </trkpt>
      <trkpt lat="44.15938" lon="4.39462">
        <ele>279</ele>
        <time>2016-03-31T11:42:29Z</time>
      </trkpt>
      <trkpt lat="44.15892" lon="4.39644">
        <ele>277</ele>
        <time>2016-03-31T11:44:29Z</time>
      </trkpt>
      <trkpt lat="44.15889" lon="4.39659">
        <ele>277</ele>
        <time>2016-03-31T11:46:29Z</time>
      </trkpt>
      <trkpt lat="44.15886" lon="4.39677">
        <ele>278</ele>
        <time>2016-03-31T11:48:29Z</time>
      </trkpt>
      <trkpt lat="44.15882" lon="4.39702">
        <ele>278</ele>
        <time>2016-03-31T11:50:29Z</time>
      </trkpt>
      <trkpt lat="44.1588" lon="4.39726">
        <ele>278</ele>
        <time>2016-03-31T11:52:29Z</time>
      </trkpt>
      <trkpt lat="44.15877" lon="4.39769">
        <ele>279</ele>
        <time>2016-03-31T11:54:29Z</time>
      </trkpt>
      <trkpt lat="44.15876" lon="4.3979">
        <ele>279</ele>
        <time>2016-03-31T11:56:29Z</time>
      </trkpt>
      <trkpt lat="44.15875" lon="4.3981">
        <ele>280</ele>
        <time>2016-03-31T11:58:29Z</time>
      </trkpt>
      <trkpt lat="44.15875" lon="4.39819">
        <ele>280</ele>
        <time>2016-03-31T12:00:29Z</time>
      </trkpt>
      <trkpt lat="44.15875" lon="4.39829">
        <ele>280</ele>
        <time>2016-03-31T12:02:29Z</time>
      </trkpt>
      <trkpt lat="44.15876" lon="4.39839">
        <ele>280</ele>
        <time>2016-03-31T12:04:29Z</time>
      </trkpt>
      <trkpt lat="44.15879" lon="4.39856">
        <ele>280</ele>
        <time>2016-03-31T12:06:29Z</time>
      </trkpt>
      <trkpt lat="44.15884" lon="4.39874">
        <ele>280</ele>
        <time>2016-03-31T12:08:29Z</time>
      </trkpt>
      <trkpt lat="44.1589" lon="4.39893">
        <ele>280</ele>
        <time>2016-03-31T12:10:29Z</time>
      </trkpt>
      <trkpt lat="44.15898" lon="4.39918">
        <ele>279</ele>
        <time>2016-03-31T12:12:29Z</time>
      </trkpt>
      <trkpt lat="44.15912" lon="4.39958">
        <ele>278</ele>
        <time>2016-03-31T12:14:29Z</time>
      </trkpt>
      <trkpt lat="44.15922" lon="4.39992">
        <ele>277</ele>
        <time>2016-03-31T12:16:29Z</time>
      </trkpt>
      <trkpt lat="44.15932" lon="4.40034">
        <ele>277</ele>
        <time>2016-03-31T12:18:29Z</time>
      </trkpt>
      <trkpt lat="44.15941" lon="4.40079">
        <ele>277</ele>
        <time>2016-03-31T12:20:29Z</time>
      </trkpt>
      <trkpt lat="44.1595" lon="4.40126">
        <ele>277</ele>
        <time>2016-03-31T12:22:29Z</time>
      </trkpt>
      <trkpt lat="44.15958" lon="4.40165">
        <ele>277</ele>
        <time>2016-03-31T12:24:29Z</time>
      </trkpt>
      <trkpt lat="44.15968" lon="4.40207">
        <ele>277</ele>
        <time>2016-03-31T12:26:29Z</time>
      </trkpt>
      <trkpt lat="44.15975" lon="4.40241">
        <ele>277</ele>
        <time>2016-03-31T12:28:29Z</time>
      </trkpt>
      <trkpt lat="44.15978" lon="4.40264">
        <ele>277</ele>
        <time>2016-03-31T12:30:29Z</time>
      </trkpt>
      <trkpt lat="44.15977" lon="4.40276">
        <ele>277</ele>
        <time>2016-03-31T12:32:29Z</time>
      </trkpt>
      <trkpt lat="44.15974" lon="4.40295">
        <ele>278</ele>
        <time>2016-03-31T12:34:29Z</time>
      </trkpt>
      <trkpt lat="44.15962" lon="4.40333">
        <ele>278</ele>
        <time>2016-03-31T12:36:29Z</time>
      </trkpt>
      <trkpt lat="44.15959" lon="4.4034">
        <ele>279</ele>
        <time>2016-03-31T12:38:29Z</time>
      </trkpt>
      <trkpt lat="44.15936" lon="4.40404">
        <ele>279</ele>
        <time>2016-03-31T12:40:29Z</time>
      </trkpt>
      <trkpt lat="44.15917" lon="4.40456">
        <ele>279</ele>
        <time>2016-03-31T12:42:29Z</time>
      </trkpt>
      <trkpt lat="44.15904" lon="4.40495">
        <ele>279</ele>
        <time>2016-03-31T12:44:29Z</time>
      </trkpt>
      <trkpt lat="44.159" lon="4.40504">
        <ele>279</ele>
        <time>2016-03-31T12:46:29Z</time>
      </trkpt>
      <trkpt lat="44.15899" lon="4.40513">
        <ele>279</ele>
        <time>2016-03-31T12:48:29Z</time>
      </trkpt>
      <trkpt lat="44.15896" lon="4.40523">
        <ele>279</ele>
        <time>2016-03-31T12:50:29Z</time>
      </trkpt>
      <trkpt lat="44.15894" lon="4.40532">
        <ele>278</ele>
        <time>2016-03-31T12:52:29Z</time>
      </trkpt>
      <trkpt lat="44.15893" lon="4.40548">
        <ele>278</ele>
        <time>2016-03-31T12:54:29Z</time>
      </trkpt>
      <trkpt lat="44.15894" lon="4.40564">
        <ele>277</ele>
        <time>2016-03-31T12:56:29Z</time>
      </trkpt>
      <trkpt lat="44.15896" lon="4.40586">
        <ele>276</ele>
        <time>2016-03-31T12:58:29Z</time>
      </trkpt>
      <trkpt lat="44.15899" lon="4.40599">
        <ele>276</ele>
        <time>2016-03-31T13:00:29Z</time>
      </trkpt>
      <trkpt lat="44.15905" lon="4.40632">
        <ele>276</ele>
        <time>2016-03-31T13:02:29Z</time>
      </trkpt>
      <trkpt lat="44.15912" lon="4.40674">
        <ele>275</ele>
        <time>2016-03-31T13:04:29Z</time>
      </trkpt>
      <trkpt lat="44.15917" lon="4.40703">
        <ele>275</ele>
        <time>2016-03-31T13:06:29Z</time>
      </trkpt>
      <trkpt lat="44.15921" lon="4.40726">
        <ele>276</ele>
        <time>2016-03-31T13:08:29Z</time>
      </trkpt>
      <trkpt lat="44.15922" lon="4.40739">
        <ele>276</ele>
        <time>2016-03-31T13:10:29Z</time>
      </trkpt>
      <trkpt lat="44.15924" lon="4.40753">
        <ele>276</ele>
        <time>2016-03-31T13:12:29Z</time>
      </trkpt>
      <trkpt lat="44.15923" lon="4.40763">
        <ele>276</ele>
        <time>2016-03-31T13:14:29Z</time>
      </trkpt>
      <trkpt lat="44.15923" lon="4.40773">
        <ele>277</ele>
        <time>2016-03-31T13:16:29Z</time>
      </trkpt>
      <trkpt lat="44.15921" lon="4.40784">
        <ele>277</ele>
        <time>2016-03-31T13:18:29Z</time>
      </trkpt>
      <trkpt lat="44.15917" lon="4.40806">
        <ele>277</ele>
        <time>2016-03-31T13:20:29Z</time>
      </trkpt>
      <trkpt lat="44.15914" lon="4.40816">
        <ele>277</ele>
        <time>2016-03-31T13:22:29Z</time>
      </trkpt>
      <trkpt lat="44.15907" lon="4.40837">
        <ele>277</ele>
        <time>2016-03-31T13:24:29Z</time>
      </trkpt>
      <trkpt lat="44.15899" lon="4.40855">
        <ele>277</ele>
        <time>2016-03-31T13:26:29Z</time>
      </trkpt>
      <trkpt lat="44.15888" lon="4.40872">
        <ele>276</ele>
        <time>2016-03-31T13:28:29Z</time>
      </trkpt>
      <trkpt lat="44.15876" lon="4.40886">
        <ele>276</ele>
        <time>2016-03-31T13:30:29Z</time>
      </trkpt>
      <trkpt lat="44.15861" lon="4.409">
        <ele>275</ele>
        <time>2016-03-31T13:32:29Z</time>
      </trkpt>
      <trkpt lat="44.15846" lon="4.40912">
        <ele>274</ele>
        <time>2016-03-31T13:34:29Z</time>
      </trkpt>
      <trkpt lat="44.1581" lon="4.40942">
        <ele>274</ele>
        <time>2016-03-31T13:36:29Z</time>
      </trkpt>
      <trkpt lat="44.15794" lon="4.40953">
        <ele>275</ele>
        <time>2016-03-31T13:38:29Z</time>
      </trkpt>
      <trkpt lat="44.15788" lon="4.4096">
        <ele>275</ele>
        <time>2016-03-31T13:40:29Z</time>
      </trkpt>
      <trkpt lat="44.15784" lon="4.40965">
        <ele>275</ele>
        <time>2016-03-31T13:42:29Z</time>
      </trkpt>
      <trkpt lat="44.1578" lon="4.40972">
        <ele>275</ele>
        <time>2016-03-31T13:44:29Z</time>
      </trkpt>
      <trkpt lat="44.15778" lon="4.40979">
        <ele>275</ele>
        <time>2016-03-31T13:46:29Z</time>
      </trkpt>
      <trkpt lat="44.15777" lon="4.40987">
        <ele>275</ele>
        <time>2016-03-31T13:48:29Z</time>
      </trkpt>
      <trkpt lat="44.15776" lon="4.40995">
        <ele>275</ele>
        <time>2016-03-31T13:50:29Z</time>
      </trkpt>
      <trkpt lat="44.15778" lon="4.41006">
        <ele>275</ele>
        <time>2016-03-31T13:52:29Z</time>
      </trkpt>
      <trkpt lat="44.1578" lon="4.41014">
        <ele>275</ele>
        <time>2016-03-31T13:54:29Z</time>
      </trkpt>
      <trkpt lat="44.15783" lon="4.41027">
        <ele>275</ele>
        <time>2016-03-31T13:56:29Z</time>
      </trkpt>
      <trkpt lat="44.15788" lon="4.41046">
        <ele>275</ele>
        <time>2016-03-31T13:58:29Z</time>
      </trkpt>
      <trkpt lat="44.15794" lon="4.41068">
        <ele>275</ele>
        <time>2016-03-31T14:00:29Z</time>
      </trkpt>
      <trkpt lat="44.158" lon="4.41092">
        <ele>274</ele>
        <time>2016-03-31T14:02:29Z</time>
      </trkpt>
      <trkpt lat="44.15804" lon="4.41112">
        <ele>273</ele>
        <time>2016-03-31T14:04:29Z</time>
      </trkpt>
      <trkpt lat="44.15808" lon="4.41127">
        <ele>273</ele>
        <time>2016-03-31T14:06:29Z</time>
      </trkpt>
      <trkpt lat="44.15809" lon="4.41141">
        <ele>272</ele>
        <time>2016-03-31T14:08:29Z</time>
      </trkpt>
      <trkpt lat="44.15814" lon="4.41181">
        <ele>271</ele>
        <time>2016-03-31T14:10:29Z</time>
      </trkpt>
      <trkpt lat="44.15817" lon="4.41202">
        <ele>270</ele>
        <time>2016-03-31T14:12:29Z</time>
      </trkpt>
      <trkpt lat="44.1582" lon="4.41221">
        <ele>270</ele>
        <time>2016-03-31T14:14:29Z</time>
      </trkpt>
      <trkpt lat="44.15822" lon="4.41239">
        <ele>269</ele>
        <time>2016-03-31T14:16:29Z</time>
      </trkpt>
      <trkpt lat="44.15824" lon="4.41254">
        <ele>269</ele>
        <time>2016-03-31T14:18:29Z</time>
      </trkpt>
      <trkpt lat="44.15825" lon="4.41267">
        <ele>269</ele>
        <time>2016-03-31T14:20:29Z</time>
      </trkpt>
      <trkpt lat="44.15825" lon="4.41275">
        <ele>269</ele>
        <time>2016-03-31T14:22:29Z</time>
      </trkpt>
      <trkpt lat="44.15823" lon="4.41285">
        <ele>269</ele>
        <time>2016-03-31T14:24:29Z</time>
      </trkpt>
      <trkpt lat="44.15819" lon="4.41294">
        <ele>269</ele>
        <time>2016-03-31T14:26:29Z</time>
      </trkpt>
      <trkpt lat="44.15813" lon="4.41305">
        <ele>269</ele>
        <time>2016-03-31T14:28:29Z</time>
      </trkpt>
      <trkpt lat="44.15807" lon="4.41313">
        <ele>269</ele>
        <time>2016-03-31T14:30:29Z</time>
      </trkpt>
      <trkpt lat="44.15793" lon="4.41327">
        <ele>268</ele>
        <time>2016-03-31T14:32:29Z</time>
      </trkpt>
      <trkpt lat="44.15774" lon="4.41344">
        <ele>268</ele>
        <time>2016-03-31T14:34:29Z</time>
      </trkpt>
      <trkpt lat="44.15761" lon="4.41356">
        <ele>267</ele>
        <time>2016-03-31T14:36:29Z</time>
      </trkpt>
      <trkpt lat="44.15756" lon="4.41363">
        <ele>267</ele>
        <time>2016-03-31T14:38:29Z</time>
      </trkpt>
      <trkpt lat="44.15752" lon="4.41369">
        <ele>267</ele>
        <time>2016-03-31T14:40:29Z</time>
      </trkpt>
      <trkpt lat="44.1575" lon="4.41376">
        <ele>267</ele>
        <time>2016-03-31T14:42:29Z</time>
      </trkpt>
      <trkpt lat="44.15748" lon="4.41384">
        <ele>267</ele>
        <time>2016-03-31T14:44:29Z</time>
      </trkpt>
      <trkpt lat="44.15747" lon="4.41393">
        <ele>267</ele>
        <time>2016-03-31T14:46:29Z</time>
      </trkpt>
      <trkpt lat="44.15748" lon="4.41401">
        <ele>267</ele>
        <time>2016-03-31T14:48:29Z</time>
      </trkpt>
      <trkpt lat="44.15749" lon="4.41411">
        <ele>267</ele>
        <time>2016-03-31T14:50:29Z</time>
      </trkpt>
      <trkpt lat="44.15753" lon="4.41442">
        <ele>267</ele>
        <time>2016-03-31T14:52:29Z</time>
      </trkpt>
      <trkpt lat="44.15756" lon="4.41461">
        <ele>266</ele>
        <time>2016-03-31T14:54:29Z</time>
      </trkpt>
      <trkpt lat="44.15761" lon="4.41493">
        <ele>266</ele>
        <time>2016-03-31T14:56:29Z</time>
      </trkpt>
      <trkpt lat="44.15762" lon="4.41501">
        <ele>266</ele>
        <time>2016-03-31T14:58:29Z</time>
      </trkpt>
      <trkpt lat="44.15762" lon="4.41508">
        <ele>265</ele>
        <time>2016-03-31T15:00:29Z</time>
      </trkpt>
      <trkpt lat="44.15762" lon="4.41515">
        <ele>265</ele>
        <time>2016-03-31T15:02:29Z</time>
      </trkpt>
      <trkpt lat="44.15761" lon="4.41525">
        <ele>264</ele>
        <time>2016-03-31T15:04:29Z</time>
      </trkpt>
      <trkpt lat="44.15758" lon="4.41537">
        <ele>264</ele>
        <time>2016-03-31T15:06:29Z</time>
      </trkpt>
      <trkpt lat="44.15753" lon="4.41547">
        <ele>263</ele>
        <time>2016-03-31T15:08:29Z</time>
      </trkpt>
      <trkpt lat="44.15737" lon="4.41574">
        <ele>262</ele>
        <time>2016-03-31T15:10:29Z</time>
      </trkpt>
      <trkpt lat="44.15719" lon="4.41604">
        <ele>262</ele>
        <time>2016-03-31T15:12:29Z</time>
      </trkpt>
      <trkpt lat="44.15705" lon="4.41626">
        <ele>262</ele>
        <time>2016-03-31T15:14:29Z</time>
      </trkpt>
      <trkpt lat="44.15691" lon="4.41647">
        <ele>261</ele>
        <time>2016-03-31T15:16:29Z</time>
      </trkpt>
      <trkpt lat="44.15678" lon="4.41664">
        <ele>260</ele>
        <time>2016-03-31T15:18:29Z</time>
      </trkpt>
      <trkpt lat="44.15655" lon="4.41686">
        <ele>260</ele>
        <time>2016-03-31T15:20:29Z</time>
      </trkpt>
      <trkpt lat="44.15635" lon="4.41703">
        <ele>260</ele>
        <time>2016-03-31T15:22:29Z</time>
      </trkpt>
      <trkpt lat="44.15623" lon="4.41711">
        <ele>260</ele>
        <time>2016-03-31T15:24:29Z</time>
      </trkpt>
      <trkpt lat="44.15611" lon="4.4172">
        <ele>260</ele>
        <time>2016-03-31T15:26:29Z</time>
      </trkpt>
      <trkpt lat="44.15602" lon="4.41725">
        <ele>259</ele>
        <time>2016-03-31T15:28:29Z</time>
      </trkpt>
      <trkpt lat="44.15594" lon="4.41728">
        <ele>259</ele>
        <time>2016-03-31T15:30:29Z</time>
      </trkpt>
      <trkpt lat="44.15583" lon="4.41731">
        <ele>258</ele>
        <time>2016-03-31T15:32:29Z</time>
      </trkpt>
      <trkpt lat="44.1557" lon="4.41734">
        <ele>259</ele>
        <time>2016-03-31T15:34:29Z</time>
      </trkpt>
      <trkpt lat="44.15563" lon="4.41736">
        <ele>259</ele>
        <time>2016-03-31T15:36:29Z</time>
      </trkpt>
      <trkpt lat="44.15555" lon="4.41742">
        <ele>259</ele>
        <time>2016-03-31T15:38:29Z</time>
      </trkpt>
      <trkpt lat="44.15551" lon="4.41747">
        <ele>259</ele>
        <time>2016-03-31T15:40:29Z</time>
      </trkpt>
      <trkpt lat="44.15547" lon="4.41754">
        <ele>258</ele>
        <time>2016-03-31T15:42:29Z</time>
      </trkpt>
      <trkpt lat="44.15546" lon="4.4176">
        <ele>259</ele>
        <time>2016-03-31T15:44:29Z</time>
      </trkpt>
      <trkpt lat="44.15544" lon="4.41769">
        <ele>259</ele>
        <time>2016-03-31T15:46:29Z</time>
      </trkpt>
      <trkpt lat="44.15544" lon="4.41777">
        <ele>259</ele>
        <time>2016-03-31T15:48:29Z</time>
      </trkpt>
      <trkpt lat="44.15546" lon="4.41789">
        <ele>259</ele>
        <time>2016-03-31T15:50:29Z</time>
      </trkpt>
      <trkpt lat="44.15548" lon="4.41804">
        <ele>259</ele>
        <time>2016-03-31T15:52:29Z</time>
      </trkpt>
      <trkpt lat="44.1555" lon="4.4182">
        <ele>259</ele>
        <time>2016-03-31T15:54:29Z</time>
      </trkpt>
      <trkpt lat="44.15551" lon="4.41833">
        <ele>259</ele>
        <time>2016-03-31T15:56:29Z</time>
      </trkpt>
      <trkpt lat="44.15551" lon="4.41844">
        <ele>259</ele>
        <time>2016-03-31T15:58:29Z</time>
      </trkpt>
      <trkpt lat="44.15551" lon="4.41856">
        <ele>259</ele>
        <time>2016-03-31T16:00:29Z</time>
      </trkpt>
      <trkpt lat="44.15549" lon="4.41872">
        <ele>258</ele>
        <time>2016-03-31T16:02:29Z</time>
      </trkpt>
      <trkpt lat="44.15546" lon="4.41892">
        <ele>258</ele>
        <time>2016-03-31T16:04:29Z</time>
      </trkpt>
      <trkpt lat="44.15542" lon="4.41913">
        <ele>257</ele>
        <time>2016-03-31T16:06:29Z</time>
      </trkpt>
      <trkpt lat="44.15539" lon="4.41932">
        <ele>256</ele>
        <time>2016-03-31T16:08:29Z</time>
      </trkpt>
      <trkpt lat="44.15538" lon="4.41947">
        <ele>256</ele>
        <time>2016-03-31T16:10:29Z</time>
      </trkpt>
      <trkpt lat="44.15539" lon="4.41968">
        <ele>255</ele>
        <time>2016-03-31T16:12:29Z</time>
      </trkpt>
      <trkpt lat="44.15541" lon="4.41987">
        <ele>255</ele>
        <time>2016-03-31T16:14:29Z</time>
      </trkpt>
      <trkpt lat="44.15544" lon="4.42011">
        <ele>254</ele>
        <time>2016-03-31T16:16:29Z</time>
      </trkpt>
      <trkpt lat="44.15548" lon="4.42048">
        <ele>253</ele>
        <time>2016-03-31T16:18:29Z</time>
      </trkpt>
      <trkpt lat="44.15551" lon="4.42078">
        <ele>251</ele>
        <time>2016-03-31T16:20:29Z</time>
      </trkpt>
      <trkpt lat="44.15554" lon="4.42101">
        <ele>251</ele>
        <time>2016-03-31T16:22:29Z</time>
      </trkpt>
      <trkpt lat="44.15556" lon="4.42113">
        <ele>252</ele>
        <time>2016-03-31T16:24:29Z</time>
      </trkpt>
      <trkpt lat="44.15559" lon="4.42122">
        <ele>252</ele>
        <time>2016-03-31T16:26:29Z</time>
      </trkpt>
      <trkpt lat="44.15562" lon="4.42131">
        <ele>252</ele>
        <time>2016-03-31T16:28:29Z</time>
      </trkpt>
      <trkpt lat="44.15566" lon="4.42142">
        <ele>252</ele>
        <time>2016-03-31T16:30:29Z</time>
      </trkpt>
      <trkpt lat="44.15574" lon="4.42152">
        <ele>252</ele>
        <time>2016-03-31T16:32:29Z</time>
      </trkpt>
      <trkpt lat="44.1558" lon="4.42158">
        <ele>251</ele>
        <time>2016-03-31T16:34:29Z</time>
      </trkpt>
      <trkpt lat="44.15585" lon="4.42162">
        <ele>251</ele>
        <time>2016-03-31T16:36:29Z</time>
      </trkpt>
      <trkpt lat="44.15591" lon="4.42163">
        <ele>251</ele>
        <time>2016-03-31T16:38:29Z</time>
      </trkpt>
      <trkpt lat="44.15596" lon="4.42163">
        <ele>251</ele>
        <time>2016-03-31T16:40:29Z</time>
      </trkpt>
      <trkpt lat="44.156" lon="4.42161">
        <ele>251</ele>
        <time>2016-03-31T16:42:29Z</time>
      </trkpt>
      <trkpt lat="44.15606" lon="4.42156">
        <ele>251</ele>
        <time>2016-03-31T16:44:29Z</time>
      </trkpt>
      <trkpt lat="44.15611" lon="4.42149">
        <ele>250</ele>
        <time>2016-03-31T16:46:29Z</time>
      </trkpt>
      <trkpt lat="44.15618" lon="4.42135">
        <ele>250</ele>
        <time>2016-03-31T16:48:29Z</time>
      </trkpt>
      <trkpt lat="44.15624" lon="4.42122">
        <ele>250</ele>
        <time>2016-03-31T16:50:29Z</time>
      </trkpt>
      <trkpt lat="44.15631" lon="4.42114">
        <ele>250</ele>
        <time>2016-03-31T16:52:29Z</time>
      </trkpt>
      <trkpt lat="44.15636" lon="4.42108">
        <ele>250</ele>
        <time>2016-03-31T16:54:29Z</time>
      </trkpt>
      <trkpt lat="44.15643" lon="4.42103">
        <ele>250</ele>
        <time>2016-03-31T16:56:29Z</time>
      </trkpt>
      <trkpt lat="44.15649" lon="4.421">
        <ele>250</ele>
        <time>2016-03-31T16:58:29Z</time>
      </trkpt>
      <trkpt lat="44.15659" lon="4.42096">
        <ele>250</ele>
        <time>2016-03-31T17:00:29Z</time>
      </trkpt>
      <trkpt lat="44.1567" lon="4.42095">
        <ele>250</ele>
        <time>2016-03-31T17:02:29Z</time>
      </trkpt>
      <trkpt lat="44.15684" lon="4.42094">
        <ele>251</ele>
        <time>2016-03-31T17:04:29Z</time>
      </trkpt>
      <trkpt lat="44.15698" lon="4.42094">
        <ele>251</ele>
        <time>2016-03-31T17:06:29Z</time>
      </trkpt>
      <trkpt lat="44.15706" lon="4.42096">
        <ele>252</ele>
        <time>2016-03-31T17:08:29Z</time>
      </trkpt>
      <trkpt lat="44.15714" lon="4.42099">
        <ele>252</ele>
        <time>2016-03-31T17:10:29Z</time>
      </trkpt>
      <trkpt lat="44.15726" lon="4.42104">
        <ele>252</ele>
        <time>2016-03-31T17:12:29Z</time>
      </trkpt>
      <trkpt lat="44.15738" lon="4.42113">
        <ele>252</ele>
        <time>2016-03-31T17:14:29Z</time>
      </trkpt>
      <trkpt lat="44.15745" lon="4.42121">
        <ele>251</ele>
        <time>2016-03-31T17:16:29Z</time>
      </trkpt>
      <trkpt lat="44.1575" lon="4.42127">
        <ele>250</ele>
        <time>2016-03-31T17:18:29Z</time>
      </trkpt>
      <trkpt lat="44.15756" lon="4.42138">
        <ele>250</ele>
        <time>2016-03-31T17:20:29Z</time>
      </trkpt>
      <trkpt lat="44.15758" lon="4.42148">
        <ele>250</ele>
        <time>2016-03-31T17:22:29Z</time>
      </trkpt>
      <trkpt lat="44.1576" lon="4.4216">
        <ele>249</ele>
        <time>2016-03-31T17:24:29Z</time>
      </trkpt>
      <trkpt lat="44.1576" lon="4.42171">
        <ele>248</ele>
        <time>2016-03-31T17:26:29Z</time>
      </trkpt>
      <trkpt lat="44.15759" lon="4.42186">
        <ele>248</ele>
        <time>2016-03-31T17:28:29Z</time>
      </trkpt>
      <trkpt lat="44.15758" lon="4.42202">
        <ele>248</ele>
        <time>2016-03-31T17:30:29Z</time>
      </trkpt>
      <trkpt lat="44.15757" lon="4.4221">
        <ele>248</ele>
        <time>2016-03-31T17:32:29Z</time>
      </trkpt>
      <trkpt lat="44.15758" lon="4.42217">
        <ele>249</ele>
        <time>2016-03-31T17:34:29Z</time>
      </trkpt>
      <trkpt lat="44.1576" lon="4.42224">
        <ele>249</ele>
        <time>2016-03-31T17:36:29Z</time>
      </trkpt>
      <trkpt lat="44.15762" lon="4.42232">
        <ele>249</ele>
        <time>2016-03-31T17:38:29Z</time>
      </trkpt>
      <trkpt lat="44.15768" lon="4.42243">
        <ele>250</ele>
        <time>2016-03-31T17:40:29Z</time>
      </trkpt>
      <trkpt lat="44.15775" lon="4.42255">
        <ele>250</ele>
        <time>2016-03-31T17:42:29Z</time>
      </trkpt>
      <trkpt lat="44.15778" lon="4.42263">
        <ele>250</ele>
        <time>2016-03-31T17:44:29Z</time>
      </trkpt>
      <trkpt lat="44.15782" lon="4.42272">
        <ele>250</ele>
        <time>2016-03-31T17:46:29Z</time>
      </trkpt>
      <trkpt lat="44.15784" lon="4.42281">
        <ele>249</ele>
        <time>2016-03-31T17:48:29Z</time>
      </trkpt>
      <trkpt lat="44.15786" lon="4.42289">
        <ele>249</ele>
        <time>2016-03-31T17:50:29Z</time>
      </trkpt>
      <trkpt lat="44.15787" lon="4.42297">
        <ele>249</ele>
        <time>2016-03-31T17:52:29Z</time>
      </trkpt>
      <trkpt lat="44.15787" lon="4.42298">
        <ele>249</ele>
        <time>2016-03-31T17:54:29Z</time>
      </trkpt>
      <trkpt lat="44.15787" lon="4.42307">
        <ele>248</ele>
        <time>2016-03-31T17:56:29Z</time>
      </trkpt>
      <trkpt lat="44.15785" lon="4.42316">
        <ele>248</ele>
        <time>2016-03-31T17:58:29Z</time>
      </trkpt>
      <trkpt lat="44.15781" lon="4.42329">
        <ele>248</ele>
        <time>2016-03-31T18:00:29Z</time>
      </trkpt>
      <trkpt lat="44.15777" lon="4.42342">
        <ele>248</ele>
        <time>2016-03-31T18:02:29Z</time>
      </trkpt>
      <trkpt lat="44.15776" lon="4.4235">
        <ele>248</ele>
        <time>2016-03-31T18:04:29Z</time>
      </trkpt>
      <trkpt lat="44.15776" lon="4.42357">
        <ele>248</ele>
        <time>2016-03-31T18:06:29Z</time>
      </trkpt>
      <trkpt lat="44.15777" lon="4.42364">
        <ele>248</ele>
        <time>2016-03-31T18:08:29Z</time>
      </trkpt>
      <trkpt lat="44.15779" lon="4.42371">
        <ele>248</ele>
        <time>2016-03-31T18:10:29Z</time>
      </trkpt>
      <trkpt lat="44.15783" lon="4.42377">
        <ele>247</ele>
        <time>2016-03-31T18:12:29Z</time>
      </trkpt>
      <trkpt lat="44.15793" lon="4.42392">
        <ele>247</ele>
        <time>2016-03-31T18:14:29Z</time>
      </trkpt>
      <trkpt lat="44.15807" lon="4.4241">
        <ele>246</ele>
        <time>2016-03-31T18:16:29Z</time>
      </trkpt>
      <trkpt lat="44.15815" lon="4.42423">
        <ele>246</ele>
        <time>2016-03-31T18:18:29Z</time>
      </trkpt>
      <trkpt lat="44.15819" lon="4.42432">
        <ele>246</ele>
        <time>2016-03-31T18:20:29Z</time>
      </trkpt>
      <trkpt lat="44.1582" lon="4.4244">
        <ele>246</ele>
        <time>2016-03-31T18:22:29Z</time>
      </trkpt>
      <trkpt lat="44.15821" lon="4.42448">
        <ele>246</ele>
        <time>2016-03-31T18:24:29Z</time>
      </trkpt>
      <trkpt lat="44.1582" lon="4.42457">
        <ele>246</ele>
        <time>2016-03-31T18:26:29Z</time>
      </trkpt>
      <trkpt lat="44.15818" lon="4.42464">
        <ele>246</ele>
        <time>2016-03-31T18:28:29Z</time>
      </trkpt>
      <trkpt lat="44.15815" lon="4.42472">
        <ele>246</ele>
        <time>2016-03-31T18:30:29Z</time>
      </trkpt>
      <trkpt lat="44.15809" lon="4.42482">
        <ele>246</ele>
        <time>2016-03-31T18:32:29Z</time>
      </trkpt>
      <trkpt lat="44.15801" lon="4.42495">
        <ele>246</ele>
        <time>2016-03-31T18:34:29Z</time>
      </trkpt>
      <trkpt lat="44.1579" lon="4.42507">
        <ele>245</ele>
        <time>2016-03-31T18:36:29Z</time>
      </trkpt>
      <trkpt lat="44.15781" lon="4.42521">
        <ele>244</ele>
        <time>2016-03-31T18:38:29Z</time>
      </trkpt>
      <trkpt lat="44.15777" lon="4.42528">
        <ele>243</ele>
        <time>2016-03-31T18:40:29Z</time>
      </trkpt>
      <trkpt lat="44.15774" lon="4.42536">
        <ele>243</ele>
        <time>2016-03-31T18:42:29Z</time>
      </trkpt>
      <trkpt lat="44.15772" lon="4.42545">
        <ele>242</ele>
        <time>2016-03-31T18:44:29Z</time>
      </trkpt>
      <trkpt lat="44.1577" lon="4.42553">
        <ele>241</ele>
        <time>2016-03-31T18:46:29Z</time>
      </trkpt>
      <trkpt lat="44.15769" lon="4.42563">
        <ele>240</ele>
        <time>2016-03-31T18:48:29Z</time>
      </trkpt>
      <trkpt lat="44.15769" lon="4.42576">
        <ele>239</ele>
        <time>2016-03-31T18:50:29Z</time>
      </trkpt>
      <trkpt lat="44.15767" lon="4.42588">
        <ele>238</ele>
        <time>2016-03-31T18:52:29Z</time>
      </trkpt>
      <trkpt lat="44.15764" lon="4.42594">
        <ele>237</ele>
        <time>2016-03-31T18:54:29Z</time>
      </trkpt>
      <trkpt lat="44.15761" lon="4.42599">
        <ele>237</ele>
        <time>2016-03-31T18:56:29Z</time>
      </trkpt>
      <trkpt lat="44.15756" lon="4.42603">
        <ele>236</ele>
        <time>2016-03-31T18:58:29Z</time>
      </trkpt>
      <trkpt lat="44.15748" lon="4.42607">
        <ele>235</ele>
        <time>2016-03-31T19:00:29Z</time>
      </trkpt>
      <trkpt lat="44.15738" lon="4.4261">
        <ele>237</ele>
        <time>2016-03-31T19:02:29Z</time>
      </trkpt>
      <trkpt lat="44.15734" lon="4.42611">
        <ele>238</ele>
        <time>2016-03-31T19:04:29Z</time>
      </trkpt>
      <trkpt lat="44.15729" lon="4.42615">
        <ele>240</ele>
        <time>2016-03-31T19:06:29Z</time>
      </trkpt>
      <trkpt lat="44.15725" lon="4.42619">
        <ele>240</ele>
        <time>2016-03-31T19:08:29Z</time>
      </trkpt>
      <trkpt lat="44.15722" lon="4.42627">
        <ele>241</ele>
        <time>2016-03-31T19:10:29Z</time>
      </trkpt>
      <trkpt lat="44.15719" lon="4.42634">
        <ele>241</ele>
        <time>2016-03-31T19:12:29Z</time>
      </trkpt>
      <trkpt lat="44.15718" lon="4.42644">
        <ele>241</ele>
        <time>2016-03-31T19:14:29Z</time>
      </trkpt>
      <trkpt lat="44.15718" lon="4.42652">
        <ele>240</ele>
        <time>2016-03-31T19:16:29Z</time>
      </trkpt>
      <trkpt lat="44.15719" lon="4.42665">
        <ele>239</ele>
        <time>2016-03-31T19:18:29Z</time>
      </trkpt>
      <trkpt lat="44.15723" lon="4.42681">
        <ele>238</ele>
        <time>2016-03-31T19:20:29Z</time>
      </trkpt>
      <trkpt lat="44.15727" lon="4.42691">
        <ele>238</ele>
        <time>2016-03-31T19:22:29Z</time>
      </trkpt>
      <trkpt lat="44.1573" lon="4.42702">
        <ele>237</ele>
        <time>2016-03-31T19:24:29Z</time>
      </trkpt>
      <trkpt lat="44.15735" lon="4.42711">
        <ele>235</ele>
        <time>2016-03-31T19:26:29Z</time>
      </trkpt>
      <trkpt lat="44.15741" lon="4.42725">
        <ele>234</ele>
        <time>2016-03-31T19:28:29Z</time>
      </trkpt>
      <trkpt lat="44.1575" lon="4.42738">
        <ele>231</ele>
        <time>2016-03-31T19:30:29Z</time>
      </trkpt>
      <trkpt lat="44.15768" lon="4.42759">
        <ele>232</ele>
        <time>2016-03-31T19:32:29Z</time>
      </trkpt>
      <trkpt lat="44.15785" lon="4.42778">
        <ele>233</ele>
        <time>2016-03-31T19:34:29Z</time>
      </trkpt>
      <trkpt lat="44.15808" lon="4.42801">
        <ele>232</ele>
        <time>2016-03-31T19:36:29Z</time>
      </trkpt>
      <trkpt lat="44.15816" lon="4.42809">
        <ele>232</ele>
        <time>2016-03-31T19:38:29Z</time>
      </trkpt>
      <trkpt lat="44.15822" lon="4.42817">
        <ele>231</ele>
        <time>2016-03-31T19:40:29Z</time>
      </trkpt>
      <trkpt lat="44.15827" lon="4.42826">
        <ele>229</ele>
        <time>2016-03-31T19:42:29Z</time>
      </trkpt>
      <trkpt lat="44.15831" lon="4.42835">
        <ele>228</ele>
        <time>2016-03-31T19:44:29Z</time>
      </trkpt>
      <trkpt lat="44.15834" lon="4.42844">
        <ele>228</ele>
        <time>2016-03-31T19:46:29Z</time>
      </trkpt>
      <trkpt lat="44.15837" lon="4.42854">
        <ele>228</ele>
        <time>2016-03-31T19:48:29Z</time>
      </trkpt>
      <trkpt lat="44.15838" lon="4.42864">
        <ele>227</ele>
        <time>2016-03-31T19:50:29Z</time>
      </trkpt>
      <trkpt lat="44.1584" lon="4.42878">
        <ele>227</ele>
        <time>2016-03-31T19:52:29Z</time>
      </trkpt>
      <trkpt lat="44.15841" lon="4.42897">
        <ele>226</ele>
        <time>2016-03-31T19:54:29Z</time>
      </trkpt>
      <trkpt lat="44.15843" lon="4.42916">
        <ele>225</ele>
        <time>2016-03-31T19:56:29Z</time>
      </trkpt>
      <trkpt lat="44.15845" lon="4.42925">
        <ele>226</ele>
        <time>2016-03-31T19:58:29Z</time>
      </trkpt>
      <trkpt lat="44.15847" lon="4.4293">
        <ele>227</ele>
        <time>2016-03-31T20:00:29Z</time>
      </trkpt>
      <trkpt lat="44.15857" lon="4.42946">
        <ele>227</ele>
        <time>2016-03-31T20:02:29Z</time>
      </trkpt>
      <trkpt lat="44.15862" lon="4.42952">
        <ele>227</ele>
        <time>2016-03-31T20:04:29Z</time>
      </trkpt>
      <trkpt lat="44.15868" lon="4.42957">
        <ele>227</ele>
        <time>2016-03-31T20:06:29Z</time>
      </trkpt>
      <trkpt lat="44.15875" lon="4.42961">
        <ele>227</ele>
        <time>2016-03-31T20:08:29Z</time>
      </trkpt>
      <trkpt lat="44.15882" lon="4.42965">
        <ele>227</ele>
        <time>2016-03-31T20:10:29Z</time>
      </trkpt>
      <trkpt lat="44.15895" lon="4.4297">
        <ele>226</ele>
        <time>2016-03-31T20:12:29Z</time>
      </trkpt>
      <trkpt lat="44.15902" lon="4.42973">
        <ele>225</ele>
        <time>2016-03-31T20:14:29Z</time>
      </trkpt>
      <trkpt lat="44.15907" lon="4.42978">
        <ele>224</ele>
        <time>2016-03-31T20:16:29Z</time>
      </trkpt>
      <trkpt lat="44.15912" lon="4.42983">
        <ele>223</ele>
        <time>2016-03-31T20:18:29Z</time>
      </trkpt>
      <trkpt lat="44.15917" lon="4.42989">
        <ele>222</ele>
        <time>2016-03-31T20:20:29Z</time>
      </trkpt>
      <trkpt lat="44.1592" lon="4.42996">
        <ele>222</ele>
        <time>2016-03-31T20:22:29Z</time>
      </trkpt>
      <trkpt lat="44.15923" lon="4.43004">
        <ele>222</ele>
        <time>2016-03-31T20:24:29Z</time>
      </trkpt>
      <trkpt lat="44.15926" lon="4.43012">
        <ele>222</ele>
        <time>2016-03-31T20:26:29Z</time>
      </trkpt>
      <trkpt lat="44.15929" lon="4.4302">
        <ele>223</ele>
        <time>2016-03-31T20:28:29Z</time>
      </trkpt>
      <trkpt lat="44.15931" lon="4.43028">
        <ele>224</ele>
        <time>2016-03-31T20:30:29Z</time>
      </trkpt>
      <trkpt lat="44.15934" lon="4.43035">
        <ele>224</ele>
        <time>2016-03-31T20:32:29Z</time>
      </trkpt>
      <trkpt lat="44.15937" lon="4.43041">
        <ele>224</ele>
        <time>2016-03-31T20:34:29Z</time>
      </trkpt>
      <trkpt lat="44.15941" lon="4.43047">
        <ele>225</ele>
        <time>2016-03-31T20:36:29Z</time>
      </trkpt>
      <trkpt lat="44.15946" lon="4.43051">
        <ele>225</ele>
        <time>2016-03-31T20:38:29Z</time>
      </trkpt>
      <trkpt lat="44.15951" lon="4.43054">
        <ele>224</ele>
        <time>2016-03-31T20:40:29Z</time>
      </trkpt>
      <trkpt lat="44.15958" lon="4.43056">
        <ele>224</ele>
        <time>2016-03-31T20:42:29Z</time>
      </trkpt>
      <trkpt lat="44.15964" lon="4.43056">
        <ele>223</ele>
        <time>2016-03-31T20:44:29Z</time>
      </trkpt>
      <trkpt lat="44.1597" lon="4.43055">
        <ele>223</ele>
        <time>2016-03-31T20:46:29Z</time>
      </trkpt>
      <trkpt lat="44.15977" lon="4.43053">
        <ele>222</ele>
        <time>2016-03-31T20:48:29Z</time>
      </trkpt>
      <trkpt lat="44.15983" lon="4.43051">
        <ele>222</ele>
        <time>2016-03-31T20:50:29Z</time>
      </trkpt>
      <trkpt lat="44.1599" lon="4.43049">
        <ele>222</ele>
        <time>2016-03-31T20:52:29Z</time>
      </trkpt>
      <trkpt lat="44.16002" lon="4.43042">
        <ele>222</ele>
        <time>2016-03-31T20:54:29Z</time>
      </trkpt>
      <trkpt lat="44.16014" lon="4.43037">
        <ele>223</ele>
        <time>2016-03-31T20:56:29Z</time>
      </trkpt>
      <trkpt lat="44.1602" lon="4.43036">
        <ele>223</ele>
        <time>2016-03-31T20:58:29Z</time>
      </trkpt>
      <trkpt lat="44.16026" lon="4.43037">
        <ele>224</ele>
        <time>2016-03-31T21:00:29Z</time>
      </trkpt>
      <trkpt lat="44.16031" lon="4.43038">
        <ele>224</ele>
        <time>2016-03-31T21:02:29Z</time>
      </trkpt>
      <trkpt lat="44.16037" lon="4.43042">
        <ele>224</ele>
        <time>2016-03-31T21:04:29Z</time>
      </trkpt>
      <trkpt lat="44.1604" lon="4.43045">
        <ele>224</ele>
        <time>2016-03-31T21:06:29Z</time>
      </trkpt>
      <trkpt lat="44.16044" lon="4.43052">
        <ele>223</ele>
        <time>2016-03-31T21:08:29Z</time>
      </trkpt>
      <trkpt lat="44.1605" lon="4.43064">
        <ele>222</ele>
        <time>2016-03-31T21:10:29Z</time>
      </trkpt>
      <trkpt lat="44.16052" lon="4.43071">
        <ele>222</ele>
        <time>2016-03-31T21:12:29Z</time>
      </trkpt>
      <trkpt lat="44.16054" lon="4.4308">
        <ele>221</ele>
        <time>2016-03-31T21:14:29Z</time>
      </trkpt>
      <trkpt lat="44.16063" lon="4.43105">
        <ele>220</ele>
        <time>2016-03-31T21:16:29Z</time>
      </trkpt>
      <trkpt lat="44.1607" lon="4.43121">
        <ele>220</ele>
        <time>2016-03-31T21:18:29Z</time>
      </trkpt>
      <trkpt lat="44.16084" lon="4.43154">
        <ele>219</ele>
        <time>2016-03-31T21:20:29Z</time>
      </trkpt>
      <trkpt lat="44.16093" lon="4.43176">
        <ele>218</ele>
        <time>2016-03-31T21:22:29Z</time>
      </trkpt>
      <trkpt lat="44.16096" lon="4.4319">
        <ele>217</ele>
        <time>2016-03-31T21:24:29Z</time>
      </trkpt>
      <trkpt lat="44.16096" lon="4.43195">
        <ele>216</ele>
        <time>2016-03-31T21:26:29Z</time>
      </trkpt>
      <trkpt lat="44.16095" lon="4.43203">
        <ele>216</ele>
        <time>2016-03-31T21:28:29Z</time>
      </trkpt>
      <trkpt lat="44.16094" lon="4.43212">
        <ele>215</ele>
        <time>2016-03-31T21:30:29Z</time>
      </trkpt>
      <trkpt lat="44.16093" lon="4.43216">
        <ele>215</ele>
        <time>2016-03-31T21:32:29Z</time>
      </trkpt>
      <trkpt lat="44.16092" lon="4.4322">
        <ele>214</ele>
        <time>2016-03-31T21:34:29Z</time>
      </trkpt>
      <trkpt lat="44.16089" lon="4.43231">
        <ele>214</ele>
        <time>2016-03-31T21:36:29Z</time>
      </trkpt>
      <trkpt lat="44.16087" lon="4.43239">
        <ele>213</ele>
        <time>2016-03-31T21:38:29Z</time>
      </trkpt>
      <trkpt lat="44.16087" lon="4.43246">
        <ele>213</ele>
        <time>2016-03-31T21:40:29Z</time>
      </trkpt>
      <trkpt lat="44.16087" lon="4.43254">
        <ele>213</ele>
        <time>2016-03-31T21:42:29Z</time>
      </trkpt>
      <trkpt lat="44.16089" lon="4.43261">
        <ele>214</ele>
        <time>2016-03-31T21:44:29Z</time>
      </trkpt>
      <trkpt lat="44.16092" lon="4.43267">
        <ele>215</ele>
        <time>2016-03-31T21:46:29Z</time>
      </trkpt>
      <trkpt lat="44.16096" lon="4.43272">
        <ele>215</ele>
        <time>2016-03-31T21:48:29Z</time>
      </trkpt>
      <trkpt lat="44.161" lon="4.43276">
        <ele>215</ele>
        <time>2016-03-31T21:50:29Z</time>
      </trkpt>
      <trkpt lat="44.16105" lon="4.43279">
        <ele>215</ele>
        <time>2016-03-31T21:52:29Z</time>
      </trkpt>
      <trkpt lat="44.1611" lon="4.4328">
        <ele>215</ele>
        <time>2016-03-31T21:54:29Z</time>
      </trkpt>
      <trkpt lat="44.16116" lon="4.4328">
        <ele>214</ele>
        <time>2016-03-31T21:56:29Z</time>
      </trkpt>
      <trkpt lat="44.16121" lon="4.43278">
        <ele>213</ele>
        <time>2016-03-31T21:58:29Z</time>
      </trkpt>
      <trkpt lat="44.16139" lon="4.43271">
        <ele>210</ele>
        <time>2016-03-31T22:00:29Z</time>
      </trkpt>
      <trkpt lat="44.16158" lon="4.43262">
        <ele>207</ele>
        <time>2016-03-31T22:02:29Z</time>
      </trkpt>
      <trkpt lat="44.16176" lon="4.43255">
        <ele>205</ele>
        <time>2016-03-31T22:04:29Z</time>
      </trkpt>
      <trkpt lat="44.16188" lon="4.43254">
        <ele>204</ele>
        <time>2016-03-31T22:06:29Z</time>
      </trkpt>
      <trkpt lat="44.16194" lon="4.43256">
        <ele>204</ele>
        <time>2016-03-31T22:08:29Z</time>
      </trkpt>
      <trkpt lat="44.16199" lon="4.43259">
        <ele>204</ele>
        <time>2016-03-31T22:10:29Z</time>
      </trkpt>
      <trkpt lat="44.16204" lon="4.43264">
        <ele>204</ele>
        <time>2016-03-31T22:12:29Z</time>
      </trkpt>
      <trkpt lat="44.16212" lon="4.43276">
        <ele>204</ele>
        <time>2016-03-31T22:14:29Z</time>
      </trkpt>
      <trkpt lat="44.16216" lon="4.43281">
        <ele>204</ele>
        <time>2016-03-31T22:16:29Z</time>
      </trkpt>
      <trkpt lat="44.1622" lon="4.43287">
        <ele>205</ele>
        <time>2016-03-31T22:18:29Z</time>
      </trkpt>
      <trkpt lat="44.16225" lon="4.43291">
        <ele>204</ele>
        <time>2016-03-31T22:20:29Z</time>
      </trkpt>
      <trkpt lat="44.16228" lon="4.43295">
        <ele>204</ele>
        <time>2016-03-31T22:22:29Z</time>
      </trkpt>
      <trkpt lat="44.16233" lon="4.43296">
        <ele>204</ele>
        <time>2016-03-31T22:24:29Z</time>
      </trkpt>
      <trkpt lat="44.1624" lon="4.43297">
        <ele>203</ele>
        <time>2016-03-31T22:26:29Z</time>
      </trkpt>
      <trkpt lat="44.16248" lon="4.43297">
        <ele>202</ele>
        <time>2016-03-31T22:28:29Z</time>
      </trkpt>
      <trkpt lat="44.16262" lon="4.43295">
        <ele>201</ele>
        <time>2016-03-31T22:30:29Z</time>
      </trkpt>
      <trkpt lat="44.16285" lon="4.4329">
        <ele>200</ele>
        <time>2016-03-31T22:32:29Z</time>
      </trkpt>
      <trkpt lat="44.16291" lon="4.43289">
        <ele>199</ele>
        <time>2016-03-31T22:34:29Z</time>
      </trkpt>
      <trkpt lat="44.1633" lon="4.43276">
        <ele>197</ele>
        <time>2016-03-31T22:36:29Z</time>
      </trkpt>
      <trkpt lat="44.16345" lon="4.43272">
        <ele>196</ele>
        <time>2016-03-31T22:38:29Z</time>
      </trkpt>
      <trkpt lat="44.16352" lon="4.43271">
        <ele>196</ele>
        <time>2016-03-31T22:40:29Z</time>
      </trkpt>
      <trkpt lat="44.16375" lon="4.43266">
        <ele>196</ele>
        <time>2016-03-31T22:42:29Z</time>
      </trkpt>
      <trkpt lat="44.16381" lon="4.43266">
        <ele>196</ele>
        <time>2016-03-31T22:44:29Z</time>
      </trkpt>
      <trkpt lat="44.16386" lon="4.43267">
        <ele>196</ele>
        <time>2016-03-31T22:46:29Z</time>
      </trkpt>
      <trkpt lat="44.16392" lon="4.43269">
        <ele>195</ele>
        <time>2016-03-31T22:48:29Z</time>
      </trkpt>
      <trkpt lat="44.16394" lon="4.4327">
        <ele>195</ele>
        <time>2016-03-31T22:50:29Z</time>
      </trkpt>
      <trkpt lat="44.16396" lon="4.43272">
        <ele>195</ele>
        <time>2016-03-31T22:52:29Z</time>
      </trkpt>
      <trkpt lat="44.16399" lon="4.43275">
        <ele>195</ele>
        <time>2016-03-31T22:54:29Z</time>
      </trkpt>
      <trkpt lat="44.164" lon="4.43278">
        <ele>195</ele>
        <time>2016-03-31T22:56:29Z</time>
      </trkpt>
      <trkpt lat="44.16403" lon="4.43283">
        <ele>194</ele>
        <time>2016-03-31T22:58:29Z</time>
      </trkpt>
      <trkpt lat="44.16406" lon="4.4329">
        <ele>194</ele>
        <time>2016-03-31T23:00:29Z</time>
      </trkpt>
      <trkpt lat="44.16407" lon="4.43298">
        <ele>193</ele>
        <time>2016-03-31T23:02:29Z</time>
      </trkpt>
      <trkpt lat="44.16409" lon="4.43308">
        <ele>192</ele>
        <time>2016-03-31T23:04:29Z</time>
      </trkpt>
      <trkpt lat="44.16414" lon="4.43342">
        <ele>190</ele>
        <time>2016-03-31T23:06:29Z</time>
      </trkpt>
      <trkpt lat="44.16416" lon="4.43351">
        <ele>190</ele>
        <time>2016-03-31T23:08:29Z</time>
      </trkpt>
      <trkpt lat="44.16418" lon="4.43357">
        <ele>190</ele>
        <time>2016-03-31T23:10:29Z</time>
      </trkpt>
      <trkpt lat="44.16422" lon="4.43363">
        <ele>191</ele>
        <time>2016-03-31T23:12:29Z</time>
      </trkpt>
      <trkpt lat="44.16427" lon="4.43371">
        <ele>191</ele>
        <time>2016-03-31T23:14:29Z</time>
      </trkpt>
      <trkpt lat="44.16433" lon="4.43378">
        <ele>192</ele>
        <time>2016-03-31T23:16:29Z</time>
      </trkpt>
      <trkpt lat="44.16439" lon="4.43383">
        <ele>192</ele>
        <time>2016-03-31T23:18:29Z</time>
      </trkpt>
      <trkpt lat="44.16446" lon="4.43388">
        <ele>191</ele>
        <time>2016-03-31T23:20:29Z</time>
      </trkpt>
      <trkpt lat="44.16469" lon="4.43396">
        <ele>190</ele>
        <time>2016-03-31T23:22:29Z</time>
      </trkpt>
      <trkpt lat="44.16483" lon="4.434">
        <ele>189</ele>
        <time>2016-03-31T23:24:29Z</time>
      </trkpt>
      <trkpt lat="44.16491" lon="4.43404">
        <ele>188</ele>
        <time>2016-03-31T23:26:29Z</time>
      </trkpt>
      <trkpt lat="44.16498" lon="4.43408">
        <ele>187</ele>
        <time>2016-03-31T23:28:29Z</time>
      </trkpt>
      <trkpt lat="44.16503" lon="4.43413">
        <ele>187</ele>
        <time>2016-03-31T23:30:29Z</time>
      </trkpt>
      <trkpt lat="44.16507" lon="4.43419">
        <ele>187</ele>
        <time>2016-03-31T23:32:29Z</time>
      </trkpt>
      <trkpt lat="44.16511" lon="4.43425">
        <ele>188</ele>
        <time>2016-03-31T23:34:29Z</time>
      </trkpt>
      <trkpt lat="44.16513" lon="4.43427">
        <ele>188</ele>
        <time>2016-03-31T23:36:29Z</time>
      </trkpt>
      <trkpt lat="44.16516" lon="4.43435">
        <ele>188</ele>
        <time>2016-03-31T23:38:29Z</time>
      </trkpt>
      <trkpt lat="44.1654" lon="4.43488">
        <ele>188</ele>
        <time>2016-03-31T23:40:29Z</time>
      </trkpt>
      <trkpt lat="44.16549" lon="4.43507">
        <ele>186</ele>
        <time>2016-03-31T23:42:29Z</time>
      </trkpt>
      <trkpt lat="44.16553" lon="4.43519">
        <ele>185</ele>
        <time>2016-03-31T23:44:29Z</time>
      </trkpt>
      <trkpt lat="44.16555" lon="4.43527">
        <ele>185</ele>
        <time>2016-03-31T23:46:29Z</time>
      </trkpt>
      <trkpt lat="44.16556" lon="4.43531">
        <ele>184</ele>
        <time>2016-03-31T23:48:29Z</time>
      </trkpt>
      <trkpt lat="44.16556" lon="4.43536">
        <ele>184</ele>
        <time>2016-03-31T23:50:29Z</time>
      </trkpt>
      <trkpt lat="44.16556" lon="4.43544">
        <ele>183</ele>
        <time>2016-03-31T23:52:29Z</time>
      </trkpt>
      <trkpt lat="44.16555" lon="4.43552">
        <ele>182</ele>
        <time>2016-03-31T23:54:29Z</time>
      </trkpt>
      <trkpt lat="44.16554" lon="4.43565">
        <ele>180</ele>
        <time>2016-03-31T23:56:29Z</time>
      </trkpt>
      <trkpt lat="44.16552" lon="4.43576">
        <ele>179</ele>
        <time>2016-03-31T23:58:29Z</time>
      </trkpt>
      <trkpt lat="44.16548" lon="4.4359">
        <ele>178</ele>
        <time>2016-04-01T00:00:29Z</time>
      </trkpt>
      <trkpt lat="44.16542" lon="4.43606">
        <ele>177</ele>
        <time>2016-04-01T00:02:29Z</time>
      </trkpt>
      <trkpt lat="44.16533" lon="4.4362">
        <ele>177</ele>
        <time>2016-04-01T00:04:29Z</time>
      </trkpt>
      <trkpt lat="44.16517" lon="4.43638">
        <ele>175</ele>
        <time>2016-04-01T00:06:29Z</time>
      </trkpt>
      <trkpt lat="44.16508" lon="4.4365">
        <ele>174</ele>
        <time>2016-04-01T00:08:29Z</time>
      </trkpt>
      <trkpt lat="44.16503" lon="4.43655">
        <ele>174</ele>
        <time>2016-04-01T00:10:29Z</time>
      </trkpt>
      <trkpt lat="44.16499" lon="4.43662">
        <ele>174</ele>
        <time>2016-04-01T00:12:29Z</time>
      </trkpt>
      <trkpt lat="44.16498" lon="4.43665">
        <ele>174</ele>
        <time>2016-04-01T00:14:29Z</time>
      </trkpt>
      <trkpt lat="44.16496" lon="4.43669">
        <ele>174</ele>
        <time>2016-04-01T00:16:29Z</time>
      </trkpt>
      <trkpt lat="44.16495" lon="4.43676">
        <ele>174</ele>
        <time>2016-04-01T00:18:29Z</time>
      </trkpt>
      <trkpt lat="44.16494" lon="4.43686">
        <ele>175</ele>
        <time>2016-04-01T00:20:29Z</time>
      </trkpt>
      <trkpt lat="44.16494" lon="4.43688">
        <ele>175</ele>
        <time>2016-04-01T00:22:29Z</time>
      </trkpt>
      <trkpt lat="44.16494" lon="4.43692">
        <ele>175</ele>
        <time>2016-04-01T00:24:29Z</time>
      </trkpt>
      <trkpt lat="44.16496" lon="4.437">
        <ele>175</ele>
        <time>2016-04-01T00:26:29Z</time>
      </trkpt>
      <trkpt lat="44.16498" lon="4.43708">
        <ele>174</ele>
        <time>2016-04-01T00:28:29Z</time>
      </trkpt>
      <trkpt lat="44.16501" lon="4.43716">
        <ele>174</ele>
        <time>2016-04-01T00:30:29Z</time>
      </trkpt>
      <trkpt lat="44.16505" lon="4.43723">
        <ele>174</ele>
        <time>2016-04-01T00:32:29Z</time>
      </trkpt>
      <trkpt lat="44.16509" lon="4.43729">
        <ele>174</ele>
        <time>2016-04-01T00:34:29Z</time>
      </trkpt>
      <trkpt lat="44.16514" lon="4.43736">
        <ele>174</ele>
        <time>2016-04-01T00:36:29Z</time>
      </trkpt>
      <trkpt lat="44.16587" lon="4.43815">
        <ele>170</ele>
        <time>2016-04-01T00:38:29Z</time>
      </trkpt>
      <trkpt lat="44.16593" lon="4.43822">
        <ele>172</ele>
        <time>2016-04-01T00:40:29Z</time>
      </trkpt>
      <trkpt lat="44.16597" lon="4.43829">
        <ele>173</ele>
        <time>2016-04-01T00:42:29Z</time>
      </trkpt>
      <trkpt lat="44.16598" lon="4.43832">
        <ele>173</ele>
        <time>2016-04-01T00:44:29Z</time>
      </trkpt>
      <trkpt lat="44.166" lon="4.43836">
        <ele>173</ele>
        <time>2016-04-01T00:46:29Z</time>
      </trkpt>
      <trkpt lat="44.16602" lon="4.43843">
        <ele>174</ele>
        <time>2016-04-01T00:48:29Z</time>
      </trkpt>
      <trkpt lat="44.16603" lon="4.43846">
        <ele>174</ele>
        <time>2016-04-01T00:50:29Z</time>
      </trkpt>
      <trkpt lat="44.16605" lon="4.43857">
        <ele>175</ele>
        <time>2016-04-01T00:52:29Z</time>
      </trkpt>
      <trkpt lat="44.16607" lon="4.4387">
        <ele>176</ele>
        <time>2016-04-01T00:54:29Z</time>
      </trkpt>
      <trkpt lat="44.16606" lon="4.43883">
        <ele>176</ele>
        <time>2016-04-01T00:56:29Z</time>
      </trkpt>
      <trkpt lat="44.16605" lon="4.43891">
        <ele>175</ele>
        <time>2016-04-01T00:58:29Z</time>
      </trkpt>
      <trkpt lat="44.16597" lon="4.43913">
        <ele>173</ele>
        <time>2016-04-01T01:00:29Z</time>
      </trkpt>
      <trkpt lat="44.16587" lon="4.43933">
        <ele>168</ele>
        <time>2016-04-01T01:02:29Z</time>
      </trkpt>
      <trkpt lat="44.16574" lon="4.43961">
        <ele>167</ele>
        <time>2016-04-01T01:04:29Z</time>
      </trkpt>
      <trkpt lat="44.16567" lon="4.4398">
        <ele>168</ele>
        <time>2016-04-01T01:06:29Z</time>
      </trkpt>
      <trkpt lat="44.16567" lon="4.43992">
        <ele>167</ele>
        <time>2016-04-01T01:08:29Z</time>
      </trkpt>
      <trkpt lat="44.16569" lon="4.44005">
        <ele>167</ele>
        <time>2016-04-01T01:10:29Z</time>
      </trkpt>
      <trkpt lat="44.16571" lon="4.44016">
        <ele>167</ele>
        <time>2016-04-01T01:12:29Z</time>
      </trkpt>
      <trkpt lat="44.16577" lon="4.44029">
        <ele>167</ele>
        <time>2016-04-01T01:14:29Z</time>
      </trkpt>
      <trkpt lat="44.1659" lon="4.4405">
        <ele>167</ele>
        <time>2016-04-01T01:16:29Z</time>
      </trkpt>
      <trkpt lat="44.16614" lon="4.44089">
        <ele>170</ele>
        <time>2016-04-01T01:18:29Z</time>
      </trkpt>
      <trkpt lat="44.16642" lon="4.44137">
        <ele>166</ele>
        <time>2016-04-01T01:20:29Z</time>
      </trkpt>
      <trkpt lat="44.16652" lon="4.44151">
        <ele>162</ele>
        <time>2016-04-01T01:22:29Z</time>
      </trkpt>
      <trkpt lat="44.16667" lon="4.44165">
        <ele>156</ele>
        <time>2016-04-01T01:24:29Z</time>
      </trkpt>
      <trkpt lat="44.16675" lon="4.44172">
        <ele>157</ele>
        <time>2016-04-01T01:26:29Z</time>
      </trkpt>
      <trkpt lat="44.16697" lon="4.44188">
        <ele>160</ele>
        <time>2016-04-01T01:28:29Z</time>
      </trkpt>
      <trkpt lat="44.16708" lon="4.44198">
        <ele>160</ele>
        <time>2016-04-01T01:30:29Z</time>
      </trkpt>
      <trkpt lat="44.16716" lon="4.4421">
        <ele>160</ele>
        <time>2016-04-01T01:32:29Z</time>
      </trkpt>
      <trkpt lat="44.1672" lon="4.44219">
        <ele>159</ele>
        <time>2016-04-01T01:34:29Z</time>
      </trkpt>
      <trkpt lat="44.16725" lon="4.44236">
        <ele>158</ele>
        <time>2016-04-01T01:36:29Z</time>
      </trkpt>
      <trkpt lat="44.16727" lon="4.4426">
        <ele>156</ele>
        <time>2016-04-01T01:38:29Z</time>
      </trkpt>
      <trkpt lat="44.16727" lon="4.44273">
        <ele>155</ele>
        <time>2016-04-01T01:40:29Z</time>
      </trkpt>
      <trkpt lat="44.16726" lon="4.44286">
        <ele>154</ele>
        <time>2016-04-01T01:42:29Z</time>
      </trkpt>
      <trkpt lat="44.16724" lon="4.44307">
        <ele>153</ele>
        <time>2016-04-01T01:44:29Z</time>
      </trkpt>
      <trkpt lat="44.16723" lon="4.44315">
        <ele>153</ele>
        <time>2016-04-01T01:46:29Z</time>
      </trkpt>
      <trkpt lat="44.16724" lon="4.44331">
        <ele>152</ele>
        <time>2016-04-01T01:48:29Z</time>
      </trkpt>
      <trkpt lat="44.16729" lon="4.44357">
        <ele>149</ele>
        <time>2016-04-01T01:50:29Z</time>
      </trkpt>
      <trkpt lat="44.16736" lon="4.44373">
        <ele>147</ele>
        <time>2016-04-01T01:52:29Z</time>
      </trkpt>
      <trkpt lat="44.16744" lon="4.44385">
        <ele>144</ele>
        <time>2016-04-01T01:54:29Z</time>
      </trkpt>
      <trkpt lat="44.16754" lon="4.44397">
        <ele>142</ele>
        <time>2016-04-01T01:56:29Z</time>
      </trkpt>
      <trkpt lat="44.16765" lon="4.44405">
        <ele>142</ele>
        <time>2016-04-01T01:58:29Z</time>
      </trkpt>
      <trkpt lat="44.16775" lon="4.44412">
        <ele>141</ele>
        <time>2016-04-01T02:00:29Z</time>
      </trkpt>
      <trkpt lat="44.16784" lon="4.4442">
        <ele>141</ele>
        <time>2016-04-01T02:02:29Z</time>
      </trkpt>
      <trkpt lat="44.16794" lon="4.4443">
        <ele>141</ele>
        <time>2016-04-01T02:04:29Z</time>
      </trkpt>
      <trkpt lat="44.16798" lon="4.44436">
        <ele>141</ele>
        <time>2016-04-01T02:06:29Z</time>
      </trkpt>
      <trkpt lat="44.16811" lon="4.44458">
        <ele>140</ele>
        <time>2016-04-01T02:08:29Z</time>
      </trkpt>
      <trkpt lat="44.16812" lon="4.4446">
        <ele>139</ele>
        <time>2016-04-01T02:10:29Z</time>
      </trkpt>
      <trkpt lat="44.16815" lon="4.44471">
        <ele>139</ele>
        <time>2016-04-01T02:12:29Z</time>
      </trkpt>
      <trkpt lat="44.16817" lon="4.4448">
        <ele>138</ele>
        <time>2016-04-01T02:14:29Z</time>
      </trkpt>
      <trkpt lat="44.16818" lon="4.44487">
        <ele>137</ele>
        <time>2016-04-01T02:16:29Z</time>
      </trkpt>
      <trkpt lat="44.16818" lon="4.44495">
        <ele>137</ele>
        <time>2016-04-01T02:18:29Z</time>
      </trkpt>
      <trkpt lat="44.16817" lon="4.44503">
        <ele>136</ele>
        <time>2016-04-01T02:20:29Z</time>
      </trkpt>
      <trkpt lat="44.16816" lon="4.44509">
        <ele>136</ele>
        <time>2016-04-01T02:22:29Z</time>
      </trkpt>
      <trkpt lat="44.16816" lon="4.44514">
        <ele>136</ele>
        <time>2016-04-01T02:24:29Z</time>
      </trkpt>
      <trkpt lat="44.16814" lon="4.44519">
        <ele>136</ele>
        <time>2016-04-01T02:26:29Z</time>
      </trkpt>
      <trkpt lat="44.16811" lon="4.44527">
        <ele>136</ele>
        <time>2016-04-01T02:28:29Z</time>
      </trkpt>
      <trkpt lat="44.16804" lon="4.44541">
        <ele>135</ele>
        <time>2016-04-01T02:30:29Z</time>
      </trkpt>
      <trkpt lat="44.168" lon="4.44547">
        <ele>135</ele>
        <time>2016-04-01T02:32:29Z</time>
      </trkpt>
      <trkpt lat="44.16791" lon="4.4456">
        <ele>135</ele>
        <time>2016-04-01T02:34:29Z</time>
      </trkpt>
      <trkpt lat="44.16765" lon="4.44593">
        <ele>134</ele>
        <time>2016-04-01T02:36:29Z</time>
      </trkpt>
      <trkpt lat="44.16759" lon="4.44603">
        <ele>133</ele>
        <time>2016-04-01T02:38:29Z</time>
      </trkpt>
      <trkpt lat="44.16756" lon="4.4461">
        <ele>133</ele>
        <time>2016-04-01T02:40:29Z</time>
      </trkpt>
      <trkpt lat="44.16753" lon="4.44617">
        <ele>132</ele>
        <time>2016-04-01T02:42:29Z</time>
      </trkpt>
      <trkpt lat="44.16752" lon="4.44622">
        <ele>132</ele>
        <time>2016-04-01T02:44:29Z</time>
      </trkpt>
      <trkpt lat="44.1675" lon="4.4463">
        <ele>132</ele>
        <time>2016-04-01T02:46:29Z</time>
      </trkpt>
      <trkpt lat="44.1675" lon="4.44638">
        <ele>131</ele>
        <time>2016-04-01T02:48:29Z</time>
      </trkpt>
      <trkpt lat="44.16751" lon="4.44648">
        <ele>130</ele>
        <time>2016-04-01T02:50:29Z</time>
      </trkpt>
      <trkpt lat="44.16752" lon="4.44657">
        <ele>130</ele>
        <time>2016-04-01T02:52:29Z</time>
      </trkpt>
      <trkpt lat="44.16756" lon="4.44672">
        <ele>129</ele>
        <time>2016-04-01T02:54:29Z</time>
      </trkpt>
      <trkpt lat="44.16762" lon="4.44688">
        <ele>128</ele>
        <time>2016-04-01T02:56:29Z</time>
      </trkpt>
      <trkpt lat="44.16766" lon="4.44694">
        <ele>128</ele>
        <time>2016-04-01T02:58:29Z</time>
      </trkpt>
      <trkpt lat="44.16775" lon="4.4471">
        <ele>127</ele>
        <time>2016-04-01T03:00:29Z</time>
      </trkpt>
      <trkpt lat="44.16786" lon="4.44729">
        <ele>126</ele>
        <time>2016-04-01T03:02:29Z</time>
      </trkpt>
      <trkpt lat="44.16786" lon="4.44729">
        <ele>126</ele>
        <time>2016-04-01T03:04:29Z</time>
      </trkpt>
      <trkpt lat="44.16811" lon="4.4472">
        <ele>125</ele>
        <time>2016-04-01T03:06:29Z</time>
      </trkpt>
      <trkpt lat="44.16814" lon="4.44718">
        <ele>125</ele>
        <time>2016-04-01T03:08:29Z</time>
      </trkpt>
      <trkpt lat="44.16835" lon="4.44708">
        <ele>125</ele>
        <time>2016-04-01T03:10:29Z</time>
      </trkpt>
      <trkpt lat="44.16856" lon="4.44696">
        <ele>125</ele>
        <time>2016-04-01T03:12:29Z</time>
      </trkpt>
      <trkpt lat="44.1686" lon="4.44693">
        <ele>125</ele>
        <time>2016-04-01T03:14:29Z</time>
      </trkpt>
      <trkpt lat="44.16864" lon="4.44689">
        <ele>125</ele>
        <time>2016-04-01T03:16:29Z</time>
      </trkpt>
      <trkpt lat="44.1689" lon="4.44666">
        <ele>125</ele>
        <time>2016-04-01T03:18:29Z</time>
      </trkpt>
      <trkpt lat="44.16895" lon="4.44661">
        <ele>125</ele>
        <time>2016-04-01T03:20:29Z</time>
      </trkpt>
      <trkpt lat="44.16917" lon="4.4464">
        <ele>126</ele>
        <time>2016-04-01T03:22:29Z</time>
      </trkpt>
      <trkpt lat="44.16934" lon="4.44624">
        <ele>126</ele>
        <time>2016-04-01T03:24:29Z</time>
      </trkpt>
      <trkpt lat="44.16954" lon="4.44607">
        <ele>125</ele>
        <time>2016-04-01T03:26:29Z</time>
      </trkpt>
      <trkpt lat="44.16976" lon="4.44591">
        <ele>124</ele>
        <time>2016-04-01T03:28:29Z</time>
      </trkpt>
      <trkpt lat="44.17007" lon="4.44569">
        <ele>124</ele>
        <time>2016-04-01T03:30:29Z</time>
      </trkpt>
      <trkpt lat="44.17021" lon="4.44558">
        <ele>124</ele>
        <time>2016-04-01T03:32:29Z</time>
      </trkpt>
      <trkpt lat="44.17037" lon="4.44547">
        <ele>125</ele>
        <time>2016-04-01T03:34:29Z</time>
      </trkpt>
      <trkpt lat="44.17044" lon="4.44546">
        <ele>124</ele>
        <time>2016-04-01T03:36:29Z</time>
      </trkpt>
      <trkpt lat="44.17051" lon="4.44547">
        <ele>124</ele>
        <time>2016-04-01T03:38:29Z</time>
      </trkpt>
      <trkpt lat="44.1706" lon="4.4455">
        <ele>123</ele>
        <time>2016-04-01T03:40:29Z</time>
      </trkpt>
      <trkpt lat="44.17082" lon="4.44558">
        <ele>121</ele>
        <time>2016-04-01T03:42:29Z</time>
      </trkpt>
      <trkpt lat="44.17092" lon="4.44557">
        <ele>121</ele>
        <time>2016-04-01T03:44:29Z</time>
      </trkpt>
      <trkpt lat="44.17102" lon="4.44556">
        <ele>121</ele>
        <time>2016-04-01T03:46:29Z</time>
      </trkpt>
      <trkpt lat="44.17115" lon="4.44556">
        <ele>120</ele>
        <time>2016-04-01T03:48:29Z</time>
      </trkpt>
      <trkpt lat="44.17121" lon="4.44555">
        <ele>120</ele>
        <time>2016-04-01T03:50:29Z</time>
      </trkpt>
      <trkpt lat="44.17129" lon="4.44558">
        <ele>120</ele>
        <time>2016-04-01T03:52:29Z</time>
      </trkpt>
      <trkpt lat="44.17148" lon="4.44576">
        <ele>118</ele>
        <time>2016-04-01T03:54:29Z</time>
      </trkpt>
      <trkpt lat="44.17166" lon="4.44593">
        <ele>117</ele>
        <time>2016-04-01T03:56:29Z</time>
      </trkpt>
      <trkpt lat="44.17186" lon="4.44606">
        <ele>114</ele>
        <time>2016-04-01T03:58:29Z</time>
      </trkpt>
      <trkpt lat="44.17236" lon="4.44647">
        <ele>110</ele>
        <time>2016-04-01T04:00:29Z</time>
      </trkpt>
      <trkpt lat="44.17251" lon="4.44661">
        <ele>109</ele>
        <time>2016-04-01T04:02:29Z</time>
      </trkpt>
      <trkpt lat="44.17262" lon="4.44675">
        <ele>108</ele>
        <time>2016-04-01T04:04:29Z</time>
      </trkpt>
      <trkpt lat="44.17326" lon="4.44777">
        <ele>100</ele>
        <time>2016-04-01T04:06:29Z</time>
      </trkpt>
      <trkpt lat="44.17346" lon="4.44802">
        <ele>99</ele>
        <time>2016-04-01T04:08:29Z</time>
      </trkpt>
      <trkpt lat="44.17362" lon="4.44815">
        <ele>99</ele>
        <time>2016-04-01T04:10:29Z</time>
      </trkpt>
      <trkpt lat="44.17396" lon="4.4484">
        <ele>97</ele>
        <time>2016-04-01T04:12:29Z</time>
      </trkpt>
      <trkpt lat="44.17437" lon="4.44865">
        <ele>96</ele>
        <time>2016-04-01T04:14:29Z</time>
      </trkpt>
      <trkpt lat="44.17459" lon="4.44874">
        <ele>96</ele>
        <time>2016-04-01T04:16:29Z</time>
      </trkpt>
      <trkpt lat="44.17539" lon="4.44897">
        <ele>94</ele>
        <time>2016-04-01T04:18:29Z</time>
      </trkpt>
      <trkpt lat="44.17607" lon="4.44914">
        <ele>92</ele>
        <time>2016-04-01T04:20:29Z</time>
      </trkpt>
      <trkpt lat="44.17621" lon="4.44919">
        <ele>91</ele>
        <time>2016-04-01T04:22:29Z</time>
      </trkpt>
      <trkpt lat="44.17633" lon="4.44926">
        <ele>91</ele>
        <time>2016-04-01T04:24:29Z</time>
      </trkpt>
      <trkpt lat="44.17645" lon="4.44933">
        <ele>90</ele>
        <time>2016-04-01T04:26:29Z</time>
      </trkpt>
      <trkpt lat="44.17656" lon="4.44944">
        <ele>89</ele>
        <time>2016-04-01T04:28:29Z</time>
      </trkpt>
      <trkpt lat="44.17684" lon="4.44975">
        <ele>88</ele>
        <time>2016-04-01T04:30:29Z</time>
      </trkpt>
      <trkpt lat="44.17692" lon="4.44987">
        <ele>88</ele>
        <time>2016-04-01T04:32:29Z</time>
      </trkpt>
      <trkpt lat="44.177" lon="4.44998">
        <ele>88</ele>
        <time>2016-04-01T04:34:29Z</time>
      </trkpt>
      <trkpt lat="44.17727" lon="4.45034">
        <ele>88</ele>
        <time>2016-04-01T04:36:29Z</time>
      </trkpt>
      <trkpt lat="44.17745" lon="4.45059">
        <ele>89</ele>
        <time>2016-04-01T04:38:29Z</time>
      </trkpt>
      <trkpt lat="44.17749" lon="4.45065">
        <ele>89</ele>
        <time>2016-04-01T04:40:29Z</time>
      </trkpt>
      <trkpt lat="44.1776" lon="4.45083">
        <ele>90</ele>
        <time>2016-04-01T04:42:29Z</time>
      </trkpt>
      <trkpt lat="44.17763" lon="4.4509">
        <ele>90</ele>
        <time>2016-04-01T04:44:29Z</time>
      </trkpt>
      <trkpt lat="44.1777" lon="4.45112">
        <ele>92</ele>
        <time>2016-04-01T04:46:29Z</time>
      </trkpt>
      <trkpt lat="44.17772" lon="4.45119">
        <ele>92</ele>
        <time>2016-04-01T04:48:29Z</time>
      </trkpt>
      <trkpt lat="44.17774" lon="4.45134">
        <ele>93</ele>
        <time>2016-04-01T04:50:29Z</time>
      </trkpt>
      <trkpt lat="44.17775" lon="4.4515">
        <ele>93</ele>
        <time>2016-04-01T04:52:29Z</time>
      </trkpt>
      <trkpt lat="44.17775" lon="4.45168">
        <ele>94</ele>
        <time>2016-04-01T04:54:29Z</time>
      </trkpt>
      <trkpt lat="44.17772" lon="4.45223">
        <ele>95</ele>
        <time>2016-04-01T04:56:29Z</time>
      </trkpt>
      <trkpt lat="44.1777" lon="4.45281">
        <ele>96</ele>
        <time>2016-04-01T04:58:29Z</time>
      </trkpt>
      <trkpt lat="44.17767" lon="4.45326">
        <ele>97</ele>
        <time>2016-04-01T05:00:29Z</time>
      </trkpt>
      <trkpt lat="44.17767" lon="4.45365">
        <ele>99</ele>
        <time>2016-04-01T05:02:29Z</time>
      </trkpt>
      <trkpt lat="44.17769" lon="4.45382">
        <ele>100</ele>
        <time>2016-04-01T05:04:29Z</time>
      </trkpt>
      <trkpt lat="44.17775" lon="4.45399">
        <ele>99</ele>
        <time>2016-04-01T05:06:29Z</time>
      </trkpt>
      <trkpt lat="44.1778" lon="4.45413">
        <ele>99</ele>
        <time>2016-04-01T05:08:29Z</time>
      </trkpt>
      <trkpt lat="44.17795" lon="4.45442">
        <ele>98</ele>
        <time>2016-04-01T05:10:29Z</time>
      </trkpt>
      <trkpt lat="44.17808" lon="4.45467">
        <ele>97</ele>
        <time>2016-04-01T05:12:29Z</time>
      </trkpt>
      <trkpt lat="44.17818" lon="4.45484">
        <ele>96</ele>
        <time>2016-04-01T05:14:29Z</time>
      </trkpt>
      <trkpt lat="44.17829" lon="4.45504">
        <ele>94</ele>
        <time>2016-04-01T05:16:29Z</time>
      </trkpt>
      <trkpt lat="44.17836" lon="4.4552">
        <ele>92</ele>
        <time>2016-04-01T05:18:29Z</time>
      </trkpt>
      <trkpt lat="44.17841" lon="4.45531">
        <ele>92</ele>
        <time>2016-04-01T05:20:29Z</time>
      </trkpt>
      <trkpt lat="44.17845" lon="4.45546">
        <ele>91</ele>
        <time>2016-04-01T05:22:29Z</time>
      </trkpt>
      <trkpt lat="44.17849" lon="4.45561">
        <ele>90</ele>
        <time>2016-04-01T05:24:29Z</time>
      </trkpt>
      <trkpt lat="44.17855" lon="4.45595">
        <ele>90</ele>
        <time>2016-04-01T05:26:29Z</time>
      </trkpt>
      <trkpt lat="44.17864" lon="4.45654">
        <ele>89</ele>
        <time>2016-04-01T05:28:29Z</time>
      </trkpt>
      <trkpt lat="44.1787" lon="4.45694">
        <ele>90</ele>
        <time>2016-04-01T05:30:29Z</time>
      </trkpt>
      <trkpt lat="44.17885" lon="4.45783">
        <ele>92</ele>
        <time>2016-04-01T05:32:29Z</time>
      </trkpt>
      <trkpt lat="44.17892" lon="4.45828">
        <ele>92</ele>
        <time>2016-04-01T05:34:29Z</time>
      </trkpt>
      <trkpt lat="44.17896" lon="4.45846">
        <ele>92</ele>
        <time>2016-04-01T05:36:29Z</time>
      </trkpt>
      <trkpt lat="44.17898" lon="4.4586">
        <ele>93</ele>
        <time>2016-04-01T05:38:29Z</time>
      </trkpt>
      <trkpt lat="44.17904" lon="4.459">
        <ele>94</ele>
        <time>2016-04-01T05:40:29Z</time>
      </trkpt>
      <trkpt lat="44.17908" lon="4.45925">
        <ele>96</ele>
        <time>2016-04-01T05:42:29Z</time>
      </trkpt>
      <trkpt lat="44.17912" lon="4.45942">
        <ele>97</ele>
        <time>2016-04-01T05:44:29Z</time>
      </trkpt>
      <trkpt lat="44.17915" lon="4.4595">
        <ele>97</ele>
        <time>2016-04-01T05:46:29Z</time>
      </trkpt>
      <trkpt lat="44.17918" lon="4.45959">
        <ele>98</ele>
        <time>2016-04-01T05:48:29Z</time>
      </trkpt>
      <trkpt lat="44.17928" lon="4.45977">
        <ele>98</ele>
        <time>2016-04-01T05:50:29Z</time>
      </trkpt>
      <trkpt lat="44.1794" lon="4.45994">
        <ele>97</ele>
        <time>2016-04-01T05:52:29Z</time>
      </trkpt>
      <trkpt lat="44.17948" lon="4.46004">
        <ele>97</ele>
        <time>2016-04-01T05:54:29Z</time>
      </trkpt>
      <trkpt lat="44.17959" lon="4.46021">
        <ele>95</ele>
        <time>2016-04-01T05:56:29Z</time>
      </trkpt>
      <trkpt lat="44.17967" lon="4.46039">
        <ele>95</ele>
        <time>2016-04-01T05:58:29Z</time>
      </trkpt>
      <trkpt lat="44.17971" lon="4.46052">
        <ele>95</ele>
        <time>2016-04-01T06:00:29Z</time>
      </trkpt>
      <trkpt lat="44.17973" lon="4.46066">
        <ele>95</ele>
        <time>2016-04-01T06:02:29Z</time>
      </trkpt>
      <trkpt lat="44.17974" lon="4.46081">
        <ele>96</ele>
        <time>2016-04-01T06:04:29Z</time>
      </trkpt>
      <trkpt lat="44.17974" lon="4.4609">
        <ele>96</ele>
        <time>2016-04-01T06:06:29Z</time>
      </trkpt>
      <trkpt lat="44.17974" lon="4.46112">
        <ele>98</ele>
        <time>2016-04-01T06:08:29Z</time>
      </trkpt>
      <trkpt lat="44.17973" lon="4.4619">
        <ele>100</ele>
        <time>2016-04-01T06:10:29Z</time>
      </trkpt>
      <trkpt lat="44.17975" lon="4.46217">
        <ele>99</ele>
        <time>2016-04-01T06:12:29Z</time>
      </trkpt>
      <trkpt lat="44.17979" lon="4.4624">
        <ele>98</ele>
        <time>2016-04-01T06:14:29Z</time>
      </trkpt>
      <trkpt lat="44.17989" lon="4.46282">
        <ele>98</ele>
        <time>2016-04-01T06:16:29Z</time>
      </trkpt>
      <trkpt lat="44.18015" lon="4.46368">
        <ele>100</ele>
        <time>2016-04-01T06:18:29Z</time>
      </trkpt>
      <trkpt lat="44.18023" lon="4.46392">
        <ele>101</ele>
        <time>2016-04-01T06:20:29Z</time>
      </trkpt>
      <trkpt lat="44.1803" lon="4.46406">
        <ele>101</ele>
        <time>2016-04-01T06:22:29Z</time>
      </trkpt>
      <trkpt lat="44.18037" lon="4.46418">
        <ele>100</ele>
        <time>2016-04-01T06:24:29Z</time>
      </trkpt>
      <trkpt lat="44.1805" lon="4.46435">
        <ele>98</ele>
        <time>2016-04-01T06:26:29Z</time>
      </trkpt>
      <trkpt lat="44.18073" lon="4.46463">
        <ele>94</ele>
        <time>2016-04-01T06:28:29Z</time>
      </trkpt>
      <trkpt lat="44.18096" lon="4.46491">
        <ele>92</ele>
        <time>2016-04-01T06:30:29Z</time>
      </trkpt>
      <trkpt lat="44.1812" lon="4.46523">
        <ele>93</ele>
        <time>2016-04-01T06:32:29Z</time>
      </trkpt>
      <trkpt lat="44.18172" lon="4.46596">
        <ele>90</ele>
        <time>2016-04-01T06:34:29Z</time>
      </trkpt>
      <trkpt lat="44.18192" lon="4.46628">
        <ele>90</ele>
        <time>2016-04-01T06:36:29Z</time>
      </trkpt>
      <trkpt lat="44.182" lon="4.46646">
        <ele>90</ele>
        <time>2016-04-01T06:38:29Z</time>
      </trkpt>
      <trkpt lat="44.18203" lon="4.46655">
        <ele>90</ele>
        <time>2016-04-01T06:40:29Z</time>
      </trkpt>
      <trkpt lat="44.18208" lon="4.46672">
        <ele>89</ele>
        <time>2016-04-01T06:42:29Z</time>
      </trkpt>
      <trkpt lat="44.18209" lon="4.46684">
        <ele>89</ele>
        <time>2016-04-01T06:44:29Z</time>
      </trkpt>
      <trkpt lat="44.1821" lon="4.46697">
        <ele>88</ele>
        <time>2016-04-01T06:46:29Z</time>
      </trkpt>
      <trkpt lat="44.1821" lon="4.46716">
        <ele>87</ele>
        <time>2016-04-01T06:48:29Z</time>
      </trkpt>
      <trkpt lat="44.18208" lon="4.46751">
        <ele>86</ele>
        <time>2016-04-01T06:50:29Z</time>
      </trkpt>
      <trkpt lat="44.18202" lon="4.46804">
        <ele>87</ele>
        <time>2016-04-01T06:52:29Z</time>
      </trkpt>
      <trkpt lat="44.18194" lon="4.46858">
        <ele>88</ele>
        <time>2016-04-01T06:54:29Z</time>
      </trkpt>
      <trkpt lat="44.18193" lon="4.46872">
        <ele>88</ele>
        <time>2016-04-01T06:56:29Z</time>
      </trkpt>
      <trkpt lat="44.18192" lon="4.46881">
        <ele>89</ele>
        <time>2016-04-01T06:58:29Z</time>
      </trkpt>
      <trkpt lat="44.18192" lon="4.46894">
        <ele>89</ele>
        <time>2016-04-01T07:00:29Z</time>
      </trkpt>
      <trkpt lat="44.18194" lon="4.46916">
        <ele>90</ele>
        <time>2016-04-01T07:02:29Z</time>
      </trkpt>
      <trkpt lat="44.18196" lon="4.4693">
        <ele>89</ele>
        <time>2016-04-01T07:04:29Z</time>
      </trkpt>
      <trkpt lat="44.18201" lon="4.46956">
        <ele>89</ele>
        <time>2016-04-01T07:06:29Z</time>
      </trkpt>
      <trkpt lat="44.18203" lon="4.46963">
        <ele>89</ele>
        <time>2016-04-01T07:08:29Z</time>
      </trkpt>
      <trkpt lat="44.18204" lon="4.4697">
        <ele>89</ele>
        <time>2016-04-01T07:10:29Z</time>
      </trkpt>
      <trkpt lat="44.18219" lon="4.4704">
        <ele>88</ele>
        <time>2016-04-01T07:12:29Z</time>
      </trkpt>
      <trkpt lat="44.18231" lon="4.47096">
        <ele>87</ele>
        <time>2016-04-01T07:14:29Z</time>
      </trkpt>
      <trkpt lat="44.18243" lon="4.47152">
        <ele>85</ele>
        <time>2016-04-01T07:16:29Z</time>
      </trkpt>
      <trkpt lat="44.18254" lon="4.47202">
        <ele>82</ele>
        <time>2016-04-01T07:18:29Z</time>
      </trkpt>
      <trkpt lat="44.18269" lon="4.47275">
        <ele>80</ele>
        <time>2016-04-01T07:20:29Z</time>
      </trkpt>
      <trkpt lat="44.18284" lon="4.4735">
        <ele>80</ele>
        <time>2016-04-01T07:22:29Z</time>
      </trkpt>
      <trkpt lat="44.18293" lon="4.47394">
        <ele>80</ele>
        <time>2016-04-01T07:24:29Z</time>
      </trkpt>
      <trkpt lat="44.18296" lon="4.47406">
        <ele>80</ele>
        <time>2016-04-01T07:26:29Z</time>
      </trkpt>
      <trkpt lat="44.18299" lon="4.4742">
        <ele>80</ele>
        <time>2016-04-01T07:28:29Z</time>
      </trkpt>
      <trkpt lat="44.18309" lon="4.47473">
        <ele>80</ele>
        <time>2016-04-01T07:30:29Z</time>
      </trkpt>
      <trkpt lat="44.1832" lon="4.47525">
        <ele>81</ele>
        <time>2016-04-01T07:32:29Z</time>
      </trkpt>
      <trkpt lat="44.18332" lon="4.47586">
        <ele>83</ele>
        <time>2016-04-01T07:34:29Z</time>
      </trkpt>
      <trkpt lat="44.1835" lon="4.47669">
        <ele>84</ele>
        <time>2016-04-01T07:36:29Z</time>
      </trkpt>
      <trkpt lat="44.18354" lon="4.47705">
        <ele>85</ele>
        <time>2016-04-01T07:38:29Z</time>
      </trkpt>
      <trkpt lat="44.18357" lon="4.47723">
        <ele>85</ele>
        <time>2016-04-01T07:40:29Z</time>
      </trkpt>
      <trkpt lat="44.18357" lon="4.47723">
        <ele>85</ele>
        <time>2016-04-01T07:42:29Z</time>
      </trkpt>
      <trkpt lat="44.18339" lon="4.47722">
        <ele>85</ele>
        <time>2016-04-01T07:44:29Z</time>
      </trkpt>
      <trkpt lat="44.18287" lon="4.47719">
        <ele>84</ele>
        <time>2016-04-01T07:46:29Z</time>
      </trkpt>
      <trkpt lat="44.18259" lon="4.47717">
        <ele>84</ele>
        <time>2016-04-01T07:48:29Z</time>
      </trkpt>
      <trkpt lat="44.18249" lon="4.47716">
        <ele>84</ele>
        <time>2016-04-01T07:50:29Z</time>
      </trkpt>
      <trkpt lat="44.18242" lon="4.47714">
        <ele>84</ele>
        <time>2016-04-01T07:52:29Z</time>
      </trkpt>
      <trkpt lat="44.18234" lon="4.47709">
        <ele>84</ele>
        <time>2016-04-01T07:54:29Z</time>
      </trkpt>
      <trkpt lat="44.18227" lon="4.47703">
        <ele>84</ele>
        <time>2016-04-01T07:56:29Z</time>
      </trkpt>
      <trkpt lat="44.1822" lon="4.47697">
        <ele>85</ele>
        <time>2016-04-01T07:58:29Z</time>
      </trkpt>
      <trkpt lat="44.18202" lon="4.47685">
        <ele>85</ele>
        <time>2016-04-01T08:00:29Z</time>
      </trkpt>
      <trkpt lat="44.18193" lon="4.47683">
        <ele>85</ele>
        <time>2016-04-01T08:02:29Z</time>
      </trkpt>
      <trkpt lat="44.18186" lon="4.47683">
        <ele>86</ele>
        <time>2016-04-01T08:04:29Z</time>
      </trkpt>
      <trkpt lat="44.18179" lon="4.47686">
        <ele>86</ele>
        <time>2016-04-01T08:06:29Z</time>
      </trkpt>
      <trkpt lat="44.18162" lon="4.47693">
        <ele>87</ele>
        <time>2016-04-01T08:08:29Z</time>
      </trkpt>
      <trkpt lat="44.18142" lon="4.47702">
        <ele>87</ele>
        <time>2016-04-01T08:10:29Z</time>
      </trkpt>
      <trkpt lat="44.18122" lon="4.47712">
        <ele>87</ele>
        <time>2016-04-01T08:12:29Z</time>
      </trkpt>
      <trkpt lat="44.18102" lon="4.4772">
        <ele>87</ele>
        <time>2016-04-01T08:14:29Z</time>
      </trkpt>
      <trkpt lat="44.1806" lon="4.47738">
        <ele>89</ele>
        <time>2016-04-01T08:16:29Z</time>
      </trkpt>
      <trkpt lat="44.18038" lon="4.4775">
        <ele>90</ele>
        <time>2016-04-01T08:18:29Z</time>
      </trkpt>
      <trkpt lat="44.18023" lon="4.47758">
        <ele>91</ele>
        <time>2016-04-01T08:20:29Z</time>
      </trkpt>
      <trkpt lat="44.18017" lon="4.47762">
        <ele>92</ele>
        <time>2016-04-01T08:22:29Z</time>
      </trkpt>
      <trkpt lat="44.1801" lon="4.47766">
        <ele>93</ele>
        <time>2016-04-01T08:24:29Z</time>
      </trkpt>
      <trkpt lat="44.17963" lon="4.47802">
        <ele>98</ele>
        <time>2016-04-01T08:26:29Z</time>
      </trkpt>
      <trkpt lat="44.17925" lon="4.47831">
        <ele>100</ele>
        <time>2016-04-01T08:28:29Z</time>
      </trkpt>
      <trkpt lat="44.17918" lon="4.47836">
        <ele>101</ele>
        <time>2016-04-01T08:30:29Z</time>
      </trkpt>
      <trkpt lat="44.17901" lon="4.47847">
        <ele>103</ele>
        <time>2016-04-01T08:32:29Z</time>
      </trkpt>
      <trkpt lat="44.17886" lon="4.47857">
        <ele>104</ele>
        <time>2016-04-01T08:34:29Z</time>
      </trkpt>
      <trkpt lat="44.17872" lon="4.47872">
        <ele>106</ele>
        <time>2016-04-01T08:36:29Z</time>
      </trkpt>
      <trkpt lat="44.17862" lon="4.47883">
        <ele>107</ele>
        <time>2016-04-01T08:38:29Z</time>
      </trkpt>
      <trkpt lat="44.17854" lon="4.47897">
        <ele>108</ele>
        <time>2016-04-01T08:40:29Z</time>
      </trkpt>
      <trkpt lat="44.1785" lon="4.47905">
        <ele>109</ele>
        <time>2016-04-01T08:42:29Z</time>
      </trkpt>
      <trkpt lat="44.1784" lon="4.47924">
        <ele>110</ele>
        <time>2016-04-01T08:44:29Z</time>
      </trkpt>
      <trkpt lat="44.17827" lon="4.47946">
        <ele>110</ele>
        <time>2016-04-01T08:46:29Z</time>
      </trkpt>
      <trkpt lat="44.17824" lon="4.4795">
        <ele>110</ele>
        <time>2016-04-01T08:48:29Z</time>
      </trkpt>
      <trkpt lat="44.17814" lon="4.47961">
        <ele>110</ele>
        <time>2016-04-01T08:50:29Z</time>
      </trkpt>
      <trkpt lat="44.17805" lon="4.47969">
        <ele>111</ele>
        <time>2016-04-01T08:52:29Z</time>
      </trkpt>
      <trkpt lat="44.17797" lon="4.47975">
        <ele>111</ele>
        <time>2016-04-01T08:54:29Z</time>
      </trkpt>
      <trkpt lat="44.1779" lon="4.4798">
        <ele>111</ele>
        <time>2016-04-01T08:56:29Z</time>
      </trkpt>
      <trkpt lat="44.17781" lon="4.47984">
        <ele>112</ele>
        <time>2016-04-01T08:58:29Z</time>
      </trkpt>
      <trkpt lat="44.17769" lon="4.47988">
        <ele>113</ele>
        <time>2016-04-01T09:00:29Z</time>
      </trkpt>
      <trkpt lat="44.17757" lon="4.4799">
        <ele>114</ele>
        <time>2016-04-01T09:02:29Z</time>
      </trkpt>
      <trkpt lat="44.17735" lon="4.47993">
        <ele>115</ele>
        <time>2016-04-01T09:04:29Z</time>
      </trkpt>
      <trkpt lat="44.17721" lon="4.47995">
        <ele>116</ele>
        <time>2016-04-01T09:06:29Z</time>
      </trkpt>
      <trkpt lat="44.1771" lon="4.47999">
        <ele>117</ele>
        <time>2016-04-01T09:08:29Z</time>
      </trkpt>
      <trkpt lat="44.17698" lon="4.48007">
        <ele>117</ele>
        <time>2016-04-01T09:10:29Z</time>
      </trkpt>
      <trkpt lat="44.17685" lon="4.48022">
        <ele>118</ele>
        <time>2016-04-01T09:12:29Z</time>
      </trkpt>
      <trkpt lat="44.17678" lon="4.48032">
        <ele>118</ele>
        <time>2016-04-01T09:14:29Z</time>
      </trkpt>
      <trkpt lat="44.17668" lon="4.4805">
        <ele>118</ele>
        <time>2016-04-01T09:16:29Z</time>
      </trkpt>
      <trkpt lat="44.1762" lon="4.48141">
        <ele>124</ele>
        <time>2016-04-01T09:18:29Z</time>
      </trkpt>
      <trkpt lat="44.17577" lon="4.48224">
        <ele>128</ele>
        <time>2016-04-01T09:20:29Z</time>
      </trkpt>
      <trkpt lat="44.17548" lon="4.48279">
        <ele>130</ele>
        <time>2016-04-01T09:22:29Z</time>
      </trkpt>
      <trkpt lat="44.17533" lon="4.48306">
        <ele>131</ele>
        <time>2016-04-01T09:24:29Z</time>
      </trkpt>
      <trkpt lat="44.17496" lon="4.48375">
        <ele>134</ele>
        <time>2016-04-01T09:26:29Z</time>
      </trkpt>
      <trkpt lat="44.17487" lon="4.48391">
        <ele>136</ele>
        <time>2016-04-01T09:28:29Z</time>
      </trkpt>
      <trkpt lat="44.17482" lon="4.48403">
        <ele>137</ele>
        <time>2016-04-01T09:30:29Z</time>
      </trkpt>
      <trkpt lat="44.17479" lon="4.4841">
        <ele>137</ele>
        <time>2016-04-01T09:32:29Z</time>
      </trkpt>
      <trkpt lat="44.17473" lon="4.48432">
        <ele>139</ele>
        <time>2016-04-01T09:34:29Z</time>
      </trkpt>
      <trkpt lat="44.17468" lon="4.48449">
        <ele>140</ele>
        <time>2016-04-01T09:36:29Z</time>
      </trkpt>
      <trkpt lat="44.17466" lon="4.48456">
        <ele>140</ele>
        <time>2016-04-01T09:38:29Z</time>
      </trkpt>
      <trkpt lat="44.17462" lon="4.48467">
        <ele>141</ele>
        <time>2016-04-01T09:40:29Z</time>
      </trkpt>
      <trkpt lat="44.17457" lon="4.48476">
        <ele>142</ele>
        <time>2016-04-01T09:42:29Z</time>
      </trkpt>
      <trkpt lat="44.17452" lon="4.48486">
        <ele>143</ele>
        <time>2016-04-01T09:44:29Z</time>
      </trkpt>
      <trkpt lat="44.17441" lon="4.48502">
        <ele>145</ele>
        <time>2016-04-01T09:46:29Z</time>
      </trkpt>
      <trkpt lat="44.17436" lon="4.4851">
        <ele>145</ele>
        <time>2016-04-01T09:48:29Z</time>
      </trkpt>
      <trkpt lat="44.1743" lon="4.48523">
        <ele>146</ele>
        <time>2016-04-01T09:50:29Z</time>
      </trkpt>
      <trkpt lat="44.17425" lon="4.48539">
        <ele>147</ele>
        <time>2016-04-01T09:52:29Z</time>
      </trkpt>
      <trkpt lat="44.17423" lon="4.48549">
        <ele>147</ele>
        <time>2016-04-01T09:54:29Z</time>
      </trkpt>
      <trkpt lat="44.1742" lon="4.48559">
        <ele>148</ele>
        <time>2016-04-01T09:56:29Z</time>
      </trkpt>
      <trkpt lat="44.17416" lon="4.4858">
        <ele>148</ele>
        <time>2016-04-01T09:58:29Z</time>
      </trkpt>
      <trkpt lat="44.17415" lon="4.48589">
        <ele>148</ele>
        <time>2016-04-01T10:00:29Z</time>
      </trkpt>
      <trkpt lat="44.17414" lon="4.486">
        <ele>149</ele>
        <time>2016-04-01T10:02:29Z</time>
      </trkpt>
      <trkpt lat="44.17414" lon="4.48609">
        <ele>149</ele>
        <time>2016-04-01T10:04:29Z</time>
      </trkpt>
      <trkpt lat="44.17415" lon="4.4862">
        <ele>149</ele>
        <time>2016-04-01T10:06:29Z</time>
      </trkpt>
      <trkpt lat="44.17415" lon="4.48628">
        <ele>149</ele>
        <time>2016-04-01T10:08:29Z</time>
      </trkpt>
      <trkpt lat="44.17415" lon="4.48637">
        <ele>149</ele>
        <time>2016-04-01T10:10:29Z</time>
      </trkpt>
      <trkpt lat="44.17414" lon="4.48649">
        <ele>149</ele>
        <time>2016-04-01T10:12:29Z</time>
      </trkpt>
      <trkpt lat="44.17412" lon="4.48658">
        <ele>150</ele>
        <time>2016-04-01T10:14:29Z</time>
      </trkpt>
      <trkpt lat="44.1741" lon="4.48666">
        <ele>150</ele>
        <time>2016-04-01T10:16:29Z</time>
      </trkpt>
      <trkpt lat="44.17404" lon="4.48681">
        <ele>150</ele>
        <time>2016-04-01T10:18:29Z</time>
      </trkpt>
      <trkpt lat="44.17397" lon="4.48691">
        <ele>151</ele>
        <time>2016-04-01T10:20:29Z</time>
      </trkpt>
      <trkpt lat="44.17387" lon="4.48705">
        <ele>151</ele>
        <time>2016-04-01T10:22:29Z</time>
      </trkpt>
      <trkpt lat="44.17365" lon="4.48738">
        <ele>153</ele>
        <time>2016-04-01T10:24:29Z</time>
      </trkpt>
      <trkpt lat="44.17345" lon="4.48769">
        <ele>154</ele>
        <time>2016-04-01T10:26:29Z</time>
      </trkpt>
      <trkpt lat="44.17334" lon="4.48783">
        <ele>154</ele>
        <time>2016-04-01T10:28:29Z</time>
      </trkpt>
      <trkpt lat="44.17327" lon="4.48789">
        <ele>154</ele>
        <time>2016-04-01T10:30:29Z</time>
      </trkpt>
      <trkpt lat="44.1732" lon="4.48794">
        <ele>155</ele>
        <time>2016-04-01T10:32:29Z</time>
      </trkpt>
      <trkpt lat="44.17314" lon="4.48797">
        <ele>155</ele>
        <time>2016-04-01T10:34:29Z</time>
      </trkpt>
      <trkpt lat="44.17298" lon="4.48801">
        <ele>157</ele>
        <time>2016-04-01T10:36:29Z</time>
      </trkpt>
      <trkpt lat="44.1729" lon="4.48802">
        <ele>158</ele>
        <time>2016-04-01T10:38:29Z</time>
      </trkpt>
      <trkpt lat="44.17282" lon="4.48802">
        <ele>159</ele>
        <time>2016-04-01T10:40:29Z</time>
      </trkpt>
      <trkpt lat="44.17274" lon="4.48802">
        <ele>160</ele>
        <time>2016-04-01T10:42:29Z</time>
      </trkpt>
      <trkpt lat="44.17266" lon="4.48803">
        <ele>161</ele>
        <time>2016-04-01T10:44:29Z</time>
      </trkpt>
      <trkpt lat="44.17257" lon="4.48803">
        <ele>163</ele>
        <time>2016-04-01T10:46:29Z</time>
      </trkpt>
      <trkpt lat="44.17248" lon="4.48804">
        <ele>163</ele>
        <time>2016-04-01T10:48:29Z</time>
      </trkpt>
      <trkpt lat="44.1724" lon="4.48804">
        <ele>164</ele>
        <time>2016-04-01T10:50:29Z</time>
      </trkpt>
      <trkpt lat="44.17231" lon="4.48804">
        <ele>164</ele>
        <time>2016-04-01T10:52:29Z</time>
      </trkpt>
      <trkpt lat="44.17222" lon="4.48803">
        <ele>165</ele>
        <time>2016-04-01T10:54:29Z</time>
      </trkpt>
      <trkpt lat="44.17214" lon="4.48802">
        <ele>166</ele>
        <time>2016-04-01T10:56:29Z</time>
      </trkpt>
      <trkpt lat="44.17197" lon="4.48797">
        <ele>168</ele>
        <time>2016-04-01T10:58:29Z</time>
      </trkpt>
      <trkpt lat="44.17188" lon="4.48794">
        <ele>169</ele>
        <time>2016-04-01T11:00:29Z</time>
      </trkpt>
      <trkpt lat="44.1718" lon="4.48793">
        <ele>170</ele>
        <time>2016-04-01T11:02:29Z</time>
      </trkpt>
      <trkpt lat="44.17172" lon="4.48792">
        <ele>171</ele>
        <time>2016-04-01T11:04:29Z</time>
      </trkpt>
      <trkpt lat="44.17163" lon="4.48793">
        <ele>171</ele>
        <time>2016-04-01T11:06:29Z</time>
      </trkpt>
      <trkpt lat="44.17156" lon="4.48794">
        <ele>171</ele>
        <time>2016-04-01T11:08:29Z</time>
      </trkpt>
      <trkpt lat="44.17148" lon="4.48796">
        <ele>170</ele>
        <time>2016-04-01T11:10:29Z</time>
      </trkpt>
      <trkpt lat="44.17141" lon="4.48799">
        <ele>170</ele>
        <time>2016-04-01T11:12:29Z</time>
      </trkpt>
      <trkpt lat="44.17134" lon="4.48802">
        <ele>169</ele>
        <time>2016-04-01T11:14:29Z</time>
      </trkpt>
      <trkpt lat="44.17127" lon="4.48803">
        <ele>169</ele>
        <time>2016-04-01T11:16:29Z</time>
      </trkpt>
      <trkpt lat="44.17121" lon="4.48804">
        <ele>168</ele>
        <time>2016-04-01T11:18:29Z</time>
      </trkpt>
      <trkpt lat="44.17113" lon="4.48803">
        <ele>169</ele>
        <time>2016-04-01T11:20:29Z</time>
      </trkpt>
      <trkpt lat="44.17107" lon="4.48801">
        <ele>169</ele>
        <time>2016-04-01T11:22:29Z</time>
      </trkpt>
      <trkpt lat="44.17093" lon="4.48793">
        <ele>172</ele>
        <time>2016-04-01T11:24:29Z</time>
      </trkpt>
      <trkpt lat="44.1708" lon="4.48784">
        <ele>174</ele>
        <time>2016-04-01T11:26:29Z</time>
      </trkpt>
      <trkpt lat="44.17073" lon="4.4878">
        <ele>175</ele>
        <time>2016-04-01T11:28:29Z</time>
      </trkpt>
      <trkpt lat="44.17065" lon="4.48778">
        <ele>175</ele>
        <time>2016-04-01T11:30:29Z</time>
      </trkpt>
      <trkpt lat="44.17058" lon="4.48776">
        <ele>176</ele>
        <time>2016-04-01T11:32:29Z</time>
      </trkpt>
      <trkpt lat="44.17034" lon="4.48771">
        <ele>177</ele>
        <time>2016-04-01T11:34:29Z</time>
      </trkpt>
      <trkpt lat="44.17009" lon="4.48766">
        <ele>178</ele>
        <time>2016-04-01T11:36:29Z</time>
      </trkpt>
      <trkpt lat="44.16994" lon="4.4876">
        <ele>179</ele>
        <time>2016-04-01T11:38:29Z</time>
      </trkpt>
      <trkpt lat="44.16987" lon="4.48756">
        <ele>179</ele>
        <time>2016-04-01T11:40:29Z</time>
      </trkpt>
      <trkpt lat="44.1698" lon="4.4875">
        <ele>180</ele>
        <time>2016-04-01T11:42:29Z</time>
      </trkpt>
      <trkpt lat="44.16968" lon="4.48736">
        <ele>181</ele>
        <time>2016-04-01T11:44:29Z</time>
      </trkpt>
      <trkpt lat="44.16962" lon="4.48727">
        <ele>182</ele>
        <time>2016-04-01T11:46:29Z</time>
      </trkpt>
      <trkpt lat="44.16941" lon="4.48689">
        <ele>187</ele>
        <time>2016-04-01T11:48:29Z</time>
      </trkpt>
      <trkpt lat="44.16924" lon="4.48661">
        <ele>190</ele>
        <time>2016-04-01T11:50:29Z</time>
      </trkpt>
      <trkpt lat="44.16919" lon="4.48653">
        <ele>192</ele>
        <time>2016-04-01T11:52:29Z</time>
      </trkpt>
      <trkpt lat="44.16912" lon="4.48645">
        <ele>193</ele>
        <time>2016-04-01T11:54:29Z</time>
      </trkpt>
      <trkpt lat="44.16906" lon="4.48639">
        <ele>193</ele>
        <time>2016-04-01T11:56:29Z</time>
      </trkpt>
      <trkpt lat="44.16899" lon="4.48634">
        <ele>193</ele>
        <time>2016-04-01T11:58:29Z</time>
      </trkpt>
      <trkpt lat="44.16889" lon="4.48628">
        <ele>193</ele>
        <time>2016-04-01T12:00:29Z</time>
      </trkpt>
      <trkpt lat="44.16882" lon="4.48624">
        <ele>193</ele>
        <time>2016-04-01T12:02:29Z</time>
      </trkpt>
      <trkpt lat="44.16865" lon="4.48616">
        <ele>192</ele>
        <time>2016-04-01T12:04:29Z</time>
      </trkpt>
      <trkpt lat="44.16857" lon="4.48611">
        <ele>191</ele>
        <time>2016-04-01T12:06:29Z</time>
      </trkpt>
      <trkpt lat="44.1685" lon="4.48605">
        <ele>191</ele>
        <time>2016-04-01T12:08:29Z</time>
      </trkpt>
      <trkpt lat="44.16843" lon="4.486">
        <ele>191</ele>
        <time>2016-04-01T12:10:29Z</time>
      </trkpt>
      <trkpt lat="44.16831" lon="4.48584">
        <ele>192</ele>
        <time>2016-04-01T12:12:29Z</time>
      </trkpt>
      <trkpt lat="44.16812" lon="4.48553">
        <ele>195</ele>
        <time>2016-04-01T12:14:29Z</time>
      </trkpt>
      <trkpt lat="44.16804" lon="4.48538">
        <ele>196</ele>
        <time>2016-04-01T12:16:29Z</time>
      </trkpt>
      <trkpt lat="44.168" lon="4.48527">
        <ele>198</ele>
        <time>2016-04-01T12:18:29Z</time>
      </trkpt>
      <trkpt lat="44.16797" lon="4.48517">
        <ele>199</ele>
        <time>2016-04-01T12:20:29Z</time>
      </trkpt>
      <trkpt lat="44.16792" lon="4.48483">
        <ele>201</ele>
        <time>2016-04-01T12:22:29Z</time>
      </trkpt>
      <trkpt lat="44.16787" lon="4.48463">
        <ele>202</ele>
        <time>2016-04-01T12:24:29Z</time>
      </trkpt>
      <trkpt lat="44.16784" lon="4.48453">
        <ele>202</ele>
        <time>2016-04-01T12:26:29Z</time>
      </trkpt>
      <trkpt lat="44.1678" lon="4.48444">
        <ele>202</ele>
        <time>2016-04-01T12:28:29Z</time>
      </trkpt>
      <trkpt lat="44.16775" lon="4.48436">
        <ele>202</ele>
        <time>2016-04-01T12:30:29Z</time>
      </trkpt>
      <trkpt lat="44.1677" lon="4.48428">
        <ele>201</ele>
        <time>2016-04-01T12:32:29Z</time>
      </trkpt>
      <trkpt lat="44.16764" lon="4.48423">
        <ele>201</ele>
        <time>2016-04-01T12:34:29Z</time>
      </trkpt>
      <trkpt lat="44.16758" lon="4.48418">
        <ele>200</ele>
        <time>2016-04-01T12:36:29Z</time>
      </trkpt>
      <trkpt lat="44.16751" lon="4.48414">
        <ele>199</ele>
        <time>2016-04-01T12:38:29Z</time>
      </trkpt>
      <trkpt lat="44.16744" lon="4.48412">
        <ele>199</ele>
        <time>2016-04-01T12:40:29Z</time>
      </trkpt>
      <trkpt lat="44.16736" lon="4.4841">
        <ele>199</ele>
        <time>2016-04-01T12:42:29Z</time>
      </trkpt>
      <trkpt lat="44.16684" lon="4.48405">
        <ele>200</ele>
        <time>2016-04-01T12:44:29Z</time>
      </trkpt>
      <trkpt lat="44.16665" lon="4.48402">
        <ele>200</ele>
        <time>2016-04-01T12:46:29Z</time>
      </trkpt>
      <trkpt lat="44.16641" lon="4.48399">
        <ele>201</ele>
        <time>2016-04-01T12:48:29Z</time>
      </trkpt>
      <trkpt lat="44.16636" lon="4.48398">
        <ele>201</ele>
        <time>2016-04-01T12:50:29Z</time>
      </trkpt>
      <trkpt lat="44.16632" lon="4.48398">
        <ele>201</ele>
        <time>2016-04-01T12:52:29Z</time>
      </trkpt>
      <trkpt lat="44.16618" lon="4.48402">
        <ele>201</ele>
        <time>2016-04-01T12:54:29Z</time>
      </trkpt>
      <trkpt lat="44.1661" lon="4.48406">
        <ele>202</ele>
        <time>2016-04-01T12:56:29Z</time>
      </trkpt>
      <trkpt lat="44.16595" lon="4.48415">
        <ele>203</ele>
        <time>2016-04-01T12:58:29Z</time>
      </trkpt>
      <trkpt lat="44.16571" lon="4.48429">
        <ele>205</ele>
        <time>2016-04-01T13:00:29Z</time>
      </trkpt>
      <trkpt lat="44.16563" lon="4.48435">
        <ele>205</ele>
        <time>2016-04-01T13:02:29Z</time>
      </trkpt>
      <trkpt lat="44.16539" lon="4.48451">
        <ele>207</ele>
        <time>2016-04-01T13:04:29Z</time>
      </trkpt>
      <trkpt lat="44.16523" lon="4.48461">
        <ele>208</ele>
        <time>2016-04-01T13:06:29Z</time>
      </trkpt>
      <trkpt lat="44.16507" lon="4.48471">
        <ele>209</ele>
        <time>2016-04-01T13:08:29Z</time>
      </trkpt>
      <trkpt lat="44.1649" lon="4.48481">
        <ele>211</ele>
        <time>2016-04-01T13:10:29Z</time>
      </trkpt>
      <trkpt lat="44.16481" lon="4.48486">
        <ele>212</ele>
        <time>2016-04-01T13:12:29Z</time>
      </trkpt>
      <trkpt lat="44.16456" lon="4.48496">
        <ele>214</ele>
        <time>2016-04-01T13:14:29Z</time>
      </trkpt>
      <trkpt lat="44.16448" lon="4.48499">
        <ele>214</ele>
        <time>2016-04-01T13:16:29Z</time>
      </trkpt>
      <trkpt lat="44.1643" lon="4.48503">
        <ele>215</ele>
        <time>2016-04-01T13:18:29Z</time>
      </trkpt>
      <trkpt lat="44.16421" lon="4.48505">
        <ele>215</ele>
        <time>2016-04-01T13:20:29Z</time>
      </trkpt>
      <trkpt lat="44.16395" lon="4.4851">
        <ele>217</ele>
        <time>2016-04-01T13:22:29Z</time>
      </trkpt>
      <trkpt lat="44.16386" lon="4.48513">
        <ele>217</ele>
        <time>2016-04-01T13:24:29Z</time>
      </trkpt>
      <trkpt lat="44.16379" lon="4.48515">
        <ele>217</ele>
        <time>2016-04-01T13:26:29Z</time>
      </trkpt>
      <trkpt lat="44.16371" lon="4.48518">
        <ele>218</ele>
        <time>2016-04-01T13:28:29Z</time>
      </trkpt>
      <trkpt lat="44.16363" lon="4.48522">
        <ele>218</ele>
        <time>2016-04-01T13:30:29Z</time>
      </trkpt>
      <trkpt lat="44.16357" lon="4.48525">
        <ele>218</ele>
        <time>2016-04-01T13:32:29Z</time>
      </trkpt>
      <trkpt lat="44.16348" lon="4.48529">
        <ele>219</ele>
        <time>2016-04-01T13:34:29Z</time>
      </trkpt>
      <trkpt lat="44.16335" lon="4.48537">
        <ele>219</ele>
        <time>2016-04-01T13:36:29Z</time>
      </trkpt>
      <trkpt lat="44.16315" lon="4.4855">
        <ele>219</ele>
        <time>2016-04-01T13:38:29Z</time>
      </trkpt>
      <trkpt lat="44.16299" lon="4.48563">
        <ele>219</ele>
        <time>2016-04-01T13:40:29Z</time>
      </trkpt>
      <trkpt lat="44.16295" lon="4.48566">
        <ele>219</ele>
        <time>2016-04-01T13:42:29Z</time>
      </trkpt>
      <trkpt lat="44.16284" lon="4.48575">
        <ele>220</ele>
        <time>2016-04-01T13:44:29Z</time>
      </trkpt>
      <trkpt lat="44.16273" lon="4.48583">
        <ele>220</ele>
        <time>2016-04-01T13:46:29Z</time>
      </trkpt>
      <trkpt lat="44.16257" lon="4.48593">
        <ele>219</ele>
        <time>2016-04-01T13:48:29Z</time>
      </trkpt>
      <trkpt lat="44.16251" lon="4.48595">
        <ele>219</ele>
        <time>2016-04-01T13:50:29Z</time>
      </trkpt>
      <trkpt lat="44.16239" lon="4.48599">
        <ele>218</ele>
        <time>2016-04-01T13:52:29Z</time>
      </trkpt>
      <trkpt lat="44.16221" lon="4.48603">
        <ele>218</ele>
        <time>2016-04-01T13:54:29Z</time>
      </trkpt>
      <trkpt lat="44.16202" lon="4.48605">
        <ele>218</ele>
        <time>2016-04-01T13:56:29Z</time>
      </trkpt>
      <trkpt lat="44.16191" lon="4.48606">
        <ele>219</ele>
        <time>2016-04-01T13:58:29Z</time>
      </trkpt>
      <trkpt lat="44.16186" lon="4.48607">
        <ele>219</ele>
        <time>2016-04-01T14:00:29Z</time>
      </trkpt>
      <trkpt lat="44.16174" lon="4.4861">
        <ele>219</ele>
        <time>2016-04-01T14:02:29Z</time>
      </trkpt>
      <trkpt lat="44.1617" lon="4.48611">
        <ele>219</ele>
        <time>2016-04-01T14:04:29Z</time>
      </trkpt>
      <trkpt lat="44.16163" lon="4.48614">
        <ele>219</ele>
        <time>2016-04-01T14:06:29Z</time>
      </trkpt>
      <trkpt lat="44.16128" lon="4.48626">
        <ele>219</ele>
        <time>2016-04-01T14:08:29Z</time>
      </trkpt>
      <trkpt lat="44.16118" lon="4.48628">
        <ele>219</ele>
        <time>2016-04-01T14:10:29Z</time>
      </trkpt>
      <trkpt lat="44.16109" lon="4.48629">
        <ele>219</ele>
        <time>2016-04-01T14:12:29Z</time>
      </trkpt>
      <trkpt lat="44.16074" lon="4.48631">
        <ele>220</ele>
        <time>2016-04-01T14:14:29Z</time>
      </trkpt>
      <trkpt lat="44.16052" lon="4.48633">
        <ele>220</ele>
        <time>2016-04-01T14:16:29Z</time>
      </trkpt>
      <trkpt lat="44.16039" lon="4.48633">
        <ele>221</ele>
        <time>2016-04-01T14:18:29Z</time>
      </trkpt>
      <trkpt lat="44.16026" lon="4.48634">
        <ele>221</ele>
        <time>2016-04-01T14:20:29Z</time>
      </trkpt>
      <trkpt lat="44.16019" lon="4.48634">
        <ele>221</ele>
        <time>2016-04-01T14:22:29Z</time>
      </trkpt>
      <trkpt lat="44.16013" lon="4.48634">
        <ele>221</ele>
        <time>2016-04-01T14:24:29Z</time>
      </trkpt>
      <trkpt lat="44.16005" lon="4.48634">
        <ele>221</ele>
        <time>2016-04-01T14:26:29Z</time>
      </trkpt>
      <trkpt lat="44.15998" lon="4.48634">
        <ele>221</ele>
        <time>2016-04-01T14:28:29Z</time>
      </trkpt>
      <trkpt lat="44.15974" lon="4.48636">
        <ele>222</ele>
        <time>2016-04-01T14:30:29Z</time>
      </trkpt>
      <trkpt lat="44.15949" lon="4.48639">
        <ele>222</ele>
        <time>2016-04-01T14:32:29Z</time>
      </trkpt>
      <trkpt lat="44.15903" lon="4.48641">
        <ele>223</ele>
        <time>2016-04-01T14:34:29Z</time>
      </trkpt>
      <trkpt lat="44.15878" lon="4.48643">
        <ele>222</ele>
        <time>2016-04-01T14:36:29Z</time>
      </trkpt>
      <trkpt lat="44.15849" lon="4.48643">
        <ele>222</ele>
        <time>2016-04-01T14:38:29Z</time>
      </trkpt>
      <trkpt lat="44.1584" lon="4.48643">
        <ele>222</ele>
        <time>2016-04-01T14:40:29Z</time>
      </trkpt>
      <trkpt lat="44.15829" lon="4.48642">
        <ele>222</ele>
        <time>2016-04-01T14:42:29Z</time>
      </trkpt>
      <trkpt lat="44.15819" lon="4.4864">
        <ele>222</ele>
        <time>2016-04-01T14:44:29Z</time>
      </trkpt>
      <trkpt lat="44.15806" lon="4.48636">
        <ele>222</ele>
        <time>2016-04-01T14:46:29Z</time>
      </trkpt>
      <trkpt lat="44.15764" lon="4.48623">
        <ele>222</ele>
        <time>2016-04-01T14:48:29Z</time>
      </trkpt>
      <trkpt lat="44.15734" lon="4.48613">
        <ele>221</ele>
        <time>2016-04-01T14:50:29Z</time>
      </trkpt>
      <trkpt lat="44.1568" lon="4.48595">
        <ele>222</ele>
        <time>2016-04-01T14:52:29Z</time>
      </trkpt>
      <trkpt lat="44.1566" lon="4.48589">
        <ele>222</ele>
        <time>2016-04-01T14:54:29Z</time>
      </trkpt>
      <trkpt lat="44.15648" lon="4.48587">
        <ele>222</ele>
        <time>2016-04-01T14:56:29Z</time>
      </trkpt>
      <trkpt lat="44.15638" lon="4.48586">
        <ele>222</ele>
        <time>2016-04-01T14:58:29Z</time>
      </trkpt>
      <trkpt lat="44.15628" lon="4.48587">
        <ele>221</ele>
        <time>2016-04-01T15:00:29Z</time>
      </trkpt>
      <trkpt lat="44.15619" lon="4.48589">
        <ele>221</ele>
        <time>2016-04-01T15:02:29Z</time>
      </trkpt>
      <trkpt lat="44.15606" lon="4.48593">
        <ele>221</ele>
        <time>2016-04-01T15:04:29Z</time>
      </trkpt>
      <trkpt lat="44.15597" lon="4.48599">
        <ele>221</ele>
        <time>2016-04-01T15:06:29Z</time>
      </trkpt>
      <trkpt lat="44.1557" lon="4.48616">
        <ele>222</ele>
        <time>2016-04-01T15:08:29Z</time>
      </trkpt>
      <trkpt lat="44.15554" lon="4.48626">
        <ele>222</ele>
        <time>2016-04-01T15:10:29Z</time>
      </trkpt>
      <trkpt lat="44.1554" lon="4.48636">
        <ele>223</ele>
        <time>2016-04-01T15:12:29Z</time>
      </trkpt>
      <trkpt lat="44.15524" lon="4.48646">
        <ele>223</ele>
        <time>2016-04-01T15:14:29Z</time>
      </trkpt>
      <trkpt lat="44.15508" lon="4.48655">
        <ele>224</ele>
        <time>2016-04-01T15:16:29Z</time>
      </trkpt>
      <trkpt lat="44.15497" lon="4.48661">
        <ele>225</ele>
        <time>2016-04-01T15:18:29Z</time>
      </trkpt>
      <trkpt lat="44.15489" lon="4.48663">
        <ele>226</ele>
        <time>2016-04-01T15:20:29Z</time>
      </trkpt>
      <trkpt lat="44.15479" lon="4.48664">
        <ele>226</ele>
        <time>2016-04-01T15:22:29Z</time>
      </trkpt>
      <trkpt lat="44.15469" lon="4.48664">
        <ele>227</ele>
        <time>2016-04-01T15:24:29Z</time>
      </trkpt>
      <trkpt lat="44.15458" lon="4.48662">
        <ele>228</ele>
        <time>2016-04-01T15:26:29Z</time>
      </trkpt>
      <trkpt lat="44.15438" lon="4.48653">
        <ele>229</ele>
        <time>2016-04-01T15:28:29Z</time>
      </trkpt>
      <trkpt lat="44.15399" lon="4.48639">
        <ele>232</ele>
        <time>2016-04-01T15:30:29Z</time>
      </trkpt>
      <trkpt lat="44.15363" lon="4.48625">
        <ele>236</ele>
        <time>2016-04-01T15:32:29Z</time>
      </trkpt>
      <trkpt lat="44.15335" lon="4.48614">
        <ele>239</ele>
        <time>2016-04-01T15:34:29Z</time>
      </trkpt>
      <trkpt lat="44.15325" lon="4.48607">
        <ele>240</ele>
        <time>2016-04-01T15:36:29Z</time>
      </trkpt>
      <trkpt lat="44.15315" lon="4.48599">
        <ele>241</ele>
        <time>2016-04-01T15:38:29Z</time>
      </trkpt>
      <trkpt lat="44.15303" lon="4.48586">
        <ele>242</ele>
        <time>2016-04-01T15:40:29Z</time>
      </trkpt>
      <trkpt lat="44.15301" lon="4.48584">
        <ele>242</ele>
        <time>2016-04-01T15:42:29Z</time>
      </trkpt>
      <trkpt lat="44.15286" lon="4.4856">
        <ele>243</ele>
        <time>2016-04-01T15:44:29Z</time>
      </trkpt>
      <trkpt lat="44.15258" lon="4.48518">
        <ele>246</ele>
        <time>2016-04-01T15:46:29Z</time>
      </trkpt>
      <trkpt lat="44.15238" lon="4.48486">
        <ele>245</ele>
        <time>2016-04-01T15:48:29Z</time>
      </trkpt>
      <trkpt lat="44.1521" lon="4.48443">
        <ele>243</ele>
        <time>2016-04-01T15:50:29Z</time>
      </trkpt>
      <trkpt lat="44.1519" lon="4.48417">
        <ele>243</ele>
        <time>2016-04-01T15:52:29Z</time>
      </trkpt>
      <trkpt lat="44.15185" lon="4.48412">
        <ele>244</ele>
        <time>2016-04-01T15:54:29Z</time>
      </trkpt>
      <trkpt lat="44.15178" lon="4.48407">
        <ele>245</ele>
        <time>2016-04-01T15:56:29Z</time>
      </trkpt>
      <trkpt lat="44.15169" lon="4.48401">
        <ele>246</ele>
        <time>2016-04-01T15:58:29Z</time>
      </trkpt>
      <trkpt lat="44.15161" lon="4.48398">
        <ele>246</ele>
        <time>2016-04-01T16:00:29Z</time>
      </trkpt>
      <trkpt lat="44.15158" lon="4.48397">
        <ele>246</ele>
        <time>2016-04-01T16:02:29Z</time>
      </trkpt>
      <trkpt lat="44.15139" lon="4.48398">
        <ele>248</ele>
        <time>2016-04-01T16:04:29Z</time>
      </trkpt>
      <trkpt lat="44.15128" lon="4.48401">
        <ele>249</ele>
        <time>2016-04-01T16:06:29Z</time>
      </trkpt>
      <trkpt lat="44.15117" lon="4.48407">
        <ele>249</ele>
        <time>2016-04-01T16:08:29Z</time>
      </trkpt>
      <trkpt lat="44.15106" lon="4.48416">
        <ele>250</ele>
        <time>2016-04-01T16:10:29Z</time>
      </trkpt>
      <trkpt lat="44.15098" lon="4.48428">
        <ele>250</ele>
        <time>2016-04-01T16:12:29Z</time>
      </trkpt>
      <trkpt lat="44.15092" lon="4.48439">
        <ele>250</ele>
        <time>2016-04-01T16:14:29Z</time>
      </trkpt>
      <trkpt lat="44.15088" lon="4.48449">
        <ele>250</ele>
        <time>2016-04-01T16:16:29Z</time>
      </trkpt>
      <trkpt lat="44.15084" lon="4.48459">
        <ele>249</ele>
        <time>2016-04-01T16:18:29Z</time>
      </trkpt>
      <trkpt lat="44.15083" lon="4.48464">
        <ele>249</ele>
        <time>2016-04-01T16:20:29Z</time>
      </trkpt>
      <trkpt lat="44.15082" lon="4.48468">
        <ele>249</ele>
        <time>2016-04-01T16:22:29Z</time>
      </trkpt>
      <trkpt lat="44.15082" lon="4.4848">
        <ele>249</ele>
        <time>2016-04-01T16:24:29Z</time>
      </trkpt>
      <trkpt lat="44.15082" lon="4.48493">
        <ele>248</ele>
        <time>2016-04-01T16:26:29Z</time>
      </trkpt>
      <trkpt lat="44.15082" lon="4.48506">
        <ele>248</ele>
        <time>2016-04-01T16:28:29Z</time>
      </trkpt>
      <trkpt lat="44.15084" lon="4.4854">
        <ele>247</ele>
        <time>2016-04-01T16:30:29Z</time>
      </trkpt>
      <trkpt lat="44.15089" lon="4.48579">
        <ele>247</ele>
        <time>2016-04-01T16:32:29Z</time>
      </trkpt>
      <trkpt lat="44.15097" lon="4.48666">
        <ele>244</ele>
        <time>2016-04-01T16:34:29Z</time>
      </trkpt>
      <trkpt lat="44.15102" lon="4.48715">
        <ele>243</ele>
        <time>2016-04-01T16:36:29Z</time>
      </trkpt>
      <trkpt lat="44.15102" lon="4.4873">
        <ele>243</ele>
        <time>2016-04-01T16:38:29Z</time>
      </trkpt>
      <trkpt lat="44.15101" lon="4.48741">
        <ele>242</ele>
        <time>2016-04-01T16:40:29Z</time>
      </trkpt>
      <trkpt lat="44.15099" lon="4.48751">
        <ele>242</ele>
        <time>2016-04-01T16:42:29Z</time>
      </trkpt>
      <trkpt lat="44.15097" lon="4.4876">
        <ele>241</ele>
        <time>2016-04-01T16:44:29Z</time>
      </trkpt>
      <trkpt lat="44.15092" lon="4.48774">
        <ele>241</ele>
        <time>2016-04-01T16:46:29Z</time>
      </trkpt>
      <trkpt lat="44.15088" lon="4.48783">
        <ele>240</ele>
        <time>2016-04-01T16:48:29Z</time>
      </trkpt>
      <trkpt lat="44.15083" lon="4.4879">
        <ele>240</ele>
        <time>2016-04-01T16:50:29Z</time>
      </trkpt>
      <trkpt lat="44.1507" lon="4.48806">
        <ele>239</ele>
        <time>2016-04-01T16:52:29Z</time>
      </trkpt>
      <trkpt lat="44.15043" lon="4.48834">
        <ele>238</ele>
        <time>2016-04-01T16:54:29Z</time>
      </trkpt>
      <trkpt lat="44.15028" lon="4.4885">
        <ele>238</ele>
        <time>2016-04-01T16:56:29Z</time>
      </trkpt>
      <trkpt lat="44.15008" lon="4.48871">
        <ele>238</ele>
        <time>2016-04-01T16:58:29Z</time>
      </trkpt>
      <trkpt lat="44.14974" lon="4.48902">
        <ele>237</ele>
        <time>2016-04-01T17:00:29Z</time>
      </trkpt>
      <trkpt lat="44.14961" lon="4.48911">
        <ele>236</ele>
        <time>2016-04-01T17:02:29Z</time>
      </trkpt>
      <trkpt lat="44.14954" lon="4.48914">
        <ele>236</ele>
        <time>2016-04-01T17:04:29Z</time>
      </trkpt>
      <trkpt lat="44.14947" lon="4.48915">
        <ele>236</ele>
        <time>2016-04-01T17:06:29Z</time>
      </trkpt>
      <trkpt lat="44.14941" lon="4.48915">
        <ele>236</ele>
        <time>2016-04-01T17:08:29Z</time>
      </trkpt>
      <trkpt lat="44.14927" lon="4.48914">
        <ele>235</ele>
        <time>2016-04-01T17:10:29Z</time>
      </trkpt>
      <trkpt lat="44.14884" lon="4.48901">
        <ele>234</ele>
        <time>2016-04-01T17:12:29Z</time>
      </trkpt>
      <trkpt lat="44.14847" lon="4.4889">
        <ele>233</ele>
        <time>2016-04-01T17:14:29Z</time>
      </trkpt>
      <trkpt lat="44.14845" lon="4.4889">
        <ele>232</ele>
        <time>2016-04-01T17:16:29Z</time>
      </trkpt>
      <trkpt lat="44.14797" lon="4.48875">
        <ele>230</ele>
        <time>2016-04-01T17:18:29Z</time>
      </trkpt>
      <trkpt lat="44.1479" lon="4.48873">
        <ele>230</ele>
        <time>2016-04-01T17:20:29Z</time>
      </trkpt>
      <trkpt lat="44.14783" lon="4.48871">
        <ele>230</ele>
        <time>2016-04-01T17:22:29Z</time>
      </trkpt>
      <trkpt lat="44.14771" lon="4.48868">
        <ele>229</ele>
        <time>2016-04-01T17:24:29Z</time>
      </trkpt>
      <trkpt lat="44.14761" lon="4.48868">
        <ele>229</ele>
        <time>2016-04-01T17:26:29Z</time>
      </trkpt>
      <trkpt lat="44.14753" lon="4.48868">
        <ele>228</ele>
        <time>2016-04-01T17:28:29Z</time>
      </trkpt>
      <trkpt lat="44.14744" lon="4.48868">
        <ele>228</ele>
        <time>2016-04-01T17:30:29Z</time>
      </trkpt>
      <trkpt lat="44.14715" lon="4.48872">
        <ele>226</ele>
        <time>2016-04-01T17:32:29Z</time>
      </trkpt>
      <trkpt lat="44.14679" lon="4.48877">
        <ele>223</ele>
        <time>2016-04-01T17:34:29Z</time>
      </trkpt>
      <trkpt lat="44.14652" lon="4.48882">
        <ele>222</ele>
        <time>2016-04-01T17:36:29Z</time>
      </trkpt>
      <trkpt lat="44.14625" lon="4.48886">
        <ele>220</ele>
        <time>2016-04-01T17:38:29Z</time>
      </trkpt>
      <trkpt lat="44.14588" lon="4.48891">
        <ele>219</ele>
        <time>2016-04-01T17:40:29Z</time>
      </trkpt>
      <trkpt lat="44.14571" lon="4.48895">
        <ele>218</ele>
        <time>2016-04-01T17:42:29Z</time>
      </trkpt>
      <trkpt lat="44.14559" lon="4.48893">
        <ele>217</ele>
        <time>2016-04-01T17:44:29Z</time>
      </trkpt>
      <trkpt lat="44.14547" lon="4.48892">
        <ele>217</ele>
        <time>2016-04-01T17:46:29Z</time>
      </trkpt>
      <trkpt lat="44.14537" lon="4.4889">
        <ele>216</ele>
        <time>2016-04-01T17:48:29Z</time>
      </trkpt>
      <trkpt lat="44.14527" lon="4.48889">
        <ele>216</ele>
        <time>2016-04-01T17:50:29Z</time>
      </trkpt>
      <trkpt lat="44.14523" lon="4.48888">
        <ele>216</ele>
        <time>2016-04-01T17:52:29Z</time>
      </trkpt>
      <trkpt lat="44.14516" lon="4.48887">
        <ele>215</ele>
        <time>2016-04-01T17:54:29Z</time>
      </trkpt>
      <trkpt lat="44.14516" lon="4.48887">
        <ele>215</ele>
        <time>2016-04-01T17:56:29Z</time>
      </trkpt>
      <trkpt lat="44.14504" lon="4.48896">
        <ele>215</ele>
        <time>2016-04-01T17:58:29Z</time>
      </trkpt>
      <trkpt lat="44.14504" lon="4.48896">
        <ele>215</ele>
        <time>2016-04-01T18:00:29Z</time>
      </trkpt>
      <trkpt lat="44.14507" lon="4.48904">
        <ele>215</ele>
        <time>2016-04-01T18:02:29Z</time>
      </trkpt>
      <trkpt lat="44.14521" lon="4.48929">
        <ele>214</ele>
        <time>2016-04-01T18:04:29Z</time>
      </trkpt>
      <trkpt lat="44.14523" lon="4.48932">
        <ele>214</ele>
        <time>2016-04-01T18:06:29Z</time>
      </trkpt>
      <trkpt lat="44.14547" lon="4.48975">
        <ele>211</ele>
        <time>2016-04-01T18:08:29Z</time>
      </trkpt>
      <trkpt lat="44.14578" lon="4.49029">
        <ele>208</ele>
        <time>2016-04-01T18:10:29Z</time>
      </trkpt>
      <trkpt lat="44.14604" lon="4.49075">
        <ele>208</ele>
        <time>2016-04-01T18:12:29Z</time>
      </trkpt>
      <trkpt lat="44.14624" lon="4.49108">
        <ele>207</ele>
        <time>2016-04-01T18:14:29Z</time>
      </trkpt>
      <trkpt lat="44.14644" lon="4.49145">
        <ele>206</ele>
        <time>2016-04-01T18:16:29Z</time>
      </trkpt>
      <trkpt lat="44.14658" lon="4.49169">
        <ele>206</ele>
        <time>2016-04-01T18:18:29Z</time>
      </trkpt>
      <trkpt lat="44.14671" lon="4.49192">
        <ele>206</ele>
        <time>2016-04-01T18:20:29Z</time>
      </trkpt>
      <trkpt lat="44.14671" lon="4.49192">
        <ele>206</ele>
        <time>2016-04-01T18:22:29Z</time>
      </trkpt>
      <trkpt lat="44.14668" lon="4.49196">
        <ele>206</ele>
        <time>2016-04-01T18:24:29Z</time>
      </trkpt>
      <trkpt lat="44.14667" lon="4.49197">
        <ele>206</ele>
        <time>2016-04-01T18:26:29Z</time>
      </trkpt>
      <trkpt lat="44.14666" lon="4.49197">
        <ele>206</ele>
        <time>2016-04-01T18:28:29Z</time>
      </trkpt>
      <trkpt lat="44.14664" lon="4.49197">
        <ele>206</ele>
        <time>2016-04-01T18:30:29Z</time>
      </trkpt>
      <trkpt lat="44.14662" lon="4.49197">
        <ele>206</ele>
        <time>2016-04-01T18:32:29Z</time>
      </trkpt>
      <trkpt lat="44.1466" lon="4.49197">
        <ele>205</ele>
        <time>2016-04-01T18:34:29Z</time>
      </trkpt>
      <trkpt lat="44.14654" lon="4.49195">
        <ele>205</ele>
        <time>2016-04-01T18:36:29Z</time>
      </trkpt>
      <trkpt lat="44.14647" lon="4.49191">
        <ele>205</ele>
        <time>2016-04-01T18:38:29Z</time>
      </trkpt>
      <trkpt lat="44.14629" lon="4.49181">
        <ele>203</ele>
        <time>2016-04-01T18:40:29Z</time>
      </trkpt>
      <trkpt lat="44.14612" lon="4.4917">
        <ele>202</ele>
        <time>2016-04-01T18:42:29Z</time>
      </trkpt>
      <trkpt lat="44.14612" lon="4.4917">
        <ele>202</ele>
        <time>2016-04-01T18:44:29Z</time>
      </trkpt>
      <trkpt lat="44.14606" lon="4.4918">
        <ele>202</ele>
        <time>2016-04-01T18:46:29Z</time>
      </trkpt>
      <trkpt lat="44.14597" lon="4.49191">
        <ele>201</ele>
        <time>2016-04-01T18:48:29Z</time>
      </trkpt>
      <trkpt lat="44.14592" lon="4.49198">
        <ele>200</ele>
        <time>2016-04-01T18:50:29Z</time>
      </trkpt>
      <trkpt lat="44.14584" lon="4.49203">
        <ele>199</ele>
        <time>2016-04-01T18:52:29Z</time>
      </trkpt>
      <trkpt lat="44.14567" lon="4.49214">
        <ele>199</ele>
        <time>2016-04-01T18:54:29Z</time>
      </trkpt>
      <trkpt lat="44.14556" lon="4.49221">
        <ele>198</ele>
        <time>2016-04-01T18:56:29Z</time>
      </trkpt>
      <trkpt lat="44.14548" lon="4.49226">
        <ele>198</ele>
        <time>2016-04-01T18:58:29Z</time>
      </trkpt>
      <trkpt lat="44.14542" lon="4.49229">
        <ele>198</ele>
        <time>2016-04-01T19:00:29Z</time>
      </trkpt>
      <trkpt lat="44.14537" lon="4.49233">
        <ele>197</ele>
        <time>2016-04-01T19:02:29Z</time>
      </trkpt>
      <trkpt lat="44.14531" lon="4.49239">
        <ele>197</ele>
        <time>2016-04-01T19:04:29Z</time>
      </trkpt>
      <trkpt lat="44.14525" lon="4.49244">
        <ele>197</ele>
        <time>2016-04-01T19:06:29Z</time>
      </trkpt>
      <trkpt lat="44.14521" lon="4.49251">
        <ele>196</ele>
        <time>2016-04-01T19:08:29Z</time>
      </trkpt>
      <trkpt lat="44.14515" lon="4.49257">
        <ele>196</ele>
        <time>2016-04-01T19:10:29Z</time>
      </trkpt>
      <trkpt lat="44.14509" lon="4.49262">
        <ele>195</ele>
        <time>2016-04-01T19:12:29Z</time>
      </trkpt>
      <trkpt lat="44.14502" lon="4.49271">
        <ele>195</ele>
        <time>2016-04-01T19:14:29Z</time>
      </trkpt>
      <trkpt lat="44.14494" lon="4.4928">
        <ele>194</ele>
        <time>2016-04-01T19:16:29Z</time>
      </trkpt>
      <trkpt lat="44.14483" lon="4.49294">
        <ele>192</ele>
        <time>2016-04-01T19:18:29Z</time>
      </trkpt>
      <trkpt lat="44.14475" lon="4.49306">
        <ele>191</ele>
        <time>2016-04-01T19:20:29Z</time>
      </trkpt>
      <trkpt lat="44.14471" lon="4.49312">
        <ele>191</ele>
        <time>2016-04-01T19:22:29Z</time>
      </trkpt>
      <trkpt lat="44.14469" lon="4.49318">
        <ele>190</ele>
        <time>2016-04-01T19:24:29Z</time>
      </trkpt>
      <trkpt lat="44.14467" lon="4.49325">
        <ele>190</ele>
        <time>2016-04-01T19:26:29Z</time>
      </trkpt>
      <trkpt lat="44.14466" lon="4.4933">
        <ele>190</ele>
        <time>2016-04-01T19:28:29Z</time>
      </trkpt>
      <trkpt lat="44.14464" lon="4.49335">
        <ele>189</ele>
        <time>2016-04-01T19:30:29Z</time>
      </trkpt>
      <trkpt lat="44.1446" lon="4.49342">
        <ele>189</ele>
        <time>2016-04-01T19:32:29Z</time>
      </trkpt>
      <trkpt lat="44.14452" lon="4.49354">
        <ele>188</ele>
        <time>2016-04-01T19:34:29Z</time>
      </trkpt>
      <trkpt lat="44.14442" lon="4.49374">
        <ele>186</ele>
        <time>2016-04-01T19:36:29Z</time>
      </trkpt>
      <trkpt lat="44.14439" lon="4.49383">
        <ele>186</ele>
        <time>2016-04-01T19:38:29Z</time>
      </trkpt>
      <trkpt lat="44.14433" lon="4.49397">
        <ele>185</ele>
        <time>2016-04-01T19:40:29Z</time>
      </trkpt>
      <trkpt lat="44.14433" lon="4.49397">
        <ele>185</ele>
        <time>2016-04-01T19:42:29Z</time>
      </trkpt>
      <trkpt lat="44.1442" lon="4.4938">
        <ele>185</ele>
        <time>2016-04-01T19:44:29Z</time>
      </trkpt>
      <trkpt lat="44.14399" lon="4.49353">
        <ele>186</ele>
        <time>2016-04-01T19:46:29Z</time>
      </trkpt>
      <trkpt lat="44.14388" lon="4.49339">
        <ele>187</ele>
        <time>2016-04-01T19:48:29Z</time>
      </trkpt>
      <trkpt lat="44.14385" lon="4.49334">
        <ele>187</ele>
        <time>2016-04-01T19:50:29Z</time>
      </trkpt>
    </trkseg>
  </trk>
</gpx>